<?xml version='1.0' encoding='UTF-8'?><gpx version="1.1" creator="JPX - https://github.com/jenetics/jpx" xmlns="http://www.topografix.com/GPX/1/1"><trk><trkseg><trkpt lat="45.5771513" lon="10.7553683"><ele>206.00000000000003</ele><time>2026-04-26T06:34:50.791Z</time></trkpt><trkpt lat="45.5771589" lon="10.7552778"><ele>206.0</ele><time>2026-04-26T06:35:04.79Z</time></trkpt><trkpt lat="45.5772121" lon="10.7553457"><ele>206.0</ele><time>2026-04-26T06:45:50.787Z</time></trkpt><trkpt lat="45.577237" lon="10.7554692"><ele>206.0</ele><time>2026-04-26T06:45:53.786Z</time></trkpt><trkpt lat="45.5772442" lon="10.7555819"><ele>206.00000000000003</ele><time>2026-04-26T06:45:55.786Z</time></trkpt><trkpt lat="45.5772526" lon="10.7556951"><ele>206.0</ele><time>2026-04-26T06:45:57.786Z</time></trkpt><trkpt lat="45.5772516" lon="10.7558174"><ele>206.00000000000003</ele><time>2026-04-26T06:46:00.786Z</time></trkpt><trkpt lat="45.5772333" lon="10.7559063"><ele>206.0</ele><time>2026-04-26T06:46:07.787Z</time></trkpt><trkpt lat="45.577164" lon="10.7560788"><ele>206.0</ele><time>2026-04-26T06:46:43.785Z</time></trkpt><trkpt lat="45.5771486" lon="10.7561855"><ele>206.0</ele><time>2026-04-26T06:47:17.786Z</time></trkpt><trkpt lat="45.5771324" lon="10.7562776"><ele>206.00000000000003</ele><time>2026-04-26T06:47:30.785Z</time></trkpt><trkpt lat="45.5770934" lon="10.756363"><ele>206.0</ele><time>2026-04-26T06:47:37.785Z</time></trkpt><trkpt lat="45.5770588" lon="10.7564485"><ele>205.8</ele><time>2026-04-26T06:47:46.785Z</time></trkpt><trkpt lat="45.577003" lon="10.7565219"><ele>205.60000000000002</ele><time>2026-04-26T06:47:55.785Z</time></trkpt><trkpt lat="45.5769465" lon="10.7566375"><ele>205.4</ele><time>2026-04-26T06:47:57.785Z</time></trkpt><trkpt lat="45.5768848" lon="10.7567311"><ele>205.2</ele><time>2026-04-26T06:47:59.786Z</time></trkpt><trkpt lat="45.5767963" lon="10.7567891"><ele>205.0</ele><time>2026-04-26T06:48:01.786Z</time></trkpt><trkpt lat="45.5767002" lon="10.7568091"><ele>204.99999999999997</ele><time>2026-04-26T06:48:03.786Z</time></trkpt><trkpt lat="45.5766131" lon="10.7568373"><ele>205.0</ele><time>2026-04-26T06:48:05.786Z</time></trkpt><trkpt lat="45.576509" lon="10.7568696"><ele>205.0</ele><time>2026-04-26T06:48:07.785Z</time></trkpt><trkpt lat="45.5764451" lon="10.7568884"><ele>205.0</ele><time>2026-04-26T06:48:08.785Z</time></trkpt><trkpt lat="45.5763756" lon="10.7569251"><ele>204.99999999999997</ele><time>2026-04-26T06:48:09.785Z</time></trkpt><trkpt lat="45.5762992" lon="10.7569532"><ele>205.0</ele><time>2026-04-26T06:48:10.785Z</time></trkpt><trkpt lat="45.5762157" lon="10.7569785"><ele>205.6</ele><time>2026-04-26T06:48:11.786Z</time></trkpt><trkpt lat="45.5761232" lon="10.7570034"><ele>206.2</ele><time>2026-04-26T06:48:12.785Z</time></trkpt><trkpt lat="45.5760228" lon="10.7570289"><ele>206.8</ele><time>2026-04-26T06:48:13.786Z</time></trkpt><trkpt lat="45.5759087" lon="10.7570577"><ele>207.4</ele><time>2026-04-26T06:48:14.785Z</time></trkpt><trkpt lat="45.5757959" lon="10.757099"><ele>208.0</ele><time>2026-04-26T06:48:15.786Z</time></trkpt><trkpt lat="45.575685" lon="10.7571341"><ele>208.0</ele><time>2026-04-26T06:48:16.786Z</time></trkpt><trkpt lat="45.5755766" lon="10.7571742"><ele>208.0</ele><time>2026-04-26T06:48:17.785Z</time></trkpt><trkpt lat="45.5754668" lon="10.757217"><ele>208.0</ele><time>2026-04-26T06:48:18.786Z</time></trkpt><trkpt lat="45.5753543" lon="10.7572634"><ele>208.0</ele><time>2026-04-26T06:48:19.785Z</time></trkpt><trkpt lat="45.575245" lon="10.7572943"><ele>207.8</ele><time>2026-04-26T06:48:20.785Z</time></trkpt><trkpt lat="45.5751353" lon="10.75733"><ele>207.60000000000002</ele><time>2026-04-26T06:48:21.785Z</time></trkpt><trkpt lat="45.575027" lon="10.7573692"><ele>207.39999999999998</ele><time>2026-04-26T06:48:22.785Z</time></trkpt><trkpt lat="45.5749201" lon="10.7574063"><ele>207.2</ele><time>2026-04-26T06:48:23.786Z</time></trkpt><trkpt lat="45.5748132" lon="10.757444"><ele>207.0</ele><time>2026-04-26T06:48:24.785Z</time></trkpt><trkpt lat="45.5747031" lon="10.7574858"><ele>207.0</ele><time>2026-04-26T06:48:25.786Z</time></trkpt><trkpt lat="45.5745903" lon="10.7575316"><ele>207.0</ele><time>2026-04-26T06:48:26.786Z</time></trkpt><trkpt lat="45.574474" lon="10.7575688"><ele>207.0</ele><time>2026-04-26T06:48:27.785Z</time></trkpt><trkpt lat="45.5743552" lon="10.7576086"><ele>207.0</ele><time>2026-04-26T06:48:28.785Z</time></trkpt><trkpt lat="45.5742146" lon="10.7576463"><ele>206.75</ele><time>2026-04-26T06:48:29.785Z</time></trkpt><trkpt lat="45.5740664" lon="10.757698"><ele>206.5</ele><time>2026-04-26T06:48:30.786Z</time></trkpt><trkpt lat="45.5739278" lon="10.7577492"><ele>206.25</ele><time>2026-04-26T06:48:31.786Z</time></trkpt><trkpt lat="45.5738" lon="10.7577733"><ele>206.0</ele><time>2026-04-26T06:48:32.785Z</time></trkpt><trkpt lat="45.5736833" lon="10.7578117"><ele>206.0</ele><time>2026-04-26T06:48:33.785Z</time></trkpt><trkpt lat="45.57358" lon="10.757845"><ele>206.0</ele><time>2026-04-26T06:48:34.786Z</time></trkpt><trkpt lat="45.5734833" lon="10.7578983"><ele>206.0</ele><time>2026-04-26T06:48:35.785Z</time></trkpt><trkpt lat="45.5733867" lon="10.7579217"><ele>206.0</ele><time>2026-04-26T06:48:36.785Z</time></trkpt><trkpt lat="45.5732867" lon="10.757945"><ele>206.0</ele><time>2026-04-26T06:48:37.785Z</time></trkpt><trkpt lat="45.5731967" lon="10.75795"><ele>206.0</ele><time>2026-04-26T06:48:38.785Z</time></trkpt><trkpt lat="45.573105" lon="10.757965"><ele>206.0</ele><time>2026-04-26T06:48:39.785Z</time></trkpt><trkpt lat="45.5730067" lon="10.7579817"><ele>206.0</ele><time>2026-04-26T06:48:40.786Z</time></trkpt><trkpt lat="45.572915" lon="10.758015"><ele>206.0</ele><time>2026-04-26T06:48:41.785Z</time></trkpt><trkpt lat="45.572825" lon="10.758035"><ele>206.0</ele><time>2026-04-26T06:48:42.785Z</time></trkpt><trkpt lat="45.57275" lon="10.7580567"><ele>206.16666666666669</ele><time>2026-04-26T06:48:43.785Z</time></trkpt><trkpt lat="45.5726717" lon="10.7580717"><ele>206.33333333333334</ele><time>2026-04-26T06:48:44.785Z</time></trkpt><trkpt lat="45.5725917" lon="10.7580967"><ele>206.5</ele><time>2026-04-26T06:48:45.785Z</time></trkpt><trkpt lat="45.5725017" lon="10.7581133"><ele>206.66666666666669</ele><time>2026-04-26T06:48:46.786Z</time></trkpt><trkpt lat="45.5724183" lon="10.758125"><ele>206.83333333333334</ele><time>2026-04-26T06:48:47.786Z</time></trkpt><trkpt lat="45.572345" lon="10.758165"><ele>207.0</ele><time>2026-04-26T06:48:48.786Z</time></trkpt><trkpt lat="45.5722767" lon="10.7582117"><ele>207.0</ele><time>2026-04-26T06:48:49.785Z</time></trkpt><trkpt lat="45.57217" lon="10.758265"><ele>207.0</ele><time>2026-04-26T06:48:51.786Z</time></trkpt><trkpt lat="45.5721067" lon="10.758305"><ele>207.0</ele><time>2026-04-26T06:48:52.785Z</time></trkpt><trkpt lat="45.5720233" lon="10.7583317"><ele>207.0</ele><time>2026-04-26T06:48:53.785Z</time></trkpt><trkpt lat="45.5719467" lon="10.7583617"><ele>207.0</ele><time>2026-04-26T06:48:54.785Z</time></trkpt><trkpt lat="45.5718833" lon="10.7584233"><ele>207.0</ele><time>2026-04-26T06:48:55.785Z</time></trkpt><trkpt lat="45.5718183" lon="10.7584867"><ele>206.39999999999998</ele><time>2026-04-26T06:48:56.784Z</time></trkpt><trkpt lat="45.5717467" lon="10.7585667"><ele>205.79999999999998</ele><time>2026-04-26T06:48:57.784Z</time></trkpt><trkpt lat="45.5716617" lon="10.7586383"><ele>205.2</ele><time>2026-04-26T06:48:58.784Z</time></trkpt><trkpt lat="45.5715617" lon="10.7587117"><ele>204.6</ele><time>2026-04-26T06:48:59.784Z</time></trkpt><trkpt lat="45.57147" lon="10.7587917"><ele>204.0</ele><time>2026-04-26T06:49:00.784Z</time></trkpt><trkpt lat="45.5713733" lon="10.7588717"><ele>204.0</ele><time>2026-04-26T06:49:01.785Z</time></trkpt><trkpt lat="45.57127" lon="10.7589567"><ele>204.0</ele><time>2026-04-26T06:49:02.784Z</time></trkpt><trkpt lat="45.571165" lon="10.7590333"><ele>204.0</ele><time>2026-04-26T06:49:03.784Z</time></trkpt><trkpt lat="45.5710517" lon="10.759115"><ele>204.0</ele><time>2026-04-26T06:49:04.784Z</time></trkpt><trkpt lat="45.5709383" lon="10.759205"><ele>203.75</ele><time>2026-04-26T06:49:05.785Z</time></trkpt><trkpt lat="45.570825" lon="10.7592967"><ele>203.5</ele><time>2026-04-26T06:49:06.784Z</time></trkpt><trkpt lat="45.5707067" lon="10.7593933"><ele>203.25</ele><time>2026-04-26T06:49:07.785Z</time></trkpt><trkpt lat="45.570585" lon="10.7594767"><ele>203.0</ele><time>2026-04-26T06:49:08.785Z</time></trkpt><trkpt lat="45.5704767" lon="10.759565"><ele>203.0</ele><time>2026-04-26T06:49:09.785Z</time></trkpt><trkpt lat="45.57037" lon="10.759675"><ele>203.0</ele><time>2026-04-26T06:49:10.785Z</time></trkpt><trkpt lat="45.5702567" lon="10.75977"><ele>203.0</ele><time>2026-04-26T06:49:11.784Z</time></trkpt><trkpt lat="45.5701383" lon="10.75986"><ele>203.0</ele><time>2026-04-26T06:49:12.784Z</time></trkpt><trkpt lat="45.5700217" lon="10.7599567"><ele>202.75</ele><time>2026-04-26T06:49:13.785Z</time></trkpt><trkpt lat="45.5699017" lon="10.7600567"><ele>202.5</ele><time>2026-04-26T06:49:14.784Z</time></trkpt><trkpt lat="45.5697783" lon="10.7601483"><ele>202.25</ele><time>2026-04-26T06:49:15.784Z</time></trkpt><trkpt lat="45.5696683" lon="10.7602367"><ele>202.0</ele><time>2026-04-26T06:49:16.784Z</time></trkpt><trkpt lat="45.5695433" lon="10.7603317"><ele>202.0</ele><time>2026-04-26T06:49:17.784Z</time></trkpt><trkpt lat="45.5694233" lon="10.7604317"><ele>202.0</ele><time>2026-04-26T06:49:18.785Z</time></trkpt><trkpt lat="45.5693217" lon="10.7605167"><ele>202.0</ele><time>2026-04-26T06:49:19.784Z</time></trkpt><trkpt lat="45.5692167" lon="10.7606033"><ele>202.0</ele><time>2026-04-26T06:49:20.785Z</time></trkpt><trkpt lat="45.5691233" lon="10.7606783"><ele>202.0</ele><time>2026-04-26T06:49:21.784Z</time></trkpt><trkpt lat="45.5690183" lon="10.7607533"><ele>202.0</ele><time>2026-04-26T06:49:22.785Z</time></trkpt><trkpt lat="45.5689117" lon="10.7608317"><ele>202.0</ele><time>2026-04-26T06:49:23.785Z</time></trkpt><trkpt lat="45.568805" lon="10.7609017"><ele>202.0</ele><time>2026-04-26T06:49:24.784Z</time></trkpt><trkpt lat="45.56869" lon="10.7609883"><ele>201.5</ele><time>2026-04-26T06:49:25.785Z</time></trkpt><trkpt lat="45.5685733" lon="10.7610783"><ele>201.0</ele><time>2026-04-26T06:49:26.784Z</time></trkpt><trkpt lat="45.5684567" lon="10.7611683"><ele>200.5</ele><time>2026-04-26T06:49:27.784Z</time></trkpt><trkpt lat="45.56834" lon="10.76126"><ele>200.0</ele><time>2026-04-26T06:49:28.784Z</time></trkpt><trkpt lat="45.5682283" lon="10.761355"><ele>200.0</ele><time>2026-04-26T06:49:29.784Z</time></trkpt><trkpt lat="45.5681233" lon="10.761445"><ele>200.0</ele><time>2026-04-26T06:49:30.784Z</time></trkpt><trkpt lat="45.5679917" lon="10.761545"><ele>200.0</ele><time>2026-04-26T06:49:31.785Z</time></trkpt><trkpt lat="45.5678633" lon="10.761635"><ele>200.0</ele><time>2026-04-26T06:49:32.784Z</time></trkpt><trkpt lat="45.56774" lon="10.761725"><ele>200.66666666666669</ele><time>2026-04-26T06:49:33.785Z</time></trkpt><trkpt lat="45.5676133" lon="10.7618317"><ele>201.33333333333331</ele><time>2026-04-26T06:49:34.785Z</time></trkpt><trkpt lat="45.5674833" lon="10.7619433"><ele>202.0</ele><time>2026-04-26T06:49:35.785Z</time></trkpt><trkpt lat="45.5673533" lon="10.76206"><ele>201.66666666666666</ele><time>2026-04-26T06:49:36.785Z</time></trkpt><trkpt lat="45.5672217" lon="10.7621633"><ele>201.33333333333331</ele><time>2026-04-26T06:49:37.785Z</time></trkpt><trkpt lat="45.5670817" lon="10.7622783"><ele>201.0</ele><time>2026-04-26T06:49:38.785Z</time></trkpt><trkpt lat="45.56694" lon="10.7623883"><ele>201.0</ele><time>2026-04-26T06:49:39.784Z</time></trkpt><trkpt lat="45.566815" lon="10.7624983"><ele>201.0</ele><time>2026-04-26T06:49:40.784Z</time></trkpt><trkpt lat="45.5666867" lon="10.7625933"><ele>201.0</ele><time>2026-04-26T06:49:41.784Z</time></trkpt><trkpt lat="45.5665567" lon="10.7626917"><ele>201.0</ele><time>2026-04-26T06:49:42.784Z</time></trkpt><trkpt lat="45.5664183" lon="10.7627767"><ele>200.66666666666669</ele><time>2026-04-26T06:49:43.785Z</time></trkpt><trkpt lat="45.5662733" lon="10.76285"><ele>200.33333333333334</ele><time>2026-04-26T06:49:44.784Z</time></trkpt><trkpt lat="45.5661183" lon="10.7629233"><ele>200.0</ele><time>2026-04-26T06:49:45.784Z</time></trkpt><trkpt lat="45.5659633" lon="10.7629817"><ele>200.0</ele><time>2026-04-26T06:49:46.785Z</time></trkpt><trkpt lat="45.5658017" lon="10.763015"><ele>200.0</ele><time>2026-04-26T06:49:47.784Z</time></trkpt><trkpt lat="45.56563" lon="10.763045"><ele>200.0</ele><time>2026-04-26T06:49:48.785Z</time></trkpt><trkpt lat="45.5654567" lon="10.7630783"><ele>200.66666666666669</ele><time>2026-04-26T06:49:49.784Z</time></trkpt><trkpt lat="45.5652933" lon="10.7631117"><ele>201.33333333333331</ele><time>2026-04-26T06:49:50.784Z</time></trkpt><trkpt lat="45.5651317" lon="10.76314"><ele>202.0</ele><time>2026-04-26T06:49:51.785Z</time></trkpt><trkpt lat="45.564965" lon="10.7631833"><ele>202.0</ele><time>2026-04-26T06:49:52.784Z</time></trkpt><trkpt lat="45.5648067" lon="10.7632033"><ele>202.0</ele><time>2026-04-26T06:49:53.785Z</time></trkpt><trkpt lat="45.564665" lon="10.7632533"><ele>202.0</ele><time>2026-04-26T06:49:54.784Z</time></trkpt><trkpt lat="45.5645217" lon="10.7633117"><ele>202.0</ele><time>2026-04-26T06:49:55.785Z</time></trkpt><trkpt lat="45.5643767" lon="10.7633817"><ele>202.0</ele><time>2026-04-26T06:49:56.784Z</time></trkpt><trkpt lat="45.56422" lon="10.7634567"><ele>202.0</ele><time>2026-04-26T06:49:57.785Z</time></trkpt><trkpt lat="45.5640617" lon="10.7635333"><ele>201.33333333333331</ele><time>2026-04-26T06:49:58.785Z</time></trkpt><trkpt lat="45.5639033" lon="10.7636133"><ele>200.66666666666669</ele><time>2026-04-26T06:49:59.785Z</time></trkpt><trkpt lat="45.563745" lon="10.7636967"><ele>200.0</ele><time>2026-04-26T06:50:00.785Z</time></trkpt><trkpt lat="45.5635917" lon="10.7637767"><ele>199.66666666666669</ele><time>2026-04-26T06:50:01.784Z</time></trkpt><trkpt lat="45.5634367" lon="10.7638583"><ele>199.33333333333331</ele><time>2026-04-26T06:50:02.784Z</time></trkpt><trkpt lat="45.5632867" lon="10.7639267"><ele>199.0</ele><time>2026-04-26T06:50:03.785Z</time></trkpt><trkpt lat="45.56314" lon="10.764"><ele>199.0</ele><time>2026-04-26T06:50:04.784Z</time></trkpt><trkpt lat="45.5629867" lon="10.7640733"><ele>199.0</ele><time>2026-04-26T06:50:05.784Z</time></trkpt><trkpt lat="45.5628383" lon="10.764155"><ele>199.0</ele><time>2026-04-26T06:50:06.784Z</time></trkpt><trkpt lat="45.5626867" lon="10.7642333"><ele>198.66666666666666</ele><time>2026-04-26T06:50:07.784Z</time></trkpt><trkpt lat="45.5625317" lon="10.7643133"><ele>198.33333333333331</ele><time>2026-04-26T06:50:08.785Z</time></trkpt><trkpt lat="45.56239" lon="10.7643967"><ele>198.0</ele><time>2026-04-26T06:50:09.785Z</time></trkpt><trkpt lat="45.5622483" lon="10.7644967"><ele>198.0</ele><time>2026-04-26T06:50:10.785Z</time></trkpt><trkpt lat="45.5621183" lon="10.764575"><ele>198.0</ele><time>2026-04-26T06:50:11.784Z</time></trkpt><trkpt lat="45.562005" lon="10.7646417"><ele>198.0</ele><time>2026-04-26T06:50:12.785Z</time></trkpt><trkpt lat="45.5619033" lon="10.7647183"><ele>198.0</ele><time>2026-04-26T06:50:13.784Z</time></trkpt><trkpt lat="45.5618067" lon="10.7648067"><ele>198.5</ele><time>2026-04-26T06:50:14.784Z</time></trkpt><trkpt lat="45.5617217" lon="10.7648883"><ele>199.0</ele><time>2026-04-26T06:50:15.784Z</time></trkpt><trkpt lat="45.5616433" lon="10.764965"><ele>199.5</ele><time>2026-04-26T06:50:16.785Z</time></trkpt><trkpt lat="45.5615767" lon="10.76501"><ele>200.0</ele><time>2026-04-26T06:50:17.784Z</time></trkpt><trkpt lat="45.5614883" lon="10.7650017"><ele>200.5</ele><time>2026-04-26T06:50:19.784Z</time></trkpt><trkpt lat="45.56142" lon="10.7649667"><ele>201.0</ele><time>2026-04-26T06:50:21.785Z</time></trkpt><trkpt lat="45.5613783" lon="10.7647583"><ele>201.0</ele><time>2026-04-26T06:50:23.784Z</time></trkpt><trkpt lat="45.561365" lon="10.764585"><ele>201.0</ele><time>2026-04-26T06:50:24.785Z</time></trkpt><trkpt lat="45.5613517" lon="10.7643533"><ele>201.0</ele><time>2026-04-26T06:50:25.784Z</time></trkpt><trkpt lat="45.561355" lon="10.7640867"><ele>201.25</ele><time>2026-04-26T06:50:26.784Z</time></trkpt><trkpt lat="45.56135" lon="10.7638483"><ele>201.5</ele><time>2026-04-26T06:50:27.784Z</time></trkpt><trkpt lat="45.5613533" lon="10.7636533"><ele>201.75</ele><time>2026-04-26T06:50:28.785Z</time></trkpt><trkpt lat="45.5613433" lon="10.763465"><ele>202.0</ele><time>2026-04-26T06:50:29.784Z</time></trkpt><trkpt lat="45.56134" lon="10.763285"><ele>202.25</ele><time>2026-04-26T06:50:30.785Z</time></trkpt><trkpt lat="45.5613317" lon="10.7631117"><ele>202.5</ele><time>2026-04-26T06:50:31.784Z</time></trkpt><trkpt lat="45.561315" lon="10.7629383"><ele>202.75</ele><time>2026-04-26T06:50:32.785Z</time></trkpt><trkpt lat="45.56129" lon="10.7627683"><ele>203.0</ele><time>2026-04-26T06:50:33.785Z</time></trkpt><trkpt lat="45.5612683" lon="10.7626033"><ele>204.0</ele><time>2026-04-26T06:50:34.785Z</time></trkpt><trkpt lat="45.5612267" lon="10.7624383"><ele>205.0</ele><time>2026-04-26T06:50:35.785Z</time></trkpt><trkpt lat="45.561195" lon="10.762275"><ele>206.0</ele><time>2026-04-26T06:50:36.784Z</time></trkpt><trkpt lat="45.5611783" lon="10.762125"><ele>207.0</ele><time>2026-04-26T06:50:37.785Z</time></trkpt><trkpt lat="45.5611567" lon="10.7619733"><ele>212.75</ele><time>2026-04-26T06:50:38.785Z</time></trkpt><trkpt lat="45.5611533" lon="10.7618233"><ele>218.5</ele><time>2026-04-26T06:50:39.784Z</time></trkpt><trkpt lat="45.561135" lon="10.7616583"><ele>224.25</ele><time>2026-04-26T06:50:40.784Z</time></trkpt><trkpt lat="45.5611033" lon="10.7614933"><ele>230.0</ele><time>2026-04-26T06:50:41.784Z</time></trkpt><trkpt lat="45.5610733" lon="10.7613283"><ele>230.0</ele><time>2026-04-26T06:50:42.785Z</time></trkpt><trkpt lat="45.561045" lon="10.7611633"><ele>230.0</ele><time>2026-04-26T06:50:43.784Z</time></trkpt><trkpt lat="45.561" lon="10.760955"><ele>230.0</ele><time>2026-04-26T06:50:44.785Z</time></trkpt><trkpt lat="45.56098" lon="10.7607867"><ele>230.0</ele><time>2026-04-26T06:50:45.784Z</time></trkpt><trkpt lat="45.5609617" lon="10.76056"><ele>229.0</ele><time>2026-04-26T06:50:46.785Z</time></trkpt><trkpt lat="45.5609317" lon="10.760395"><ele>228.0</ele><time>2026-04-26T06:50:47.784Z</time></trkpt><trkpt lat="45.56089" lon="10.7601933"><ele>227.0</ele><time>2026-04-26T06:50:48.784Z</time></trkpt><trkpt lat="45.56083" lon="10.76003"><ele>226.0</ele><time>2026-04-26T06:50:49.784Z</time></trkpt><trkpt lat="45.560765" lon="10.7598817"><ele>224.0</ele><time>2026-04-26T06:50:50.784Z</time></trkpt><trkpt lat="45.5606617" lon="10.7597317"><ele>222.0</ele><time>2026-04-26T06:50:51.784Z</time></trkpt><trkpt lat="45.56059" lon="10.7595917"><ele>220.0</ele><time>2026-04-26T06:50:52.784Z</time></trkpt><trkpt lat="45.560505" lon="10.7594483"><ele>218.0</ele><time>2026-04-26T06:50:53.784Z</time></trkpt><trkpt lat="45.56043" lon="10.7593183"><ele>220.5</ele><time>2026-04-26T06:50:54.784Z</time></trkpt><trkpt lat="45.5603583" lon="10.7591917"><ele>223.0</ele><time>2026-04-26T06:50:55.784Z</time></trkpt><trkpt lat="45.560285" lon="10.75906"><ele>225.5</ele><time>2026-04-26T06:50:56.785Z</time></trkpt><trkpt lat="45.5601817" lon="10.7589167"><ele>228.0</ele><time>2026-04-26T06:50:57.784Z</time></trkpt><trkpt lat="45.560065" lon="10.7587317"><ele>228.0</ele><time>2026-04-26T06:50:58.785Z</time></trkpt><trkpt lat="45.5599667" lon="10.75859"><ele>228.0</ele><time>2026-04-26T06:50:59.784Z</time></trkpt><trkpt lat="45.5598733" lon="10.7584483"><ele>228.0</ele><time>2026-04-26T06:51:00.784Z</time></trkpt><trkpt lat="45.55978" lon="10.7583033"><ele>228.0</ele><time>2026-04-26T06:51:01.784Z</time></trkpt><trkpt lat="45.559685" lon="10.758165"><ele>227.5</ele><time>2026-04-26T06:51:02.785Z</time></trkpt><trkpt lat="45.559585" lon="10.758035"><ele>227.0</ele><time>2026-04-26T06:51:03.784Z</time></trkpt><trkpt lat="45.559495" lon="10.7579117"><ele>226.5</ele><time>2026-04-26T06:51:04.785Z</time></trkpt><trkpt lat="45.5594233" lon="10.75779"><ele>226.0</ele><time>2026-04-26T06:51:05.785Z</time></trkpt><trkpt lat="45.5593517" lon="10.7576683"><ele>226.0</ele><time>2026-04-26T06:51:06.784Z</time></trkpt><trkpt lat="45.559285" lon="10.7575533"><ele>226.0</ele><time>2026-04-26T06:51:07.784Z</time></trkpt><trkpt lat="45.55921" lon="10.7574183"><ele>226.0</ele><time>2026-04-26T06:51:08.785Z</time></trkpt><trkpt lat="45.5591283" lon="10.7572567"><ele>226.0</ele><time>2026-04-26T06:51:09.784Z</time></trkpt><trkpt lat="45.559045" lon="10.7570917"><ele>226.0</ele><time>2026-04-26T06:51:10.784Z</time></trkpt><trkpt lat="45.558965" lon="10.7569"><ele>226.0</ele><time>2026-04-26T06:51:11.785Z</time></trkpt><trkpt lat="45.55888" lon="10.7567183"><ele>226.0</ele><time>2026-04-26T06:51:12.785Z</time></trkpt><trkpt lat="45.5587967" lon="10.75653"><ele>226.25</ele><time>2026-04-26T06:51:13.784Z</time></trkpt><trkpt lat="45.5587267" lon="10.7563533"><ele>226.5</ele><time>2026-04-26T06:51:14.784Z</time></trkpt><trkpt lat="45.5586667" lon="10.7561917"><ele>226.75</ele><time>2026-04-26T06:51:15.784Z</time></trkpt><trkpt lat="45.5586033" lon="10.7560317"><ele>227.0</ele><time>2026-04-26T06:51:16.784Z</time></trkpt><trkpt lat="45.5585233" lon="10.7558567"><ele>227.0</ele><time>2026-04-26T06:51:17.784Z</time></trkpt><trkpt lat="45.5584467" lon="10.7556683"><ele>227.0</ele><time>2026-04-26T06:51:18.785Z</time></trkpt><trkpt lat="45.5583667" lon="10.7554983"><ele>227.0</ele><time>2026-04-26T06:51:19.784Z</time></trkpt><trkpt lat="45.5583" lon="10.755335"><ele>227.0</ele><time>2026-04-26T06:51:20.785Z</time></trkpt><trkpt lat="45.5582317" lon="10.755175"><ele>227.5</ele><time>2026-04-26T06:51:21.784Z</time></trkpt><trkpt lat="45.5581717" lon="10.7550033"><ele>228.0</ele><time>2026-04-26T06:51:22.785Z</time></trkpt><trkpt lat="45.5580967" lon="10.754845"><ele>228.5</ele><time>2026-04-26T06:51:23.784Z</time></trkpt><trkpt lat="45.5580333" lon="10.7547"><ele>229.0</ele><time>2026-04-26T06:51:24.785Z</time></trkpt><trkpt lat="45.5579783" lon="10.7545433"><ele>229.0</ele><time>2026-04-26T06:51:25.784Z</time></trkpt><trkpt lat="45.5579467" lon="10.75441"><ele>228.99999999999997</ele><time>2026-04-26T06:51:26.784Z</time></trkpt><trkpt lat="45.557935" lon="10.7542633"><ele>228.99999999999997</ele><time>2026-04-26T06:51:27.784Z</time></trkpt><trkpt lat="45.557935" lon="10.75412"><ele>229.0</ele><time>2026-04-26T06:51:28.785Z</time></trkpt><trkpt lat="45.5579267" lon="10.7539733"><ele>229.0</ele><time>2026-04-26T06:51:29.784Z</time></trkpt><trkpt lat="45.5578967" lon="10.7538367"><ele>229.2</ele><time>2026-04-26T06:51:30.784Z</time></trkpt><trkpt lat="45.5578533" lon="10.7537067"><ele>229.39999999999998</ele><time>2026-04-26T06:51:31.785Z</time></trkpt><trkpt lat="45.5577883" lon="10.753575"><ele>229.6</ele><time>2026-04-26T06:51:32.785Z</time></trkpt><trkpt lat="45.5577183" lon="10.7534383"><ele>229.8</ele><time>2026-04-26T06:51:33.785Z</time></trkpt><trkpt lat="45.5576467" lon="10.7533333"><ele>230.0</ele><time>2026-04-26T06:51:34.785Z</time></trkpt><trkpt lat="45.5575767" lon="10.7532417"><ele>229.4</ele><time>2026-04-26T06:51:35.785Z</time></trkpt><trkpt lat="45.5575083" lon="10.7531517"><ele>228.8</ele><time>2026-04-26T06:51:36.784Z</time></trkpt><trkpt lat="45.5574233" lon="10.7530517"><ele>228.2</ele><time>2026-04-26T06:51:37.784Z</time></trkpt><trkpt lat="45.5573333" lon="10.752945"><ele>227.6</ele><time>2026-04-26T06:51:38.784Z</time></trkpt><trkpt lat="45.55724" lon="10.7528383"><ele>227.0</ele><time>2026-04-26T06:51:39.784Z</time></trkpt><trkpt lat="45.5571317" lon="10.75274"><ele>227.5</ele><time>2026-04-26T06:51:40.784Z</time></trkpt><trkpt lat="45.5570267" lon="10.752655"><ele>228.0</ele><time>2026-04-26T06:51:41.785Z</time></trkpt><trkpt lat="45.5569233" lon="10.7525733"><ele>228.5</ele><time>2026-04-26T06:51:42.785Z</time></trkpt><trkpt lat="45.55682" lon="10.7524917"><ele>229.0</ele><time>2026-04-26T06:51:43.785Z</time></trkpt><trkpt lat="45.5567167" lon="10.752415"><ele>229.0</ele><time>2026-04-26T06:51:44.784Z</time></trkpt><trkpt lat="45.5566133" lon="10.75235"><ele>229.0</ele><time>2026-04-26T06:51:45.784Z</time></trkpt><trkpt lat="45.5565067" lon="10.7523"><ele>229.0</ele><time>2026-04-26T06:51:46.785Z</time></trkpt><trkpt lat="45.556395" lon="10.7522567"><ele>229.0</ele><time>2026-04-26T06:51:47.784Z</time></trkpt><trkpt lat="45.5562783" lon="10.752215"><ele>229.79999999999998</ele><time>2026-04-26T06:51:48.783Z</time></trkpt><trkpt lat="45.5561633" lon="10.7521767"><ele>230.59999999999997</ele><time>2026-04-26T06:51:49.783Z</time></trkpt><trkpt lat="45.556045" lon="10.7521333"><ele>231.4</ele><time>2026-04-26T06:51:50.784Z</time></trkpt><trkpt lat="45.555945" lon="10.7520917"><ele>232.2</ele><time>2026-04-26T06:51:51.783Z</time></trkpt><trkpt lat="45.5558533" lon="10.752045"><ele>233.0</ele><time>2026-04-26T06:51:52.783Z</time></trkpt><trkpt lat="45.5557733" lon="10.75199"><ele>233.00000000000003</ele><time>2026-04-26T06:51:53.784Z</time></trkpt><trkpt lat="45.555695" lon="10.751925"><ele>233.0</ele><time>2026-04-26T06:51:54.784Z</time></trkpt><trkpt lat="45.55562" lon="10.7518617"><ele>233.0</ele><time>2026-04-26T06:51:55.784Z</time></trkpt><trkpt lat="45.55556" lon="10.75179"><ele>233.0</ele><time>2026-04-26T06:51:56.783Z</time></trkpt><trkpt lat="45.5555183" lon="10.7517133"><ele>233.00000000000003</ele><time>2026-04-26T06:51:57.784Z</time></trkpt><trkpt lat="45.555545" lon="10.7516267"><ele>233.0</ele><time>2026-04-26T06:51:59.784Z</time></trkpt><trkpt lat="45.5556083" lon="10.7515767"><ele>233.8</ele><time>2026-04-26T06:52:01.783Z</time></trkpt><trkpt lat="45.5557133" lon="10.7516117"><ele>234.60000000000002</ele><time>2026-04-26T06:52:04.783Z</time></trkpt><trkpt lat="45.5558417" lon="10.7516367"><ele>235.39999999999998</ele><time>2026-04-26T06:52:06.783Z</time></trkpt><trkpt lat="45.5559133" lon="10.75163"><ele>236.2</ele><time>2026-04-26T06:52:07.783Z</time></trkpt><trkpt lat="45.555985" lon="10.7516183"><ele>237.0</ele><time>2026-04-26T06:52:08.783Z</time></trkpt><trkpt lat="45.5560567" lon="10.751595"><ele>237.0</ele><time>2026-04-26T06:52:09.783Z</time></trkpt><trkpt lat="45.5561283" lon="10.7515583"><ele>237.0</ele><time>2026-04-26T06:52:10.783Z</time></trkpt><trkpt lat="45.5562233" lon="10.7514967"><ele>237.0</ele><time>2026-04-26T06:52:12.784Z</time></trkpt><trkpt lat="45.5563017" lon="10.7514517"><ele>237.0</ele><time>2026-04-26T06:52:14.784Z</time></trkpt><trkpt lat="45.5563983" lon="10.7514333"><ele>237.0</ele><time>2026-04-26T06:52:16.783Z</time></trkpt><trkpt lat="45.5564983" lon="10.75142"><ele>236.66666666666666</ele><time>2026-04-26T06:52:18.783Z</time></trkpt><trkpt lat="45.55661" lon="10.751415"><ele>236.33333333333331</ele><time>2026-04-26T06:52:20.783Z</time></trkpt><trkpt lat="45.5566767" lon="10.7514167"><ele>236.0</ele><time>2026-04-26T06:52:21.783Z</time></trkpt><trkpt lat="45.556745" lon="10.751415"><ele>235.66666666666666</ele><time>2026-04-26T06:52:22.784Z</time></trkpt><trkpt lat="45.556815" lon="10.7514033"><ele>235.33333333333331</ele><time>2026-04-26T06:52:23.784Z</time></trkpt><trkpt lat="45.556885" lon="10.7513917"><ele>235.0</ele><time>2026-04-26T06:52:24.784Z</time></trkpt><trkpt lat="45.5569567" lon="10.75138"><ele>234.99999999999997</ele><time>2026-04-26T06:52:25.783Z</time></trkpt><trkpt lat="45.55703" lon="10.7513717"><ele>235.0</ele><time>2026-04-26T06:52:26.783Z</time></trkpt><trkpt lat="45.5571017" lon="10.7513667"><ele>235.0</ele><time>2026-04-26T06:52:27.783Z</time></trkpt><trkpt lat="45.557175" lon="10.7513517"><ele>235.0</ele><time>2026-04-26T06:52:28.784Z</time></trkpt><trkpt lat="45.5572633" lon="10.75134"><ele>234.99999999999997</ele><time>2026-04-26T06:52:29.784Z</time></trkpt><trkpt lat="45.55734" lon="10.7513317"><ele>235.0</ele><time>2026-04-26T06:52:30.783Z</time></trkpt><trkpt lat="45.557415" lon="10.7513333"><ele>234.49999999999997</ele><time>2026-04-26T06:52:31.783Z</time></trkpt><trkpt lat="45.55749" lon="10.7513383"><ele>234.0</ele><time>2026-04-26T06:52:32.783Z</time></trkpt><trkpt lat="45.5575617" lon="10.751345"><ele>233.5</ele><time>2026-04-26T06:52:33.784Z</time></trkpt><trkpt lat="45.55763" lon="10.7513583"><ele>233.0</ele><time>2026-04-26T06:52:34.783Z</time></trkpt><trkpt lat="45.5576967" lon="10.7513767"><ele>232.49999999999997</ele><time>2026-04-26T06:52:35.783Z</time></trkpt><trkpt lat="45.5578183" lon="10.7514067"><ele>232.0</ele><time>2026-04-26T06:52:37.783Z</time></trkpt><trkpt lat="45.55795" lon="10.7514467"><ele>233.2</ele><time>2026-04-26T06:52:39.784Z</time></trkpt><trkpt lat="45.5580733" lon="10.7515033"><ele>234.39999999999998</ele><time>2026-04-26T06:52:41.784Z</time></trkpt><trkpt lat="45.5581367" lon="10.7515533"><ele>235.60000000000002</ele><time>2026-04-26T06:52:42.784Z</time></trkpt><trkpt lat="45.5582083" lon="10.7516083"><ele>236.8</ele><time>2026-04-26T06:52:43.783Z</time></trkpt><trkpt lat="45.55828" lon="10.751675"><ele>238.0</ele><time>2026-04-26T06:52:44.783Z</time></trkpt><trkpt lat="45.5583583" lon="10.751735"><ele>238.0</ele><time>2026-04-26T06:52:45.783Z</time></trkpt><trkpt lat="45.5584617" lon="10.751805"><ele>238.0</ele><time>2026-04-26T06:52:46.783Z</time></trkpt><trkpt lat="45.5585683" lon="10.75188"><ele>238.0</ele><time>2026-04-26T06:52:47.783Z</time></trkpt><trkpt lat="45.5586817" lon="10.7519617"><ele>238.0</ele><time>2026-04-26T06:52:48.783Z</time></trkpt><trkpt lat="45.5587783" lon="10.75203"><ele>237.4</ele><time>2026-04-26T06:52:49.783Z</time></trkpt><trkpt lat="45.55888" lon="10.7520983"><ele>236.8</ele><time>2026-04-26T06:52:50.783Z</time></trkpt><trkpt lat="45.5589867" lon="10.7521733"><ele>236.2</ele><time>2026-04-26T06:52:51.783Z</time></trkpt><trkpt lat="45.5590833" lon="10.7522517"><ele>235.6</ele><time>2026-04-26T06:52:52.783Z</time></trkpt><trkpt lat="45.55917" lon="10.7523283"><ele>235.0</ele><time>2026-04-26T06:52:53.783Z</time></trkpt><trkpt lat="45.559255" lon="10.7524167"><ele>234.99999999999997</ele><time>2026-04-26T06:52:54.784Z</time></trkpt><trkpt lat="45.5593433" lon="10.752505"><ele>235.0</ele><time>2026-04-26T06:52:55.784Z</time></trkpt><trkpt lat="45.559425" lon="10.7525817"><ele>235.0</ele><time>2026-04-26T06:52:56.784Z</time></trkpt><trkpt lat="45.5595033" lon="10.752645"><ele>235.0</ele><time>2026-04-26T06:52:57.784Z</time></trkpt><trkpt lat="45.55957" lon="10.7527017"><ele>234.99999999999997</ele><time>2026-04-26T06:52:58.784Z</time></trkpt><trkpt lat="45.5596333" lon="10.75276"><ele>235.0</ele><time>2026-04-26T06:52:59.784Z</time></trkpt><trkpt lat="45.5597133" lon="10.7528283"><ele>234.2</ele><time>2026-04-26T06:53:00.783Z</time></trkpt><trkpt lat="45.5598083" lon="10.7528883"><ele>233.4</ele><time>2026-04-26T06:53:01.783Z</time></trkpt><trkpt lat="45.559905" lon="10.7529333"><ele>232.60000000000002</ele><time>2026-04-26T06:53:02.783Z</time></trkpt><trkpt lat="45.5600117" lon="10.7529683"><ele>231.8</ele><time>2026-04-26T06:53:03.783Z</time></trkpt><trkpt lat="45.5601133" lon="10.7529983"><ele>231.0</ele><time>2026-04-26T06:53:04.783Z</time></trkpt><trkpt lat="45.5602083" lon="10.7530233"><ele>231.0</ele><time>2026-04-26T06:53:05.784Z</time></trkpt><trkpt lat="45.5603" lon="10.75303"><ele>231.00000000000003</ele><time>2026-04-26T06:53:06.784Z</time></trkpt><trkpt lat="45.5604267" lon="10.7530367"><ele>231.00000000000003</ele><time>2026-04-26T06:53:07.783Z</time></trkpt><trkpt lat="45.560525" lon="10.753035"><ele>231.0</ele><time>2026-04-26T06:53:08.783Z</time></trkpt><trkpt lat="45.560635" lon="10.753045"><ele>231.0</ele><time>2026-04-26T06:53:09.784Z</time></trkpt><trkpt lat="45.560735" lon="10.7530667"><ele>232.0</ele><time>2026-04-26T06:53:10.783Z</time></trkpt><trkpt lat="45.5608267" lon="10.7530983"><ele>233.00000000000003</ele><time>2026-04-26T06:53:11.783Z</time></trkpt><trkpt lat="45.5609267" lon="10.7531383"><ele>234.00000000000003</ele><time>2026-04-26T06:53:12.783Z</time></trkpt><trkpt lat="45.561005" lon="10.7531717"><ele>235.0</ele><time>2026-04-26T06:53:13.784Z</time></trkpt><trkpt lat="45.5611" lon="10.7532183"><ele>236.0</ele><time>2026-04-26T06:53:14.783Z</time></trkpt><trkpt lat="45.5611767" lon="10.75328"><ele>234.83333333333334</ele><time>2026-04-26T06:53:15.783Z</time></trkpt><trkpt lat="45.5612417" lon="10.7533567"><ele>233.66666666666669</ele><time>2026-04-26T06:53:16.784Z</time></trkpt><trkpt lat="45.5612917" lon="10.75342"><ele>232.5</ele><time>2026-04-26T06:53:17.783Z</time></trkpt><trkpt lat="45.5613617" lon="10.7534783"><ele>231.33333333333331</ele><time>2026-04-26T06:53:18.783Z</time></trkpt><trkpt lat="45.56145" lon="10.75354"><ele>230.16666666666666</ele><time>2026-04-26T06:53:19.783Z</time></trkpt><trkpt lat="45.561535" lon="10.753585"><ele>229.0</ele><time>2026-04-26T06:53:20.783Z</time></trkpt><trkpt lat="45.5616317" lon="10.7536117"><ele>228.99999999999997</ele><time>2026-04-26T06:53:21.783Z</time></trkpt><trkpt lat="45.5617283" lon="10.7536333"><ele>229.0</ele><time>2026-04-26T06:53:22.783Z</time></trkpt><trkpt lat="45.5618133" lon="10.7536467"><ele>229.0</ele><time>2026-04-26T06:53:23.783Z</time></trkpt><trkpt lat="45.5619067" lon="10.7536567"><ele>229.0</ele><time>2026-04-26T06:53:24.783Z</time></trkpt><trkpt lat="45.5619883" lon="10.75366"><ele>228.99999999999997</ele><time>2026-04-26T06:53:25.783Z</time></trkpt><trkpt lat="45.5620717" lon="10.7536533"><ele>229.0</ele><time>2026-04-26T06:53:26.783Z</time></trkpt><trkpt lat="45.562175" lon="10.7536467"><ele>229.66666666666666</ele><time>2026-04-26T06:53:27.783Z</time></trkpt><trkpt lat="45.562255" lon="10.753635"><ele>230.33333333333331</ele><time>2026-04-26T06:53:28.784Z</time></trkpt><trkpt lat="45.56233" lon="10.7536367"><ele>231.0</ele><time>2026-04-26T06:53:29.783Z</time></trkpt><trkpt lat="45.5624167" lon="10.7536467"><ele>231.66666666666669</ele><time>2026-04-26T06:53:30.783Z</time></trkpt><trkpt lat="45.562495" lon="10.7536733"><ele>232.33333333333334</ele><time>2026-04-26T06:53:31.783Z</time></trkpt><trkpt lat="45.5625633" lon="10.7537017"><ele>233.0</ele><time>2026-04-26T06:53:32.784Z</time></trkpt><trkpt lat="45.56263" lon="10.7537267"><ele>233.0</ele><time>2026-04-26T06:53:33.783Z</time></trkpt><trkpt lat="45.5626933" lon="10.7537433"><ele>233.0</ele><time>2026-04-26T06:53:34.784Z</time></trkpt><trkpt lat="45.5628167" lon="10.7537633"><ele>233.0</ele><time>2026-04-26T06:53:36.783Z</time></trkpt><trkpt lat="45.5629283" lon="10.7537417"><ele>233.0</ele><time>2026-04-26T06:53:38.784Z</time></trkpt><trkpt lat="45.56306" lon="10.75368"><ele>233.0</ele><time>2026-04-26T06:53:40.784Z</time></trkpt><trkpt lat="45.5631267" lon="10.7536333"><ele>233.57142857142858</ele><time>2026-04-26T06:53:41.783Z</time></trkpt><trkpt lat="45.5631717" lon="10.753565"><ele>234.1428571428571</ele><time>2026-04-26T06:53:42.783Z</time></trkpt><trkpt lat="45.563225" lon="10.7535033"><ele>234.7142857142857</ele><time>2026-04-26T06:53:43.783Z</time></trkpt><trkpt lat="45.5632817" lon="10.7534433"><ele>235.28571428571428</ele><time>2026-04-26T06:53:44.784Z</time></trkpt><trkpt lat="45.5633317" lon="10.7533833"><ele>235.85714285714283</ele><time>2026-04-26T06:53:45.783Z</time></trkpt><trkpt lat="45.563405" lon="10.7532883"><ele>236.4285714285714</ele><time>2026-04-26T06:53:47.784Z</time></trkpt><trkpt lat="45.5634717" lon="10.75323"><ele>236.99999999999997</ele><time>2026-04-26T06:53:50.783Z</time></trkpt><trkpt lat="45.56357" lon="10.753175"><ele>239.6</ele><time>2026-04-26T06:53:52.783Z</time></trkpt><trkpt lat="45.56365" lon="10.7530967"><ele>242.2</ele><time>2026-04-26T06:53:54.783Z</time></trkpt><trkpt lat="45.5636533" lon="10.75299"><ele>244.8</ele><time>2026-04-26T06:53:56.783Z</time></trkpt><trkpt lat="45.563665" lon="10.7528617"><ele>247.4</ele><time>2026-04-26T06:53:58.783Z</time></trkpt><trkpt lat="45.5636417" lon="10.7527433"><ele>250.0</ele><time>2026-04-26T06:54:00.783Z</time></trkpt><trkpt lat="45.563695" lon="10.7528733"><ele>250.99999999999997</ele><time>2026-04-26T06:54:03.783Z</time></trkpt><trkpt lat="45.5637183" lon="10.75297"><ele>252.0</ele><time>2026-04-26T06:54:04.784Z</time></trkpt><trkpt lat="45.5637617" lon="10.7530667"><ele>253.0</ele><time>2026-04-26T06:54:06.783Z</time></trkpt><trkpt lat="45.56385" lon="10.7531017"><ele>254.0</ele><time>2026-04-26T06:54:08.783Z</time></trkpt><trkpt lat="45.5639083" lon="10.7530583"><ele>254.99999999999997</ele><time>2026-04-26T06:54:09.784Z</time></trkpt><trkpt lat="45.5639733" lon="10.75296"><ele>256.0</ele><time>2026-04-26T06:54:11.784Z</time></trkpt><trkpt lat="45.5639867" lon="10.7528433"><ele>257.25</ele><time>2026-04-26T06:54:12.784Z</time></trkpt><trkpt lat="45.563995" lon="10.7526917"><ele>258.5</ele><time>2026-04-26T06:54:13.783Z</time></trkpt><trkpt lat="45.56394" lon="10.7524933"><ele>259.75</ele><time>2026-04-26T06:54:14.783Z</time></trkpt><trkpt lat="45.5639267" lon="10.7523583"><ele>261.0</ele><time>2026-04-26T06:54:15.783Z</time></trkpt><trkpt lat="45.5639667" lon="10.7522083"><ele>261.0</ele><time>2026-04-26T06:54:16.783Z</time></trkpt><trkpt lat="45.5640033" lon="10.75208"><ele>261.0</ele><time>2026-04-26T06:54:17.783Z</time></trkpt><trkpt lat="45.564045" lon="10.7519533"><ele>261.0</ele><time>2026-04-26T06:54:18.784Z</time></trkpt><trkpt lat="45.5640967" lon="10.7518683"><ele>261.0</ele><time>2026-04-26T06:54:19.783Z</time></trkpt><trkpt lat="45.5642067" lon="10.7517533"><ele>261.0</ele><time>2026-04-26T06:54:20.783Z</time></trkpt><trkpt lat="45.564315" lon="10.751665"><ele>262.6</ele><time>2026-04-26T06:54:21.784Z</time></trkpt><trkpt lat="45.564395" lon="10.751585"><ele>264.20000000000005</ele><time>2026-04-26T06:54:22.783Z</time></trkpt><trkpt lat="45.5644867" lon="10.7515033"><ele>265.79999999999995</ele><time>2026-04-26T06:54:23.783Z</time></trkpt><trkpt lat="45.5645717" lon="10.751415"><ele>267.4</ele><time>2026-04-26T06:54:24.784Z</time></trkpt><trkpt lat="45.564655" lon="10.7513183"><ele>269.0</ele><time>2026-04-26T06:54:25.783Z</time></trkpt><trkpt lat="45.564755" lon="10.7512067"><ele>270.2</ele><time>2026-04-26T06:54:26.784Z</time></trkpt><trkpt lat="45.56483" lon="10.7510917"><ele>271.4</ele><time>2026-04-26T06:54:27.783Z</time></trkpt><trkpt lat="45.56491" lon="10.750985"><ele>272.6</ele><time>2026-04-26T06:54:28.784Z</time></trkpt><trkpt lat="45.5649833" lon="10.75091"><ele>273.8</ele><time>2026-04-26T06:54:29.783Z</time></trkpt><trkpt lat="45.56507" lon="10.7508683"><ele>275.0</ele><time>2026-04-26T06:54:30.783Z</time></trkpt><trkpt lat="45.56516" lon="10.7508417"><ele>275.0</ele><time>2026-04-26T06:54:31.784Z</time></trkpt><trkpt lat="45.565245" lon="10.7507933"><ele>275.0</ele><time>2026-04-26T06:54:32.783Z</time></trkpt><trkpt lat="45.5653383" lon="10.750745"><ele>275.0</ele><time>2026-04-26T06:54:33.783Z</time></trkpt><trkpt lat="45.565435" lon="10.7507"><ele>275.0</ele><time>2026-04-26T06:54:34.784Z</time></trkpt><trkpt lat="45.5655117" lon="10.7506317"><ele>275.0</ele><time>2026-04-26T06:54:35.783Z</time></trkpt><trkpt lat="45.5655867" lon="10.75056"><ele>275.2</ele><time>2026-04-26T06:54:36.783Z</time></trkpt><trkpt lat="45.5656783" lon="10.7504583"><ele>275.4</ele><time>2026-04-26T06:54:37.784Z</time></trkpt><trkpt lat="45.5657483" lon="10.750375"><ele>275.6</ele><time>2026-04-26T06:54:38.783Z</time></trkpt><trkpt lat="45.5658267" lon="10.7503017"><ele>275.8</ele><time>2026-04-26T06:54:39.783Z</time></trkpt><trkpt lat="45.5659067" lon="10.7502217"><ele>276.0</ele><time>2026-04-26T06:54:40.783Z</time></trkpt><trkpt lat="45.5659833" lon="10.7501367"><ele>276.0</ele><time>2026-04-26T06:54:41.784Z</time></trkpt><trkpt lat="45.5660467" lon="10.75007"><ele>276.0</ele><time>2026-04-26T06:54:42.783Z</time></trkpt><trkpt lat="45.5661233" lon="10.7499933"><ele>276.0</ele><time>2026-04-26T06:54:43.783Z</time></trkpt><trkpt lat="45.5662033" lon="10.7499117"><ele>276.0</ele><time>2026-04-26T06:54:44.784Z</time></trkpt><trkpt lat="45.5662783" lon="10.7498367"><ele>276.0</ele><time>2026-04-26T06:54:45.783Z</time></trkpt><trkpt lat="45.5663567" lon="10.7497667"><ele>275.3333333333333</ele><time>2026-04-26T06:54:46.784Z</time></trkpt><trkpt lat="45.5664267" lon="10.7496933"><ele>274.6666666666667</ele><time>2026-04-26T06:54:47.783Z</time></trkpt><trkpt lat="45.5665" lon="10.7496317"><ele>274.0</ele><time>2026-04-26T06:54:48.783Z</time></trkpt><trkpt lat="45.56656" lon="10.74957"><ele>273.33333333333337</ele><time>2026-04-26T06:54:49.783Z</time></trkpt><trkpt lat="45.5666233" lon="10.7494933"><ele>272.6666666666667</ele><time>2026-04-26T06:54:50.783Z</time></trkpt><trkpt lat="45.5666917" lon="10.7493583"><ele>272.0</ele><time>2026-04-26T06:54:52.783Z</time></trkpt><trkpt lat="45.5667533" lon="10.7492333"><ele>271.0</ele><time>2026-04-26T06:54:54.784Z</time></trkpt><trkpt lat="45.566765" lon="10.74913"><ele>270.0</ele><time>2026-04-26T06:54:56.783Z</time></trkpt><trkpt lat="45.56673" lon="10.749025"><ele>269.0</ele><time>2026-04-26T06:54:58.783Z</time></trkpt><trkpt lat="45.5666783" lon="10.74888"><ele>268.0</ele><time>2026-04-26T06:55:00.782Z</time></trkpt><trkpt lat="45.5666167" lon="10.7487017"><ele>267.0</ele><time>2026-04-26T06:55:02.782Z</time></trkpt><trkpt lat="45.56659" lon="10.7486117"><ele>264.8333333333333</ele><time>2026-04-26T06:55:03.783Z</time></trkpt><trkpt lat="45.5665617" lon="10.7485283"><ele>262.6666666666667</ele><time>2026-04-26T06:55:04.783Z</time></trkpt><trkpt lat="45.5665267" lon="10.7484417"><ele>260.5</ele><time>2026-04-26T06:55:05.783Z</time></trkpt><trkpt lat="45.566465" lon="10.7482567"><ele>258.33333333333337</ele><time>2026-04-26T06:55:07.783Z</time></trkpt><trkpt lat="45.5664367" lon="10.7481667"><ele>256.1666666666667</ele><time>2026-04-26T06:55:08.782Z</time></trkpt><trkpt lat="45.5663883" lon="10.74804"><ele>254.0</ele><time>2026-04-26T06:55:09.783Z</time></trkpt><trkpt lat="45.5663617" lon="10.7479383"><ele>254.00000000000003</ele><time>2026-04-26T06:55:10.782Z</time></trkpt><trkpt lat="45.5663783" lon="10.74778"><ele>254.0</ele><time>2026-04-26T06:55:12.783Z</time></trkpt><trkpt lat="45.5664333" lon="10.7477017"><ele>254.0</ele><time>2026-04-26T06:55:14.782Z</time></trkpt><trkpt lat="45.5664817" lon="10.7476433"><ele>254.0</ele><time>2026-04-26T06:55:16.782Z</time></trkpt><trkpt lat="45.566535" lon="10.74759"><ele>254.00000000000003</ele><time>2026-04-26T06:55:18.783Z</time></trkpt><trkpt lat="45.5665883" lon="10.747525"><ele>254.0</ele><time>2026-04-26T06:55:22.783Z</time></trkpt><trkpt lat="45.5666133" lon="10.7474183"><ele>253.00000000000003</ele><time>2026-04-26T06:55:30.783Z</time></trkpt><trkpt lat="45.5666533" lon="10.7473433"><ele>252.0</ele><time>2026-04-26T06:55:32.783Z</time></trkpt><trkpt lat="45.5667167" lon="10.7473183"><ele>251.0</ele><time>2026-04-26T06:55:34.783Z</time></trkpt><trkpt lat="45.5667983" lon="10.7473033"><ele>250.0</ele><time>2026-04-26T06:55:36.782Z</time></trkpt><trkpt lat="45.5669033" lon="10.74734"><ele>249.00000000000003</ele><time>2026-04-26T06:55:38.783Z</time></trkpt><trkpt lat="45.5669817" lon="10.747365"><ele>248.0</ele><time>2026-04-26T06:55:39.782Z</time></trkpt><trkpt lat="45.56706" lon="10.747385"><ele>245.60000000000002</ele><time>2026-04-26T06:55:40.783Z</time></trkpt><trkpt lat="45.56714" lon="10.747395"><ele>243.20000000000002</ele><time>2026-04-26T06:55:41.782Z</time></trkpt><trkpt lat="45.56721" lon="10.74739"><ele>240.8</ele><time>2026-04-26T06:55:42.783Z</time></trkpt><trkpt lat="45.5673367" lon="10.74737"><ele>238.4</ele><time>2026-04-26T06:55:44.783Z</time></trkpt><trkpt lat="45.5674183" lon="10.747355"><ele>236.0</ele><time>2026-04-26T06:55:45.782Z</time></trkpt><trkpt lat="45.56751" lon="10.7473467"><ele>236.00000000000003</ele><time>2026-04-26T06:55:46.783Z</time></trkpt><trkpt lat="45.567595" lon="10.7473383"><ele>236.0</ele><time>2026-04-26T06:55:47.782Z</time></trkpt><trkpt lat="45.567675" lon="10.7473333"><ele>236.0</ele><time>2026-04-26T06:55:48.782Z</time></trkpt><trkpt lat="45.5677483" lon="10.7473283"><ele>236.0</ele><time>2026-04-26T06:55:49.783Z</time></trkpt><trkpt lat="45.5678367" lon="10.74732"><ele>236.00000000000003</ele><time>2026-04-26T06:55:50.783Z</time></trkpt><trkpt lat="45.5679233" lon="10.747335"><ele>236.0</ele><time>2026-04-26T06:55:51.783Z</time></trkpt><trkpt lat="45.567995" lon="10.7473417"><ele>235.16666666666669</ele><time>2026-04-26T06:55:52.782Z</time></trkpt><trkpt lat="45.568075" lon="10.74733"><ele>234.33333333333334</ele><time>2026-04-26T06:55:53.783Z</time></trkpt><trkpt lat="45.5681483" lon="10.7473267"><ele>233.5</ele><time>2026-04-26T06:55:54.782Z</time></trkpt><trkpt lat="45.5682183" lon="10.7473283"><ele>232.66666666666669</ele><time>2026-04-26T06:55:55.782Z</time></trkpt><trkpt lat="45.5682883" lon="10.747335"><ele>231.83333333333334</ele><time>2026-04-26T06:55:56.782Z</time></trkpt><trkpt lat="45.568365" lon="10.7473567"><ele>231.0</ele><time>2026-04-26T06:55:57.782Z</time></trkpt><trkpt lat="45.5684467" lon="10.74739"><ele>231.0</ele><time>2026-04-26T06:55:58.782Z</time></trkpt><trkpt lat="45.5685317" lon="10.747425"><ele>231.00000000000003</ele><time>2026-04-26T06:55:59.783Z</time></trkpt><trkpt lat="45.5686233" lon="10.747465"><ele>231.00000000000003</ele><time>2026-04-26T06:56:00.783Z</time></trkpt><trkpt lat="45.5687083" lon="10.747505"><ele>231.0</ele><time>2026-04-26T06:56:01.783Z</time></trkpt><trkpt lat="45.568795" lon="10.7475617"><ele>231.0</ele><time>2026-04-26T06:56:02.782Z</time></trkpt><trkpt lat="45.5688617" lon="10.74764"><ele>229.8</ele><time>2026-04-26T06:56:03.782Z</time></trkpt><trkpt lat="45.56893" lon="10.7477383"><ele>228.60000000000002</ele><time>2026-04-26T06:56:04.782Z</time></trkpt><trkpt lat="45.568995" lon="10.747835"><ele>227.4</ele><time>2026-04-26T06:56:05.782Z</time></trkpt><trkpt lat="45.5690717" lon="10.7479417"><ele>226.2</ele><time>2026-04-26T06:56:06.782Z</time></trkpt><trkpt lat="45.5691433" lon="10.74803"><ele>225.0</ele><time>2026-04-26T06:56:07.782Z</time></trkpt><trkpt lat="45.5692083" lon="10.7481117"><ele>225.0</ele><time>2026-04-26T06:56:08.783Z</time></trkpt><trkpt lat="45.5692717" lon="10.7481767"><ele>225.0</ele><time>2026-04-26T06:56:09.783Z</time></trkpt><trkpt lat="45.56932" lon="10.7482383"><ele>225.0</ele><time>2026-04-26T06:56:10.782Z</time></trkpt><trkpt lat="45.56937" lon="10.748395"><ele>225.0</ele><time>2026-04-26T06:56:12.783Z</time></trkpt><trkpt lat="45.5693733" lon="10.7484917"><ele>225.0</ele><time>2026-04-26T06:56:13.782Z</time></trkpt><trkpt lat="45.5693733" lon="10.7485967"><ele>225.0</ele><time>2026-04-26T06:56:14.783Z</time></trkpt><trkpt lat="45.5693733" lon="10.7487117"><ele>225.16666666666666</ele><time>2026-04-26T06:56:15.782Z</time></trkpt><trkpt lat="45.5693833" lon="10.74883"><ele>225.33333333333331</ele><time>2026-04-26T06:56:16.782Z</time></trkpt><trkpt lat="45.5693933" lon="10.7489517"><ele>225.5</ele><time>2026-04-26T06:56:17.782Z</time></trkpt><trkpt lat="45.5694117" lon="10.7490767"><ele>225.66666666666666</ele><time>2026-04-26T06:56:18.782Z</time></trkpt><trkpt lat="45.56943" lon="10.7492067"><ele>225.83333333333331</ele><time>2026-04-26T06:56:19.782Z</time></trkpt><trkpt lat="45.56945" lon="10.7493383"><ele>226.0</ele><time>2026-04-26T06:56:20.782Z</time></trkpt><trkpt lat="45.56947" lon="10.7494767"><ele>226.20000000000002</ele><time>2026-04-26T06:56:21.782Z</time></trkpt><trkpt lat="45.5694983" lon="10.7496183"><ele>226.40000000000003</ele><time>2026-04-26T06:56:22.782Z</time></trkpt><trkpt lat="45.5695383" lon="10.7497583"><ele>226.6</ele><time>2026-04-26T06:56:23.782Z</time></trkpt><trkpt lat="45.5695733" lon="10.749885"><ele>226.8</ele><time>2026-04-26T06:56:24.783Z</time></trkpt><trkpt lat="45.5696067" lon="10.7500033"><ele>227.0</ele><time>2026-04-26T06:56:25.782Z</time></trkpt><trkpt lat="45.569635" lon="10.7501167"><ele>227.00000000000003</ele><time>2026-04-26T06:56:26.782Z</time></trkpt><trkpt lat="45.5696617" lon="10.7502283"><ele>227.0</ele><time>2026-04-26T06:56:27.782Z</time></trkpt><trkpt lat="45.5696833" lon="10.75032"><ele>227.0</ele><time>2026-04-26T06:56:28.782Z</time></trkpt><trkpt lat="45.5697183" lon="10.7504033"><ele>227.0</ele><time>2026-04-26T06:56:30.783Z</time></trkpt><trkpt lat="45.5697983" lon="10.7503267"><ele>227.00000000000003</ele><time>2026-04-26T06:56:33.782Z</time></trkpt><trkpt lat="45.5698683" lon="10.75018"><ele>227.0</ele><time>2026-04-26T06:56:35.783Z</time></trkpt><trkpt lat="45.569915" lon="10.7500967"><ele>227.0</ele><time>2026-04-26T06:56:36.782Z</time></trkpt><trkpt lat="45.56996" lon="10.7500117"><ele>227.00000000000003</ele><time>2026-04-26T06:56:37.782Z</time></trkpt><trkpt lat="45.5699933" lon="10.74992"><ele>227.0</ele><time>2026-04-26T06:56:38.783Z</time></trkpt><trkpt lat="45.5700267" lon="10.7498383"><ele>227.0</ele><time>2026-04-26T06:56:39.782Z</time></trkpt><trkpt lat="45.5700617" lon="10.7497583"><ele>227.00000000000003</ele><time>2026-04-26T06:56:40.782Z</time></trkpt><trkpt lat="45.5700817" lon="10.74967"><ele>227.0</ele><time>2026-04-26T06:56:41.782Z</time></trkpt><trkpt lat="45.5701083" lon="10.7495817"><ele>227.0</ele><time>2026-04-26T06:56:42.782Z</time></trkpt><trkpt lat="45.5701333" lon="10.7494983"><ele>227.00000000000003</ele><time>2026-04-26T06:56:43.783Z</time></trkpt><trkpt lat="45.5701667" lon="10.7494183"><ele>227.0</ele><time>2026-04-26T06:56:44.782Z</time></trkpt><trkpt lat="45.5702017" lon="10.74934"><ele>227.0</ele><time>2026-04-26T06:56:45.782Z</time></trkpt><trkpt lat="45.5702233" lon="10.7492383"><ele>227.0</ele><time>2026-04-26T06:56:46.782Z</time></trkpt><trkpt lat="45.570235" lon="10.74912"><ele>227.00000000000003</ele><time>2026-04-26T06:56:47.782Z</time></trkpt><trkpt lat="45.5702583" lon="10.7490033"><ele>227.0</ele><time>2026-04-26T06:56:48.782Z</time></trkpt><trkpt lat="45.5702717" lon="10.7488717"><ele>226.50000000000003</ele><time>2026-04-26T06:56:49.783Z</time></trkpt><trkpt lat="45.5703083" lon="10.74875"><ele>226.0</ele><time>2026-04-26T06:56:50.782Z</time></trkpt><trkpt lat="45.5703467" lon="10.748635"><ele>225.5</ele><time>2026-04-26T06:56:51.782Z</time></trkpt><trkpt lat="45.5704017" lon="10.74853"><ele>225.0</ele><time>2026-04-26T06:56:52.783Z</time></trkpt><trkpt lat="45.5704567" lon="10.7484267"><ele>224.50000000000003</ele><time>2026-04-26T06:56:53.783Z</time></trkpt><trkpt lat="45.5704933" lon="10.7483433"><ele>224.0</ele><time>2026-04-26T06:56:54.782Z</time></trkpt><trkpt lat="45.5705317" lon="10.7482683"><ele>221.16666666666669</ele><time>2026-04-26T06:56:55.782Z</time></trkpt><trkpt lat="45.5706167" lon="10.74813"><ele>218.33333333333334</ele><time>2026-04-26T06:56:57.782Z</time></trkpt><trkpt lat="45.570655" lon="10.7480583"><ele>215.5</ele><time>2026-04-26T06:56:58.783Z</time></trkpt><trkpt lat="45.5707167" lon="10.74801"><ele>212.66666666666669</ele><time>2026-04-26T06:56:59.782Z</time></trkpt><trkpt lat="45.5708317" lon="10.7480233"><ele>209.83333333333334</ele><time>2026-04-26T06:57:01.783Z</time></trkpt><trkpt lat="45.570895" lon="10.7480583"><ele>207.0</ele><time>2026-04-26T06:57:02.783Z</time></trkpt><trkpt lat="45.5710183" lon="10.7481583"><ele>207.0</ele><time>2026-04-26T06:57:04.782Z</time></trkpt><trkpt lat="45.5711017" lon="10.748165"><ele>207.0</ele><time>2026-04-26T06:57:06.782Z</time></trkpt><trkpt lat="45.5711417" lon="10.74805"><ele>207.0</ele><time>2026-04-26T06:57:09.783Z</time></trkpt><trkpt lat="45.5711817" lon="10.7479067"><ele>207.0</ele><time>2026-04-26T06:57:11.782Z</time></trkpt><trkpt lat="45.5712033" lon="10.7477917"><ele>207.0</ele><time>2026-04-26T06:57:12.782Z</time></trkpt><trkpt lat="45.5712283" lon="10.7476433"><ele>207.5</ele><time>2026-04-26T06:57:13.782Z</time></trkpt><trkpt lat="45.5712567" lon="10.747475"><ele>208.0</ele><time>2026-04-26T06:57:14.783Z</time></trkpt><trkpt lat="45.571285" lon="10.7472867"><ele>208.5</ele><time>2026-04-26T06:57:15.783Z</time></trkpt><trkpt lat="45.5713167" lon="10.7470917"><ele>209.0</ele><time>2026-04-26T06:57:16.782Z</time></trkpt><trkpt lat="45.5713483" lon="10.7468683"><ele>209.0</ele><time>2026-04-26T06:57:17.782Z</time></trkpt><trkpt lat="45.57138" lon="10.7466583"><ele>209.0</ele><time>2026-04-26T06:57:18.782Z</time></trkpt><trkpt lat="45.571425" lon="10.74643"><ele>209.0</ele><time>2026-04-26T06:57:19.783Z</time></trkpt><trkpt lat="45.57146" lon="10.7461933"><ele>209.5</ele><time>2026-04-26T06:57:20.782Z</time></trkpt><trkpt lat="45.57149" lon="10.7460017"><ele>210.0</ele><time>2026-04-26T06:57:21.782Z</time></trkpt><trkpt lat="45.5715117" lon="10.7458117"><ele>210.5</ele><time>2026-04-26T06:57:22.782Z</time></trkpt><trkpt lat="45.5715433" lon="10.74564"><ele>211.0</ele><time>2026-04-26T06:57:23.783Z</time></trkpt><trkpt lat="45.571575" lon="10.7454883"><ele>211.0</ele><time>2026-04-26T06:57:24.782Z</time></trkpt><trkpt lat="45.5716067" lon="10.7453567"><ele>211.0</ele><time>2026-04-26T06:57:25.783Z</time></trkpt><trkpt lat="45.5716417" lon="10.745225"><ele>211.0</ele><time>2026-04-26T06:57:26.782Z</time></trkpt><trkpt lat="45.5716783" lon="10.7450917"><ele>211.0</ele><time>2026-04-26T06:57:27.783Z</time></trkpt><trkpt lat="45.571725" lon="10.744975"><ele>211.0</ele><time>2026-04-26T06:57:28.783Z</time></trkpt><trkpt lat="45.5717683" lon="10.744885"><ele>210.83333333333331</ele><time>2026-04-26T06:57:29.783Z</time></trkpt><trkpt lat="45.5718083" lon="10.7447917"><ele>210.66666666666666</ele><time>2026-04-26T06:57:30.783Z</time></trkpt><trkpt lat="45.5718567" lon="10.7446517"><ele>210.5</ele><time>2026-04-26T06:57:32.783Z</time></trkpt><trkpt lat="45.5718633" lon="10.744535"><ele>210.33333333333331</ele><time>2026-04-26T06:57:34.783Z</time></trkpt><trkpt lat="45.5718367" lon="10.744425"><ele>210.16666666666666</ele><time>2026-04-26T06:57:36.782Z</time></trkpt><trkpt lat="45.571825" lon="10.7443167"><ele>210.0</ele><time>2026-04-26T06:57:39.782Z</time></trkpt><trkpt lat="45.5718717" lon="10.74422"><ele>210.4</ele><time>2026-04-26T06:57:42.782Z</time></trkpt><trkpt lat="45.5719117" lon="10.744145"><ele>210.8</ele><time>2026-04-26T06:57:45.782Z</time></trkpt><trkpt lat="45.57196" lon="10.7440333"><ele>211.2</ele><time>2026-04-26T06:57:49.782Z</time></trkpt><trkpt lat="45.5720017" lon="10.743905"><ele>211.6</ele><time>2026-04-26T06:57:51.782Z</time></trkpt><trkpt lat="45.5720317" lon="10.74376"><ele>212.0</ele><time>2026-04-26T06:57:53.782Z</time></trkpt><trkpt lat="45.57203" lon="10.7435967"><ele>213.2</ele><time>2026-04-26T06:57:54.782Z</time></trkpt><trkpt lat="45.57204" lon="10.7434517"><ele>214.39999999999998</ele><time>2026-04-26T06:57:55.782Z</time></trkpt><trkpt lat="45.57206" lon="10.743325"><ele>215.60000000000002</ele><time>2026-04-26T06:57:56.783Z</time></trkpt><trkpt lat="45.5720967" lon="10.7431583"><ele>216.8</ele><time>2026-04-26T06:57:58.782Z</time></trkpt><trkpt lat="45.5721333" lon="10.7429983"><ele>218.0</ele><time>2026-04-26T06:58:00.782Z</time></trkpt><trkpt lat="45.5721517" lon="10.7429"><ele>218.00000000000003</ele><time>2026-04-26T06:58:01.783Z</time></trkpt><trkpt lat="45.572205" lon="10.7427533"><ele>218.0</ele><time>2026-04-26T06:58:03.783Z</time></trkpt><trkpt lat="45.5722333" lon="10.7426283"><ele>218.0</ele><time>2026-04-26T06:58:05.782Z</time></trkpt><trkpt lat="45.572235" lon="10.7425333"><ele>218.0</ele><time>2026-04-26T06:58:08.782Z</time></trkpt><trkpt lat="45.5723017" lon="10.7425867"><ele>218.00000000000003</ele><time>2026-04-26T06:58:14.781Z</time></trkpt><trkpt lat="45.5723667" lon="10.7426783"><ele>218.0</ele><time>2026-04-26T06:58:17.781Z</time></trkpt><trkpt lat="45.572435" lon="10.742775"><ele>218.0</ele><time>2026-04-26T06:58:19.782Z</time></trkpt><trkpt lat="45.5725133" lon="10.74286"><ele>218.0</ele><time>2026-04-26T06:58:21.782Z</time></trkpt><trkpt lat="45.5726117" lon="10.742955"><ele>218.0</ele><time>2026-04-26T06:58:23.781Z</time></trkpt><trkpt lat="45.5726933" lon="10.7430383"><ele>218.0</ele><time>2026-04-26T06:58:25.781Z</time></trkpt><trkpt lat="45.57277" lon="10.7431433"><ele>218.0</ele><time>2026-04-26T06:58:27.781Z</time></trkpt><trkpt lat="45.5728317" lon="10.743235"><ele>218.66666666666669</ele><time>2026-04-26T06:58:29.782Z</time></trkpt><trkpt lat="45.5729017" lon="10.74329"><ele>219.33333333333334</ele><time>2026-04-26T06:58:30.782Z</time></trkpt><trkpt lat="45.5729717" lon="10.7433683"><ele>220.0</ele><time>2026-04-26T06:58:32.782Z</time></trkpt><trkpt lat="45.57301" lon="10.7434467"><ele>220.66666666666669</ele><time>2026-04-26T06:58:34.782Z</time></trkpt><trkpt lat="45.5730883" lon="10.7435833"><ele>221.33333333333334</ele><time>2026-04-26T06:58:36.782Z</time></trkpt><trkpt lat="45.5731367" lon="10.7436533"><ele>222.0</ele><time>2026-04-26T06:58:37.781Z</time></trkpt><trkpt lat="45.573185" lon="10.7437333"><ele>222.0</ele><time>2026-04-26T06:58:38.781Z</time></trkpt><trkpt lat="45.573235" lon="10.743805"><ele>222.0</ele><time>2026-04-26T06:58:39.782Z</time></trkpt><trkpt lat="45.573305" lon="10.7438817"><ele>222.0</ele><time>2026-04-26T06:58:40.781Z</time></trkpt><trkpt lat="45.5733783" lon="10.7439517"><ele>222.0</ele><time>2026-04-26T06:58:41.782Z</time></trkpt><trkpt lat="45.5734483" lon="10.7440133"><ele>222.0</ele><time>2026-04-26T06:58:42.782Z</time></trkpt><trkpt lat="45.5735317" lon="10.74408"><ele>222.0</ele><time>2026-04-26T06:58:43.782Z</time></trkpt><trkpt lat="45.57363" lon="10.7441117"><ele>222.2</ele><time>2026-04-26T06:58:45.781Z</time></trkpt><trkpt lat="45.5737233" lon="10.7441483"><ele>222.39999999999998</ele><time>2026-04-26T06:58:47.781Z</time></trkpt><trkpt lat="45.5737983" lon="10.744205"><ele>222.60000000000002</ele><time>2026-04-26T06:59:06.782Z</time></trkpt><trkpt lat="45.57384" lon="10.7442967"><ele>222.8</ele><time>2026-04-26T06:59:08.781Z</time></trkpt><trkpt lat="45.5739133" lon="10.74444"><ele>223.0</ele><time>2026-04-26T06:59:10.781Z</time></trkpt><trkpt lat="45.5740233" lon="10.7445417"><ele>223.0</ele><time>2026-04-26T06:59:11.782Z</time></trkpt><trkpt lat="45.5741267" lon="10.74464"><ele>223.0</ele><time>2026-04-26T06:59:12.782Z</time></trkpt><trkpt lat="45.5742067" lon="10.74472"><ele>223.0</ele><time>2026-04-26T06:59:13.781Z</time></trkpt><trkpt lat="45.5742717" lon="10.7447917"><ele>223.0</ele><time>2026-04-26T06:59:14.782Z</time></trkpt><trkpt lat="45.574335" lon="10.7448633"><ele>223.0</ele><time>2026-04-26T06:59:15.782Z</time></trkpt><trkpt lat="45.5743933" lon="10.7449317"><ele>222.99999999999997</ele><time>2026-04-26T06:59:16.781Z</time></trkpt><trkpt lat="45.5744483" lon="10.7449967"><ele>223.0</ele><time>2026-04-26T06:59:17.781Z</time></trkpt><trkpt lat="45.5745283" lon="10.7451117"><ele>223.0</ele><time>2026-04-26T06:59:19.782Z</time></trkpt><trkpt lat="45.5745767" lon="10.74517"><ele>223.0</ele><time>2026-04-26T06:59:21.781Z</time></trkpt><trkpt lat="45.5746533" lon="10.7452067"><ele>222.99999999999997</ele><time>2026-04-26T06:59:30.781Z</time></trkpt><trkpt lat="45.5747117" lon="10.745295"><ele>223.0</ele><time>2026-04-26T06:59:32.782Z</time></trkpt><trkpt lat="45.5747817" lon="10.7454017"><ele>223.16666666666666</ele><time>2026-04-26T06:59:34.781Z</time></trkpt><trkpt lat="45.5748" lon="10.7455033"><ele>223.33333333333331</ele><time>2026-04-26T06:59:36.782Z</time></trkpt><trkpt lat="45.57485" lon="10.74566"><ele>223.5</ele><time>2026-04-26T06:59:38.781Z</time></trkpt><trkpt lat="45.5748867" lon="10.7457333"><ele>223.66666666666669</ele><time>2026-04-26T06:59:39.781Z</time></trkpt><trkpt lat="45.5749383" lon="10.7458083"><ele>223.83333333333334</ele><time>2026-04-26T06:59:40.781Z</time></trkpt><trkpt lat="45.5750083" lon="10.7458683"><ele>224.0</ele><time>2026-04-26T06:59:41.782Z</time></trkpt><trkpt lat="45.5750717" lon="10.7459267"><ele>224.0</ele><time>2026-04-26T06:59:42.781Z</time></trkpt><trkpt lat="45.57516" lon="10.7460033"><ele>224.0</ele><time>2026-04-26T06:59:43.781Z</time></trkpt><trkpt lat="45.5752583" lon="10.7460833"><ele>224.0</ele><time>2026-04-26T06:59:44.781Z</time></trkpt><trkpt lat="45.5753433" lon="10.746135"><ele>224.0</ele><time>2026-04-26T06:59:45.781Z</time></trkpt><trkpt lat="45.5755217" lon="10.74622"><ele>226.25</ele><time>2026-04-26T06:59:46.781Z</time></trkpt><trkpt lat="45.5756317" lon="10.7462567"><ele>228.5</ele><time>2026-04-26T06:59:47.782Z</time></trkpt><trkpt lat="45.5757767" lon="10.7463017"><ele>230.75</ele><time>2026-04-26T06:59:48.781Z</time></trkpt><trkpt lat="45.5758783" lon="10.746315"><ele>233.0</ele><time>2026-04-26T06:59:49.781Z</time></trkpt><trkpt lat="45.5759783" lon="10.7463167"><ele>233.0</ele><time>2026-04-26T06:59:50.781Z</time></trkpt><trkpt lat="45.5760967" lon="10.746335"><ele>233.0</ele><time>2026-04-26T06:59:51.782Z</time></trkpt><trkpt lat="45.5762367" lon="10.7463533"><ele>233.0</ele><time>2026-04-26T06:59:52.782Z</time></trkpt><trkpt lat="45.57636" lon="10.7463583"><ele>233.0</ele><time>2026-04-26T06:59:53.782Z</time></trkpt><trkpt lat="45.5764817" lon="10.74637"><ele>233.33333333333334</ele><time>2026-04-26T06:59:54.782Z</time></trkpt><trkpt lat="45.5765767" lon="10.7463717"><ele>233.66666666666669</ele><time>2026-04-26T06:59:55.781Z</time></trkpt><trkpt lat="45.5766583" lon="10.7463967"><ele>234.0</ele><time>2026-04-26T06:59:57.781Z</time></trkpt><trkpt lat="45.5766867" lon="10.74649"><ele>234.33333333333331</ele><time>2026-04-26T06:59:59.782Z</time></trkpt><trkpt lat="45.5766933" lon="10.74666"><ele>234.66666666666666</ele><time>2026-04-26T07:00:01.782Z</time></trkpt><trkpt lat="45.5767183" lon="10.74675"><ele>235.0</ele><time>2026-04-26T07:00:02.781Z</time></trkpt><trkpt lat="45.5767633" lon="10.7468267"><ele>234.83333333333331</ele><time>2026-04-26T07:00:03.782Z</time></trkpt><trkpt lat="45.5768183" lon="10.7468917"><ele>234.66666666666666</ele><time>2026-04-26T07:00:04.782Z</time></trkpt><trkpt lat="45.5768817" lon="10.7469317"><ele>234.5</ele><time>2026-04-26T07:00:05.781Z</time></trkpt><trkpt lat="45.57697" lon="10.7469417"><ele>234.33333333333331</ele><time>2026-04-26T07:00:06.782Z</time></trkpt><trkpt lat="45.5770567" lon="10.74692"><ele>234.16666666666666</ele><time>2026-04-26T07:00:07.781Z</time></trkpt><trkpt lat="45.5771483" lon="10.74688"><ele>234.0</ele><time>2026-04-26T07:00:08.782Z</time></trkpt><trkpt lat="45.57723" lon="10.7468183"><ele>234.0</ele><time>2026-04-26T07:00:09.781Z</time></trkpt><trkpt lat="45.5773133" lon="10.74675"><ele>234.0</ele><time>2026-04-26T07:00:10.782Z</time></trkpt><trkpt lat="45.57739" lon="10.7467"><ele>234.0</ele><time>2026-04-26T07:00:11.781Z</time></trkpt><trkpt lat="45.5774617" lon="10.7466383"><ele>234.0</ele><time>2026-04-26T07:00:12.781Z</time></trkpt><trkpt lat="45.577535" lon="10.7465783"><ele>234.0</ele><time>2026-04-26T07:00:13.781Z</time></trkpt><trkpt lat="45.57759" lon="10.7465167"><ele>234.0</ele><time>2026-04-26T07:00:14.781Z</time></trkpt><trkpt lat="45.5776533" lon="10.7464533"><ele>234.0</ele><time>2026-04-26T07:00:15.782Z</time></trkpt><trkpt lat="45.5777183" lon="10.7463933"><ele>234.0</ele><time>2026-04-26T07:00:16.781Z</time></trkpt><trkpt lat="45.5777733" lon="10.7463233"><ele>234.0</ele><time>2026-04-26T07:00:17.782Z</time></trkpt><trkpt lat="45.57784" lon="10.74624"><ele>234.0</ele><time>2026-04-26T07:00:18.781Z</time></trkpt><trkpt lat="45.5779083" lon="10.7461533"><ele>234.0</ele><time>2026-04-26T07:00:19.781Z</time></trkpt><trkpt lat="45.5779883" lon="10.746075"><ele>234.0</ele><time>2026-04-26T07:00:20.781Z</time></trkpt><trkpt lat="45.57807" lon="10.7459983"><ele>232.6</ele><time>2026-04-26T07:00:21.782Z</time></trkpt><trkpt lat="45.57815" lon="10.74593"><ele>231.2</ele><time>2026-04-26T07:00:22.781Z</time></trkpt><trkpt lat="45.578235" lon="10.7458617"><ele>229.79999999999998</ele><time>2026-04-26T07:00:23.781Z</time></trkpt><trkpt lat="45.5783233" lon="10.7457933"><ele>228.39999999999998</ele><time>2026-04-26T07:00:24.782Z</time></trkpt><trkpt lat="45.5784117" lon="10.7457217"><ele>227.0</ele><time>2026-04-26T07:00:25.782Z</time></trkpt><trkpt lat="45.5784983" lon="10.74565"><ele>227.0</ele><time>2026-04-26T07:00:26.781Z</time></trkpt><trkpt lat="45.57858" lon="10.7455817"><ele>227.0</ele><time>2026-04-26T07:00:27.782Z</time></trkpt><trkpt lat="45.578665" lon="10.7454967"><ele>227.0</ele><time>2026-04-26T07:00:28.782Z</time></trkpt><trkpt lat="45.5787433" lon="10.7454067"><ele>227.0</ele><time>2026-04-26T07:00:29.781Z</time></trkpt><trkpt lat="45.57882" lon="10.745305"><ele>227.0</ele><time>2026-04-26T07:00:30.782Z</time></trkpt><trkpt lat="45.578895" lon="10.7452"><ele>225.6</ele><time>2026-04-26T07:00:31.781Z</time></trkpt><trkpt lat="45.5789683" lon="10.7450917"><ele>224.2</ele><time>2026-04-26T07:00:32.782Z</time></trkpt><trkpt lat="45.5790383" lon="10.7449867"><ele>222.8</ele><time>2026-04-26T07:00:33.781Z</time></trkpt><trkpt lat="45.57911" lon="10.7448817"><ele>221.4</ele><time>2026-04-26T07:00:34.781Z</time></trkpt><trkpt lat="45.579185" lon="10.7447833"><ele>220.0</ele><time>2026-04-26T07:00:35.782Z</time></trkpt><trkpt lat="45.5792633" lon="10.74469"><ele>219.99999999999997</ele><time>2026-04-26T07:00:36.782Z</time></trkpt><trkpt lat="45.5793417" lon="10.7446367"><ele>220.0</ele><time>2026-04-26T07:00:37.781Z</time></trkpt><trkpt lat="45.5794167" lon="10.7446083"><ele>220.0</ele><time>2026-04-26T07:00:38.782Z</time></trkpt><trkpt lat="45.5795" lon="10.74465"><ele>220.0</ele><time>2026-04-26T07:00:39.782Z</time></trkpt><trkpt lat="45.579575" lon="10.74471"><ele>219.99999999999997</ele><time>2026-04-26T07:00:40.781Z</time></trkpt><trkpt lat="45.5796517" lon="10.7447717"><ele>220.0</ele><time>2026-04-26T07:00:41.781Z</time></trkpt><trkpt lat="45.57973" lon="10.7448417"><ele>219.4</ele><time>2026-04-26T07:00:42.781Z</time></trkpt><trkpt lat="45.5798083" lon="10.7449"><ele>218.8</ele><time>2026-04-26T07:00:43.781Z</time></trkpt><trkpt lat="45.5798833" lon="10.7449617"><ele>218.2</ele><time>2026-04-26T07:00:44.781Z</time></trkpt><trkpt lat="45.57996" lon="10.7450383"><ele>217.6</ele><time>2026-04-26T07:00:45.782Z</time></trkpt><trkpt lat="45.5800417" lon="10.7451217"><ele>217.0</ele><time>2026-04-26T07:00:46.781Z</time></trkpt><trkpt lat="45.5801217" lon="10.7452033"><ele>218.39999999999998</ele><time>2026-04-26T07:00:47.781Z</time></trkpt><trkpt lat="45.58021" lon="10.745275"><ele>219.79999999999998</ele><time>2026-04-26T07:00:48.782Z</time></trkpt><trkpt lat="45.5803067" lon="10.7453433"><ele>221.2</ele><time>2026-04-26T07:00:49.781Z</time></trkpt><trkpt lat="45.5804033" lon="10.7453883"><ele>222.6</ele><time>2026-04-26T07:00:50.781Z</time></trkpt><trkpt lat="45.5805017" lon="10.7454217"><ele>224.0</ele><time>2026-04-26T07:00:51.782Z</time></trkpt><trkpt lat="45.5806033" lon="10.7454517"><ele>225.79999999999998</ele><time>2026-04-26T07:00:52.781Z</time></trkpt><trkpt lat="45.5807017" lon="10.7454817"><ele>227.59999999999997</ele><time>2026-04-26T07:00:53.782Z</time></trkpt><trkpt lat="45.5808067" lon="10.7455233"><ele>229.4</ele><time>2026-04-26T07:00:54.781Z</time></trkpt><trkpt lat="45.5809" lon="10.7455717"><ele>231.2</ele><time>2026-04-26T07:00:55.782Z</time></trkpt><trkpt lat="45.5809867" lon="10.7456017"><ele>233.0</ele><time>2026-04-26T07:00:56.781Z</time></trkpt><trkpt lat="45.581075" lon="10.7456367"><ele>233.0</ele><time>2026-04-26T07:00:57.782Z</time></trkpt><trkpt lat="45.5811617" lon="10.7456417"><ele>233.0</ele><time>2026-04-26T07:00:58.782Z</time></trkpt><trkpt lat="45.5812517" lon="10.7456183"><ele>233.0</ele><time>2026-04-26T07:00:59.781Z</time></trkpt><trkpt lat="45.5813367" lon="10.7455767"><ele>233.0</ele><time>2026-04-26T07:01:00.781Z</time></trkpt><trkpt lat="45.5813917" lon="10.7454983"><ele>233.0</ele><time>2026-04-26T07:01:01.781Z</time></trkpt><trkpt lat="45.5814267" lon="10.745335"><ele>230.8</ele><time>2026-04-26T07:01:02.781Z</time></trkpt><trkpt lat="45.581455" lon="10.745175"><ele>228.60000000000002</ele><time>2026-04-26T07:01:03.782Z</time></trkpt><trkpt lat="45.5814817" lon="10.7450283"><ele>226.39999999999998</ele><time>2026-04-26T07:01:04.782Z</time></trkpt><trkpt lat="45.58152" lon="10.7449033"><ele>224.2</ele><time>2026-04-26T07:01:05.782Z</time></trkpt><trkpt lat="45.5815683" lon="10.7448117"><ele>222.0</ele><time>2026-04-26T07:01:06.781Z</time></trkpt><trkpt lat="45.5816233" lon="10.7447417"><ele>222.0</ele><time>2026-04-26T07:01:07.781Z</time></trkpt><trkpt lat="45.5816883" lon="10.7447"><ele>222.0</ele><time>2026-04-26T07:01:08.782Z</time></trkpt><trkpt lat="45.5817617" lon="10.74469"><ele>222.0</ele><time>2026-04-26T07:01:09.782Z</time></trkpt><trkpt lat="45.581845" lon="10.7447117"><ele>222.0</ele><time>2026-04-26T07:01:10.781Z</time></trkpt><trkpt lat="45.5819517" lon="10.744745"><ele>222.0</ele><time>2026-04-26T07:01:11.782Z</time></trkpt><trkpt lat="45.58206" lon="10.7447783"><ele>222.8</ele><time>2026-04-26T07:01:12.781Z</time></trkpt><trkpt lat="45.5821617" lon="10.7447883"><ele>223.6</ele><time>2026-04-26T07:01:13.781Z</time></trkpt><trkpt lat="45.5822617" lon="10.74479"><ele>224.40000000000003</ele><time>2026-04-26T07:01:14.782Z</time></trkpt><trkpt lat="45.582385" lon="10.7447783"><ele>225.20000000000002</ele><time>2026-04-26T07:01:15.781Z</time></trkpt><trkpt lat="45.5825" lon="10.7447517"><ele>226.0</ele><time>2026-04-26T07:01:16.781Z</time></trkpt><trkpt lat="45.5826083" lon="10.74472"><ele>226.0</ele><time>2026-04-26T07:01:17.781Z</time></trkpt><trkpt lat="45.5827217" lon="10.7446917"><ele>226.00000000000003</ele><time>2026-04-26T07:01:18.781Z</time></trkpt><trkpt lat="45.5828267" lon="10.7446483"><ele>226.00000000000003</ele><time>2026-04-26T07:01:19.781Z</time></trkpt><trkpt lat="45.58292" lon="10.744615"><ele>226.0</ele><time>2026-04-26T07:01:20.782Z</time></trkpt><trkpt lat="45.5830133" lon="10.7445983"><ele>226.0</ele><time>2026-04-26T07:01:21.781Z</time></trkpt><trkpt lat="45.5831133" lon="10.7445983"><ele>226.4</ele><time>2026-04-26T07:01:22.781Z</time></trkpt><trkpt lat="45.5832117" lon="10.7445983"><ele>226.8</ele><time>2026-04-26T07:01:23.781Z</time></trkpt><trkpt lat="45.5833033" lon="10.7446533"><ele>227.20000000000002</ele><time>2026-04-26T07:01:24.781Z</time></trkpt><trkpt lat="45.5834" lon="10.7447133"><ele>227.60000000000002</ele><time>2026-04-26T07:01:25.781Z</time></trkpt><trkpt lat="45.5835017" lon="10.7447767"><ele>228.0</ele><time>2026-04-26T07:01:26.782Z</time></trkpt><trkpt lat="45.583595" lon="10.7448117"><ele>228.8</ele><time>2026-04-26T07:01:27.781Z</time></trkpt><trkpt lat="45.5836917" lon="10.74483"><ele>229.60000000000002</ele><time>2026-04-26T07:01:28.781Z</time></trkpt><trkpt lat="45.583795" lon="10.7448283"><ele>230.39999999999998</ele><time>2026-04-26T07:01:29.781Z</time></trkpt><trkpt lat="45.5839083" lon="10.7448167"><ele>231.2</ele><time>2026-04-26T07:01:30.781Z</time></trkpt><trkpt lat="45.5840233" lon="10.7447967"><ele>232.0</ele><time>2026-04-26T07:01:31.782Z</time></trkpt><trkpt lat="45.5841367" lon="10.7447717"><ele>232.0</ele><time>2026-04-26T07:01:32.782Z</time></trkpt><trkpt lat="45.5842467" lon="10.744725"><ele>232.0</ele><time>2026-04-26T07:01:33.781Z</time></trkpt><trkpt lat="45.5843533" lon="10.7446783"><ele>232.0</ele><time>2026-04-26T07:01:34.781Z</time></trkpt><trkpt lat="45.584455" lon="10.7446033"><ele>232.0</ele><time>2026-04-26T07:01:35.781Z</time></trkpt><trkpt lat="45.58455" lon="10.7445283"><ele>232.0</ele><time>2026-04-26T07:01:36.782Z</time></trkpt><trkpt lat="45.5846567" lon="10.74446"><ele>232.6</ele><time>2026-04-26T07:01:37.781Z</time></trkpt><trkpt lat="45.5847583" lon="10.7443967"><ele>233.2</ele><time>2026-04-26T07:01:38.78Z</time></trkpt><trkpt lat="45.5848583" lon="10.7443317"><ele>233.8</ele><time>2026-04-26T07:01:39.78Z</time></trkpt><trkpt lat="45.584955" lon="10.7442617"><ele>234.4</ele><time>2026-04-26T07:01:40.78Z</time></trkpt><trkpt lat="45.5850483" lon="10.7441833"><ele>235.0</ele><time>2026-04-26T07:01:41.78Z</time></trkpt><trkpt lat="45.585135" lon="10.7440833"><ele>235.0</ele><time>2026-04-26T07:01:42.78Z</time></trkpt><trkpt lat="45.5852217" lon="10.7439717"><ele>235.0</ele><time>2026-04-26T07:01:43.78Z</time></trkpt><trkpt lat="45.5853017" lon="10.7438567"><ele>235.0</ele><time>2026-04-26T07:01:44.78Z</time></trkpt><trkpt lat="45.58538" lon="10.7437467"><ele>235.0</ele><time>2026-04-26T07:01:45.781Z</time></trkpt><trkpt lat="45.58546" lon="10.743635"><ele>235.66666666666666</ele><time>2026-04-26T07:01:46.78Z</time></trkpt><trkpt lat="45.5855217" lon="10.7435267"><ele>236.33333333333331</ele><time>2026-04-26T07:01:47.781Z</time></trkpt><trkpt lat="45.5855817" lon="10.7434383"><ele>237.0</ele><time>2026-04-26T07:01:48.78Z</time></trkpt><trkpt lat="45.5856417" lon="10.7433683"><ele>237.66666666666669</ele><time>2026-04-26T07:01:49.78Z</time></trkpt><trkpt lat="45.585695" lon="10.7433167"><ele>238.33333333333334</ele><time>2026-04-26T07:01:50.781Z</time></trkpt><trkpt lat="45.58578" lon="10.7432617"><ele>239.0</ele><time>2026-04-26T07:01:52.78Z</time></trkpt><trkpt lat="45.5858333" lon="10.7432"><ele>239.0</ele><time>2026-04-26T07:01:58.78Z</time></trkpt><trkpt lat="45.585875" lon="10.7430517"><ele>238.99999999999997</ele><time>2026-04-26T07:02:00.781Z</time></trkpt><trkpt lat="45.5858917" lon="10.7429583"><ele>238.99999999999997</ele><time>2026-04-26T07:02:01.78Z</time></trkpt><trkpt lat="45.5858983" lon="10.7428383"><ele>239.0</ele><time>2026-04-26T07:02:02.781Z</time></trkpt><trkpt lat="45.5859067" lon="10.7427017"><ele>239.0</ele><time>2026-04-26T07:02:03.78Z</time></trkpt><trkpt lat="45.58591" lon="10.7425617"><ele>238.16666666666669</ele><time>2026-04-26T07:02:04.78Z</time></trkpt><trkpt lat="45.5859133" lon="10.7424283"><ele>237.33333333333334</ele><time>2026-04-26T07:02:05.781Z</time></trkpt><trkpt lat="45.5859083" lon="10.742295"><ele>236.5</ele><time>2026-04-26T07:02:06.781Z</time></trkpt><trkpt lat="45.585905" lon="10.7421733"><ele>235.66666666666669</ele><time>2026-04-26T07:02:07.781Z</time></trkpt><trkpt lat="45.585905" lon="10.7420617"><ele>234.83333333333334</ele><time>2026-04-26T07:02:08.781Z</time></trkpt><trkpt lat="45.5859167" lon="10.74197"><ele>234.0</ele><time>2026-04-26T07:02:09.78Z</time></trkpt><trkpt lat="45.5859133" lon="10.7418133"><ele>232.79999999999998</ele><time>2026-04-26T07:02:11.78Z</time></trkpt><trkpt lat="45.58588" lon="10.7417117"><ele>231.59999999999997</ele><time>2026-04-26T07:02:20.78Z</time></trkpt><trkpt lat="45.585865" lon="10.7415433"><ele>230.4</ele><time>2026-04-26T07:02:22.781Z</time></trkpt><trkpt lat="45.5858633" lon="10.7414267"><ele>229.2</ele><time>2026-04-26T07:02:23.78Z</time></trkpt><trkpt lat="45.5858667" lon="10.7412917"><ele>228.0</ele><time>2026-04-26T07:02:24.78Z</time></trkpt><trkpt lat="45.5858583" lon="10.7411333"><ele>227.60000000000002</ele><time>2026-04-26T07:02:25.78Z</time></trkpt><trkpt lat="45.5858517" lon="10.7409833"><ele>227.20000000000002</ele><time>2026-04-26T07:02:26.78Z</time></trkpt><trkpt lat="45.5858433" lon="10.740835"><ele>226.8</ele><time>2026-04-26T07:02:27.781Z</time></trkpt><trkpt lat="45.5858283" lon="10.74069"><ele>226.4</ele><time>2026-04-26T07:02:28.78Z</time></trkpt><trkpt lat="45.58582" lon="10.7405617"><ele>226.0</ele><time>2026-04-26T07:02:29.781Z</time></trkpt><trkpt lat="45.58581" lon="10.7404333"><ele>226.0</ele><time>2026-04-26T07:02:30.78Z</time></trkpt><trkpt lat="45.5858017" lon="10.7403183"><ele>226.0</ele><time>2026-04-26T07:02:31.78Z</time></trkpt><trkpt lat="45.585805" lon="10.7402117"><ele>226.0</ele><time>2026-04-26T07:02:32.78Z</time></trkpt><trkpt lat="45.5858167" lon="10.7401117"><ele>226.0</ele><time>2026-04-26T07:02:33.78Z</time></trkpt><trkpt lat="45.5858333" lon="10.740015"><ele>226.0</ele><time>2026-04-26T07:02:34.78Z</time></trkpt><trkpt lat="45.5858333" lon="10.7399183"><ele>226.0</ele><time>2026-04-26T07:02:35.78Z</time></trkpt><trkpt lat="45.585815" lon="10.739805"><ele>226.0</ele><time>2026-04-26T07:02:36.781Z</time></trkpt><trkpt lat="45.5857967" lon="10.7396833"><ele>226.20000000000002</ele><time>2026-04-26T07:02:37.78Z</time></trkpt><trkpt lat="45.585785" lon="10.7395467"><ele>226.40000000000003</ele><time>2026-04-26T07:02:38.78Z</time></trkpt><trkpt lat="45.5857717" lon="10.7394067"><ele>226.6</ele><time>2026-04-26T07:02:39.78Z</time></trkpt><trkpt lat="45.585755" lon="10.7392733"><ele>226.8</ele><time>2026-04-26T07:02:40.78Z</time></trkpt><trkpt lat="45.58571" lon="10.73913"><ele>227.0</ele><time>2026-04-26T07:02:41.78Z</time></trkpt><trkpt lat="45.5856417" lon="10.73898"><ele>227.0</ele><time>2026-04-26T07:02:42.781Z</time></trkpt><trkpt lat="45.5855817" lon="10.7388383"><ele>227.0</ele><time>2026-04-26T07:02:43.78Z</time></trkpt><trkpt lat="45.58553" lon="10.7386983"><ele>227.0</ele><time>2026-04-26T07:02:44.781Z</time></trkpt><trkpt lat="45.5854883" lon="10.73854"><ele>227.0</ele><time>2026-04-26T07:02:45.78Z</time></trkpt><trkpt lat="45.585445" lon="10.7383933"><ele>226.6</ele><time>2026-04-26T07:02:46.781Z</time></trkpt><trkpt lat="45.585395" lon="10.7382417"><ele>226.2</ele><time>2026-04-26T07:02:47.78Z</time></trkpt><trkpt lat="45.5853533" lon="10.738095"><ele>225.8</ele><time>2026-04-26T07:02:48.78Z</time></trkpt><trkpt lat="45.58531" lon="10.7379417"><ele>225.4</ele><time>2026-04-26T07:02:49.78Z</time></trkpt><trkpt lat="45.5852783" lon="10.7377983"><ele>225.0</ele><time>2026-04-26T07:02:50.78Z</time></trkpt><trkpt lat="45.5852483" lon="10.737655"><ele>221.25</ele><time>2026-04-26T07:02:51.78Z</time></trkpt><trkpt lat="45.58522" lon="10.7374983"><ele>217.5</ele><time>2026-04-26T07:02:52.781Z</time></trkpt><trkpt lat="45.5852117" lon="10.7373267"><ele>213.75</ele><time>2026-04-26T07:02:53.78Z</time></trkpt><trkpt lat="45.585205" lon="10.7371633"><ele>210.0</ele><time>2026-04-26T07:02:54.78Z</time></trkpt><trkpt lat="45.5852083" lon="10.7370067"><ele>208.75</ele><time>2026-04-26T07:02:55.78Z</time></trkpt><trkpt lat="45.5852183" lon="10.736845"><ele>207.5</ele><time>2026-04-26T07:02:56.781Z</time></trkpt><trkpt lat="45.5852483" lon="10.7366917"><ele>206.25</ele><time>2026-04-26T07:02:57.78Z</time></trkpt><trkpt lat="45.585295" lon="10.7365367"><ele>205.0</ele><time>2026-04-26T07:02:58.781Z</time></trkpt><trkpt lat="45.5853367" lon="10.736375"><ele>207.0</ele><time>2026-04-26T07:02:59.781Z</time></trkpt><trkpt lat="45.5853867" lon="10.736205"><ele>209.0</ele><time>2026-04-26T07:03:00.78Z</time></trkpt><trkpt lat="45.585435" lon="10.7360417"><ele>211.0</ele><time>2026-04-26T07:03:01.781Z</time></trkpt><trkpt lat="45.5854867" lon="10.7358733"><ele>213.0</ele><time>2026-04-26T07:03:02.78Z</time></trkpt><trkpt lat="45.5855417" lon="10.7357"><ele>213.0</ele><time>2026-04-26T07:03:03.781Z</time></trkpt><trkpt lat="45.5855983" lon="10.7355167"><ele>213.0</ele><time>2026-04-26T07:03:04.78Z</time></trkpt><trkpt lat="45.5856467" lon="10.7353433"><ele>213.0</ele><time>2026-04-26T07:03:05.78Z</time></trkpt><trkpt lat="45.5856833" lon="10.7351633"><ele>213.0</ele><time>2026-04-26T07:03:06.78Z</time></trkpt><trkpt lat="45.5857117" lon="10.73499"><ele>211.5</ele><time>2026-04-26T07:03:07.78Z</time></trkpt><trkpt lat="45.5857317" lon="10.7348133"><ele>210.0</ele><time>2026-04-26T07:03:08.78Z</time></trkpt><trkpt lat="45.5857483" lon="10.7346283"><ele>208.5</ele><time>2026-04-26T07:03:09.781Z</time></trkpt><trkpt lat="45.5857583" lon="10.734445"><ele>207.0</ele><time>2026-04-26T07:03:10.78Z</time></trkpt><trkpt lat="45.5857683" lon="10.7342583"><ele>205.25</ele><time>2026-04-26T07:03:11.78Z</time></trkpt><trkpt lat="45.58578" lon="10.7340717"><ele>203.5</ele><time>2026-04-26T07:03:12.781Z</time></trkpt><trkpt lat="45.5857883" lon="10.7338917"><ele>201.75</ele><time>2026-04-26T07:03:13.78Z</time></trkpt><trkpt lat="45.5857917" lon="10.7337117"><ele>200.0</ele><time>2026-04-26T07:03:14.781Z</time></trkpt><trkpt lat="45.5857867" lon="10.7335383"><ele>199.8</ele><time>2026-04-26T07:03:15.781Z</time></trkpt><trkpt lat="45.58576" lon="10.733395"><ele>199.6</ele><time>2026-04-26T07:03:16.78Z</time></trkpt><trkpt lat="45.5856883" lon="10.73325"><ele>199.39999999999998</ele><time>2026-04-26T07:03:17.781Z</time></trkpt><trkpt lat="45.58561" lon="10.73316"><ele>199.2</ele><time>2026-04-26T07:03:18.78Z</time></trkpt><trkpt lat="45.5855167" lon="10.7330883"><ele>199.0</ele><time>2026-04-26T07:03:19.78Z</time></trkpt><trkpt lat="45.5854167" lon="10.7330017"><ele>195.5</ele><time>2026-04-26T07:03:20.781Z</time></trkpt><trkpt lat="45.585315" lon="10.7329083"><ele>192.0</ele><time>2026-04-26T07:03:21.78Z</time></trkpt><trkpt lat="45.5852217" lon="10.7328033"><ele>188.5</ele><time>2026-04-26T07:03:22.781Z</time></trkpt><trkpt lat="45.5851333" lon="10.7326967"><ele>185.0</ele><time>2026-04-26T07:03:23.78Z</time></trkpt><trkpt lat="45.58506" lon="10.732565"><ele>185.0</ele><time>2026-04-26T07:03:24.78Z</time></trkpt><trkpt lat="45.5850033" lon="10.7324267"><ele>185.0</ele><time>2026-04-26T07:03:25.781Z</time></trkpt><trkpt lat="45.5849667" lon="10.7323"><ele>185.0</ele><time>2026-04-26T07:03:26.781Z</time></trkpt><trkpt lat="45.58493" lon="10.7321733"><ele>185.0</ele><time>2026-04-26T07:03:27.78Z</time></trkpt><trkpt lat="45.5849067" lon="10.732045"><ele>185.0</ele><time>2026-04-26T07:03:28.78Z</time></trkpt><trkpt lat="45.584895" lon="10.7319133"><ele>185.0</ele><time>2026-04-26T07:03:29.78Z</time></trkpt><trkpt lat="45.58488" lon="10.7317933"><ele>185.0</ele><time>2026-04-26T07:03:30.78Z</time></trkpt><trkpt lat="45.584845" lon="10.7317067"><ele>185.0</ele><time>2026-04-26T07:03:31.781Z</time></trkpt><trkpt lat="45.58476" lon="10.7316433"><ele>185.0</ele><time>2026-04-26T07:03:33.78Z</time></trkpt><trkpt lat="45.5847" lon="10.7317833"><ele>185.0</ele><time>2026-04-26T07:03:35.781Z</time></trkpt><trkpt lat="45.5846567" lon="10.7321167"><ele>185.0</ele><time>2026-04-26T07:03:37.781Z</time></trkpt><trkpt lat="45.5846483" lon="10.7322383"><ele>185.0</ele><time>2026-04-26T07:03:38.781Z</time></trkpt><trkpt lat="45.584645" lon="10.732345"><ele>185.0</ele><time>2026-04-26T07:03:39.78Z</time></trkpt><trkpt lat="45.584635" lon="10.7324467"><ele>185.0</ele><time>2026-04-26T07:03:40.78Z</time></trkpt><trkpt lat="45.5846433" lon="10.7325467"><ele>185.0</ele><time>2026-04-26T07:03:41.781Z</time></trkpt><trkpt lat="45.5846183" lon="10.7326783"><ele>185.0</ele><time>2026-04-26T07:03:43.78Z</time></trkpt><trkpt lat="45.5845517" lon="10.73268"><ele>185.0</ele><time>2026-04-26T07:03:46.781Z</time></trkpt><trkpt lat="45.5845317" lon="10.73242"><ele>185.0</ele><time>2026-04-26T07:03:48.78Z</time></trkpt><trkpt lat="45.584535" lon="10.7322083"><ele>185.0</ele><time>2026-04-26T07:03:49.781Z</time></trkpt><trkpt lat="45.58455" lon="10.7319733"><ele>185.0</ele><time>2026-04-26T07:03:50.78Z</time></trkpt><trkpt lat="45.5845533" lon="10.731775"><ele>185.0</ele><time>2026-04-26T07:03:51.781Z</time></trkpt><trkpt lat="45.5845467" lon="10.7315833"><ele>185.0</ele><time>2026-04-26T07:03:52.781Z</time></trkpt><trkpt lat="45.5845217" lon="10.7314067"><ele>185.0</ele><time>2026-04-26T07:03:53.781Z</time></trkpt><trkpt lat="45.5844967" lon="10.7312133"><ele>178.0</ele><time>2026-04-26T07:03:54.78Z</time></trkpt><trkpt lat="45.584445" lon="10.7310167"><ele>171.0</ele><time>2026-04-26T07:03:55.781Z</time></trkpt><trkpt lat="45.5844167" lon="10.7308533"><ele>164.0</ele><time>2026-04-26T07:03:56.78Z</time></trkpt><trkpt lat="45.5843983" lon="10.730715"><ele>157.0</ele><time>2026-04-26T07:03:57.781Z</time></trkpt><trkpt lat="45.5843817" lon="10.7305783"><ele>157.0</ele><time>2026-04-26T07:03:58.781Z</time></trkpt><trkpt lat="45.58437" lon="10.73043"><ele>157.0</ele><time>2026-04-26T07:03:59.781Z</time></trkpt><trkpt lat="45.5843617" lon="10.730275"><ele>157.0</ele><time>2026-04-26T07:04:00.781Z</time></trkpt><trkpt lat="45.5843467" lon="10.7301267"><ele>157.0</ele><time>2026-04-26T07:04:01.78Z</time></trkpt><trkpt lat="45.5843133" lon="10.7299583"><ele>157.0</ele><time>2026-04-26T07:04:02.78Z</time></trkpt><trkpt lat="45.5842867" lon="10.7297883"><ele>156.5</ele><time>2026-04-26T07:04:03.78Z</time></trkpt><trkpt lat="45.584265" lon="10.729625"><ele>156.0</ele><time>2026-04-26T07:04:04.78Z</time></trkpt><trkpt lat="45.5842467" lon="10.7294567"><ele>155.5</ele><time>2026-04-26T07:04:05.78Z</time></trkpt><trkpt lat="45.5842267" lon="10.7292917"><ele>155.0</ele><time>2026-04-26T07:04:06.78Z</time></trkpt><trkpt lat="45.5841583" lon="10.7291417"><ele>154.25</ele><time>2026-04-26T07:04:07.78Z</time></trkpt><trkpt lat="45.5841317" lon="10.7289883"><ele>153.5</ele><time>2026-04-26T07:04:08.781Z</time></trkpt><trkpt lat="45.58409" lon="10.7288067"><ele>152.75</ele><time>2026-04-26T07:04:09.781Z</time></trkpt><trkpt lat="45.5840083" lon="10.7286717"><ele>152.0</ele><time>2026-04-26T07:04:10.781Z</time></trkpt><trkpt lat="45.5839133" lon="10.7285433"><ele>151.25</ele><time>2026-04-26T07:04:11.78Z</time></trkpt><trkpt lat="45.5838133" lon="10.7284233"><ele>150.5</ele><time>2026-04-26T07:04:12.78Z</time></trkpt><trkpt lat="45.5837133" lon="10.7282967"><ele>149.75</ele><time>2026-04-26T07:04:13.78Z</time></trkpt><trkpt lat="45.5836383" lon="10.7281683"><ele>149.0</ele><time>2026-04-26T07:04:14.781Z</time></trkpt><trkpt lat="45.5835833" lon="10.7280267"><ele>145.25</ele><time>2026-04-26T07:04:15.781Z</time></trkpt><trkpt lat="45.5835467" lon="10.72788"><ele>141.5</ele><time>2026-04-26T07:04:16.78Z</time></trkpt><trkpt lat="45.583525" lon="10.7277217"><ele>137.75</ele><time>2026-04-26T07:04:17.78Z</time></trkpt><trkpt lat="45.58351" lon="10.7275433"><ele>134.0</ele><time>2026-04-26T07:04:18.78Z</time></trkpt><trkpt lat="45.5835017" lon="10.7273683"><ele>133.25</ele><time>2026-04-26T07:04:19.781Z</time></trkpt><trkpt lat="45.5834933" lon="10.7271933"><ele>132.5</ele><time>2026-04-26T07:04:20.781Z</time></trkpt><trkpt lat="45.5834717" lon="10.72702"><ele>131.75</ele><time>2026-04-26T07:04:21.78Z</time></trkpt><trkpt lat="45.5834533" lon="10.7268583"><ele>131.0</ele><time>2026-04-26T07:04:22.781Z</time></trkpt><trkpt lat="45.58344" lon="10.7266967"><ele>130.6</ele><time>2026-04-26T07:04:23.78Z</time></trkpt><trkpt lat="45.5834283" lon="10.72654"><ele>130.2</ele><time>2026-04-26T07:04:24.78Z</time></trkpt><trkpt lat="45.5834033" lon="10.7263767"><ele>129.8</ele><time>2026-04-26T07:04:25.781Z</time></trkpt><trkpt lat="45.5833717" lon="10.7262083"><ele>129.4</ele><time>2026-04-26T07:04:26.781Z</time></trkpt><trkpt lat="45.5833483" lon="10.7260717"><ele>129.0</ele><time>2026-04-26T07:04:27.78Z</time></trkpt><trkpt lat="45.583325" lon="10.7259417"><ele>128.83333333333334</ele><time>2026-04-26T07:04:28.781Z</time></trkpt><trkpt lat="45.5832917" lon="10.7258417"><ele>128.66666666666666</ele><time>2026-04-26T07:04:29.78Z</time></trkpt><trkpt lat="45.583255" lon="10.72575"><ele>128.5</ele><time>2026-04-26T07:04:30.78Z</time></trkpt><trkpt lat="45.5831917" lon="10.7256267"><ele>128.33333333333331</ele><time>2026-04-26T07:04:32.781Z</time></trkpt><trkpt lat="45.58315" lon="10.7255317"><ele>128.16666666666666</ele><time>2026-04-26T07:04:34.781Z</time></trkpt><trkpt lat="45.5831983" lon="10.7254567"><ele>128.0</ele><time>2026-04-26T07:04:37.78Z</time></trkpt><trkpt lat="45.583335" lon="10.7254283"><ele>127.99999999999999</ele><time>2026-04-26T07:04:39.78Z</time></trkpt><trkpt lat="45.5834033" lon="10.7254"><ele>128.0</ele><time>2026-04-26T07:04:40.781Z</time></trkpt><trkpt lat="45.5834817" lon="10.72537"><ele>128.0</ele><time>2026-04-26T07:04:41.781Z</time></trkpt><trkpt lat="45.583545" lon="10.725315"><ele>128.0</ele><time>2026-04-26T07:04:42.78Z</time></trkpt><trkpt lat="45.583595" lon="10.72524"><ele>127.99999999999999</ele><time>2026-04-26T07:04:43.78Z</time></trkpt><trkpt lat="45.5836417" lon="10.72516"><ele>128.0</ele><time>2026-04-26T07:04:44.78Z</time></trkpt><trkpt lat="45.5836683" lon="10.7250333"><ele>128.4</ele><time>2026-04-26T07:04:45.781Z</time></trkpt><trkpt lat="45.5837033" lon="10.72492"><ele>128.8</ele><time>2026-04-26T07:04:46.78Z</time></trkpt><trkpt lat="45.5837433" lon="10.7247933"><ele>129.2</ele><time>2026-04-26T07:04:47.781Z</time></trkpt><trkpt lat="45.5837917" lon="10.7246617"><ele>129.6</ele><time>2026-04-26T07:04:48.78Z</time></trkpt><trkpt lat="45.583845" lon="10.724515"><ele>130.0</ele><time>2026-04-26T07:04:49.78Z</time></trkpt><trkpt lat="45.583905" lon="10.72436"><ele>130.25</ele><time>2026-04-26T07:04:50.78Z</time></trkpt><trkpt lat="45.583975" lon="10.72422"><ele>130.5</ele><time>2026-04-26T07:04:51.78Z</time></trkpt><trkpt lat="45.5840433" lon="10.724075"><ele>130.75</ele><time>2026-04-26T07:04:52.781Z</time></trkpt><trkpt lat="45.58412" lon="10.7239317"><ele>131.0</ele><time>2026-04-26T07:04:53.78Z</time></trkpt><trkpt lat="45.5841967" lon="10.72381"><ele>131.0</ele><time>2026-04-26T07:04:54.781Z</time></trkpt><trkpt lat="45.5842733" lon="10.7237017"><ele>131.0</ele><time>2026-04-26T07:04:55.78Z</time></trkpt><trkpt lat="45.58435" lon="10.723605"><ele>131.0</ele><time>2026-04-26T07:04:56.78Z</time></trkpt><trkpt lat="45.5844267" lon="10.7235333"><ele>131.0</ele><time>2026-04-26T07:04:57.78Z</time></trkpt><trkpt lat="45.5845" lon="10.7234783"><ele>131.0</ele><time>2026-04-26T07:04:58.78Z</time></trkpt><trkpt lat="45.5845717" lon="10.72344"><ele>134.6</ele><time>2026-04-26T07:04:59.781Z</time></trkpt><trkpt lat="45.5846483" lon="10.7234283"><ele>138.2</ele><time>2026-04-26T07:05:00.78Z</time></trkpt><trkpt lat="45.5847133" lon="10.7234517"><ele>141.8</ele><time>2026-04-26T07:05:01.78Z</time></trkpt><trkpt lat="45.5847867" lon="10.7235317"><ele>145.4</ele><time>2026-04-26T07:05:02.781Z</time></trkpt><trkpt lat="45.5848617" lon="10.7236383"><ele>149.0</ele><time>2026-04-26T07:05:03.78Z</time></trkpt><trkpt lat="45.5849267" lon="10.7237683"><ele>149.0</ele><time>2026-04-26T07:05:04.781Z</time></trkpt><trkpt lat="45.5850017" lon="10.7238683"><ele>149.0</ele><time>2026-04-26T07:05:05.78Z</time></trkpt><trkpt lat="45.5850817" lon="10.7239517"><ele>149.0</ele><time>2026-04-26T07:05:06.779Z</time></trkpt><trkpt lat="45.5851633" lon="10.724"><ele>149.0</ele><time>2026-04-26T07:05:07.779Z</time></trkpt><trkpt lat="45.5852433" lon="10.7240233"><ele>149.0</ele><time>2026-04-26T07:05:08.779Z</time></trkpt><trkpt lat="45.58533" lon="10.7240417"><ele>151.83333333333331</ele><time>2026-04-26T07:05:09.78Z</time></trkpt><trkpt lat="45.5854167" lon="10.7240567"><ele>154.66666666666666</ele><time>2026-04-26T07:05:10.779Z</time></trkpt><trkpt lat="45.5855033" lon="10.7240867"><ele>157.5</ele><time>2026-04-26T07:05:11.779Z</time></trkpt><trkpt lat="45.5855717" lon="10.72413"><ele>160.33333333333334</ele><time>2026-04-26T07:05:12.78Z</time></trkpt><trkpt lat="45.58563" lon="10.7241883"><ele>163.16666666666669</ele><time>2026-04-26T07:05:13.779Z</time></trkpt><trkpt lat="45.5857033" lon="10.7242883"><ele>166.0</ele><time>2026-04-26T07:05:15.78Z</time></trkpt><trkpt lat="45.5858067" lon="10.7243433"><ele>166.0</ele><time>2026-04-26T07:05:17.78Z</time></trkpt><trkpt lat="45.5858667" lon="10.7243833"><ele>166.0</ele><time>2026-04-26T07:05:18.78Z</time></trkpt><trkpt lat="45.5859433" lon="10.7244783"><ele>166.0</ele><time>2026-04-26T07:05:20.779Z</time></trkpt><trkpt lat="45.5859933" lon="10.7245533"><ele>166.0</ele><time>2026-04-26T07:05:23.779Z</time></trkpt><trkpt lat="45.586065" lon="10.7246083"><ele>166.0</ele><time>2026-04-26T07:05:32.779Z</time></trkpt><trkpt lat="45.586155" lon="10.72468"><ele>166.0</ele><time>2026-04-26T07:05:34.779Z</time></trkpt><trkpt lat="45.5862633" lon="10.724725"><ele>168.33333333333334</ele><time>2026-04-26T07:05:36.78Z</time></trkpt><trkpt lat="45.5863317" lon="10.72476"><ele>170.66666666666669</ele><time>2026-04-26T07:05:37.78Z</time></trkpt><trkpt lat="45.58641" lon="10.724795"><ele>173.0</ele><time>2026-04-26T07:05:38.779Z</time></trkpt><trkpt lat="45.5865" lon="10.7248367"><ele>175.33333333333334</ele><time>2026-04-26T07:05:39.78Z</time></trkpt><trkpt lat="45.5865833" lon="10.7248833"><ele>177.66666666666666</ele><time>2026-04-26T07:05:40.779Z</time></trkpt><trkpt lat="45.5866667" lon="10.7249283"><ele>180.0</ele><time>2026-04-26T07:05:41.779Z</time></trkpt><trkpt lat="45.5867483" lon="10.7249683"><ele>180.0</ele><time>2026-04-26T07:05:42.779Z</time></trkpt><trkpt lat="45.58682" lon="10.7250067"><ele>180.0</ele><time>2026-04-26T07:05:43.779Z</time></trkpt><trkpt lat="45.5869283" lon="10.7250717"><ele>180.0</ele><time>2026-04-26T07:05:45.779Z</time></trkpt><trkpt lat="45.5870217" lon="10.725055"><ele>180.0</ele><time>2026-04-26T07:05:47.779Z</time></trkpt><trkpt lat="45.5870867" lon="10.7249917"><ele>180.0</ele><time>2026-04-26T07:05:49.779Z</time></trkpt><trkpt lat="45.5870783" lon="10.7249017"><ele>180.0</ele><time>2026-04-26T07:05:50.779Z</time></trkpt><trkpt lat="45.5870983" lon="10.7248117"><ele>183.5</ele><time>2026-04-26T07:05:51.779Z</time></trkpt><trkpt lat="45.587105" lon="10.72468"><ele>187.0</ele><time>2026-04-26T07:05:52.78Z</time></trkpt><trkpt lat="45.5871217" lon="10.7245683"><ele>190.5</ele><time>2026-04-26T07:05:53.78Z</time></trkpt><trkpt lat="45.5871467" lon="10.72447"><ele>194.0</ele><time>2026-04-26T07:05:54.779Z</time></trkpt><trkpt lat="45.5871667" lon="10.724355"><ele>197.5</ele><time>2026-04-26T07:05:55.779Z</time></trkpt><trkpt lat="45.5871833" lon="10.7242283"><ele>201.0</ele><time>2026-04-26T07:05:56.78Z</time></trkpt><trkpt lat="45.5872067" lon="10.724115"><ele>201.0</ele><time>2026-04-26T07:05:57.779Z</time></trkpt><trkpt lat="45.5872183" lon="10.724"><ele>201.0</ele><time>2026-04-26T07:05:58.78Z</time></trkpt><trkpt lat="45.5872317" lon="10.723865"><ele>201.0</ele><time>2026-04-26T07:05:59.779Z</time></trkpt><trkpt lat="45.5872417" lon="10.7237367"><ele>201.0</ele><time>2026-04-26T07:06:00.779Z</time></trkpt><trkpt lat="45.587255" lon="10.7236183"><ele>201.0</ele><time>2026-04-26T07:06:01.78Z</time></trkpt><trkpt lat="45.587265" lon="10.7234983"><ele>201.0</ele><time>2026-04-26T07:06:02.779Z</time></trkpt><trkpt lat="45.58726" lon="10.7233783"><ele>200.83333333333334</ele><time>2026-04-26T07:06:03.779Z</time></trkpt><trkpt lat="45.587255" lon="10.7232417"><ele>200.66666666666669</ele><time>2026-04-26T07:06:04.78Z</time></trkpt><trkpt lat="45.58724" lon="10.7231283"><ele>200.5</ele><time>2026-04-26T07:06:05.779Z</time></trkpt><trkpt lat="45.5872233" lon="10.7230233"><ele>200.33333333333334</ele><time>2026-04-26T07:06:06.779Z</time></trkpt><trkpt lat="45.5872133" lon="10.7229183"><ele>200.16666666666669</ele><time>2026-04-26T07:06:07.779Z</time></trkpt><trkpt lat="45.5872017" lon="10.7227433"><ele>200.0</ele><time>2026-04-26T07:06:09.779Z</time></trkpt><trkpt lat="45.5871683" lon="10.7225917"><ele>200.0</ele><time>2026-04-26T07:06:11.779Z</time></trkpt><trkpt lat="45.5871333" lon="10.7224633"><ele>200.0</ele><time>2026-04-26T07:06:13.779Z</time></trkpt><trkpt lat="45.587075" lon="10.7223233"><ele>200.0</ele><time>2026-04-26T07:06:15.779Z</time></trkpt><trkpt lat="45.5869733" lon="10.7222633"><ele>200.0</ele><time>2026-04-26T07:06:17.78Z</time></trkpt><trkpt lat="45.5868633" lon="10.722275"><ele>200.0</ele><time>2026-04-26T07:06:19.78Z</time></trkpt><trkpt lat="45.586765" lon="10.7222933"><ele>195.8</ele><time>2026-04-26T07:06:21.78Z</time></trkpt><trkpt lat="45.5866717" lon="10.7222883"><ele>191.6</ele><time>2026-04-26T07:06:23.779Z</time></trkpt><trkpt lat="45.5866" lon="10.7222017"><ele>187.39999999999998</ele><time>2026-04-26T07:06:25.78Z</time></trkpt><trkpt lat="45.58655" lon="10.7220583"><ele>183.2</ele><time>2026-04-26T07:06:27.779Z</time></trkpt><trkpt lat="45.5865333" lon="10.7219583"><ele>179.0</ele><time>2026-04-26T07:06:28.779Z</time></trkpt><trkpt lat="45.5865167" lon="10.7218083"><ele>179.0</ele><time>2026-04-26T07:06:29.779Z</time></trkpt><trkpt lat="45.5865083" lon="10.721665"><ele>179.0</ele><time>2026-04-26T07:06:30.78Z</time></trkpt><trkpt lat="45.5864933" lon="10.7215267"><ele>179.0</ele><time>2026-04-26T07:06:31.779Z</time></trkpt><trkpt lat="45.586475" lon="10.7213967"><ele>179.0</ele><time>2026-04-26T07:06:32.78Z</time></trkpt><trkpt lat="45.58646" lon="10.7212583"><ele>179.0</ele><time>2026-04-26T07:06:33.779Z</time></trkpt><trkpt lat="45.5864433" lon="10.7211117"><ele>179.6</ele><time>2026-04-26T07:06:34.779Z</time></trkpt><trkpt lat="45.5864233" lon="10.7209533"><ele>180.2</ele><time>2026-04-26T07:06:35.779Z</time></trkpt><trkpt lat="45.5864133" lon="10.7208183"><ele>180.79999999999998</ele><time>2026-04-26T07:06:36.779Z</time></trkpt><trkpt lat="45.5864083" lon="10.72069"><ele>181.39999999999998</ele><time>2026-04-26T07:06:37.78Z</time></trkpt><trkpt lat="45.5864083" lon="10.7205767"><ele>182.0</ele><time>2026-04-26T07:06:38.779Z</time></trkpt><trkpt lat="45.5864083" lon="10.7204717"><ele>182.0</ele><time>2026-04-26T07:06:39.779Z</time></trkpt><trkpt lat="45.5864117" lon="10.720375"><ele>182.0</ele><time>2026-04-26T07:06:40.779Z</time></trkpt><trkpt lat="45.586405" lon="10.7202733"><ele>182.0</ele><time>2026-04-26T07:06:41.779Z</time></trkpt><trkpt lat="45.586395" lon="10.7201667"><ele>182.0</ele><time>2026-04-26T07:06:42.779Z</time></trkpt><trkpt lat="45.58639" lon="10.7200567"><ele>182.0</ele><time>2026-04-26T07:06:43.779Z</time></trkpt><trkpt lat="45.5863917" lon="10.7199533"><ele>182.0</ele><time>2026-04-26T07:06:44.779Z</time></trkpt><trkpt lat="45.586385" lon="10.719845"><ele>182.0</ele><time>2026-04-26T07:06:45.78Z</time></trkpt><trkpt lat="45.5863817" lon="10.7196667"><ele>182.39999999999998</ele><time>2026-04-26T07:06:47.779Z</time></trkpt><trkpt lat="45.5863833" lon="10.71957"><ele>182.79999999999998</ele><time>2026-04-26T07:06:48.779Z</time></trkpt><trkpt lat="45.5863817" lon="10.7194733"><ele>183.2</ele><time>2026-04-26T07:06:49.78Z</time></trkpt><trkpt lat="45.5863567" lon="10.7193067"><ele>183.6</ele><time>2026-04-26T07:06:51.779Z</time></trkpt><trkpt lat="45.5863017" lon="10.7192017"><ele>184.0</ele><time>2026-04-26T07:06:53.779Z</time></trkpt><trkpt lat="45.586165" lon="10.7191933"><ele>181.79999999999998</ele><time>2026-04-26T07:06:55.779Z</time></trkpt><trkpt lat="45.586055" lon="10.71922"><ele>179.6</ele><time>2026-04-26T07:06:56.779Z</time></trkpt><trkpt lat="45.5859567" lon="10.7192317"><ele>177.4</ele><time>2026-04-26T07:06:57.779Z</time></trkpt><trkpt lat="45.5858633" lon="10.7192433"><ele>175.2</ele><time>2026-04-26T07:06:58.78Z</time></trkpt><trkpt lat="45.5857783" lon="10.7192433"><ele>173.0</ele><time>2026-04-26T07:06:59.779Z</time></trkpt><trkpt lat="45.5856983" lon="10.7192267"><ele>173.0</ele><time>2026-04-26T07:07:00.779Z</time></trkpt><trkpt lat="45.585635" lon="10.7191983"><ele>173.0</ele><time>2026-04-26T07:07:01.779Z</time></trkpt><trkpt lat="45.5855683" lon="10.7191583"><ele>173.0</ele><time>2026-04-26T07:07:02.78Z</time></trkpt><trkpt lat="45.5855167" lon="10.7191067"><ele>173.0</ele><time>2026-04-26T07:07:03.779Z</time></trkpt><trkpt lat="45.585455" lon="10.7189517"><ele>173.0</ele><time>2026-04-26T07:07:05.78Z</time></trkpt><trkpt lat="45.5854367" lon="10.7188633"><ele>173.0</ele><time>2026-04-26T07:07:06.78Z</time></trkpt><trkpt lat="45.585375" lon="10.7187567"><ele>168.75</ele><time>2026-04-26T07:07:08.78Z</time></trkpt><trkpt lat="45.585305" lon="10.7187167"><ele>164.5</ele><time>2026-04-26T07:07:10.779Z</time></trkpt><trkpt lat="45.5852267" lon="10.7187267"><ele>160.25</ele><time>2026-04-26T07:07:12.779Z</time></trkpt><trkpt lat="45.5850033" lon="10.7187183"><ele>156.0</ele><time>2026-04-26T07:07:14.779Z</time></trkpt><trkpt lat="45.5849083" lon="10.7186933"><ele>156.0</ele><time>2026-04-26T07:07:15.779Z</time></trkpt><trkpt lat="45.5848067" lon="10.7186617"><ele>156.0</ele><time>2026-04-26T07:07:16.78Z</time></trkpt><trkpt lat="45.584715" lon="10.71861"><ele>156.0</ele><time>2026-04-26T07:07:17.779Z</time></trkpt><trkpt lat="45.5846117" lon="10.7185017"><ele>156.0</ele><time>2026-04-26T07:07:19.779Z</time></trkpt><trkpt lat="45.58456" lon="10.7184117"><ele>156.0</ele><time>2026-04-26T07:07:20.78Z</time></trkpt><trkpt lat="45.5845283" lon="10.718325"><ele>153.0</ele><time>2026-04-26T07:07:21.779Z</time></trkpt><trkpt lat="45.58449" lon="10.71823"><ele>150.0</ele><time>2026-04-26T07:07:22.779Z</time></trkpt><trkpt lat="45.5844517" lon="10.7181383"><ele>147.0</ele><time>2026-04-26T07:07:23.779Z</time></trkpt><trkpt lat="45.58443" lon="10.7180533"><ele>144.0</ele><time>2026-04-26T07:07:24.78Z</time></trkpt><trkpt lat="45.58437" lon="10.7179567"><ele>141.0</ele><time>2026-04-26T07:07:25.779Z</time></trkpt><trkpt lat="45.584315" lon="10.717785"><ele>138.0</ele><time>2026-04-26T07:07:27.779Z</time></trkpt><trkpt lat="45.58426" lon="10.7176583"><ele>138.0</ele><time>2026-04-26T07:07:28.779Z</time></trkpt><trkpt lat="45.5842117" lon="10.7175433"><ele>138.0</ele><time>2026-04-26T07:07:29.779Z</time></trkpt><trkpt lat="45.5841567" lon="10.71741"><ele>138.0</ele><time>2026-04-26T07:07:30.78Z</time></trkpt><trkpt lat="45.5840933" lon="10.7172917"><ele>138.0</ele><time>2026-04-26T07:07:31.779Z</time></trkpt><trkpt lat="45.584045" lon="10.71719"><ele>138.0</ele><time>2026-04-26T07:07:32.779Z</time></trkpt><trkpt lat="45.5840083" lon="10.7170917"><ele>138.0</ele><time>2026-04-26T07:07:33.78Z</time></trkpt><trkpt lat="45.5839683" lon="10.7169783"><ele>138.0</ele><time>2026-04-26T07:07:34.78Z</time></trkpt><trkpt lat="45.5839317" lon="10.7168717"><ele>138.0</ele><time>2026-04-26T07:07:35.78Z</time></trkpt><trkpt lat="45.5838917" lon="10.7167683"><ele>138.0</ele><time>2026-04-26T07:07:36.78Z</time></trkpt><trkpt lat="45.583855" lon="10.7166767"><ele>138.0</ele><time>2026-04-26T07:07:37.78Z</time></trkpt><trkpt lat="45.5838183" lon="10.7166"><ele>138.0</ele><time>2026-04-26T07:07:38.779Z</time></trkpt><trkpt lat="45.5837367" lon="10.71653"><ele>133.4</ele><time>2026-04-26T07:07:40.78Z</time></trkpt><trkpt lat="45.5836717" lon="10.7165333"><ele>128.8</ele><time>2026-04-26T07:07:41.78Z</time></trkpt><trkpt lat="45.583605" lon="10.716555"><ele>124.2</ele><time>2026-04-26T07:07:42.779Z</time></trkpt><trkpt lat="45.5834883" lon="10.7165683"><ele>119.6</ele><time>2026-04-26T07:07:43.78Z</time></trkpt><trkpt lat="45.5833817" lon="10.7165967"><ele>115.0</ele><time>2026-04-26T07:07:44.78Z</time></trkpt><trkpt lat="45.58328" lon="10.7166133"><ele>115.0</ele><time>2026-04-26T07:07:45.78Z</time></trkpt><trkpt lat="45.5831617" lon="10.7166217"><ele>115.0</ele><time>2026-04-26T07:07:46.78Z</time></trkpt><trkpt lat="45.5830617" lon="10.7166333"><ele>115.0</ele><time>2026-04-26T07:07:47.779Z</time></trkpt><trkpt lat="45.5829633" lon="10.7166433"><ele>115.0</ele><time>2026-04-26T07:07:48.779Z</time></trkpt><trkpt lat="45.5828583" lon="10.7166433"><ele>115.0</ele><time>2026-04-26T07:07:49.78Z</time></trkpt><trkpt lat="45.582755" lon="10.71665"><ele>113.2</ele><time>2026-04-26T07:07:50.779Z</time></trkpt><trkpt lat="45.58265" lon="10.71664"><ele>111.4</ele><time>2026-04-26T07:07:51.78Z</time></trkpt><trkpt lat="45.5825383" lon="10.71663"><ele>109.6</ele><time>2026-04-26T07:07:52.779Z</time></trkpt><trkpt lat="45.58243" lon="10.71661"><ele>107.8</ele><time>2026-04-26T07:07:53.78Z</time></trkpt><trkpt lat="45.582335" lon="10.71659"><ele>106.0</ele><time>2026-04-26T07:07:54.78Z</time></trkpt><trkpt lat="45.5822417" lon="10.716565"><ele>106.00000000000001</ele><time>2026-04-26T07:07:55.779Z</time></trkpt><trkpt lat="45.58216" lon="10.716545"><ele>106.0</ele><time>2026-04-26T07:07:56.779Z</time></trkpt><trkpt lat="45.582095" lon="10.7165233"><ele>106.0</ele><time>2026-04-26T07:07:57.78Z</time></trkpt><trkpt lat="45.5820083" lon="10.7164567"><ele>106.0</ele><time>2026-04-26T07:07:59.78Z</time></trkpt><trkpt lat="45.582005" lon="10.716365"><ele>106.00000000000001</ele><time>2026-04-26T07:08:01.78Z</time></trkpt><trkpt lat="45.5820567" lon="10.7163033"><ele>106.0</ele><time>2026-04-26T07:08:02.78Z</time></trkpt><trkpt lat="45.58215" lon="10.7162033"><ele>106.0</ele><time>2026-04-26T07:08:04.78Z</time></trkpt><trkpt lat="45.5822217" lon="10.71611"><ele>106.0</ele><time>2026-04-26T07:08:06.779Z</time></trkpt><trkpt lat="45.58224" lon="10.7159783"><ele>106.0</ele><time>2026-04-26T07:08:09.779Z</time></trkpt><trkpt lat="45.582245" lon="10.7158467"><ele>106.0</ele><time>2026-04-26T07:08:11.78Z</time></trkpt><trkpt lat="45.58222" lon="10.7156983"><ele>106.0</ele><time>2026-04-26T07:08:13.78Z</time></trkpt><trkpt lat="45.58221" lon="10.71556"><ele>106.6</ele><time>2026-04-26T07:08:15.779Z</time></trkpt><trkpt lat="45.5821883" lon="10.715435"><ele>107.19999999999999</ele><time>2026-04-26T07:08:17.779Z</time></trkpt><trkpt lat="45.58219" lon="10.7153167"><ele>107.80000000000001</ele><time>2026-04-26T07:08:19.78Z</time></trkpt><trkpt lat="45.58223" lon="10.715155"><ele>108.4</ele><time>2026-04-26T07:08:21.779Z</time></trkpt><trkpt lat="45.5822833" lon="10.71501"><ele>109.0</ele><time>2026-04-26T07:08:23.78Z</time></trkpt><trkpt lat="45.5823633" lon="10.7149"><ele>109.6</ele><time>2026-04-26T07:08:25.779Z</time></trkpt><trkpt lat="45.5824583" lon="10.7148033"><ele>110.2</ele><time>2026-04-26T07:08:27.779Z</time></trkpt><trkpt lat="45.58253" lon="10.7147333"><ele>110.79999999999998</ele><time>2026-04-26T07:08:29.779Z</time></trkpt><trkpt lat="45.5825733" lon="10.7146333"><ele>111.39999999999999</ele><time>2026-04-26T07:08:31.778Z</time></trkpt><trkpt lat="45.5825667" lon="10.7144767"><ele>112.0</ele><time>2026-04-26T07:08:33.778Z</time></trkpt><trkpt lat="45.58255" lon="10.7143867"><ele>112.00000000000001</ele><time>2026-04-26T07:08:34.778Z</time></trkpt><trkpt lat="45.5825317" lon="10.714295"><ele>112.0</ele><time>2026-04-26T07:08:35.778Z</time></trkpt><trkpt lat="45.5825133" lon="10.7142033"><ele>112.0</ele><time>2026-04-26T07:08:36.779Z</time></trkpt><trkpt lat="45.58248" lon="10.7140967"><ele>112.0</ele><time>2026-04-26T07:08:37.778Z</time></trkpt><trkpt lat="45.5824517" lon="10.7139917"><ele>112.00000000000001</ele><time>2026-04-26T07:08:38.779Z</time></trkpt><trkpt lat="45.5824317" lon="10.7138983"><ele>112.0</ele><time>2026-04-26T07:08:39.778Z</time></trkpt><trkpt lat="45.5823967" lon="10.7137267"><ele>112.0</ele><time>2026-04-26T07:08:41.779Z</time></trkpt><trkpt lat="45.5823767" lon="10.7136233"><ele>112.0</ele><time>2026-04-26T07:08:42.778Z</time></trkpt><trkpt lat="45.582345" lon="10.7135217"><ele>112.0</ele><time>2026-04-26T07:08:43.779Z</time></trkpt><trkpt lat="45.58231" lon="10.7134267"><ele>112.0</ele><time>2026-04-26T07:08:44.778Z</time></trkpt><trkpt lat="45.5822767" lon="10.71334"><ele>112.0</ele><time>2026-04-26T07:08:45.778Z</time></trkpt><trkpt lat="45.5822383" lon="10.713255"><ele>112.0</ele><time>2026-04-26T07:08:46.778Z</time></trkpt><trkpt lat="45.5822017" lon="10.7131717"><ele>112.0</ele><time>2026-04-26T07:08:47.778Z</time></trkpt><trkpt lat="45.5821667" lon="10.7130817"><ele>112.57142857142857</ele><time>2026-04-26T07:08:48.778Z</time></trkpt><trkpt lat="45.58214" lon="10.7129883"><ele>113.14285714285714</ele><time>2026-04-26T07:08:49.778Z</time></trkpt><trkpt lat="45.5821183" lon="10.7128983"><ele>113.71428571428572</ele><time>2026-04-26T07:08:50.778Z</time></trkpt><trkpt lat="45.5821" lon="10.7128083"><ele>114.28571428571429</ele><time>2026-04-26T07:08:51.779Z</time></trkpt><trkpt lat="45.5820833" lon="10.7127167"><ele>114.85714285714286</ele><time>2026-04-26T07:08:52.779Z</time></trkpt><trkpt lat="45.5820617" lon="10.7126217"><ele>115.42857142857144</ele><time>2026-04-26T07:08:53.779Z</time></trkpt><trkpt lat="45.582045" lon="10.71253"><ele>116.00000000000001</ele><time>2026-04-26T07:08:54.778Z</time></trkpt><trkpt lat="45.5820217" lon="10.71242"><ele>115.99999999999999</ele><time>2026-04-26T07:08:55.778Z</time></trkpt><trkpt lat="45.5820083" lon="10.7123017"><ele>116.0</ele><time>2026-04-26T07:08:56.778Z</time></trkpt><trkpt lat="45.5820033" lon="10.7121733"><ele>116.0</ele><time>2026-04-26T07:08:57.778Z</time></trkpt><trkpt lat="45.5819717" lon="10.7120567"><ele>116.0</ele><time>2026-04-26T07:08:58.778Z</time></trkpt><trkpt lat="45.5819417" lon="10.7119583"><ele>115.99999999999999</ele><time>2026-04-26T07:08:59.778Z</time></trkpt><trkpt lat="45.5819083" lon="10.71186"><ele>116.0</ele><time>2026-04-26T07:09:00.779Z</time></trkpt><trkpt lat="45.5818833" lon="10.7117717"><ele>116.0</ele><time>2026-04-26T07:09:01.779Z</time></trkpt><trkpt lat="45.5818467" lon="10.711595"><ele>116.0</ele><time>2026-04-26T07:09:03.779Z</time></trkpt><trkpt lat="45.58183" lon="10.7114167"><ele>116.0</ele><time>2026-04-26T07:09:05.779Z</time></trkpt><trkpt lat="45.5818267" lon="10.71132"><ele>116.0</ele><time>2026-04-26T07:09:06.779Z</time></trkpt><trkpt lat="45.5818217" lon="10.7112217"><ele>116.0</ele><time>2026-04-26T07:09:07.778Z</time></trkpt><trkpt lat="45.58179" lon="10.7110767"><ele>116.49999999999999</ele><time>2026-04-26T07:09:08.778Z</time></trkpt><trkpt lat="45.5817867" lon="10.7109817"><ele>117.0</ele><time>2026-04-26T07:09:09.778Z</time></trkpt><trkpt lat="45.58178" lon="10.71089"><ele>117.5</ele><time>2026-04-26T07:09:10.779Z</time></trkpt><trkpt lat="45.58176" lon="10.7107833"><ele>118.0</ele><time>2026-04-26T07:09:11.778Z</time></trkpt><trkpt lat="45.5817717" lon="10.7106483"><ele>118.49999999999999</ele><time>2026-04-26T07:09:13.778Z</time></trkpt><trkpt lat="45.581765" lon="10.7105233"><ele>119.0</ele><time>2026-04-26T07:09:17.779Z</time></trkpt><trkpt lat="45.58182" lon="10.710475"><ele>119.0</ele><time>2026-04-26T07:09:20.779Z</time></trkpt><trkpt lat="45.5818983" lon="10.7104483"><ele>119.0</ele><time>2026-04-26T07:09:22.778Z</time></trkpt><trkpt lat="45.5820517" lon="10.7105033"><ele>119.0</ele><time>2026-04-26T07:09:23.778Z</time></trkpt><trkpt lat="45.5821833" lon="10.7105283"><ele>119.0</ele><time>2026-04-26T07:09:24.778Z</time></trkpt><trkpt lat="45.5823083" lon="10.71053"><ele>121.0</ele><time>2026-04-26T07:09:25.779Z</time></trkpt><trkpt lat="45.58242" lon="10.7105233"><ele>123.0</ele><time>2026-04-26T07:09:26.778Z</time></trkpt><trkpt lat="45.5825333" lon="10.71052"><ele>125.0</ele><time>2026-04-26T07:09:27.778Z</time></trkpt><trkpt lat="45.5826383" lon="10.7104967"><ele>127.0</ele><time>2026-04-26T07:09:28.779Z</time></trkpt><trkpt lat="45.5827483" lon="10.71048"><ele>129.0</ele><time>2026-04-26T07:09:29.778Z</time></trkpt><trkpt lat="45.582855" lon="10.7104567"><ele>131.2</ele><time>2026-04-26T07:09:30.779Z</time></trkpt><trkpt lat="45.58296" lon="10.71043"><ele>133.4</ele><time>2026-04-26T07:09:31.778Z</time></trkpt><trkpt lat="45.5830633" lon="10.7104033"><ele>135.6</ele><time>2026-04-26T07:09:32.779Z</time></trkpt><trkpt lat="45.5831617" lon="10.71038"><ele>137.8</ele><time>2026-04-26T07:09:33.778Z</time></trkpt><trkpt lat="45.5832567" lon="10.7103533"><ele>140.0</ele><time>2026-04-26T07:09:34.778Z</time></trkpt><trkpt lat="45.5833567" lon="10.710325"><ele>140.0</ele><time>2026-04-26T07:09:35.778Z</time></trkpt><trkpt lat="45.5834683" lon="10.7103"><ele>140.0</ele><time>2026-04-26T07:09:36.779Z</time></trkpt><trkpt lat="45.5835733" lon="10.71028"><ele>140.0</ele><time>2026-04-26T07:09:37.778Z</time></trkpt><trkpt lat="45.58369" lon="10.71027"><ele>140.0</ele><time>2026-04-26T07:09:38.778Z</time></trkpt><trkpt lat="45.583815" lon="10.7102767"><ele>142.5</ele><time>2026-04-26T07:09:39.779Z</time></trkpt><trkpt lat="45.583935" lon="10.7102933"><ele>145.0</ele><time>2026-04-26T07:09:40.778Z</time></trkpt><trkpt lat="45.5840633" lon="10.7103217"><ele>147.5</ele><time>2026-04-26T07:09:41.778Z</time></trkpt><trkpt lat="45.5841917" lon="10.7103683"><ele>150.0</ele><time>2026-04-26T07:09:42.778Z</time></trkpt><trkpt lat="45.5843183" lon="10.71041"><ele>150.0</ele><time>2026-04-26T07:09:43.778Z</time></trkpt><trkpt lat="45.58446" lon="10.710485"><ele>150.0</ele><time>2026-04-26T07:09:44.778Z</time></trkpt><trkpt lat="45.5845883" lon="10.7105483"><ele>150.0</ele><time>2026-04-26T07:09:45.778Z</time></trkpt><trkpt lat="45.5847267" lon="10.7105917"><ele>150.0</ele><time>2026-04-26T07:09:46.778Z</time></trkpt><trkpt lat="45.5848583" lon="10.7106267"><ele>153.5</ele><time>2026-04-26T07:09:47.778Z</time></trkpt><trkpt lat="45.585" lon="10.7106317"><ele>157.0</ele><time>2026-04-26T07:09:48.778Z</time></trkpt><trkpt lat="45.5851433" lon="10.7106383"><ele>160.5</ele><time>2026-04-26T07:09:49.779Z</time></trkpt><trkpt lat="45.585295" lon="10.7106333"><ele>164.0</ele><time>2026-04-26T07:09:50.778Z</time></trkpt><trkpt lat="45.5854417" lon="10.7106"><ele>170.0</ele><time>2026-04-26T07:09:51.779Z</time></trkpt><trkpt lat="45.58559" lon="10.7105433"><ele>176.0</ele><time>2026-04-26T07:09:52.779Z</time></trkpt><trkpt lat="45.58572" lon="10.7104783"><ele>182.0</ele><time>2026-04-26T07:09:53.779Z</time></trkpt><trkpt lat="45.5858783" lon="10.710425"><ele>182.0</ele><time>2026-04-26T07:09:54.778Z</time></trkpt><trkpt lat="45.5860183" lon="10.71038"><ele>182.0</ele><time>2026-04-26T07:09:55.778Z</time></trkpt><trkpt lat="45.5861483" lon="10.7103333"><ele>182.0</ele><time>2026-04-26T07:09:56.778Z</time></trkpt><trkpt lat="45.58629" lon="10.7103167"><ele>182.0</ele><time>2026-04-26T07:09:57.779Z</time></trkpt><trkpt lat="45.5864333" lon="10.7103233"><ele>187.25</ele><time>2026-04-26T07:09:58.778Z</time></trkpt><trkpt lat="45.5865717" lon="10.71033"><ele>192.5</ele><time>2026-04-26T07:09:59.779Z</time></trkpt><trkpt lat="45.5866817" lon="10.7103183"><ele>197.75</ele><time>2026-04-26T07:10:00.778Z</time></trkpt><trkpt lat="45.5867783" lon="10.7102867"><ele>203.0</ele><time>2026-04-26T07:10:01.778Z</time></trkpt><trkpt lat="45.5869033" lon="10.7102667"><ele>203.4</ele><time>2026-04-26T07:10:02.779Z</time></trkpt><trkpt lat="45.587" lon="10.7102183"><ele>203.8</ele><time>2026-04-26T07:10:03.779Z</time></trkpt><trkpt lat="45.5870717" lon="10.710165"><ele>204.2</ele><time>2026-04-26T07:10:04.778Z</time></trkpt><trkpt lat="45.5871617" lon="10.7101333"><ele>204.6</ele><time>2026-04-26T07:10:05.778Z</time></trkpt><trkpt lat="45.587255" lon="10.7101283"><ele>205.0</ele><time>2026-04-26T07:10:06.778Z</time></trkpt><trkpt lat="45.58734" lon="10.7101767"><ele>204.6</ele><time>2026-04-26T07:10:08.778Z</time></trkpt><trkpt lat="45.5872267" lon="10.7102917"><ele>204.2</ele><time>2026-04-26T07:10:09.778Z</time></trkpt><trkpt lat="45.5871483" lon="10.7103767"><ele>203.8</ele><time>2026-04-26T07:10:10.778Z</time></trkpt><trkpt lat="45.5870833" lon="10.7104583"><ele>203.4</ele><time>2026-04-26T07:10:11.778Z</time></trkpt><trkpt lat="45.587025" lon="10.7105567"><ele>203.0</ele><time>2026-04-26T07:10:12.778Z</time></trkpt><trkpt lat="45.5870017" lon="10.7106667"><ele>206.4</ele><time>2026-04-26T07:10:13.778Z</time></trkpt><trkpt lat="45.5870333" lon="10.71076"><ele>209.8</ele><time>2026-04-26T07:10:14.778Z</time></trkpt><trkpt lat="45.5870967" lon="10.7108283"><ele>213.2</ele><time>2026-04-26T07:10:16.778Z</time></trkpt><trkpt lat="45.58716" lon="10.71081"><ele>216.6</ele><time>2026-04-26T07:10:17.779Z</time></trkpt><trkpt lat="45.5873633" lon="10.71069"><ele>220.0</ele><time>2026-04-26T07:10:18.778Z</time></trkpt><trkpt lat="45.5874733" lon="10.71059"><ele>220.0</ele><time>2026-04-26T07:10:19.779Z</time></trkpt><trkpt lat="45.5875917" lon="10.7104633"><ele>220.0</ele><time>2026-04-26T07:10:20.779Z</time></trkpt><trkpt lat="45.587715" lon="10.7103833"><ele>220.0</ele><time>2026-04-26T07:10:21.778Z</time></trkpt><trkpt lat="45.58783" lon="10.7103333"><ele>220.0</ele><time>2026-04-26T07:10:22.778Z</time></trkpt><trkpt lat="45.587935" lon="10.7103017"><ele>223.0</ele><time>2026-04-26T07:10:23.779Z</time></trkpt><trkpt lat="45.5880217" lon="10.7102867"><ele>226.0</ele><time>2026-04-26T07:10:24.779Z</time></trkpt><trkpt lat="45.588155" lon="10.7103117"><ele>229.0</ele><time>2026-04-26T07:10:25.778Z</time></trkpt><trkpt lat="45.5882617" lon="10.7103583"><ele>232.0</ele><time>2026-04-26T07:10:26.778Z</time></trkpt><trkpt lat="45.5883633" lon="10.7103533"><ele>235.0</ele><time>2026-04-26T07:10:27.778Z</time></trkpt><trkpt lat="45.5884667" lon="10.710335"><ele>235.0</ele><time>2026-04-26T07:10:28.779Z</time></trkpt><trkpt lat="45.5885633" lon="10.7102867"><ele>235.0</ele><time>2026-04-26T07:10:29.778Z</time></trkpt><trkpt lat="45.588655" lon="10.710205"><ele>235.0</ele><time>2026-04-26T07:10:30.778Z</time></trkpt><trkpt lat="45.5887217" lon="10.7100883"><ele>235.0</ele><time>2026-04-26T07:10:31.779Z</time></trkpt><trkpt lat="45.5887767" lon="10.709955"><ele>235.0</ele><time>2026-04-26T07:10:32.779Z</time></trkpt><trkpt lat="45.588815" lon="10.70982"><ele>235.25</ele><time>2026-04-26T07:10:33.779Z</time></trkpt><trkpt lat="45.58883" lon="10.709675"><ele>235.5</ele><time>2026-04-26T07:10:34.779Z</time></trkpt><trkpt lat="45.5887917" lon="10.7095233"><ele>235.75</ele><time>2026-04-26T07:10:35.778Z</time></trkpt><trkpt lat="45.5887517" lon="10.7093783"><ele>236.0</ele><time>2026-04-26T07:10:36.778Z</time></trkpt><trkpt lat="45.588685" lon="10.709215"><ele>237.75</ele><time>2026-04-26T07:10:37.779Z</time></trkpt><trkpt lat="45.5885933" lon="10.7090417"><ele>239.5</ele><time>2026-04-26T07:10:38.778Z</time></trkpt><trkpt lat="45.588675" lon="10.7089583"><ele>241.25</ele><time>2026-04-26T07:10:40.778Z</time></trkpt><trkpt lat="45.5887467" lon="10.709"><ele>243.0</ele><time>2026-04-26T07:10:41.779Z</time></trkpt><trkpt lat="45.58885" lon="10.7091"><ele>243.0</ele><time>2026-04-26T07:10:42.778Z</time></trkpt><trkpt lat="45.58895" lon="10.7092383"><ele>243.0</ele><time>2026-04-26T07:10:43.779Z</time></trkpt><trkpt lat="45.5890317" lon="10.7093833"><ele>243.0</ele><time>2026-04-26T07:10:44.778Z</time></trkpt><trkpt lat="45.5891083" lon="10.7095533"><ele>243.0</ele><time>2026-04-26T07:10:45.779Z</time></trkpt><trkpt lat="45.589195" lon="10.7097933"><ele>241.66666666666669</ele><time>2026-04-26T07:10:46.778Z</time></trkpt><trkpt lat="45.5893083" lon="10.710005"><ele>240.33333333333334</ele><time>2026-04-26T07:10:47.779Z</time></trkpt><trkpt lat="45.5893933" lon="10.7101983"><ele>239.0</ele><time>2026-04-26T07:10:48.778Z</time></trkpt><trkpt lat="45.58948" lon="10.7103883"><ele>239.0</ele><time>2026-04-26T07:10:49.779Z</time></trkpt><trkpt lat="45.5895083" lon="10.710555"><ele>239.0</ele><time>2026-04-26T07:10:50.779Z</time></trkpt><trkpt lat="45.589565" lon="10.7107483"><ele>239.0</ele><time>2026-04-26T07:10:51.778Z</time></trkpt><trkpt lat="45.5895883" lon="10.7109383"><ele>239.0</ele><time>2026-04-26T07:10:52.778Z</time></trkpt><trkpt lat="45.5895767" lon="10.7111033"><ele>241.2</ele><time>2026-04-26T07:10:53.779Z</time></trkpt><trkpt lat="45.58951" lon="10.71123"><ele>243.39999999999998</ele><time>2026-04-26T07:10:54.778Z</time></trkpt><trkpt lat="45.5894583" lon="10.7113583"><ele>245.6</ele><time>2026-04-26T07:10:55.779Z</time></trkpt><trkpt lat="45.5893967" lon="10.7114833"><ele>247.8</ele><time>2026-04-26T07:10:56.778Z</time></trkpt><trkpt lat="45.589335" lon="10.7116033"><ele>250.0</ele><time>2026-04-26T07:10:57.778Z</time></trkpt><trkpt lat="45.589265" lon="10.7117167"><ele>250.0</ele><time>2026-04-26T07:10:58.778Z</time></trkpt><trkpt lat="45.58917" lon="10.7118067"><ele>250.0</ele><time>2026-04-26T07:10:59.778Z</time></trkpt><trkpt lat="45.5890967" lon="10.711845"><ele>250.0</ele><time>2026-04-26T07:11:00.778Z</time></trkpt><trkpt lat="45.589015" lon="10.7118583"><ele>250.0</ele><time>2026-04-26T07:11:01.778Z</time></trkpt><trkpt lat="45.588915" lon="10.7118683"><ele>250.0</ele><time>2026-04-26T07:11:02.779Z</time></trkpt><trkpt lat="45.58883" lon="10.7118817"><ele>250.0</ele><time>2026-04-26T07:11:03.778Z</time></trkpt><trkpt lat="45.5887517" lon="10.7119"><ele>250.0</ele><time>2026-04-26T07:11:04.778Z</time></trkpt><trkpt lat="45.5886833" lon="10.7119167"><ele>250.0</ele><time>2026-04-26T07:11:05.778Z</time></trkpt><trkpt lat="45.5887267" lon="10.7120317"><ele>250.0</ele><time>2026-04-26T07:11:08.778Z</time></trkpt><trkpt lat="45.5888667" lon="10.712115"><ele>250.0</ele><time>2026-04-26T07:11:09.778Z</time></trkpt><trkpt lat="45.58903" lon="10.7122033"><ele>255.33333333333331</ele><time>2026-04-26T07:11:10.779Z</time></trkpt><trkpt lat="45.58919" lon="10.7122467"><ele>260.6666666666667</ele><time>2026-04-26T07:11:11.779Z</time></trkpt><trkpt lat="45.58935" lon="10.712265"><ele>266.0</ele><time>2026-04-26T07:11:12.778Z</time></trkpt><trkpt lat="45.5895333" lon="10.712225"><ele>270.0</ele><time>2026-04-26T07:11:13.779Z</time></trkpt><trkpt lat="45.58969" lon="10.7121783"><ele>274.0</ele><time>2026-04-26T07:11:14.778Z</time></trkpt><trkpt lat="45.5898267" lon="10.7121117"><ele>278.0</ele><time>2026-04-26T07:11:15.778Z</time></trkpt><trkpt lat="45.5899583" lon="10.7120283"><ele>282.0</ele><time>2026-04-26T07:11:16.778Z</time></trkpt><trkpt lat="45.5900767" lon="10.7119433"><ele>281.75</ele><time>2026-04-26T07:11:17.778Z</time></trkpt><trkpt lat="45.590185" lon="10.7118617"><ele>281.5</ele><time>2026-04-26T07:11:18.778Z</time></trkpt><trkpt lat="45.590285" lon="10.7117783"><ele>281.25</ele><time>2026-04-26T07:11:19.778Z</time></trkpt><trkpt lat="45.5903817" lon="10.711695"><ele>281.0</ele><time>2026-04-26T07:11:20.778Z</time></trkpt><trkpt lat="45.5904717" lon="10.7116233"><ele>281.0</ele><time>2026-04-26T07:11:21.778Z</time></trkpt><trkpt lat="45.59056" lon="10.71156"><ele>281.0</ele><time>2026-04-26T07:11:22.778Z</time></trkpt><trkpt lat="45.5906467" lon="10.71151"><ele>281.0</ele><time>2026-04-26T07:11:23.779Z</time></trkpt><trkpt lat="45.5907383" lon="10.7115283"><ele>281.0</ele><time>2026-04-26T07:11:24.778Z</time></trkpt><trkpt lat="45.590835" lon="10.711585"><ele>281.0</ele><time>2026-04-26T07:11:25.779Z</time></trkpt><trkpt lat="45.5909433" lon="10.7116683"><ele>281.0</ele><time>2026-04-26T07:11:26.779Z</time></trkpt><trkpt lat="45.5910717" lon="10.7117683"><ele>281.0</ele><time>2026-04-26T07:11:27.779Z</time></trkpt><trkpt lat="45.591175" lon="10.71184"><ele>281.0</ele><time>2026-04-26T07:11:28.778Z</time></trkpt><trkpt lat="45.5912833" lon="10.7119017"><ele>281.0</ele><time>2026-04-26T07:11:29.778Z</time></trkpt><trkpt lat="45.59139" lon="10.71196"><ele>281.40000000000003</ele><time>2026-04-26T07:11:30.778Z</time></trkpt><trkpt lat="45.591475" lon="10.712"><ele>281.8</ele><time>2026-04-26T07:11:31.778Z</time></trkpt><trkpt lat="45.5915667" lon="10.7120333"><ele>282.20000000000005</ele><time>2026-04-26T07:11:32.779Z</time></trkpt><trkpt lat="45.5916617" lon="10.7120833"><ele>282.6</ele><time>2026-04-26T07:11:33.779Z</time></trkpt><trkpt lat="45.5917617" lon="10.712115"><ele>283.0</ele><time>2026-04-26T07:11:34.779Z</time></trkpt><trkpt lat="45.5918583" lon="10.7121433"><ele>283.0</ele><time>2026-04-26T07:11:35.779Z</time></trkpt><trkpt lat="45.59196" lon="10.7121733"><ele>283.0</ele><time>2026-04-26T07:11:36.778Z</time></trkpt><trkpt lat="45.5920983" lon="10.7121983"><ele>283.0</ele><time>2026-04-26T07:11:37.779Z</time></trkpt><trkpt lat="45.5922667" lon="10.71223"><ele>283.0</ele><time>2026-04-26T07:11:38.779Z</time></trkpt><trkpt lat="45.5924233" lon="10.71227"><ele>283.66666666666663</ele><time>2026-04-26T07:11:39.778Z</time></trkpt><trkpt lat="45.592575" lon="10.7123067"><ele>284.3333333333333</ele><time>2026-04-26T07:11:40.778Z</time></trkpt><trkpt lat="45.5927333" lon="10.7123467"><ele>285.0</ele><time>2026-04-26T07:11:41.778Z</time></trkpt><trkpt lat="45.5928867" lon="10.7123717"><ele>285.25</ele><time>2026-04-26T07:11:42.778Z</time></trkpt><trkpt lat="45.5930217" lon="10.71238"><ele>285.5</ele><time>2026-04-26T07:11:43.778Z</time></trkpt><trkpt lat="45.5931583" lon="10.712405"><ele>285.75</ele><time>2026-04-26T07:11:44.779Z</time></trkpt><trkpt lat="45.5932833" lon="10.7124233"><ele>286.0</ele><time>2026-04-26T07:11:45.779Z</time></trkpt><trkpt lat="45.5934183" lon="10.7124417"><ele>286.0</ele><time>2026-04-26T07:11:46.778Z</time></trkpt><trkpt lat="45.5935467" lon="10.7124667"><ele>286.0</ele><time>2026-04-26T07:11:47.778Z</time></trkpt><trkpt lat="45.5936667" lon="10.7125017"><ele>286.0</ele><time>2026-04-26T07:11:48.778Z</time></trkpt><trkpt lat="45.5937767" lon="10.7125467"><ele>286.0</ele><time>2026-04-26T07:11:49.778Z</time></trkpt><trkpt lat="45.593865" lon="10.7125983"><ele>288.6</ele><time>2026-04-26T07:11:50.778Z</time></trkpt><trkpt lat="45.5939317" lon="10.71268"><ele>291.20000000000005</ele><time>2026-04-26T07:11:51.778Z</time></trkpt><trkpt lat="45.5939933" lon="10.7127983"><ele>293.79999999999995</ele><time>2026-04-26T07:11:52.778Z</time></trkpt><trkpt lat="45.5940217" lon="10.7129217"><ele>296.4</ele><time>2026-04-26T07:11:53.778Z</time></trkpt><trkpt lat="45.5940583" lon="10.7130567"><ele>299.0</ele><time>2026-04-26T07:11:54.778Z</time></trkpt><trkpt lat="45.594105" lon="10.71318"><ele>299.2</ele><time>2026-04-26T07:11:55.777Z</time></trkpt><trkpt lat="45.5941517" lon="10.7132983"><ele>299.4</ele><time>2026-04-26T07:11:56.777Z</time></trkpt><trkpt lat="45.59421" lon="10.7133917"><ele>299.6</ele><time>2026-04-26T07:11:57.778Z</time></trkpt><trkpt lat="45.5942567" lon="10.7134717"><ele>299.8</ele><time>2026-04-26T07:11:58.777Z</time></trkpt><trkpt lat="45.5943267" lon="10.7135883"><ele>300.0</ele><time>2026-04-26T07:12:00.777Z</time></trkpt><trkpt lat="45.59435" lon="10.7137133"><ele>300.0</ele><time>2026-04-26T07:12:03.778Z</time></trkpt><trkpt lat="45.5943133" lon="10.7137867"><ele>300.0</ele><time>2026-04-26T07:12:05.777Z</time></trkpt><trkpt lat="45.5942133" lon="10.7138567"><ele>300.0</ele><time>2026-04-26T07:12:07.778Z</time></trkpt><trkpt lat="45.5941333" lon="10.71392"><ele>300.0</ele><time>2026-04-26T07:12:09.778Z</time></trkpt><trkpt lat="45.5940467" lon="10.7140167"><ele>300.0</ele><time>2026-04-26T07:12:11.777Z</time></trkpt><trkpt lat="45.5940067" lon="10.7141333"><ele>300.0</ele><time>2026-04-26T07:12:13.778Z</time></trkpt><trkpt lat="45.5939767" lon="10.7143"><ele>300.0</ele><time>2026-04-26T07:12:15.777Z</time></trkpt><trkpt lat="45.59396" lon="10.7144517"><ele>300.0</ele><time>2026-04-26T07:12:17.778Z</time></trkpt><trkpt lat="45.5939467" lon="10.7145883"><ele>300.0</ele><time>2026-04-26T07:12:19.777Z</time></trkpt><trkpt lat="45.5939283" lon="10.7147233"><ele>300.0</ele><time>2026-04-26T07:12:21.778Z</time></trkpt><trkpt lat="45.5939017" lon="10.714875"><ele>299.5</ele><time>2026-04-26T07:12:23.777Z</time></trkpt><trkpt lat="45.5938917" lon="10.7149717"><ele>299.0</ele><time>2026-04-26T07:12:24.777Z</time></trkpt><trkpt lat="45.5938833" lon="10.7150783"><ele>298.5</ele><time>2026-04-26T07:12:25.777Z</time></trkpt><trkpt lat="45.59387" lon="10.7151733"><ele>298.0</ele><time>2026-04-26T07:12:26.777Z</time></trkpt><trkpt lat="45.59385" lon="10.71526"><ele>297.5</ele><time>2026-04-26T07:12:27.777Z</time></trkpt><trkpt lat="45.5938233" lon="10.71535"><ele>297.0</ele><time>2026-04-26T07:12:28.777Z</time></trkpt><trkpt lat="45.5937717" lon="10.7154967"><ele>296.4</ele><time>2026-04-26T07:12:30.777Z</time></trkpt><trkpt lat="45.5937183" lon="10.715635"><ele>295.79999999999995</ele><time>2026-04-26T07:12:32.777Z</time></trkpt><trkpt lat="45.5936683" lon="10.7157567"><ele>295.2</ele><time>2026-04-26T07:12:34.778Z</time></trkpt><trkpt lat="45.5936283" lon="10.7159033"><ele>294.59999999999997</ele><time>2026-04-26T07:12:36.778Z</time></trkpt><trkpt lat="45.59359" lon="10.7159867"><ele>294.0</ele><time>2026-04-26T07:12:38.777Z</time></trkpt><trkpt lat="45.5935383" lon="10.7160583"><ele>292.0</ele><time>2026-04-26T07:12:40.777Z</time></trkpt><trkpt lat="45.5934633" lon="10.7161083"><ele>290.0</ele><time>2026-04-26T07:12:43.777Z</time></trkpt><trkpt lat="45.593425" lon="10.71619"><ele>288.0</ele><time>2026-04-26T07:12:46.777Z</time></trkpt><trkpt lat="45.5933917" lon="10.7163217"><ele>286.0</ele><time>2026-04-26T07:12:49.777Z</time></trkpt><trkpt lat="45.5933383" lon="10.7164517"><ele>284.0</ele><time>2026-04-26T07:12:51.777Z</time></trkpt><trkpt lat="45.5933017" lon="10.7165333"><ele>282.0</ele><time>2026-04-26T07:12:52.777Z</time></trkpt><trkpt lat="45.593215" lon="10.71665"><ele>282.0</ele><time>2026-04-26T07:12:54.777Z</time></trkpt><trkpt lat="45.5931567" lon="10.71674"><ele>282.0</ele><time>2026-04-26T07:12:56.777Z</time></trkpt><trkpt lat="45.5930683" lon="10.716835"><ele>282.0</ele><time>2026-04-26T07:12:58.777Z</time></trkpt><trkpt lat="45.592965" lon="10.716915"><ele>282.0</ele><time>2026-04-26T07:13:00.777Z</time></trkpt><trkpt lat="45.59283" lon="10.7169967"><ele>279.8333333333333</ele><time>2026-04-26T07:13:02.777Z</time></trkpt><trkpt lat="45.592745" lon="10.7170217"><ele>277.6666666666667</ele><time>2026-04-26T07:13:03.777Z</time></trkpt><trkpt lat="45.5926633" lon="10.717035"><ele>275.5</ele><time>2026-04-26T07:13:04.778Z</time></trkpt><trkpt lat="45.59259" lon="10.7170367"><ele>273.33333333333337</ele><time>2026-04-26T07:13:05.778Z</time></trkpt><trkpt lat="45.59252" lon="10.7170283"><ele>271.1666666666667</ele><time>2026-04-26T07:13:06.777Z</time></trkpt><trkpt lat="45.59243" lon="10.7170167"><ele>269.0</ele><time>2026-04-26T07:13:08.777Z</time></trkpt><trkpt lat="45.5923633" lon="10.7170567"><ele>269.0</ele><time>2026-04-26T07:13:10.777Z</time></trkpt><trkpt lat="45.59229" lon="10.717235"><ele>269.0</ele><time>2026-04-26T07:13:12.777Z</time></trkpt><trkpt lat="45.5922333" lon="10.7173667"><ele>269.0</ele><time>2026-04-26T07:13:13.778Z</time></trkpt><trkpt lat="45.5921533" lon="10.7175033"><ele>269.0</ele><time>2026-04-26T07:13:14.777Z</time></trkpt><trkpt lat="45.5920683" lon="10.7176217"><ele>268.2</ele><time>2026-04-26T07:13:15.778Z</time></trkpt><trkpt lat="45.5919717" lon="10.717725"><ele>267.4</ele><time>2026-04-26T07:13:16.777Z</time></trkpt><trkpt lat="45.591885" lon="10.7178133"><ele>266.6</ele><time>2026-04-26T07:13:17.777Z</time></trkpt><trkpt lat="45.5918" lon="10.7178783"><ele>265.8</ele><time>2026-04-26T07:13:18.778Z</time></trkpt><trkpt lat="45.5917083" lon="10.7179117"><ele>265.0</ele><time>2026-04-26T07:13:19.777Z</time></trkpt><trkpt lat="45.5916183" lon="10.717945"><ele>264.5</ele><time>2026-04-26T07:13:20.778Z</time></trkpt><trkpt lat="45.5915383" lon="10.7179967"><ele>264.0</ele><time>2026-04-26T07:13:21.778Z</time></trkpt><trkpt lat="45.5914667" lon="10.718065"><ele>263.5</ele><time>2026-04-26T07:13:22.777Z</time></trkpt><trkpt lat="45.5914033" lon="10.7181533"><ele>263.0</ele><time>2026-04-26T07:13:23.778Z</time></trkpt><trkpt lat="45.591335" lon="10.718245"><ele>262.5</ele><time>2026-04-26T07:13:24.777Z</time></trkpt><trkpt lat="45.5912783" lon="10.7183367"><ele>262.0</ele><time>2026-04-26T07:13:25.777Z</time></trkpt><trkpt lat="45.59121" lon="10.7184167"><ele>262.16666666666663</ele><time>2026-04-26T07:13:26.777Z</time></trkpt><trkpt lat="45.5911583" lon="10.7184933"><ele>262.3333333333333</ele><time>2026-04-26T07:13:27.778Z</time></trkpt><trkpt lat="45.5910917" lon="10.7185467"><ele>262.5</ele><time>2026-04-26T07:13:28.777Z</time></trkpt><trkpt lat="45.59103" lon="10.71858"><ele>262.6666666666667</ele><time>2026-04-26T07:13:29.777Z</time></trkpt><trkpt lat="45.5909367" lon="10.7186183"><ele>262.83333333333337</ele><time>2026-04-26T07:13:31.778Z</time></trkpt><trkpt lat="45.5908583" lon="10.7186617"><ele>263.0</ele><time>2026-04-26T07:13:33.777Z</time></trkpt><trkpt lat="45.5907783" lon="10.7187267"><ele>262.6666666666667</ele><time>2026-04-26T07:13:36.777Z</time></trkpt><trkpt lat="45.5907533" lon="10.718825"><ele>262.33333333333337</ele><time>2026-04-26T07:13:39.778Z</time></trkpt><trkpt lat="45.5907983" lon="10.71891"><ele>262.0</ele><time>2026-04-26T07:13:41.778Z</time></trkpt><trkpt lat="45.5909017" lon="10.7190183"><ele>261.6666666666667</ele><time>2026-04-26T07:13:43.777Z</time></trkpt><trkpt lat="45.59097" lon="10.71909"><ele>261.3333333333333</ele><time>2026-04-26T07:13:44.778Z</time></trkpt><trkpt lat="45.5910433" lon="10.7191567"><ele>261.0</ele><time>2026-04-26T07:13:45.777Z</time></trkpt><trkpt lat="45.5910983" lon="10.71923"><ele>261.0</ele><time>2026-04-26T07:13:46.778Z</time></trkpt><trkpt lat="45.591155" lon="10.71932"><ele>261.0</ele><time>2026-04-26T07:13:47.777Z</time></trkpt><trkpt lat="45.5912117" lon="10.719405"><ele>261.0</ele><time>2026-04-26T07:13:48.777Z</time></trkpt><trkpt lat="45.5912817" lon="10.7194883"><ele>261.0</ele><time>2026-04-26T07:13:49.777Z</time></trkpt><trkpt lat="45.591345" lon="10.7195683"><ele>261.0</ele><time>2026-04-26T07:13:50.777Z</time></trkpt><trkpt lat="45.5914067" lon="10.719645"><ele>261.0</ele><time>2026-04-26T07:13:51.778Z</time></trkpt><trkpt lat="45.5914867" lon="10.7197367"><ele>261.0</ele><time>2026-04-26T07:13:52.777Z</time></trkpt><trkpt lat="45.59155" lon="10.7198183"><ele>261.0</ele><time>2026-04-26T07:13:53.778Z</time></trkpt><trkpt lat="45.591615" lon="10.7199"><ele>261.0</ele><time>2026-04-26T07:13:54.778Z</time></trkpt><trkpt lat="45.5917233" lon="10.7200033"><ele>261.0</ele><time>2026-04-26T07:13:55.777Z</time></trkpt><trkpt lat="45.5918267" lon="10.7201083"><ele>261.0</ele><time>2026-04-26T07:13:56.777Z</time></trkpt><trkpt lat="45.5918817" lon="10.72019"><ele>261.0</ele><time>2026-04-26T07:13:57.777Z</time></trkpt><trkpt lat="45.59194" lon="10.7202683"><ele>261.0</ele><time>2026-04-26T07:13:58.777Z</time></trkpt><trkpt lat="45.5919983" lon="10.720345"><ele>261.0</ele><time>2026-04-26T07:13:59.777Z</time></trkpt><trkpt lat="45.5920583" lon="10.720425"><ele>261.0</ele><time>2026-04-26T07:14:00.777Z</time></trkpt><trkpt lat="45.592125" lon="10.7205017"><ele>261.0</ele><time>2026-04-26T07:14:01.778Z</time></trkpt><trkpt lat="45.5921883" lon="10.7205767"><ele>261.0</ele><time>2026-04-26T07:14:02.777Z</time></trkpt><trkpt lat="45.592235" lon="10.7206383"><ele>261.3333333333333</ele><time>2026-04-26T07:14:03.778Z</time></trkpt><trkpt lat="45.5923017" lon="10.7207017"><ele>261.6666666666667</ele><time>2026-04-26T07:14:04.778Z</time></trkpt><trkpt lat="45.5923667" lon="10.7207517"><ele>262.0</ele><time>2026-04-26T07:14:05.777Z</time></trkpt><trkpt lat="45.5924417" lon="10.7207967"><ele>262.33333333333337</ele><time>2026-04-26T07:14:06.777Z</time></trkpt><trkpt lat="45.59252" lon="10.7208383"><ele>262.6666666666667</ele><time>2026-04-26T07:14:07.778Z</time></trkpt><trkpt lat="45.5925983" lon="10.7208883"><ele>263.0</ele><time>2026-04-26T07:14:08.778Z</time></trkpt><trkpt lat="45.5926717" lon="10.720945"><ele>263.0</ele><time>2026-04-26T07:14:09.778Z</time></trkpt><trkpt lat="45.5927417" lon="10.7210117"><ele>263.0</ele><time>2026-04-26T07:14:10.777Z</time></trkpt><trkpt lat="45.59281" lon="10.7210933"><ele>263.0</ele><time>2026-04-26T07:14:11.777Z</time></trkpt><trkpt lat="45.592875" lon="10.7211967"><ele>263.0</ele><time>2026-04-26T07:14:12.777Z</time></trkpt><trkpt lat="45.5929333" lon="10.7212967"><ele>263.0</ele><time>2026-04-26T07:14:13.777Z</time></trkpt><trkpt lat="45.5930167" lon="10.7214333"><ele>262.8</ele><time>2026-04-26T07:14:14.778Z</time></trkpt><trkpt lat="45.593065" lon="10.7215383"><ele>262.6</ele><time>2026-04-26T07:14:15.777Z</time></trkpt><trkpt lat="45.5931167" lon="10.7216583"><ele>262.4</ele><time>2026-04-26T07:14:16.777Z</time></trkpt><trkpt lat="45.5931683" lon="10.7217817"><ele>262.2</ele><time>2026-04-26T07:14:17.777Z</time></trkpt><trkpt lat="45.5932117" lon="10.72189"><ele>262.0</ele><time>2026-04-26T07:14:18.777Z</time></trkpt><trkpt lat="45.5932733" lon="10.7220083"><ele>262.0</ele><time>2026-04-26T07:14:19.777Z</time></trkpt><trkpt lat="45.593335" lon="10.72213"><ele>262.0</ele><time>2026-04-26T07:14:20.777Z</time></trkpt><trkpt lat="45.5933983" lon="10.7222533"><ele>262.0</ele><time>2026-04-26T07:14:21.777Z</time></trkpt><trkpt lat="45.59346" lon="10.7223717"><ele>262.0</ele><time>2026-04-26T07:14:22.778Z</time></trkpt><trkpt lat="45.5935317" lon="10.7224917"><ele>262.0</ele><time>2026-04-26T07:14:23.777Z</time></trkpt><trkpt lat="45.5935917" lon="10.7226017"><ele>262.0</ele><time>2026-04-26T07:14:24.778Z</time></trkpt><trkpt lat="45.5936417" lon="10.7227183"><ele>262.0</ele><time>2026-04-26T07:14:25.778Z</time></trkpt><trkpt lat="45.5937017" lon="10.722845"><ele>262.0</ele><time>2026-04-26T07:14:26.777Z</time></trkpt><trkpt lat="45.5937733" lon="10.7229833"><ele>262.0</ele><time>2026-04-26T07:14:27.778Z</time></trkpt><trkpt lat="45.5938417" lon="10.72312"><ele>262.0</ele><time>2026-04-26T07:14:28.777Z</time></trkpt><trkpt lat="45.593925" lon="10.72326"><ele>261.2</ele><time>2026-04-26T07:14:29.777Z</time></trkpt><trkpt lat="45.5940067" lon="10.72339"><ele>260.4</ele><time>2026-04-26T07:14:30.778Z</time></trkpt><trkpt lat="45.59407" lon="10.7234867"><ele>259.6</ele><time>2026-04-26T07:14:31.777Z</time></trkpt><trkpt lat="45.59415" lon="10.72358"><ele>258.8</ele><time>2026-04-26T07:14:32.777Z</time></trkpt><trkpt lat="45.5942217" lon="10.7236667"><ele>258.0</ele><time>2026-04-26T07:14:33.777Z</time></trkpt><trkpt lat="45.594295" lon="10.723735"><ele>258.0</ele><time>2026-04-26T07:14:34.777Z</time></trkpt><trkpt lat="45.5943717" lon="10.72379"><ele>258.0</ele><time>2026-04-26T07:14:35.777Z</time></trkpt><trkpt lat="45.594445" lon="10.723835"><ele>258.0</ele><time>2026-04-26T07:14:36.777Z</time></trkpt><trkpt lat="45.5945117" lon="10.723865"><ele>258.0</ele><time>2026-04-26T07:14:37.778Z</time></trkpt><trkpt lat="45.5945733" lon="10.72389"><ele>258.0</ele><time>2026-04-26T07:14:38.777Z</time></trkpt><trkpt lat="45.59467" lon="10.7239167"><ele>258.0</ele><time>2026-04-26T07:14:40.777Z</time></trkpt><trkpt lat="45.594745" lon="10.72389"><ele>258.1666666666667</ele><time>2026-04-26T07:14:42.778Z</time></trkpt><trkpt lat="45.594825" lon="10.7238367"><ele>258.3333333333333</ele><time>2026-04-26T07:14:44.777Z</time></trkpt><trkpt lat="45.594925" lon="10.7238317"><ele>258.5</ele><time>2026-04-26T07:14:47.777Z</time></trkpt><trkpt lat="45.5950517" lon="10.7238433"><ele>258.66666666666663</ele><time>2026-04-26T07:14:49.777Z</time></trkpt><trkpt lat="45.5951167" lon="10.723855"><ele>258.8333333333333</ele><time>2026-04-26T07:14:50.777Z</time></trkpt><trkpt lat="45.5951833" lon="10.7238717"><ele>259.0</ele><time>2026-04-26T07:14:51.777Z</time></trkpt><trkpt lat="45.595255" lon="10.7238933"><ele>258.8333333333333</ele><time>2026-04-26T07:14:52.778Z</time></trkpt><trkpt lat="45.59535" lon="10.723945"><ele>258.66666666666663</ele><time>2026-04-26T07:14:53.778Z</time></trkpt><trkpt lat="45.59542" lon="10.7239767"><ele>258.5</ele><time>2026-04-26T07:14:54.777Z</time></trkpt><trkpt lat="45.5954933" lon="10.724005"><ele>258.3333333333333</ele><time>2026-04-26T07:14:55.777Z</time></trkpt><trkpt lat="45.5955833" lon="10.72404"><ele>258.1666666666667</ele><time>2026-04-26T07:14:56.777Z</time></trkpt><trkpt lat="45.5956467" lon="10.7240717"><ele>258.0</ele><time>2026-04-26T07:14:57.777Z</time></trkpt><trkpt lat="45.59572" lon="10.7241033"><ele>258.0</ele><time>2026-04-26T07:14:58.778Z</time></trkpt><trkpt lat="45.5957817" lon="10.7241367"><ele>258.0</ele><time>2026-04-26T07:14:59.777Z</time></trkpt><trkpt lat="45.5958583" lon="10.7241867"><ele>258.0</ele><time>2026-04-26T07:15:00.777Z</time></trkpt><trkpt lat="45.5959317" lon="10.7242417"><ele>258.0</ele><time>2026-04-26T07:15:01.778Z</time></trkpt><trkpt lat="45.5960183" lon="10.7242933"><ele>258.0</ele><time>2026-04-26T07:15:02.777Z</time></trkpt><trkpt lat="45.5961033" lon="10.7243517"><ele>258.0</ele><time>2026-04-26T07:15:03.777Z</time></trkpt><trkpt lat="45.5961867" lon="10.724405"><ele>258.3333333333333</ele><time>2026-04-26T07:15:04.778Z</time></trkpt><trkpt lat="45.5962733" lon="10.7244667"><ele>258.6666666666667</ele><time>2026-04-26T07:15:05.778Z</time></trkpt><trkpt lat="45.5963517" lon="10.72453"><ele>259.0</ele><time>2026-04-26T07:15:06.777Z</time></trkpt><trkpt lat="45.596435" lon="10.72458"><ele>259.33333333333337</ele><time>2026-04-26T07:15:07.777Z</time></trkpt><trkpt lat="45.596505" lon="10.7246333"><ele>259.6666666666667</ele><time>2026-04-26T07:15:08.777Z</time></trkpt><trkpt lat="45.5965667" lon="10.72468"><ele>260.0</ele><time>2026-04-26T07:15:09.777Z</time></trkpt><trkpt lat="45.59663" lon="10.7247217"><ele>260.0</ele><time>2026-04-26T07:15:10.777Z</time></trkpt><trkpt lat="45.59674" lon="10.72478"><ele>260.0</ele><time>2026-04-26T07:15:12.777Z</time></trkpt><trkpt lat="45.596815" lon="10.7248033"><ele>260.0</ele><time>2026-04-26T07:15:14.778Z</time></trkpt><trkpt lat="45.5969283" lon="10.7248233"><ele>260.0</ele><time>2026-04-26T07:15:27.776Z</time></trkpt><trkpt lat="45.5970033" lon="10.7248417"><ele>260.0</ele><time>2026-04-26T07:15:29.776Z</time></trkpt><trkpt lat="45.5970867" lon="10.724845"><ele>260.2</ele><time>2026-04-26T07:15:31.777Z</time></trkpt><trkpt lat="45.59716" lon="10.7248183"><ele>260.4</ele><time>2026-04-26T07:15:33.776Z</time></trkpt><trkpt lat="45.5972517" lon="10.72477"><ele>260.6</ele><time>2026-04-26T07:15:35.776Z</time></trkpt><trkpt lat="45.59732" lon="10.724675"><ele>260.8</ele><time>2026-04-26T07:15:37.777Z</time></trkpt><trkpt lat="45.5973817" lon="10.7245567"><ele>261.0</ele><time>2026-04-26T07:15:39.776Z</time></trkpt><trkpt lat="45.5974717" lon="10.7244783"><ele>261.0</ele><time>2026-04-26T07:15:41.776Z</time></trkpt><trkpt lat="45.59756" lon="10.7244167"><ele>261.0</ele><time>2026-04-26T07:15:55.777Z</time></trkpt><trkpt lat="45.5976067" lon="10.72451"><ele>261.0</ele><time>2026-04-26T07:15:58.776Z</time></trkpt><trkpt lat="45.5976833" lon="10.7246017"><ele>261.0</ele><time>2026-04-26T07:16:00.777Z</time></trkpt><trkpt lat="45.59779" lon="10.7246783"><ele>261.0</ele><time>2026-04-26T07:16:02.776Z</time></trkpt><trkpt lat="45.5979267" lon="10.7247167"><ele>261.1666666666667</ele><time>2026-04-26T07:16:04.776Z</time></trkpt><trkpt lat="45.5979917" lon="10.7247267"><ele>261.3333333333333</ele><time>2026-04-26T07:16:05.776Z</time></trkpt><trkpt lat="45.5981017" lon="10.7247333"><ele>261.5</ele><time>2026-04-26T07:16:07.776Z</time></trkpt><trkpt lat="45.59823" lon="10.7247217"><ele>261.66666666666663</ele><time>2026-04-26T07:16:09.776Z</time></trkpt><trkpt lat="45.598305" lon="10.724705"><ele>261.8333333333333</ele><time>2026-04-26T07:16:10.776Z</time></trkpt><trkpt lat="45.5983667" lon="10.7246833"><ele>262.0</ele><time>2026-04-26T07:16:11.777Z</time></trkpt><trkpt lat="45.598495" lon="10.7246533"><ele>262.0</ele><time>2026-04-26T07:16:13.777Z</time></trkpt><trkpt lat="45.5985633" lon="10.7246333"><ele>262.0</ele><time>2026-04-26T07:16:14.776Z</time></trkpt><trkpt lat="45.5986333" lon="10.7246133"><ele>262.0</ele><time>2026-04-26T07:16:15.777Z</time></trkpt><trkpt lat="45.5987033" lon="10.7245817"><ele>262.0</ele><time>2026-04-26T07:16:16.776Z</time></trkpt><trkpt lat="45.5987783" lon="10.72454"><ele>262.0</ele><time>2026-04-26T07:16:17.776Z</time></trkpt><trkpt lat="45.5988583" lon="10.7244967"><ele>262.0</ele><time>2026-04-26T07:16:18.777Z</time></trkpt><trkpt lat="45.59894" lon="10.7244483"><ele>262.8333333333333</ele><time>2026-04-26T07:16:19.777Z</time></trkpt><trkpt lat="45.5990217" lon="10.7244083"><ele>263.66666666666663</ele><time>2026-04-26T07:16:20.776Z</time></trkpt><trkpt lat="45.5991083" lon="10.7243683"><ele>264.5</ele><time>2026-04-26T07:16:21.776Z</time></trkpt><trkpt lat="45.5991917" lon="10.72433"><ele>265.3333333333333</ele><time>2026-04-26T07:16:22.777Z</time></trkpt><trkpt lat="45.5992683" lon="10.7242933"><ele>266.1666666666667</ele><time>2026-04-26T07:16:23.776Z</time></trkpt><trkpt lat="45.5993483" lon="10.7242567"><ele>267.0</ele><time>2026-04-26T07:16:24.776Z</time></trkpt><trkpt lat="45.5994267" lon="10.724215"><ele>267.1666666666667</ele><time>2026-04-26T07:16:25.777Z</time></trkpt><trkpt lat="45.5995017" lon="10.724175"><ele>267.3333333333333</ele><time>2026-04-26T07:16:26.776Z</time></trkpt><trkpt lat="45.599585" lon="10.7241367"><ele>267.5</ele><time>2026-04-26T07:16:27.776Z</time></trkpt><trkpt lat="45.59967" lon="10.724095"><ele>267.66666666666663</ele><time>2026-04-26T07:16:28.777Z</time></trkpt><trkpt lat="45.5997567" lon="10.7240583"><ele>267.8333333333333</ele><time>2026-04-26T07:16:29.776Z</time></trkpt><trkpt lat="45.5998367" lon="10.724025"><ele>268.0</ele><time>2026-04-26T07:16:30.777Z</time></trkpt><trkpt lat="45.599915" lon="10.7239767"><ele>268.0</ele><time>2026-04-26T07:16:31.776Z</time></trkpt><trkpt lat="45.5999917" lon="10.7239217"><ele>268.0</ele><time>2026-04-26T07:16:32.776Z</time></trkpt><trkpt lat="45.600065" lon="10.723865"><ele>268.0</ele><time>2026-04-26T07:16:33.776Z</time></trkpt><trkpt lat="45.6001317" lon="10.723805"><ele>268.0</ele><time>2026-04-26T07:16:34.776Z</time></trkpt><trkpt lat="45.600205" lon="10.72375"><ele>268.0</ele><time>2026-04-26T07:16:35.777Z</time></trkpt><trkpt lat="45.600285" lon="10.7236933"><ele>268.0</ele><time>2026-04-26T07:16:36.776Z</time></trkpt><trkpt lat="45.60035" lon="10.7236533"><ele>268.8333333333333</ele><time>2026-04-26T07:16:37.776Z</time></trkpt><trkpt lat="45.6004717" lon="10.7236233"><ele>269.66666666666663</ele><time>2026-04-26T07:16:39.776Z</time></trkpt><trkpt lat="45.60054" lon="10.72363"><ele>270.5</ele><time>2026-04-26T07:16:40.777Z</time></trkpt><trkpt lat="45.60062" lon="10.7236367"><ele>271.3333333333333</ele><time>2026-04-26T07:16:41.776Z</time></trkpt><trkpt lat="45.600695" lon="10.7236383"><ele>272.1666666666667</ele><time>2026-04-26T07:16:42.776Z</time></trkpt><trkpt lat="45.6007617" lon="10.72363"><ele>273.0</ele><time>2026-04-26T07:16:43.776Z</time></trkpt><trkpt lat="45.60083" lon="10.7235983"><ele>273.0</ele><time>2026-04-26T07:16:44.777Z</time></trkpt><trkpt lat="45.6009417" lon="10.7235817"><ele>273.0</ele><time>2026-04-26T07:16:45.777Z</time></trkpt><trkpt lat="45.601035" lon="10.7235433"><ele>273.0</ele><time>2026-04-26T07:16:46.777Z</time></trkpt><trkpt lat="45.6011117" lon="10.723475"><ele>273.0</ele><time>2026-04-26T07:16:47.776Z</time></trkpt><trkpt lat="45.601195" lon="10.7234067"><ele>273.0</ele><time>2026-04-26T07:16:48.776Z</time></trkpt><trkpt lat="45.60126" lon="10.7233317"><ele>273.8333333333333</ele><time>2026-04-26T07:16:49.777Z</time></trkpt><trkpt lat="45.601325" lon="10.7232533"><ele>274.6666666666667</ele><time>2026-04-26T07:16:50.777Z</time></trkpt><trkpt lat="45.6013683" lon="10.723155"><ele>275.5</ele><time>2026-04-26T07:16:51.776Z</time></trkpt><trkpt lat="45.60143" lon="10.7230783"><ele>276.33333333333337</ele><time>2026-04-26T07:16:52.777Z</time></trkpt><trkpt lat="45.6014983" lon="10.7229967"><ele>277.1666666666667</ele><time>2026-04-26T07:16:53.777Z</time></trkpt><trkpt lat="45.6015567" lon="10.7229233"><ele>278.0</ele><time>2026-04-26T07:16:54.776Z</time></trkpt><trkpt lat="45.6016233" lon="10.7228533"><ele>278.0</ele><time>2026-04-26T07:16:55.777Z</time></trkpt><trkpt lat="45.6017017" lon="10.722805"><ele>278.0</ele><time>2026-04-26T07:16:56.776Z</time></trkpt><trkpt lat="45.6017667" lon="10.722775"><ele>278.0</ele><time>2026-04-26T07:16:57.776Z</time></trkpt><trkpt lat="45.6018317" lon="10.72275"><ele>278.0</ele><time>2026-04-26T07:16:58.776Z</time></trkpt><trkpt lat="45.6019017" lon="10.722725"><ele>278.0</ele><time>2026-04-26T07:16:59.777Z</time></trkpt><trkpt lat="45.60198" lon="10.7227033"><ele>278.0</ele><time>2026-04-26T07:17:00.776Z</time></trkpt><trkpt lat="45.602055" lon="10.722685"><ele>278.0</ele><time>2026-04-26T07:17:01.776Z</time></trkpt><trkpt lat="45.602135" lon="10.722665"><ele>280.1666666666667</ele><time>2026-04-26T07:17:02.776Z</time></trkpt><trkpt lat="45.6022333" lon="10.7226533"><ele>282.33333333333337</ele><time>2026-04-26T07:17:03.777Z</time></trkpt><trkpt lat="45.6023183" lon="10.7226383"><ele>284.5</ele><time>2026-04-26T07:17:04.776Z</time></trkpt><trkpt lat="45.6023917" lon="10.7225933"><ele>286.6666666666667</ele><time>2026-04-26T07:17:05.776Z</time></trkpt><trkpt lat="45.6024433" lon="10.72254"><ele>288.8333333333333</ele><time>2026-04-26T07:17:06.776Z</time></trkpt><trkpt lat="45.6023917" lon="10.7224317"><ele>291.0</ele><time>2026-04-26T07:17:07.777Z</time></trkpt><trkpt lat="45.6023133" lon="10.7223483"><ele>291.0</ele><time>2026-04-26T07:17:08.776Z</time></trkpt><trkpt lat="45.6022367" lon="10.7223067"><ele>291.0</ele><time>2026-04-26T07:17:09.776Z</time></trkpt><trkpt lat="45.6021317" lon="10.72228"><ele>291.0</ele><time>2026-04-26T07:17:10.777Z</time></trkpt><trkpt lat="45.6020133" lon="10.72225"><ele>291.0</ele><time>2026-04-26T07:17:11.776Z</time></trkpt><trkpt lat="45.6018867" lon="10.7221717"><ele>291.0</ele><time>2026-04-26T07:17:12.777Z</time></trkpt><trkpt lat="45.60178" lon="10.722045"><ele>290.25</ele><time>2026-04-26T07:17:13.776Z</time></trkpt><trkpt lat="45.6016967" lon="10.721885"><ele>289.5</ele><time>2026-04-26T07:17:14.776Z</time></trkpt><trkpt lat="45.6016233" lon="10.7217333"><ele>288.75</ele><time>2026-04-26T07:17:15.777Z</time></trkpt><trkpt lat="45.6015617" lon="10.7215933"><ele>288.0</ele><time>2026-04-26T07:17:16.777Z</time></trkpt><trkpt lat="45.60149" lon="10.7214517"><ele>288.0</ele><time>2026-04-26T07:17:17.776Z</time></trkpt><trkpt lat="45.601415" lon="10.7213133"><ele>288.0</ele><time>2026-04-26T07:17:18.777Z</time></trkpt><trkpt lat="45.6013383" lon="10.7211683"><ele>288.0</ele><time>2026-04-26T07:17:19.776Z</time></trkpt><trkpt lat="45.6012467" lon="10.721045"><ele>288.0</ele><time>2026-04-26T07:17:20.777Z</time></trkpt><trkpt lat="45.601145" lon="10.7209217"><ele>287.0</ele><time>2026-04-26T07:17:21.776Z</time></trkpt><trkpt lat="45.601035" lon="10.7208117"><ele>286.0</ele><time>2026-04-26T07:17:22.776Z</time></trkpt><trkpt lat="45.6009117" lon="10.72073"><ele>285.0</ele><time>2026-04-26T07:17:23.777Z</time></trkpt><trkpt lat="45.600765" lon="10.7206467"><ele>284.0</ele><time>2026-04-26T07:17:24.776Z</time></trkpt><trkpt lat="45.6006333" lon="10.7205567"><ele>284.0</ele><time>2026-04-26T07:17:25.776Z</time></trkpt><trkpt lat="45.6004983" lon="10.72047"><ele>284.0</ele><time>2026-04-26T07:17:26.776Z</time></trkpt><trkpt lat="45.60037" lon="10.72038"><ele>284.0</ele><time>2026-04-26T07:17:27.776Z</time></trkpt><trkpt lat="45.600255" lon="10.7202917"><ele>284.0</ele><time>2026-04-26T07:17:28.776Z</time></trkpt><trkpt lat="45.60015" lon="10.7201933"><ele>284.0</ele><time>2026-04-26T07:17:29.777Z</time></trkpt><trkpt lat="45.60006" lon="10.72009"><ele>284.0</ele><time>2026-04-26T07:17:30.776Z</time></trkpt><trkpt lat="45.599965" lon="10.7199583"><ele>284.0</ele><time>2026-04-26T07:17:31.776Z</time></trkpt><trkpt lat="45.5998783" lon="10.719835"><ele>284.0</ele><time>2026-04-26T07:17:32.776Z</time></trkpt><trkpt lat="45.599795" lon="10.7196983"><ele>284.0</ele><time>2026-04-26T07:17:33.776Z</time></trkpt><trkpt lat="45.5997283" lon="10.7195483"><ele>284.0</ele><time>2026-04-26T07:17:34.776Z</time></trkpt><trkpt lat="45.5996633" lon="10.7194067"><ele>284.0</ele><time>2026-04-26T07:17:35.776Z</time></trkpt><trkpt lat="45.5996017" lon="10.719265"><ele>284.0</ele><time>2026-04-26T07:17:36.777Z</time></trkpt><trkpt lat="45.5995517" lon="10.7191417"><ele>284.5</ele><time>2026-04-26T07:17:37.776Z</time></trkpt><trkpt lat="45.5995233" lon="10.7190433"><ele>285.0</ele><time>2026-04-26T07:17:38.776Z</time></trkpt><trkpt lat="45.5994967" lon="10.7189383"><ele>285.5</ele><time>2026-04-26T07:17:39.776Z</time></trkpt><trkpt lat="45.5995033" lon="10.7188467"><ele>286.0</ele><time>2026-04-26T07:17:40.777Z</time></trkpt><trkpt lat="45.5995417" lon="10.7187667"><ele>286.5</ele><time>2026-04-26T07:17:41.776Z</time></trkpt><trkpt lat="45.599595" lon="10.7186867"><ele>287.0</ele><time>2026-04-26T07:17:42.777Z</time></trkpt><trkpt lat="45.599645" lon="10.7185817"><ele>286.6</ele><time>2026-04-26T07:17:43.777Z</time></trkpt><trkpt lat="45.599705" lon="10.71848"><ele>286.2</ele><time>2026-04-26T07:17:44.776Z</time></trkpt><trkpt lat="45.5997633" lon="10.71837"><ele>285.8</ele><time>2026-04-26T07:17:45.777Z</time></trkpt><trkpt lat="45.5998083" lon="10.718245"><ele>285.4</ele><time>2026-04-26T07:17:46.777Z</time></trkpt><trkpt lat="45.5998483" lon="10.71809"><ele>285.0</ele><time>2026-04-26T07:17:47.776Z</time></trkpt><trkpt lat="45.5999067" lon="10.7179417"><ele>285.0</ele><time>2026-04-26T07:17:48.777Z</time></trkpt><trkpt lat="45.5999717" lon="10.71779"><ele>285.0</ele><time>2026-04-26T07:17:49.776Z</time></trkpt><trkpt lat="45.600035" lon="10.7176417"><ele>285.0</ele><time>2026-04-26T07:17:50.777Z</time></trkpt><trkpt lat="45.6001067" lon="10.717505"><ele>285.0</ele><time>2026-04-26T07:17:51.776Z</time></trkpt><trkpt lat="45.60019" lon="10.7173817"><ele>284.75</ele><time>2026-04-26T07:17:52.777Z</time></trkpt><trkpt lat="45.600285" lon="10.717275"><ele>284.5</ele><time>2026-04-26T07:17:53.776Z</time></trkpt><trkpt lat="45.6004033" lon="10.7171683"><ele>284.25</ele><time>2026-04-26T07:17:54.776Z</time></trkpt><trkpt lat="45.6005217" lon="10.7170833"><ele>284.0</ele><time>2026-04-26T07:17:55.776Z</time></trkpt><trkpt lat="45.6006383" lon="10.717015"><ele>284.5</ele><time>2026-04-26T07:17:56.776Z</time></trkpt><trkpt lat="45.60075" lon="10.716955"><ele>285.0</ele><time>2026-04-26T07:17:57.776Z</time></trkpt><trkpt lat="45.6008533" lon="10.7168917"><ele>285.5</ele><time>2026-04-26T07:17:58.776Z</time></trkpt><trkpt lat="45.6009717" lon="10.71683"><ele>286.0</ele><time>2026-04-26T07:17:59.777Z</time></trkpt><trkpt lat="45.6010583" lon="10.7167617"><ele>286.0</ele><time>2026-04-26T07:18:00.776Z</time></trkpt><trkpt lat="45.6011433" lon="10.716725"><ele>286.0</ele><time>2026-04-26T07:18:01.776Z</time></trkpt><trkpt lat="45.6012167" lon="10.7166917"><ele>286.0</ele><time>2026-04-26T07:18:02.776Z</time></trkpt><trkpt lat="45.6012967" lon="10.71675"><ele>286.0</ele><time>2026-04-26T07:18:04.776Z</time></trkpt><trkpt lat="45.60138" lon="10.7167917"><ele>286.0</ele><time>2026-04-26T07:18:06.776Z</time></trkpt><trkpt lat="45.601475" lon="10.7167617"><ele>286.0</ele><time>2026-04-26T07:18:08.776Z</time></trkpt><trkpt lat="45.6016083" lon="10.716705"><ele>288.2</ele><time>2026-04-26T07:18:10.777Z</time></trkpt><trkpt lat="45.6016983" lon="10.7166083"><ele>290.40000000000003</ele><time>2026-04-26T07:18:12.777Z</time></trkpt><trkpt lat="45.6017717" lon="10.7164917"><ele>292.6</ele><time>2026-04-26T07:18:14.776Z</time></trkpt><trkpt lat="45.6018367" lon="10.7164883"><ele>294.8</ele><time>2026-04-26T07:18:15.777Z</time></trkpt><trkpt lat="45.601895" lon="10.7163117"><ele>297.0</ele><time>2026-04-26T07:18:17.777Z</time></trkpt><trkpt lat="45.6019033" lon="10.7162067"><ele>297.0</ele><time>2026-04-26T07:18:18.776Z</time></trkpt><trkpt lat="45.6019383" lon="10.7161317"><ele>297.0</ele><time>2026-04-26T07:18:19.776Z</time></trkpt><trkpt lat="45.602" lon="10.7161067"><ele>297.0</ele><time>2026-04-26T07:18:20.777Z</time></trkpt><trkpt lat="45.6020583" lon="10.7160467"><ele>297.0</ele><time>2026-04-26T07:18:21.776Z</time></trkpt><trkpt lat="45.6021367" lon="10.71601"><ele>297.0</ele><time>2026-04-26T07:18:22.777Z</time></trkpt><trkpt lat="45.6022183" lon="10.7159867"><ele>297.0</ele><time>2026-04-26T07:18:23.776Z</time></trkpt><trkpt lat="45.6023283" lon="10.716005"><ele>297.4</ele><time>2026-04-26T07:18:24.776Z</time></trkpt><trkpt lat="45.6024283" lon="10.7160017"><ele>297.79999999999995</ele><time>2026-04-26T07:18:25.776Z</time></trkpt><trkpt lat="45.6025283" lon="10.7159933"><ele>298.2</ele><time>2026-04-26T07:18:26.776Z</time></trkpt><trkpt lat="45.6026233" lon="10.7159767"><ele>298.59999999999997</ele><time>2026-04-26T07:18:27.776Z</time></trkpt><trkpt lat="45.602715" lon="10.71598"><ele>299.0</ele><time>2026-04-26T07:18:28.776Z</time></trkpt><trkpt lat="45.60279" lon="10.715975"><ele>300.83333333333337</ele><time>2026-04-26T07:18:29.777Z</time></trkpt><trkpt lat="45.6028617" lon="10.7159617"><ele>302.6666666666667</ele><time>2026-04-26T07:18:30.776Z</time></trkpt><trkpt lat="45.6029417" lon="10.7159317"><ele>304.5</ele><time>2026-04-26T07:18:31.777Z</time></trkpt><trkpt lat="45.6030183" lon="10.7158817"><ele>306.3333333333333</ele><time>2026-04-26T07:18:32.776Z</time></trkpt><trkpt lat="45.6030917" lon="10.7157833"><ele>308.16666666666663</ele><time>2026-04-26T07:18:33.776Z</time></trkpt><trkpt lat="45.60317" lon="10.7157167"><ele>310.0</ele><time>2026-04-26T07:18:34.776Z</time></trkpt><trkpt lat="45.6032583" lon="10.7156583"><ele>310.0</ele><time>2026-04-26T07:18:35.776Z</time></trkpt><trkpt lat="45.6033467" lon="10.7156017"><ele>310.0</ele><time>2026-04-26T07:18:36.776Z</time></trkpt><trkpt lat="45.60343" lon="10.7155633"><ele>310.0</ele><time>2026-04-26T07:18:37.776Z</time></trkpt><trkpt lat="45.6035133" lon="10.7155467"><ele>310.0</ele><time>2026-04-26T07:18:38.776Z</time></trkpt><trkpt lat="45.6036167" lon="10.7155233"><ele>310.0</ele><time>2026-04-26T07:18:39.776Z</time></trkpt><trkpt lat="45.6037233" lon="10.7154983"><ele>310.8333333333333</ele><time>2026-04-26T07:18:40.776Z</time></trkpt><trkpt lat="45.60382" lon="10.715465"><ele>311.66666666666663</ele><time>2026-04-26T07:18:41.776Z</time></trkpt><trkpt lat="45.6038983" lon="10.715455"><ele>312.5</ele><time>2026-04-26T07:18:42.776Z</time></trkpt><trkpt lat="45.6039783" lon="10.7154533"><ele>313.3333333333333</ele><time>2026-04-26T07:18:43.777Z</time></trkpt><trkpt lat="45.604065" lon="10.715465"><ele>314.1666666666667</ele><time>2026-04-26T07:18:44.776Z</time></trkpt><trkpt lat="45.60414" lon="10.715475"><ele>315.0</ele><time>2026-04-26T07:18:45.776Z</time></trkpt><trkpt lat="45.6042217" lon="10.715505"><ele>315.0</ele><time>2026-04-26T07:18:46.776Z</time></trkpt><trkpt lat="45.6043167" lon="10.715525"><ele>315.0</ele><time>2026-04-26T07:18:47.775Z</time></trkpt><trkpt lat="45.6044117" lon="10.7155367"><ele>315.0</ele><time>2026-04-26T07:18:48.776Z</time></trkpt><trkpt lat="45.604505" lon="10.7155333"><ele>315.0</ele><time>2026-04-26T07:18:49.775Z</time></trkpt><trkpt lat="45.60459" lon="10.71553"><ele>315.0</ele><time>2026-04-26T07:18:50.775Z</time></trkpt><trkpt lat="45.6046733" lon="10.7155433"><ele>315.8333333333333</ele><time>2026-04-26T07:18:51.775Z</time></trkpt><trkpt lat="45.6047533" lon="10.71554"><ele>316.6666666666667</ele><time>2026-04-26T07:18:52.775Z</time></trkpt><trkpt lat="45.60483" lon="10.7155367"><ele>317.5</ele><time>2026-04-26T07:18:53.775Z</time></trkpt><trkpt lat="45.604905" lon="10.7155383"><ele>318.33333333333337</ele><time>2026-04-26T07:18:54.776Z</time></trkpt><trkpt lat="45.604985" lon="10.7155483"><ele>319.1666666666667</ele><time>2026-04-26T07:18:55.775Z</time></trkpt><trkpt lat="45.6050683" lon="10.71555"><ele>320.0</ele><time>2026-04-26T07:18:56.775Z</time></trkpt><trkpt lat="45.6051517" lon="10.7155583"><ele>320.0</ele><time>2026-04-26T07:18:57.775Z</time></trkpt><trkpt lat="45.605235" lon="10.7155667"><ele>320.0</ele><time>2026-04-26T07:18:58.776Z</time></trkpt><trkpt lat="45.605315" lon="10.71557"><ele>320.0</ele><time>2026-04-26T07:18:59.775Z</time></trkpt><trkpt lat="45.6053933" lon="10.715575"><ele>320.0</ele><time>2026-04-26T07:19:00.776Z</time></trkpt><trkpt lat="45.605475" lon="10.7155667"><ele>320.0</ele><time>2026-04-26T07:19:01.775Z</time></trkpt><trkpt lat="45.6055617" lon="10.7155483"><ele>320.0</ele><time>2026-04-26T07:19:02.776Z</time></trkpt><trkpt lat="45.605645" lon="10.7155383"><ele>321.0</ele><time>2026-04-26T07:19:03.775Z</time></trkpt><trkpt lat="45.6057183" lon="10.7155283"><ele>322.0</ele><time>2026-04-26T07:19:04.775Z</time></trkpt><trkpt lat="45.6058367" lon="10.7154733"><ele>323.0</ele><time>2026-04-26T07:19:06.775Z</time></trkpt><trkpt lat="45.6059467" lon="10.715405"><ele>324.0</ele><time>2026-04-26T07:19:08.776Z</time></trkpt><trkpt lat="45.6060567" lon="10.7153217"><ele>325.0</ele><time>2026-04-26T07:19:10.775Z</time></trkpt><trkpt lat="45.6061233" lon="10.7152867"><ele>324.8333333333333</ele><time>2026-04-26T07:19:11.776Z</time></trkpt><trkpt lat="45.6062183" lon="10.71522"><ele>324.66666666666663</ele><time>2026-04-26T07:19:13.775Z</time></trkpt><trkpt lat="45.60629" lon="10.7151667"><ele>324.5</ele><time>2026-04-26T07:19:15.775Z</time></trkpt><trkpt lat="45.6063667" lon="10.7151467"><ele>324.3333333333333</ele><time>2026-04-26T07:19:17.776Z</time></trkpt><trkpt lat="45.60641" lon="10.7150383"><ele>324.1666666666667</ele><time>2026-04-26T07:20:51.775Z</time></trkpt><trkpt lat="45.6064867" lon="10.7149917"><ele>324.0</ele><time>2026-04-26T07:20:54.775Z</time></trkpt><trkpt lat="45.6065483" lon="10.7150867"><ele>325.0</ele><time>2026-04-26T07:20:59.775Z</time></trkpt><trkpt lat="45.6065467" lon="10.715255"><ele>326.0</ele><time>2026-04-26T07:21:01.775Z</time></trkpt><trkpt lat="45.6065317" lon="10.7153617"><ele>327.0</ele><time>2026-04-26T07:21:02.775Z</time></trkpt><trkpt lat="45.606505" lon="10.7154933"><ele>328.0</ele><time>2026-04-26T07:21:04.776Z</time></trkpt><trkpt lat="45.6064567" lon="10.7155833"><ele>329.0</ele><time>2026-04-26T07:21:06.775Z</time></trkpt><trkpt lat="45.6063833" lon="10.7156633"><ele>329.0</ele><time>2026-04-26T07:21:08.775Z</time></trkpt><trkpt lat="45.606325" lon="10.715705"><ele>329.0</ele><time>2026-04-26T07:21:09.775Z</time></trkpt><trkpt lat="45.6061333" lon="10.7157417"><ele>329.0</ele><time>2026-04-26T07:21:10.775Z</time></trkpt><trkpt lat="45.6059967" lon="10.7157733"><ele>329.0</ele><time>2026-04-26T07:21:11.775Z</time></trkpt><trkpt lat="45.6058967" lon="10.715805"><ele>328.2</ele><time>2026-04-26T07:21:12.776Z</time></trkpt><trkpt lat="45.6057983" lon="10.715825"><ele>327.4</ele><time>2026-04-26T07:21:13.776Z</time></trkpt><trkpt lat="45.6057083" lon="10.7158417"><ele>326.6</ele><time>2026-04-26T07:21:14.775Z</time></trkpt><trkpt lat="45.6056383" lon="10.7158617"><ele>325.8</ele><time>2026-04-26T07:21:15.776Z</time></trkpt><trkpt lat="45.605535" lon="10.7158417"><ele>325.0</ele><time>2026-04-26T07:21:17.775Z</time></trkpt><trkpt lat="45.6054" lon="10.71589"><ele>324.0</ele><time>2026-04-26T07:21:29.776Z</time></trkpt><trkpt lat="45.6053233" lon="10.7158917"><ele>323.0</ele><time>2026-04-26T07:21:30.775Z</time></trkpt><trkpt lat="45.60523" lon="10.7158933"><ele>322.0</ele><time>2026-04-26T07:21:31.775Z</time></trkpt><trkpt lat="45.6051167" lon="10.7158983"><ele>321.0</ele><time>2026-04-26T07:21:32.775Z</time></trkpt><trkpt lat="45.6049933" lon="10.7159233"><ele>320.0</ele><time>2026-04-26T07:21:33.775Z</time></trkpt><trkpt lat="45.6048767" lon="10.7159583"><ele>320.0</ele><time>2026-04-26T07:21:34.776Z</time></trkpt><trkpt lat="45.60477" lon="10.7159933"><ele>320.0</ele><time>2026-04-26T07:21:35.775Z</time></trkpt><trkpt lat="45.604645" lon="10.716015"><ele>320.0</ele><time>2026-04-26T07:21:36.776Z</time></trkpt><trkpt lat="45.604555" lon="10.716035"><ele>320.0</ele><time>2026-04-26T07:21:37.775Z</time></trkpt><trkpt lat="45.60444" lon="10.7160333"><ele>320.0</ele><time>2026-04-26T07:21:38.776Z</time></trkpt><trkpt lat="45.6043567" lon="10.71603"><ele>319.1666666666667</ele><time>2026-04-26T07:21:39.775Z</time></trkpt><trkpt lat="45.604285" lon="10.716035"><ele>318.33333333333337</ele><time>2026-04-26T07:21:40.775Z</time></trkpt><trkpt lat="45.6042133" lon="10.71604"><ele>317.5</ele><time>2026-04-26T07:21:41.776Z</time></trkpt><trkpt lat="45.6041283" lon="10.716045"><ele>316.6666666666667</ele><time>2026-04-26T07:21:42.776Z</time></trkpt><trkpt lat="45.6040367" lon="10.716055"><ele>315.8333333333333</ele><time>2026-04-26T07:21:43.775Z</time></trkpt><trkpt lat="45.6039567" lon="10.7160783"><ele>315.0</ele><time>2026-04-26T07:21:44.776Z</time></trkpt><trkpt lat="45.6038867" lon="10.7161017"><ele>315.4</ele><time>2026-04-26T07:21:45.776Z</time></trkpt><trkpt lat="45.6038233" lon="10.716145"><ele>315.8</ele><time>2026-04-26T07:21:46.775Z</time></trkpt><trkpt lat="45.6037717" lon="10.7162"><ele>316.2</ele><time>2026-04-26T07:21:47.776Z</time></trkpt><trkpt lat="45.6037033" lon="10.7163483"><ele>316.6</ele><time>2026-04-26T07:21:49.776Z</time></trkpt><trkpt lat="45.60366" lon="10.71652"><ele>317.0</ele><time>2026-04-26T07:21:51.776Z</time></trkpt><trkpt lat="45.6036283" lon="10.7166917"><ele>317.0</ele><time>2026-04-26T07:21:53.776Z</time></trkpt><trkpt lat="45.6036283" lon="10.71679"><ele>317.0</ele><time>2026-04-26T07:21:54.775Z</time></trkpt><trkpt lat="45.603635" lon="10.7168983"><ele>317.0</ele><time>2026-04-26T07:21:55.776Z</time></trkpt><trkpt lat="45.60363" lon="10.7170167"><ele>317.0</ele><time>2026-04-26T07:21:56.775Z</time></trkpt><trkpt lat="45.6036333" lon="10.7171217"><ele>317.0</ele><time>2026-04-26T07:21:57.775Z</time></trkpt><trkpt lat="45.60366" lon="10.717245"><ele>317.0</ele><time>2026-04-26T07:21:58.776Z</time></trkpt><trkpt lat="45.6036767" lon="10.71737"><ele>316.83333333333337</ele><time>2026-04-26T07:21:59.776Z</time></trkpt><trkpt lat="45.6037033" lon="10.71747"><ele>316.6666666666667</ele><time>2026-04-26T07:22:00.776Z</time></trkpt><trkpt lat="45.6037183" lon="10.7175583"><ele>316.5</ele><time>2026-04-26T07:22:01.776Z</time></trkpt><trkpt lat="45.6037217" lon="10.7177383"><ele>316.3333333333333</ele><time>2026-04-26T07:22:03.775Z</time></trkpt><trkpt lat="45.6037067" lon="10.7178333"><ele>316.16666666666663</ele><time>2026-04-26T07:22:04.776Z</time></trkpt><trkpt lat="45.6036817" lon="10.7179267"><ele>316.0</ele><time>2026-04-26T07:22:05.775Z</time></trkpt><trkpt lat="45.6036483" lon="10.718015"><ele>316.0</ele><time>2026-04-26T07:22:06.776Z</time></trkpt><trkpt lat="45.6036117" lon="10.7181117"><ele>316.0</ele><time>2026-04-26T07:22:07.774Z</time></trkpt><trkpt lat="45.6035683" lon="10.7182183"><ele>316.0</ele><time>2026-04-26T07:22:08.774Z</time></trkpt><trkpt lat="45.60352" lon="10.7183183"><ele>316.0</ele><time>2026-04-26T07:22:09.775Z</time></trkpt><trkpt lat="45.6034717" lon="10.7184067"><ele>316.0</ele><time>2026-04-26T07:22:10.774Z</time></trkpt><trkpt lat="45.6034017" lon="10.7184767"><ele>316.0</ele><time>2026-04-26T07:22:11.774Z</time></trkpt><trkpt lat="45.6033717" lon="10.7185583"><ele>316.66666666666663</ele><time>2026-04-26T07:22:12.775Z</time></trkpt><trkpt lat="45.6033333" lon="10.71869"><ele>317.3333333333333</ele><time>2026-04-26T07:22:14.775Z</time></trkpt><trkpt lat="45.6033383" lon="10.7188633"><ele>318.0</ele><time>2026-04-26T07:22:16.774Z</time></trkpt><trkpt lat="45.6033517" lon="10.7189683"><ele>318.6666666666667</ele><time>2026-04-26T07:22:17.775Z</time></trkpt><trkpt lat="45.6033683" lon="10.71906"><ele>319.33333333333337</ele><time>2026-04-26T07:22:18.774Z</time></trkpt><trkpt lat="45.6033917" lon="10.719165"><ele>320.0</ele><time>2026-04-26T07:22:19.775Z</time></trkpt><trkpt lat="45.60341" lon="10.7192667"><ele>320.0</ele><time>2026-04-26T07:22:20.774Z</time></trkpt><trkpt lat="45.60345" lon="10.71934"><ele>320.0</ele><time>2026-04-26T07:22:21.774Z</time></trkpt><trkpt lat="45.6035283" lon="10.7194033"><ele>320.0</ele><time>2026-04-26T07:22:23.775Z</time></trkpt><trkpt lat="45.60361" lon="10.7194267"><ele>320.0</ele><time>2026-04-26T07:22:26.775Z</time></trkpt><trkpt lat="45.603665" lon="10.7194833"><ele>320.0</ele><time>2026-04-26T07:22:27.774Z</time></trkpt><trkpt lat="45.6037267" lon="10.7195467"><ele>320.0</ele><time>2026-04-26T07:22:28.774Z</time></trkpt><trkpt lat="45.6038033" lon="10.7196067"><ele>319.2</ele><time>2026-04-26T07:22:29.774Z</time></trkpt><trkpt lat="45.6038883" lon="10.7196433"><ele>318.4</ele><time>2026-04-26T07:22:30.774Z</time></trkpt><trkpt lat="45.6039867" lon="10.719665"><ele>317.6</ele><time>2026-04-26T07:22:31.774Z</time></trkpt><trkpt lat="45.6040633" lon="10.719695"><ele>316.8</ele><time>2026-04-26T07:22:32.774Z</time></trkpt><trkpt lat="45.6041517" lon="10.71974"><ele>316.0</ele><time>2026-04-26T07:22:33.774Z</time></trkpt><trkpt lat="45.604245" lon="10.7198117"><ele>316.0</ele><time>2026-04-26T07:22:34.775Z</time></trkpt><trkpt lat="45.6043517" lon="10.7199283"><ele>316.0</ele><time>2026-04-26T07:22:35.774Z</time></trkpt><trkpt lat="45.6044617" lon="10.7200633"><ele>316.0</ele><time>2026-04-26T07:22:36.775Z</time></trkpt><trkpt lat="45.6045683" lon="10.7201983"><ele>316.0</ele><time>2026-04-26T07:22:37.775Z</time></trkpt><trkpt lat="45.6046733" lon="10.7203383"><ele>317.5</ele><time>2026-04-26T07:22:38.774Z</time></trkpt><trkpt lat="45.60478" lon="10.720485"><ele>319.0</ele><time>2026-04-26T07:22:39.774Z</time></trkpt><trkpt lat="45.6048483" lon="10.7206483"><ele>320.5</ele><time>2026-04-26T07:22:40.774Z</time></trkpt><trkpt lat="45.6049033" lon="10.7208317"><ele>322.0</ele><time>2026-04-26T07:22:41.774Z</time></trkpt><trkpt lat="45.60495" lon="10.7210133"><ele>321.75</ele><time>2026-04-26T07:22:42.774Z</time></trkpt><trkpt lat="45.6049783" lon="10.7211883"><ele>321.5</ele><time>2026-04-26T07:22:43.774Z</time></trkpt><trkpt lat="45.6050433" lon="10.7213483"><ele>321.25</ele><time>2026-04-26T07:22:44.775Z</time></trkpt><trkpt lat="45.6051" lon="10.7215067"><ele>321.0</ele><time>2026-04-26T07:22:45.774Z</time></trkpt><trkpt lat="45.6051367" lon="10.7216217"><ele>321.0</ele><time>2026-04-26T07:22:46.775Z</time></trkpt><trkpt lat="45.60517" lon="10.7217117"><ele>321.0</ele><time>2026-04-26T07:22:47.774Z</time></trkpt><trkpt lat="45.605235" lon="10.721835"><ele>321.0</ele><time>2026-04-26T07:22:49.775Z</time></trkpt><trkpt lat="45.6052783" lon="10.7219117"><ele>321.0</ele><time>2026-04-26T07:22:51.775Z</time></trkpt><trkpt lat="45.6053283" lon="10.72204"><ele>321.0</ele><time>2026-04-26T07:22:53.774Z</time></trkpt><trkpt lat="45.6053433" lon="10.7221433"><ele>321.0</ele><time>2026-04-26T07:22:54.774Z</time></trkpt><trkpt lat="45.605365" lon="10.72223"><ele>319.5</ele><time>2026-04-26T07:22:55.774Z</time></trkpt><trkpt lat="45.6054417" lon="10.7223933"><ele>318.0</ele><time>2026-04-26T07:22:57.774Z</time></trkpt><trkpt lat="45.60553" lon="10.722445"><ele>316.5</ele><time>2026-04-26T07:22:58.774Z</time></trkpt><trkpt lat="45.60564" lon="10.7225"><ele>315.0</ele><time>2026-04-26T07:22:59.774Z</time></trkpt><trkpt lat="45.60576" lon="10.7225517"><ele>315.0</ele><time>2026-04-26T07:23:00.774Z</time></trkpt><trkpt lat="45.6058967" lon="10.722595"><ele>315.0</ele><time>2026-04-26T07:23:01.775Z</time></trkpt><trkpt lat="45.6060617" lon="10.7226117"><ele>315.0</ele><time>2026-04-26T07:23:02.774Z</time></trkpt><trkpt lat="45.6062183" lon="10.72263"><ele>314.25</ele><time>2026-04-26T07:23:03.774Z</time></trkpt><trkpt lat="45.6063517" lon="10.722665"><ele>313.5</ele><time>2026-04-26T07:23:04.774Z</time></trkpt><trkpt lat="45.606485" lon="10.7227383"><ele>312.75</ele><time>2026-04-26T07:23:05.775Z</time></trkpt><trkpt lat="45.60662" lon="10.722825"><ele>312.0</ele><time>2026-04-26T07:23:06.774Z</time></trkpt><trkpt lat="45.6067217" lon="10.7229083"><ele>310.3333333333333</ele><time>2026-04-26T07:23:07.774Z</time></trkpt><trkpt lat="45.6068133" lon="10.7230133"><ele>308.6666666666667</ele><time>2026-04-26T07:23:08.774Z</time></trkpt><trkpt lat="45.6068367" lon="10.72311"><ele>307.0</ele><time>2026-04-26T07:23:09.774Z</time></trkpt><trkpt lat="45.606795" lon="10.7231933"><ele>305.33333333333337</ele><time>2026-04-26T07:23:10.775Z</time></trkpt><trkpt lat="45.606755" lon="10.72328"><ele>303.6666666666667</ele><time>2026-04-26T07:23:11.774Z</time></trkpt><trkpt lat="45.6066867" lon="10.72338"><ele>302.0</ele><time>2026-04-26T07:23:12.774Z</time></trkpt><trkpt lat="45.6066567" lon="10.7234767"><ele>302.1666666666667</ele><time>2026-04-26T07:23:13.774Z</time></trkpt><trkpt lat="45.60671" lon="10.7236167"><ele>302.33333333333337</ele><time>2026-04-26T07:23:15.774Z</time></trkpt><trkpt lat="45.60677" lon="10.72368"><ele>302.5</ele><time>2026-04-26T07:23:16.775Z</time></trkpt><trkpt lat="45.6068267" lon="10.7237633"><ele>302.6666666666667</ele><time>2026-04-26T07:23:17.774Z</time></trkpt><trkpt lat="45.606875" lon="10.72386"><ele>302.8333333333333</ele><time>2026-04-26T07:23:18.775Z</time></trkpt><trkpt lat="45.6069117" lon="10.7239567"><ele>303.0</ele><time>2026-04-26T07:23:19.774Z</time></trkpt><trkpt lat="45.606885" lon="10.7240767"><ele>303.0</ele><time>2026-04-26T07:23:20.775Z</time></trkpt><trkpt lat="45.606855" lon="10.72419"><ele>303.0</ele><time>2026-04-26T07:23:21.774Z</time></trkpt><trkpt lat="45.6067917" lon="10.7243133"><ele>303.0</ele><time>2026-04-26T07:23:22.775Z</time></trkpt><trkpt lat="45.60672" lon="10.7244533"><ele>303.0</ele><time>2026-04-26T07:23:23.775Z</time></trkpt><trkpt lat="45.6066217" lon="10.724615"><ele>304.4</ele><time>2026-04-26T07:23:24.774Z</time></trkpt><trkpt lat="45.6065583" lon="10.7247633"><ele>305.8</ele><time>2026-04-26T07:23:25.774Z</time></trkpt><trkpt lat="45.6064983" lon="10.7249217"><ele>307.2</ele><time>2026-04-26T07:23:26.775Z</time></trkpt><trkpt lat="45.6064633" lon="10.7250517"><ele>308.6</ele><time>2026-04-26T07:23:27.774Z</time></trkpt><trkpt lat="45.6064383" lon="10.7251933"><ele>310.0</ele><time>2026-04-26T07:23:28.774Z</time></trkpt><trkpt lat="45.6064283" lon="10.7253333"><ele>311.0</ele><time>2026-04-26T07:23:29.775Z</time></trkpt><trkpt lat="45.606415" lon="10.7254783"><ele>312.0</ele><time>2026-04-26T07:23:30.774Z</time></trkpt><trkpt lat="45.6064033" lon="10.7256233"><ele>313.0</ele><time>2026-04-26T07:23:31.775Z</time></trkpt><trkpt lat="45.606415" lon="10.7257683"><ele>314.0</ele><time>2026-04-26T07:23:32.775Z</time></trkpt><trkpt lat="45.6064333" lon="10.72591"><ele>315.0</ele><time>2026-04-26T07:23:33.774Z</time></trkpt><trkpt lat="45.606455" lon="10.7260467"><ele>315.3333333333333</ele><time>2026-04-26T07:23:34.774Z</time></trkpt><trkpt lat="45.606475" lon="10.7261833"><ele>315.6666666666667</ele><time>2026-04-26T07:23:35.774Z</time></trkpt><trkpt lat="45.60649" lon="10.7263083"><ele>316.0</ele><time>2026-04-26T07:23:36.775Z</time></trkpt><trkpt lat="45.6064983" lon="10.726425"><ele>316.33333333333337</ele><time>2026-04-26T07:23:37.775Z</time></trkpt><trkpt lat="45.6065133" lon="10.7265433"><ele>316.6666666666667</ele><time>2026-04-26T07:23:38.774Z</time></trkpt><trkpt lat="45.6065267" lon="10.7266517"><ele>317.0</ele><time>2026-04-26T07:23:39.774Z</time></trkpt><trkpt lat="45.6065333" lon="10.72681"><ele>316.8</ele><time>2026-04-26T07:23:41.774Z</time></trkpt><trkpt lat="45.6065267" lon="10.7269167"><ele>316.6</ele><time>2026-04-26T07:23:44.774Z</time></trkpt><trkpt lat="45.606435" lon="10.72701"><ele>316.40000000000003</ele><time>2026-04-26T07:23:46.774Z</time></trkpt><trkpt lat="45.6063383" lon="10.7270667"><ele>316.2</ele><time>2026-04-26T07:23:47.774Z</time></trkpt><trkpt lat="45.6062317" lon="10.7271433"><ele>316.0</ele><time>2026-04-26T07:23:48.774Z</time></trkpt><trkpt lat="45.6061233" lon="10.7272083"><ele>315.25</ele><time>2026-04-26T07:23:49.774Z</time></trkpt><trkpt lat="45.6060183" lon="10.7272633"><ele>314.5</ele><time>2026-04-26T07:23:50.775Z</time></trkpt><trkpt lat="45.60591" lon="10.7272933"><ele>313.75</ele><time>2026-04-26T07:23:51.774Z</time></trkpt><trkpt lat="45.6057783" lon="10.7273133"><ele>313.0</ele><time>2026-04-26T07:23:52.774Z</time></trkpt><trkpt lat="45.605655" lon="10.72732"><ele>313.0</ele><time>2026-04-26T07:23:53.774Z</time></trkpt><trkpt lat="45.6055317" lon="10.7273183"><ele>313.0</ele><time>2026-04-26T07:23:54.775Z</time></trkpt><trkpt lat="45.605405" lon="10.7273183"><ele>313.0</ele><time>2026-04-26T07:23:55.774Z</time></trkpt><trkpt lat="45.6052733" lon="10.7273"><ele>313.0</ele><time>2026-04-26T07:23:56.775Z</time></trkpt><trkpt lat="45.605145" lon="10.727285"><ele>313.25</ele><time>2026-04-26T07:23:57.774Z</time></trkpt><trkpt lat="45.605015" lon="10.7272633"><ele>313.5</ele><time>2026-04-26T07:23:58.774Z</time></trkpt><trkpt lat="45.6048967" lon="10.7272483"><ele>313.75</ele><time>2026-04-26T07:23:59.774Z</time></trkpt><trkpt lat="45.604775" lon="10.72724"><ele>314.0</ele><time>2026-04-26T07:24:00.774Z</time></trkpt><trkpt lat="45.6046483" lon="10.7272283"><ele>314.0</ele><time>2026-04-26T07:24:01.775Z</time></trkpt><trkpt lat="45.6045133" lon="10.72724"><ele>314.0</ele><time>2026-04-26T07:24:02.774Z</time></trkpt><trkpt lat="45.604375" lon="10.72727"><ele>314.0</ele><time>2026-04-26T07:24:03.774Z</time></trkpt><trkpt lat="45.604235" lon="10.7273133"><ele>314.0</ele><time>2026-04-26T07:24:04.775Z</time></trkpt><trkpt lat="45.6040867" lon="10.7273633"><ele>314.0</ele><time>2026-04-26T07:24:05.774Z</time></trkpt><trkpt lat="45.6039433" lon="10.727415"><ele>314.0</ele><time>2026-04-26T07:24:06.774Z</time></trkpt><trkpt lat="45.6038" lon="10.7274433"><ele>314.0</ele><time>2026-04-26T07:24:07.775Z</time></trkpt><trkpt lat="45.603665" lon="10.7274667"><ele>314.0</ele><time>2026-04-26T07:24:08.774Z</time></trkpt><trkpt lat="45.6035383" lon="10.727505"><ele>314.25</ele><time>2026-04-26T07:24:09.774Z</time></trkpt><trkpt lat="45.6033917" lon="10.7275433"><ele>314.5</ele><time>2026-04-26T07:24:10.774Z</time></trkpt><trkpt lat="45.6032567" lon="10.7276083"><ele>314.75</ele><time>2026-04-26T07:24:11.774Z</time></trkpt><trkpt lat="45.6031267" lon="10.7276767"><ele>315.0</ele><time>2026-04-26T07:24:12.775Z</time></trkpt><trkpt lat="45.6030017" lon="10.72776"><ele>315.0</ele><time>2026-04-26T07:24:13.775Z</time></trkpt><trkpt lat="45.6028783" lon="10.7278433"><ele>315.0</ele><time>2026-04-26T07:24:14.774Z</time></trkpt><trkpt lat="45.6027517" lon="10.7279367"><ele>315.0</ele><time>2026-04-26T07:24:15.774Z</time></trkpt><trkpt lat="45.6026233" lon="10.7280117"><ele>315.0</ele><time>2026-04-26T07:24:16.775Z</time></trkpt><trkpt lat="45.6025233" lon="10.7280767"><ele>314.8333333333333</ele><time>2026-04-26T07:24:17.775Z</time></trkpt><trkpt lat="45.6024467" lon="10.7281167"><ele>314.6666666666667</ele><time>2026-04-26T07:24:18.774Z</time></trkpt><trkpt lat="45.6023667" lon="10.7281533"><ele>314.5</ele><time>2026-04-26T07:24:19.774Z</time></trkpt><trkpt lat="45.6022783" lon="10.7282717"><ele>314.33333333333337</ele><time>2026-04-26T07:24:21.774Z</time></trkpt><trkpt lat="45.6022467" lon="10.7283583"><ele>314.1666666666667</ele><time>2026-04-26T07:24:22.775Z</time></trkpt><trkpt lat="45.602215" lon="10.7284583"><ele>314.0</ele><time>2026-04-26T07:24:23.774Z</time></trkpt><trkpt lat="45.6021917" lon="10.7285783"><ele>314.0</ele><time>2026-04-26T07:24:24.774Z</time></trkpt><trkpt lat="45.6021717" lon="10.7287117"><ele>314.0</ele><time>2026-04-26T07:24:25.774Z</time></trkpt><trkpt lat="45.6021567" lon="10.7288433"><ele>314.0</ele><time>2026-04-26T07:24:26.774Z</time></trkpt><trkpt lat="45.602145" lon="10.72895"><ele>314.0</ele><time>2026-04-26T07:24:27.774Z</time></trkpt><trkpt lat="45.6021367" lon="10.7290483"><ele>314.0</ele><time>2026-04-26T07:24:28.774Z</time></trkpt><trkpt lat="45.6021367" lon="10.72922"><ele>314.0</ele><time>2026-04-26T07:24:30.774Z</time></trkpt><trkpt lat="45.6021533" lon="10.7293517"><ele>314.0</ele><time>2026-04-26T07:24:32.774Z</time></trkpt><trkpt lat="45.6021617" lon="10.729465"><ele>314.0</ele><time>2026-04-26T07:24:34.774Z</time></trkpt><trkpt lat="45.6021683" lon="10.7296017"><ele>314.0</ele><time>2026-04-26T07:24:36.774Z</time></trkpt><trkpt lat="45.60218" lon="10.7297633"><ele>314.0</ele><time>2026-04-26T07:24:38.774Z</time></trkpt><trkpt lat="45.602185" lon="10.7298667"><ele>313.4</ele><time>2026-04-26T07:24:39.775Z</time></trkpt><trkpt lat="45.6021833" lon="10.7299633"><ele>312.79999999999995</ele><time>2026-04-26T07:24:40.774Z</time></trkpt><trkpt lat="45.6021567" lon="10.7301133"><ele>312.20000000000005</ele><time>2026-04-26T07:24:42.774Z</time></trkpt><trkpt lat="45.6020467" lon="10.7302267"><ele>311.6</ele><time>2026-04-26T07:24:44.774Z</time></trkpt><trkpt lat="45.60196" lon="10.7302817"><ele>311.0</ele><time>2026-04-26T07:24:45.774Z</time></trkpt><trkpt lat="45.6018717" lon="10.7303467"><ele>311.0</ele><time>2026-04-26T07:24:46.774Z</time></trkpt><trkpt lat="45.601785" lon="10.7304117"><ele>311.0</ele><time>2026-04-26T07:24:47.775Z</time></trkpt><trkpt lat="45.6017" lon="10.7304783"><ele>311.0</ele><time>2026-04-26T07:24:48.775Z</time></trkpt><trkpt lat="45.6016167" lon="10.73054"><ele>311.0</ele><time>2026-04-26T07:24:49.774Z</time></trkpt><trkpt lat="45.601535" lon="10.7306083"><ele>311.0</ele><time>2026-04-26T07:24:50.774Z</time></trkpt><trkpt lat="45.6014633" lon="10.7306683"><ele>311.0</ele><time>2026-04-26T07:24:51.774Z</time></trkpt><trkpt lat="45.6014" lon="10.730725"><ele>311.0</ele><time>2026-04-26T07:24:52.774Z</time></trkpt><trkpt lat="45.6013367" lon="10.7307883"><ele>311.0</ele><time>2026-04-26T07:24:53.774Z</time></trkpt><trkpt lat="45.6012683" lon="10.730855"><ele>311.0</ele><time>2026-04-26T07:24:54.774Z</time></trkpt><trkpt lat="45.6012067" lon="10.7309217"><ele>311.0</ele><time>2026-04-26T07:24:55.774Z</time></trkpt><trkpt lat="45.601145" lon="10.7309817"><ele>311.0</ele><time>2026-04-26T07:24:56.774Z</time></trkpt><trkpt lat="45.601085" lon="10.7310233"><ele>310.2857142857143</ele><time>2026-04-26T07:24:57.774Z</time></trkpt><trkpt lat="45.60102" lon="10.7310617"><ele>309.5714285714286</ele><time>2026-04-26T07:24:58.774Z</time></trkpt><trkpt lat="45.6009533" lon="10.7310933"><ele>308.8571428571429</ele><time>2026-04-26T07:24:59.775Z</time></trkpt><trkpt lat="45.600885" lon="10.7311217"><ele>308.1428571428571</ele><time>2026-04-26T07:25:00.774Z</time></trkpt><trkpt lat="45.6008117" lon="10.7311567"><ele>307.42857142857144</ele><time>2026-04-26T07:25:01.774Z</time></trkpt><trkpt lat="45.600745" lon="10.7312"><ele>306.7142857142857</ele><time>2026-04-26T07:25:02.774Z</time></trkpt><trkpt lat="45.6006717" lon="10.7312533"><ele>306.0</ele><time>2026-04-26T07:25:03.774Z</time></trkpt><trkpt lat="45.6005983" lon="10.731295"><ele>306.0</ele><time>2026-04-26T07:25:04.774Z</time></trkpt><trkpt lat="45.60052" lon="10.7313417"><ele>306.0</ele><time>2026-04-26T07:25:05.775Z</time></trkpt><trkpt lat="45.6004417" lon="10.7313883"><ele>306.0</ele><time>2026-04-26T07:25:06.774Z</time></trkpt><trkpt lat="45.6003617" lon="10.7314283"><ele>306.0</ele><time>2026-04-26T07:25:07.775Z</time></trkpt><trkpt lat="45.6002767" lon="10.7314783"><ele>306.0</ele><time>2026-04-26T07:25:08.775Z</time></trkpt><trkpt lat="45.60019" lon="10.7315183"><ele>306.0</ele><time>2026-04-26T07:25:09.774Z</time></trkpt><trkpt lat="45.6001117" lon="10.731565"><ele>306.0</ele><time>2026-04-26T07:25:10.774Z</time></trkpt><trkpt lat="45.6000367" lon="10.7316033"><ele>306.0</ele><time>2026-04-26T07:25:11.774Z</time></trkpt><trkpt lat="45.599965" lon="10.7316333"><ele>306.0</ele><time>2026-04-26T07:25:12.775Z</time></trkpt><trkpt lat="45.599905" lon="10.7316883"><ele>306.0</ele><time>2026-04-26T07:25:13.774Z</time></trkpt><trkpt lat="45.59983" lon="10.7317283"><ele>306.0</ele><time>2026-04-26T07:25:14.775Z</time></trkpt><trkpt lat="45.599755" lon="10.7317817"><ele>306.0</ele><time>2026-04-26T07:25:15.774Z</time></trkpt><trkpt lat="45.5996733" lon="10.7318233"><ele>306.0</ele><time>2026-04-26T07:25:16.774Z</time></trkpt><trkpt lat="45.5995933" lon="10.731875"><ele>306.0</ele><time>2026-04-26T07:25:17.775Z</time></trkpt><trkpt lat="45.5995067" lon="10.7319133"><ele>306.0</ele><time>2026-04-26T07:25:18.774Z</time></trkpt><trkpt lat="45.5994467" lon="10.731955"><ele>306.0</ele><time>2026-04-26T07:25:19.774Z</time></trkpt><trkpt lat="45.5993733" lon="10.7319933"><ele>306.0</ele><time>2026-04-26T07:25:20.774Z</time></trkpt><trkpt lat="45.5993133" lon="10.732025"><ele>306.0</ele><time>2026-04-26T07:25:21.774Z</time></trkpt><trkpt lat="45.5991967" lon="10.7321383"><ele>305.3333333333333</ele><time>2026-04-26T07:25:23.774Z</time></trkpt><trkpt lat="45.599135" lon="10.7322067"><ele>304.6666666666667</ele><time>2026-04-26T07:25:24.774Z</time></trkpt><trkpt lat="45.5990817" lon="10.7322817"><ele>304.0</ele><time>2026-04-26T07:25:25.775Z</time></trkpt><trkpt lat="45.59902" lon="10.7323583"><ele>303.33333333333337</ele><time>2026-04-26T07:25:26.775Z</time></trkpt><trkpt lat="45.5989733" lon="10.7324433"><ele>302.6666666666667</ele><time>2026-04-26T07:25:27.775Z</time></trkpt><trkpt lat="45.598915" lon="10.7325333"><ele>302.0</ele><time>2026-04-26T07:25:28.773Z</time></trkpt><trkpt lat="45.5988517" lon="10.7326217"><ele>302.00000000000006</ele><time>2026-04-26T07:25:29.773Z</time></trkpt><trkpt lat="45.598795" lon="10.7326917"><ele>302.0</ele><time>2026-04-26T07:25:30.773Z</time></trkpt><trkpt lat="45.5987383" lon="10.7327467"><ele>302.0</ele><time>2026-04-26T07:25:31.773Z</time></trkpt><trkpt lat="45.59868" lon="10.7327933"><ele>302.0</ele><time>2026-04-26T07:25:32.773Z</time></trkpt><trkpt lat="45.5986217" lon="10.73283"><ele>302.0</ele><time>2026-04-26T07:25:33.773Z</time></trkpt><trkpt lat="45.598555" lon="10.7328717"><ele>302.00000000000006</ele><time>2026-04-26T07:25:34.773Z</time></trkpt><trkpt lat="45.5984917" lon="10.7329367"><ele>302.0</ele><time>2026-04-26T07:25:35.774Z</time></trkpt><trkpt lat="45.5984317" lon="10.7330017"><ele>301.33333333333337</ele><time>2026-04-26T07:25:36.774Z</time></trkpt><trkpt lat="45.5983617" lon="10.733065"><ele>300.6666666666667</ele><time>2026-04-26T07:25:37.773Z</time></trkpt><trkpt lat="45.5982883" lon="10.73313"><ele>300.0</ele><time>2026-04-26T07:25:38.774Z</time></trkpt><trkpt lat="45.5982233" lon="10.7331983"><ele>299.3333333333333</ele><time>2026-04-26T07:25:39.774Z</time></trkpt><trkpt lat="45.598135" lon="10.7332667"><ele>298.66666666666663</ele><time>2026-04-26T07:25:40.774Z</time></trkpt><trkpt lat="45.598055" lon="10.7333133"><ele>298.0</ele><time>2026-04-26T07:25:41.773Z</time></trkpt><trkpt lat="45.5979583" lon="10.7333533"><ele>298.0</ele><time>2026-04-26T07:25:42.773Z</time></trkpt><trkpt lat="45.5978583" lon="10.7333767"><ele>298.0</ele><time>2026-04-26T07:25:43.774Z</time></trkpt><trkpt lat="45.5977683" lon="10.733395"><ele>298.0</ele><time>2026-04-26T07:25:44.774Z</time></trkpt><trkpt lat="45.5976733" lon="10.7334167"><ele>298.0</ele><time>2026-04-26T07:25:45.774Z</time></trkpt><trkpt lat="45.5975767" lon="10.733435"><ele>298.0</ele><time>2026-04-26T07:25:46.774Z</time></trkpt><trkpt lat="45.5974767" lon="10.7334817"><ele>297.4</ele><time>2026-04-26T07:25:47.774Z</time></trkpt><trkpt lat="45.5973633" lon="10.7335217"><ele>296.8</ele><time>2026-04-26T07:25:48.774Z</time></trkpt><trkpt lat="45.5972667" lon="10.7335533"><ele>296.2</ele><time>2026-04-26T07:25:49.773Z</time></trkpt><trkpt lat="45.5971783" lon="10.7335817"><ele>295.6</ele><time>2026-04-26T07:25:50.773Z</time></trkpt><trkpt lat="45.5971" lon="10.7336483"><ele>295.0</ele><time>2026-04-26T07:25:51.773Z</time></trkpt><trkpt lat="45.5970367" lon="10.7337233"><ele>292.16666666666663</ele><time>2026-04-26T07:25:52.773Z</time></trkpt><trkpt lat="45.5969767" lon="10.7337883"><ele>289.3333333333333</ele><time>2026-04-26T07:25:53.773Z</time></trkpt><trkpt lat="45.59691" lon="10.73384"><ele>286.5</ele><time>2026-04-26T07:25:54.773Z</time></trkpt><trkpt lat="45.59681" lon="10.73387"><ele>283.6666666666667</ele><time>2026-04-26T07:25:56.773Z</time></trkpt><trkpt lat="45.59677" lon="10.733795"><ele>280.83333333333337</ele><time>2026-04-26T07:25:59.774Z</time></trkpt><trkpt lat="45.5967433" lon="10.7336167"><ele>278.0</ele><time>2026-04-26T07:26:08.774Z</time></trkpt><trkpt lat="45.5967667" lon="10.7334317"><ele>278.0</ele><time>2026-04-26T07:26:10.774Z</time></trkpt><trkpt lat="45.59679" lon="10.733295"><ele>278.0</ele><time>2026-04-26T07:26:11.773Z</time></trkpt><trkpt lat="45.5968283" lon="10.7331733"><ele>278.0</ele><time>2026-04-26T07:26:12.774Z</time></trkpt><trkpt lat="45.5968783" lon="10.7330433"><ele>278.0</ele><time>2026-04-26T07:26:13.773Z</time></trkpt><trkpt lat="45.5969433" lon="10.732905"><ele>278.0</ele><time>2026-04-26T07:26:14.773Z</time></trkpt><trkpt lat="45.5970233" lon="10.732755"><ele>281.2</ele><time>2026-04-26T07:26:15.774Z</time></trkpt><trkpt lat="45.5970967" lon="10.7326333"><ele>284.4</ele><time>2026-04-26T07:26:16.773Z</time></trkpt><trkpt lat="45.597165" lon="10.7325283"><ele>287.59999999999997</ele><time>2026-04-26T07:26:17.774Z</time></trkpt><trkpt lat="45.5972267" lon="10.7324183"><ele>290.8</ele><time>2026-04-26T07:26:18.773Z</time></trkpt><trkpt lat="45.597285" lon="10.7323283"><ele>294.0</ele><time>2026-04-26T07:26:19.773Z</time></trkpt><trkpt lat="45.597345" lon="10.7322467"><ele>294.0</ele><time>2026-04-26T07:26:20.773Z</time></trkpt><trkpt lat="45.59738" lon="10.7321483"><ele>294.0</ele><time>2026-04-26T07:26:21.774Z</time></trkpt><trkpt lat="45.59741" lon="10.7320417"><ele>294.0</ele><time>2026-04-26T07:26:22.773Z</time></trkpt><trkpt lat="45.597425" lon="10.7319167"><ele>294.0</ele><time>2026-04-26T07:26:23.774Z</time></trkpt><trkpt lat="45.5974333" lon="10.73173"><ele>294.0</ele><time>2026-04-26T07:26:25.773Z</time></trkpt><trkpt lat="45.5974317" lon="10.7316067"><ele>291.59999999999997</ele><time>2026-04-26T07:26:27.773Z</time></trkpt><trkpt lat="45.597365" lon="10.7315333"><ele>289.2</ele><time>2026-04-26T07:26:30.774Z</time></trkpt><trkpt lat="45.5972983" lon="10.731565"><ele>286.79999999999995</ele><time>2026-04-26T07:26:31.773Z</time></trkpt><trkpt lat="45.59722" lon="10.73167"><ele>284.4</ele><time>2026-04-26T07:26:32.774Z</time></trkpt><trkpt lat="45.59712" lon="10.7318083"><ele>282.0</ele><time>2026-04-26T07:26:33.773Z</time></trkpt><trkpt lat="45.59699" lon="10.731995"><ele>278.6666666666667</ele><time>2026-04-26T07:26:34.773Z</time></trkpt><trkpt lat="45.5969033" lon="10.7321083"><ele>275.33333333333337</ele><time>2026-04-26T07:26:35.774Z</time></trkpt><trkpt lat="45.5967483" lon="10.7323683"><ele>272.0</ele><time>2026-04-26T07:26:36.774Z</time></trkpt><trkpt lat="45.5965367" lon="10.7326567"><ele>274.0</ele><time>2026-04-26T07:26:37.773Z</time></trkpt><trkpt lat="45.5963717" lon="10.732815"><ele>276.0</ele><time>2026-04-26T07:26:38.774Z</time></trkpt><trkpt lat="45.5962517" lon="10.7329233"><ele>278.0</ele><time>2026-04-26T07:26:39.773Z</time></trkpt><trkpt lat="45.596145" lon="10.7329817"><ele>273.25</ele><time>2026-04-26T07:26:40.774Z</time></trkpt><trkpt lat="45.5960567" lon="10.7328867"><ele>268.5</ele><time>2026-04-26T07:26:41.773Z</time></trkpt><trkpt lat="45.595955" lon="10.732795"><ele>263.75</ele><time>2026-04-26T07:26:42.773Z</time></trkpt><trkpt lat="45.5958617" lon="10.7326983"><ele>259.0</ele><time>2026-04-26T07:26:43.774Z</time></trkpt><trkpt lat="45.5957833" lon="10.7326"><ele>258.5</ele><time>2026-04-26T07:26:44.773Z</time></trkpt><trkpt lat="45.5957233" lon="10.7324467"><ele>258.0</ele><time>2026-04-26T07:26:45.774Z</time></trkpt><trkpt lat="45.59568" lon="10.73235"><ele>257.5</ele><time>2026-04-26T07:26:46.773Z</time></trkpt><trkpt lat="45.595655" lon="10.73225"><ele>257.0</ele><time>2026-04-26T07:26:47.773Z</time></trkpt><trkpt lat="45.5956383" lon="10.7321533"><ele>256.5</ele><time>2026-04-26T07:26:48.774Z</time></trkpt><trkpt lat="45.5956233" lon="10.73203"><ele>256.0</ele><time>2026-04-26T07:26:50.773Z</time></trkpt><trkpt lat="45.59561" lon="10.732145"><ele>255.99999999999997</ele><time>2026-04-26T07:26:55.773Z</time></trkpt><trkpt lat="45.5956367" lon="10.7322783"><ele>256.0</ele><time>2026-04-26T07:26:57.773Z</time></trkpt><trkpt lat="45.59562" lon="10.7324133"><ele>256.0</ele><time>2026-04-26T07:26:59.773Z</time></trkpt><trkpt lat="45.5955667" lon="10.7325417"><ele>256.0</ele><time>2026-04-26T07:27:01.773Z</time></trkpt><trkpt lat="45.5955333" lon="10.73265"><ele>255.99999999999997</ele><time>2026-04-26T07:27:03.773Z</time></trkpt><trkpt lat="45.595595" lon="10.7326933"><ele>256.0</ele><time>2026-04-26T07:27:36.773Z</time></trkpt><trkpt lat="45.595635" lon="10.7326033"><ele>256.0</ele><time>2026-04-26T07:27:38.774Z</time></trkpt><trkpt lat="45.5956917" lon="10.7325467"><ele>256.0</ele><time>2026-04-26T07:27:41.774Z</time></trkpt><trkpt lat="45.5957833" lon="10.7326233"><ele>256.0</ele><time>2026-04-26T07:27:44.774Z</time></trkpt><trkpt lat="45.5958717" lon="10.7327267"><ele>256.0</ele><time>2026-04-26T07:27:46.774Z</time></trkpt><trkpt lat="45.59596" lon="10.7328383"><ele>256.0</ele><time>2026-04-26T07:27:48.773Z</time></trkpt><trkpt lat="45.596015" lon="10.733005"><ele>256.5</ele><time>2026-04-26T07:27:50.773Z</time></trkpt><trkpt lat="45.596035" lon="10.733115"><ele>257.0</ele><time>2026-04-26T07:27:51.773Z</time></trkpt><trkpt lat="45.59604" lon="10.73325"><ele>257.5</ele><time>2026-04-26T07:27:52.773Z</time></trkpt><trkpt lat="45.59603" lon="10.7333767"><ele>258.0</ele><time>2026-04-26T07:27:53.773Z</time></trkpt><trkpt lat="45.59602" lon="10.7334767"><ele>258.5</ele><time>2026-04-26T07:27:54.773Z</time></trkpt><trkpt lat="45.5960033" lon="10.73363"><ele>259.0</ele><time>2026-04-26T07:27:56.773Z</time></trkpt><trkpt lat="45.5959783" lon="10.7337983"><ele>258.8333333333333</ele><time>2026-04-26T07:27:58.773Z</time></trkpt><trkpt lat="45.5959517" lon="10.7339283"><ele>258.66666666666663</ele><time>2026-04-26T07:27:59.773Z</time></trkpt><trkpt lat="45.59593" lon="10.7340317"><ele>258.5</ele><time>2026-04-26T07:28:00.773Z</time></trkpt><trkpt lat="45.5958967" lon="10.7341633"><ele>258.3333333333333</ele><time>2026-04-26T07:28:01.773Z</time></trkpt><trkpt lat="45.5958667" lon="10.7342867"><ele>258.1666666666667</ele><time>2026-04-26T07:28:02.773Z</time></trkpt><trkpt lat="45.5958467" lon="10.7343817"><ele>258.0</ele><time>2026-04-26T07:28:03.773Z</time></trkpt><trkpt lat="45.5958283" lon="10.73447"><ele>257.99999999999994</ele><time>2026-04-26T07:28:04.774Z</time></trkpt><trkpt lat="45.5958117" lon="10.7345617"><ele>258.0</ele><time>2026-04-26T07:28:05.774Z</time></trkpt><trkpt lat="45.5957967" lon="10.73465"><ele>258.0</ele><time>2026-04-26T07:28:06.774Z</time></trkpt><trkpt lat="45.5957767" lon="10.7347517"><ele>258.0</ele><time>2026-04-26T07:28:07.774Z</time></trkpt><trkpt lat="45.5957583" lon="10.73485"><ele>258.0</ele><time>2026-04-26T07:28:08.773Z</time></trkpt><trkpt lat="45.5957417" lon="10.73494"><ele>257.99999999999994</ele><time>2026-04-26T07:28:09.773Z</time></trkpt><trkpt lat="45.5957083" lon="10.7350483"><ele>258.0</ele><time>2026-04-26T07:28:11.773Z</time></trkpt><trkpt lat="45.5956717" lon="10.735155"><ele>256.1666666666667</ele><time>2026-04-26T07:28:13.774Z</time></trkpt><trkpt lat="45.59562" lon="10.7352383"><ele>254.33333333333331</ele><time>2026-04-26T07:28:15.773Z</time></trkpt><trkpt lat="45.59557" lon="10.7353283"><ele>252.5</ele><time>2026-04-26T07:28:17.773Z</time></trkpt><trkpt lat="45.595555" lon="10.735425"><ele>250.66666666666666</ele><time>2026-04-26T07:28:19.773Z</time></trkpt><trkpt lat="45.5955867" lon="10.7355133"><ele>248.83333333333331</ele><time>2026-04-26T07:28:21.773Z</time></trkpt><trkpt lat="45.59566" lon="10.735605"><ele>247.0</ele><time>2026-04-26T07:28:23.773Z</time></trkpt><trkpt lat="45.5957533" lon="10.7356867"><ele>246.99999999999997</ele><time>2026-04-26T07:28:25.774Z</time></trkpt><trkpt lat="45.595815" lon="10.7357717"><ele>247.0</ele><time>2026-04-26T07:28:27.774Z</time></trkpt><trkpt lat="45.595825" lon="10.7358817"><ele>247.0</ele><time>2026-04-26T07:28:29.773Z</time></trkpt><trkpt lat="45.5957467" lon="10.7359267"><ele>247.0</ele><time>2026-04-26T07:28:31.773Z</time></trkpt><trkpt lat="45.595675" lon="10.735905"><ele>246.99999999999997</ele><time>2026-04-26T07:28:33.773Z</time></trkpt><trkpt lat="45.5956" lon="10.7358433"><ele>247.0</ele><time>2026-04-26T07:28:35.773Z</time></trkpt><trkpt lat="45.5955083" lon="10.73578"><ele>247.0</ele><time>2026-04-26T07:28:37.773Z</time></trkpt><trkpt lat="45.5954283" lon="10.7357283"><ele>247.0</ele><time>2026-04-26T07:28:39.773Z</time></trkpt><trkpt lat="45.5953617" lon="10.73569"><ele>247.0</ele><time>2026-04-26T07:28:41.774Z</time></trkpt><trkpt lat="45.595295" lon="10.7356517"><ele>247.0</ele><time>2026-04-26T07:28:43.773Z</time></trkpt><trkpt lat="45.59523" lon="10.7356633"><ele>247.0</ele><time>2026-04-26T07:28:46.774Z</time></trkpt><trkpt lat="45.595255" lon="10.7357467"><ele>247.0</ele><time>2026-04-26T07:28:49.773Z</time></trkpt><trkpt lat="45.5952933" lon="10.7358283"><ele>247.0</ele><time>2026-04-26T07:28:51.772Z</time></trkpt><trkpt lat="45.5953283" lon="10.7359267"><ele>247.0</ele><time>2026-04-26T07:28:53.772Z</time></trkpt><trkpt lat="45.5953683" lon="10.7360467"><ele>247.0</ele><time>2026-04-26T07:28:55.773Z</time></trkpt><trkpt lat="45.5954" lon="10.7361717"><ele>247.0</ele><time>2026-04-26T07:28:57.773Z</time></trkpt><trkpt lat="45.5953933" lon="10.7363317"><ele>247.0</ele><time>2026-04-26T07:29:00.773Z</time></trkpt><trkpt lat="45.59531" lon="10.736465"><ele>247.0</ele><time>2026-04-26T07:29:02.772Z</time></trkpt><trkpt lat="45.59522" lon="10.7365833"><ele>245.39999999999998</ele><time>2026-04-26T07:29:04.772Z</time></trkpt><trkpt lat="45.595135" lon="10.7366633"><ele>243.79999999999998</ele><time>2026-04-26T07:29:06.772Z</time></trkpt><trkpt lat="45.5950317" lon="10.73667"><ele>242.2</ele><time>2026-04-26T07:29:08.773Z</time></trkpt><trkpt lat="45.594955" lon="10.73662"><ele>240.6</ele><time>2026-04-26T07:29:09.773Z</time></trkpt><trkpt lat="45.59488" lon="10.7365917"><ele>239.0</ele><time>2026-04-26T07:29:10.772Z</time></trkpt><trkpt lat="45.59475" lon="10.73651"><ele>239.00000000000003</ele><time>2026-04-26T07:29:12.772Z</time></trkpt><trkpt lat="45.5946833" lon="10.7364717"><ele>239.0</ele><time>2026-04-26T07:29:13.772Z</time></trkpt><trkpt lat="45.59462" lon="10.73643"><ele>239.0</ele><time>2026-04-26T07:29:14.773Z</time></trkpt><trkpt lat="45.5945633" lon="10.73639"><ele>239.0</ele><time>2026-04-26T07:29:15.772Z</time></trkpt><trkpt lat="45.5944983" lon="10.7363583"><ele>239.00000000000003</ele><time>2026-04-26T07:29:16.773Z</time></trkpt><trkpt lat="45.5944317" lon="10.73633"><ele>239.0</ele><time>2026-04-26T07:29:17.772Z</time></trkpt><trkpt lat="45.5943283" lon="10.73627"><ele>239.83333333333334</ele><time>2026-04-26T07:29:19.772Z</time></trkpt><trkpt lat="45.594245" lon="10.7362067"><ele>240.66666666666669</ele><time>2026-04-26T07:29:21.773Z</time></trkpt><trkpt lat="45.5941867" lon="10.7361417"><ele>241.5</ele><time>2026-04-26T07:29:24.772Z</time></trkpt><trkpt lat="45.594115" lon="10.7361033"><ele>242.33333333333331</ele><time>2026-04-26T07:29:36.772Z</time></trkpt><trkpt lat="45.5940783" lon="10.73618"><ele>243.16666666666666</ele><time>2026-04-26T07:29:39.773Z</time></trkpt><trkpt lat="45.5941567" lon="10.73634"><ele>244.0</ele><time>2026-04-26T07:29:41.772Z</time></trkpt><trkpt lat="45.5942283" lon="10.7364483"><ele>244.0</ele><time>2026-04-26T07:29:42.772Z</time></trkpt><trkpt lat="45.5943017" lon="10.7365433"><ele>243.99999999999997</ele><time>2026-04-26T07:29:43.772Z</time></trkpt><trkpt lat="45.5943733" lon="10.7366467"><ele>243.99999999999997</ele><time>2026-04-26T07:29:44.772Z</time></trkpt><trkpt lat="45.5944533" lon="10.7367567"><ele>244.0</ele><time>2026-04-26T07:29:45.772Z</time></trkpt><trkpt lat="45.5945217" lon="10.7368583"><ele>244.0</ele><time>2026-04-26T07:29:46.772Z</time></trkpt><trkpt lat="45.5945983" lon="10.7369633"><ele>244.39999999999998</ele><time>2026-04-26T07:29:47.772Z</time></trkpt><trkpt lat="45.594675" lon="10.7370667"><ele>244.79999999999998</ele><time>2026-04-26T07:29:48.772Z</time></trkpt><trkpt lat="45.594755" lon="10.7371683"><ele>245.20000000000002</ele><time>2026-04-26T07:29:49.772Z</time></trkpt><trkpt lat="45.594835" lon="10.737265"><ele>245.60000000000002</ele><time>2026-04-26T07:29:50.772Z</time></trkpt><trkpt lat="45.5949133" lon="10.737375"><ele>246.0</ele><time>2026-04-26T07:29:51.772Z</time></trkpt><trkpt lat="45.5949883" lon="10.7374917"><ele>246.0</ele><time>2026-04-26T07:29:52.772Z</time></trkpt><trkpt lat="45.5950583" lon="10.73759"><ele>246.00000000000003</ele><time>2026-04-26T07:29:53.772Z</time></trkpt><trkpt lat="45.59512" lon="10.7376733"><ele>246.00000000000003</ele><time>2026-04-26T07:29:54.772Z</time></trkpt><trkpt lat="45.5951683" lon="10.7377667"><ele>246.0</ele><time>2026-04-26T07:29:55.773Z</time></trkpt><trkpt lat="45.5952067" lon="10.7378567"><ele>246.0</ele><time>2026-04-26T07:29:56.773Z</time></trkpt><trkpt lat="45.5952617" lon="10.73802"><ele>246.00000000000003</ele><time>2026-04-26T07:29:58.772Z</time></trkpt><trkpt lat="45.595295" lon="10.7381117"><ele>246.0</ele><time>2026-04-26T07:29:59.772Z</time></trkpt><trkpt lat="45.5953267" lon="10.7382083"><ele>246.00000000000003</ele><time>2026-04-26T07:30:00.772Z</time></trkpt><trkpt lat="45.595355" lon="10.738305"><ele>246.00000000000003</ele><time>2026-04-26T07:30:01.772Z</time></trkpt><trkpt lat="45.5953783" lon="10.7383917"><ele>246.0</ele><time>2026-04-26T07:30:02.772Z</time></trkpt><trkpt lat="45.5954017" lon="10.7384783"><ele>246.00000000000003</ele><time>2026-04-26T07:30:03.772Z</time></trkpt><trkpt lat="45.59543" lon="10.7385983"><ele>246.00000000000003</ele><time>2026-04-26T07:30:05.773Z</time></trkpt><trkpt lat="45.5954533" lon="10.7386917"><ele>246.0</ele><time>2026-04-26T07:30:07.773Z</time></trkpt><trkpt lat="45.5954733" lon="10.73885"><ele>246.0</ele><time>2026-04-26T07:30:19.772Z</time></trkpt><trkpt lat="45.5955467" lon="10.739015"><ele>246.0</ele><time>2026-04-26T07:30:21.773Z</time></trkpt><trkpt lat="45.5956183" lon="10.7391667"><ele>246.0</ele><time>2026-04-26T07:30:22.772Z</time></trkpt><trkpt lat="45.5956767" lon="10.7393183"><ele>245.60000000000002</ele><time>2026-04-26T07:30:23.772Z</time></trkpt><trkpt lat="45.5957283" lon="10.7394633"><ele>245.20000000000002</ele><time>2026-04-26T07:30:24.772Z</time></trkpt><trkpt lat="45.5957733" lon="10.7396067"><ele>244.79999999999998</ele><time>2026-04-26T07:30:25.773Z</time></trkpt><trkpt lat="45.59581" lon="10.7397433"><ele>244.39999999999998</ele><time>2026-04-26T07:30:26.772Z</time></trkpt><trkpt lat="45.5958467" lon="10.7398667"><ele>244.0</ele><time>2026-04-26T07:30:27.772Z</time></trkpt><trkpt lat="45.59588" lon="10.7399783"><ele>244.0</ele><time>2026-04-26T07:30:28.772Z</time></trkpt><trkpt lat="45.5959183" lon="10.7400917"><ele>243.99999999999997</ele><time>2026-04-26T07:30:29.772Z</time></trkpt><trkpt lat="45.5959667" lon="10.7402067"><ele>243.99999999999997</ele><time>2026-04-26T07:30:30.772Z</time></trkpt><trkpt lat="45.5960033" lon="10.740325"><ele>244.0</ele><time>2026-04-26T07:30:31.773Z</time></trkpt><trkpt lat="45.596055" lon="10.740455"><ele>244.0</ele><time>2026-04-26T07:30:32.773Z</time></trkpt><trkpt lat="45.596095" lon="10.74058"><ele>243.83333333333331</ele><time>2026-04-26T07:30:33.772Z</time></trkpt><trkpt lat="45.5961233" lon="10.7407017"><ele>243.66666666666666</ele><time>2026-04-26T07:30:34.772Z</time></trkpt><trkpt lat="45.5961533" lon="10.7408183"><ele>243.5</ele><time>2026-04-26T07:30:35.772Z</time></trkpt><trkpt lat="45.5961867" lon="10.7409217"><ele>243.33333333333331</ele><time>2026-04-26T07:30:36.773Z</time></trkpt><trkpt lat="45.5962267" lon="10.7410233"><ele>243.16666666666666</ele><time>2026-04-26T07:30:37.772Z</time></trkpt><trkpt lat="45.5962617" lon="10.7411217"><ele>243.0</ele><time>2026-04-26T07:30:38.772Z</time></trkpt><trkpt lat="45.5963033" lon="10.7412333"><ele>243.5</ele><time>2026-04-26T07:30:39.773Z</time></trkpt><trkpt lat="45.59635" lon="10.7413467"><ele>244.0</ele><time>2026-04-26T07:30:40.772Z</time></trkpt><trkpt lat="45.596395" lon="10.74145"><ele>244.5</ele><time>2026-04-26T07:30:41.772Z</time></trkpt><trkpt lat="45.596435" lon="10.741535"><ele>245.0</ele><time>2026-04-26T07:30:42.772Z</time></trkpt><trkpt lat="45.596485" lon="10.7416083"><ele>245.5</ele><time>2026-04-26T07:30:43.772Z</time></trkpt><trkpt lat="45.5965383" lon="10.7416667"><ele>246.0</ele><time>2026-04-26T07:30:44.772Z</time></trkpt><trkpt lat="45.596645" lon="10.7417133"><ele>246.0</ele><time>2026-04-26T07:30:46.773Z</time></trkpt><trkpt lat="45.5967233" lon="10.741785"><ele>246.00000000000003</ele><time>2026-04-26T07:30:48.772Z</time></trkpt><trkpt lat="45.5967767" lon="10.741935"><ele>246.00000000000003</ele><time>2026-04-26T07:30:50.772Z</time></trkpt><trkpt lat="45.5968067" lon="10.7420283"><ele>246.0</ele><time>2026-04-26T07:30:51.773Z</time></trkpt><trkpt lat="45.5968467" lon="10.7421283"><ele>246.0</ele><time>2026-04-26T07:30:52.772Z</time></trkpt><trkpt lat="45.5968917" lon="10.7422367"><ele>246.0</ele><time>2026-04-26T07:30:53.772Z</time></trkpt><trkpt lat="45.596935" lon="10.742325"><ele>246.00000000000003</ele><time>2026-04-26T07:30:54.773Z</time></trkpt><trkpt lat="45.5969783" lon="10.7424217"><ele>246.00000000000003</ele><time>2026-04-26T07:30:55.772Z</time></trkpt><trkpt lat="45.5970683" lon="10.7425883"><ele>246.0</ele><time>2026-04-26T07:30:57.772Z</time></trkpt><trkpt lat="45.5971183" lon="10.7426683"><ele>246.0</ele><time>2026-04-26T07:30:58.773Z</time></trkpt><trkpt lat="45.59717" lon="10.7427433"><ele>247.0</ele><time>2026-04-26T07:30:59.772Z</time></trkpt><trkpt lat="45.5972233" lon="10.7428167"><ele>248.0</ele><time>2026-04-26T07:31:00.772Z</time></trkpt><trkpt lat="45.597285" lon="10.74289"><ele>249.0</ele><time>2026-04-26T07:31:01.773Z</time></trkpt><trkpt lat="45.597335" lon="10.7429583"><ele>250.0</ele><time>2026-04-26T07:31:02.773Z</time></trkpt><trkpt lat="45.597385" lon="10.7430817"><ele>251.0</ele><time>2026-04-26T07:31:04.773Z</time></trkpt><trkpt lat="45.5974033" lon="10.7432417"><ele>252.0</ele><time>2026-04-26T07:31:06.772Z</time></trkpt><trkpt lat="45.5974167" lon="10.7433367"><ele>252.0</ele><time>2026-04-26T07:31:07.773Z</time></trkpt><trkpt lat="45.5974083" lon="10.743445"><ele>252.0</ele><time>2026-04-26T07:31:08.773Z</time></trkpt><trkpt lat="45.5974" lon="10.7435583"><ele>252.0</ele><time>2026-04-26T07:31:09.773Z</time></trkpt><trkpt lat="45.597385" lon="10.7436633"><ele>252.0</ele><time>2026-04-26T07:31:10.773Z</time></trkpt><trkpt lat="45.59738" lon="10.7437933"><ele>252.0</ele><time>2026-04-26T07:31:11.772Z</time></trkpt><trkpt lat="45.59737" lon="10.7439067"><ele>252.0</ele><time>2026-04-26T07:31:12.772Z</time></trkpt><trkpt lat="45.5973667" lon="10.744015"><ele>251.5</ele><time>2026-04-26T07:31:13.773Z</time></trkpt><trkpt lat="45.5973717" lon="10.74413"><ele>251.0</ele><time>2026-04-26T07:31:14.772Z</time></trkpt><trkpt lat="45.5973717" lon="10.7442467"><ele>250.5</ele><time>2026-04-26T07:31:15.772Z</time></trkpt><trkpt lat="45.5973767" lon="10.744355"><ele>250.0</ele><time>2026-04-26T07:31:16.773Z</time></trkpt><trkpt lat="45.597385" lon="10.74448"><ele>249.5</ele><time>2026-04-26T07:31:17.772Z</time></trkpt><trkpt lat="45.5974" lon="10.7445983"><ele>249.0</ele><time>2026-04-26T07:31:18.772Z</time></trkpt><trkpt lat="45.5974233" lon="10.7447067"><ele>248.5</ele><time>2026-04-26T07:31:19.772Z</time></trkpt><trkpt lat="45.59743" lon="10.7448017"><ele>248.0</ele><time>2026-04-26T07:31:20.772Z</time></trkpt><trkpt lat="45.5974333" lon="10.74491"><ele>247.5</ele><time>2026-04-26T07:31:21.772Z</time></trkpt><trkpt lat="45.5974333" lon="10.7450067"><ele>247.0</ele><time>2026-04-26T07:31:22.772Z</time></trkpt><trkpt lat="45.5974217" lon="10.7450983"><ele>246.5</ele><time>2026-04-26T07:31:23.772Z</time></trkpt><trkpt lat="45.597405" lon="10.74524"><ele>246.0</ele><time>2026-04-26T07:31:24.772Z</time></trkpt><trkpt lat="45.59738" lon="10.74538"><ele>245.5</ele><time>2026-04-26T07:31:25.772Z</time></trkpt><trkpt lat="45.5973567" lon="10.74551"><ele>245.0</ele><time>2026-04-26T07:31:26.772Z</time></trkpt><trkpt lat="45.5973333" lon="10.7456283"><ele>244.5</ele><time>2026-04-26T07:31:27.772Z</time></trkpt><trkpt lat="45.597315" lon="10.7457417"><ele>244.0</ele><time>2026-04-26T07:31:28.773Z</time></trkpt><trkpt lat="45.5972983" lon="10.745855"><ele>243.5</ele><time>2026-04-26T07:31:29.772Z</time></trkpt><trkpt lat="45.59729" lon="10.7459617"><ele>243.0</ele><time>2026-04-26T07:31:30.773Z</time></trkpt><trkpt lat="45.5972833" lon="10.74607"><ele>243.0</ele><time>2026-04-26T07:31:31.772Z</time></trkpt><trkpt lat="45.597285" lon="10.7461717"><ele>243.0</ele><time>2026-04-26T07:31:32.772Z</time></trkpt><trkpt lat="45.5972783" lon="10.7463083"><ele>243.0</ele><time>2026-04-26T07:31:33.772Z</time></trkpt><trkpt lat="45.5972783" lon="10.7464617"><ele>243.0</ele><time>2026-04-26T07:31:35.772Z</time></trkpt><trkpt lat="45.5972417" lon="10.7465733"><ele>243.0</ele><time>2026-04-26T07:31:40.772Z</time></trkpt><trkpt lat="45.5972167" lon="10.746675"><ele>243.0</ele><time>2026-04-26T07:31:42.773Z</time></trkpt><trkpt lat="45.5972083" lon="10.7467917"><ele>243.0</ele><time>2026-04-26T07:31:44.772Z</time></trkpt><trkpt lat="45.5971967" lon="10.74689"><ele>243.0</ele><time>2026-04-26T07:31:45.772Z</time></trkpt><trkpt lat="45.5971817" lon="10.7470033"><ele>243.0</ele><time>2026-04-26T07:31:46.773Z</time></trkpt><trkpt lat="45.5971667" lon="10.7471117"><ele>243.0</ele><time>2026-04-26T07:31:47.773Z</time></trkpt><trkpt lat="45.5971567" lon="10.7472283"><ele>243.0</ele><time>2026-04-26T07:31:48.773Z</time></trkpt><trkpt lat="45.5971383" lon="10.7473417"><ele>243.0</ele><time>2026-04-26T07:31:49.772Z</time></trkpt><trkpt lat="45.5971267" lon="10.7474417"><ele>243.0</ele><time>2026-04-26T07:31:50.772Z</time></trkpt><trkpt lat="45.5971183" lon="10.7475333"><ele>243.0</ele><time>2026-04-26T07:31:51.772Z</time></trkpt><trkpt lat="45.5971117" lon="10.7476267"><ele>243.0</ele><time>2026-04-26T07:31:52.772Z</time></trkpt><trkpt lat="45.5971033" lon="10.747725"><ele>243.0</ele><time>2026-04-26T07:31:53.772Z</time></trkpt><trkpt lat="45.5970933" lon="10.7478367"><ele>243.0</ele><time>2026-04-26T07:31:54.773Z</time></trkpt><trkpt lat="45.597085" lon="10.7479567"><ele>243.0</ele><time>2026-04-26T07:31:55.772Z</time></trkpt><trkpt lat="45.597075" lon="10.7481167"><ele>243.0</ele><time>2026-04-26T07:31:56.773Z</time></trkpt><trkpt lat="45.59706" lon="10.7483067"><ele>243.0</ele><time>2026-04-26T07:31:57.772Z</time></trkpt><trkpt lat="45.597045" lon="10.7484833"><ele>243.0</ele><time>2026-04-26T07:31:58.773Z</time></trkpt><trkpt lat="45.5970167" lon="10.7486467"><ele>243.0</ele><time>2026-04-26T07:31:59.772Z</time></trkpt><trkpt lat="45.5969733" lon="10.7487767"><ele>242.0</ele><time>2026-04-26T07:32:00.773Z</time></trkpt><trkpt lat="45.59693" lon="10.7489017"><ele>241.0</ele><time>2026-04-26T07:32:01.772Z</time></trkpt><trkpt lat="45.596885" lon="10.7490367"><ele>240.0</ele><time>2026-04-26T07:32:02.773Z</time></trkpt><trkpt lat="45.5968483" lon="10.74917"><ele>239.0</ele><time>2026-04-26T07:32:03.772Z</time></trkpt><trkpt lat="45.5968133" lon="10.7493083"><ele>238.0</ele><time>2026-04-26T07:32:04.773Z</time></trkpt><trkpt lat="45.5967683" lon="10.749435"><ele>238.0</ele><time>2026-04-26T07:32:05.772Z</time></trkpt><trkpt lat="45.5967283" lon="10.7496133"><ele>238.0</ele><time>2026-04-26T07:32:06.772Z</time></trkpt><trkpt lat="45.5966933" lon="10.74976"><ele>238.0</ele><time>2026-04-26T07:32:07.772Z</time></trkpt><trkpt lat="45.5966533" lon="10.7498983"><ele>238.0</ele><time>2026-04-26T07:32:08.773Z</time></trkpt><trkpt lat="45.5966017" lon="10.750025"><ele>238.0</ele><time>2026-04-26T07:32:09.772Z</time></trkpt><trkpt lat="45.59655" lon="10.7501533"><ele>238.2</ele><time>2026-04-26T07:32:10.772Z</time></trkpt><trkpt lat="45.5964967" lon="10.750295"><ele>238.4</ele><time>2026-04-26T07:32:11.773Z</time></trkpt><trkpt lat="45.59645" lon="10.75042"><ele>238.59999999999997</ele><time>2026-04-26T07:32:12.772Z</time></trkpt><trkpt lat="45.5964083" lon="10.7505483"><ele>238.79999999999998</ele><time>2026-04-26T07:32:13.772Z</time></trkpt><trkpt lat="45.59637" lon="10.75067"><ele>239.0</ele><time>2026-04-26T07:32:14.771Z</time></trkpt><trkpt lat="45.5963317" lon="10.7508167"><ele>239.00000000000003</ele><time>2026-04-26T07:32:15.771Z</time></trkpt><trkpt lat="45.5963117" lon="10.7509433"><ele>239.0</ele><time>2026-04-26T07:32:16.771Z</time></trkpt><trkpt lat="45.5962967" lon="10.7510783"><ele>239.0</ele><time>2026-04-26T07:32:17.771Z</time></trkpt><trkpt lat="45.5962717" lon="10.7512183"><ele>239.0</ele><time>2026-04-26T07:32:18.772Z</time></trkpt><trkpt lat="45.59625" lon="10.75134"><ele>239.00000000000003</ele><time>2026-04-26T07:32:19.772Z</time></trkpt><trkpt lat="45.5962317" lon="10.751435"><ele>239.0</ele><time>2026-04-26T07:32:20.771Z</time></trkpt><trkpt lat="45.5961917" lon="10.7515883"><ele>237.6</ele><time>2026-04-26T07:32:22.772Z</time></trkpt><trkpt lat="45.5961567" lon="10.7516733"><ele>236.2</ele><time>2026-04-26T07:32:23.772Z</time></trkpt><trkpt lat="45.596115" lon="10.751775"><ele>234.79999999999998</ele><time>2026-04-26T07:32:24.772Z</time></trkpt><trkpt lat="45.5960667" lon="10.7519083"><ele>233.39999999999998</ele><time>2026-04-26T07:32:25.772Z</time></trkpt><trkpt lat="45.596015" lon="10.75203"><ele>232.0</ele><time>2026-04-26T07:32:26.771Z</time></trkpt><trkpt lat="45.595955" lon="10.7521367"><ele>232.0</ele><time>2026-04-26T07:32:27.772Z</time></trkpt><trkpt lat="45.5958867" lon="10.7522467"><ele>232.0</ele><time>2026-04-26T07:32:28.771Z</time></trkpt><trkpt lat="45.5958167" lon="10.7523433"><ele>232.0</ele><time>2026-04-26T07:32:29.771Z</time></trkpt><trkpt lat="45.5957483" lon="10.752445"><ele>232.0</ele><time>2026-04-26T07:32:30.772Z</time></trkpt><trkpt lat="45.5956867" lon="10.752525"><ele>232.0</ele><time>2026-04-26T07:32:31.771Z</time></trkpt><trkpt lat="45.5956383" lon="10.7525933"><ele>231.99999999999997</ele><time>2026-04-26T07:32:32.771Z</time></trkpt><trkpt lat="45.5955883" lon="10.7526667"><ele>232.0</ele><time>2026-04-26T07:32:34.771Z</time></trkpt><trkpt lat="45.5955783" lon="10.7527583"><ele>232.0</ele><time>2026-04-26T07:32:37.771Z</time></trkpt><trkpt lat="45.5956583" lon="10.7528183"><ele>232.0</ele><time>2026-04-26T07:32:39.772Z</time></trkpt><trkpt lat="45.5957167" lon="10.752865"><ele>231.99999999999997</ele><time>2026-04-26T07:32:40.771Z</time></trkpt><trkpt lat="45.5957867" lon="10.75297"><ele>232.0</ele><time>2026-04-26T07:32:42.771Z</time></trkpt><trkpt lat="45.5956967" lon="10.7530867"><ele>232.33333333333331</ele><time>2026-04-26T07:32:44.771Z</time></trkpt><trkpt lat="45.5956383" lon="10.7531233"><ele>232.66666666666666</ele><time>2026-04-26T07:32:45.772Z</time></trkpt><trkpt lat="45.5955417" lon="10.75316"><ele>233.0</ele><time>2026-04-26T07:32:46.771Z</time></trkpt><trkpt lat="45.5954433" lon="10.7531917"><ele>233.33333333333331</ele><time>2026-04-26T07:32:47.771Z</time></trkpt><trkpt lat="45.5953683" lon="10.753215"><ele>233.66666666666666</ele><time>2026-04-26T07:32:48.772Z</time></trkpt><trkpt lat="45.5953117" lon="10.7533117"><ele>234.0</ele><time>2026-04-26T07:32:50.771Z</time></trkpt><trkpt lat="45.5953317" lon="10.75343"><ele>232.83333333333334</ele><time>2026-04-26T07:33:03.772Z</time></trkpt><trkpt lat="45.5953267" lon="10.7533333"><ele>231.66666666666669</ele><time>2026-04-26T07:33:16.772Z</time></trkpt><trkpt lat="45.595215" lon="10.7533383"><ele>230.5</ele><time>2026-04-26T07:33:19.771Z</time></trkpt><trkpt lat="45.5951567" lon="10.7533833"><ele>229.33333333333334</ele><time>2026-04-26T07:33:20.772Z</time></trkpt><trkpt lat="45.595095" lon="10.753445"><ele>228.16666666666669</ele><time>2026-04-26T07:33:21.772Z</time></trkpt><trkpt lat="45.5950233" lon="10.7535117"><ele>227.0</ele><time>2026-04-26T07:33:22.772Z</time></trkpt><trkpt lat="45.59493" lon="10.7535917"><ele>227.0</ele><time>2026-04-26T07:33:23.771Z</time></trkpt><trkpt lat="45.594815" lon="10.7536883"><ele>227.0</ele><time>2026-04-26T07:33:24.771Z</time></trkpt><trkpt lat="45.594675" lon="10.75379"><ele>227.0</ele><time>2026-04-26T07:33:25.771Z</time></trkpt><trkpt lat="45.59453" lon="10.7539033"><ele>226.33333333333334</ele><time>2026-04-26T07:33:26.772Z</time></trkpt><trkpt lat="45.5943917" lon="10.754"><ele>225.66666666666669</ele><time>2026-04-26T07:33:27.771Z</time></trkpt><trkpt lat="45.5942567" lon="10.7540933"><ele>225.0</ele><time>2026-04-26T07:33:28.771Z</time></trkpt><trkpt lat="45.5941233" lon="10.7541967"><ele>225.0</ele><time>2026-04-26T07:33:29.772Z</time></trkpt><trkpt lat="45.5939917" lon="10.7543017"><ele>225.0</ele><time>2026-04-26T07:33:30.771Z</time></trkpt><trkpt lat="45.59386" lon="10.7543983"><ele>225.0</ele><time>2026-04-26T07:33:31.771Z</time></trkpt><trkpt lat="45.5937333" lon="10.7544967"><ele>225.0</ele><time>2026-04-26T07:33:32.772Z</time></trkpt><trkpt lat="45.5936067" lon="10.754595"><ele>224.0</ele><time>2026-04-26T07:33:33.771Z</time></trkpt><trkpt lat="45.5934817" lon="10.7546967"><ele>223.0</ele><time>2026-04-26T07:33:34.771Z</time></trkpt><trkpt lat="45.5933583" lon="10.7548033"><ele>222.0</ele><time>2026-04-26T07:33:35.771Z</time></trkpt><trkpt lat="45.593235" lon="10.7549033"><ele>221.0</ele><time>2026-04-26T07:33:36.772Z</time></trkpt><trkpt lat="45.59312" lon="10.755"><ele>221.0</ele><time>2026-04-26T07:33:37.772Z</time></trkpt><trkpt lat="45.5929933" lon="10.7551083"><ele>221.0</ele><time>2026-04-26T07:33:38.772Z</time></trkpt><trkpt lat="45.59287" lon="10.755195"><ele>221.0</ele><time>2026-04-26T07:33:39.771Z</time></trkpt><trkpt lat="45.59274" lon="10.7552933"><ele>221.0</ele><time>2026-04-26T07:33:40.771Z</time></trkpt><trkpt lat="45.592615" lon="10.7553967"><ele>219.33333333333334</ele><time>2026-04-26T07:33:41.771Z</time></trkpt><trkpt lat="45.5924833" lon="10.7555033"><ele>217.66666666666669</ele><time>2026-04-26T07:33:42.771Z</time></trkpt><trkpt lat="45.5923333" lon="10.7556117"><ele>216.0</ele><time>2026-04-26T07:33:43.771Z</time></trkpt><trkpt lat="45.5921883" lon="10.755725"><ele>216.0</ele><time>2026-04-26T07:33:44.771Z</time></trkpt><trkpt lat="45.5920383" lon="10.7558467"><ele>216.0</ele><time>2026-04-26T07:33:45.771Z</time></trkpt><trkpt lat="45.591895" lon="10.75596"><ele>216.0</ele><time>2026-04-26T07:33:46.771Z</time></trkpt><trkpt lat="45.59175" lon="10.7560583"><ele>216.0</ele><time>2026-04-26T07:33:47.771Z</time></trkpt><trkpt lat="45.5916083" lon="10.75616"><ele>216.0</ele><time>2026-04-26T07:33:48.772Z</time></trkpt><trkpt lat="45.5914667" lon="10.7562633"><ele>216.0</ele><time>2026-04-26T07:33:49.772Z</time></trkpt><trkpt lat="45.59134" lon="10.7563617"><ele>216.0</ele><time>2026-04-26T07:33:50.772Z</time></trkpt><trkpt lat="45.591215" lon="10.75646"><ele>216.0</ele><time>2026-04-26T07:33:51.771Z</time></trkpt><trkpt lat="45.5910967" lon="10.7565533"><ele>216.0</ele><time>2026-04-26T07:33:52.771Z</time></trkpt><trkpt lat="45.5909867" lon="10.7566383"><ele>216.0</ele><time>2026-04-26T07:33:53.771Z</time></trkpt><trkpt lat="45.590885" lon="10.7567183"><ele>215.83333333333334</ele><time>2026-04-26T07:33:54.771Z</time></trkpt><trkpt lat="45.590785" lon="10.7567633"><ele>215.66666666666669</ele><time>2026-04-26T07:33:55.772Z</time></trkpt><trkpt lat="45.590685" lon="10.7567717"><ele>215.5</ele><time>2026-04-26T07:33:56.771Z</time></trkpt><trkpt lat="45.590595" lon="10.756765"><ele>215.33333333333334</ele><time>2026-04-26T07:33:57.771Z</time></trkpt><trkpt lat="45.5905167" lon="10.7567867"><ele>215.16666666666669</ele><time>2026-04-26T07:33:58.771Z</time></trkpt><trkpt lat="45.590455" lon="10.7568433"><ele>215.0</ele><time>2026-04-26T07:33:59.771Z</time></trkpt><trkpt lat="45.5904117" lon="10.7569183"><ele>215.0</ele><time>2026-04-26T07:34:00.771Z</time></trkpt><trkpt lat="45.5904383" lon="10.7570067"><ele>215.0</ele><time>2026-04-26T07:34:01.771Z</time></trkpt><trkpt lat="45.5904833" lon="10.757105"><ele>215.0</ele><time>2026-04-26T07:34:02.772Z</time></trkpt><trkpt lat="45.5905567" lon="10.75721"><ele>215.0</ele><time>2026-04-26T07:34:03.771Z</time></trkpt><trkpt lat="45.5906783" lon="10.7573733"><ele>215.0</ele><time>2026-04-26T07:34:04.771Z</time></trkpt><trkpt lat="45.590775" lon="10.7575767"><ele>214.33333333333334</ele><time>2026-04-26T07:34:05.771Z</time></trkpt><trkpt lat="45.5908817" lon="10.7578233"><ele>213.66666666666669</ele><time>2026-04-26T07:34:06.771Z</time></trkpt><trkpt lat="45.590995" lon="10.758085"><ele>213.0</ele><time>2026-04-26T07:34:07.772Z</time></trkpt><trkpt lat="45.5911017" lon="10.75836"><ele>213.0</ele><time>2026-04-26T07:34:08.771Z</time></trkpt><trkpt lat="45.591215" lon="10.7586333"><ele>213.0</ele><time>2026-04-26T07:34:09.771Z</time></trkpt><trkpt lat="45.591315" lon="10.7589233"><ele>213.0</ele><time>2026-04-26T07:34:10.771Z</time></trkpt><trkpt lat="45.59142" lon="10.7591933"><ele>213.33333333333331</ele><time>2026-04-26T07:34:11.771Z</time></trkpt><trkpt lat="45.5915167" lon="10.75944"><ele>213.66666666666666</ele><time>2026-04-26T07:34:12.772Z</time></trkpt><trkpt lat="45.5916117" lon="10.75971"><ele>214.0</ele><time>2026-04-26T07:34:13.771Z</time></trkpt><trkpt lat="45.591705" lon="10.7599667"><ele>214.0</ele><time>2026-04-26T07:34:14.771Z</time></trkpt><trkpt lat="45.591805" lon="10.7602067"><ele>214.0</ele><time>2026-04-26T07:34:15.771Z</time></trkpt><trkpt lat="45.591905" lon="10.760455"><ele>214.0</ele><time>2026-04-26T07:34:16.772Z</time></trkpt><trkpt lat="45.5920017" lon="10.760705"><ele>214.0</ele><time>2026-04-26T07:34:17.772Z</time></trkpt><trkpt lat="45.59209" lon="10.760945"><ele>214.0</ele><time>2026-04-26T07:34:18.772Z</time></trkpt><trkpt lat="45.5921783" lon="10.761185"><ele>214.0</ele><time>2026-04-26T07:34:19.771Z</time></trkpt><trkpt lat="45.5922667" lon="10.7614167"><ele>214.0</ele><time>2026-04-26T07:34:20.771Z</time></trkpt><trkpt lat="45.5923583" lon="10.7616483"><ele>214.0</ele><time>2026-04-26T07:34:21.771Z</time></trkpt><trkpt lat="45.5924433" lon="10.76189"><ele>214.0</ele><time>2026-04-26T07:34:22.771Z</time></trkpt><trkpt lat="45.5925267" lon="10.762115"><ele>214.0</ele><time>2026-04-26T07:34:23.771Z</time></trkpt><trkpt lat="45.5926083" lon="10.7623483"><ele>214.0</ele><time>2026-04-26T07:34:24.771Z</time></trkpt><trkpt lat="45.5926933" lon="10.7625817"><ele>214.0</ele><time>2026-04-26T07:34:25.771Z</time></trkpt><trkpt lat="45.5927733" lon="10.7627917"><ele>214.5</ele><time>2026-04-26T07:34:26.772Z</time></trkpt><trkpt lat="45.59285" lon="10.76298"><ele>215.0</ele><time>2026-04-26T07:34:27.772Z</time></trkpt><trkpt lat="45.592925" lon="10.7631517"><ele>215.5</ele><time>2026-04-26T07:34:28.772Z</time></trkpt><trkpt lat="45.5929883" lon="10.76333"><ele>216.0</ele><time>2026-04-26T07:34:29.771Z</time></trkpt><trkpt lat="45.5930417" lon="10.7634817"><ele>216.0</ele><time>2026-04-26T07:34:30.772Z</time></trkpt><trkpt lat="45.593085" lon="10.7636217"><ele>216.00000000000003</ele><time>2026-04-26T07:34:31.772Z</time></trkpt><trkpt lat="45.5931283" lon="10.7637383"><ele>216.00000000000003</ele><time>2026-04-26T07:34:32.771Z</time></trkpt><trkpt lat="45.593165" lon="10.7638317"><ele>216.0</ele><time>2026-04-26T07:34:33.772Z</time></trkpt><trkpt lat="45.5931183" lon="10.76394"><ele>216.0</ele><time>2026-04-26T07:34:36.771Z</time></trkpt><trkpt lat="45.5930233" lon="10.76402"><ele>216.0</ele><time>2026-04-26T07:34:38.771Z</time></trkpt><trkpt lat="45.5929633" lon="10.76408"><ele>216.0</ele><time>2026-04-26T07:34:39.771Z</time></trkpt><trkpt lat="45.5929017" lon="10.76414"><ele>216.0</ele><time>2026-04-26T07:34:40.772Z</time></trkpt><trkpt lat="45.592845" lon="10.7642"><ele>216.0</ele><time>2026-04-26T07:34:41.772Z</time></trkpt><trkpt lat="45.59279" lon="10.7642683"><ele>216.0</ele><time>2026-04-26T07:34:42.772Z</time></trkpt><trkpt lat="45.592715" lon="10.7643983"><ele>216.0</ele><time>2026-04-26T07:34:44.771Z</time></trkpt><trkpt lat="45.5926383" lon="10.7645217"><ele>216.0</ele><time>2026-04-26T07:34:46.772Z</time></trkpt><trkpt lat="45.592615" lon="10.764675"><ele>216.0</ele><time>2026-04-26T07:34:48.771Z</time></trkpt><trkpt lat="45.5926283" lon="10.7648117"><ele>216.0</ele><time>2026-04-26T07:34:50.772Z</time></trkpt><trkpt lat="45.59261" lon="10.764945"><ele>216.0</ele><time>2026-04-26T07:34:52.771Z</time></trkpt><trkpt lat="45.5925783" lon="10.765025"><ele>216.0</ele><time>2026-04-26T07:34:53.771Z</time></trkpt><trkpt lat="45.5925367" lon="10.765125"><ele>216.0</ele><time>2026-04-26T07:34:54.772Z</time></trkpt><trkpt lat="45.5924817" lon="10.7652317"><ele>216.0</ele><time>2026-04-26T07:34:55.772Z</time></trkpt><trkpt lat="45.592415" lon="10.7653433"><ele>216.00000000000003</ele><time>2026-04-26T07:34:56.771Z</time></trkpt><trkpt lat="45.5923433" lon="10.765445"><ele>216.00000000000003</ele><time>2026-04-26T07:34:57.772Z</time></trkpt><trkpt lat="45.5922783" lon="10.7655517"><ele>216.0</ele><time>2026-04-26T07:34:58.771Z</time></trkpt><trkpt lat="45.5922133" lon="10.7656517"><ele>216.0</ele><time>2026-04-26T07:34:59.772Z</time></trkpt><trkpt lat="45.5921517" lon="10.7657533"><ele>216.0</ele><time>2026-04-26T07:35:00.772Z</time></trkpt><trkpt lat="45.5920933" lon="10.7658567"><ele>216.00000000000003</ele><time>2026-04-26T07:35:01.771Z</time></trkpt><trkpt lat="45.5920367" lon="10.7659617"><ele>216.00000000000003</ele><time>2026-04-26T07:35:02.772Z</time></trkpt><trkpt lat="45.5919833" lon="10.7660683"><ele>216.0</ele><time>2026-04-26T07:35:03.771Z</time></trkpt><trkpt lat="45.59193" lon="10.766185"><ele>216.0</ele><time>2026-04-26T07:35:04.772Z</time></trkpt><trkpt lat="45.59188" lon="10.7663017"><ele>216.0</ele><time>2026-04-26T07:35:05.771Z</time></trkpt><trkpt lat="45.5918283" lon="10.76641"><ele>216.0</ele><time>2026-04-26T07:35:06.771Z</time></trkpt><trkpt lat="45.5917833" lon="10.7665133"><ele>216.0</ele><time>2026-04-26T07:35:07.771Z</time></trkpt><trkpt lat="45.591745" lon="10.766625"><ele>216.0</ele><time>2026-04-26T07:35:08.772Z</time></trkpt><trkpt lat="45.591695" lon="10.7667333"><ele>216.0</ele><time>2026-04-26T07:35:09.771Z</time></trkpt><trkpt lat="45.5916483" lon="10.7668417"><ele>216.0</ele><time>2026-04-26T07:35:10.771Z</time></trkpt><trkpt lat="45.59161" lon="10.7669483"><ele>216.4</ele><time>2026-04-26T07:35:11.771Z</time></trkpt><trkpt lat="45.5915717" lon="10.7670617"><ele>216.8</ele><time>2026-04-26T07:35:12.771Z</time></trkpt><trkpt lat="45.591545" lon="10.76719"><ele>217.20000000000002</ele><time>2026-04-26T07:35:13.771Z</time></trkpt><trkpt lat="45.591525" lon="10.767325"><ele>217.60000000000002</ele><time>2026-04-26T07:35:14.771Z</time></trkpt><trkpt lat="45.5915117" lon="10.7674467"><ele>218.0</ele><time>2026-04-26T07:35:15.771Z</time></trkpt><trkpt lat="45.5915083" lon="10.7675767"><ele>217.83333333333334</ele><time>2026-04-26T07:35:16.771Z</time></trkpt><trkpt lat="45.591515" lon="10.7677033"><ele>217.66666666666669</ele><time>2026-04-26T07:35:17.771Z</time></trkpt><trkpt lat="45.5915183" lon="10.767825"><ele>217.5</ele><time>2026-04-26T07:35:18.772Z</time></trkpt><trkpt lat="45.59153" lon="10.767945"><ele>217.33333333333331</ele><time>2026-04-26T07:35:19.771Z</time></trkpt><trkpt lat="45.5915383" lon="10.7680667"><ele>217.16666666666666</ele><time>2026-04-26T07:35:20.772Z</time></trkpt><trkpt lat="45.591545" lon="10.7681667"><ele>217.0</ele><time>2026-04-26T07:35:21.771Z</time></trkpt><trkpt lat="45.591565" lon="10.7682733"><ele>217.0</ele><time>2026-04-26T07:35:22.771Z</time></trkpt><trkpt lat="45.59159" lon="10.76842"><ele>217.0</ele><time>2026-04-26T07:35:23.771Z</time></trkpt><trkpt lat="45.5916183" lon="10.7685567"><ele>217.0</ele><time>2026-04-26T07:35:24.771Z</time></trkpt><trkpt lat="45.5916517" lon="10.76868"><ele>217.0</ele><time>2026-04-26T07:35:25.771Z</time></trkpt><trkpt lat="45.5916867" lon="10.7688117"><ele>217.0</ele><time>2026-04-26T07:35:26.771Z</time></trkpt><trkpt lat="45.5917183" lon="10.7689517"><ele>216.99999999999997</ele><time>2026-04-26T07:35:27.771Z</time></trkpt><trkpt lat="45.5917533" lon="10.769065"><ele>217.0</ele><time>2026-04-26T07:35:28.771Z</time></trkpt><trkpt lat="45.59179" lon="10.7691667"><ele>217.0</ele><time>2026-04-26T07:35:29.772Z</time></trkpt><trkpt lat="45.5918333" lon="10.7692717"><ele>217.0</ele><time>2026-04-26T07:35:30.771Z</time></trkpt><trkpt lat="45.5918867" lon="10.7693783"><ele>216.99999999999997</ele><time>2026-04-26T07:35:31.772Z</time></trkpt><trkpt lat="45.59194" lon="10.7694883"><ele>217.0</ele><time>2026-04-26T07:35:32.771Z</time></trkpt><trkpt lat="45.5920017" lon="10.769605"><ele>217.39999999999998</ele><time>2026-04-26T07:35:33.771Z</time></trkpt><trkpt lat="45.5920567" lon="10.7697167"><ele>217.79999999999998</ele><time>2026-04-26T07:35:34.772Z</time></trkpt><trkpt lat="45.592115" lon="10.76982"><ele>218.2</ele><time>2026-04-26T07:35:35.772Z</time></trkpt><trkpt lat="45.5921783" lon="10.7699367"><ele>218.6</ele><time>2026-04-26T07:35:36.772Z</time></trkpt><trkpt lat="45.59223" lon="10.7700417"><ele>219.0</ele><time>2026-04-26T07:35:37.772Z</time></trkpt><trkpt lat="45.5922883" lon="10.7701417"><ele>219.0</ele><time>2026-04-26T07:35:38.77Z</time></trkpt><trkpt lat="45.5923483" lon="10.7702417"><ele>219.0</ele><time>2026-04-26T07:35:39.77Z</time></trkpt><trkpt lat="45.592395" lon="10.770345"><ele>219.0</ele><time>2026-04-26T07:35:40.77Z</time></trkpt><trkpt lat="45.5924483" lon="10.7704433"><ele>219.0</ele><time>2026-04-26T07:35:41.77Z</time></trkpt><trkpt lat="45.5925083" lon="10.7705383"><ele>219.0</ele><time>2026-04-26T07:35:42.77Z</time></trkpt><trkpt lat="45.592575" lon="10.7706167"><ele>219.0</ele><time>2026-04-26T07:35:43.77Z</time></trkpt><trkpt lat="45.5926367" lon="10.7706833"><ele>219.0</ele><time>2026-04-26T07:35:44.77Z</time></trkpt><trkpt lat="45.5927117" lon="10.7707633"><ele>218.99999999999997</ele><time>2026-04-26T07:35:45.77Z</time></trkpt><trkpt lat="45.5927767" lon="10.7708617"><ele>218.99999999999997</ele><time>2026-04-26T07:35:46.77Z</time></trkpt><trkpt lat="45.592845" lon="10.7709583"><ele>219.0</ele><time>2026-04-26T07:35:47.771Z</time></trkpt><trkpt lat="45.59291" lon="10.77105"><ele>219.0</ele><time>2026-04-26T07:35:48.77Z</time></trkpt><trkpt lat="45.5929783" lon="10.77114"><ele>219.2</ele><time>2026-04-26T07:35:49.77Z</time></trkpt><trkpt lat="45.5930533" lon="10.771225"><ele>219.39999999999998</ele><time>2026-04-26T07:35:50.77Z</time></trkpt><trkpt lat="45.5931333" lon="10.7713"><ele>219.6</ele><time>2026-04-26T07:35:51.77Z</time></trkpt><trkpt lat="45.593215" lon="10.7713767"><ele>219.8</ele><time>2026-04-26T07:35:52.77Z</time></trkpt><trkpt lat="45.5932983" lon="10.7714667"><ele>220.0</ele><time>2026-04-26T07:35:53.771Z</time></trkpt><trkpt lat="45.5933733" lon="10.77156"><ele>220.0</ele><time>2026-04-26T07:35:54.77Z</time></trkpt><trkpt lat="45.59345" lon="10.77166"><ele>220.0</ele><time>2026-04-26T07:35:55.771Z</time></trkpt><trkpt lat="45.5935233" lon="10.7717633"><ele>220.0</ele><time>2026-04-26T07:35:56.771Z</time></trkpt><trkpt lat="45.5935983" lon="10.7718667"><ele>220.0</ele><time>2026-04-26T07:35:57.77Z</time></trkpt><trkpt lat="45.59367" lon="10.7719633"><ele>220.0</ele><time>2026-04-26T07:35:58.77Z</time></trkpt><trkpt lat="45.5937583" lon="10.772055"><ele>220.25</ele><time>2026-04-26T07:35:59.77Z</time></trkpt><trkpt lat="45.593855" lon="10.77215"><ele>220.5</ele><time>2026-04-26T07:36:00.77Z</time></trkpt><trkpt lat="45.5939617" lon="10.7722367"><ele>220.75</ele><time>2026-04-26T07:36:01.77Z</time></trkpt><trkpt lat="45.59406" lon="10.7723167"><ele>221.0</ele><time>2026-04-26T07:36:02.771Z</time></trkpt><trkpt lat="45.5941517" lon="10.7723883"><ele>221.00000000000003</ele><time>2026-04-26T07:36:03.77Z</time></trkpt><trkpt lat="45.5942433" lon="10.7724617"><ele>221.0</ele><time>2026-04-26T07:36:04.77Z</time></trkpt><trkpt lat="45.5943283" lon="10.77253"><ele>221.0</ele><time>2026-04-26T07:36:05.771Z</time></trkpt><trkpt lat="45.594405" lon="10.7725817"><ele>221.0</ele><time>2026-04-26T07:36:06.77Z</time></trkpt><trkpt lat="45.59447" lon="10.7726233"><ele>221.00000000000003</ele><time>2026-04-26T07:36:07.77Z</time></trkpt><trkpt lat="45.5945383" lon="10.7726717"><ele>221.0</ele><time>2026-04-26T07:36:08.771Z</time></trkpt><trkpt lat="45.5946017" lon="10.77272"><ele>221.33333333333334</ele><time>2026-04-26T07:36:09.77Z</time></trkpt><trkpt lat="45.5946783" lon="10.7727883"><ele>221.66666666666669</ele><time>2026-04-26T07:36:10.771Z</time></trkpt><trkpt lat="45.5947383" lon="10.7728433"><ele>222.0</ele><time>2026-04-26T07:36:11.77Z</time></trkpt><trkpt lat="45.5947983" lon="10.7729033"><ele>222.33333333333331</ele><time>2026-04-26T07:36:12.771Z</time></trkpt><trkpt lat="45.59486" lon="10.7729733"><ele>222.66666666666666</ele><time>2026-04-26T07:36:13.77Z</time></trkpt><trkpt lat="45.5949383" lon="10.7730367"><ele>223.0</ele><time>2026-04-26T07:36:14.77Z</time></trkpt><trkpt lat="45.5950233" lon="10.7730933"><ele>223.0</ele><time>2026-04-26T07:36:15.77Z</time></trkpt><trkpt lat="45.5951233" lon="10.7731517"><ele>223.0</ele><time>2026-04-26T07:36:16.771Z</time></trkpt><trkpt lat="45.5952383" lon="10.7732017"><ele>223.0</ele><time>2026-04-26T07:36:17.77Z</time></trkpt><trkpt lat="45.5953517" lon="10.7732283"><ele>223.0</ele><time>2026-04-26T07:36:18.77Z</time></trkpt><trkpt lat="45.5954767" lon="10.7732433"><ele>222.8</ele><time>2026-04-26T07:36:19.77Z</time></trkpt><trkpt lat="45.5956183" lon="10.7732567"><ele>222.60000000000002</ele><time>2026-04-26T07:36:20.771Z</time></trkpt><trkpt lat="45.5957267" lon="10.7732617"><ele>222.39999999999998</ele><time>2026-04-26T07:36:21.77Z</time></trkpt><trkpt lat="45.5958283" lon="10.77328"><ele>222.2</ele><time>2026-04-26T07:36:22.77Z</time></trkpt><trkpt lat="45.5959167" lon="10.773325"><ele>222.0</ele><time>2026-04-26T07:36:23.771Z</time></trkpt><trkpt lat="45.5959983" lon="10.7734017"><ele>222.0</ele><time>2026-04-26T07:36:24.77Z</time></trkpt><trkpt lat="45.59608" lon="10.7734917"><ele>222.0</ele><time>2026-04-26T07:36:25.771Z</time></trkpt><trkpt lat="45.596165" lon="10.773585"><ele>222.0</ele><time>2026-04-26T07:36:26.77Z</time></trkpt><trkpt lat="45.596265" lon="10.7736783"><ele>222.0</ele><time>2026-04-26T07:36:27.771Z</time></trkpt><trkpt lat="45.5963717" lon="10.7737817"><ele>222.33333333333334</ele><time>2026-04-26T07:36:28.771Z</time></trkpt><trkpt lat="45.596465" lon="10.7738633"><ele>222.66666666666669</ele><time>2026-04-26T07:36:29.77Z</time></trkpt><trkpt lat="45.5965417" lon="10.7739267"><ele>223.0</ele><time>2026-04-26T07:36:30.77Z</time></trkpt><trkpt lat="45.5966033" lon="10.7739783"><ele>223.33333333333334</ele><time>2026-04-26T07:36:31.77Z</time></trkpt><trkpt lat="45.596665" lon="10.77406"><ele>223.66666666666669</ele><time>2026-04-26T07:36:33.77Z</time></trkpt><trkpt lat="45.596705" lon="10.77413"><ele>224.0</ele><time>2026-04-26T07:36:35.771Z</time></trkpt><trkpt lat="45.5966433" lon="10.7742167"><ele>224.00000000000003</ele><time>2026-04-26T07:36:38.77Z</time></trkpt><trkpt lat="45.5965567" lon="10.7742283"><ele>224.0</ele><time>2026-04-26T07:36:40.77Z</time></trkpt><trkpt lat="45.5964783" lon="10.774255"><ele>224.0</ele><time>2026-04-26T07:36:42.77Z</time></trkpt><trkpt lat="45.5964117" lon="10.7742983"><ele>224.0</ele><time>2026-04-26T07:36:44.77Z</time></trkpt><trkpt lat="45.596355" lon="10.774355"><ele>224.00000000000003</ele><time>2026-04-26T07:36:46.77Z</time></trkpt><trkpt lat="45.5963017" lon="10.7744283"><ele>224.0</ele><time>2026-04-26T07:36:48.771Z</time></trkpt><trkpt lat="45.59625" lon="10.7745117"><ele>224.00000000000003</ele><time>2026-04-26T07:36:50.77Z</time></trkpt><trkpt lat="45.5961967" lon="10.7746"><ele>224.0</ele><time>2026-04-26T07:36:52.77Z</time></trkpt><trkpt lat="45.596145" lon="10.7746733"><ele>224.0</ele><time>2026-04-26T07:36:54.771Z</time></trkpt><trkpt lat="45.5960967" lon="10.7747567"><ele>224.0</ele><time>2026-04-26T07:36:56.771Z</time></trkpt><trkpt lat="45.5960617" lon="10.7748333"><ele>224.00000000000003</ele><time>2026-04-26T07:36:58.77Z</time></trkpt><trkpt lat="45.59601" lon="10.7749233"><ele>224.0</ele><time>2026-04-26T07:37:00.771Z</time></trkpt><trkpt lat="45.5959217" lon="10.775035"><ele>223.79999999999998</ele><time>2026-04-26T07:37:02.771Z</time></trkpt><trkpt lat="45.5958533" lon="10.7751017"><ele>223.59999999999997</ele><time>2026-04-26T07:37:03.77Z</time></trkpt><trkpt lat="45.595775" lon="10.775175"><ele>223.4</ele><time>2026-04-26T07:37:04.77Z</time></trkpt><trkpt lat="45.5956883" lon="10.7752433"><ele>223.2</ele><time>2026-04-26T07:37:05.771Z</time></trkpt><trkpt lat="45.5955933" lon="10.7753117"><ele>223.0</ele><time>2026-04-26T07:37:06.771Z</time></trkpt><trkpt lat="45.595495" lon="10.7753817"><ele>223.75</ele><time>2026-04-26T07:37:07.77Z</time></trkpt><trkpt lat="45.5953967" lon="10.7754617"><ele>224.5</ele><time>2026-04-26T07:37:08.77Z</time></trkpt><trkpt lat="45.5953017" lon="10.7755467"><ele>225.25</ele><time>2026-04-26T07:37:09.77Z</time></trkpt><trkpt lat="45.595205" lon="10.7756333"><ele>226.0</ele><time>2026-04-26T07:37:10.77Z</time></trkpt><trkpt lat="45.595105" lon="10.7757283"><ele>226.0</ele><time>2026-04-26T07:37:11.77Z</time></trkpt><trkpt lat="45.595005" lon="10.77583"><ele>226.0</ele><time>2026-04-26T07:37:12.771Z</time></trkpt><trkpt lat="45.5949017" lon="10.7759317"><ele>226.0</ele><time>2026-04-26T07:37:13.77Z</time></trkpt><trkpt lat="45.594795" lon="10.77604"><ele>226.0</ele><time>2026-04-26T07:37:14.77Z</time></trkpt><trkpt lat="45.594695" lon="10.77615"><ele>226.25</ele><time>2026-04-26T07:37:15.77Z</time></trkpt><trkpt lat="45.5945933" lon="10.7762633"><ele>226.5</ele><time>2026-04-26T07:37:16.77Z</time></trkpt><trkpt lat="45.5944933" lon="10.77638"><ele>226.75</ele><time>2026-04-26T07:37:17.77Z</time></trkpt><trkpt lat="45.5943967" lon="10.7765"><ele>227.0</ele><time>2026-04-26T07:37:18.77Z</time></trkpt><trkpt lat="45.5943083" lon="10.776625"><ele>226.5</ele><time>2026-04-26T07:37:19.771Z</time></trkpt><trkpt lat="45.5942217" lon="10.7767617"><ele>226.0</ele><time>2026-04-26T07:37:20.77Z</time></trkpt><trkpt lat="45.59413" lon="10.77689"><ele>225.5</ele><time>2026-04-26T07:37:21.77Z</time></trkpt><trkpt lat="45.5940233" lon="10.7770317"><ele>225.0</ele><time>2026-04-26T07:37:22.77Z</time></trkpt><trkpt lat="45.593915" lon="10.7771633"><ele>224.75</ele><time>2026-04-26T07:37:23.771Z</time></trkpt><trkpt lat="45.593805" lon="10.7773067"><ele>224.5</ele><time>2026-04-26T07:37:24.77Z</time></trkpt><trkpt lat="45.59369" lon="10.7774433"><ele>224.25</ele><time>2026-04-26T07:37:25.771Z</time></trkpt><trkpt lat="45.5935917" lon="10.7775583"><ele>224.0</ele><time>2026-04-26T07:37:26.77Z</time></trkpt><trkpt lat="45.5934983" lon="10.7776617"><ele>224.0</ele><time>2026-04-26T07:37:27.771Z</time></trkpt><trkpt lat="45.5934133" lon="10.777745"><ele>224.0</ele><time>2026-04-26T07:37:28.771Z</time></trkpt><trkpt lat="45.59332" lon="10.77785"><ele>224.0</ele><time>2026-04-26T07:37:29.771Z</time></trkpt><trkpt lat="45.59323" lon="10.77795"><ele>224.0</ele><time>2026-04-26T07:37:30.771Z</time></trkpt><trkpt lat="45.5931267" lon="10.7780567"><ele>224.0</ele><time>2026-04-26T07:37:31.77Z</time></trkpt><trkpt lat="45.593035" lon="10.778155"><ele>224.0</ele><time>2026-04-26T07:37:32.77Z</time></trkpt><trkpt lat="45.592945" lon="10.7782467"><ele>224.0</ele><time>2026-04-26T07:37:33.77Z</time></trkpt><trkpt lat="45.5928567" lon="10.77835"><ele>224.0</ele><time>2026-04-26T07:37:34.771Z</time></trkpt><trkpt lat="45.592765" lon="10.7784467"><ele>224.39999999999998</ele><time>2026-04-26T07:37:35.771Z</time></trkpt><trkpt lat="45.5926783" lon="10.7785333"><ele>224.79999999999998</ele><time>2026-04-26T07:37:36.77Z</time></trkpt><trkpt lat="45.5926083" lon="10.7786367"><ele>225.20000000000002</ele><time>2026-04-26T07:37:37.771Z</time></trkpt><trkpt lat="45.5925417" lon="10.7787333"><ele>225.60000000000002</ele><time>2026-04-26T07:37:38.77Z</time></trkpt><trkpt lat="45.59248" lon="10.77883"><ele>226.0</ele><time>2026-04-26T07:37:39.77Z</time></trkpt><trkpt lat="45.5924283" lon="10.7789333"><ele>226.0</ele><time>2026-04-26T07:37:40.77Z</time></trkpt><trkpt lat="45.59238" lon="10.7790583"><ele>226.00000000000003</ele><time>2026-04-26T07:37:41.77Z</time></trkpt><trkpt lat="45.5923533" lon="10.7791933"><ele>226.00000000000003</ele><time>2026-04-26T07:37:42.77Z</time></trkpt><trkpt lat="45.5923267" lon="10.7793367"><ele>226.0</ele><time>2026-04-26T07:37:43.77Z</time></trkpt><trkpt lat="45.59231" lon="10.77947"><ele>226.0</ele><time>2026-04-26T07:37:44.771Z</time></trkpt><trkpt lat="45.59228" lon="10.7795817"><ele>226.4</ele><time>2026-04-26T07:37:45.77Z</time></trkpt><trkpt lat="45.5922333" lon="10.77971"><ele>226.8</ele><time>2026-04-26T07:37:46.77Z</time></trkpt><trkpt lat="45.592175" lon="10.779835"><ele>227.20000000000002</ele><time>2026-04-26T07:37:47.771Z</time></trkpt><trkpt lat="45.5921117" lon="10.77996"><ele>227.60000000000002</ele><time>2026-04-26T07:37:48.77Z</time></trkpt><trkpt lat="45.592045" lon="10.78007"><ele>228.0</ele><time>2026-04-26T07:37:49.771Z</time></trkpt><trkpt lat="45.5919833" lon="10.780175"><ele>229.2</ele><time>2026-04-26T07:37:50.771Z</time></trkpt><trkpt lat="45.59192" lon="10.7802933"><ele>230.4</ele><time>2026-04-26T07:37:51.77Z</time></trkpt><trkpt lat="45.5918567" lon="10.7804133"><ele>231.59999999999997</ele><time>2026-04-26T07:37:52.771Z</time></trkpt><trkpt lat="45.5917833" lon="10.7805083"><ele>232.79999999999998</ele><time>2026-04-26T07:37:53.77Z</time></trkpt><trkpt lat="45.591725" lon="10.7806083"><ele>234.0</ele><time>2026-04-26T07:37:54.77Z</time></trkpt><trkpt lat="45.591675" lon="10.7806933"><ele>234.0</ele><time>2026-04-26T07:37:55.771Z</time></trkpt><trkpt lat="45.59163" lon="10.780835"><ele>233.99999999999997</ele><time>2026-04-26T07:37:57.771Z</time></trkpt><trkpt lat="45.5916317" lon="10.78093"><ele>233.99999999999997</ele><time>2026-04-26T07:37:59.77Z</time></trkpt><trkpt lat="45.5915967" lon="10.7810267"><ele>234.0</ele><time>2026-04-26T07:38:01.771Z</time></trkpt><trkpt lat="45.591535" lon="10.7811683"><ele>234.0</ele><time>2026-04-26T07:38:03.771Z</time></trkpt><trkpt lat="45.5914967" lon="10.781335"><ele>235.2</ele><time>2026-04-26T07:38:05.771Z</time></trkpt><trkpt lat="45.5914617" lon="10.7814833"><ele>236.39999999999998</ele><time>2026-04-26T07:38:07.77Z</time></trkpt><trkpt lat="45.5914083" lon="10.7816167"><ele>237.6</ele><time>2026-04-26T07:38:09.77Z</time></trkpt><trkpt lat="45.5914067" lon="10.781795"><ele>238.8</ele><time>2026-04-26T07:38:11.771Z</time></trkpt><trkpt lat="45.5914033" lon="10.7819383"><ele>240.0</ele><time>2026-04-26T07:38:13.771Z</time></trkpt><trkpt lat="45.5913533" lon="10.782035"><ele>240.83333333333334</ele><time>2026-04-26T07:38:16.77Z</time></trkpt><trkpt lat="45.591245" lon="10.7820117"><ele>241.66666666666669</ele><time>2026-04-26T07:38:18.771Z</time></trkpt><trkpt lat="45.5911817" lon="10.7819767"><ele>242.5</ele><time>2026-04-26T07:38:19.77Z</time></trkpt><trkpt lat="45.5910967" lon="10.7818733"><ele>243.33333333333334</ele><time>2026-04-26T07:38:21.77Z</time></trkpt><trkpt lat="45.591035" lon="10.7818017"><ele>244.16666666666669</ele><time>2026-04-26T07:38:22.77Z</time></trkpt><trkpt lat="45.5909833" lon="10.78173"><ele>245.0</ele><time>2026-04-26T07:38:23.771Z</time></trkpt><trkpt lat="45.5909133" lon="10.7816617"><ele>245.4</ele><time>2026-04-26T07:38:25.77Z</time></trkpt><trkpt lat="45.590845" lon="10.7816083"><ele>245.8</ele><time>2026-04-26T07:38:43.77Z</time></trkpt><trkpt lat="45.5907533" lon="10.7815017"><ele>246.2</ele><time>2026-04-26T07:38:45.77Z</time></trkpt><trkpt lat="45.590685" lon="10.7814417"><ele>246.6</ele><time>2026-04-26T07:38:46.771Z</time></trkpt><trkpt lat="45.5906183" lon="10.7813783"><ele>247.0</ele><time>2026-04-26T07:38:47.771Z</time></trkpt><trkpt lat="45.590535" lon="10.7813017"><ele>247.0</ele><time>2026-04-26T07:38:48.77Z</time></trkpt><trkpt lat="45.5904533" lon="10.7812267"><ele>247.0</ele><time>2026-04-26T07:38:49.77Z</time></trkpt><trkpt lat="45.5903783" lon="10.7811567"><ele>247.0</ele><time>2026-04-26T07:38:50.771Z</time></trkpt><trkpt lat="45.5902983" lon="10.7810783"><ele>247.0</ele><time>2026-04-26T07:38:51.77Z</time></trkpt><trkpt lat="45.5902217" lon="10.7809967"><ele>247.0</ele><time>2026-04-26T07:38:52.77Z</time></trkpt><trkpt lat="45.5901617" lon="10.7809383"><ele>246.83333333333331</ele><time>2026-04-26T07:38:53.771Z</time></trkpt><trkpt lat="45.5900883" lon="10.78088"><ele>246.66666666666666</ele><time>2026-04-26T07:38:55.77Z</time></trkpt><trkpt lat="45.5900217" lon="10.7808933"><ele>246.5</ele><time>2026-04-26T07:38:57.77Z</time></trkpt><trkpt lat="45.5899183" lon="10.7810033"><ele>246.33333333333331</ele><time>2026-04-26T07:38:59.77Z</time></trkpt><trkpt lat="45.58986" lon="10.7810867"><ele>246.16666666666666</ele><time>2026-04-26T07:39:00.77Z</time></trkpt><trkpt lat="45.5898067" lon="10.7811833"><ele>246.0</ele><time>2026-04-26T07:39:01.769Z</time></trkpt><trkpt lat="45.5897733" lon="10.7813067"><ele>246.0</ele><time>2026-04-26T07:39:02.769Z</time></trkpt><trkpt lat="45.5897367" lon="10.7814417"><ele>246.00000000000003</ele><time>2026-04-26T07:39:03.77Z</time></trkpt><trkpt lat="45.58972" lon="10.78159"><ele>246.00000000000003</ele><time>2026-04-26T07:39:04.769Z</time></trkpt><trkpt lat="45.589715" lon="10.7817517"><ele>246.0</ele><time>2026-04-26T07:39:05.769Z</time></trkpt><trkpt lat="45.5896933" lon="10.7819083"><ele>246.0</ele><time>2026-04-26T07:39:06.769Z</time></trkpt><trkpt lat="45.5896583" lon="10.7820417"><ele>246.16666666666666</ele><time>2026-04-26T07:39:07.769Z</time></trkpt><trkpt lat="45.5896183" lon="10.7821617"><ele>246.33333333333331</ele><time>2026-04-26T07:39:08.769Z</time></trkpt><trkpt lat="45.5895817" lon="10.7822783"><ele>246.5</ele><time>2026-04-26T07:39:09.77Z</time></trkpt><trkpt lat="45.5895467" lon="10.7823883"><ele>246.66666666666666</ele><time>2026-04-26T07:39:10.769Z</time></trkpt><trkpt lat="45.5895083" lon="10.7824883"><ele>246.83333333333331</ele><time>2026-04-26T07:39:11.769Z</time></trkpt><trkpt lat="45.5894683" lon="10.782605"><ele>247.0</ele><time>2026-04-26T07:39:13.77Z</time></trkpt><trkpt lat="45.58941" lon="10.7827083"><ele>249.25</ele><time>2026-04-26T07:39:20.769Z</time></trkpt><trkpt lat="45.5893417" lon="10.7828517"><ele>251.5</ele><time>2026-04-26T07:39:22.769Z</time></trkpt><trkpt lat="45.5892933" lon="10.78295"><ele>253.75</ele><time>2026-04-26T07:39:23.77Z</time></trkpt><trkpt lat="45.58921" lon="10.7831"><ele>256.0</ele><time>2026-04-26T07:39:24.769Z</time></trkpt><trkpt lat="45.589145" lon="10.7832283"><ele>256.0</ele><time>2026-04-26T07:39:25.769Z</time></trkpt><trkpt lat="45.5890783" lon="10.78336"><ele>256.0</ele><time>2026-04-26T07:39:26.769Z</time></trkpt><trkpt lat="45.58901" lon="10.7834817"><ele>256.0</ele><time>2026-04-26T07:39:27.769Z</time></trkpt><trkpt lat="45.5889433" lon="10.7835983"><ele>256.0</ele><time>2026-04-26T07:39:28.77Z</time></trkpt><trkpt lat="45.5888733" lon="10.7837183"><ele>256.0</ele><time>2026-04-26T07:39:29.769Z</time></trkpt><trkpt lat="45.58881" lon="10.7838383"><ele>256.3333333333333</ele><time>2026-04-26T07:39:30.769Z</time></trkpt><trkpt lat="45.588755" lon="10.7839433"><ele>256.66666666666663</ele><time>2026-04-26T07:39:31.769Z</time></trkpt><trkpt lat="45.588705" lon="10.78404"><ele>257.0</ele><time>2026-04-26T07:39:32.769Z</time></trkpt><trkpt lat="45.5886567" lon="10.7841267"><ele>257.3333333333333</ele><time>2026-04-26T07:39:33.769Z</time></trkpt><trkpt lat="45.5886167" lon="10.7841983"><ele>257.6666666666667</ele><time>2026-04-26T07:39:34.769Z</time></trkpt><trkpt lat="45.5885567" lon="10.7843"><ele>258.0</ele><time>2026-04-26T07:39:36.769Z</time></trkpt><trkpt lat="45.58853" lon="10.7843817"><ele>258.6</ele><time>2026-04-26T07:39:38.769Z</time></trkpt><trkpt lat="45.588555" lon="10.7844867"><ele>259.20000000000005</ele><time>2026-04-26T07:39:40.769Z</time></trkpt><trkpt lat="45.5886583" lon="10.7845983"><ele>259.8</ele><time>2026-04-26T07:39:42.769Z</time></trkpt><trkpt lat="45.5887383" lon="10.7846633"><ele>260.40000000000003</ele><time>2026-04-26T07:39:43.769Z</time></trkpt><trkpt lat="45.588825" lon="10.78473"><ele>261.0</ele><time>2026-04-26T07:39:44.769Z</time></trkpt><trkpt lat="45.5889167" lon="10.7848017"><ele>261.0</ele><time>2026-04-26T07:39:45.77Z</time></trkpt><trkpt lat="45.5890033" lon="10.7848733"><ele>261.0</ele><time>2026-04-26T07:39:46.769Z</time></trkpt><trkpt lat="45.5890767" lon="10.7849567"><ele>261.0</ele><time>2026-04-26T07:39:47.77Z</time></trkpt><trkpt lat="45.5891467" lon="10.7850483"><ele>261.0</ele><time>2026-04-26T07:39:48.77Z</time></trkpt><trkpt lat="45.5892183" lon="10.7851417"><ele>261.0</ele><time>2026-04-26T07:39:49.77Z</time></trkpt><trkpt lat="45.5892917" lon="10.78523"><ele>261.8</ele><time>2026-04-26T07:39:50.769Z</time></trkpt><trkpt lat="45.5893683" lon="10.7853217"><ele>262.6</ele><time>2026-04-26T07:39:51.77Z</time></trkpt><trkpt lat="45.5894433" lon="10.78541"><ele>263.4</ele><time>2026-04-26T07:39:52.77Z</time></trkpt><trkpt lat="45.5895133" lon="10.7855017"><ele>264.2</ele><time>2026-04-26T07:39:53.769Z</time></trkpt><trkpt lat="45.5895867" lon="10.7855983"><ele>265.0</ele><time>2026-04-26T07:39:54.769Z</time></trkpt><trkpt lat="45.58965" lon="10.78569"><ele>265.0</ele><time>2026-04-26T07:39:55.77Z</time></trkpt><trkpt lat="45.5897183" lon="10.7857767"><ele>265.0</ele><time>2026-04-26T07:39:56.77Z</time></trkpt><trkpt lat="45.5897867" lon="10.78584"><ele>265.0</ele><time>2026-04-26T07:39:57.769Z</time></trkpt><trkpt lat="45.5898683" lon="10.7859133"><ele>265.0</ele><time>2026-04-26T07:39:58.769Z</time></trkpt><trkpt lat="45.58997" lon="10.7860133"><ele>265.0</ele><time>2026-04-26T07:39:59.769Z</time></trkpt><trkpt lat="45.590075" lon="10.786105"><ele>265.5</ele><time>2026-04-26T07:40:00.77Z</time></trkpt><trkpt lat="45.59017" lon="10.7862067"><ele>266.0</ele><time>2026-04-26T07:40:01.769Z</time></trkpt><trkpt lat="45.5902667" lon="10.7863167"><ele>266.5</ele><time>2026-04-26T07:40:02.77Z</time></trkpt><trkpt lat="45.59037" lon="10.786435"><ele>267.0</ele><time>2026-04-26T07:40:03.769Z</time></trkpt><trkpt lat="45.5904683" lon="10.7865483"><ele>267.0</ele><time>2026-04-26T07:40:04.77Z</time></trkpt><trkpt lat="45.5905617" lon="10.7866567"><ele>267.0</ele><time>2026-04-26T07:40:05.769Z</time></trkpt><trkpt lat="45.5906533" lon="10.7867617"><ele>267.0</ele><time>2026-04-26T07:40:06.769Z</time></trkpt><trkpt lat="45.5907483" lon="10.7868667"><ele>267.0</ele><time>2026-04-26T07:40:07.77Z</time></trkpt><trkpt lat="45.5908367" lon="10.7869667"><ele>268.0</ele><time>2026-04-26T07:40:08.769Z</time></trkpt><trkpt lat="45.5909217" lon="10.787085"><ele>269.0</ele><time>2026-04-26T07:40:09.77Z</time></trkpt><trkpt lat="45.5910067" lon="10.7871967"><ele>270.0</ele><time>2026-04-26T07:40:10.769Z</time></trkpt><trkpt lat="45.5910883" lon="10.7873067"><ele>271.0</ele><time>2026-04-26T07:40:11.769Z</time></trkpt><trkpt lat="45.5911817" lon="10.7874233"><ele>271.0</ele><time>2026-04-26T07:40:12.77Z</time></trkpt><trkpt lat="45.59127" lon="10.787535"><ele>271.0</ele><time>2026-04-26T07:40:13.769Z</time></trkpt><trkpt lat="45.59135" lon="10.7876417"><ele>271.0</ele><time>2026-04-26T07:40:14.769Z</time></trkpt><trkpt lat="45.5914333" lon="10.78775"><ele>271.0</ele><time>2026-04-26T07:40:15.769Z</time></trkpt><trkpt lat="45.5915183" lon="10.787855"><ele>271.25</ele><time>2026-04-26T07:40:16.769Z</time></trkpt><trkpt lat="45.591605" lon="10.7879567"><ele>271.5</ele><time>2026-04-26T07:40:17.769Z</time></trkpt><trkpt lat="45.5917233" lon="10.7880783"><ele>271.75</ele><time>2026-04-26T07:40:18.769Z</time></trkpt><trkpt lat="45.591815" lon="10.7881733"><ele>272.0</ele><time>2026-04-26T07:40:19.77Z</time></trkpt><trkpt lat="45.5919083" lon="10.78827"><ele>272.0</ele><time>2026-04-26T07:40:20.77Z</time></trkpt><trkpt lat="45.5919967" lon="10.7883583"><ele>272.0</ele><time>2026-04-26T07:40:21.77Z</time></trkpt><trkpt lat="45.5920867" lon="10.78844"><ele>272.0</ele><time>2026-04-26T07:40:22.77Z</time></trkpt><trkpt lat="45.592175" lon="10.78854"><ele>272.0</ele><time>2026-04-26T07:40:23.77Z</time></trkpt><trkpt lat="45.59225" lon="10.788645"><ele>272.0</ele><time>2026-04-26T07:40:24.769Z</time></trkpt><trkpt lat="45.5923167" lon="10.7887367"><ele>272.1666666666667</ele><time>2026-04-26T07:40:25.77Z</time></trkpt><trkpt lat="45.5923717" lon="10.7888033"><ele>272.33333333333337</ele><time>2026-04-26T07:40:26.769Z</time></trkpt><trkpt lat="45.5924383" lon="10.7888733"><ele>272.5</ele><time>2026-04-26T07:40:27.769Z</time></trkpt><trkpt lat="45.592505" lon="10.788935"><ele>272.6666666666667</ele><time>2026-04-26T07:40:28.769Z</time></trkpt><trkpt lat="45.59258" lon="10.7890017"><ele>272.8333333333333</ele><time>2026-04-26T07:40:29.769Z</time></trkpt><trkpt lat="45.5926583" lon="10.7890867"><ele>273.0</ele><time>2026-04-26T07:40:30.77Z</time></trkpt><trkpt lat="45.5927317" lon="10.7891817"><ele>273.0</ele><time>2026-04-26T07:40:31.77Z</time></trkpt><trkpt lat="45.5928083" lon="10.7892783"><ele>273.0</ele><time>2026-04-26T07:40:32.77Z</time></trkpt><trkpt lat="45.5928933" lon="10.789375"><ele>273.0</ele><time>2026-04-26T07:40:33.77Z</time></trkpt><trkpt lat="45.592965" lon="10.7894517"><ele>273.0</ele><time>2026-04-26T07:40:34.769Z</time></trkpt><trkpt lat="45.5930167" lon="10.7895133"><ele>273.0</ele><time>2026-04-26T07:40:35.769Z</time></trkpt><trkpt lat="45.593065" lon="10.78958"><ele>273.0</ele><time>2026-04-26T07:40:36.769Z</time></trkpt><trkpt lat="45.593115" lon="10.7896967"><ele>273.8</ele><time>2026-04-26T07:40:38.77Z</time></trkpt><trkpt lat="45.5930717" lon="10.78982"><ele>274.6</ele><time>2026-04-26T07:40:40.769Z</time></trkpt><trkpt lat="45.5929933" lon="10.789905"><ele>275.4</ele><time>2026-04-26T07:40:41.77Z</time></trkpt><trkpt lat="45.5929167" lon="10.789975"><ele>276.2</ele><time>2026-04-26T07:40:42.77Z</time></trkpt><trkpt lat="45.592885" lon="10.7900883"><ele>277.0</ele><time>2026-04-26T07:40:44.769Z</time></trkpt><trkpt lat="45.5929267" lon="10.7902083"><ele>277.4</ele><time>2026-04-26T07:40:46.769Z</time></trkpt><trkpt lat="45.5930083" lon="10.7903567"><ele>277.79999999999995</ele><time>2026-04-26T07:40:48.769Z</time></trkpt><trkpt lat="45.593085" lon="10.7904583"><ele>278.2</ele><time>2026-04-26T07:40:49.77Z</time></trkpt><trkpt lat="45.593165" lon="10.7905533"><ele>278.59999999999997</ele><time>2026-04-26T07:40:50.77Z</time></trkpt><trkpt lat="45.5932317" lon="10.7906483"><ele>279.0</ele><time>2026-04-26T07:40:51.769Z</time></trkpt><trkpt lat="45.5932867" lon="10.7907567"><ele>279.0</ele><time>2026-04-26T07:40:52.77Z</time></trkpt><trkpt lat="45.59335" lon="10.7908717"><ele>279.0</ele><time>2026-04-26T07:40:53.77Z</time></trkpt><trkpt lat="45.5934083" lon="10.7909717"><ele>279.0</ele><time>2026-04-26T07:40:54.769Z</time></trkpt><trkpt lat="45.5934833" lon="10.79109"><ele>279.0</ele><time>2026-04-26T07:40:55.77Z</time></trkpt><trkpt lat="45.5935567" lon="10.7911917"><ele>279.0</ele><time>2026-04-26T07:40:56.769Z</time></trkpt><trkpt lat="45.593635" lon="10.79129"><ele>279.5</ele><time>2026-04-26T07:40:57.77Z</time></trkpt><trkpt lat="45.5937083" lon="10.7913867"><ele>280.0</ele><time>2026-04-26T07:40:58.77Z</time></trkpt><trkpt lat="45.59377" lon="10.7914767"><ele>280.5</ele><time>2026-04-26T07:40:59.769Z</time></trkpt><trkpt lat="45.59383" lon="10.79156"><ele>281.0</ele><time>2026-04-26T07:41:00.769Z</time></trkpt><trkpt lat="45.59387" lon="10.79163"><ele>281.5</ele><time>2026-04-26T07:41:01.77Z</time></trkpt><trkpt lat="45.5939183" lon="10.7917333"><ele>282.0</ele><time>2026-04-26T07:41:02.769Z</time></trkpt><trkpt lat="45.59397" lon="10.7918533"><ele>282.8</ele><time>2026-04-26T07:41:03.769Z</time></trkpt><trkpt lat="45.59402" lon="10.7919683"><ele>283.6</ele><time>2026-04-26T07:41:04.769Z</time></trkpt><trkpt lat="45.5940867" lon="10.79207"><ele>284.40000000000003</ele><time>2026-04-26T07:41:05.769Z</time></trkpt><trkpt lat="45.5941583" lon="10.7921533"><ele>285.2</ele><time>2026-04-26T07:41:06.769Z</time></trkpt><trkpt lat="45.594225" lon="10.7922433"><ele>286.0</ele><time>2026-04-26T07:41:07.769Z</time></trkpt><trkpt lat="45.5943117" lon="10.7923317"><ele>286.0</ele><time>2026-04-26T07:41:08.77Z</time></trkpt><trkpt lat="45.5943767" lon="10.7924133"><ele>286.0</ele><time>2026-04-26T07:41:09.77Z</time></trkpt><trkpt lat="45.5944333" lon="10.7925"><ele>286.0</ele><time>2026-04-26T07:41:10.769Z</time></trkpt><trkpt lat="45.5944817" lon="10.7925967"><ele>286.0</ele><time>2026-04-26T07:41:11.77Z</time></trkpt><trkpt lat="45.5945267" lon="10.7927017"><ele>286.0</ele><time>2026-04-26T07:41:12.77Z</time></trkpt><trkpt lat="45.594575" lon="10.792815"><ele>286.0</ele><time>2026-04-26T07:41:13.769Z</time></trkpt><trkpt lat="45.5946217" lon="10.7929267"><ele>285.8</ele><time>2026-04-26T07:41:14.769Z</time></trkpt><trkpt lat="45.5946717" lon="10.7930467"><ele>285.6</ele><time>2026-04-26T07:41:15.769Z</time></trkpt><trkpt lat="45.594715" lon="10.793155"><ele>285.4</ele><time>2026-04-26T07:41:16.769Z</time></trkpt><trkpt lat="45.5947683" lon="10.793275"><ele>285.2</ele><time>2026-04-26T07:41:17.77Z</time></trkpt><trkpt lat="45.594825" lon="10.7933767"><ele>285.0</ele><time>2026-04-26T07:41:18.77Z</time></trkpt><trkpt lat="45.594885" lon="10.7934717"><ele>285.8</ele><time>2026-04-26T07:41:19.769Z</time></trkpt><trkpt lat="45.5949467" lon="10.793575"><ele>286.6</ele><time>2026-04-26T07:41:20.77Z</time></trkpt><trkpt lat="45.5950033" lon="10.7936717"><ele>287.4</ele><time>2026-04-26T07:41:21.769Z</time></trkpt><trkpt lat="45.595065" lon="10.7937683"><ele>288.2</ele><time>2026-04-26T07:41:22.77Z</time></trkpt><trkpt lat="45.5951267" lon="10.79387"><ele>289.0</ele><time>2026-04-26T07:41:23.769Z</time></trkpt><trkpt lat="45.595175" lon="10.793965"><ele>289.0</ele><time>2026-04-26T07:41:24.769Z</time></trkpt><trkpt lat="45.5952183" lon="10.7940467"><ele>289.0</ele><time>2026-04-26T07:41:25.77Z</time></trkpt><trkpt lat="45.5952683" lon="10.79412"><ele>289.0</ele><time>2026-04-26T07:41:26.77Z</time></trkpt><trkpt lat="45.595315" lon="10.7942"><ele>289.0</ele><time>2026-04-26T07:41:27.769Z</time></trkpt><trkpt lat="45.5953583" lon="10.7942717"><ele>289.0</ele><time>2026-04-26T07:41:28.769Z</time></trkpt><trkpt lat="45.5954433" lon="10.794385"><ele>289.0</ele><time>2026-04-26T07:41:30.769Z</time></trkpt><trkpt lat="45.595525" lon="10.79449"><ele>287.75</ele><time>2026-04-26T07:41:32.77Z</time></trkpt><trkpt lat="45.5956517" lon="10.7944933"><ele>286.5</ele><time>2026-04-26T07:41:46.769Z</time></trkpt><trkpt lat="45.5957583" lon="10.7944817"><ele>285.25</ele><time>2026-04-26T07:41:49.769Z</time></trkpt><trkpt lat="45.59587" lon="10.7944683"><ele>284.0</ele><time>2026-04-26T07:41:51.769Z</time></trkpt><trkpt lat="45.5959983" lon="10.7944667"><ele>284.0</ele><time>2026-04-26T07:41:53.769Z</time></trkpt><trkpt lat="45.5960767" lon="10.7944683"><ele>284.0</ele><time>2026-04-26T07:41:54.77Z</time></trkpt><trkpt lat="45.5961467" lon="10.7944667"><ele>284.0</ele><time>2026-04-26T07:41:55.769Z</time></trkpt><trkpt lat="45.59622" lon="10.79446"><ele>284.0</ele><time>2026-04-26T07:41:56.769Z</time></trkpt><trkpt lat="45.5963" lon="10.7944417"><ele>284.0</ele><time>2026-04-26T07:41:57.769Z</time></trkpt><trkpt lat="45.59638" lon="10.7944183"><ele>284.0</ele><time>2026-04-26T07:41:58.77Z</time></trkpt><trkpt lat="45.59646" lon="10.7943917"><ele>282.59999999999997</ele><time>2026-04-26T07:41:59.769Z</time></trkpt><trkpt lat="45.596545" lon="10.7943667"><ele>281.2</ele><time>2026-04-26T07:42:00.769Z</time></trkpt><trkpt lat="45.5966367" lon="10.7943417"><ele>279.79999999999995</ele><time>2026-04-26T07:42:01.769Z</time></trkpt><trkpt lat="45.5967283" lon="10.7943217"><ele>278.4</ele><time>2026-04-26T07:42:02.77Z</time></trkpt><trkpt lat="45.5968467" lon="10.7942967"><ele>277.0</ele><time>2026-04-26T07:42:03.769Z</time></trkpt><trkpt lat="45.59694" lon="10.794285"><ele>274.8</ele><time>2026-04-26T07:42:04.77Z</time></trkpt><trkpt lat="45.5970467" lon="10.794285"><ele>272.6</ele><time>2026-04-26T07:42:05.77Z</time></trkpt><trkpt lat="45.597135" lon="10.7942933"><ele>270.40000000000003</ele><time>2026-04-26T07:42:06.769Z</time></trkpt><trkpt lat="45.597225" lon="10.7943417"><ele>268.2</ele><time>2026-04-26T07:42:07.769Z</time></trkpt><trkpt lat="45.5973083" lon="10.79441"><ele>266.0</ele><time>2026-04-26T07:42:08.769Z</time></trkpt><trkpt lat="45.5973967" lon="10.7944717"><ele>266.0</ele><time>2026-04-26T07:42:09.769Z</time></trkpt><trkpt lat="45.59751" lon="10.794555"><ele>266.0</ele><time>2026-04-26T07:42:10.77Z</time></trkpt><trkpt lat="45.597615" lon="10.7946233"><ele>266.0</ele><time>2026-04-26T07:42:11.769Z</time></trkpt><trkpt lat="45.597715" lon="10.7946867"><ele>266.0</ele><time>2026-04-26T07:42:12.769Z</time></trkpt><trkpt lat="45.5978117" lon="10.7947417"><ele>263.8</ele><time>2026-04-26T07:42:13.77Z</time></trkpt><trkpt lat="45.59791" lon="10.7947933"><ele>261.6</ele><time>2026-04-26T07:42:14.769Z</time></trkpt><trkpt lat="45.5980083" lon="10.79485"><ele>259.4</ele><time>2026-04-26T07:42:15.769Z</time></trkpt><trkpt lat="45.5980933" lon="10.79492"><ele>257.2</ele><time>2026-04-26T07:42:16.769Z</time></trkpt><trkpt lat="45.5981617" lon="10.794995"><ele>255.0</ele><time>2026-04-26T07:42:17.769Z</time></trkpt><trkpt lat="45.5982317" lon="10.7950633"><ele>255.0</ele><time>2026-04-26T07:42:18.77Z</time></trkpt><trkpt lat="45.5983067" lon="10.7950917"><ele>255.0</ele><time>2026-04-26T07:42:19.77Z</time></trkpt><trkpt lat="45.59838" lon="10.7951117"><ele>255.0</ele><time>2026-04-26T07:42:20.77Z</time></trkpt><trkpt lat="45.59845" lon="10.7951167"><ele>255.0</ele><time>2026-04-26T07:42:21.769Z</time></trkpt><trkpt lat="45.598535" lon="10.79511"><ele>255.0</ele><time>2026-04-26T07:42:22.769Z</time></trkpt><trkpt lat="45.5986333" lon="10.7950733"><ele>255.0</ele><time>2026-04-26T07:42:23.769Z</time></trkpt><trkpt lat="45.598735" lon="10.795035"><ele>254.0</ele><time>2026-04-26T07:42:24.769Z</time></trkpt><trkpt lat="45.59884" lon="10.7949867"><ele>253.0</ele><time>2026-04-26T07:42:25.769Z</time></trkpt><trkpt lat="45.598945" lon="10.7949217"><ele>252.0</ele><time>2026-04-26T07:42:26.768Z</time></trkpt><trkpt lat="45.5990417" lon="10.7948583"><ele>251.0</ele><time>2026-04-26T07:42:27.769Z</time></trkpt><trkpt lat="45.5991267" lon="10.7947967"><ele>250.0</ele><time>2026-04-26T07:42:28.768Z</time></trkpt><trkpt lat="45.599195" lon="10.79476"><ele>249.99999999999997</ele><time>2026-04-26T07:42:29.769Z</time></trkpt><trkpt lat="45.5992833" lon="10.7947433"><ele>250.0</ele><time>2026-04-26T07:42:30.769Z</time></trkpt><trkpt lat="45.5993683" lon="10.7947217"><ele>250.0</ele><time>2026-04-26T07:42:31.768Z</time></trkpt><trkpt lat="45.599445" lon="10.7947383"><ele>250.0</ele><time>2026-04-26T07:42:32.769Z</time></trkpt><trkpt lat="45.59952" lon="10.7947383"><ele>249.99999999999997</ele><time>2026-04-26T07:42:33.769Z</time></trkpt><trkpt lat="45.5995883" lon="10.7947433"><ele>250.0</ele><time>2026-04-26T07:42:34.769Z</time></trkpt><trkpt lat="45.599695" lon="10.794735"><ele>249.8</ele><time>2026-04-26T07:42:36.769Z</time></trkpt><trkpt lat="45.59977" lon="10.7947"><ele>249.6</ele><time>2026-04-26T07:42:38.769Z</time></trkpt><trkpt lat="45.59985" lon="10.79468"><ele>249.39999999999998</ele><time>2026-04-26T07:42:46.768Z</time></trkpt><trkpt lat="45.59999" lon="10.7946783"><ele>249.2</ele><time>2026-04-26T07:42:48.768Z</time></trkpt><trkpt lat="45.6000733" lon="10.794665"><ele>249.0</ele><time>2026-04-26T07:42:49.769Z</time></trkpt><trkpt lat="45.600155" lon="10.79465"><ele>249.0</ele><time>2026-04-26T07:42:50.769Z</time></trkpt><trkpt lat="45.6002383" lon="10.794635"><ele>249.0</ele><time>2026-04-26T07:42:51.768Z</time></trkpt><trkpt lat="45.6003183" lon="10.79462"><ele>249.0</ele><time>2026-04-26T07:42:52.769Z</time></trkpt><trkpt lat="45.6003967" lon="10.7945983"><ele>249.0</ele><time>2026-04-26T07:42:53.768Z</time></trkpt><trkpt lat="45.60047" lon="10.7945733"><ele>249.0</ele><time>2026-04-26T07:42:54.768Z</time></trkpt><trkpt lat="45.600545" lon="10.7945533"><ele>249.0</ele><time>2026-04-26T07:42:55.769Z</time></trkpt><trkpt lat="45.6006217" lon="10.79453"><ele>249.0</ele><time>2026-04-26T07:42:56.769Z</time></trkpt><trkpt lat="45.600685" lon="10.79451"><ele>249.0</ele><time>2026-04-26T07:42:57.768Z</time></trkpt><trkpt lat="45.600775" lon="10.7944967"><ele>249.0</ele><time>2026-04-26T07:42:59.769Z</time></trkpt><trkpt lat="45.6008633" lon="10.794555"><ele>249.0</ele><time>2026-04-26T07:43:01.768Z</time></trkpt><trkpt lat="45.600915" lon="10.794615"><ele>249.0</ele><time>2026-04-26T07:43:02.769Z</time></trkpt><trkpt lat="45.6010033" lon="10.7947183"><ele>249.0</ele><time>2026-04-26T07:43:03.769Z</time></trkpt><trkpt lat="45.6010867" lon="10.79481"><ele>248.79999999999998</ele><time>2026-04-26T07:43:04.768Z</time></trkpt><trkpt lat="45.60117" lon="10.7949033"><ele>248.59999999999997</ele><time>2026-04-26T07:43:05.769Z</time></trkpt><trkpt lat="45.6012567" lon="10.7949867"><ele>248.4</ele><time>2026-04-26T07:43:06.768Z</time></trkpt><trkpt lat="45.6013433" lon="10.79506"><ele>248.2</ele><time>2026-04-26T07:43:07.768Z</time></trkpt><trkpt lat="45.6014583" lon="10.795115"><ele>248.0</ele><time>2026-04-26T07:43:08.768Z</time></trkpt><trkpt lat="45.6015717" lon="10.7951517"><ele>248.0</ele><time>2026-04-26T07:43:09.768Z</time></trkpt><trkpt lat="45.6016717" lon="10.795165"><ele>248.0</ele><time>2026-04-26T07:43:10.769Z</time></trkpt><trkpt lat="45.6017633" lon="10.7951733"><ele>248.0</ele><time>2026-04-26T07:43:11.768Z</time></trkpt><trkpt lat="45.6018467" lon="10.79517"><ele>248.0</ele><time>2026-04-26T07:43:12.769Z</time></trkpt><trkpt lat="45.601945" lon="10.7951717"><ele>248.0</ele><time>2026-04-26T07:43:13.769Z</time></trkpt><trkpt lat="45.6020467" lon="10.7951783"><ele>248.4</ele><time>2026-04-26T07:43:14.768Z</time></trkpt><trkpt lat="45.602135" lon="10.7951833"><ele>248.8</ele><time>2026-04-26T07:43:15.768Z</time></trkpt><trkpt lat="45.6022067" lon="10.7952067"><ele>249.2</ele><time>2026-04-26T07:43:16.769Z</time></trkpt><trkpt lat="45.6022867" lon="10.79518"><ele>249.6</ele><time>2026-04-26T07:43:18.768Z</time></trkpt><trkpt lat="45.60237" lon="10.7951667"><ele>250.0</ele><time>2026-04-26T07:43:21.768Z</time></trkpt><trkpt lat="45.60251" lon="10.7952583"><ele>250.16666666666666</ele><time>2026-04-26T07:43:30.768Z</time></trkpt><trkpt lat="45.6025633" lon="10.795315"><ele>250.33333333333331</ele><time>2026-04-26T07:43:31.768Z</time></trkpt><trkpt lat="45.6026183" lon="10.795395"><ele>250.5</ele><time>2026-04-26T07:43:32.768Z</time></trkpt><trkpt lat="45.6026683" lon="10.7954917"><ele>250.66666666666669</ele><time>2026-04-26T07:43:33.768Z</time></trkpt><trkpt lat="45.6027133" lon="10.7956217"><ele>250.83333333333334</ele><time>2026-04-26T07:43:34.769Z</time></trkpt><trkpt lat="45.602725" lon="10.7957833"><ele>251.0</ele><time>2026-04-26T07:43:35.768Z</time></trkpt><trkpt lat="45.6027283" lon="10.7959567"><ele>251.0</ele><time>2026-04-26T07:43:36.768Z</time></trkpt><trkpt lat="45.6027367" lon="10.7961383"><ele>251.0</ele><time>2026-04-26T07:43:37.768Z</time></trkpt><trkpt lat="45.60275" lon="10.7963333"><ele>251.0</ele><time>2026-04-26T07:43:38.769Z</time></trkpt><trkpt lat="45.6027683" lon="10.7965433"><ele>251.0</ele><time>2026-04-26T07:43:39.768Z</time></trkpt><trkpt lat="45.60278" lon="10.7967333"><ele>251.00000000000003</ele><time>2026-04-26T07:43:40.768Z</time></trkpt><trkpt lat="45.602795" lon="10.7968917"><ele>251.0</ele><time>2026-04-26T07:43:41.768Z</time></trkpt><trkpt lat="45.6028133" lon="10.797035"><ele>251.0</ele><time>2026-04-26T07:43:42.768Z</time></trkpt><trkpt lat="45.6028417" lon="10.7971517"><ele>251.0</ele><time>2026-04-26T07:43:43.768Z</time></trkpt><trkpt lat="45.6028883" lon="10.797245"><ele>251.00000000000003</ele><time>2026-04-26T07:43:44.768Z</time></trkpt><trkpt lat="45.6029433" lon="10.7972983"><ele>251.0</ele><time>2026-04-26T07:43:45.768Z</time></trkpt><trkpt lat="45.6030267" lon="10.79735"><ele>251.00000000000003</ele><time>2026-04-26T07:43:46.768Z</time></trkpt><trkpt lat="45.6031033" lon="10.7973933"><ele>251.0</ele><time>2026-04-26T07:43:47.769Z</time></trkpt><trkpt lat="45.6031717" lon="10.7974583"><ele>251.0</ele><time>2026-04-26T07:43:48.768Z</time></trkpt><trkpt lat="45.6032317" lon="10.79754"><ele>251.0</ele><time>2026-04-26T07:43:49.768Z</time></trkpt><trkpt lat="45.6032683" lon="10.7976317"><ele>251.00000000000003</ele><time>2026-04-26T07:43:50.768Z</time></trkpt><trkpt lat="45.6032733" lon="10.7977617"><ele>251.0</ele><time>2026-04-26T07:43:51.768Z</time></trkpt><trkpt lat="45.603275" lon="10.797915"><ele>251.0</ele><time>2026-04-26T07:43:52.768Z</time></trkpt><trkpt lat="45.6032933" lon="10.7980483"><ele>251.00000000000003</ele><time>2026-04-26T07:43:53.768Z</time></trkpt><trkpt lat="45.6033433" lon="10.798155"><ele>251.00000000000003</ele><time>2026-04-26T07:43:54.768Z</time></trkpt><trkpt lat="45.6034083" lon="10.79824"><ele>251.0</ele><time>2026-04-26T07:43:55.769Z</time></trkpt><trkpt lat="45.6035467" lon="10.7982917"><ele>251.0</ele><time>2026-04-26T07:43:56.768Z</time></trkpt><trkpt lat="45.60366" lon="10.798345"><ele>251.25</ele><time>2026-04-26T07:43:57.768Z</time></trkpt><trkpt lat="45.6037617" lon="10.79839"><ele>251.5</ele><time>2026-04-26T07:43:58.768Z</time></trkpt><trkpt lat="45.6038767" lon="10.798455"><ele>251.75</ele><time>2026-04-26T07:43:59.769Z</time></trkpt><trkpt lat="45.6039833" lon="10.7985083"><ele>252.0</ele><time>2026-04-26T07:44:00.769Z</time></trkpt><trkpt lat="45.6040933" lon="10.798565"><ele>252.0</ele><time>2026-04-26T07:44:01.768Z</time></trkpt><trkpt lat="45.60419" lon="10.7986217"><ele>252.0</ele><time>2026-04-26T07:44:02.769Z</time></trkpt><trkpt lat="45.6042867" lon="10.798685"><ele>252.0</ele><time>2026-04-26T07:44:03.769Z</time></trkpt><trkpt lat="45.6043817" lon="10.79873"><ele>252.0</ele><time>2026-04-26T07:44:04.768Z</time></trkpt><trkpt lat="45.6044717" lon="10.7987767"><ele>252.0</ele><time>2026-04-26T07:44:05.768Z</time></trkpt><trkpt lat="45.60457" lon="10.7988333"><ele>252.0</ele><time>2026-04-26T07:44:06.769Z</time></trkpt><trkpt lat="45.6046717" lon="10.7988967"><ele>252.0</ele><time>2026-04-26T07:44:07.769Z</time></trkpt><trkpt lat="45.6047783" lon="10.7989633"><ele>252.0</ele><time>2026-04-26T07:44:08.768Z</time></trkpt><trkpt lat="45.6048933" lon="10.79904"><ele>252.0</ele><time>2026-04-26T07:44:09.769Z</time></trkpt><trkpt lat="45.6049983" lon="10.7990867"><ele>252.0</ele><time>2026-04-26T07:44:10.768Z</time></trkpt><trkpt lat="45.6051" lon="10.79915"><ele>252.0</ele><time>2026-04-26T07:44:11.768Z</time></trkpt><trkpt lat="45.6052" lon="10.7992133"><ele>252.0</ele><time>2026-04-26T07:44:12.768Z</time></trkpt><trkpt lat="45.6052967" lon="10.7992717"><ele>252.0</ele><time>2026-04-26T07:44:13.769Z</time></trkpt><trkpt lat="45.605375" lon="10.79933"><ele>252.0</ele><time>2026-04-26T07:44:14.768Z</time></trkpt><trkpt lat="45.6054433" lon="10.799385"><ele>253.8</ele><time>2026-04-26T07:44:15.768Z</time></trkpt><trkpt lat="45.6055067" lon="10.799455"><ele>255.6</ele><time>2026-04-26T07:44:16.768Z</time></trkpt><trkpt lat="45.6055867" lon="10.799635"><ele>257.40000000000003</ele><time>2026-04-26T07:44:18.769Z</time></trkpt><trkpt lat="45.6056167" lon="10.7997517"><ele>259.2</ele><time>2026-04-26T07:44:19.769Z</time></trkpt><trkpt lat="45.6056317" lon="10.7998867"><ele>261.0</ele><time>2026-04-26T07:44:20.768Z</time></trkpt><trkpt lat="45.60559" lon="10.800105"><ele>261.6666666666667</ele><time>2026-04-26T07:44:21.768Z</time></trkpt><trkpt lat="45.60553" lon="10.8003567"><ele>262.33333333333337</ele><time>2026-04-26T07:44:22.768Z</time></trkpt><trkpt lat="45.60549" lon="10.8005783"><ele>263.0</ele><time>2026-04-26T07:44:23.768Z</time></trkpt><trkpt lat="45.60545" lon="10.800805"><ele>264.6666666666667</ele><time>2026-04-26T07:44:24.769Z</time></trkpt><trkpt lat="45.6054133" lon="10.8010283"><ele>266.3333333333333</ele><time>2026-04-26T07:44:25.768Z</time></trkpt><trkpt lat="45.6053883" lon="10.8012417"><ele>268.0</ele><time>2026-04-26T07:44:26.768Z</time></trkpt><trkpt lat="45.6053717" lon="10.8014483"><ele>268.0</ele><time>2026-04-26T07:44:27.768Z</time></trkpt><trkpt lat="45.6053533" lon="10.8016367"><ele>268.0</ele><time>2026-04-26T07:44:28.768Z</time></trkpt><trkpt lat="45.6053367" lon="10.8018233"><ele>268.0</ele><time>2026-04-26T07:44:29.769Z</time></trkpt><trkpt lat="45.6053217" lon="10.8020067"><ele>268.0</ele><time>2026-04-26T07:44:30.769Z</time></trkpt><trkpt lat="45.6053033" lon="10.8021833"><ele>265.25</ele><time>2026-04-26T07:44:31.768Z</time></trkpt><trkpt lat="45.605265" lon="10.8023617"><ele>262.5</ele><time>2026-04-26T07:44:32.768Z</time></trkpt><trkpt lat="45.6052167" lon="10.802515"><ele>259.75</ele><time>2026-04-26T07:44:33.769Z</time></trkpt><trkpt lat="45.6051733" lon="10.8026683"><ele>257.0</ele><time>2026-04-26T07:44:34.769Z</time></trkpt><trkpt lat="45.6051667" lon="10.8028033"><ele>257.0</ele><time>2026-04-26T07:44:35.769Z</time></trkpt><trkpt lat="45.60518" lon="10.80294"><ele>257.0</ele><time>2026-04-26T07:44:36.769Z</time></trkpt><trkpt lat="45.6052117" lon="10.8030667"><ele>257.0</ele><time>2026-04-26T07:44:37.769Z</time></trkpt><trkpt lat="45.6052267" lon="10.8032017"><ele>257.0</ele><time>2026-04-26T07:44:38.768Z</time></trkpt><trkpt lat="45.6052217" lon="10.803345"><ele>257.0</ele><time>2026-04-26T07:44:39.769Z</time></trkpt><trkpt lat="45.6052067" lon="10.8034967"><ele>257.6</ele><time>2026-04-26T07:44:40.769Z</time></trkpt><trkpt lat="45.6051917" lon="10.8036567"><ele>258.2</ele><time>2026-04-26T07:44:41.768Z</time></trkpt><trkpt lat="45.60518" lon="10.8038167"><ele>258.8</ele><time>2026-04-26T07:44:42.768Z</time></trkpt><trkpt lat="45.605165" lon="10.8039667"><ele>259.4</ele><time>2026-04-26T07:44:43.769Z</time></trkpt><trkpt lat="45.60515" lon="10.80413"><ele>260.0</ele><time>2026-04-26T07:44:44.768Z</time></trkpt><trkpt lat="45.6051283" lon="10.8042917"><ele>260.4</ele><time>2026-04-26T07:44:45.769Z</time></trkpt><trkpt lat="45.6051183" lon="10.80446"><ele>260.8</ele><time>2026-04-26T07:44:46.768Z</time></trkpt><trkpt lat="45.6051067" lon="10.8046183"><ele>261.2</ele><time>2026-04-26T07:44:47.769Z</time></trkpt><trkpt lat="45.60511" lon="10.80477"><ele>261.6</ele><time>2026-04-26T07:44:48.768Z</time></trkpt><trkpt lat="45.605105" lon="10.80488"><ele>262.0</ele><time>2026-04-26T07:44:49.768Z</time></trkpt><trkpt lat="45.6051167" lon="10.8049767"><ele>262.0</ele><time>2026-04-26T07:44:50.768Z</time></trkpt><trkpt lat="45.6051367" lon="10.8051"><ele>262.0</ele><time>2026-04-26T07:44:52.768Z</time></trkpt><trkpt lat="45.6051667" lon="10.8052233"><ele>262.0</ele><time>2026-04-26T07:44:54.768Z</time></trkpt><trkpt lat="45.6052017" lon="10.8053017"><ele>262.0</ele><time>2026-04-26T07:44:55.768Z</time></trkpt><trkpt lat="45.60525" lon="10.8053883"><ele>262.0</ele><time>2026-04-26T07:44:56.768Z</time></trkpt><trkpt lat="45.6053033" lon="10.8054683"><ele>262.0</ele><time>2026-04-26T07:44:57.769Z</time></trkpt><trkpt lat="45.6053817" lon="10.8055367"><ele>262.5</ele><time>2026-04-26T07:44:58.768Z</time></trkpt><trkpt lat="45.605435" lon="10.8055967"><ele>263.0</ele><time>2026-04-26T07:44:59.769Z</time></trkpt><trkpt lat="45.6054833" lon="10.8056683"><ele>263.5</ele><time>2026-04-26T07:45:00.768Z</time></trkpt><trkpt lat="45.6055317" lon="10.8057517"><ele>264.0</ele><time>2026-04-26T07:45:01.768Z</time></trkpt><trkpt lat="45.6055683" lon="10.8058617"><ele>264.5</ele><time>2026-04-26T07:45:02.768Z</time></trkpt><trkpt lat="45.6056" lon="10.806"><ele>265.0</ele><time>2026-04-26T07:45:03.768Z</time></trkpt><trkpt lat="45.60564" lon="10.8061633"><ele>265.0</ele><time>2026-04-26T07:45:04.768Z</time></trkpt><trkpt lat="45.6056833" lon="10.8063233"><ele>265.0</ele><time>2026-04-26T07:45:05.768Z</time></trkpt><trkpt lat="45.6057233" lon="10.8064867"><ele>265.0</ele><time>2026-04-26T07:45:06.768Z</time></trkpt><trkpt lat="45.605765" lon="10.806655"><ele>265.0</ele><time>2026-04-26T07:45:07.768Z</time></trkpt><trkpt lat="45.605815" lon="10.806835"><ele>264.75</ele><time>2026-04-26T07:45:08.768Z</time></trkpt><trkpt lat="45.605865" lon="10.80701"><ele>264.5</ele><time>2026-04-26T07:45:09.768Z</time></trkpt><trkpt lat="45.60591" lon="10.8071817"><ele>264.25</ele><time>2026-04-26T07:45:10.769Z</time></trkpt><trkpt lat="45.6059517" lon="10.8073483"><ele>264.0</ele><time>2026-04-26T07:45:11.769Z</time></trkpt><trkpt lat="45.6059883" lon="10.80752"><ele>264.0</ele><time>2026-04-26T07:45:12.769Z</time></trkpt><trkpt lat="45.606035" lon="10.80769"><ele>264.0</ele><time>2026-04-26T07:45:13.768Z</time></trkpt><trkpt lat="45.6060817" lon="10.807865"><ele>264.0</ele><time>2026-04-26T07:45:14.768Z</time></trkpt><trkpt lat="45.606135" lon="10.8080217"><ele>264.0</ele><time>2026-04-26T07:45:15.768Z</time></trkpt><trkpt lat="45.6061783" lon="10.80819"><ele>264.59999999999997</ele><time>2026-04-26T07:45:16.769Z</time></trkpt><trkpt lat="45.6062017" lon="10.8083233"><ele>265.2</ele><time>2026-04-26T07:45:17.769Z</time></trkpt><trkpt lat="45.6062333" lon="10.8084417"><ele>265.79999999999995</ele><time>2026-04-26T07:45:18.768Z</time></trkpt><trkpt lat="45.6062733" lon="10.8085717"><ele>266.4</ele><time>2026-04-26T07:45:19.768Z</time></trkpt><trkpt lat="45.60634" lon="10.8087"><ele>267.0</ele><time>2026-04-26T07:45:20.768Z</time></trkpt><trkpt lat="45.6064117" lon="10.808815"><ele>267.0</ele><time>2026-04-26T07:45:21.768Z</time></trkpt><trkpt lat="45.606485" lon="10.8089283"><ele>267.0</ele><time>2026-04-26T07:45:22.769Z</time></trkpt><trkpt lat="45.6065733" lon="10.809035"><ele>267.0</ele><time>2026-04-26T07:45:23.768Z</time></trkpt><trkpt lat="45.6066683" lon="10.8091383"><ele>267.0</ele><time>2026-04-26T07:45:24.769Z</time></trkpt><trkpt lat="45.6067483" lon="10.809225"><ele>267.0</ele><time>2026-04-26T07:45:25.768Z</time></trkpt><trkpt lat="45.606815" lon="10.8093083"><ele>267.0</ele><time>2026-04-26T07:45:26.769Z</time></trkpt><trkpt lat="45.60687" lon="10.809385"><ele>267.0</ele><time>2026-04-26T07:45:27.768Z</time></trkpt><trkpt lat="45.6069183" lon="10.8094583"><ele>267.0</ele><time>2026-04-26T07:45:28.769Z</time></trkpt><trkpt lat="45.6069617" lon="10.8095283"><ele>267.0</ele><time>2026-04-26T07:45:29.768Z</time></trkpt><trkpt lat="45.607015" lon="10.8096683"><ele>267.0</ele><time>2026-04-26T07:45:31.768Z</time></trkpt><trkpt lat="45.60704" lon="10.8097767"><ele>267.0</ele><time>2026-04-26T07:45:33.768Z</time></trkpt><trkpt lat="45.606985" lon="10.809845"><ele>267.0</ele><time>2026-04-26T07:45:36.769Z</time></trkpt><trkpt lat="45.6069217" lon="10.8098783"><ele>267.0</ele><time>2026-04-26T07:45:37.768Z</time></trkpt><trkpt lat="45.60679" lon="10.8099617"><ele>267.0</ele><time>2026-04-26T07:45:39.768Z</time></trkpt><trkpt lat="45.606725" lon="10.81"><ele>267.0</ele><time>2026-04-26T07:45:40.769Z</time></trkpt><trkpt lat="45.606665" lon="10.81004"><ele>267.0</ele><time>2026-04-26T07:45:41.768Z</time></trkpt><trkpt lat="45.606575" lon="10.810125"><ele>267.2</ele><time>2026-04-26T07:45:43.768Z</time></trkpt><trkpt lat="45.6065333" lon="10.8102267"><ele>267.4</ele><time>2026-04-26T07:45:45.768Z</time></trkpt><trkpt lat="45.606505" lon="10.810355"><ele>267.6</ele><time>2026-04-26T07:45:47.767Z</time></trkpt><trkpt lat="45.6064783" lon="10.810465"><ele>267.8</ele><time>2026-04-26T07:45:48.767Z</time></trkpt><trkpt lat="45.6064217" lon="10.810585"><ele>268.0</ele><time>2026-04-26T07:45:49.767Z</time></trkpt><trkpt lat="45.60637" lon="10.810695"><ele>268.0</ele><time>2026-04-26T07:45:50.767Z</time></trkpt><trkpt lat="45.6063133" lon="10.8108017"><ele>268.0</ele><time>2026-04-26T07:45:51.767Z</time></trkpt><trkpt lat="45.60625" lon="10.8109133"><ele>268.0</ele><time>2026-04-26T07:45:52.767Z</time></trkpt><trkpt lat="45.60619" lon="10.8110217"><ele>268.0</ele><time>2026-04-26T07:45:53.767Z</time></trkpt><trkpt lat="45.606125" lon="10.8111233"><ele>268.0</ele><time>2026-04-26T07:45:54.767Z</time></trkpt><trkpt lat="45.6060717" lon="10.8112233"><ele>268.2</ele><time>2026-04-26T07:45:55.767Z</time></trkpt><trkpt lat="45.6060033" lon="10.8113133"><ele>268.4</ele><time>2026-04-26T07:45:56.767Z</time></trkpt><trkpt lat="45.6059333" lon="10.8114017"><ele>268.59999999999997</ele><time>2026-04-26T07:45:57.768Z</time></trkpt><trkpt lat="45.6058617" lon="10.8115067"><ele>268.8</ele><time>2026-04-26T07:45:58.768Z</time></trkpt><trkpt lat="45.6057983" lon="10.8115983"><ele>269.0</ele><time>2026-04-26T07:45:59.767Z</time></trkpt><trkpt lat="45.60574" lon="10.81169"><ele>269.0</ele><time>2026-04-26T07:46:00.767Z</time></trkpt><trkpt lat="45.6057" lon="10.811775"><ele>269.0</ele><time>2026-04-26T07:46:01.767Z</time></trkpt><trkpt lat="45.60567" lon="10.8118683"><ele>269.0</ele><time>2026-04-26T07:46:02.768Z</time></trkpt><trkpt lat="45.6056383" lon="10.8119867"><ele>269.0</ele><time>2026-04-26T07:46:03.767Z</time></trkpt><trkpt lat="45.6056133" lon="10.812095"><ele>269.0</ele><time>2026-04-26T07:46:04.768Z</time></trkpt><trkpt lat="45.60559" lon="10.812195"><ele>269.0</ele><time>2026-04-26T07:46:05.768Z</time></trkpt><trkpt lat="45.6055467" lon="10.81235"><ele>269.1666666666667</ele><time>2026-04-26T07:46:07.768Z</time></trkpt><trkpt lat="45.605515" lon="10.8124333"><ele>269.33333333333337</ele><time>2026-04-26T07:46:09.767Z</time></trkpt><trkpt lat="45.6054717" lon="10.8125167"><ele>269.5</ele><time>2026-04-26T07:46:11.767Z</time></trkpt><trkpt lat="45.6054217" lon="10.8125867"><ele>269.6666666666667</ele><time>2026-04-26T07:46:13.768Z</time></trkpt><trkpt lat="45.60535" lon="10.812675"><ele>269.8333333333333</ele><time>2026-04-26T07:46:15.768Z</time></trkpt><trkpt lat="45.60528" lon="10.8128233"><ele>270.0</ele><time>2026-04-26T07:46:17.767Z</time></trkpt><trkpt lat="45.60524" lon="10.81292"><ele>269.6</ele><time>2026-04-26T07:46:18.767Z</time></trkpt><trkpt lat="45.6051967" lon="10.81302"><ele>269.2</ele><time>2026-04-26T07:46:19.768Z</time></trkpt><trkpt lat="45.60515" lon="10.813145"><ele>268.8</ele><time>2026-04-26T07:46:20.767Z</time></trkpt><trkpt lat="45.6051033" lon="10.8132867"><ele>268.4</ele><time>2026-04-26T07:46:21.767Z</time></trkpt><trkpt lat="45.6050517" lon="10.8134533"><ele>268.0</ele><time>2026-04-26T07:46:22.767Z</time></trkpt><trkpt lat="45.60501" lon="10.8136183"><ele>268.0</ele><time>2026-04-26T07:46:23.767Z</time></trkpt><trkpt lat="45.6049717" lon="10.81376"><ele>268.0</ele><time>2026-04-26T07:46:24.768Z</time></trkpt><trkpt lat="45.6049367" lon="10.8138883"><ele>268.0</ele><time>2026-04-26T07:46:25.767Z</time></trkpt><trkpt lat="45.6049083" lon="10.8140167"><ele>268.0</ele><time>2026-04-26T07:46:26.767Z</time></trkpt><trkpt lat="45.604865" lon="10.8141517"><ele>268.0</ele><time>2026-04-26T07:46:27.767Z</time></trkpt><trkpt lat="45.6048267" lon="10.814285"><ele>268.2</ele><time>2026-04-26T07:46:28.767Z</time></trkpt><trkpt lat="45.6047917" lon="10.8144083"><ele>268.4</ele><time>2026-04-26T07:46:29.767Z</time></trkpt><trkpt lat="45.6047683" lon="10.81454"><ele>268.59999999999997</ele><time>2026-04-26T07:46:30.767Z</time></trkpt><trkpt lat="45.60475" lon="10.8146883"><ele>268.8</ele><time>2026-04-26T07:46:31.767Z</time></trkpt><trkpt lat="45.6047317" lon="10.8148217"><ele>269.0</ele><time>2026-04-26T07:46:32.767Z</time></trkpt><trkpt lat="45.604705" lon="10.8149617"><ele>269.0</ele><time>2026-04-26T07:46:33.767Z</time></trkpt><trkpt lat="45.6046733" lon="10.8150967"><ele>269.0</ele><time>2026-04-26T07:46:34.767Z</time></trkpt><trkpt lat="45.6046433" lon="10.8152267"><ele>269.0</ele><time>2026-04-26T07:46:35.768Z</time></trkpt><trkpt lat="45.6046217" lon="10.81537"><ele>269.0</ele><time>2026-04-26T07:46:36.768Z</time></trkpt><trkpt lat="45.6046033" lon="10.8154983"><ele>269.0</ele><time>2026-04-26T07:46:37.767Z</time></trkpt><trkpt lat="45.6045933" lon="10.8156083"><ele>269.0</ele><time>2026-04-26T07:46:38.767Z</time></trkpt><trkpt lat="45.604585" lon="10.8157167"><ele>269.0</ele><time>2026-04-26T07:46:39.768Z</time></trkpt><trkpt lat="45.60458" lon="10.8158567"><ele>269.0</ele><time>2026-04-26T07:46:41.768Z</time></trkpt><trkpt lat="45.60464" lon="10.8159467"><ele>269.0</ele><time>2026-04-26T07:46:55.767Z</time></trkpt><trkpt lat="45.6046783" lon="10.8160567"><ele>269.0</ele><time>2026-04-26T07:46:57.768Z</time></trkpt><trkpt lat="45.60471" lon="10.8162233"><ele>269.0</ele><time>2026-04-26T07:46:59.767Z</time></trkpt><trkpt lat="45.60473" lon="10.81633"><ele>269.0</ele><time>2026-04-26T07:47:00.768Z</time></trkpt><trkpt lat="45.6047467" lon="10.81646"><ele>269.0</ele><time>2026-04-26T07:47:01.768Z</time></trkpt><trkpt lat="45.604755" lon="10.816575"><ele>269.0</ele><time>2026-04-26T07:47:02.768Z</time></trkpt><trkpt lat="45.6047717" lon="10.8166883"><ele>269.0</ele><time>2026-04-26T07:47:03.767Z</time></trkpt><trkpt lat="45.6047783" lon="10.816805"><ele>269.0</ele><time>2026-04-26T07:47:04.767Z</time></trkpt><trkpt lat="45.604785" lon="10.8169"><ele>269.6666666666667</ele><time>2026-04-26T07:47:05.767Z</time></trkpt><trkpt lat="45.6048" lon="10.8169983"><ele>270.33333333333337</ele><time>2026-04-26T07:47:06.767Z</time></trkpt><trkpt lat="45.6048317" lon="10.8170917"><ele>271.0</ele><time>2026-04-26T07:47:07.768Z</time></trkpt><trkpt lat="45.6048633" lon="10.8171933"><ele>271.6666666666667</ele><time>2026-04-26T07:47:08.767Z</time></trkpt><trkpt lat="45.6048933" lon="10.8172983"><ele>272.3333333333333</ele><time>2026-04-26T07:47:09.767Z</time></trkpt><trkpt lat="45.6049167" lon="10.8174133"><ele>273.0</ele><time>2026-04-26T07:47:10.767Z</time></trkpt><trkpt lat="45.6049317" lon="10.8175117"><ele>273.0</ele><time>2026-04-26T07:47:11.767Z</time></trkpt><trkpt lat="45.604945" lon="10.8176017"><ele>273.0</ele><time>2026-04-26T07:47:12.768Z</time></trkpt><trkpt lat="45.6049383" lon="10.8177633"><ele>273.0</ele><time>2026-04-26T07:47:14.767Z</time></trkpt><trkpt lat="45.6049133" lon="10.8178517"><ele>273.0</ele><time>2026-04-26T07:47:15.768Z</time></trkpt><trkpt lat="45.60487" lon="10.8179383"><ele>273.0</ele><time>2026-04-26T07:47:16.768Z</time></trkpt><trkpt lat="45.6048267" lon="10.8180383"><ele>273.0</ele><time>2026-04-26T07:47:17.767Z</time></trkpt><trkpt lat="45.6047783" lon="10.8181433"><ele>273.1666666666667</ele><time>2026-04-26T07:47:18.768Z</time></trkpt><trkpt lat="45.6047167" lon="10.8182667"><ele>273.3333333333333</ele><time>2026-04-26T07:47:19.767Z</time></trkpt><trkpt lat="45.6046783" lon="10.818365"><ele>273.5</ele><time>2026-04-26T07:47:20.768Z</time></trkpt><trkpt lat="45.604635" lon="10.8184483"><ele>273.66666666666663</ele><time>2026-04-26T07:47:21.767Z</time></trkpt><trkpt lat="45.60461" lon="10.8185317"><ele>273.8333333333333</ele><time>2026-04-26T07:47:22.768Z</time></trkpt><trkpt lat="45.604575" lon="10.81863"><ele>274.0</ele><time>2026-04-26T07:47:23.768Z</time></trkpt><trkpt lat="45.604545" lon="10.81872"><ele>273.4</ele><time>2026-04-26T07:47:24.768Z</time></trkpt><trkpt lat="45.604495" lon="10.8188833"><ele>272.79999999999995</ele><time>2026-04-26T07:47:26.767Z</time></trkpt><trkpt lat="45.6044733" lon="10.8190133"><ele>272.20000000000005</ele><time>2026-04-26T07:47:28.768Z</time></trkpt><trkpt lat="45.60449" lon="10.8191183"><ele>271.6</ele><time>2026-04-26T07:47:31.767Z</time></trkpt><trkpt lat="45.6045233" lon="10.8192433"><ele>271.0</ele><time>2026-04-26T07:47:33.767Z</time></trkpt><trkpt lat="45.6045567" lon="10.8193967"><ele>273.8</ele><time>2026-04-26T07:47:35.768Z</time></trkpt><trkpt lat="45.6045867" lon="10.81955"><ele>276.6</ele><time>2026-04-26T07:47:37.767Z</time></trkpt><trkpt lat="45.604615" lon="10.819715"><ele>279.4</ele><time>2026-04-26T07:47:39.767Z</time></trkpt><trkpt lat="45.6046233" lon="10.819895"><ele>282.2</ele><time>2026-04-26T07:47:41.767Z</time></trkpt><trkpt lat="45.60461" lon="10.8199917"><ele>285.0</ele><time>2026-04-26T07:47:42.768Z</time></trkpt><trkpt lat="45.6045933" lon="10.8201133"><ele>286.1666666666667</ele><time>2026-04-26T07:47:43.768Z</time></trkpt><trkpt lat="45.604575" lon="10.8202317"><ele>287.3333333333333</ele><time>2026-04-26T07:47:44.767Z</time></trkpt><trkpt lat="45.6045683" lon="10.8203517"><ele>288.5</ele><time>2026-04-26T07:47:45.768Z</time></trkpt><trkpt lat="45.6045467" lon="10.8204617"><ele>289.66666666666663</ele><time>2026-04-26T07:47:46.767Z</time></trkpt><trkpt lat="45.6045183" lon="10.8205617"><ele>290.8333333333333</ele><time>2026-04-26T07:47:47.767Z</time></trkpt><trkpt lat="45.6045217" lon="10.8206667"><ele>292.0</ele><time>2026-04-26T07:47:48.768Z</time></trkpt><trkpt lat="45.60451" lon="10.82083"><ele>292.0</ele><time>2026-04-26T07:47:50.767Z</time></trkpt><trkpt lat="45.6044983" lon="10.82092"><ele>292.0</ele><time>2026-04-26T07:47:51.767Z</time></trkpt><trkpt lat="45.6044867" lon="10.82102"><ele>292.0</ele><time>2026-04-26T07:47:52.767Z</time></trkpt><trkpt lat="45.6044817" lon="10.82114"><ele>292.0</ele><time>2026-04-26T07:47:53.768Z</time></trkpt><trkpt lat="45.6044717" lon="10.821275"><ele>292.0</ele><time>2026-04-26T07:47:54.767Z</time></trkpt><trkpt lat="45.6044617" lon="10.8214017"><ele>292.0</ele><time>2026-04-26T07:47:55.768Z</time></trkpt><trkpt lat="45.604445" lon="10.82152"><ele>290.66666666666663</ele><time>2026-04-26T07:47:56.767Z</time></trkpt><trkpt lat="45.604435" lon="10.8216367"><ele>289.3333333333333</ele><time>2026-04-26T07:47:57.767Z</time></trkpt><trkpt lat="45.604425" lon="10.8217317"><ele>288.0</ele><time>2026-04-26T07:47:58.767Z</time></trkpt><trkpt lat="45.6044333" lon="10.8218367"><ele>286.6666666666667</ele><time>2026-04-26T07:47:59.768Z</time></trkpt><trkpt lat="45.6043917" lon="10.8219483"><ele>285.33333333333337</ele><time>2026-04-26T07:48:01.768Z</time></trkpt><trkpt lat="45.6043267" lon="10.8220017"><ele>284.0</ele><time>2026-04-26T07:48:04.768Z</time></trkpt><trkpt lat="45.60424" lon="10.8220483"><ele>284.0</ele><time>2026-04-26T07:48:07.768Z</time></trkpt><trkpt lat="45.60417" lon="10.8220567"><ele>284.0</ele><time>2026-04-26T07:48:09.767Z</time></trkpt><trkpt lat="45.6040917" lon="10.8220633"><ele>284.0</ele><time>2026-04-26T07:48:11.767Z</time></trkpt><trkpt lat="45.6040217" lon="10.8220567"><ele>284.0</ele><time>2026-04-26T07:48:13.768Z</time></trkpt><trkpt lat="45.6039317" lon="10.822025"><ele>284.0</ele><time>2026-04-26T07:48:16.768Z</time></trkpt><trkpt lat="45.6038217" lon="10.8220117"><ele>284.0</ele><time>2026-04-26T07:48:18.768Z</time></trkpt><trkpt lat="45.6037433" lon="10.8220183"><ele>284.0</ele><time>2026-04-26T07:48:19.767Z</time></trkpt><trkpt lat="45.60367" lon="10.8220267"><ele>284.0</ele><time>2026-04-26T07:48:20.767Z</time></trkpt><trkpt lat="45.603595" lon="10.8220383"><ele>284.0</ele><time>2026-04-26T07:48:21.767Z</time></trkpt><trkpt lat="45.6035217" lon="10.8220517"><ele>284.0</ele><time>2026-04-26T07:48:22.767Z</time></trkpt><trkpt lat="45.6034483" lon="10.822075"><ele>284.0</ele><time>2026-04-26T07:48:23.768Z</time></trkpt><trkpt lat="45.6033717" lon="10.822115"><ele>284.0</ele><time>2026-04-26T07:48:24.767Z</time></trkpt><trkpt lat="45.603275" lon="10.822165"><ele>282.8</ele><time>2026-04-26T07:48:25.767Z</time></trkpt><trkpt lat="45.6031917" lon="10.8222017"><ele>281.59999999999997</ele><time>2026-04-26T07:48:26.767Z</time></trkpt><trkpt lat="45.6030917" lon="10.822245"><ele>280.4</ele><time>2026-04-26T07:48:27.767Z</time></trkpt><trkpt lat="45.6029783" lon="10.8223217"><ele>279.2</ele><time>2026-04-26T07:48:28.767Z</time></trkpt><trkpt lat="45.6028817" lon="10.82237"><ele>278.0</ele><time>2026-04-26T07:48:29.768Z</time></trkpt><trkpt lat="45.60279" lon="10.8224433"><ele>277.6</ele><time>2026-04-26T07:48:30.768Z</time></trkpt><trkpt lat="45.6026967" lon="10.822495"><ele>277.20000000000005</ele><time>2026-04-26T07:48:31.768Z</time></trkpt><trkpt lat="45.6026083" lon="10.8225383"><ele>276.8</ele><time>2026-04-26T07:48:32.767Z</time></trkpt><trkpt lat="45.6025283" lon="10.8225917"><ele>276.40000000000003</ele><time>2026-04-26T07:48:33.768Z</time></trkpt><trkpt lat="45.60245" lon="10.8226483"><ele>276.0</ele><time>2026-04-26T07:48:34.767Z</time></trkpt><trkpt lat="45.6023633" lon="10.8227133"><ele>276.6666666666667</ele><time>2026-04-26T07:48:35.767Z</time></trkpt><trkpt lat="45.6022867" lon="10.8227683"><ele>277.3333333333333</ele><time>2026-04-26T07:48:36.767Z</time></trkpt><trkpt lat="45.602215" lon="10.8228183"><ele>278.0</ele><time>2026-04-26T07:48:37.767Z</time></trkpt><trkpt lat="45.6021517" lon="10.8228767"><ele>278.66666666666663</ele><time>2026-04-26T07:48:38.767Z</time></trkpt><trkpt lat="45.6020583" lon="10.8229417"><ele>279.3333333333333</ele><time>2026-04-26T07:48:40.767Z</time></trkpt><trkpt lat="45.60196" lon="10.8229883"><ele>280.0</ele><time>2026-04-26T07:48:42.768Z</time></trkpt><trkpt lat="45.6018983" lon="10.823035"><ele>280.0</ele><time>2026-04-26T07:48:43.767Z</time></trkpt><trkpt lat="45.60182" lon="10.8230883"><ele>280.0</ele><time>2026-04-26T07:48:44.767Z</time></trkpt><trkpt lat="45.6017583" lon="10.8231367"><ele>280.0</ele><time>2026-04-26T07:48:45.767Z</time></trkpt><trkpt lat="45.6016833" lon="10.823225"><ele>280.0</ele><time>2026-04-26T07:48:47.768Z</time></trkpt><trkpt lat="45.6015967" lon="10.8233617"><ele>280.0</ele><time>2026-04-26T07:48:49.767Z</time></trkpt><trkpt lat="45.6015533" lon="10.8234417"><ele>281.66666666666663</ele><time>2026-04-26T07:48:50.768Z</time></trkpt><trkpt lat="45.6014817" lon="10.82356"><ele>283.3333333333333</ele><time>2026-04-26T07:48:52.767Z</time></trkpt><trkpt lat="45.601375" lon="10.8236233"><ele>285.0</ele><time>2026-04-26T07:48:54.767Z</time></trkpt><trkpt lat="45.6013083" lon="10.82365"><ele>286.6666666666667</ele><time>2026-04-26T07:48:55.767Z</time></trkpt><trkpt lat="45.6012467" lon="10.8236833"><ele>288.33333333333337</ele><time>2026-04-26T07:48:56.767Z</time></trkpt><trkpt lat="45.601185" lon="10.8237183"><ele>290.0</ele><time>2026-04-26T07:48:57.767Z</time></trkpt><trkpt lat="45.6011217" lon="10.8237583"><ele>290.1666666666667</ele><time>2026-04-26T07:48:58.768Z</time></trkpt><trkpt lat="45.60106" lon="10.8237967"><ele>290.33333333333337</ele><time>2026-04-26T07:48:59.767Z</time></trkpt><trkpt lat="45.600955" lon="10.8238483"><ele>290.5</ele><time>2026-04-26T07:49:01.767Z</time></trkpt><trkpt lat="45.60088" lon="10.82388"><ele>290.6666666666667</ele><time>2026-04-26T07:49:02.768Z</time></trkpt><trkpt lat="45.6008033" lon="10.8239217"><ele>290.8333333333333</ele><time>2026-04-26T07:49:03.767Z</time></trkpt><trkpt lat="45.6007333" lon="10.8239733"><ele>291.0</ele><time>2026-04-26T07:49:04.767Z</time></trkpt><trkpt lat="45.6006467" lon="10.8240067"><ele>291.0</ele><time>2026-04-26T07:49:06.767Z</time></trkpt><trkpt lat="45.6005733" lon="10.8239717"><ele>291.0</ele><time>2026-04-26T07:49:09.767Z</time></trkpt><trkpt lat="45.60047" lon="10.82391"><ele>291.0</ele><time>2026-04-26T07:49:11.767Z</time></trkpt><trkpt lat="45.6004017" lon="10.8238583"><ele>291.0</ele><time>2026-04-26T07:49:12.766Z</time></trkpt><trkpt lat="45.600325" lon="10.8238133"><ele>291.0</ele><time>2026-04-26T07:49:13.766Z</time></trkpt><trkpt lat="45.6002467" lon="10.8237667"><ele>291.0</ele><time>2026-04-26T07:49:14.766Z</time></trkpt><trkpt lat="45.6001683" lon="10.8237117"><ele>291.40000000000003</ele><time>2026-04-26T07:49:15.766Z</time></trkpt><trkpt lat="45.6000783" lon="10.8236617"><ele>291.8</ele><time>2026-04-26T07:49:16.766Z</time></trkpt><trkpt lat="45.5999883" lon="10.82362"><ele>292.20000000000005</ele><time>2026-04-26T07:49:17.767Z</time></trkpt><trkpt lat="45.5998883" lon="10.8235683"><ele>292.6</ele><time>2026-04-26T07:49:18.766Z</time></trkpt><trkpt lat="45.5998017" lon="10.82351"><ele>293.0</ele><time>2026-04-26T07:49:19.766Z</time></trkpt><trkpt lat="45.5997167" lon="10.8234567"><ele>291.83333333333337</ele><time>2026-04-26T07:49:20.766Z</time></trkpt><trkpt lat="45.5996517" lon="10.8234083"><ele>290.6666666666667</ele><time>2026-04-26T07:49:21.766Z</time></trkpt><trkpt lat="45.5995983" lon="10.823355"><ele>289.5</ele><time>2026-04-26T07:49:22.767Z</time></trkpt><trkpt lat="45.599495" lon="10.8232567"><ele>288.3333333333333</ele><time>2026-04-26T07:49:24.767Z</time></trkpt><trkpt lat="45.599435" lon="10.8232183"><ele>287.16666666666663</ele><time>2026-04-26T07:49:25.767Z</time></trkpt><trkpt lat="45.599355" lon="10.8231817"><ele>286.0</ele><time>2026-04-26T07:49:26.766Z</time></trkpt><trkpt lat="45.599255" lon="10.8231433"><ele>286.0</ele><time>2026-04-26T07:49:27.766Z</time></trkpt><trkpt lat="45.599155" lon="10.8231167"><ele>286.0</ele><time>2026-04-26T07:49:28.766Z</time></trkpt><trkpt lat="45.59905" lon="10.8230983"><ele>286.0</ele><time>2026-04-26T07:49:29.766Z</time></trkpt><trkpt lat="45.59895" lon="10.8230783"><ele>286.0</ele><time>2026-04-26T07:49:30.766Z</time></trkpt><trkpt lat="45.5988467" lon="10.8230517"><ele>286.0</ele><time>2026-04-26T07:49:31.766Z</time></trkpt><trkpt lat="45.59875" lon="10.82302"><ele>286.0</ele><time>2026-04-26T07:49:32.766Z</time></trkpt><trkpt lat="45.5986733" lon="10.822985"><ele>286.0</ele><time>2026-04-26T07:49:33.766Z</time></trkpt><trkpt lat="45.5985783" lon="10.8229483"><ele>286.0</ele><time>2026-04-26T07:49:34.766Z</time></trkpt><trkpt lat="45.59848" lon="10.822915"><ele>286.0</ele><time>2026-04-26T07:49:35.766Z</time></trkpt><trkpt lat="45.5983733" lon="10.822895"><ele>286.0</ele><time>2026-04-26T07:49:36.766Z</time></trkpt><trkpt lat="45.59827" lon="10.8228767"><ele>286.6</ele><time>2026-04-26T07:49:37.767Z</time></trkpt><trkpt lat="45.59816" lon="10.8228633"><ele>287.20000000000005</ele><time>2026-04-26T07:49:38.766Z</time></trkpt><trkpt lat="45.5980567" lon="10.8228433"><ele>287.79999999999995</ele><time>2026-04-26T07:49:39.766Z</time></trkpt><trkpt lat="45.597955" lon="10.82282"><ele>288.4</ele><time>2026-04-26T07:49:40.766Z</time></trkpt><trkpt lat="45.5978533" lon="10.8227933"><ele>289.0</ele><time>2026-04-26T07:49:41.767Z</time></trkpt><trkpt lat="45.597745" lon="10.8227667"><ele>287.8</ele><time>2026-04-26T07:49:42.767Z</time></trkpt><trkpt lat="45.5976383" lon="10.822735"><ele>286.59999999999997</ele><time>2026-04-26T07:49:43.766Z</time></trkpt><trkpt lat="45.5975283" lon="10.8227033"><ele>285.4</ele><time>2026-04-26T07:49:44.766Z</time></trkpt><trkpt lat="45.59745" lon="10.8226333"><ele>284.2</ele><time>2026-04-26T07:49:45.766Z</time></trkpt><trkpt lat="45.5973567" lon="10.8225983"><ele>283.0</ele><time>2026-04-26T07:49:46.766Z</time></trkpt><trkpt lat="45.5972933" lon="10.822555"><ele>281.57142857142856</ele><time>2026-04-26T07:49:47.766Z</time></trkpt><trkpt lat="45.5972283" lon="10.8225367"><ele>280.14285714285717</ele><time>2026-04-26T07:49:48.766Z</time></trkpt><trkpt lat="45.5971617" lon="10.822505"><ele>278.7142857142857</ele><time>2026-04-26T07:49:49.766Z</time></trkpt><trkpt lat="45.5971083" lon="10.8224517"><ele>277.2857142857143</ele><time>2026-04-26T07:49:50.766Z</time></trkpt><trkpt lat="45.5970667" lon="10.82238"><ele>275.8571428571429</ele><time>2026-04-26T07:49:51.766Z</time></trkpt><trkpt lat="45.59698" lon="10.8222683"><ele>274.42857142857144</ele><time>2026-04-26T07:49:53.767Z</time></trkpt><trkpt lat="45.59693" lon="10.8222133"><ele>273.0</ele><time>2026-04-26T07:49:54.766Z</time></trkpt><trkpt lat="45.59685" lon="10.8221217"><ele>273.0</ele><time>2026-04-26T07:49:56.767Z</time></trkpt><trkpt lat="45.596815" lon="10.8220167"><ele>273.0</ele><time>2026-04-26T07:49:58.766Z</time></trkpt><trkpt lat="45.5968017" lon="10.8219133"><ele>273.0</ele><time>2026-04-26T07:50:00.767Z</time></trkpt><trkpt lat="45.596885" lon="10.821815"><ele>273.0</ele><time>2026-04-26T07:50:03.767Z</time></trkpt><trkpt lat="45.5969533" lon="10.8217733"><ele>273.0</ele><time>2026-04-26T07:50:04.766Z</time></trkpt><trkpt lat="45.5970317" lon="10.8217267"><ele>273.0</ele><time>2026-04-26T07:50:05.766Z</time></trkpt><trkpt lat="45.5971133" lon="10.8216783"><ele>272.6</ele><time>2026-04-26T07:50:06.766Z</time></trkpt><trkpt lat="45.5972083" lon="10.8216133"><ele>272.20000000000005</ele><time>2026-04-26T07:50:07.766Z</time></trkpt><trkpt lat="45.5972883" lon="10.8215433"><ele>271.8</ele><time>2026-04-26T07:50:08.767Z</time></trkpt><trkpt lat="45.597355" lon="10.82145"><ele>271.40000000000003</ele><time>2026-04-26T07:50:09.766Z</time></trkpt><trkpt lat="45.5974233" lon="10.8213583"><ele>271.0</ele><time>2026-04-26T07:50:10.766Z</time></trkpt><trkpt lat="45.5974967" lon="10.82125"><ele>271.0</ele><time>2026-04-26T07:50:11.767Z</time></trkpt><trkpt lat="45.5975583" lon="10.8211383"><ele>271.0</ele><time>2026-04-26T07:50:12.766Z</time></trkpt><trkpt lat="45.5976367" lon="10.8210283"><ele>271.0</ele><time>2026-04-26T07:50:13.767Z</time></trkpt><trkpt lat="45.5977083" lon="10.8209267"><ele>271.0</ele><time>2026-04-26T07:50:14.767Z</time></trkpt><trkpt lat="45.5977833" lon="10.820825"><ele>271.0</ele><time>2026-04-26T07:50:15.767Z</time></trkpt><trkpt lat="45.5978783" lon="10.820705"><ele>269.75</ele><time>2026-04-26T07:50:16.767Z</time></trkpt><trkpt lat="45.5979983" lon="10.8205733"><ele>268.5</ele><time>2026-04-26T07:50:17.767Z</time></trkpt><trkpt lat="45.5980967" lon="10.820465"><ele>267.25</ele><time>2026-04-26T07:50:18.766Z</time></trkpt><trkpt lat="45.59821" lon="10.8203483"><ele>266.0</ele><time>2026-04-26T07:50:19.766Z</time></trkpt><trkpt lat="45.5983017" lon="10.8202317"><ele>266.33333333333337</ele><time>2026-04-26T07:50:20.766Z</time></trkpt><trkpt lat="45.598385" lon="10.8201117"><ele>266.6666666666667</ele><time>2026-04-26T07:50:21.766Z</time></trkpt><trkpt lat="45.59843" lon="10.8200367"><ele>267.0</ele><time>2026-04-26T07:50:22.767Z</time></trkpt><trkpt lat="45.5984683" lon="10.819965"><ele>267.3333333333333</ele><time>2026-04-26T07:50:23.766Z</time></trkpt><trkpt lat="45.59853" lon="10.8198933"><ele>267.66666666666663</ele><time>2026-04-26T07:50:25.767Z</time></trkpt><trkpt lat="45.5986133" lon="10.8198283"><ele>268.0</ele><time>2026-04-26T07:50:27.766Z</time></trkpt><trkpt lat="45.5986783" lon="10.8197783"><ele>268.0</ele><time>2026-04-26T07:50:28.767Z</time></trkpt><trkpt lat="45.5987567" lon="10.819725"><ele>268.0</ele><time>2026-04-26T07:50:29.766Z</time></trkpt><trkpt lat="45.598855" lon="10.8196383"><ele>268.0</ele><time>2026-04-26T07:50:30.766Z</time></trkpt><trkpt lat="45.5989717" lon="10.8195133"><ele>268.0</ele><time>2026-04-26T07:50:31.767Z</time></trkpt><trkpt lat="45.5990617" lon="10.8194317"><ele>268.0</ele><time>2026-04-26T07:50:32.766Z</time></trkpt><trkpt lat="45.5991383" lon="10.81937"><ele>268.0</ele><time>2026-04-26T07:50:33.766Z</time></trkpt><trkpt lat="45.59921" lon="10.8193133"><ele>268.0</ele><time>2026-04-26T07:50:34.766Z</time></trkpt><trkpt lat="45.599285" lon="10.81927"><ele>268.0</ele><time>2026-04-26T07:50:35.767Z</time></trkpt><trkpt lat="45.599365" lon="10.8192183"><ele>268.0</ele><time>2026-04-26T07:50:36.767Z</time></trkpt><trkpt lat="45.5994533" lon="10.8191783"><ele>268.0</ele><time>2026-04-26T07:50:37.766Z</time></trkpt><trkpt lat="45.5995583" lon="10.8191483"><ele>268.2</ele><time>2026-04-26T07:50:38.766Z</time></trkpt><trkpt lat="45.5996617" lon="10.8191233"><ele>268.4</ele><time>2026-04-26T07:50:39.766Z</time></trkpt><trkpt lat="45.5997717" lon="10.8190983"><ele>268.59999999999997</ele><time>2026-04-26T07:50:40.767Z</time></trkpt><trkpt lat="45.59987" lon="10.8190917"><ele>268.8</ele><time>2026-04-26T07:50:41.766Z</time></trkpt><trkpt lat="45.5999633" lon="10.81909"><ele>269.0</ele><time>2026-04-26T07:50:42.766Z</time></trkpt><trkpt lat="45.600075" lon="10.8190717"><ele>269.0</ele><time>2026-04-26T07:50:43.767Z</time></trkpt><trkpt lat="45.6001917" lon="10.81904"><ele>269.0</ele><time>2026-04-26T07:50:44.767Z</time></trkpt><trkpt lat="45.60031" lon="10.8190017"><ele>269.0</ele><time>2026-04-26T07:50:45.766Z</time></trkpt><trkpt lat="45.6004117" lon="10.8189683"><ele>269.0</ele><time>2026-04-26T07:50:46.766Z</time></trkpt><trkpt lat="45.6005167" lon="10.818935"><ele>268.8</ele><time>2026-04-26T07:50:47.766Z</time></trkpt><trkpt lat="45.60062" lon="10.8189033"><ele>268.59999999999997</ele><time>2026-04-26T07:50:48.767Z</time></trkpt><trkpt lat="45.60071" lon="10.8188733"><ele>268.4</ele><time>2026-04-26T07:50:49.767Z</time></trkpt><trkpt lat="45.6007967" lon="10.818835"><ele>268.2</ele><time>2026-04-26T07:50:50.766Z</time></trkpt><trkpt lat="45.6008817" lon="10.8187883"><ele>268.0</ele><time>2026-04-26T07:50:51.766Z</time></trkpt><trkpt lat="45.6009733" lon="10.8187283"><ele>268.0</ele><time>2026-04-26T07:50:52.766Z</time></trkpt><trkpt lat="45.6010517" lon="10.8186533"><ele>268.0</ele><time>2026-04-26T07:50:53.766Z</time></trkpt><trkpt lat="45.601135" lon="10.8185533"><ele>268.0</ele><time>2026-04-26T07:50:54.766Z</time></trkpt><trkpt lat="45.6012233" lon="10.8184517"><ele>268.0</ele><time>2026-04-26T07:50:55.766Z</time></trkpt><trkpt lat="45.6013083" lon="10.8183567"><ele>268.0</ele><time>2026-04-26T07:50:56.766Z</time></trkpt><trkpt lat="45.60139" lon="10.81827"><ele>267.75</ele><time>2026-04-26T07:50:57.766Z</time></trkpt><trkpt lat="45.60148" lon="10.81818"><ele>267.5</ele><time>2026-04-26T07:50:58.766Z</time></trkpt><trkpt lat="45.601575" lon="10.818085"><ele>267.25</ele><time>2026-04-26T07:50:59.766Z</time></trkpt><trkpt lat="45.6016783" lon="10.81798"><ele>267.0</ele><time>2026-04-26T07:51:00.767Z</time></trkpt><trkpt lat="45.6017717" lon="10.8178717"><ele>267.0</ele><time>2026-04-26T07:51:01.766Z</time></trkpt><trkpt lat="45.6018567" lon="10.8177583"><ele>267.0</ele><time>2026-04-26T07:51:02.766Z</time></trkpt><trkpt lat="45.601935" lon="10.8176383"><ele>267.0</ele><time>2026-04-26T07:51:03.766Z</time></trkpt><trkpt lat="45.602005" lon="10.8175167"><ele>267.0</ele><time>2026-04-26T07:51:04.766Z</time></trkpt><trkpt lat="45.6020733" lon="10.8173833"><ele>267.0</ele><time>2026-04-26T07:51:05.766Z</time></trkpt><trkpt lat="45.6021333" lon="10.8172567"><ele>267.0</ele><time>2026-04-26T07:51:06.766Z</time></trkpt><trkpt lat="45.602185" lon="10.817145"><ele>267.0</ele><time>2026-04-26T07:51:07.766Z</time></trkpt><trkpt lat="45.6022233" lon="10.8170467"><ele>267.0</ele><time>2026-04-26T07:51:08.767Z</time></trkpt><trkpt lat="45.6022583" lon="10.81694"><ele>267.0</ele><time>2026-04-26T07:51:09.767Z</time></trkpt><trkpt lat="45.6022683" lon="10.8168267"><ele>267.0</ele><time>2026-04-26T07:51:10.767Z</time></trkpt><trkpt lat="45.6022683" lon="10.8167033"><ele>267.3333333333333</ele><time>2026-04-26T07:51:11.767Z</time></trkpt><trkpt lat="45.6022467" lon="10.816585"><ele>267.6666666666667</ele><time>2026-04-26T07:51:12.766Z</time></trkpt><trkpt lat="45.6022217" lon="10.8164867"><ele>268.0</ele><time>2026-04-26T07:51:13.767Z</time></trkpt><trkpt lat="45.6022" lon="10.8163933"><ele>268.33333333333337</ele><time>2026-04-26T07:51:14.766Z</time></trkpt><trkpt lat="45.6022333" lon="10.8162233"><ele>268.6666666666667</ele><time>2026-04-26T07:51:16.767Z</time></trkpt><trkpt lat="45.6022667" lon="10.8161333"><ele>269.0</ele><time>2026-04-26T07:51:17.766Z</time></trkpt><trkpt lat="45.6023083" lon="10.81604"><ele>268.83333333333337</ele><time>2026-04-26T07:51:18.766Z</time></trkpt><trkpt lat="45.602355" lon="10.8159783"><ele>268.6666666666667</ele><time>2026-04-26T07:51:19.767Z</time></trkpt><trkpt lat="45.6024067" lon="10.8159233"><ele>268.5</ele><time>2026-04-26T07:51:20.767Z</time></trkpt><trkpt lat="45.60248" lon="10.8158833"><ele>268.3333333333333</ele><time>2026-04-26T07:51:21.766Z</time></trkpt><trkpt lat="45.6025717" lon="10.8158517"><ele>268.16666666666663</ele><time>2026-04-26T07:51:22.766Z</time></trkpt><trkpt lat="45.6026683" lon="10.8158267"><ele>268.0</ele><time>2026-04-26T07:51:23.766Z</time></trkpt><trkpt lat="45.6027533" lon="10.8157783"><ele>268.0</ele><time>2026-04-26T07:51:24.766Z</time></trkpt><trkpt lat="45.6028283" lon="10.81572"><ele>268.0</ele><time>2026-04-26T07:51:25.767Z</time></trkpt><trkpt lat="45.6028883" lon="10.8156533"><ele>268.0</ele><time>2026-04-26T07:51:26.766Z</time></trkpt><trkpt lat="45.602945" lon="10.8155883"><ele>268.0</ele><time>2026-04-26T07:51:27.766Z</time></trkpt><trkpt lat="45.6030267" lon="10.8154717"><ele>268.0</ele><time>2026-04-26T07:51:29.766Z</time></trkpt><trkpt lat="45.6030433" lon="10.8153833"><ele>268.0</ele><time>2026-04-26T07:51:32.766Z</time></trkpt><trkpt lat="45.603015" lon="10.8153"><ele>268.0</ele><time>2026-04-26T07:51:43.767Z</time></trkpt><trkpt lat="45.6029083" lon="10.81523"><ele>268.0</ele><time>2026-04-26T07:51:45.767Z</time></trkpt><trkpt lat="45.6028167" lon="10.8151883"><ele>268.0</ele><time>2026-04-26T07:51:46.766Z</time></trkpt><trkpt lat="45.6027017" lon="10.8151417"><ele>268.0</ele><time>2026-04-26T07:51:47.767Z</time></trkpt><trkpt lat="45.602565" lon="10.8150933"><ele>267.3333333333333</ele><time>2026-04-26T07:51:48.766Z</time></trkpt><trkpt lat="45.602405" lon="10.8150283"><ele>266.6666666666667</ele><time>2026-04-26T07:51:49.766Z</time></trkpt><trkpt lat="45.602245" lon="10.8149667"><ele>266.0</ele><time>2026-04-26T07:51:50.766Z</time></trkpt><trkpt lat="45.6020817" lon="10.8149067"><ele>266.33333333333337</ele><time>2026-04-26T07:51:51.766Z</time></trkpt><trkpt lat="45.6019167" lon="10.8148417"><ele>266.6666666666667</ele><time>2026-04-26T07:51:52.766Z</time></trkpt><trkpt lat="45.6017483" lon="10.8147717"><ele>267.0</ele><time>2026-04-26T07:51:53.766Z</time></trkpt><trkpt lat="45.6015767" lon="10.81471"><ele>267.0</ele><time>2026-04-26T07:51:54.766Z</time></trkpt><trkpt lat="45.6014133" lon="10.8146383"><ele>267.0</ele><time>2026-04-26T07:51:55.766Z</time></trkpt><trkpt lat="45.6012567" lon="10.8145617"><ele>267.0</ele><time>2026-04-26T07:51:56.767Z</time></trkpt><trkpt lat="45.6010917" lon="10.8145"><ele>267.3333333333333</ele><time>2026-04-26T07:51:57.766Z</time></trkpt><trkpt lat="45.60093" lon="10.81443"><ele>267.66666666666663</ele><time>2026-04-26T07:51:58.766Z</time></trkpt><trkpt lat="45.60075" lon="10.814355"><ele>268.0</ele><time>2026-04-26T07:51:59.767Z</time></trkpt><trkpt lat="45.6005867" lon="10.81429"><ele>267.66666666666663</ele><time>2026-04-26T07:52:00.766Z</time></trkpt><trkpt lat="45.6004133" lon="10.814215"><ele>267.3333333333333</ele><time>2026-04-26T07:52:01.766Z</time></trkpt><trkpt lat="45.6002583" lon="10.8141467"><ele>267.0</ele><time>2026-04-26T07:52:02.766Z</time></trkpt><trkpt lat="45.600105" lon="10.81408"><ele>267.0</ele><time>2026-04-26T07:52:03.767Z</time></trkpt><trkpt lat="45.5999483" lon="10.8140167"><ele>267.0</ele><time>2026-04-26T07:52:04.766Z</time></trkpt><trkpt lat="45.59981" lon="10.813965"><ele>267.0</ele><time>2026-04-26T07:52:05.766Z</time></trkpt><trkpt lat="45.599655" lon="10.8139133"><ele>267.0</ele><time>2026-04-26T07:52:06.767Z</time></trkpt><trkpt lat="45.5995067" lon="10.8138533"><ele>267.0</ele><time>2026-04-26T07:52:07.766Z</time></trkpt><trkpt lat="45.5993583" lon="10.81379"><ele>267.0</ele><time>2026-04-26T07:52:08.767Z</time></trkpt><trkpt lat="45.59922" lon="10.8137167"><ele>267.0</ele><time>2026-04-26T07:52:09.766Z</time></trkpt><trkpt lat="45.5990883" lon="10.8136733"><ele>267.0</ele><time>2026-04-26T07:52:10.767Z</time></trkpt><trkpt lat="45.5989483" lon="10.8136733"><ele>267.0</ele><time>2026-04-26T07:52:11.766Z</time></trkpt><trkpt lat="45.5988217" lon="10.813725"><ele>267.0</ele><time>2026-04-26T07:52:12.767Z</time></trkpt><trkpt lat="45.5986767" lon="10.8138183"><ele>266.3333333333333</ele><time>2026-04-26T07:52:13.767Z</time></trkpt><trkpt lat="45.5985417" lon="10.8139517"><ele>265.66666666666663</ele><time>2026-04-26T07:52:14.766Z</time></trkpt><trkpt lat="45.598415" lon="10.8140917"><ele>265.0</ele><time>2026-04-26T07:52:15.767Z</time></trkpt><trkpt lat="45.5982917" lon="10.8142233"><ele>266.0</ele><time>2026-04-26T07:52:16.766Z</time></trkpt><trkpt lat="45.5981717" lon="10.8143367"><ele>267.0</ele><time>2026-04-26T07:52:17.766Z</time></trkpt><trkpt lat="45.5980533" lon="10.814465"><ele>268.0</ele><time>2026-04-26T07:52:18.767Z</time></trkpt><trkpt lat="45.5979333" lon="10.814595"><ele>269.0</ele><time>2026-04-26T07:52:19.767Z</time></trkpt><trkpt lat="45.5978117" lon="10.8147217"><ele>270.0</ele><time>2026-04-26T07:52:20.766Z</time></trkpt><trkpt lat="45.5976983" lon="10.8148033"><ele>271.0</ele><time>2026-04-26T07:52:21.766Z</time></trkpt><trkpt lat="45.597555" lon="10.8148433"><ele>272.0</ele><time>2026-04-26T07:52:22.766Z</time></trkpt><trkpt lat="45.5973883" lon="10.8148833"><ele>273.0</ele><time>2026-04-26T07:52:23.767Z</time></trkpt><trkpt lat="45.5972317" lon="10.81491"><ele>273.0</ele><time>2026-04-26T07:52:24.767Z</time></trkpt><trkpt lat="45.5970733" lon="10.8149383"><ele>273.0</ele><time>2026-04-26T07:52:25.767Z</time></trkpt><trkpt lat="45.5969083" lon="10.814985"><ele>273.0</ele><time>2026-04-26T07:52:26.766Z</time></trkpt><trkpt lat="45.596745" lon="10.8150133"><ele>273.3333333333333</ele><time>2026-04-26T07:52:27.766Z</time></trkpt><trkpt lat="45.5965833" lon="10.8150433"><ele>273.66666666666663</ele><time>2026-04-26T07:52:28.766Z</time></trkpt><trkpt lat="45.59641" lon="10.8150817"><ele>274.0</ele><time>2026-04-26T07:52:29.766Z</time></trkpt><trkpt lat="45.5962583" lon="10.8151233"><ele>272.0</ele><time>2026-04-26T07:52:30.765Z</time></trkpt><trkpt lat="45.596095" lon="10.8151417"><ele>270.0</ele><time>2026-04-26T07:52:31.766Z</time></trkpt><trkpt lat="45.5959517" lon="10.8150933"><ele>268.0</ele><time>2026-04-26T07:52:32.766Z</time></trkpt><trkpt lat="45.595825" lon="10.81495"><ele>268.0</ele><time>2026-04-26T07:52:33.765Z</time></trkpt><trkpt lat="45.595715" lon="10.814795"><ele>268.0</ele><time>2026-04-26T07:52:34.765Z</time></trkpt><trkpt lat="45.595605" lon="10.8146267"><ele>268.0</ele><time>2026-04-26T07:52:35.766Z</time></trkpt><trkpt lat="45.5954983" lon="10.8144583"><ele>270.66666666666663</ele><time>2026-04-26T07:52:36.765Z</time></trkpt><trkpt lat="45.5953833" lon="10.8142733"><ele>273.3333333333333</ele><time>2026-04-26T07:52:37.766Z</time></trkpt><trkpt lat="45.5952667" lon="10.8141083"><ele>276.0</ele><time>2026-04-26T07:52:38.766Z</time></trkpt><trkpt lat="45.595165" lon="10.8139517"><ele>268.6666666666667</ele><time>2026-04-26T07:52:39.765Z</time></trkpt><trkpt lat="45.59506" lon="10.813795"><ele>261.33333333333337</ele><time>2026-04-26T07:52:40.765Z</time></trkpt><trkpt lat="45.594935" lon="10.8136517"><ele>254.0</ele><time>2026-04-26T07:52:41.765Z</time></trkpt><trkpt lat="45.5948167" lon="10.81352"><ele>254.33333333333334</ele><time>2026-04-26T07:52:42.765Z</time></trkpt><trkpt lat="45.5946717" lon="10.8134283"><ele>254.66666666666669</ele><time>2026-04-26T07:52:43.765Z</time></trkpt><trkpt lat="45.5945067" lon="10.8133667"><ele>255.0</ele><time>2026-04-26T07:52:44.766Z</time></trkpt><trkpt lat="45.5943317" lon="10.8133133"><ele>251.0</ele><time>2026-04-26T07:52:45.765Z</time></trkpt><trkpt lat="45.59415" lon="10.8132767"><ele>247.0</ele><time>2026-04-26T07:52:46.765Z</time></trkpt><trkpt lat="45.5939567" lon="10.813235"><ele>243.0</ele><time>2026-04-26T07:52:47.765Z</time></trkpt><trkpt lat="45.59378" lon="10.8131967"><ele>240.66666666666669</ele><time>2026-04-26T07:52:48.765Z</time></trkpt><trkpt lat="45.593615" lon="10.8131567"><ele>238.33333333333334</ele><time>2026-04-26T07:52:49.765Z</time></trkpt><trkpt lat="45.5934433" lon="10.8131283"><ele>236.0</ele><time>2026-04-26T07:52:50.765Z</time></trkpt><trkpt lat="45.593285" lon="10.8130933"><ele>236.0</ele><time>2026-04-26T07:52:51.765Z</time></trkpt><trkpt lat="45.59312" lon="10.813055"><ele>236.0</ele><time>2026-04-26T07:52:52.766Z</time></trkpt><trkpt lat="45.5929567" lon="10.813045"><ele>236.0</ele><time>2026-04-26T07:52:53.765Z</time></trkpt><trkpt lat="45.592795" lon="10.8130783"><ele>232.66666666666669</ele><time>2026-04-26T07:52:54.766Z</time></trkpt><trkpt lat="45.5926317" lon="10.81314"><ele>229.33333333333331</ele><time>2026-04-26T07:52:55.765Z</time></trkpt><trkpt lat="45.5924583" lon="10.813265"><ele>226.0</ele><time>2026-04-26T07:52:56.765Z</time></trkpt><trkpt lat="45.5923133" lon="10.8133917"><ele>224.33333333333331</ele><time>2026-04-26T07:52:57.765Z</time></trkpt><trkpt lat="45.59216" lon="10.8135133"><ele>222.66666666666669</ele><time>2026-04-26T07:52:58.766Z</time></trkpt><trkpt lat="45.5920083" lon="10.81364"><ele>221.0</ele><time>2026-04-26T07:52:59.765Z</time></trkpt><trkpt lat="45.5918517" lon="10.8137267"><ele>221.0</ele><time>2026-04-26T07:53:00.765Z</time></trkpt><trkpt lat="45.5916967" lon="10.8138583"><ele>221.0</ele><time>2026-04-26T07:53:01.765Z</time></trkpt><trkpt lat="45.5915417" lon="10.8139533"><ele>221.0</ele><time>2026-04-26T07:53:02.766Z</time></trkpt><trkpt lat="45.59138" lon="10.81402"><ele>221.0</ele><time>2026-04-26T07:53:03.765Z</time></trkpt><trkpt lat="45.59121" lon="10.8140383"><ele>221.0</ele><time>2026-04-26T07:53:04.766Z</time></trkpt><trkpt lat="45.591035" lon="10.814015"><ele>221.0</ele><time>2026-04-26T07:53:05.765Z</time></trkpt><trkpt lat="45.59086" lon="10.8139817"><ele>219.66666666666669</ele><time>2026-04-26T07:53:06.765Z</time></trkpt><trkpt lat="45.5906917" lon="10.8139483"><ele>218.33333333333331</ele><time>2026-04-26T07:53:07.765Z</time></trkpt><trkpt lat="45.5905283" lon="10.8139083"><ele>217.0</ele><time>2026-04-26T07:53:08.765Z</time></trkpt><trkpt lat="45.5903567" lon="10.81388"><ele>215.0</ele><time>2026-04-26T07:53:09.765Z</time></trkpt><trkpt lat="45.5901883" lon="10.8138467"><ele>213.0</ele><time>2026-04-26T07:53:10.765Z</time></trkpt><trkpt lat="45.590025" lon="10.8138067"><ele>211.0</ele><time>2026-04-26T07:53:11.765Z</time></trkpt><trkpt lat="45.5898683" lon="10.8137217"><ele>211.0</ele><time>2026-04-26T07:53:12.765Z</time></trkpt><trkpt lat="45.5897183" lon="10.8136333"><ele>211.0</ele><time>2026-04-26T07:53:13.765Z</time></trkpt><trkpt lat="45.5895583" lon="10.81355"><ele>211.0</ele><time>2026-04-26T07:53:14.765Z</time></trkpt><trkpt lat="45.5893867" lon="10.8134617"><ele>211.0</ele><time>2026-04-26T07:53:15.765Z</time></trkpt><trkpt lat="45.589235" lon="10.8133717"><ele>211.0</ele><time>2026-04-26T07:53:16.765Z</time></trkpt><trkpt lat="45.5890867" lon="10.8132883"><ele>211.0</ele><time>2026-04-26T07:53:17.765Z</time></trkpt><trkpt lat="45.5889317" lon="10.8132033"><ele>211.0</ele><time>2026-04-26T07:53:18.766Z</time></trkpt><trkpt lat="45.5887883" lon="10.8131267"><ele>211.0</ele><time>2026-04-26T07:53:19.765Z</time></trkpt><trkpt lat="45.5886617" lon="10.8130667"><ele>211.0</ele><time>2026-04-26T07:53:20.766Z</time></trkpt><trkpt lat="45.5885417" lon="10.8130067"><ele>211.0</ele><time>2026-04-26T07:53:21.765Z</time></trkpt><trkpt lat="45.58844" lon="10.812955"><ele>210.66666666666666</ele><time>2026-04-26T07:53:22.765Z</time></trkpt><trkpt lat="45.5883667" lon="10.8129033"><ele>210.33333333333331</ele><time>2026-04-26T07:53:23.765Z</time></trkpt><trkpt lat="45.5883067" lon="10.8128667"><ele>210.0</ele><time>2026-04-26T07:53:24.765Z</time></trkpt><trkpt lat="45.588245" lon="10.8129517"><ele>209.66666666666669</ele><time>2026-04-26T07:53:27.765Z</time></trkpt><trkpt lat="45.5882683" lon="10.8131167"><ele>209.33333333333334</ele><time>2026-04-26T07:53:29.765Z</time></trkpt><trkpt lat="45.5882817" lon="10.813215"><ele>209.0</ele><time>2026-04-26T07:53:30.766Z</time></trkpt><trkpt lat="45.5883033" lon="10.8133383"><ele>209.0</ele><time>2026-04-26T07:53:31.765Z</time></trkpt><trkpt lat="45.5883417" lon="10.8134367"><ele>209.0</ele><time>2026-04-26T07:53:32.765Z</time></trkpt><trkpt lat="45.5883833" lon="10.8135167"><ele>209.0</ele><time>2026-04-26T07:53:33.766Z</time></trkpt><trkpt lat="45.58843" lon="10.81359"><ele>209.0</ele><time>2026-04-26T07:53:34.765Z</time></trkpt><trkpt lat="45.58848" lon="10.8136567"><ele>209.0</ele><time>2026-04-26T07:53:35.765Z</time></trkpt><trkpt lat="45.5885267" lon="10.8137217"><ele>209.0</ele><time>2026-04-26T07:53:36.765Z</time></trkpt><trkpt lat="45.5885767" lon="10.8137883"><ele>209.0</ele><time>2026-04-26T07:53:37.766Z</time></trkpt><trkpt lat="45.58864" lon="10.81386"><ele>209.2</ele><time>2026-04-26T07:53:38.765Z</time></trkpt><trkpt lat="45.5887167" lon="10.813935"><ele>209.39999999999998</ele><time>2026-04-26T07:53:39.765Z</time></trkpt><trkpt lat="45.5888" lon="10.81402"><ele>209.6</ele><time>2026-04-26T07:53:40.765Z</time></trkpt><trkpt lat="45.5888883" lon="10.8141267"><ele>209.8</ele><time>2026-04-26T07:53:41.765Z</time></trkpt><trkpt lat="45.5889733" lon="10.81425"><ele>210.0</ele><time>2026-04-26T07:53:42.765Z</time></trkpt><trkpt lat="45.58907" lon="10.814365"><ele>208.0</ele><time>2026-04-26T07:53:43.766Z</time></trkpt><trkpt lat="45.589155" lon="10.8144933"><ele>206.0</ele><time>2026-04-26T07:53:44.766Z</time></trkpt><trkpt lat="45.589245" lon="10.8146217"><ele>204.0</ele><time>2026-04-26T07:53:45.766Z</time></trkpt><trkpt lat="45.589325" lon="10.8147467"><ele>202.0</ele><time>2026-04-26T07:53:46.765Z</time></trkpt><trkpt lat="45.5894133" lon="10.8148833"><ele>204.0</ele><time>2026-04-26T07:53:47.765Z</time></trkpt><trkpt lat="45.5895117" lon="10.815025"><ele>206.0</ele><time>2026-04-26T07:53:48.765Z</time></trkpt><trkpt lat="45.5895983" lon="10.815165"><ele>208.0</ele><time>2026-04-26T07:53:49.765Z</time></trkpt><trkpt lat="45.58969" lon="10.8152983"><ele>210.0</ele><time>2026-04-26T07:53:50.765Z</time></trkpt><trkpt lat="45.5897733" lon="10.815445"><ele>210.0</ele><time>2026-04-26T07:53:51.765Z</time></trkpt><trkpt lat="45.5898733" lon="10.815585"><ele>210.0</ele><time>2026-04-26T07:53:52.765Z</time></trkpt><trkpt lat="45.5899767" lon="10.81572"><ele>210.0</ele><time>2026-04-26T07:53:53.765Z</time></trkpt><trkpt lat="45.5900783" lon="10.815865"><ele>210.0</ele><time>2026-04-26T07:53:54.765Z</time></trkpt><trkpt lat="45.5901817" lon="10.8160117"><ele>209.75</ele><time>2026-04-26T07:53:55.765Z</time></trkpt><trkpt lat="45.5902817" lon="10.8161533"><ele>209.5</ele><time>2026-04-26T07:53:56.765Z</time></trkpt><trkpt lat="45.59036" lon="10.8162983"><ele>209.25</ele><time>2026-04-26T07:53:57.766Z</time></trkpt><trkpt lat="45.5904317" lon="10.8164217"><ele>209.0</ele><time>2026-04-26T07:53:58.765Z</time></trkpt><trkpt lat="45.5905117" lon="10.8165683"><ele>211.0</ele><time>2026-04-26T07:53:59.765Z</time></trkpt><trkpt lat="45.5905817" lon="10.8167167"><ele>213.0</ele><time>2026-04-26T07:54:00.765Z</time></trkpt><trkpt lat="45.59066" lon="10.8168667"><ele>215.0</ele><time>2026-04-26T07:54:01.766Z</time></trkpt><trkpt lat="45.5907367" lon="10.8170233"><ele>217.0</ele><time>2026-04-26T07:54:02.765Z</time></trkpt><trkpt lat="45.5908133" lon="10.817175"><ele>217.0</ele><time>2026-04-26T07:54:03.766Z</time></trkpt><trkpt lat="45.590885" lon="10.81733"><ele>217.0</ele><time>2026-04-26T07:54:04.765Z</time></trkpt><trkpt lat="45.59095" lon="10.8174783"><ele>217.0</ele><time>2026-04-26T07:54:05.765Z</time></trkpt><trkpt lat="45.5909867" lon="10.81763"><ele>217.0</ele><time>2026-04-26T07:54:06.765Z</time></trkpt><trkpt lat="45.591005" lon="10.8177583"><ele>217.0</ele><time>2026-04-26T07:54:07.765Z</time></trkpt><trkpt lat="45.5910017" lon="10.817885"><ele>217.0</ele><time>2026-04-26T07:54:08.765Z</time></trkpt><trkpt lat="45.5909883" lon="10.8180133"><ele>217.0</ele><time>2026-04-26T07:54:09.765Z</time></trkpt><trkpt lat="45.5909417" lon="10.8181567"><ele>217.0</ele><time>2026-04-26T07:54:10.765Z</time></trkpt><trkpt lat="45.5908867" lon="10.81832"><ele>217.0</ele><time>2026-04-26T07:54:11.765Z</time></trkpt><trkpt lat="45.59084" lon="10.8184867"><ele>217.0</ele><time>2026-04-26T07:54:12.766Z</time></trkpt><trkpt lat="45.590785" lon="10.81866"><ele>217.0</ele><time>2026-04-26T07:54:13.765Z</time></trkpt><trkpt lat="45.5907433" lon="10.818825"><ele>217.0</ele><time>2026-04-26T07:54:14.765Z</time></trkpt><trkpt lat="45.590695" lon="10.8189917"><ele>217.0</ele><time>2026-04-26T07:54:15.766Z</time></trkpt><trkpt lat="45.59066" lon="10.819155"><ele>217.0</ele><time>2026-04-26T07:54:16.765Z</time></trkpt><trkpt lat="45.5906267" lon="10.8193117"><ele>217.0</ele><time>2026-04-26T07:54:17.766Z</time></trkpt><trkpt lat="45.5905967" lon="10.8194583"><ele>217.0</ele><time>2026-04-26T07:54:18.765Z</time></trkpt><trkpt lat="45.5905617" lon="10.8196167"><ele>217.0</ele><time>2026-04-26T07:54:19.765Z</time></trkpt><trkpt lat="45.5905533" lon="10.8197683"><ele>217.0</ele><time>2026-04-26T07:54:20.765Z</time></trkpt><trkpt lat="45.5905433" lon="10.8199283"><ele>217.25</ele><time>2026-04-26T07:54:21.765Z</time></trkpt><trkpt lat="45.590545" lon="10.820085"><ele>217.5</ele><time>2026-04-26T07:54:22.765Z</time></trkpt><trkpt lat="45.590515" lon="10.8202517"><ele>217.75</ele><time>2026-04-26T07:54:23.765Z</time></trkpt><trkpt lat="45.5904667" lon="10.82041"><ele>218.0</ele><time>2026-04-26T07:54:24.765Z</time></trkpt><trkpt lat="45.5903983" lon="10.820565"><ele>217.75</ele><time>2026-04-26T07:54:25.765Z</time></trkpt><trkpt lat="45.5903233" lon="10.8207167"><ele>217.5</ele><time>2026-04-26T07:54:26.766Z</time></trkpt><trkpt lat="45.5902367" lon="10.8208817"><ele>217.25</ele><time>2026-04-26T07:54:27.766Z</time></trkpt><trkpt lat="45.5901567" lon="10.8210067"><ele>217.0</ele><time>2026-04-26T07:54:28.765Z</time></trkpt><trkpt lat="45.590085" lon="10.8211183"><ele>218.16666666666666</ele><time>2026-04-26T07:54:29.766Z</time></trkpt><trkpt lat="45.590025" lon="10.821225"><ele>219.33333333333331</ele><time>2026-04-26T07:54:30.766Z</time></trkpt><trkpt lat="45.5899733" lon="10.82132"><ele>220.5</ele><time>2026-04-26T07:54:31.765Z</time></trkpt><trkpt lat="45.58993" lon="10.8214033"><ele>221.66666666666669</ele><time>2026-04-26T07:54:32.765Z</time></trkpt><trkpt lat="45.58986" lon="10.8215017"><ele>222.83333333333334</ele><time>2026-04-26T07:54:34.766Z</time></trkpt><trkpt lat="45.5898083" lon="10.82156"><ele>224.0</ele><time>2026-04-26T07:54:36.766Z</time></trkpt><trkpt lat="45.589685" lon="10.821575"><ele>224.00000000000003</ele><time>2026-04-26T07:54:38.766Z</time></trkpt><trkpt lat="45.5896033" lon="10.8215983"><ele>224.0</ele><time>2026-04-26T07:54:39.765Z</time></trkpt><trkpt lat="45.5895083" lon="10.8216133"><ele>224.0</ele><time>2026-04-26T07:54:40.765Z</time></trkpt><trkpt lat="45.5894167" lon="10.8216217"><ele>224.0</ele><time>2026-04-26T07:54:41.765Z</time></trkpt><trkpt lat="45.58934" lon="10.8216283"><ele>224.00000000000003</ele><time>2026-04-26T07:54:42.765Z</time></trkpt><trkpt lat="45.5892567" lon="10.8216333"><ele>224.0</ele><time>2026-04-26T07:54:43.765Z</time></trkpt><trkpt lat="45.5891767" lon="10.8216333"><ele>223.66666666666669</ele><time>2026-04-26T07:54:44.766Z</time></trkpt><trkpt lat="45.5891083" lon="10.8216433"><ele>223.33333333333334</ele><time>2026-04-26T07:54:45.765Z</time></trkpt><trkpt lat="45.589035" lon="10.821655"><ele>223.0</ele><time>2026-04-26T07:54:46.766Z</time></trkpt><trkpt lat="45.5889383" lon="10.82168"><ele>222.66666666666669</ele><time>2026-04-26T07:54:47.765Z</time></trkpt><trkpt lat="45.5888467" lon="10.821705"><ele>222.33333333333334</ele><time>2026-04-26T07:54:48.765Z</time></trkpt><trkpt lat="45.5887483" lon="10.8217117"><ele>222.0</ele><time>2026-04-26T07:54:49.765Z</time></trkpt><trkpt lat="45.5886567" lon="10.82173"><ele>221.33333333333334</ele><time>2026-04-26T07:54:50.766Z</time></trkpt><trkpt lat="45.58858" lon="10.8217333"><ele>220.66666666666669</ele><time>2026-04-26T07:54:51.765Z</time></trkpt><trkpt lat="45.5885117" lon="10.8217367"><ele>220.0</ele><time>2026-04-26T07:54:52.765Z</time></trkpt><trkpt lat="45.5884417" lon="10.821725"><ele>219.33333333333334</ele><time>2026-04-26T07:54:53.765Z</time></trkpt><trkpt lat="45.5883583" lon="10.82171"><ele>218.66666666666669</ele><time>2026-04-26T07:54:54.765Z</time></trkpt><trkpt lat="45.5882933" lon="10.821695"><ele>218.0</ele><time>2026-04-26T07:54:55.765Z</time></trkpt><trkpt lat="45.5882083" lon="10.8216767"><ele>218.00000000000003</ele><time>2026-04-26T07:54:56.766Z</time></trkpt><trkpt lat="45.588125" lon="10.8216583"><ele>218.0</ele><time>2026-04-26T07:54:57.765Z</time></trkpt><trkpt lat="45.5880467" lon="10.8216467"><ele>218.0</ele><time>2026-04-26T07:54:58.766Z</time></trkpt><trkpt lat="45.5879533" lon="10.8216217"><ele>218.0</ele><time>2026-04-26T07:54:59.766Z</time></trkpt><trkpt lat="45.58786" lon="10.8216017"><ele>218.00000000000003</ele><time>2026-04-26T07:55:00.766Z</time></trkpt><trkpt lat="45.5877733" lon="10.8215817"><ele>218.0</ele><time>2026-04-26T07:55:01.765Z</time></trkpt><trkpt lat="45.5876917" lon="10.821555"><ele>217.50000000000003</ele><time>2026-04-26T07:55:02.765Z</time></trkpt><trkpt lat="45.58761" lon="10.8215333"><ele>217.0</ele><time>2026-04-26T07:55:03.765Z</time></trkpt><trkpt lat="45.5875283" lon="10.82152"><ele>216.5</ele><time>2026-04-26T07:55:04.765Z</time></trkpt><trkpt lat="45.58744" lon="10.8214917"><ele>216.0</ele><time>2026-04-26T07:55:05.765Z</time></trkpt><trkpt lat="45.587375" lon="10.8214817"><ele>215.50000000000003</ele><time>2026-04-26T07:55:06.765Z</time></trkpt><trkpt lat="45.587305" lon="10.8214967"><ele>215.0</ele><time>2026-04-26T07:55:08.766Z</time></trkpt><trkpt lat="45.58727" lon="10.8213683"><ele>215.0</ele><time>2026-04-26T07:55:13.765Z</time></trkpt><trkpt lat="45.58724" lon="10.8212867"><ele>215.0</ele><time>2026-04-26T07:55:15.765Z</time></trkpt><trkpt lat="45.5871767" lon="10.8212367"><ele>215.0</ele><time>2026-04-26T07:55:18.765Z</time></trkpt><trkpt lat="45.5871183" lon="10.821185"><ele>215.0</ele><time>2026-04-26T07:55:19.765Z</time></trkpt><trkpt lat="45.58706" lon="10.821135"><ele>215.0</ele><time>2026-04-26T07:55:20.766Z</time></trkpt><trkpt lat="45.5870017" lon="10.82109"><ele>215.0</ele><time>2026-04-26T07:55:21.765Z</time></trkpt><trkpt lat="45.5869367" lon="10.821035"><ele>215.0</ele><time>2026-04-26T07:55:23.765Z</time></trkpt><trkpt lat="45.5868767" lon="10.8209667"><ele>214.0</ele><time>2026-04-26T07:55:25.765Z</time></trkpt><trkpt lat="45.58684" lon="10.820885"><ele>213.0</ele><time>2026-04-26T07:55:28.765Z</time></trkpt><trkpt lat="45.5867967" lon="10.8208017"><ele>212.0</ele><time>2026-04-26T07:55:30.765Z</time></trkpt><trkpt lat="45.586845" lon="10.8207"><ele>211.0</ele><time>2026-04-26T07:55:33.766Z</time></trkpt><trkpt lat="45.5869167" lon="10.820685"><ele>210.0</ele><time>2026-04-26T07:55:35.766Z</time></trkpt><trkpt lat="45.5869867" lon="10.8206583"><ele>209.0</ele><time>2026-04-26T07:55:37.766Z</time></trkpt><trkpt lat="45.5870417" lon="10.82061"><ele>208.0</ele><time>2026-04-26T07:55:39.765Z</time></trkpt><trkpt lat="45.5870383" lon="10.8205133"><ele>206.4</ele><time>2026-04-26T07:55:41.766Z</time></trkpt><trkpt lat="45.5869917" lon="10.8204133"><ele>204.8</ele><time>2026-04-26T07:55:43.765Z</time></trkpt><trkpt lat="45.5869017" lon="10.8203583"><ele>203.2</ele><time>2026-04-26T07:55:45.765Z</time></trkpt><trkpt lat="45.586825" lon="10.8202583"><ele>201.6</ele><time>2026-04-26T07:55:47.765Z</time></trkpt><trkpt lat="45.5867733" lon="10.8201133"><ele>200.0</ele><time>2026-04-26T07:55:49.765Z</time></trkpt><trkpt lat="45.58676" lon="10.8199917"><ele>199.33333333333334</ele><time>2026-04-26T07:55:50.765Z</time></trkpt><trkpt lat="45.5867583" lon="10.81988"><ele>198.66666666666669</ele><time>2026-04-26T07:55:51.766Z</time></trkpt><trkpt lat="45.5867533" lon="10.8197467"><ele>198.0</ele><time>2026-04-26T07:55:52.765Z</time></trkpt><trkpt lat="45.586765" lon="10.8196183"><ele>197.33333333333331</ele><time>2026-04-26T07:55:53.766Z</time></trkpt><trkpt lat="45.5867717" lon="10.8194883"><ele>196.66666666666666</ele><time>2026-04-26T07:55:54.765Z</time></trkpt><trkpt lat="45.586775" lon="10.8193783"><ele>196.0</ele><time>2026-04-26T07:55:55.765Z</time></trkpt><trkpt lat="45.586775" lon="10.819245"><ele>195.66666666666666</ele><time>2026-04-26T07:55:56.764Z</time></trkpt><trkpt lat="45.5867617" lon="10.8191183"><ele>195.33333333333331</ele><time>2026-04-26T07:55:57.764Z</time></trkpt><trkpt lat="45.586755" lon="10.8190017"><ele>195.0</ele><time>2026-04-26T07:55:58.764Z</time></trkpt><trkpt lat="45.586745" lon="10.8188883"><ele>194.66666666666669</ele><time>2026-04-26T07:55:59.764Z</time></trkpt><trkpt lat="45.5867433" lon="10.81879"><ele>194.33333333333334</ele><time>2026-04-26T07:56:00.764Z</time></trkpt><trkpt lat="45.5867383" lon="10.8186367"><ele>194.0</ele><time>2026-04-26T07:56:02.765Z</time></trkpt><trkpt lat="45.5867383" lon="10.8184783"><ele>194.0</ele><time>2026-04-26T07:56:04.764Z</time></trkpt><trkpt lat="45.58674" lon="10.8183833"><ele>194.0</ele><time>2026-04-26T07:56:05.764Z</time></trkpt><trkpt lat="45.5867367" lon="10.8182733"><ele>194.0</ele><time>2026-04-26T07:56:06.764Z</time></trkpt><trkpt lat="45.5867283" lon="10.81817"><ele>194.0</ele><time>2026-04-26T07:56:07.764Z</time></trkpt><trkpt lat="45.5867167" lon="10.8180617"><ele>194.0</ele><time>2026-04-26T07:56:08.764Z</time></trkpt><trkpt lat="45.5867017" lon="10.81796"><ele>194.0</ele><time>2026-04-26T07:56:09.765Z</time></trkpt><trkpt lat="45.5866917" lon="10.817865"><ele>194.0</ele><time>2026-04-26T07:56:10.765Z</time></trkpt><trkpt lat="45.5866717" lon="10.8176733"><ele>193.83333333333334</ele><time>2026-04-26T07:56:12.765Z</time></trkpt><trkpt lat="45.586655" lon="10.817535"><ele>193.66666666666669</ele><time>2026-04-26T07:56:13.764Z</time></trkpt><trkpt lat="45.58666" lon="10.817415"><ele>193.5</ele><time>2026-04-26T07:56:14.764Z</time></trkpt><trkpt lat="45.5866667" lon="10.817305"><ele>193.33333333333331</ele><time>2026-04-26T07:56:15.765Z</time></trkpt><trkpt lat="45.5866683" lon="10.8171883"><ele>193.16666666666666</ele><time>2026-04-26T07:56:16.764Z</time></trkpt><trkpt lat="45.5866683" lon="10.8170967"><ele>193.0</ele><time>2026-04-26T07:56:17.764Z</time></trkpt><trkpt lat="45.5866467" lon="10.81691"><ele>192.4</ele><time>2026-04-26T07:56:19.764Z</time></trkpt><trkpt lat="45.58658" lon="10.8167533"><ele>191.8</ele><time>2026-04-26T07:56:21.765Z</time></trkpt><trkpt lat="45.5865383" lon="10.81667"><ele>191.2</ele><time>2026-04-26T07:56:22.764Z</time></trkpt><trkpt lat="45.5864867" lon="10.816575"><ele>190.6</ele><time>2026-04-26T07:56:23.765Z</time></trkpt><trkpt lat="45.5864217" lon="10.816475"><ele>190.0</ele><time>2026-04-26T07:56:24.765Z</time></trkpt><trkpt lat="45.5863633" lon="10.816375"><ele>190.0</ele><time>2026-04-26T07:56:25.765Z</time></trkpt><trkpt lat="45.5862933" lon="10.8162733"><ele>190.0</ele><time>2026-04-26T07:56:26.765Z</time></trkpt><trkpt lat="45.5862317" lon="10.816185"><ele>190.0</ele><time>2026-04-26T07:56:27.765Z</time></trkpt><trkpt lat="45.586175" lon="10.8161"><ele>190.0</ele><time>2026-04-26T07:56:28.764Z</time></trkpt><trkpt lat="45.586125" lon="10.8160167"><ele>190.0</ele><time>2026-04-26T07:56:29.764Z</time></trkpt><trkpt lat="45.5860717" lon="10.8159267"><ele>190.0</ele><time>2026-04-26T07:56:30.764Z</time></trkpt><trkpt lat="45.5860117" lon="10.8158233"><ele>189.2</ele><time>2026-04-26T07:56:31.764Z</time></trkpt><trkpt lat="45.5859517" lon="10.8157233"><ele>188.4</ele><time>2026-04-26T07:56:32.764Z</time></trkpt><trkpt lat="45.58589" lon="10.8156167"><ele>187.60000000000002</ele><time>2026-04-26T07:56:33.764Z</time></trkpt><trkpt lat="45.5858283" lon="10.81551"><ele>186.8</ele><time>2026-04-26T07:56:34.764Z</time></trkpt><trkpt lat="45.5857567" lon="10.8154017"><ele>186.0</ele><time>2026-04-26T07:56:35.764Z</time></trkpt><trkpt lat="45.58568" lon="10.81528"><ele>186.0</ele><time>2026-04-26T07:56:36.764Z</time></trkpt><trkpt lat="45.5856183" lon="10.8151817"><ele>186.0</ele><time>2026-04-26T07:56:37.765Z</time></trkpt><trkpt lat="45.5855567" lon="10.8150767"><ele>186.0</ele><time>2026-04-26T07:56:38.764Z</time></trkpt><trkpt lat="45.58549" lon="10.8149717"><ele>186.0</ele><time>2026-04-26T07:56:39.764Z</time></trkpt><trkpt lat="45.5854117" lon="10.814845"><ele>186.0</ele><time>2026-04-26T07:56:40.764Z</time></trkpt><trkpt lat="45.5853417" lon="10.8147217"><ele>185.75</ele><time>2026-04-26T07:56:41.764Z</time></trkpt><trkpt lat="45.5852583" lon="10.8145917"><ele>185.5</ele><time>2026-04-26T07:56:42.764Z</time></trkpt><trkpt lat="45.5851783" lon="10.814455"><ele>185.25</ele><time>2026-04-26T07:56:43.764Z</time></trkpt><trkpt lat="45.5850933" lon="10.8143167"><ele>185.0</ele><time>2026-04-26T07:56:44.764Z</time></trkpt><trkpt lat="45.5850117" lon="10.814185"><ele>185.0</ele><time>2026-04-26T07:56:45.765Z</time></trkpt><trkpt lat="45.5849383" lon="10.8140917"><ele>185.0</ele><time>2026-04-26T07:56:46.765Z</time></trkpt><trkpt lat="45.58488" lon="10.8140183"><ele>185.0</ele><time>2026-04-26T07:56:47.764Z</time></trkpt><trkpt lat="45.5848233" lon="10.8139517"><ele>185.0</ele><time>2026-04-26T07:56:49.764Z</time></trkpt><trkpt lat="45.5848117" lon="10.81409"><ele>185.0</ele><time>2026-04-26T07:56:58.765Z</time></trkpt><trkpt lat="45.58483" lon="10.814235"><ele>183.66666666666666</ele><time>2026-04-26T07:56:59.764Z</time></trkpt><trkpt lat="45.5848783" lon="10.814435"><ele>182.33333333333334</ele><time>2026-04-26T07:57:00.764Z</time></trkpt><trkpt lat="45.58492" lon="10.8146667"><ele>181.0</ele><time>2026-04-26T07:57:01.764Z</time></trkpt><trkpt lat="45.5849433" lon="10.8149067"><ele>181.0</ele><time>2026-04-26T07:57:02.764Z</time></trkpt><trkpt lat="45.58493" lon="10.81514"><ele>181.0</ele><time>2026-04-26T07:57:03.764Z</time></trkpt><trkpt lat="45.5849" lon="10.815375"><ele>181.0</ele><time>2026-04-26T07:57:04.764Z</time></trkpt><trkpt lat="45.5848767" lon="10.8155933"><ele>181.0</ele><time>2026-04-26T07:57:05.764Z</time></trkpt><trkpt lat="45.5848333" lon="10.8157917"><ele>181.0</ele><time>2026-04-26T07:57:06.764Z</time></trkpt><trkpt lat="45.5847683" lon="10.81597"><ele>181.0</ele><time>2026-04-26T07:57:07.764Z</time></trkpt><trkpt lat="45.5846683" lon="10.8161583"><ele>182.66666666666669</ele><time>2026-04-26T07:57:08.764Z</time></trkpt><trkpt lat="45.584565" lon="10.816345"><ele>184.33333333333334</ele><time>2026-04-26T07:57:09.764Z</time></trkpt><trkpt lat="45.584455" lon="10.8165267"><ele>186.0</ele><time>2026-04-26T07:57:10.764Z</time></trkpt><trkpt lat="45.584345" lon="10.816705"><ele>181.66666666666666</ele><time>2026-04-26T07:57:11.765Z</time></trkpt><trkpt lat="45.5842483" lon="10.8168967"><ele>177.33333333333331</ele><time>2026-04-26T07:57:12.764Z</time></trkpt><trkpt lat="45.58415" lon="10.8170967"><ele>173.0</ele><time>2026-04-26T07:57:13.765Z</time></trkpt><trkpt lat="45.5840917" lon="10.8173117"><ele>173.0</ele><time>2026-04-26T07:57:14.764Z</time></trkpt><trkpt lat="45.5841083" lon="10.8175283"><ele>173.0</ele><time>2026-04-26T07:57:15.764Z</time></trkpt><trkpt lat="45.5841083" lon="10.817755"><ele>173.0</ele><time>2026-04-26T07:57:16.764Z</time></trkpt><trkpt lat="45.58411" lon="10.8179767"><ele>171.33333333333331</ele><time>2026-04-26T07:57:17.764Z</time></trkpt><trkpt lat="45.5841" lon="10.818195"><ele>169.66666666666666</ele><time>2026-04-26T07:57:18.764Z</time></trkpt><trkpt lat="45.5840867" lon="10.8184067"><ele>168.0</ele><time>2026-04-26T07:57:19.764Z</time></trkpt><trkpt lat="45.5840767" lon="10.81862"><ele>167.25</ele><time>2026-04-26T07:57:20.764Z</time></trkpt><trkpt lat="45.5840717" lon="10.81882"><ele>166.5</ele><time>2026-04-26T07:57:21.764Z</time></trkpt><trkpt lat="45.5840767" lon="10.8190083"><ele>165.75</ele><time>2026-04-26T07:57:22.764Z</time></trkpt><trkpt lat="45.5841083" lon="10.8192117"><ele>165.0</ele><time>2026-04-26T07:57:23.765Z</time></trkpt><trkpt lat="45.5841483" lon="10.8193917"><ele>164.0</ele><time>2026-04-26T07:57:24.764Z</time></trkpt><trkpt lat="45.5841933" lon="10.8195917"><ele>163.0</ele><time>2026-04-26T07:57:25.764Z</time></trkpt><trkpt lat="45.5842283" lon="10.8197817"><ele>162.0</ele><time>2026-04-26T07:57:26.765Z</time></trkpt><trkpt lat="45.5842733" lon="10.8199383"><ele>161.0</ele><time>2026-04-26T07:57:27.764Z</time></trkpt><trkpt lat="45.584295" lon="10.8200967"><ele>161.0</ele><time>2026-04-26T07:57:28.764Z</time></trkpt><trkpt lat="45.5842767" lon="10.8202117"><ele>161.0</ele><time>2026-04-26T07:57:29.764Z</time></trkpt><trkpt lat="45.5842383" lon="10.82029"><ele>161.0</ele><time>2026-04-26T07:57:30.764Z</time></trkpt><trkpt lat="45.58415" lon="10.8203083"><ele>161.0</ele><time>2026-04-26T07:57:31.764Z</time></trkpt><trkpt lat="45.58406" lon="10.8202817"><ele>161.0</ele><time>2026-04-26T07:57:32.765Z</time></trkpt><trkpt lat="45.5839767" lon="10.8202017"><ele>161.0</ele><time>2026-04-26T07:57:33.765Z</time></trkpt><trkpt lat="45.5838933" lon="10.820055"><ele>161.0</ele><time>2026-04-26T07:57:34.764Z</time></trkpt><trkpt lat="45.5838233" lon="10.8197867"><ele>161.0</ele><time>2026-04-26T07:57:35.764Z</time></trkpt><trkpt lat="45.5837783" lon="10.819515"><ele>161.0</ele><time>2026-04-26T07:57:36.765Z</time></trkpt><trkpt lat="45.5837533" lon="10.8192683"><ele>162.0</ele><time>2026-04-26T07:57:37.764Z</time></trkpt><trkpt lat="45.583745" lon="10.8190633"><ele>163.0</ele><time>2026-04-26T07:57:38.764Z</time></trkpt><trkpt lat="45.5837167" lon="10.818875"><ele>164.0</ele><time>2026-04-26T07:57:39.765Z</time></trkpt><trkpt lat="45.5836583" lon="10.81869"><ele>165.0</ele><time>2026-04-26T07:57:40.764Z</time></trkpt><trkpt lat="45.5835933" lon="10.81856"><ele>161.2</ele><time>2026-04-26T07:57:41.764Z</time></trkpt><trkpt lat="45.5835017" lon="10.8184683"><ele>157.4</ele><time>2026-04-26T07:57:42.765Z</time></trkpt><trkpt lat="45.5833867" lon="10.8184433"><ele>153.6</ele><time>2026-04-26T07:57:43.765Z</time></trkpt><trkpt lat="45.5832833" lon="10.81847"><ele>149.8</ele><time>2026-04-26T07:57:44.764Z</time></trkpt><trkpt lat="45.5831867" lon="10.8185317"><ele>146.0</ele><time>2026-04-26T07:57:45.764Z</time></trkpt><trkpt lat="45.583135" lon="10.8186383"><ele>146.0</ele><time>2026-04-26T07:57:46.764Z</time></trkpt><trkpt lat="45.5831933" lon="10.8188617"><ele>146.0</ele><time>2026-04-26T07:57:47.765Z</time></trkpt><trkpt lat="45.5832317" lon="10.81905"><ele>146.0</ele><time>2026-04-26T07:57:48.764Z</time></trkpt><trkpt lat="45.583255" lon="10.819235"><ele>146.0</ele><time>2026-04-26T07:57:49.764Z</time></trkpt><trkpt lat="45.583275" lon="10.8194033"><ele>144.6</ele><time>2026-04-26T07:57:50.764Z</time></trkpt><trkpt lat="45.583265" lon="10.81956"><ele>143.2</ele><time>2026-04-26T07:57:51.764Z</time></trkpt><trkpt lat="45.5832367" lon="10.8196967"><ele>141.8</ele><time>2026-04-26T07:57:52.764Z</time></trkpt><trkpt lat="45.5831817" lon="10.8198183"><ele>140.4</ele><time>2026-04-26T07:57:53.765Z</time></trkpt><trkpt lat="45.583115" lon="10.81994"><ele>139.0</ele><time>2026-04-26T07:57:54.765Z</time></trkpt><trkpt lat="45.5830467" lon="10.8200583"><ele>138.2</ele><time>2026-04-26T07:57:55.765Z</time></trkpt><trkpt lat="45.5829833" lon="10.8201667"><ele>137.4</ele><time>2026-04-26T07:57:56.764Z</time></trkpt><trkpt lat="45.58293" lon="10.8202883"><ele>136.6</ele><time>2026-04-26T07:57:57.764Z</time></trkpt><trkpt lat="45.5829017" lon="10.82041"><ele>135.8</ele><time>2026-04-26T07:57:58.765Z</time></trkpt><trkpt lat="45.5828767" lon="10.8205383"><ele>135.0</ele><time>2026-04-26T07:57:59.765Z</time></trkpt><trkpt lat="45.5828617" lon="10.8206683"><ele>135.0</ele><time>2026-04-26T07:58:00.764Z</time></trkpt><trkpt lat="45.582855" lon="10.8208167"><ele>135.0</ele><time>2026-04-26T07:58:01.764Z</time></trkpt><trkpt lat="45.5828633" lon="10.8209767"><ele>135.0</ele><time>2026-04-26T07:58:02.764Z</time></trkpt><trkpt lat="45.5828817" lon="10.821155"><ele>135.0</ele><time>2026-04-26T07:58:03.765Z</time></trkpt><trkpt lat="45.5829067" lon="10.821335"><ele>133.5</ele><time>2026-04-26T07:58:04.764Z</time></trkpt><trkpt lat="45.5829317" lon="10.82152"><ele>132.0</ele><time>2026-04-26T07:58:05.764Z</time></trkpt><trkpt lat="45.5829583" lon="10.8217133"><ele>130.5</ele><time>2026-04-26T07:58:06.764Z</time></trkpt><trkpt lat="45.5829783" lon="10.8218967"><ele>129.0</ele><time>2026-04-26T07:58:07.764Z</time></trkpt><trkpt lat="45.5830067" lon="10.8220783"><ele>127.5</ele><time>2026-04-26T07:58:08.765Z</time></trkpt><trkpt lat="45.5830367" lon="10.8222567"><ele>126.0</ele><time>2026-04-26T07:58:09.764Z</time></trkpt><trkpt lat="45.58307" lon="10.8224217"><ele>124.5</ele><time>2026-04-26T07:58:10.764Z</time></trkpt><trkpt lat="45.583095" lon="10.8226133"><ele>123.0</ele><time>2026-04-26T07:58:11.765Z</time></trkpt><trkpt lat="45.5831133" lon="10.8227733"><ele>122.4</ele><time>2026-04-26T07:58:12.764Z</time></trkpt><trkpt lat="45.58314" lon="10.8229333"><ele>121.80000000000001</ele><time>2026-04-26T07:58:13.765Z</time></trkpt><trkpt lat="45.583165" lon="10.8230733"><ele>121.2</ele><time>2026-04-26T07:58:14.764Z</time></trkpt><trkpt lat="45.5831917" lon="10.8232"><ele>120.6</ele><time>2026-04-26T07:58:15.765Z</time></trkpt><trkpt lat="45.5832183" lon="10.823305"><ele>120.0</ele><time>2026-04-26T07:58:16.765Z</time></trkpt><trkpt lat="45.5832483" lon="10.8233883"><ele>120.0</ele><time>2026-04-26T07:58:17.764Z</time></trkpt><trkpt lat="45.5832983" lon="10.8234483"><ele>120.0</ele><time>2026-04-26T07:58:18.764Z</time></trkpt><trkpt lat="45.5833733" lon="10.8235083"><ele>120.0</ele><time>2026-04-26T07:58:19.765Z</time></trkpt><trkpt lat="45.583465" lon="10.8235783"><ele>120.0</ele><time>2026-04-26T07:58:20.764Z</time></trkpt><trkpt lat="45.5835617" lon="10.823625"><ele>120.0</ele><time>2026-04-26T07:58:21.765Z</time></trkpt><trkpt lat="45.5836783" lon="10.8236467"><ele>117.8</ele><time>2026-04-26T07:58:22.764Z</time></trkpt><trkpt lat="45.58379" lon="10.823675"><ele>115.6</ele><time>2026-04-26T07:58:23.765Z</time></trkpt><trkpt lat="45.5838967" lon="10.8237"><ele>113.4</ele><time>2026-04-26T07:58:24.764Z</time></trkpt><trkpt lat="45.5839967" lon="10.8237283"><ele>111.2</ele><time>2026-04-26T07:58:25.764Z</time></trkpt><trkpt lat="45.5841" lon="10.8237617"><ele>109.0</ele><time>2026-04-26T07:58:26.765Z</time></trkpt><trkpt lat="45.5842" lon="10.8237783"><ele>109.00000000000001</ele><time>2026-04-26T07:58:27.764Z</time></trkpt><trkpt lat="45.58429" lon="10.8238017"><ele>109.0</ele><time>2026-04-26T07:58:28.764Z</time></trkpt><trkpt lat="45.5843733" lon="10.82383"><ele>109.0</ele><time>2026-04-26T07:58:29.765Z</time></trkpt><trkpt lat="45.5844567" lon="10.8238683"><ele>109.0</ele><time>2026-04-26T07:58:30.765Z</time></trkpt><trkpt lat="45.5845333" lon="10.823925"><ele>109.00000000000001</ele><time>2026-04-26T07:58:31.764Z</time></trkpt><trkpt lat="45.5846033" lon="10.82401"><ele>109.0</ele><time>2026-04-26T07:58:32.765Z</time></trkpt><trkpt lat="45.5846667" lon="10.8241583"><ele>118.66666666666667</ele><time>2026-04-26T07:58:33.765Z</time></trkpt><trkpt lat="45.584735" lon="10.8243583"><ele>128.33333333333334</ele><time>2026-04-26T07:58:34.765Z</time></trkpt><trkpt lat="45.5848133" lon="10.8246"><ele>138.0</ele><time>2026-04-26T07:58:35.765Z</time></trkpt><trkpt lat="45.5848967" lon="10.8248567"><ele>138.0</ele><time>2026-04-26T07:58:36.765Z</time></trkpt><trkpt lat="45.58499" lon="10.8251283"><ele>138.0</ele><time>2026-04-26T07:58:37.764Z</time></trkpt><trkpt lat="45.5850817" lon="10.8253967"><ele>138.0</ele><time>2026-04-26T07:58:38.764Z</time></trkpt><trkpt lat="45.5851483" lon="10.825675"><ele>141.33333333333334</ele><time>2026-04-26T07:58:39.765Z</time></trkpt><trkpt lat="45.58524" lon="10.82592"><ele>144.66666666666669</ele><time>2026-04-26T07:58:40.764Z</time></trkpt><trkpt lat="45.585315" lon="10.826135"><ele>148.0</ele><time>2026-04-26T07:58:41.764Z</time></trkpt><trkpt lat="45.5853833" lon="10.826335"><ele>148.0</ele><time>2026-04-26T07:58:42.764Z</time></trkpt><trkpt lat="45.5854483" lon="10.8265117"><ele>148.0</ele><time>2026-04-26T07:58:43.765Z</time></trkpt><trkpt lat="45.5855067" lon="10.8266833"><ele>148.0</ele><time>2026-04-26T07:58:44.764Z</time></trkpt><trkpt lat="45.5855683" lon="10.8268483"><ele>148.0</ele><time>2026-04-26T07:58:45.764Z</time></trkpt><trkpt lat="45.5856683" lon="10.8270167"><ele>140.5</ele><time>2026-04-26T07:58:46.765Z</time></trkpt><trkpt lat="45.5857683" lon="10.82718"><ele>133.0</ele><time>2026-04-26T07:58:47.764Z</time></trkpt><trkpt lat="45.5858433" lon="10.8273467"><ele>125.5</ele><time>2026-04-26T07:58:48.765Z</time></trkpt><trkpt lat="45.58592" lon="10.827505"><ele>118.0</ele><time>2026-04-26T07:58:49.765Z</time></trkpt><trkpt lat="45.5859933" lon="10.8276367"><ele>116.00000000000001</ele><time>2026-04-26T07:58:50.764Z</time></trkpt><trkpt lat="45.5860433" lon="10.8277617"><ele>114.0</ele><time>2026-04-26T07:58:51.765Z</time></trkpt><trkpt lat="45.5860867" lon="10.827875"><ele>112.0</ele><time>2026-04-26T07:58:52.765Z</time></trkpt><trkpt lat="45.5861167" lon="10.8279917"><ele>110.0</ele><time>2026-04-26T07:58:53.764Z</time></trkpt><trkpt lat="45.58613" lon="10.8280967"><ele>108.00000000000001</ele><time>2026-04-26T07:58:54.765Z</time></trkpt><trkpt lat="45.5860967" lon="10.8282067"><ele>106.0</ele><time>2026-04-26T07:58:55.764Z</time></trkpt><trkpt lat="45.5860667" lon="10.8282967"><ele>106.0</ele><time>2026-04-26T07:58:56.765Z</time></trkpt><trkpt lat="45.5860333" lon="10.8284017"><ele>106.0</ele><time>2026-04-26T07:58:57.764Z</time></trkpt><trkpt lat="45.585985" lon="10.8285267"><ele>106.0</ele><time>2026-04-26T07:58:58.764Z</time></trkpt><trkpt lat="45.5859633" lon="10.8286383"><ele>106.0</ele><time>2026-04-26T07:58:59.764Z</time></trkpt><trkpt lat="45.5859633" lon="10.8287733"><ele>106.0</ele><time>2026-04-26T07:59:00.765Z</time></trkpt><trkpt lat="45.5859633" lon="10.8289233"><ele>105.25</ele><time>2026-04-26T07:59:01.764Z</time></trkpt><trkpt lat="45.5859733" lon="10.829095"><ele>104.5</ele><time>2026-04-26T07:59:02.764Z</time></trkpt><trkpt lat="45.5860033" lon="10.82927"><ele>103.75</ele><time>2026-04-26T07:59:03.764Z</time></trkpt><trkpt lat="45.5860367" lon="10.8294567"><ele>103.0</ele><time>2026-04-26T07:59:04.764Z</time></trkpt><trkpt lat="45.5860833" lon="10.829625"><ele>102.0</ele><time>2026-04-26T07:59:05.764Z</time></trkpt><trkpt lat="45.5861483" lon="10.829755"><ele>101.0</ele><time>2026-04-26T07:59:06.764Z</time></trkpt><trkpt lat="45.586215" lon="10.8299333"><ele>100.0</ele><time>2026-04-26T07:59:07.764Z</time></trkpt><trkpt lat="45.5862717" lon="10.8301283"><ele>99.0</ele><time>2026-04-26T07:59:08.764Z</time></trkpt><trkpt lat="45.5863217" lon="10.8303233"><ele>100.0</ele><time>2026-04-26T07:59:09.765Z</time></trkpt><trkpt lat="45.5863667" lon="10.830515"><ele>101.0</ele><time>2026-04-26T07:59:10.764Z</time></trkpt><trkpt lat="45.5864133" lon="10.8306983"><ele>102.0</ele><time>2026-04-26T07:59:11.764Z</time></trkpt><trkpt lat="45.5864883" lon="10.83089"><ele>103.0</ele><time>2026-04-26T07:59:12.764Z</time></trkpt><trkpt lat="45.586545" lon="10.831065"><ele>103.0</ele><time>2026-04-26T07:59:13.764Z</time></trkpt><trkpt lat="45.5866083" lon="10.83125"><ele>103.0</ele><time>2026-04-26T07:59:14.764Z</time></trkpt><trkpt lat="45.5866817" lon="10.8314167"><ele>103.0</ele><time>2026-04-26T07:59:15.764Z</time></trkpt><trkpt lat="45.5867533" lon="10.83159"><ele>103.0</ele><time>2026-04-26T07:59:16.764Z</time></trkpt><trkpt lat="45.58683" lon="10.8317517"><ele>103.0</ele><time>2026-04-26T07:59:17.765Z</time></trkpt><trkpt lat="45.5869183" lon="10.831915"><ele>103.0</ele><time>2026-04-26T07:59:18.765Z</time></trkpt><trkpt lat="45.58701" lon="10.83206"><ele>103.0</ele><time>2026-04-26T07:59:19.764Z</time></trkpt><trkpt lat="45.5871067" lon="10.8321833"><ele>103.0</ele><time>2026-04-26T07:59:20.764Z</time></trkpt><trkpt lat="45.5872117" lon="10.8322967"><ele>102.75</ele><time>2026-04-26T07:59:21.765Z</time></trkpt><trkpt lat="45.587315" lon="10.8324133"><ele>102.5</ele><time>2026-04-26T07:59:22.764Z</time></trkpt><trkpt lat="45.5874183" lon="10.83254"><ele>102.25</ele><time>2026-04-26T07:59:23.764Z</time></trkpt><trkpt lat="45.5875133" lon="10.8326783"><ele>102.0</ele><time>2026-04-26T07:59:24.763Z</time></trkpt><trkpt lat="45.5876183" lon="10.832855"><ele>102.0</ele><time>2026-04-26T07:59:25.763Z</time></trkpt><trkpt lat="45.587725" lon="10.8330417"><ele>102.0</ele><time>2026-04-26T07:59:26.763Z</time></trkpt><trkpt lat="45.5878217" lon="10.8331967"><ele>102.0</ele><time>2026-04-26T07:59:27.763Z</time></trkpt><trkpt lat="45.5878983" lon="10.83337"><ele>102.25</ele><time>2026-04-26T07:59:28.764Z</time></trkpt><trkpt lat="45.5879683" lon="10.8335417"><ele>102.5</ele><time>2026-04-26T07:59:29.763Z</time></trkpt><trkpt lat="45.5880433" lon="10.8336933"><ele>102.75</ele><time>2026-04-26T07:59:30.764Z</time></trkpt><trkpt lat="45.588125" lon="10.83383"><ele>103.0</ele><time>2026-04-26T07:59:31.764Z</time></trkpt><trkpt lat="45.5881967" lon="10.8339633"><ele>103.0</ele><time>2026-04-26T07:59:32.764Z</time></trkpt><trkpt lat="45.58825" lon="10.8340883"><ele>103.0</ele><time>2026-04-26T07:59:33.763Z</time></trkpt><trkpt lat="45.5883017" lon="10.8342183"><ele>103.0</ele><time>2026-04-26T07:59:34.764Z</time></trkpt><trkpt lat="45.588325" lon="10.8343417"><ele>103.0</ele><time>2026-04-26T07:59:35.764Z</time></trkpt><trkpt lat="45.5883283" lon="10.8344583"><ele>103.0</ele><time>2026-04-26T07:59:36.763Z</time></trkpt><trkpt lat="45.5883267" lon="10.8345633"><ele>103.16666666666667</ele><time>2026-04-26T07:59:37.763Z</time></trkpt><trkpt lat="45.5882983" lon="10.8346767"><ele>103.33333333333334</ele><time>2026-04-26T07:59:38.764Z</time></trkpt><trkpt lat="45.588255" lon="10.8347783"><ele>103.5</ele><time>2026-04-26T07:59:39.764Z</time></trkpt><trkpt lat="45.58822" lon="10.8348833"><ele>103.66666666666666</ele><time>2026-04-26T07:59:40.764Z</time></trkpt><trkpt lat="45.5881633" lon="10.834965"><ele>103.83333333333333</ele><time>2026-04-26T07:59:41.763Z</time></trkpt><trkpt lat="45.5880817" lon="10.8350217"><ele>104.0</ele><time>2026-04-26T07:59:43.764Z</time></trkpt><trkpt lat="45.58802" lon="10.8350783"><ele>103.6</ele><time>2026-04-26T07:59:46.764Z</time></trkpt><trkpt lat="45.5880733" lon="10.8351417"><ele>103.2</ele><time>2026-04-26T07:59:49.763Z</time></trkpt><trkpt lat="45.5881167" lon="10.8352083"><ele>102.8</ele><time>2026-04-26T07:59:50.764Z</time></trkpt><trkpt lat="45.58819" lon="10.835285"><ele>102.39999999999999</ele><time>2026-04-26T07:59:51.763Z</time></trkpt><trkpt lat="45.5882817" lon="10.8353667"><ele>102.0</ele><time>2026-04-26T07:59:52.763Z</time></trkpt><trkpt lat="45.5883967" lon="10.8354567"><ele>102.0</ele><time>2026-04-26T07:59:53.763Z</time></trkpt><trkpt lat="45.5885167" lon="10.8355583"><ele>102.0</ele><time>2026-04-26T07:59:54.764Z</time></trkpt><trkpt lat="45.5886583" lon="10.8356533"><ele>102.0</ele><time>2026-04-26T07:59:55.763Z</time></trkpt><trkpt lat="45.588805" lon="10.83577"><ele>102.0</ele><time>2026-04-26T07:59:56.763Z</time></trkpt><trkpt lat="45.5889667" lon="10.8358933"><ele>102.0</ele><time>2026-04-26T07:59:57.763Z</time></trkpt><trkpt lat="45.5891367" lon="10.8360083"><ele>102.0</ele><time>2026-04-26T07:59:58.763Z</time></trkpt><trkpt lat="45.5893" lon="10.83614"><ele>102.0</ele><time>2026-04-26T07:59:59.763Z</time></trkpt><trkpt lat="45.58946" lon="10.8362733"><ele>102.0</ele><time>2026-04-26T08:00:00.763Z</time></trkpt><trkpt lat="45.5896183" lon="10.836405"><ele>102.0</ele><time>2026-04-26T08:00:01.763Z</time></trkpt><trkpt lat="45.5897767" lon="10.8365167"><ele>102.0</ele><time>2026-04-26T08:00:02.764Z</time></trkpt><trkpt lat="45.5899117" lon="10.8366067"><ele>102.0</ele><time>2026-04-26T08:00:03.763Z</time></trkpt><trkpt lat="45.5900067" lon="10.8366867"><ele>102.0</ele><time>2026-04-26T08:00:04.763Z</time></trkpt><trkpt lat="45.5900833" lon="10.8367417"><ele>102.0</ele><time>2026-04-26T08:00:05.763Z</time></trkpt><trkpt lat="45.5901767" lon="10.83679"><ele>102.0</ele><time>2026-04-26T08:00:06.764Z</time></trkpt><trkpt lat="45.5902883" lon="10.8368367"><ele>104.0</ele><time>2026-04-26T08:00:07.764Z</time></trkpt><trkpt lat="45.5904283" lon="10.8368817"><ele>106.0</ele><time>2026-04-26T08:00:08.764Z</time></trkpt><trkpt lat="45.5905767" lon="10.8369433"><ele>108.0</ele><time>2026-04-26T08:00:09.763Z</time></trkpt><trkpt lat="45.5907333" lon="10.8370017"><ele>108.0</ele><time>2026-04-26T08:00:10.764Z</time></trkpt><trkpt lat="45.59089" lon="10.8370517"><ele>108.0</ele><time>2026-04-26T08:00:11.763Z</time></trkpt><trkpt lat="45.5910517" lon="10.837115"><ele>108.0</ele><time>2026-04-26T08:00:12.763Z</time></trkpt><trkpt lat="45.5912083" lon="10.837195"><ele>111.33333333333334</ele><time>2026-04-26T08:00:13.763Z</time></trkpt><trkpt lat="45.5913583" lon="10.8372467"><ele>114.66666666666667</ele><time>2026-04-26T08:00:14.763Z</time></trkpt><trkpt lat="45.591515" lon="10.8373033"><ele>118.0</ele><time>2026-04-26T08:00:15.764Z</time></trkpt><trkpt lat="45.5916717" lon="10.8373617"><ele>118.0</ele><time>2026-04-26T08:00:16.764Z</time></trkpt><trkpt lat="45.5918383" lon="10.837435"><ele>118.0</ele><time>2026-04-26T08:00:17.763Z</time></trkpt><trkpt lat="45.592005" lon="10.8375117"><ele>118.0</ele><time>2026-04-26T08:00:18.763Z</time></trkpt><trkpt lat="45.5921633" lon="10.8376017"><ele>121.0</ele><time>2026-04-26T08:00:19.764Z</time></trkpt><trkpt lat="45.592325" lon="10.8377017"><ele>124.0</ele><time>2026-04-26T08:00:20.763Z</time></trkpt><trkpt lat="45.592465" lon="10.8377833"><ele>127.0</ele><time>2026-04-26T08:00:21.763Z</time></trkpt><trkpt lat="45.5926083" lon="10.8378933"><ele>127.0</ele><time>2026-04-26T08:00:22.764Z</time></trkpt><trkpt lat="45.592755" lon="10.8379933"><ele>127.0</ele><time>2026-04-26T08:00:23.763Z</time></trkpt><trkpt lat="45.5929033" lon="10.8380967"><ele>127.0</ele><time>2026-04-26T08:00:24.763Z</time></trkpt><trkpt lat="45.59306" lon="10.8382017"><ele>126.66666666666667</ele><time>2026-04-26T08:00:25.764Z</time></trkpt><trkpt lat="45.5932183" lon="10.8383017"><ele>126.33333333333334</ele><time>2026-04-26T08:00:26.763Z</time></trkpt><trkpt lat="45.5933817" lon="10.8384017"><ele>126.0</ele><time>2026-04-26T08:00:27.763Z</time></trkpt><trkpt lat="45.5935483" lon="10.8384983"><ele>127.0</ele><time>2026-04-26T08:00:28.763Z</time></trkpt><trkpt lat="45.5937183" lon="10.8385983"><ele>128.0</ele><time>2026-04-26T08:00:29.763Z</time></trkpt><trkpt lat="45.59389" lon="10.838695"><ele>129.0</ele><time>2026-04-26T08:00:30.763Z</time></trkpt><trkpt lat="45.59407" lon="10.8387817"><ele>129.0</ele><time>2026-04-26T08:00:31.763Z</time></trkpt><trkpt lat="45.59424" lon="10.83888"><ele>129.0</ele><time>2026-04-26T08:00:32.763Z</time></trkpt><trkpt lat="45.59441" lon="10.8389867"><ele>129.0</ele><time>2026-04-26T08:00:33.763Z</time></trkpt><trkpt lat="45.594595" lon="10.8390967"><ele>128.66666666666666</ele><time>2026-04-26T08:00:34.764Z</time></trkpt><trkpt lat="45.5947767" lon="10.8392033"><ele>128.33333333333331</ele><time>2026-04-26T08:00:35.764Z</time></trkpt><trkpt lat="45.59495" lon="10.8393217"><ele>128.0</ele><time>2026-04-26T08:00:36.763Z</time></trkpt><trkpt lat="45.5951167" lon="10.839435"><ele>128.0</ele><time>2026-04-26T08:00:37.763Z</time></trkpt><trkpt lat="45.595275" lon="10.8395533"><ele>128.0</ele><time>2026-04-26T08:00:38.763Z</time></trkpt><trkpt lat="45.595435" lon="10.8396733"><ele>128.0</ele><time>2026-04-26T08:00:39.764Z</time></trkpt><trkpt lat="45.5955933" lon="10.8397933"><ele>128.0</ele><time>2026-04-26T08:00:40.763Z</time></trkpt><trkpt lat="45.5957317" lon="10.8399283"><ele>128.0</ele><time>2026-04-26T08:00:41.763Z</time></trkpt><trkpt lat="45.5958717" lon="10.8400583"><ele>128.0</ele><time>2026-04-26T08:00:42.764Z</time></trkpt><trkpt lat="45.5960067" lon="10.8401733"><ele>128.0</ele><time>2026-04-26T08:00:43.763Z</time></trkpt><trkpt lat="45.596155" lon="10.8402967"><ele>128.0</ele><time>2026-04-26T08:00:44.764Z</time></trkpt><trkpt lat="45.5963067" lon="10.8404183"><ele>128.0</ele><time>2026-04-26T08:00:45.763Z</time></trkpt><trkpt lat="45.5964533" lon="10.8405333"><ele>127.66666666666666</ele><time>2026-04-26T08:00:46.763Z</time></trkpt><trkpt lat="45.596605" lon="10.8406617"><ele>127.33333333333334</ele><time>2026-04-26T08:00:47.764Z</time></trkpt><trkpt lat="45.596735" lon="10.840825"><ele>127.0</ele><time>2026-04-26T08:00:48.763Z</time></trkpt><trkpt lat="45.5968567" lon="10.8410033"><ele>127.0</ele><time>2026-04-26T08:00:49.763Z</time></trkpt><trkpt lat="45.5969483" lon="10.8411783"><ele>127.0</ele><time>2026-04-26T08:00:50.763Z</time></trkpt><trkpt lat="45.5970433" lon="10.8413383"><ele>127.0</ele><time>2026-04-26T08:00:51.764Z</time></trkpt><trkpt lat="45.5971467" lon="10.8415183"><ele>127.0</ele><time>2026-04-26T08:00:52.764Z</time></trkpt><trkpt lat="45.59726" lon="10.8416817"><ele>127.0</ele><time>2026-04-26T08:00:53.763Z</time></trkpt><trkpt lat="45.5973783" lon="10.84186"><ele>127.0</ele><time>2026-04-26T08:00:54.764Z</time></trkpt><trkpt lat="45.5974933" lon="10.84204"><ele>126.33333333333334</ele><time>2026-04-26T08:00:55.763Z</time></trkpt><trkpt lat="45.59762" lon="10.84224"><ele>125.66666666666666</ele><time>2026-04-26T08:00:56.763Z</time></trkpt><trkpt lat="45.5977433" lon="10.8424167"><ele>125.0</ele><time>2026-04-26T08:00:57.763Z</time></trkpt><trkpt lat="45.5978583" lon="10.842585"><ele>123.66666666666666</ele><time>2026-04-26T08:00:58.763Z</time></trkpt><trkpt lat="45.5979917" lon="10.8427167"><ele>122.33333333333334</ele><time>2026-04-26T08:00:59.763Z</time></trkpt><trkpt lat="45.5981517" lon="10.8428317"><ele>121.0</ele><time>2026-04-26T08:01:00.763Z</time></trkpt><trkpt lat="45.5983217" lon="10.8429333"><ele>121.0</ele><time>2026-04-26T08:01:01.763Z</time></trkpt><trkpt lat="45.598495" lon="10.8430283"><ele>121.0</ele><time>2026-04-26T08:01:02.763Z</time></trkpt><trkpt lat="45.5986517" lon="10.8431267"><ele>121.0</ele><time>2026-04-26T08:01:03.764Z</time></trkpt><trkpt lat="45.5987967" lon="10.84324"><ele>122.0</ele><time>2026-04-26T08:01:04.763Z</time></trkpt><trkpt lat="45.598955" lon="10.8433517"><ele>123.0</ele><time>2026-04-26T08:01:05.763Z</time></trkpt><trkpt lat="45.5991233" lon="10.8434467"><ele>124.0</ele><time>2026-04-26T08:01:06.763Z</time></trkpt><trkpt lat="45.5992833" lon="10.843555"><ele>123.33333333333334</ele><time>2026-04-26T08:01:07.763Z</time></trkpt><trkpt lat="45.5994383" lon="10.8436667"><ele>122.66666666666666</ele><time>2026-04-26T08:01:08.763Z</time></trkpt><trkpt lat="45.599595" lon="10.8437833"><ele>122.0</ele><time>2026-04-26T08:01:09.763Z</time></trkpt><trkpt lat="45.5997433" lon="10.84388"><ele>122.0</ele><time>2026-04-26T08:01:10.763Z</time></trkpt><trkpt lat="45.5999067" lon="10.8439733"><ele>122.0</ele><time>2026-04-26T08:01:11.764Z</time></trkpt><trkpt lat="45.6000717" lon="10.844085"><ele>122.0</ele><time>2026-04-26T08:01:12.764Z</time></trkpt><trkpt lat="45.6002333" lon="10.8441833"><ele>120.66666666666666</ele><time>2026-04-26T08:01:13.764Z</time></trkpt><trkpt lat="45.6003783" lon="10.844305"><ele>119.33333333333334</ele><time>2026-04-26T08:01:14.763Z</time></trkpt><trkpt lat="45.6005183" lon="10.8444283"><ele>118.0</ele><time>2026-04-26T08:01:15.764Z</time></trkpt><trkpt lat="45.6006633" lon="10.8445583"><ele>118.0</ele><time>2026-04-26T08:01:16.763Z</time></trkpt><trkpt lat="45.6008033" lon="10.8446917"><ele>118.0</ele><time>2026-04-26T08:01:17.764Z</time></trkpt><trkpt lat="45.6009517" lon="10.844825"><ele>118.0</ele><time>2026-04-26T08:01:18.763Z</time></trkpt><trkpt lat="45.6010983" lon="10.8449717"><ele>118.33333333333334</ele><time>2026-04-26T08:01:19.764Z</time></trkpt><trkpt lat="45.60125" lon="10.845105"><ele>118.66666666666666</ele><time>2026-04-26T08:01:20.763Z</time></trkpt><trkpt lat="45.6013917" lon="10.8452467"><ele>119.0</ele><time>2026-04-26T08:01:21.763Z</time></trkpt><trkpt lat="45.6015317" lon="10.845375"><ele>119.0</ele><time>2026-04-26T08:01:22.764Z</time></trkpt><trkpt lat="45.6016817" lon="10.8454917"><ele>119.0</ele><time>2026-04-26T08:01:23.763Z</time></trkpt><trkpt lat="45.6018417" lon="10.8456183"><ele>119.0</ele><time>2026-04-26T08:01:24.763Z</time></trkpt><trkpt lat="45.6020067" lon="10.8457417"><ele>118.66666666666666</ele><time>2026-04-26T08:01:25.763Z</time></trkpt><trkpt lat="45.6021667" lon="10.8458583"><ele>118.33333333333334</ele><time>2026-04-26T08:01:26.763Z</time></trkpt><trkpt lat="45.60233" lon="10.845985"><ele>118.0</ele><time>2026-04-26T08:01:27.763Z</time></trkpt><trkpt lat="45.602495" lon="10.8461083"><ele>118.0</ele><time>2026-04-26T08:01:28.763Z</time></trkpt><trkpt lat="45.6026433" lon="10.8462417"><ele>118.0</ele><time>2026-04-26T08:01:29.763Z</time></trkpt><trkpt lat="45.6028017" lon="10.8463683"><ele>118.0</ele><time>2026-04-26T08:01:30.764Z</time></trkpt><trkpt lat="45.6029567" lon="10.8464917"><ele>117.33333333333334</ele><time>2026-04-26T08:01:31.764Z</time></trkpt><trkpt lat="45.603105" lon="10.8466233"><ele>116.66666666666666</ele><time>2026-04-26T08:01:32.764Z</time></trkpt><trkpt lat="45.60325" lon="10.846745"><ele>116.0</ele><time>2026-04-26T08:01:33.763Z</time></trkpt><trkpt lat="45.6034" lon="10.8468633"><ele>116.33333333333333</ele><time>2026-04-26T08:01:34.763Z</time></trkpt><trkpt lat="45.6035483" lon="10.8469917"><ele>116.66666666666666</ele><time>2026-04-26T08:01:35.764Z</time></trkpt><trkpt lat="45.6036933" lon="10.8471167"><ele>117.0</ele><time>2026-04-26T08:01:36.763Z</time></trkpt><trkpt lat="45.6038317" lon="10.8472383"><ele>117.0</ele><time>2026-04-26T08:01:37.764Z</time></trkpt><trkpt lat="45.60397" lon="10.84736"><ele>117.0</ele><time>2026-04-26T08:01:38.763Z</time></trkpt><trkpt lat="45.6041067" lon="10.8474967"><ele>117.0</ele><time>2026-04-26T08:01:39.763Z</time></trkpt><trkpt lat="45.6042467" lon="10.8476283"><ele>116.66666666666666</ele><time>2026-04-26T08:01:40.764Z</time></trkpt><trkpt lat="45.6043967" lon="10.8477683"><ele>116.33333333333333</ele><time>2026-04-26T08:01:41.764Z</time></trkpt><trkpt lat="45.6045517" lon="10.8479117"><ele>116.0</ele><time>2026-04-26T08:01:42.764Z</time></trkpt><trkpt lat="45.6047083" lon="10.84805"><ele>116.0</ele><time>2026-04-26T08:01:43.763Z</time></trkpt><trkpt lat="45.60487" lon="10.8481867"><ele>116.0</ele><time>2026-04-26T08:01:44.763Z</time></trkpt><trkpt lat="45.6050233" lon="10.84832"><ele>116.0</ele><time>2026-04-26T08:01:45.763Z</time></trkpt><trkpt lat="45.60518" lon="10.8484533"><ele>115.33333333333333</ele><time>2026-04-26T08:01:46.763Z</time></trkpt><trkpt lat="45.6053383" lon="10.8485867"><ele>114.66666666666666</ele><time>2026-04-26T08:01:47.763Z</time></trkpt><trkpt lat="45.6054967" lon="10.8487167"><ele>114.0</ele><time>2026-04-26T08:01:48.763Z</time></trkpt><trkpt lat="45.6056467" lon="10.8488583"><ele>114.0</ele><time>2026-04-26T08:01:49.764Z</time></trkpt><trkpt lat="45.60579" lon="10.8489917"><ele>114.0</ele><time>2026-04-26T08:01:50.763Z</time></trkpt><trkpt lat="45.605945" lon="10.8491417"><ele>114.0</ele><time>2026-04-26T08:01:51.763Z</time></trkpt><trkpt lat="45.6061033" lon="10.8492817"><ele>114.0</ele><time>2026-04-26T08:01:52.763Z</time></trkpt><trkpt lat="45.6062583" lon="10.8494283"><ele>114.0</ele><time>2026-04-26T08:01:53.764Z</time></trkpt><trkpt lat="45.6064217" lon="10.8495617"><ele>114.0</ele><time>2026-04-26T08:01:54.763Z</time></trkpt><trkpt lat="45.6065817" lon="10.8496933"><ele>114.0</ele><time>2026-04-26T08:01:55.763Z</time></trkpt><trkpt lat="45.6067383" lon="10.84983"><ele>114.0</ele><time>2026-04-26T08:01:56.763Z</time></trkpt><trkpt lat="45.6068983" lon="10.8499633"><ele>114.0</ele><time>2026-04-26T08:01:57.764Z</time></trkpt><trkpt lat="45.6070633" lon="10.8500833"><ele>113.33333333333334</ele><time>2026-04-26T08:01:58.764Z</time></trkpt><trkpt lat="45.60723" lon="10.8501967"><ele>112.66666666666667</ele><time>2026-04-26T08:01:59.763Z</time></trkpt><trkpt lat="45.6074017" lon="10.8502917"><ele>112.0</ele><time>2026-04-26T08:02:00.764Z</time></trkpt><trkpt lat="45.6075833" lon="10.850385"><ele>112.0</ele><time>2026-04-26T08:02:01.763Z</time></trkpt><trkpt lat="45.60776" lon="10.8504683"><ele>112.0</ele><time>2026-04-26T08:02:02.764Z</time></trkpt><trkpt lat="45.6079333" lon="10.85054"><ele>112.0</ele><time>2026-04-26T08:02:03.764Z</time></trkpt><trkpt lat="45.6081183" lon="10.850625"><ele>112.0</ele><time>2026-04-26T08:02:04.764Z</time></trkpt><trkpt lat="45.6082967" lon="10.850705"><ele>112.0</ele><time>2026-04-26T08:02:05.763Z</time></trkpt><trkpt lat="45.6084717" lon="10.8507817"><ele>112.0</ele><time>2026-04-26T08:02:06.763Z</time></trkpt><trkpt lat="45.60865" lon="10.8508467"><ele>112.33333333333334</ele><time>2026-04-26T08:02:07.764Z</time></trkpt><trkpt lat="45.6088183" lon="10.850915"><ele>112.66666666666666</ele><time>2026-04-26T08:02:08.763Z</time></trkpt><trkpt lat="45.6089867" lon="10.8509933"><ele>113.0</ele><time>2026-04-26T08:02:09.763Z</time></trkpt><trkpt lat="45.6091467" lon="10.8510667"><ele>113.0</ele><time>2026-04-26T08:02:10.763Z</time></trkpt><trkpt lat="45.6093167" lon="10.85114"><ele>113.0</ele><time>2026-04-26T08:02:11.763Z</time></trkpt><trkpt lat="45.609475" lon="10.8512133"><ele>113.0</ele><time>2026-04-26T08:02:12.764Z</time></trkpt><trkpt lat="45.6096467" lon="10.8512967"><ele>112.66666666666666</ele><time>2026-04-26T08:02:13.763Z</time></trkpt><trkpt lat="45.6098117" lon="10.8514"><ele>112.33333333333334</ele><time>2026-04-26T08:02:14.764Z</time></trkpt><trkpt lat="45.6099533" lon="10.85151"><ele>112.0</ele><time>2026-04-26T08:02:15.763Z</time></trkpt><trkpt lat="45.6100983" lon="10.8516233"><ele>112.0</ele><time>2026-04-26T08:02:16.763Z</time></trkpt><trkpt lat="45.6102517" lon="10.8517367"><ele>112.0</ele><time>2026-04-26T08:02:17.764Z</time></trkpt><trkpt lat="45.6104083" lon="10.8518617"><ele>112.0</ele><time>2026-04-26T08:02:18.763Z</time></trkpt><trkpt lat="45.6105667" lon="10.8519867"><ele>111.33333333333334</ele><time>2026-04-26T08:02:19.763Z</time></trkpt><trkpt lat="45.6107267" lon="10.8521117"><ele>110.66666666666666</ele><time>2026-04-26T08:02:20.763Z</time></trkpt><trkpt lat="45.6108867" lon="10.852235"><ele>110.0</ele><time>2026-04-26T08:02:21.763Z</time></trkpt><trkpt lat="45.61104" lon="10.852355"><ele>109.33333333333333</ele><time>2026-04-26T08:02:22.764Z</time></trkpt><trkpt lat="45.611185" lon="10.8524633"><ele>108.66666666666666</ele><time>2026-04-26T08:02:23.763Z</time></trkpt><trkpt lat="45.6113433" lon="10.8525617"><ele>108.0</ele><time>2026-04-26T08:02:24.763Z</time></trkpt><trkpt lat="45.61154" lon="10.8526267"><ele>108.0</ele><time>2026-04-26T08:02:25.763Z</time></trkpt><trkpt lat="45.6117417" lon="10.8526233"><ele>108.0</ele><time>2026-04-26T08:02:26.763Z</time></trkpt><trkpt lat="45.611915" lon="10.852575"><ele>108.0</ele><time>2026-04-26T08:02:27.764Z</time></trkpt><trkpt lat="45.6121" lon="10.8525317"><ele>107.33333333333334</ele><time>2026-04-26T08:02:28.763Z</time></trkpt><trkpt lat="45.6122833" lon="10.8525"><ele>106.66666666666667</ele><time>2026-04-26T08:02:29.763Z</time></trkpt><trkpt lat="45.6124417" lon="10.8524083"><ele>106.0</ele><time>2026-04-26T08:02:30.763Z</time></trkpt><trkpt lat="45.612585" lon="10.8522967"><ele>106.0</ele><time>2026-04-26T08:02:31.763Z</time></trkpt><trkpt lat="45.6127333" lon="10.8522217"><ele>106.0</ele><time>2026-04-26T08:02:32.763Z</time></trkpt><trkpt lat="45.6128883" lon="10.852145"><ele>106.0</ele><time>2026-04-26T08:02:33.763Z</time></trkpt><trkpt lat="45.6130467" lon="10.85208"><ele>104.66666666666667</ele><time>2026-04-26T08:02:34.764Z</time></trkpt><trkpt lat="45.6131933" lon="10.8520283"><ele>103.33333333333334</ele><time>2026-04-26T08:02:35.763Z</time></trkpt><trkpt lat="45.6133483" lon="10.8519583"><ele>102.0</ele><time>2026-04-26T08:02:36.764Z</time></trkpt><trkpt lat="45.6134967" lon="10.8518867"><ele>102.0</ele><time>2026-04-26T08:02:37.763Z</time></trkpt><trkpt lat="45.6136617" lon="10.8518333"><ele>102.0</ele><time>2026-04-26T08:02:38.763Z</time></trkpt><trkpt lat="45.6138283" lon="10.8518083"><ele>102.0</ele><time>2026-04-26T08:02:39.764Z</time></trkpt><trkpt lat="45.6139983" lon="10.8518167"><ele>102.0</ele><time>2026-04-26T08:02:40.764Z</time></trkpt><trkpt lat="45.6141767" lon="10.85184"><ele>102.0</ele><time>2026-04-26T08:02:41.763Z</time></trkpt><trkpt lat="45.61436" lon="10.85185"><ele>102.0</ele><time>2026-04-26T08:02:42.764Z</time></trkpt><trkpt lat="45.61454" lon="10.8518533"><ele>103.0</ele><time>2026-04-26T08:02:43.763Z</time></trkpt><trkpt lat="45.6147267" lon="10.851865"><ele>104.0</ele><time>2026-04-26T08:02:44.763Z</time></trkpt><trkpt lat="45.614905" lon="10.8519017"><ele>105.0</ele><time>2026-04-26T08:02:45.764Z</time></trkpt><trkpt lat="45.615085" lon="10.8519367"><ele>105.0</ele><time>2026-04-26T08:02:46.762Z</time></trkpt><trkpt lat="45.6152667" lon="10.8519683"><ele>105.0</ele><time>2026-04-26T08:02:47.762Z</time></trkpt><trkpt lat="45.6154483" lon="10.8520133"><ele>105.0</ele><time>2026-04-26T08:02:48.762Z</time></trkpt><trkpt lat="45.6156383" lon="10.8520567"><ele>104.66666666666666</ele><time>2026-04-26T08:02:49.762Z</time></trkpt><trkpt lat="45.6158567" lon="10.852115"><ele>104.33333333333333</ele><time>2026-04-26T08:02:50.762Z</time></trkpt><trkpt lat="45.6160483" lon="10.8521433"><ele>104.0</ele><time>2026-04-26T08:02:51.762Z</time></trkpt><trkpt lat="45.6162333" lon="10.8521633"><ele>104.0</ele><time>2026-04-26T08:02:52.762Z</time></trkpt><trkpt lat="45.61641" lon="10.8521783"><ele>104.0</ele><time>2026-04-26T08:02:53.762Z</time></trkpt><trkpt lat="45.6165933" lon="10.8522"><ele>104.0</ele><time>2026-04-26T08:02:54.763Z</time></trkpt><trkpt lat="45.6167783" lon="10.8522067"><ele>104.0</ele><time>2026-04-26T08:02:55.763Z</time></trkpt><trkpt lat="45.6169533" lon="10.85223"><ele>104.0</ele><time>2026-04-26T08:02:56.763Z</time></trkpt><trkpt lat="45.6171267" lon="10.8522517"><ele>104.0</ele><time>2026-04-26T08:02:57.762Z</time></trkpt><trkpt lat="45.6173" lon="10.85229"><ele>105.0</ele><time>2026-04-26T08:02:58.762Z</time></trkpt><trkpt lat="45.6174667" lon="10.8523767"><ele>106.0</ele><time>2026-04-26T08:02:59.762Z</time></trkpt><trkpt lat="45.6176333" lon="10.852425"><ele>107.0</ele><time>2026-04-26T08:03:00.762Z</time></trkpt><trkpt lat="45.6178033" lon="10.85247"><ele>111.66666666666666</ele><time>2026-04-26T08:03:01.762Z</time></trkpt><trkpt lat="45.617975" lon="10.8525083"><ele>116.33333333333334</ele><time>2026-04-26T08:03:02.763Z</time></trkpt><trkpt lat="45.61814" lon="10.85255"><ele>121.0</ele><time>2026-04-26T08:03:03.762Z</time></trkpt><trkpt lat="45.6183" lon="10.8525983"><ele>114.66666666666667</ele><time>2026-04-26T08:03:04.762Z</time></trkpt><trkpt lat="45.6184633" lon="10.8526383"><ele>108.33333333333334</ele><time>2026-04-26T08:03:05.762Z</time></trkpt><trkpt lat="45.6186317" lon="10.8526733"><ele>102.0</ele><time>2026-04-26T08:03:06.763Z</time></trkpt><trkpt lat="45.6188033" lon="10.8527217"><ele>102.0</ele><time>2026-04-26T08:03:07.762Z</time></trkpt><trkpt lat="45.618975" lon="10.8527767"><ele>102.0</ele><time>2026-04-26T08:03:08.762Z</time></trkpt><trkpt lat="45.6191567" lon="10.8528433"><ele>102.0</ele><time>2026-04-26T08:03:09.762Z</time></trkpt><trkpt lat="45.61934" lon="10.8529233"><ele>105.33333333333334</ele><time>2026-04-26T08:03:10.762Z</time></trkpt><trkpt lat="45.6195167" lon="10.8530183"><ele>108.66666666666667</ele><time>2026-04-26T08:03:11.762Z</time></trkpt><trkpt lat="45.6196817" lon="10.8531233"><ele>112.0</ele><time>2026-04-26T08:03:12.762Z</time></trkpt><trkpt lat="45.619855" lon="10.8532333"><ele>112.0</ele><time>2026-04-26T08:03:13.762Z</time></trkpt><trkpt lat="45.6200183" lon="10.8533417"><ele>112.0</ele><time>2026-04-26T08:03:14.763Z</time></trkpt><trkpt lat="45.620185" lon="10.8534417"><ele>112.0</ele><time>2026-04-26T08:03:15.763Z</time></trkpt><trkpt lat="45.62035" lon="10.85353"><ele>110.33333333333334</ele><time>2026-04-26T08:03:16.762Z</time></trkpt><trkpt lat="45.6205217" lon="10.8536283"><ele>108.66666666666666</ele><time>2026-04-26T08:03:17.762Z</time></trkpt><trkpt lat="45.6206917" lon="10.8537267"><ele>107.0</ele><time>2026-04-26T08:03:18.762Z</time></trkpt><trkpt lat="45.62086" lon="10.8538233"><ele>107.0</ele><time>2026-04-26T08:03:19.763Z</time></trkpt><trkpt lat="45.62103" lon="10.8539383"><ele>107.0</ele><time>2026-04-26T08:03:20.763Z</time></trkpt><trkpt lat="45.6211867" lon="10.8540717"><ele>107.0</ele><time>2026-04-26T08:03:21.762Z</time></trkpt><trkpt lat="45.6213233" lon="10.8542233"><ele>108.33333333333333</ele><time>2026-04-26T08:03:22.762Z</time></trkpt><trkpt lat="45.6214567" lon="10.854375"><ele>109.66666666666666</ele><time>2026-04-26T08:03:23.762Z</time></trkpt><trkpt lat="45.621595" lon="10.8545267"><ele>111.0</ele><time>2026-04-26T08:03:24.762Z</time></trkpt><trkpt lat="45.6217317" lon="10.8546883"><ele>111.0</ele><time>2026-04-26T08:03:25.762Z</time></trkpt><trkpt lat="45.62186" lon="10.8548883"><ele>111.0</ele><time>2026-04-26T08:03:26.762Z</time></trkpt><trkpt lat="45.6219883" lon="10.8550617"><ele>111.0</ele><time>2026-04-26T08:03:27.762Z</time></trkpt><trkpt lat="45.6221183" lon="10.8552483"><ele>114.0</ele><time>2026-04-26T08:03:28.763Z</time></trkpt><trkpt lat="45.6222133" lon="10.85545"><ele>117.0</ele><time>2026-04-26T08:03:29.763Z</time></trkpt><trkpt lat="45.62231" lon="10.85565"><ele>120.0</ele><time>2026-04-26T08:03:30.762Z</time></trkpt><trkpt lat="45.6223983" lon="10.8558483"><ele>117.66666666666666</ele><time>2026-04-26T08:03:31.763Z</time></trkpt><trkpt lat="45.6224967" lon="10.8560417"><ele>115.33333333333333</ele><time>2026-04-26T08:03:32.762Z</time></trkpt><trkpt lat="45.6226017" lon="10.8562333"><ele>113.0</ele><time>2026-04-26T08:03:33.763Z</time></trkpt><trkpt lat="45.6227083" lon="10.8564233"><ele>113.0</ele><time>2026-04-26T08:03:34.762Z</time></trkpt><trkpt lat="45.6228117" lon="10.8566183"><ele>113.0</ele><time>2026-04-26T08:03:35.762Z</time></trkpt><trkpt lat="45.62291" lon="10.8568367"><ele>113.0</ele><time>2026-04-26T08:03:36.763Z</time></trkpt><trkpt lat="45.6230083" lon="10.857045"><ele>115.33333333333333</ele><time>2026-04-26T08:03:37.762Z</time></trkpt><trkpt lat="45.623115" lon="10.8572433"><ele>117.66666666666666</ele><time>2026-04-26T08:03:38.762Z</time></trkpt><trkpt lat="45.6232117" lon="10.85745"><ele>120.0</ele><time>2026-04-26T08:03:39.762Z</time></trkpt><trkpt lat="45.6233133" lon="10.85764"><ele>120.0</ele><time>2026-04-26T08:03:40.763Z</time></trkpt><trkpt lat="45.62341" lon="10.8578283"><ele>120.0</ele><time>2026-04-26T08:03:41.762Z</time></trkpt><trkpt lat="45.62351" lon="10.8580167"><ele>120.0</ele><time>2026-04-26T08:03:42.762Z</time></trkpt><trkpt lat="45.6236083" lon="10.8581967"><ele>122.66666666666666</ele><time>2026-04-26T08:03:43.763Z</time></trkpt><trkpt lat="45.6237033" lon="10.858385"><ele>125.33333333333333</ele><time>2026-04-26T08:03:44.763Z</time></trkpt><trkpt lat="45.623785" lon="10.8585767"><ele>128.0</ele><time>2026-04-26T08:03:45.762Z</time></trkpt><trkpt lat="45.6238533" lon="10.85878"><ele>128.66666666666666</ele><time>2026-04-26T08:03:46.763Z</time></trkpt><trkpt lat="45.6239267" lon="10.8589967"><ele>129.33333333333334</ele><time>2026-04-26T08:03:47.762Z</time></trkpt><trkpt lat="45.6239933" lon="10.859205"><ele>130.0</ele><time>2026-04-26T08:03:48.763Z</time></trkpt><trkpt lat="45.624055" lon="10.85941"><ele>130.0</ele><time>2026-04-26T08:03:49.762Z</time></trkpt><trkpt lat="45.6241067" lon="10.8596433"><ele>130.0</ele><time>2026-04-26T08:03:50.762Z</time></trkpt><trkpt lat="45.6241517" lon="10.8598733"><ele>130.0</ele><time>2026-04-26T08:03:51.763Z</time></trkpt><trkpt lat="45.6241933" lon="10.860105"><ele>130.66666666666669</ele><time>2026-04-26T08:03:52.762Z</time></trkpt><trkpt lat="45.6242333" lon="10.8603467"><ele>131.33333333333334</ele><time>2026-04-26T08:03:53.762Z</time></trkpt><trkpt lat="45.62426" lon="10.8606"><ele>132.0</ele><time>2026-04-26T08:03:54.762Z</time></trkpt><trkpt lat="45.6243183" lon="10.8608467"><ele>131.0</ele><time>2026-04-26T08:03:55.762Z</time></trkpt><trkpt lat="45.62439" lon="10.8611"><ele>130.0</ele><time>2026-04-26T08:03:56.763Z</time></trkpt><trkpt lat="45.6244683" lon="10.8613217"><ele>129.0</ele><time>2026-04-26T08:03:57.762Z</time></trkpt><trkpt lat="45.6245433" lon="10.86153"><ele>129.0</ele><time>2026-04-26T08:03:58.763Z</time></trkpt><trkpt lat="45.6246267" lon="10.8617483"><ele>129.0</ele><time>2026-04-26T08:03:59.762Z</time></trkpt><trkpt lat="45.6247117" lon="10.8619683"><ele>129.0</ele><time>2026-04-26T08:04:00.763Z</time></trkpt><trkpt lat="45.6247933" lon="10.8621767"><ele>129.0</ele><time>2026-04-26T08:04:01.762Z</time></trkpt><trkpt lat="45.6248717" lon="10.862375"><ele>129.0</ele><time>2026-04-26T08:04:02.762Z</time></trkpt><trkpt lat="45.6249467" lon="10.8625567"><ele>129.0</ele><time>2026-04-26T08:04:03.763Z</time></trkpt><trkpt lat="45.6250233" lon="10.86272"><ele>129.0</ele><time>2026-04-26T08:04:04.762Z</time></trkpt><trkpt lat="45.62509" lon="10.8628533"><ele>128.8</ele><time>2026-04-26T08:04:05.762Z</time></trkpt><trkpt lat="45.6251217" lon="10.862955"><ele>128.60000000000002</ele><time>2026-04-26T08:04:06.762Z</time></trkpt><trkpt lat="45.62512" lon="10.8630633"><ele>128.4</ele><time>2026-04-26T08:04:08.762Z</time></trkpt><trkpt lat="45.625075" lon="10.8631767"><ele>128.20000000000002</ele><time>2026-04-26T08:04:09.762Z</time></trkpt><trkpt lat="45.6250117" lon="10.8633117"><ele>128.0</ele><time>2026-04-26T08:04:10.762Z</time></trkpt><trkpt lat="45.6249567" lon="10.8634767"><ele>127.60000000000001</ele><time>2026-04-26T08:04:11.762Z</time></trkpt><trkpt lat="45.6249433" lon="10.8636333"><ele>127.20000000000002</ele><time>2026-04-26T08:04:12.762Z</time></trkpt><trkpt lat="45.6249433" lon="10.8637783"><ele>126.8</ele><time>2026-04-26T08:04:13.762Z</time></trkpt><trkpt lat="45.6249517" lon="10.863915"><ele>126.4</ele><time>2026-04-26T08:04:14.762Z</time></trkpt><trkpt lat="45.62495" lon="10.8640367"><ele>126.0</ele><time>2026-04-26T08:04:15.763Z</time></trkpt><trkpt lat="45.6249383" lon="10.864175"><ele>125.6</ele><time>2026-04-26T08:04:16.763Z</time></trkpt><trkpt lat="45.6248967" lon="10.8642983"><ele>125.19999999999999</ele><time>2026-04-26T08:04:17.763Z</time></trkpt><trkpt lat="45.6248367" lon="10.8644167"><ele>124.80000000000001</ele><time>2026-04-26T08:04:18.763Z</time></trkpt><trkpt lat="45.6247767" lon="10.86454"><ele>124.4</ele><time>2026-04-26T08:04:19.762Z</time></trkpt><trkpt lat="45.6247317" lon="10.864635"><ele>124.0</ele><time>2026-04-26T08:04:20.762Z</time></trkpt><trkpt lat="45.624695" lon="10.86473"><ele>124.0</ele><time>2026-04-26T08:04:21.762Z</time></trkpt><trkpt lat="45.624665" lon="10.8648833"><ele>124.0</ele><time>2026-04-26T08:04:23.762Z</time></trkpt><trkpt lat="45.6246917" lon="10.8649833"><ele>124.0</ele><time>2026-04-26T08:04:25.762Z</time></trkpt><trkpt lat="45.6247667" lon="10.8650133"><ele>124.0</ele><time>2026-04-26T08:04:27.763Z</time></trkpt><trkpt lat="45.62491" lon="10.8650367"><ele>124.0</ele><time>2026-04-26T08:04:29.762Z</time></trkpt><trkpt lat="45.6250017" lon="10.8650667"><ele>124.00000000000001</ele><time>2026-04-26T08:04:30.763Z</time></trkpt><trkpt lat="45.62509" lon="10.8650833"><ele>124.0</ele><time>2026-04-26T08:04:31.762Z</time></trkpt><trkpt lat="45.625175" lon="10.8651217"><ele>124.0</ele><time>2026-04-26T08:04:32.762Z</time></trkpt><trkpt lat="45.6252517" lon="10.86516"><ele>124.0</ele><time>2026-04-26T08:04:33.763Z</time></trkpt><trkpt lat="45.6253283" lon="10.865205"><ele>124.00000000000001</ele><time>2026-04-26T08:04:34.762Z</time></trkpt><trkpt lat="45.6254083" lon="10.865265"><ele>124.0</ele><time>2026-04-26T08:04:35.763Z</time></trkpt><trkpt lat="45.6254883" lon="10.8653317"><ele>124.0</ele><time>2026-04-26T08:04:36.762Z</time></trkpt><trkpt lat="45.62557" lon="10.865395"><ele>124.0</ele><time>2026-04-26T08:04:37.763Z</time></trkpt><trkpt lat="45.6256517" lon="10.8654633"><ele>124.0</ele><time>2026-04-26T08:04:38.762Z</time></trkpt><trkpt lat="45.625735" lon="10.8655333"><ele>124.0</ele><time>2026-04-26T08:04:39.762Z</time></trkpt><trkpt lat="45.6258183" lon="10.8656067"><ele>124.0</ele><time>2026-04-26T08:04:40.762Z</time></trkpt><trkpt lat="45.625895" lon="10.8656767"><ele>124.0</ele><time>2026-04-26T08:04:41.763Z</time></trkpt><trkpt lat="45.625975" lon="10.8657633"><ele>124.0</ele><time>2026-04-26T08:04:42.762Z</time></trkpt><trkpt lat="45.62606" lon="10.8658367"><ele>124.0</ele><time>2026-04-26T08:04:43.762Z</time></trkpt><trkpt lat="45.6261433" lon="10.8658967"><ele>124.0</ele><time>2026-04-26T08:04:44.762Z</time></trkpt><trkpt lat="45.62623" lon="10.865965"><ele>124.0</ele><time>2026-04-26T08:04:45.762Z</time></trkpt><trkpt lat="45.6263183" lon="10.8660433"><ele>123.80000000000001</ele><time>2026-04-26T08:04:46.762Z</time></trkpt><trkpt lat="45.62641" lon="10.8661217"><ele>123.60000000000001</ele><time>2026-04-26T08:04:47.762Z</time></trkpt><trkpt lat="45.6265033" lon="10.8661983"><ele>123.4</ele><time>2026-04-26T08:04:48.762Z</time></trkpt><trkpt lat="45.6265867" lon="10.86627"><ele>123.2</ele><time>2026-04-26T08:04:49.762Z</time></trkpt><trkpt lat="45.6266767" lon="10.8663333"><ele>123.0</ele><time>2026-04-26T08:04:50.762Z</time></trkpt><trkpt lat="45.6267633" lon="10.866405"><ele>123.0</ele><time>2026-04-26T08:04:51.762Z</time></trkpt><trkpt lat="45.62685" lon="10.86648"><ele>123.00000000000001</ele><time>2026-04-26T08:04:52.763Z</time></trkpt><trkpt lat="45.626935" lon="10.866555"><ele>123.00000000000001</ele><time>2026-04-26T08:04:53.763Z</time></trkpt><trkpt lat="45.6270267" lon="10.86664"><ele>123.0</ele><time>2026-04-26T08:04:54.762Z</time></trkpt><trkpt lat="45.6271083" lon="10.866715"><ele>123.0</ele><time>2026-04-26T08:04:55.762Z</time></trkpt><trkpt lat="45.6272" lon="10.8667983"><ele>122.60000000000001</ele><time>2026-04-26T08:04:56.762Z</time></trkpt><trkpt lat="45.627295" lon="10.8668783"><ele>122.20000000000002</ele><time>2026-04-26T08:04:57.762Z</time></trkpt><trkpt lat="45.6273833" lon="10.8669467"><ele>121.8</ele><time>2026-04-26T08:04:58.762Z</time></trkpt><trkpt lat="45.62747" lon="10.867025"><ele>121.4</ele><time>2026-04-26T08:04:59.763Z</time></trkpt><trkpt lat="45.6275517" lon="10.8671133"><ele>121.0</ele><time>2026-04-26T08:05:00.762Z</time></trkpt><trkpt lat="45.6276367" lon="10.8671917"><ele>121.0</ele><time>2026-04-26T08:05:01.762Z</time></trkpt><trkpt lat="45.6277283" lon="10.8672733"><ele>121.0</ele><time>2026-04-26T08:05:02.762Z</time></trkpt><trkpt lat="45.62782" lon="10.8673567"><ele>121.0</ele><time>2026-04-26T08:05:03.762Z</time></trkpt><trkpt lat="45.627915" lon="10.8674333"><ele>121.0</ele><time>2026-04-26T08:05:04.762Z</time></trkpt><trkpt lat="45.62801" lon="10.8675217"><ele>121.0</ele><time>2026-04-26T08:05:05.763Z</time></trkpt><trkpt lat="45.6281267" lon="10.8676083"><ele>121.5</ele><time>2026-04-26T08:05:06.762Z</time></trkpt><trkpt lat="45.6282417" lon="10.8677033"><ele>122.0</ele><time>2026-04-26T08:05:07.762Z</time></trkpt><trkpt lat="45.628365" lon="10.8678083"><ele>122.5</ele><time>2026-04-26T08:05:08.763Z</time></trkpt><trkpt lat="45.6285" lon="10.8679067"><ele>123.0</ele><time>2026-04-26T08:05:09.763Z</time></trkpt><trkpt lat="45.6286367" lon="10.8680117"><ele>123.5</ele><time>2026-04-26T08:05:10.762Z</time></trkpt><trkpt lat="45.6287667" lon="10.86812"><ele>124.0</ele><time>2026-04-26T08:05:11.763Z</time></trkpt><trkpt lat="45.62889" lon="10.8682167"><ele>124.5</ele><time>2026-04-26T08:05:12.762Z</time></trkpt><trkpt lat="45.6290167" lon="10.8683217"><ele>125.0</ele><time>2026-04-26T08:05:13.762Z</time></trkpt><trkpt lat="45.6291417" lon="10.8684283"><ele>124.66666666666666</ele><time>2026-04-26T08:05:14.762Z</time></trkpt><trkpt lat="45.6292783" lon="10.8685417"><ele>124.33333333333334</ele><time>2026-04-26T08:05:15.762Z</time></trkpt><trkpt lat="45.6294133" lon="10.868655"><ele>124.0</ele><time>2026-04-26T08:05:16.763Z</time></trkpt><trkpt lat="45.6295483" lon="10.8687733"><ele>124.0</ele><time>2026-04-26T08:05:17.762Z</time></trkpt><trkpt lat="45.62968" lon="10.86889"><ele>124.0</ele><time>2026-04-26T08:05:18.762Z</time></trkpt><trkpt lat="45.6298" lon="10.869"><ele>124.0</ele><time>2026-04-26T08:05:19.762Z</time></trkpt><trkpt lat="45.62993" lon="10.869115"><ele>124.0</ele><time>2026-04-26T08:05:20.763Z</time></trkpt><trkpt lat="45.63006" lon="10.8692233"><ele>124.0</ele><time>2026-04-26T08:05:21.762Z</time></trkpt><trkpt lat="45.6301967" lon="10.86934"><ele>124.0</ele><time>2026-04-26T08:05:22.762Z</time></trkpt><trkpt lat="45.630335" lon="10.86946"><ele>123.33333333333334</ele><time>2026-04-26T08:05:23.762Z</time></trkpt><trkpt lat="45.6304717" lon="10.869575"><ele>122.66666666666666</ele><time>2026-04-26T08:05:24.762Z</time></trkpt><trkpt lat="45.6306033" lon="10.869695"><ele>122.0</ele><time>2026-04-26T08:05:25.763Z</time></trkpt><trkpt lat="45.63074" lon="10.86981"><ele>122.0</ele><time>2026-04-26T08:05:26.763Z</time></trkpt><trkpt lat="45.63087" lon="10.8699233"><ele>122.0</ele><time>2026-04-26T08:05:27.762Z</time></trkpt><trkpt lat="45.631" lon="10.8700317"><ele>122.0</ele><time>2026-04-26T08:05:28.762Z</time></trkpt><trkpt lat="45.6311167" lon="10.870135"><ele>122.0</ele><time>2026-04-26T08:05:29.763Z</time></trkpt><trkpt lat="45.6312283" lon="10.8702367"><ele>122.0</ele><time>2026-04-26T08:05:30.762Z</time></trkpt><trkpt lat="45.6313433" lon="10.8703517"><ele>122.0</ele><time>2026-04-26T08:05:31.762Z</time></trkpt><trkpt lat="45.6314567" lon="10.8704833"><ele>122.0</ele><time>2026-04-26T08:05:32.762Z</time></trkpt><trkpt lat="45.6315767" lon="10.87061"><ele>122.0</ele><time>2026-04-26T08:05:33.762Z</time></trkpt><trkpt lat="45.6317" lon="10.8707417"><ele>122.0</ele><time>2026-04-26T08:05:34.763Z</time></trkpt><trkpt lat="45.6318267" lon="10.8708717"><ele>122.0</ele><time>2026-04-26T08:05:35.762Z</time></trkpt><trkpt lat="45.6319517" lon="10.8710033"><ele>122.0</ele><time>2026-04-26T08:05:36.763Z</time></trkpt><trkpt lat="45.63206" lon="10.8711133"><ele>122.0</ele><time>2026-04-26T08:05:37.762Z</time></trkpt><trkpt lat="45.63216" lon="10.8712117"><ele>122.6</ele><time>2026-04-26T08:05:38.763Z</time></trkpt><trkpt lat="45.63226" lon="10.8713167"><ele>123.19999999999999</ele><time>2026-04-26T08:05:39.762Z</time></trkpt><trkpt lat="45.6323433" lon="10.87139"><ele>123.8</ele><time>2026-04-26T08:05:40.762Z</time></trkpt><trkpt lat="45.63242" lon="10.87146"><ele>124.4</ele><time>2026-04-26T08:05:41.762Z</time></trkpt><trkpt lat="45.6324867" lon="10.8715183"><ele>125.0</ele><time>2026-04-26T08:05:42.763Z</time></trkpt><trkpt lat="45.63253" lon="10.8716083"><ele>125.0</ele><time>2026-04-26T08:05:43.762Z</time></trkpt><trkpt lat="45.6325567" lon="10.8717017"><ele>125.0</ele><time>2026-04-26T08:05:44.762Z</time></trkpt><trkpt lat="45.63257" lon="10.87182"><ele>125.0</ele><time>2026-04-26T08:05:45.763Z</time></trkpt><trkpt lat="45.6325767" lon="10.8719483"><ele>125.0</ele><time>2026-04-26T08:05:46.762Z</time></trkpt><trkpt lat="45.6325667" lon="10.872115"><ele>125.0</ele><time>2026-04-26T08:05:47.762Z</time></trkpt><trkpt lat="45.6325517" lon="10.8722683"><ele>125.0</ele><time>2026-04-26T08:05:48.762Z</time></trkpt><trkpt lat="45.6325617" lon="10.8724"><ele>125.0</ele><time>2026-04-26T08:05:49.762Z</time></trkpt><trkpt lat="45.632595" lon="10.872515"><ele>125.0</ele><time>2026-04-26T08:05:50.763Z</time></trkpt><trkpt lat="45.6326467" lon="10.8725967"><ele>125.0</ele><time>2026-04-26T08:05:51.762Z</time></trkpt><trkpt lat="45.6328017" lon="10.8726333"><ele>125.0</ele><time>2026-04-26T08:05:53.762Z</time></trkpt><trkpt lat="45.6328983" lon="10.8726833"><ele>125.0</ele><time>2026-04-26T08:05:54.762Z</time></trkpt><trkpt lat="45.633" lon="10.8727433"><ele>125.0</ele><time>2026-04-26T08:05:55.763Z</time></trkpt><trkpt lat="45.6330933" lon="10.8728033"><ele>125.0</ele><time>2026-04-26T08:05:56.762Z</time></trkpt><trkpt lat="45.6331883" lon="10.8728667"><ele>125.0</ele><time>2026-04-26T08:05:57.762Z</time></trkpt><trkpt lat="45.633285" lon="10.8729233"><ele>125.0</ele><time>2026-04-26T08:05:58.762Z</time></trkpt><trkpt lat="45.63337" lon="10.8729783"><ele>124.99999999999999</ele><time>2026-04-26T08:05:59.762Z</time></trkpt><trkpt lat="45.6334517" lon="10.8730317"><ele>125.0</ele><time>2026-04-26T08:06:00.762Z</time></trkpt><trkpt lat="45.6335283" lon="10.8730883"><ele>125.0</ele><time>2026-04-26T08:06:01.762Z</time></trkpt><trkpt lat="45.633605" lon="10.873125"><ele>125.0</ele><time>2026-04-26T08:06:02.762Z</time></trkpt><trkpt lat="45.6336767" lon="10.8731717"><ele>124.99999999999999</ele><time>2026-04-26T08:06:03.762Z</time></trkpt><trkpt lat="45.6337533" lon="10.8732317"><ele>125.0</ele><time>2026-04-26T08:06:04.762Z</time></trkpt><trkpt lat="45.633835" lon="10.8732967"><ele>124.4</ele><time>2026-04-26T08:06:05.762Z</time></trkpt><trkpt lat="45.63392" lon="10.873365"><ele>123.8</ele><time>2026-04-26T08:06:06.763Z</time></trkpt><trkpt lat="45.6340083" lon="10.8734417"><ele>123.19999999999999</ele><time>2026-04-26T08:06:07.762Z</time></trkpt><trkpt lat="45.634095" lon="10.8735083"><ele>122.6</ele><time>2026-04-26T08:06:08.761Z</time></trkpt><trkpt lat="45.63419" lon="10.8735817"><ele>122.0</ele><time>2026-04-26T08:06:09.761Z</time></trkpt><trkpt lat="45.6342833" lon="10.87365"><ele>122.0</ele><time>2026-04-26T08:06:10.761Z</time></trkpt><trkpt lat="45.6343783" lon="10.873715"><ele>121.99999999999999</ele><time>2026-04-26T08:06:11.761Z</time></trkpt><trkpt lat="45.6344717" lon="10.87378"><ele>121.99999999999999</ele><time>2026-04-26T08:06:12.761Z</time></trkpt><trkpt lat="45.6345533" lon="10.8738433"><ele>122.0</ele><time>2026-04-26T08:06:13.762Z</time></trkpt><trkpt lat="45.6346217" lon="10.8738983"><ele>122.0</ele><time>2026-04-26T08:06:14.761Z</time></trkpt><trkpt lat="45.6347033" lon="10.8739167"><ele>121.99999999999999</ele><time>2026-04-26T08:06:16.762Z</time></trkpt><trkpt lat="45.6347583" lon="10.87387"><ele>122.0</ele><time>2026-04-26T08:06:19.762Z</time></trkpt><trkpt lat="45.634805" lon="10.8737"><ele>122.0</ele><time>2026-04-26T08:06:21.762Z</time></trkpt><trkpt lat="45.634835" lon="10.8736067"><ele>122.0</ele><time>2026-04-26T08:06:22.762Z</time></trkpt><trkpt lat="45.63487" lon="10.87353"><ele>121.99999999999999</ele><time>2026-04-26T08:06:23.762Z</time></trkpt><trkpt lat="45.6349483" lon="10.8734317"><ele>122.0</ele><time>2026-04-26T08:06:25.762Z</time></trkpt><trkpt lat="45.6350117" lon="10.873425"><ele>122.0</ele><time>2026-04-26T08:06:27.761Z</time></trkpt><trkpt lat="45.6351067" lon="10.87349"><ele>121.99999999999999</ele><time>2026-04-26T08:06:29.762Z</time></trkpt><trkpt lat="45.6351717" lon="10.8735417"><ele>121.99999999999999</ele><time>2026-04-26T08:06:30.761Z</time></trkpt><trkpt lat="45.6352567" lon="10.8736033"><ele>122.0</ele><time>2026-04-26T08:06:31.761Z</time></trkpt><trkpt lat="45.635355" lon="10.8737"><ele>122.0</ele><time>2026-04-26T08:06:32.762Z</time></trkpt><trkpt lat="45.6354617" lon="10.873795"><ele>122.0</ele><time>2026-04-26T08:06:33.762Z</time></trkpt><trkpt lat="45.63557" lon="10.8738917"><ele>122.0</ele><time>2026-04-26T08:06:34.761Z</time></trkpt><trkpt lat="45.6356717" lon="10.8739867"><ele>122.0</ele><time>2026-04-26T08:06:35.762Z</time></trkpt><trkpt lat="45.6357717" lon="10.8740767"><ele>122.0</ele><time>2026-04-26T08:06:36.761Z</time></trkpt><trkpt lat="45.6358683" lon="10.8741717"><ele>122.0</ele><time>2026-04-26T08:06:37.761Z</time></trkpt><trkpt lat="45.635965" lon="10.874265"><ele>122.0</ele><time>2026-04-26T08:06:38.762Z</time></trkpt><trkpt lat="45.6360833" lon="10.8743833"><ele>122.0</ele><time>2026-04-26T08:06:39.762Z</time></trkpt><trkpt lat="45.63619" lon="10.8745117"><ele>122.0</ele><time>2026-04-26T08:06:40.761Z</time></trkpt><trkpt lat="45.6362833" lon="10.8746183"><ele>121.75</ele><time>2026-04-26T08:06:41.762Z</time></trkpt><trkpt lat="45.6363833" lon="10.8747183"><ele>121.5</ele><time>2026-04-26T08:06:42.761Z</time></trkpt><trkpt lat="45.6364833" lon="10.874825"><ele>121.25</ele><time>2026-04-26T08:06:43.761Z</time></trkpt><trkpt lat="45.6365817" lon="10.8749517"><ele>121.0</ele><time>2026-04-26T08:06:44.761Z</time></trkpt><trkpt lat="45.6366783" lon="10.8750717"><ele>121.0</ele><time>2026-04-26T08:06:45.761Z</time></trkpt><trkpt lat="45.63678" lon="10.875175"><ele>121.0</ele><time>2026-04-26T08:06:46.762Z</time></trkpt><trkpt lat="45.63687" lon="10.8752833"><ele>121.0</ele><time>2026-04-26T08:06:47.761Z</time></trkpt><trkpt lat="45.6369617" lon="10.8753817"><ele>121.0</ele><time>2026-04-26T08:06:48.761Z</time></trkpt><trkpt lat="45.6370617" lon="10.8754883"><ele>121.0</ele><time>2026-04-26T08:06:49.762Z</time></trkpt><trkpt lat="45.63715" lon="10.8755633"><ele>121.0</ele><time>2026-04-26T08:06:50.761Z</time></trkpt><trkpt lat="45.637255" lon="10.8756483"><ele>121.0</ele><time>2026-04-26T08:06:51.761Z</time></trkpt><trkpt lat="45.6373533" lon="10.875725"><ele>121.0</ele><time>2026-04-26T08:06:52.762Z</time></trkpt><trkpt lat="45.6374483" lon="10.8758"><ele>121.0</ele><time>2026-04-26T08:06:53.762Z</time></trkpt><trkpt lat="45.6375417" lon="10.8758883"><ele>120.8</ele><time>2026-04-26T08:06:54.761Z</time></trkpt><trkpt lat="45.6376017" lon="10.8759483"><ele>120.6</ele><time>2026-04-26T08:06:55.762Z</time></trkpt><trkpt lat="45.6376483" lon="10.8760583"><ele>120.4</ele><time>2026-04-26T08:06:57.761Z</time></trkpt><trkpt lat="45.6376183" lon="10.8762133"><ele>120.2</ele><time>2026-04-26T08:06:59.761Z</time></trkpt><trkpt lat="45.6376167" lon="10.876305"><ele>120.0</ele><time>2026-04-26T08:07:00.762Z</time></trkpt><trkpt lat="45.6376767" lon="10.876465"><ele>120.0</ele><time>2026-04-26T08:07:02.761Z</time></trkpt><trkpt lat="45.637715" lon="10.8765683"><ele>120.0</ele><time>2026-04-26T08:07:03.761Z</time></trkpt><trkpt lat="45.6377783" lon="10.876635"><ele>120.0</ele><time>2026-04-26T08:07:04.761Z</time></trkpt><trkpt lat="45.6378733" lon="10.876685"><ele>120.0</ele><time>2026-04-26T08:07:05.761Z</time></trkpt><trkpt lat="45.637975" lon="10.87673"><ele>120.0</ele><time>2026-04-26T08:07:06.762Z</time></trkpt><trkpt lat="45.6380517" lon="10.8767583"><ele>120.0</ele><time>2026-04-26T08:07:07.761Z</time></trkpt><trkpt lat="45.6381333" lon="10.8768183"><ele>119.66666666666667</ele><time>2026-04-26T08:07:09.761Z</time></trkpt><trkpt lat="45.6381517" lon="10.8769183"><ele>119.33333333333334</ele><time>2026-04-26T08:07:11.761Z</time></trkpt><trkpt lat="45.6382033" lon="10.877"><ele>119.0</ele><time>2026-04-26T08:07:14.761Z</time></trkpt><trkpt lat="45.6382983" lon="10.87705"><ele>118.66666666666667</ele><time>2026-04-26T08:07:16.761Z</time></trkpt><trkpt lat="45.6383717" lon="10.87708"><ele>118.33333333333334</ele><time>2026-04-26T08:07:17.762Z</time></trkpt><trkpt lat="45.638445" lon="10.8771067"><ele>118.0</ele><time>2026-04-26T08:07:18.761Z</time></trkpt><trkpt lat="45.6385183" lon="10.8771367"><ele>118.0</ele><time>2026-04-26T08:07:19.762Z</time></trkpt><trkpt lat="45.6386317" lon="10.8771667"><ele>118.00000000000001</ele><time>2026-04-26T08:07:21.762Z</time></trkpt><trkpt lat="45.638695" lon="10.8772117"><ele>118.00000000000001</ele><time>2026-04-26T08:07:22.762Z</time></trkpt><trkpt lat="45.638765" lon="10.8772883"><ele>118.0</ele><time>2026-04-26T08:07:23.761Z</time></trkpt><trkpt lat="45.6388517" lon="10.8773733"><ele>118.0</ele><time>2026-04-26T08:07:24.761Z</time></trkpt><trkpt lat="45.63895" lon="10.8775133"><ele>118.0</ele><time>2026-04-26T08:07:25.762Z</time></trkpt><trkpt lat="45.6390483" lon="10.877635"><ele>118.0</ele><time>2026-04-26T08:07:26.762Z</time></trkpt><trkpt lat="45.6391483" lon="10.8777483"><ele>118.0</ele><time>2026-04-26T08:07:27.762Z</time></trkpt><trkpt lat="45.6392467" lon="10.87786"><ele>118.0</ele><time>2026-04-26T08:07:28.761Z</time></trkpt><trkpt lat="45.6393467" lon="10.8779783"><ele>118.0</ele><time>2026-04-26T08:07:29.761Z</time></trkpt><trkpt lat="45.6394433" lon="10.8781"><ele>118.0</ele><time>2026-04-26T08:07:30.761Z</time></trkpt><trkpt lat="45.6395433" lon="10.8782267"><ele>118.0</ele><time>2026-04-26T08:07:31.761Z</time></trkpt><trkpt lat="45.6396433" lon="10.8783383"><ele>118.0</ele><time>2026-04-26T08:07:32.762Z</time></trkpt><trkpt lat="45.6397433" lon="10.8784267"><ele>117.25</ele><time>2026-04-26T08:07:33.762Z</time></trkpt><trkpt lat="45.63984" lon="10.8785183"><ele>116.5</ele><time>2026-04-26T08:07:34.761Z</time></trkpt><trkpt lat="45.6399383" lon="10.8786233"><ele>115.75</ele><time>2026-04-26T08:07:35.761Z</time></trkpt><trkpt lat="45.64004" lon="10.8787133"><ele>115.0</ele><time>2026-04-26T08:07:36.761Z</time></trkpt><trkpt lat="45.64013" lon="10.8788033"><ele>115.0</ele><time>2026-04-26T08:07:37.761Z</time></trkpt><trkpt lat="45.64023" lon="10.8789017"><ele>115.0</ele><time>2026-04-26T08:07:38.761Z</time></trkpt><trkpt lat="45.6403267" lon="10.8789783"><ele>115.0</ele><time>2026-04-26T08:07:39.761Z</time></trkpt><trkpt lat="45.6404317" lon="10.8790533"><ele>115.0</ele><time>2026-04-26T08:07:40.762Z</time></trkpt><trkpt lat="45.6405283" lon="10.8791417"><ele>114.75</ele><time>2026-04-26T08:07:41.761Z</time></trkpt><trkpt lat="45.6406233" lon="10.8792167"><ele>114.5</ele><time>2026-04-26T08:07:42.761Z</time></trkpt><trkpt lat="45.640735" lon="10.8792933"><ele>114.25</ele><time>2026-04-26T08:07:43.761Z</time></trkpt><trkpt lat="45.640855" lon="10.8793733"><ele>114.0</ele><time>2026-04-26T08:07:44.762Z</time></trkpt><trkpt lat="45.640975" lon="10.87945"><ele>114.0</ele><time>2026-04-26T08:07:45.761Z</time></trkpt><trkpt lat="45.6410917" lon="10.8795333"><ele>114.0</ele><time>2026-04-26T08:07:46.761Z</time></trkpt><trkpt lat="45.6412117" lon="10.8796067"><ele>114.0</ele><time>2026-04-26T08:07:47.761Z</time></trkpt><trkpt lat="45.6413267" lon="10.8796883"><ele>114.0</ele><time>2026-04-26T08:07:48.761Z</time></trkpt><trkpt lat="45.6414417" lon="10.8797567"><ele>114.5</ele><time>2026-04-26T08:07:49.761Z</time></trkpt><trkpt lat="45.6415533" lon="10.8798283"><ele>115.0</ele><time>2026-04-26T08:07:50.761Z</time></trkpt><trkpt lat="45.6416633" lon="10.8799167"><ele>115.5</ele><time>2026-04-26T08:07:51.761Z</time></trkpt><trkpt lat="45.64177" lon="10.8800033"><ele>116.0</ele><time>2026-04-26T08:07:52.761Z</time></trkpt><trkpt lat="45.6418733" lon="10.8800983"><ele>114.5</ele><time>2026-04-26T08:07:53.762Z</time></trkpt><trkpt lat="45.64197" lon="10.8801917"><ele>113.0</ele><time>2026-04-26T08:07:54.761Z</time></trkpt><trkpt lat="45.64206" lon="10.8802967"><ele>111.5</ele><time>2026-04-26T08:07:55.761Z</time></trkpt><trkpt lat="45.6421583" lon="10.8804083"><ele>110.0</ele><time>2026-04-26T08:07:56.761Z</time></trkpt><trkpt lat="45.642245" lon="10.880505"><ele>110.0</ele><time>2026-04-26T08:07:57.762Z</time></trkpt><trkpt lat="45.642315" lon="10.880585"><ele>110.0</ele><time>2026-04-26T08:07:58.762Z</time></trkpt><trkpt lat="45.642375" lon="10.8806383"><ele>110.0</ele><time>2026-04-26T08:07:59.761Z</time></trkpt><trkpt lat="45.6424417" lon="10.8806967"><ele>110.0</ele><time>2026-04-26T08:08:00.761Z</time></trkpt><trkpt lat="45.6425417" lon="10.8807633"><ele>110.0</ele><time>2026-04-26T08:08:02.761Z</time></trkpt><trkpt lat="45.6426733" lon="10.880745"><ele>110.0</ele><time>2026-04-26T08:08:04.761Z</time></trkpt><trkpt lat="45.6427783" lon="10.8806267"><ele>110.0</ele><time>2026-04-26T08:08:05.762Z</time></trkpt><trkpt lat="45.6428733" lon="10.8805517"><ele>110.0</ele><time>2026-04-26T08:08:06.762Z</time></trkpt><trkpt lat="45.642965" lon="10.880495"><ele>110.0</ele><time>2026-04-26T08:08:07.761Z</time></trkpt><trkpt lat="45.643055" lon="10.880415"><ele>110.0</ele><time>2026-04-26T08:08:08.761Z</time></trkpt><trkpt lat="45.6431367" lon="10.8803433"><ele>109.83333333333333</ele><time>2026-04-26T08:08:09.762Z</time></trkpt><trkpt lat="45.64321" lon="10.8802767"><ele>109.66666666666666</ele><time>2026-04-26T08:08:10.761Z</time></trkpt><trkpt lat="45.6432667" lon="10.8801983"><ele>109.5</ele><time>2026-04-26T08:08:11.762Z</time></trkpt><trkpt lat="45.6433217" lon="10.8801017"><ele>109.33333333333334</ele><time>2026-04-26T08:08:12.761Z</time></trkpt><trkpt lat="45.64337" lon="10.8800017"><ele>109.16666666666667</ele><time>2026-04-26T08:08:13.761Z</time></trkpt><trkpt lat="45.6434017" lon="10.8798917"><ele>109.0</ele><time>2026-04-26T08:08:14.761Z</time></trkpt><trkpt lat="45.6434383" lon="10.879775"><ele>109.0</ele><time>2026-04-26T08:08:15.762Z</time></trkpt><trkpt lat="45.6434733" lon="10.8796667"><ele>109.0</ele><time>2026-04-26T08:08:16.761Z</time></trkpt><trkpt lat="45.643495" lon="10.8795633"><ele>109.0</ele><time>2026-04-26T08:08:17.761Z</time></trkpt><trkpt lat="45.6434883" lon="10.8794417"><ele>109.0</ele><time>2026-04-26T08:08:18.761Z</time></trkpt><trkpt lat="45.6434767" lon="10.87932"><ele>109.0</ele><time>2026-04-26T08:08:19.761Z</time></trkpt><trkpt lat="45.64341" lon="10.8791517"><ele>110.0</ele><time>2026-04-26T08:08:20.762Z</time></trkpt><trkpt lat="45.643355" lon="10.8790033"><ele>111.0</ele><time>2026-04-26T08:08:21.762Z</time></trkpt><trkpt lat="45.6432983" lon="10.8788733"><ele>112.0</ele><time>2026-04-26T08:08:22.762Z</time></trkpt><trkpt lat="45.6432533" lon="10.8787467"><ele>113.0</ele><time>2026-04-26T08:08:23.762Z</time></trkpt><trkpt lat="45.643205" lon="10.87864"><ele>114.0</ele><time>2026-04-26T08:08:24.761Z</time></trkpt><trkpt lat="45.64316" lon="10.8785717"><ele>114.0</ele><time>2026-04-26T08:08:25.761Z</time></trkpt><trkpt lat="45.64312" lon="10.8784983"><ele>114.0</ele><time>2026-04-26T08:08:27.761Z</time></trkpt><trkpt lat="45.64312" lon="10.8784017"><ele>114.0</ele><time>2026-04-26T08:08:31.761Z</time></trkpt><trkpt lat="45.6431883" lon="10.8783967"><ele>114.0</ele><time>2026-04-26T08:08:33.761Z</time></trkpt><trkpt lat="45.6432617" lon="10.878435"><ele>114.0</ele><time>2026-04-26T08:08:34.762Z</time></trkpt><trkpt lat="45.6433667" lon="10.8784883"><ele>114.0</ele><time>2026-04-26T08:08:35.761Z</time></trkpt><trkpt lat="45.6434883" lon="10.878545"><ele>114.0</ele><time>2026-04-26T08:08:36.761Z</time></trkpt><trkpt lat="45.6436117" lon="10.8785833"><ele>114.0</ele><time>2026-04-26T08:08:37.761Z</time></trkpt><trkpt lat="45.6437167" lon="10.878625"><ele>114.0</ele><time>2026-04-26T08:08:38.761Z</time></trkpt><trkpt lat="45.6438233" lon="10.8786667"><ele>114.0</ele><time>2026-04-26T08:08:39.761Z</time></trkpt><trkpt lat="45.6439217" lon="10.8787083"><ele>114.0</ele><time>2026-04-26T08:08:40.762Z</time></trkpt><trkpt lat="45.644025" lon="10.8787483"><ele>114.4</ele><time>2026-04-26T08:08:41.762Z</time></trkpt><trkpt lat="45.6441333" lon="10.8787833"><ele>114.80000000000001</ele><time>2026-04-26T08:08:42.761Z</time></trkpt><trkpt lat="45.644235" lon="10.878815"><ele>115.19999999999999</ele><time>2026-04-26T08:08:43.761Z</time></trkpt><trkpt lat="45.6443217" lon="10.8788667"><ele>115.6</ele><time>2026-04-26T08:08:44.761Z</time></trkpt><trkpt lat="45.6444183" lon="10.8789067"><ele>116.0</ele><time>2026-04-26T08:08:45.761Z</time></trkpt><trkpt lat="45.6445133" lon="10.8789333"><ele>117.19999999999999</ele><time>2026-04-26T08:08:46.761Z</time></trkpt><trkpt lat="45.6446033" lon="10.8789667"><ele>118.39999999999999</ele><time>2026-04-26T08:08:47.762Z</time></trkpt><trkpt lat="45.6447017" lon="10.8789917"><ele>119.6</ele><time>2026-04-26T08:08:48.761Z</time></trkpt><trkpt lat="45.6447967" lon="10.8790217"><ele>120.8</ele><time>2026-04-26T08:08:49.761Z</time></trkpt><trkpt lat="45.644895" lon="10.8790667"><ele>122.0</ele><time>2026-04-26T08:08:50.761Z</time></trkpt><trkpt lat="45.64499" lon="10.8791133"><ele>122.0</ele><time>2026-04-26T08:08:51.761Z</time></trkpt><trkpt lat="45.6450783" lon="10.8791533"><ele>121.99999999999999</ele><time>2026-04-26T08:08:52.762Z</time></trkpt><trkpt lat="45.6451767" lon="10.879185"><ele>121.99999999999999</ele><time>2026-04-26T08:08:53.761Z</time></trkpt><trkpt lat="45.64528" lon="10.87922"><ele>122.0</ele><time>2026-04-26T08:08:54.761Z</time></trkpt><trkpt lat="45.6453883" lon="10.879255"><ele>122.0</ele><time>2026-04-26T08:08:55.762Z</time></trkpt><trkpt lat="45.6454917" lon="10.8792867"><ele>120.0</ele><time>2026-04-26T08:08:56.761Z</time></trkpt><trkpt lat="45.6455967" lon="10.8793183"><ele>117.99999999999999</ele><time>2026-04-26T08:08:57.762Z</time></trkpt><trkpt lat="45.6457017" lon="10.87934"><ele>115.99999999999999</ele><time>2026-04-26T08:08:58.761Z</time></trkpt><trkpt lat="45.6458017" lon="10.87937"><ele>114.0</ele><time>2026-04-26T08:08:59.761Z</time></trkpt><trkpt lat="45.645905" lon="10.8794"><ele>112.0</ele><time>2026-04-26T08:09:00.761Z</time></trkpt><trkpt lat="45.6460033" lon="10.8794317"><ele>112.0</ele><time>2026-04-26T08:09:01.762Z</time></trkpt><trkpt lat="45.6460983" lon="10.879465"><ele>111.99999999999999</ele><time>2026-04-26T08:09:02.761Z</time></trkpt><trkpt lat="45.64619" lon="10.8795"><ele>111.99999999999999</ele><time>2026-04-26T08:09:03.762Z</time></trkpt><trkpt lat="45.6462883" lon="10.8795567"><ele>112.0</ele><time>2026-04-26T08:09:04.762Z</time></trkpt><trkpt lat="45.6463883" lon="10.8796217"><ele>112.0</ele><time>2026-04-26T08:09:05.761Z</time></trkpt><trkpt lat="45.646495" lon="10.8797183"><ele>114.0</ele><time>2026-04-26T08:09:06.761Z</time></trkpt><trkpt lat="45.6466033" lon="10.87987"><ele>116.0</ele><time>2026-04-26T08:09:07.762Z</time></trkpt><trkpt lat="45.6467233" lon="10.88005"><ele>118.0</ele><time>2026-04-26T08:09:08.762Z</time></trkpt><trkpt lat="45.6468367" lon="10.88025"><ele>118.0</ele><time>2026-04-26T08:09:09.761Z</time></trkpt><trkpt lat="45.6469533" lon="10.8804833"><ele>118.0</ele><time>2026-04-26T08:09:10.762Z</time></trkpt><trkpt lat="45.6470633" lon="10.8807167"><ele>118.0</ele><time>2026-04-26T08:09:11.762Z</time></trkpt><trkpt lat="45.647175" lon="10.8809517"><ele>122.66666666666667</ele><time>2026-04-26T08:09:12.761Z</time></trkpt><trkpt lat="45.6472817" lon="10.88118"><ele>127.33333333333334</ele><time>2026-04-26T08:09:13.762Z</time></trkpt><trkpt lat="45.647375" lon="10.8814133"><ele>132.0</ele><time>2026-04-26T08:09:14.762Z</time></trkpt><trkpt lat="45.6474767" lon="10.8816417"><ele>132.33333333333334</ele><time>2026-04-26T08:09:15.761Z</time></trkpt><trkpt lat="45.6475967" lon="10.881865"><ele>132.66666666666669</ele><time>2026-04-26T08:09:16.762Z</time></trkpt><trkpt lat="45.6477317" lon="10.8820683"><ele>133.0</ele><time>2026-04-26T08:09:17.761Z</time></trkpt><trkpt lat="45.6478517" lon="10.8822833"><ele>133.0</ele><time>2026-04-26T08:09:18.762Z</time></trkpt><trkpt lat="45.64797" lon="10.882505"><ele>133.0</ele><time>2026-04-26T08:09:19.761Z</time></trkpt><trkpt lat="45.6480767" lon="10.882695"><ele>133.0</ele><time>2026-04-26T08:09:20.76Z</time></trkpt><trkpt lat="45.6481983" lon="10.8828717"><ele>129.66666666666669</ele><time>2026-04-26T08:09:21.76Z</time></trkpt><trkpt lat="45.6483167" lon="10.8830567"><ele>126.33333333333334</ele><time>2026-04-26T08:09:22.76Z</time></trkpt><trkpt lat="45.64844" lon="10.883225"><ele>123.0</ele><time>2026-04-26T08:09:23.76Z</time></trkpt><trkpt lat="45.6485717" lon="10.8833833"><ele>123.0</ele><time>2026-04-26T08:09:24.761Z</time></trkpt><trkpt lat="45.6487167" lon="10.8835333"><ele>123.0</ele><time>2026-04-26T08:09:25.76Z</time></trkpt><trkpt lat="45.6488717" lon="10.88367"><ele>123.0</ele><time>2026-04-26T08:09:26.76Z</time></trkpt><trkpt lat="45.6490283" lon="10.8838067"><ele>123.0</ele><time>2026-04-26T08:09:27.76Z</time></trkpt><trkpt lat="45.649175" lon="10.8839367"><ele>123.0</ele><time>2026-04-26T08:09:28.76Z</time></trkpt><trkpt lat="45.649325" lon="10.8840767"><ele>123.0</ele><time>2026-04-26T08:09:29.76Z</time></trkpt><trkpt lat="45.6494783" lon="10.8842133"><ele>125.0</ele><time>2026-04-26T08:09:30.76Z</time></trkpt><trkpt lat="45.6496383" lon="10.8843567"><ele>127.0</ele><time>2026-04-26T08:09:31.761Z</time></trkpt><trkpt lat="45.6497917" lon="10.884505"><ele>129.0</ele><time>2026-04-26T08:09:32.76Z</time></trkpt><trkpt lat="45.64994" lon="10.8846417"><ele>129.0</ele><time>2026-04-26T08:09:33.761Z</time></trkpt><trkpt lat="45.6500983" lon="10.884795"><ele>129.0</ele><time>2026-04-26T08:09:34.76Z</time></trkpt><trkpt lat="45.6502533" lon="10.8849317"><ele>129.0</ele><time>2026-04-26T08:09:35.76Z</time></trkpt><trkpt lat="45.6504067" lon="10.885085"><ele>129.0</ele><time>2026-04-26T08:09:36.76Z</time></trkpt><trkpt lat="45.650555" lon="10.8852617"><ele>129.0</ele><time>2026-04-26T08:09:37.76Z</time></trkpt><trkpt lat="45.6506833" lon="10.8854483"><ele>129.0</ele><time>2026-04-26T08:09:38.76Z</time></trkpt><trkpt lat="45.6508067" lon="10.8856417"><ele>129.0</ele><time>2026-04-26T08:09:39.76Z</time></trkpt><trkpt lat="45.6509333" lon="10.8858367"><ele>129.0</ele><time>2026-04-26T08:09:40.76Z</time></trkpt><trkpt lat="45.6510617" lon="10.88603"><ele>129.0</ele><time>2026-04-26T08:09:41.76Z</time></trkpt><trkpt lat="45.6511967" lon="10.886235"><ele>128.66666666666666</ele><time>2026-04-26T08:09:42.761Z</time></trkpt><trkpt lat="45.65133" lon="10.8864317"><ele>128.33333333333331</ele><time>2026-04-26T08:09:43.76Z</time></trkpt><trkpt lat="45.6514583" lon="10.886615"><ele>128.0</ele><time>2026-04-26T08:09:44.76Z</time></trkpt><trkpt lat="45.651585" lon="10.8867983"><ele>128.0</ele><time>2026-04-26T08:09:45.761Z</time></trkpt><trkpt lat="45.6517117" lon="10.886975"><ele>128.0</ele><time>2026-04-26T08:09:46.76Z</time></trkpt><trkpt lat="45.65184" lon="10.8871567"><ele>128.0</ele><time>2026-04-26T08:09:47.76Z</time></trkpt><trkpt lat="45.65198" lon="10.8873333"><ele>129.33333333333331</ele><time>2026-04-26T08:09:48.761Z</time></trkpt><trkpt lat="45.65212" lon="10.8875033"><ele>130.66666666666666</ele><time>2026-04-26T08:09:49.76Z</time></trkpt><trkpt lat="45.65225" lon="10.8876683"><ele>132.0</ele><time>2026-04-26T08:09:50.761Z</time></trkpt><trkpt lat="45.652375" lon="10.88781"><ele>132.0</ele><time>2026-04-26T08:09:51.76Z</time></trkpt><trkpt lat="45.652495" lon="10.8879383"><ele>132.0</ele><time>2026-04-26T08:09:52.761Z</time></trkpt><trkpt lat="45.6526167" lon="10.8880317"><ele>132.0</ele><time>2026-04-26T08:09:53.761Z</time></trkpt><trkpt lat="45.6527067" lon="10.8881567"><ele>132.0</ele><time>2026-04-26T08:09:54.76Z</time></trkpt><trkpt lat="45.652795" lon="10.8882567"><ele>131.75</ele><time>2026-04-26T08:09:55.76Z</time></trkpt><trkpt lat="45.6528267" lon="10.88838"><ele>131.5</ele><time>2026-04-26T08:09:56.761Z</time></trkpt><trkpt lat="45.6528867" lon="10.8885633"><ele>131.25</ele><time>2026-04-26T08:09:57.76Z</time></trkpt><trkpt lat="45.65294" lon="10.8887733"><ele>131.0</ele><time>2026-04-26T08:09:58.761Z</time></trkpt><trkpt lat="45.6529967" lon="10.8889933"><ele>131.0</ele><time>2026-04-26T08:09:59.761Z</time></trkpt><trkpt lat="45.6530517" lon="10.8892233"><ele>131.0</ele><time>2026-04-26T08:10:00.761Z</time></trkpt><trkpt lat="45.6531" lon="10.889425"><ele>131.0</ele><time>2026-04-26T08:10:01.76Z</time></trkpt><trkpt lat="45.6531417" lon="10.889625"><ele>130.5</ele><time>2026-04-26T08:10:02.76Z</time></trkpt><trkpt lat="45.6531883" lon="10.8897933"><ele>130.0</ele><time>2026-04-26T08:10:03.76Z</time></trkpt><trkpt lat="45.653215" lon="10.889955"><ele>129.5</ele><time>2026-04-26T08:10:04.76Z</time></trkpt><trkpt lat="45.6532683" lon="10.8901217"><ele>129.0</ele><time>2026-04-26T08:10:05.76Z</time></trkpt><trkpt lat="45.6533217" lon="10.8903"><ele>128.5</ele><time>2026-04-26T08:10:06.761Z</time></trkpt><trkpt lat="45.6533733" lon="10.8904783"><ele>128.0</ele><time>2026-04-26T08:10:07.76Z</time></trkpt><trkpt lat="45.6534367" lon="10.8906533"><ele>127.5</ele><time>2026-04-26T08:10:08.761Z</time></trkpt><trkpt lat="45.6535033" lon="10.8908333"><ele>127.0</ele><time>2026-04-26T08:10:09.76Z</time></trkpt><trkpt lat="45.653585" lon="10.8910033"><ele>127.0</ele><time>2026-04-26T08:10:10.76Z</time></trkpt><trkpt lat="45.6536767" lon="10.8911933"><ele>127.0</ele><time>2026-04-26T08:10:11.76Z</time></trkpt><trkpt lat="45.6537633" lon="10.89131"><ele>127.0</ele><time>2026-04-26T08:10:12.761Z</time></trkpt><trkpt lat="45.653855" lon="10.8914183"><ele>127.0</ele><time>2026-04-26T08:10:13.761Z</time></trkpt><trkpt lat="45.6539333" lon="10.891535"><ele>127.0</ele><time>2026-04-26T08:10:14.76Z</time></trkpt><trkpt lat="45.6540033" lon="10.8916517"><ele>127.0</ele><time>2026-04-26T08:10:15.76Z</time></trkpt><trkpt lat="45.6540767" lon="10.8917767"><ele>127.0</ele><time>2026-04-26T08:10:16.76Z</time></trkpt><trkpt lat="45.6541517" lon="10.8919117"><ele>127.0</ele><time>2026-04-26T08:10:17.76Z</time></trkpt><trkpt lat="45.6542233" lon="10.8920633"><ele>126.75</ele><time>2026-04-26T08:10:18.761Z</time></trkpt><trkpt lat="45.6542767" lon="10.8922417"><ele>126.5</ele><time>2026-04-26T08:10:19.76Z</time></trkpt><trkpt lat="45.6543083" lon="10.8924183"><ele>126.25</ele><time>2026-04-26T08:10:20.76Z</time></trkpt><trkpt lat="45.654345" lon="10.8926133"><ele>126.0</ele><time>2026-04-26T08:10:21.76Z</time></trkpt><trkpt lat="45.6544067" lon="10.8928133"><ele>125.25</ele><time>2026-04-26T08:10:22.761Z</time></trkpt><trkpt lat="45.654465" lon="10.893"><ele>124.5</ele><time>2026-04-26T08:10:23.76Z</time></trkpt><trkpt lat="45.654545" lon="10.8931817"><ele>123.75</ele><time>2026-04-26T08:10:24.76Z</time></trkpt><trkpt lat="45.654625" lon="10.893355"><ele>123.0</ele><time>2026-04-26T08:10:25.76Z</time></trkpt><trkpt lat="45.6547083" lon="10.8935233"><ele>122.0</ele><time>2026-04-26T08:10:26.76Z</time></trkpt><trkpt lat="45.6548017" lon="10.8936517"><ele>121.0</ele><time>2026-04-26T08:10:27.761Z</time></trkpt><trkpt lat="45.654915" lon="10.8937483"><ele>120.0</ele><time>2026-04-26T08:10:28.761Z</time></trkpt><trkpt lat="45.6550217" lon="10.8937933"><ele>119.0</ele><time>2026-04-26T08:10:29.76Z</time></trkpt><trkpt lat="45.6551283" lon="10.8938333"><ele>119.0</ele><time>2026-04-26T08:10:30.76Z</time></trkpt><trkpt lat="45.6552433" lon="10.8938583"><ele>119.0</ele><time>2026-04-26T08:10:31.761Z</time></trkpt><trkpt lat="45.6553517" lon="10.8938783"><ele>119.0</ele><time>2026-04-26T08:10:32.76Z</time></trkpt><trkpt lat="45.6554683" lon="10.89389"><ele>119.0</ele><time>2026-04-26T08:10:33.76Z</time></trkpt><trkpt lat="45.655585" lon="10.893895"><ele>119.4</ele><time>2026-04-26T08:10:34.761Z</time></trkpt><trkpt lat="45.6556983" lon="10.8939"><ele>119.80000000000001</ele><time>2026-04-26T08:10:35.76Z</time></trkpt><trkpt lat="45.655805" lon="10.8939133"><ele>120.19999999999999</ele><time>2026-04-26T08:10:36.761Z</time></trkpt><trkpt lat="45.65592" lon="10.89393"><ele>120.6</ele><time>2026-04-26T08:10:37.76Z</time></trkpt><trkpt lat="45.656015" lon="10.8939583"><ele>121.0</ele><time>2026-04-26T08:10:38.761Z</time></trkpt><trkpt lat="45.6560983" lon="10.8939833"><ele>120.66666666666667</ele><time>2026-04-26T08:10:39.761Z</time></trkpt><trkpt lat="45.6561683" lon="10.89401"><ele>120.33333333333334</ele><time>2026-04-26T08:10:40.761Z</time></trkpt><trkpt lat="45.6562333" lon="10.89403"><ele>120.0</ele><time>2026-04-26T08:10:41.76Z</time></trkpt><trkpt lat="45.6563117" lon="10.89402"><ele>119.66666666666666</ele><time>2026-04-26T08:10:43.76Z</time></trkpt><trkpt lat="45.6563867" lon="10.894025"><ele>119.33333333333333</ele><time>2026-04-26T08:10:47.76Z</time></trkpt><trkpt lat="45.6564917" lon="10.8940367"><ele>119.0</ele><time>2026-04-26T08:10:50.761Z</time></trkpt><trkpt lat="45.6566" lon="10.894075"><ele>119.0</ele><time>2026-04-26T08:10:52.761Z</time></trkpt><trkpt lat="45.6566667" lon="10.8940967"><ele>119.0</ele><time>2026-04-26T08:10:53.76Z</time></trkpt><trkpt lat="45.6567433" lon="10.894185"><ele>119.0</ele><time>2026-04-26T08:10:55.76Z</time></trkpt><trkpt lat="45.656765" lon="10.8942717"><ele>119.0</ele><time>2026-04-26T08:10:56.76Z</time></trkpt><trkpt lat="45.65674" lon="10.8944283"><ele>119.0</ele><time>2026-04-26T08:10:57.76Z</time></trkpt><trkpt lat="45.656725" lon="10.8945817"><ele>117.5</ele><time>2026-04-26T08:10:58.761Z</time></trkpt><trkpt lat="45.6567067" lon="10.8947533"><ele>116.0</ele><time>2026-04-26T08:10:59.76Z</time></trkpt><trkpt lat="45.6566883" lon="10.8949217"><ele>114.5</ele><time>2026-04-26T08:11:00.76Z</time></trkpt><trkpt lat="45.656665" lon="10.8950983"><ele>113.0</ele><time>2026-04-26T08:11:01.761Z</time></trkpt><trkpt lat="45.6566417" lon="10.8952717"><ele>113.0</ele><time>2026-04-26T08:11:02.761Z</time></trkpt><trkpt lat="45.65662" lon="10.8954317"><ele>113.0</ele><time>2026-04-26T08:11:03.761Z</time></trkpt><trkpt lat="45.656605" lon="10.8955983"><ele>113.0</ele><time>2026-04-26T08:11:04.76Z</time></trkpt><trkpt lat="45.656595" lon="10.8957783"><ele>113.0</ele><time>2026-04-26T08:11:05.761Z</time></trkpt><trkpt lat="45.6565867" lon="10.8959533"><ele>114.0</ele><time>2026-04-26T08:11:06.76Z</time></trkpt><trkpt lat="45.656575" lon="10.89613"><ele>115.0</ele><time>2026-04-26T08:11:07.76Z</time></trkpt><trkpt lat="45.6565517" lon="10.896315"><ele>116.0</ele><time>2026-04-26T08:11:08.761Z</time></trkpt><trkpt lat="45.6565217" lon="10.8964917"><ele>117.0</ele><time>2026-04-26T08:11:09.76Z</time></trkpt><trkpt lat="45.6564967" lon="10.8966667"><ele>117.39999999999999</ele><time>2026-04-26T08:11:10.76Z</time></trkpt><trkpt lat="45.6564767" lon="10.89684"><ele>117.79999999999998</ele><time>2026-04-26T08:11:11.761Z</time></trkpt><trkpt lat="45.6564567" lon="10.897005"><ele>118.2</ele><time>2026-04-26T08:11:12.76Z</time></trkpt><trkpt lat="45.6564417" lon="10.8971567"><ele>118.6</ele><time>2026-04-26T08:11:13.761Z</time></trkpt><trkpt lat="45.656435" lon="10.8972833"><ele>119.0</ele><time>2026-04-26T08:11:14.76Z</time></trkpt><trkpt lat="45.656425" lon="10.897405"><ele>119.0</ele><time>2026-04-26T08:11:15.76Z</time></trkpt><trkpt lat="45.65642" lon="10.8974967"><ele>119.0</ele><time>2026-04-26T08:11:16.761Z</time></trkpt><trkpt lat="45.6563833" lon="10.897645"><ele>119.0</ele><time>2026-04-26T08:11:18.76Z</time></trkpt><trkpt lat="45.6563433" lon="10.8975317"><ele>119.0</ele><time>2026-04-26T08:11:24.76Z</time></trkpt><trkpt lat="45.6563533" lon="10.8974333"><ele>119.0</ele><time>2026-04-26T08:11:25.761Z</time></trkpt><trkpt lat="45.6563817" lon="10.8972633"><ele>119.0</ele><time>2026-04-26T08:11:26.76Z</time></trkpt><trkpt lat="45.6563933" lon="10.8971083"><ele>119.0</ele><time>2026-04-26T08:11:27.761Z</time></trkpt><trkpt lat="45.6564033" lon="10.8969533"><ele>119.0</ele><time>2026-04-26T08:11:28.76Z</time></trkpt><trkpt lat="45.6564117" lon="10.8967783"><ele>119.0</ele><time>2026-04-26T08:11:29.76Z</time></trkpt><trkpt lat="45.65642" lon="10.8966"><ele>118.6</ele><time>2026-04-26T08:11:30.761Z</time></trkpt><trkpt lat="45.6564317" lon="10.8964217"><ele>118.2</ele><time>2026-04-26T08:11:31.76Z</time></trkpt><trkpt lat="45.656445" lon="10.8962517"><ele>117.79999999999998</ele><time>2026-04-26T08:11:32.76Z</time></trkpt><trkpt lat="45.65647" lon="10.8960917"><ele>117.39999999999999</ele><time>2026-04-26T08:11:33.76Z</time></trkpt><trkpt lat="45.6564833" lon="10.89597"><ele>117.0</ele><time>2026-04-26T08:11:34.76Z</time></trkpt><trkpt lat="45.6564933" lon="10.895865"><ele>116.33333333333333</ele><time>2026-04-26T08:11:35.76Z</time></trkpt><trkpt lat="45.656505" lon="10.8957733"><ele>115.66666666666666</ele><time>2026-04-26T08:11:36.76Z</time></trkpt><trkpt lat="45.6565117" lon="10.895675"><ele>115.0</ele><time>2026-04-26T08:11:37.76Z</time></trkpt><trkpt lat="45.6565217" lon="10.895575"><ele>114.33333333333333</ele><time>2026-04-26T08:11:38.761Z</time></trkpt><trkpt lat="45.656495" lon="10.8954817"><ele>113.66666666666666</ele><time>2026-04-26T08:11:40.76Z</time></trkpt><trkpt lat="45.6563917" lon="10.8954467"><ele>113.0</ele><time>2026-04-26T08:11:42.76Z</time></trkpt><trkpt lat="45.6563017" lon="10.8954283"><ele>113.0</ele><time>2026-04-26T08:11:43.76Z</time></trkpt><trkpt lat="45.65616" lon="10.8954417"><ele>113.0</ele><time>2026-04-26T08:11:44.76Z</time></trkpt><trkpt lat="45.6560167" lon="10.8954617"><ele>113.0</ele><time>2026-04-26T08:11:45.76Z</time></trkpt><trkpt lat="45.655905" lon="10.8954717"><ele>113.0</ele><time>2026-04-26T08:11:46.76Z</time></trkpt><trkpt lat="45.6557983" lon="10.8954867"><ele>113.2</ele><time>2026-04-26T08:11:47.76Z</time></trkpt><trkpt lat="45.6557017" lon="10.895495"><ele>113.4</ele><time>2026-04-26T08:11:48.76Z</time></trkpt><trkpt lat="45.655595" lon="10.895505"><ele>113.60000000000001</ele><time>2026-04-26T08:11:49.76Z</time></trkpt><trkpt lat="45.6554883" lon="10.8955133"><ele>113.80000000000001</ele><time>2026-04-26T08:11:50.761Z</time></trkpt><trkpt lat="45.6553733" lon="10.89552"><ele>114.0</ele><time>2026-04-26T08:11:51.76Z</time></trkpt><trkpt lat="45.6552633" lon="10.8955217"><ele>114.0</ele><time>2026-04-26T08:11:52.76Z</time></trkpt><trkpt lat="45.6551667" lon="10.89552"><ele>114.0</ele><time>2026-04-26T08:11:53.76Z</time></trkpt><trkpt lat="45.655065" lon="10.895515"><ele>114.0</ele><time>2026-04-26T08:11:54.76Z</time></trkpt><trkpt lat="45.65498" lon="10.8955167"><ele>114.0</ele><time>2026-04-26T08:11:55.76Z</time></trkpt><trkpt lat="45.6549017" lon="10.8955183"><ele>114.0</ele><time>2026-04-26T08:11:56.76Z</time></trkpt><trkpt lat="45.654835" lon="10.8955383"><ele>114.0</ele><time>2026-04-26T08:11:57.76Z</time></trkpt><trkpt lat="45.6547767" lon="10.8955733"><ele>114.0</ele><time>2026-04-26T08:11:58.761Z</time></trkpt><trkpt lat="45.6546917" lon="10.8956883"><ele>114.0</ele><time>2026-04-26T08:12:00.761Z</time></trkpt><trkpt lat="45.65464" lon="10.8957533"><ele>114.0</ele><time>2026-04-26T08:12:01.761Z</time></trkpt><trkpt lat="45.6546" lon="10.89583"><ele>114.0</ele><time>2026-04-26T08:12:02.761Z</time></trkpt><trkpt lat="45.6545583" lon="10.8959783"><ele>114.0</ele><time>2026-04-26T08:12:04.76Z</time></trkpt><trkpt lat="45.6545033" lon="10.896025"><ele>114.0</ele><time>2026-04-26T08:12:06.761Z</time></trkpt><trkpt lat="45.65441" lon="10.895985"><ele>114.0</ele><time>2026-04-26T08:12:08.761Z</time></trkpt><trkpt lat="45.654335" lon="10.8958917"><ele>114.0</ele><time>2026-04-26T08:12:10.76Z</time></trkpt><trkpt lat="45.65431" lon="10.89576"><ele>114.0</ele><time>2026-04-26T08:12:12.76Z</time></trkpt><trkpt lat="45.6542717" lon="10.8956333"><ele>114.0</ele><time>2026-04-26T08:12:14.761Z</time></trkpt><trkpt lat="45.654185" lon="10.8955833"><ele>114.0</ele><time>2026-04-26T08:12:16.76Z</time></trkpt><trkpt lat="45.6540567" lon="10.8955933"><ele>114.0</ele><time>2026-04-26T08:12:18.76Z</time></trkpt><trkpt lat="45.6539767" lon="10.8956183"><ele>114.0</ele><time>2026-04-26T08:12:19.76Z</time></trkpt><trkpt lat="45.6538917" lon="10.8956367"><ele>114.0</ele><time>2026-04-26T08:12:20.76Z</time></trkpt><trkpt lat="45.6537933" lon="10.8956583"><ele>114.0</ele><time>2026-04-26T08:12:21.76Z</time></trkpt><trkpt lat="45.653675" lon="10.8956783"><ele>114.0</ele><time>2026-04-26T08:12:22.76Z</time></trkpt><trkpt lat="45.6535717" lon="10.8957133"><ele>114.0</ele><time>2026-04-26T08:12:23.76Z</time></trkpt><trkpt lat="45.6534617" lon="10.89576"><ele>114.0</ele><time>2026-04-26T08:12:24.76Z</time></trkpt><trkpt lat="45.6533417" lon="10.8958133"><ele>114.0</ele><time>2026-04-26T08:12:25.76Z</time></trkpt><trkpt lat="45.65324" lon="10.8958483"><ele>114.0</ele><time>2026-04-26T08:12:26.761Z</time></trkpt><trkpt lat="45.6531417" lon="10.895885"><ele>114.0</ele><time>2026-04-26T08:12:27.76Z</time></trkpt><trkpt lat="45.653055" lon="10.8959217"><ele>114.33333333333333</ele><time>2026-04-26T08:12:28.76Z</time></trkpt><trkpt lat="45.652965" lon="10.8959533"><ele>114.66666666666666</ele><time>2026-04-26T08:12:29.76Z</time></trkpt><trkpt lat="45.65288" lon="10.8959983"><ele>115.0</ele><time>2026-04-26T08:12:30.76Z</time></trkpt><trkpt lat="45.6528133" lon="10.89602"><ele>115.33333333333333</ele><time>2026-04-26T08:12:31.759Z</time></trkpt><trkpt lat="45.6527517" lon="10.89604"><ele>115.66666666666666</ele><time>2026-04-26T08:12:32.759Z</time></trkpt><trkpt lat="45.6526717" lon="10.8960983"><ele>116.0</ele><time>2026-04-26T08:12:34.759Z</time></trkpt><trkpt lat="45.65264" lon="10.8961817"><ele>116.0</ele><time>2026-04-26T08:12:36.759Z</time></trkpt><trkpt lat="45.6526567" lon="10.89634"><ele>116.0</ele><time>2026-04-26T08:12:38.76Z</time></trkpt><trkpt lat="45.65267" lon="10.8964517"><ele>116.0</ele><time>2026-04-26T08:12:39.76Z</time></trkpt><trkpt lat="45.6526833" lon="10.8965833"><ele>116.0</ele><time>2026-04-26T08:12:40.759Z</time></trkpt><trkpt lat="45.6527317" lon="10.8967433"><ele>116.0</ele><time>2026-04-26T08:12:41.759Z</time></trkpt><trkpt lat="45.6527717" lon="10.8969033"><ele>115.8</ele><time>2026-04-26T08:12:42.759Z</time></trkpt><trkpt lat="45.6528033" lon="10.8970517"><ele>115.6</ele><time>2026-04-26T08:12:43.759Z</time></trkpt><trkpt lat="45.6528367" lon="10.8972033"><ele>115.4</ele><time>2026-04-26T08:12:44.759Z</time></trkpt><trkpt lat="45.6528667" lon="10.8973567"><ele>115.2</ele><time>2026-04-26T08:12:45.759Z</time></trkpt><trkpt lat="45.6528783" lon="10.8975183"><ele>115.0</ele><time>2026-04-26T08:12:46.759Z</time></trkpt><trkpt lat="45.65288" lon="10.89767"><ele>115.4</ele><time>2026-04-26T08:12:47.759Z</time></trkpt><trkpt lat="45.6528733" lon="10.8978067"><ele>115.8</ele><time>2026-04-26T08:12:48.759Z</time></trkpt><trkpt lat="45.65288" lon="10.89794"><ele>116.19999999999999</ele><time>2026-04-26T08:12:49.76Z</time></trkpt><trkpt lat="45.6528833" lon="10.898075"><ele>116.6</ele><time>2026-04-26T08:12:50.76Z</time></trkpt><trkpt lat="45.652875" lon="10.8982"><ele>117.0</ele><time>2026-04-26T08:12:51.759Z</time></trkpt><trkpt lat="45.6528683" lon="10.8983117"><ele>117.0</ele><time>2026-04-26T08:12:52.76Z</time></trkpt><trkpt lat="45.65286" lon="10.8984017"><ele>116.99999999999999</ele><time>2026-04-26T08:12:53.759Z</time></trkpt><trkpt lat="45.6528367" lon="10.898565"><ele>116.99999999999999</ele><time>2026-04-26T08:12:55.759Z</time></trkpt><trkpt lat="45.6528367" lon="10.8987233"><ele>117.0</ele><time>2026-04-26T08:12:57.759Z</time></trkpt><trkpt lat="45.652825" lon="10.8988733"><ele>117.0</ele><time>2026-04-26T08:12:59.759Z</time></trkpt><trkpt lat="45.6528283" lon="10.8989933"><ele>117.6</ele><time>2026-04-26T08:13:00.759Z</time></trkpt><trkpt lat="45.6528217" lon="10.899145"><ele>118.19999999999999</ele><time>2026-04-26T08:13:01.76Z</time></trkpt><trkpt lat="45.6528117" lon="10.8992933"><ele>118.8</ele><time>2026-04-26T08:13:02.76Z</time></trkpt><trkpt lat="45.6528067" lon="10.899425"><ele>119.4</ele><time>2026-04-26T08:13:03.76Z</time></trkpt><trkpt lat="45.65282" lon="10.8995367"><ele>120.0</ele><time>2026-04-26T08:13:04.759Z</time></trkpt><trkpt lat="45.6528333" lon="10.8997117"><ele>120.25</ele><time>2026-04-26T08:13:06.76Z</time></trkpt><trkpt lat="45.6528033" lon="10.8998167"><ele>120.5</ele><time>2026-04-26T08:13:07.76Z</time></trkpt><trkpt lat="45.65274" lon="10.8999517"><ele>120.75</ele><time>2026-04-26T08:13:09.76Z</time></trkpt><trkpt lat="45.6528617" lon="10.9000733"><ele>121.0</ele><time>2026-04-26T08:13:33.759Z</time></trkpt><trkpt lat="45.6529633" lon="10.9001583"><ele>123.6</ele><time>2026-04-26T08:13:34.759Z</time></trkpt><trkpt lat="45.6530367" lon="10.9002233"><ele>126.19999999999999</ele><time>2026-04-26T08:13:35.759Z</time></trkpt><trkpt lat="45.6531183" lon="10.900285"><ele>128.8</ele><time>2026-04-26T08:13:37.759Z</time></trkpt><trkpt lat="45.653045" lon="10.9003217"><ele>131.4</ele><time>2026-04-26T08:13:43.759Z</time></trkpt><trkpt lat="45.6529817" lon="10.9002617"><ele>134.0</ele><time>2026-04-26T08:13:44.759Z</time></trkpt><trkpt lat="45.6528683" lon="10.9001667"><ele>133.33333333333331</ele><time>2026-04-26T08:13:45.759Z</time></trkpt><trkpt lat="45.6527117" lon="10.90004"><ele>132.66666666666666</ele><time>2026-04-26T08:13:46.759Z</time></trkpt><trkpt lat="45.6525783" lon="10.8999217"><ele>132.0</ele><time>2026-04-26T08:13:47.759Z</time></trkpt><trkpt lat="45.652415" lon="10.8997833"><ele>132.0</ele><time>2026-04-26T08:13:48.759Z</time></trkpt><trkpt lat="45.6522" lon="10.89961"><ele>132.0</ele><time>2026-04-26T08:13:49.759Z</time></trkpt><trkpt lat="45.652" lon="10.8994617"><ele>130.66666666666666</ele><time>2026-04-26T08:13:50.759Z</time></trkpt><trkpt lat="45.6518283" lon="10.89932"><ele>129.33333333333331</ele><time>2026-04-26T08:13:51.76Z</time></trkpt><trkpt lat="45.651665" lon="10.8991883"><ele>128.0</ele><time>2026-04-26T08:13:52.759Z</time></trkpt><trkpt lat="45.6514983" lon="10.89907"><ele>128.0</ele><time>2026-04-26T08:13:53.759Z</time></trkpt><trkpt lat="45.6513183" lon="10.898955"><ele>128.0</ele><time>2026-04-26T08:13:54.759Z</time></trkpt><trkpt lat="45.6511583" lon="10.8988517"><ele>128.0</ele><time>2026-04-26T08:13:55.759Z</time></trkpt><trkpt lat="45.6509833" lon="10.8987433"><ele>133.0</ele><time>2026-04-26T08:13:56.76Z</time></trkpt><trkpt lat="45.65081" lon="10.898645"><ele>138.0</ele><time>2026-04-26T08:13:57.759Z</time></trkpt><trkpt lat="45.6506433" lon="10.8985467"><ele>143.0</ele><time>2026-04-26T08:13:58.76Z</time></trkpt><trkpt lat="45.6504683" lon="10.8984567"><ele>138.66666666666666</ele><time>2026-04-26T08:13:59.76Z</time></trkpt><trkpt lat="45.6503" lon="10.8983717"><ele>134.33333333333334</ele><time>2026-04-26T08:14:00.759Z</time></trkpt><trkpt lat="45.6501233" lon="10.8982817"><ele>130.0</ele><time>2026-04-26T08:14:01.759Z</time></trkpt><trkpt lat="45.64994" lon="10.898185"><ele>130.0</ele><time>2026-04-26T08:14:02.759Z</time></trkpt><trkpt lat="45.64976" lon="10.8980833"><ele>130.0</ele><time>2026-04-26T08:14:03.759Z</time></trkpt><trkpt lat="45.6495683" lon="10.89799"><ele>130.0</ele><time>2026-04-26T08:14:04.76Z</time></trkpt><trkpt lat="45.6493883" lon="10.89789"><ele>134.0</ele><time>2026-04-26T08:14:05.76Z</time></trkpt><trkpt lat="45.6492083" lon="10.89779"><ele>138.0</ele><time>2026-04-26T08:14:06.759Z</time></trkpt><trkpt lat="45.6490383" lon="10.8976917"><ele>142.0</ele><time>2026-04-26T08:14:07.76Z</time></trkpt><trkpt lat="45.6488783" lon="10.8975883"><ele>139.66666666666669</ele><time>2026-04-26T08:14:08.76Z</time></trkpt><trkpt lat="45.64871" lon="10.8974833"><ele>137.33333333333334</ele><time>2026-04-26T08:14:09.759Z</time></trkpt><trkpt lat="45.648555" lon="10.8973667"><ele>135.0</ele><time>2026-04-26T08:14:10.759Z</time></trkpt><trkpt lat="45.6483883" lon="10.897245"><ele>135.0</ele><time>2026-04-26T08:14:11.759Z</time></trkpt><trkpt lat="45.6482317" lon="10.8971167"><ele>135.0</ele><time>2026-04-26T08:14:12.759Z</time></trkpt><trkpt lat="45.6480683" lon="10.8970183"><ele>135.0</ele><time>2026-04-26T08:14:13.76Z</time></trkpt><trkpt lat="45.6479033" lon="10.8968917"><ele>134.33333333333334</ele><time>2026-04-26T08:14:14.759Z</time></trkpt><trkpt lat="45.64774" lon="10.8967517"><ele>133.66666666666669</ele><time>2026-04-26T08:14:15.759Z</time></trkpt><trkpt lat="45.6475683" lon="10.8966383"><ele>133.0</ele><time>2026-04-26T08:14:16.759Z</time></trkpt><trkpt lat="45.6474" lon="10.8965117"><ele>133.0</ele><time>2026-04-26T08:14:17.76Z</time></trkpt><trkpt lat="45.647255" lon="10.896375"><ele>133.0</ele><time>2026-04-26T08:14:18.76Z</time></trkpt><trkpt lat="45.6471217" lon="10.8962383"><ele>133.0</ele><time>2026-04-26T08:14:19.759Z</time></trkpt><trkpt lat="45.6469817" lon="10.8961117"><ele>132.33333333333334</ele><time>2026-04-26T08:14:20.759Z</time></trkpt><trkpt lat="45.6468317" lon="10.89596"><ele>131.66666666666666</ele><time>2026-04-26T08:14:21.759Z</time></trkpt><trkpt lat="45.64668" lon="10.8957983"><ele>131.0</ele><time>2026-04-26T08:14:22.76Z</time></trkpt><trkpt lat="45.6465367" lon="10.89562"><ele>131.0</ele><time>2026-04-26T08:14:23.759Z</time></trkpt><trkpt lat="45.6464017" lon="10.895435"><ele>131.0</ele><time>2026-04-26T08:14:24.759Z</time></trkpt><trkpt lat="45.64627" lon="10.8952433"><ele>131.0</ele><time>2026-04-26T08:14:25.759Z</time></trkpt><trkpt lat="45.646145" lon="10.895045"><ele>132.66666666666666</ele><time>2026-04-26T08:14:26.759Z</time></trkpt><trkpt lat="45.6460267" lon="10.894835"><ele>134.33333333333334</ele><time>2026-04-26T08:14:27.76Z</time></trkpt><trkpt lat="45.645915" lon="10.8946167"><ele>136.0</ele><time>2026-04-26T08:14:28.759Z</time></trkpt><trkpt lat="45.6458017" lon="10.894395"><ele>133.0</ele><time>2026-04-26T08:14:29.759Z</time></trkpt><trkpt lat="45.6457" lon="10.8941683"><ele>130.0</ele><time>2026-04-26T08:14:30.759Z</time></trkpt><trkpt lat="45.6455983" lon="10.8939367"><ele>127.0</ele><time>2026-04-26T08:14:31.76Z</time></trkpt><trkpt lat="45.6455067" lon="10.8937017"><ele>127.0</ele><time>2026-04-26T08:14:32.759Z</time></trkpt><trkpt lat="45.64542" lon="10.8934617"><ele>127.0</ele><time>2026-04-26T08:14:33.759Z</time></trkpt><trkpt lat="45.6453283" lon="10.8932183"><ele>127.0</ele><time>2026-04-26T08:14:34.759Z</time></trkpt><trkpt lat="45.6452367" lon="10.8929733"><ele>128.66666666666669</ele><time>2026-04-26T08:14:35.76Z</time></trkpt><trkpt lat="45.6451617" lon="10.892665"><ele>130.33333333333334</ele><time>2026-04-26T08:14:36.759Z</time></trkpt><trkpt lat="45.6450833" lon="10.892405"><ele>132.0</ele><time>2026-04-26T08:14:37.759Z</time></trkpt><trkpt lat="45.645" lon="10.8921583"><ele>132.0</ele><time>2026-04-26T08:14:38.759Z</time></trkpt><trkpt lat="45.6449" lon="10.8919067"><ele>132.0</ele><time>2026-04-26T08:14:39.759Z</time></trkpt><trkpt lat="45.6447883" lon="10.8917033"><ele>132.0</ele><time>2026-04-26T08:14:40.759Z</time></trkpt><trkpt lat="45.644655" lon="10.8915217"><ele>130.66666666666666</ele><time>2026-04-26T08:14:41.759Z</time></trkpt><trkpt lat="45.6445167" lon="10.8913333"><ele>129.33333333333331</ele><time>2026-04-26T08:14:42.76Z</time></trkpt><trkpt lat="45.6443717" lon="10.8911533"><ele>128.0</ele><time>2026-04-26T08:14:43.759Z</time></trkpt><trkpt lat="45.6442317" lon="10.890975"><ele>129.0</ele><time>2026-04-26T08:14:44.759Z</time></trkpt><trkpt lat="45.6441" lon="10.8907917"><ele>130.0</ele><time>2026-04-26T08:14:45.76Z</time></trkpt><trkpt lat="45.643975" lon="10.8906167"><ele>131.0</ele><time>2026-04-26T08:14:46.76Z</time></trkpt><trkpt lat="45.643855" lon="10.890465"><ele>131.0</ele><time>2026-04-26T08:14:47.759Z</time></trkpt><trkpt lat="45.6437267" lon="10.8903483"><ele>131.0</ele><time>2026-04-26T08:14:48.76Z</time></trkpt><trkpt lat="45.6436017" lon="10.890255"><ele>131.0</ele><time>2026-04-26T08:14:49.759Z</time></trkpt><trkpt lat="45.64348" lon="10.89018"><ele>131.0</ele><time>2026-04-26T08:14:50.76Z</time></trkpt><trkpt lat="45.6433633" lon="10.8901167"><ele>131.8</ele><time>2026-04-26T08:14:51.759Z</time></trkpt><trkpt lat="45.643245" lon="10.890055"><ele>132.6</ele><time>2026-04-26T08:14:52.76Z</time></trkpt><trkpt lat="45.6431433" lon="10.8899967"><ele>133.4</ele><time>2026-04-26T08:14:53.759Z</time></trkpt><trkpt lat="45.6430733" lon="10.88995"><ele>134.2</ele><time>2026-04-26T08:14:54.759Z</time></trkpt><trkpt lat="45.6429967" lon="10.88986"><ele>135.0</ele><time>2026-04-26T08:14:56.76Z</time></trkpt><trkpt lat="45.6430183" lon="10.8896767"><ele>135.0</ele><time>2026-04-26T08:14:58.759Z</time></trkpt><trkpt lat="45.6430533" lon="10.88954"><ele>135.0</ele><time>2026-04-26T08:14:59.759Z</time></trkpt><trkpt lat="45.64308" lon="10.8894167"><ele>135.0</ele><time>2026-04-26T08:15:00.76Z</time></trkpt><trkpt lat="45.6430983" lon="10.8893133"><ele>135.0</ele><time>2026-04-26T08:15:01.76Z</time></trkpt><trkpt lat="45.64313" lon="10.8891417"><ele>135.0</ele><time>2026-04-26T08:15:03.759Z</time></trkpt><trkpt lat="45.64312" lon="10.88905"><ele>134.6</ele><time>2026-04-26T08:15:05.759Z</time></trkpt><trkpt lat="45.643085" lon="10.88896"><ele>134.2</ele><time>2026-04-26T08:15:07.759Z</time></trkpt><trkpt lat="45.643" lon="10.8888017"><ele>133.8</ele><time>2026-04-26T08:15:09.76Z</time></trkpt><trkpt lat="45.642925" lon="10.8887033"><ele>133.4</ele><time>2026-04-26T08:15:10.76Z</time></trkpt><trkpt lat="45.64282" lon="10.8885917"><ele>133.0</ele><time>2026-04-26T08:15:11.76Z</time></trkpt><trkpt lat="45.6426983" lon="10.8884783"><ele>132.0</ele><time>2026-04-26T08:15:12.759Z</time></trkpt><trkpt lat="45.6425667" lon="10.888365"><ele>131.0</ele><time>2026-04-26T08:15:13.759Z</time></trkpt><trkpt lat="45.642435" lon="10.8882517"><ele>130.0</ele><time>2026-04-26T08:15:14.759Z</time></trkpt><trkpt lat="45.6423183" lon="10.888145"><ele>129.0</ele><time>2026-04-26T08:15:15.759Z</time></trkpt><trkpt lat="45.6422217" lon="10.8880467"><ele>129.0</ele><time>2026-04-26T08:15:16.759Z</time></trkpt><trkpt lat="45.642135" lon="10.88796"><ele>129.0</ele><time>2026-04-26T08:15:17.759Z</time></trkpt><trkpt lat="45.6420533" lon="10.8878667"><ele>129.0</ele><time>2026-04-26T08:15:18.759Z</time></trkpt><trkpt lat="45.641965" lon="10.8877783"><ele>129.0</ele><time>2026-04-26T08:15:19.759Z</time></trkpt><trkpt lat="45.641875" lon="10.8876867"><ele>129.0</ele><time>2026-04-26T08:15:20.759Z</time></trkpt><trkpt lat="45.6417783" lon="10.887585"><ele>128.25</ele><time>2026-04-26T08:15:21.759Z</time></trkpt><trkpt lat="45.6416767" lon="10.887485"><ele>127.5</ele><time>2026-04-26T08:15:22.759Z</time></trkpt><trkpt lat="45.6415817" lon="10.8873917"><ele>126.75</ele><time>2026-04-26T08:15:23.759Z</time></trkpt><trkpt lat="45.6414867" lon="10.887295"><ele>126.0</ele><time>2026-04-26T08:15:24.759Z</time></trkpt><trkpt lat="45.6413983" lon="10.8871967"><ele>126.0</ele><time>2026-04-26T08:15:25.759Z</time></trkpt><trkpt lat="45.64132" lon="10.8871067"><ele>126.0</ele><time>2026-04-26T08:15:26.759Z</time></trkpt><trkpt lat="45.6412467" lon="10.8870233"><ele>126.0</ele><time>2026-04-26T08:15:27.76Z</time></trkpt><trkpt lat="45.641175" lon="10.8869383"><ele>126.0</ele><time>2026-04-26T08:15:28.759Z</time></trkpt><trkpt lat="45.6410967" lon="10.8868367"><ele>126.0</ele><time>2026-04-26T08:15:29.759Z</time></trkpt><trkpt lat="45.641015" lon="10.886735"><ele>125.4</ele><time>2026-04-26T08:15:30.76Z</time></trkpt><trkpt lat="45.640935" lon="10.8866417"><ele>124.8</ele><time>2026-04-26T08:15:31.76Z</time></trkpt><trkpt lat="45.640845" lon="10.8865417"><ele>124.20000000000002</ele><time>2026-04-26T08:15:32.76Z</time></trkpt><trkpt lat="45.6407533" lon="10.8864533"><ele>123.60000000000001</ele><time>2026-04-26T08:15:33.759Z</time></trkpt><trkpt lat="45.6406567" lon="10.8863717"><ele>123.0</ele><time>2026-04-26T08:15:34.76Z</time></trkpt><trkpt lat="45.6405633" lon="10.8862867"><ele>123.0</ele><time>2026-04-26T08:15:35.758Z</time></trkpt><trkpt lat="45.64048" lon="10.88621"><ele>123.00000000000001</ele><time>2026-04-26T08:15:36.758Z</time></trkpt><trkpt lat="45.640395" lon="10.88614"><ele>123.00000000000001</ele><time>2026-04-26T08:15:37.758Z</time></trkpt><trkpt lat="45.6403233" lon="10.8860717"><ele>123.0</ele><time>2026-04-26T08:15:38.759Z</time></trkpt><trkpt lat="45.640245" lon="10.8859883"><ele>123.0</ele><time>2026-04-26T08:15:39.758Z</time></trkpt><trkpt lat="45.6401717" lon="10.8859033"><ele>123.4</ele><time>2026-04-26T08:15:40.758Z</time></trkpt><trkpt lat="45.6400833" lon="10.885815"><ele>123.80000000000001</ele><time>2026-04-26T08:15:41.758Z</time></trkpt><trkpt lat="45.6399883" lon="10.885725"><ele>124.2</ele><time>2026-04-26T08:15:42.759Z</time></trkpt><trkpt lat="45.639895" lon="10.8856433"><ele>124.6</ele><time>2026-04-26T08:15:43.759Z</time></trkpt><trkpt lat="45.639815" lon="10.8855683"><ele>125.0</ele><time>2026-04-26T08:15:44.759Z</time></trkpt><trkpt lat="45.6397233" lon="10.8854883"><ele>125.0</ele><time>2026-04-26T08:15:45.758Z</time></trkpt><trkpt lat="45.63963" lon="10.88539"><ele>125.0</ele><time>2026-04-26T08:15:46.758Z</time></trkpt><trkpt lat="45.6395283" lon="10.8852933"><ele>125.0</ele><time>2026-04-26T08:15:47.759Z</time></trkpt><trkpt lat="45.6394283" lon="10.8851983"><ele>125.0</ele><time>2026-04-26T08:15:48.758Z</time></trkpt><trkpt lat="45.6393283" lon="10.8851033"><ele>124.75</ele><time>2026-04-26T08:15:49.758Z</time></trkpt><trkpt lat="45.6392283" lon="10.885015"><ele>124.5</ele><time>2026-04-26T08:15:50.759Z</time></trkpt><trkpt lat="45.6391367" lon="10.8849333"><ele>124.25</ele><time>2026-04-26T08:15:51.759Z</time></trkpt><trkpt lat="45.6390367" lon="10.8848533"><ele>124.0</ele><time>2026-04-26T08:15:52.758Z</time></trkpt><trkpt lat="45.6389383" lon="10.88477"><ele>124.0</ele><time>2026-04-26T08:15:53.759Z</time></trkpt><trkpt lat="45.6388383" lon="10.8846883"><ele>124.0</ele><time>2026-04-26T08:15:54.759Z</time></trkpt><trkpt lat="45.6387483" lon="10.8846083"><ele>124.0</ele><time>2026-04-26T08:15:55.759Z</time></trkpt><trkpt lat="45.63866" lon="10.8845283"><ele>124.0</ele><time>2026-04-26T08:15:56.758Z</time></trkpt><trkpt lat="45.638565" lon="10.88444"><ele>124.0</ele><time>2026-04-26T08:15:57.758Z</time></trkpt><trkpt lat="45.6384767" lon="10.88435"><ele>123.75</ele><time>2026-04-26T08:15:58.758Z</time></trkpt><trkpt lat="45.638385" lon="10.8842567"><ele>123.5</ele><time>2026-04-26T08:15:59.758Z</time></trkpt><trkpt lat="45.6382833" lon="10.8841717"><ele>123.25</ele><time>2026-04-26T08:16:00.758Z</time></trkpt><trkpt lat="45.6381917" lon="10.88408"><ele>123.0</ele><time>2026-04-26T08:16:01.759Z</time></trkpt><trkpt lat="45.6381033" lon="10.88399"><ele>123.0</ele><time>2026-04-26T08:16:02.758Z</time></trkpt><trkpt lat="45.63802" lon="10.8839033"><ele>123.0</ele><time>2026-04-26T08:16:03.758Z</time></trkpt><trkpt lat="45.6379267" lon="10.8838133"><ele>123.0</ele><time>2026-04-26T08:16:04.758Z</time></trkpt><trkpt lat="45.6378267" lon="10.883715"><ele>123.0</ele><time>2026-04-26T08:16:05.758Z</time></trkpt><trkpt lat="45.637735" lon="10.8835983"><ele>123.0</ele><time>2026-04-26T08:16:06.758Z</time></trkpt><trkpt lat="45.6376283" lon="10.8834967"><ele>123.0</ele><time>2026-04-26T08:16:07.758Z</time></trkpt><trkpt lat="45.6375283" lon="10.8833917"><ele>123.0</ele><time>2026-04-26T08:16:08.758Z</time></trkpt><trkpt lat="45.6374283" lon="10.8832833"><ele>123.0</ele><time>2026-04-26T08:16:09.759Z</time></trkpt><trkpt lat="45.6373267" lon="10.8831817"><ele>123.0</ele><time>2026-04-26T08:16:10.759Z</time></trkpt><trkpt lat="45.63722" lon="10.8830767"><ele>123.0</ele><time>2026-04-26T08:16:11.758Z</time></trkpt><trkpt lat="45.637115" lon="10.8829733"><ele>123.0</ele><time>2026-04-26T08:16:12.759Z</time></trkpt><trkpt lat="45.6370083" lon="10.88286"><ele>123.0</ele><time>2026-04-26T08:16:13.758Z</time></trkpt><trkpt lat="45.6368967" lon="10.8827483"><ele>123.25</ele><time>2026-04-26T08:16:14.758Z</time></trkpt><trkpt lat="45.6367867" lon="10.88264"><ele>123.5</ele><time>2026-04-26T08:16:15.758Z</time></trkpt><trkpt lat="45.6366833" lon="10.8825367"><ele>123.75</ele><time>2026-04-26T08:16:16.759Z</time></trkpt><trkpt lat="45.63658" lon="10.8824417"><ele>124.0</ele><time>2026-04-26T08:16:17.759Z</time></trkpt><trkpt lat="45.6364783" lon="10.88235"><ele>124.0</ele><time>2026-04-26T08:16:18.758Z</time></trkpt><trkpt lat="45.6363833" lon="10.8822617"><ele>124.0</ele><time>2026-04-26T08:16:19.758Z</time></trkpt><trkpt lat="45.6362917" lon="10.88217"><ele>124.0</ele><time>2026-04-26T08:16:20.758Z</time></trkpt><trkpt lat="45.6362" lon="10.8820833"><ele>124.0</ele><time>2026-04-26T08:16:21.758Z</time></trkpt><trkpt lat="45.63611" lon="10.882"><ele>124.0</ele><time>2026-04-26T08:16:22.758Z</time></trkpt><trkpt lat="45.63603" lon="10.8819183"><ele>124.00000000000001</ele><time>2026-04-26T08:16:23.758Z</time></trkpt><trkpt lat="45.635965" lon="10.8818483"><ele>124.0</ele><time>2026-04-26T08:16:24.759Z</time></trkpt><trkpt lat="45.6359067" lon="10.881795"><ele>124.0</ele><time>2026-04-26T08:16:25.758Z</time></trkpt><trkpt lat="45.6358033" lon="10.8817117"><ele>124.0</ele><time>2026-04-26T08:16:27.758Z</time></trkpt><trkpt lat="45.6357433" lon="10.8818"><ele>124.00000000000001</ele><time>2026-04-26T08:16:31.759Z</time></trkpt><trkpt lat="45.6357233" lon="10.8819117"><ele>124.0</ele><time>2026-04-26T08:16:32.759Z</time></trkpt><trkpt lat="45.6357067" lon="10.882045"><ele>124.66666666666667</ele><time>2026-04-26T08:16:33.759Z</time></trkpt><trkpt lat="45.6356733" lon="10.88219"><ele>125.33333333333334</ele><time>2026-04-26T08:16:34.758Z</time></trkpt><trkpt lat="45.6356567" lon="10.8822917"><ele>126.0</ele><time>2026-04-26T08:16:35.759Z</time></trkpt><trkpt lat="45.6356117" lon="10.882405"><ele>126.66666666666666</ele><time>2026-04-26T08:16:37.758Z</time></trkpt><trkpt lat="45.6355783" lon="10.8824817"><ele>127.33333333333333</ele><time>2026-04-26T08:16:40.758Z</time></trkpt><trkpt lat="45.63552" lon="10.8825317"><ele>128.0</ele><time>2026-04-26T08:16:54.758Z</time></trkpt><trkpt lat="45.63548" lon="10.882455"><ele>128.0</ele><time>2026-04-26T08:16:56.759Z</time></trkpt><trkpt lat="45.63543" lon="10.882305"><ele>128.0</ele><time>2026-04-26T08:16:58.758Z</time></trkpt><trkpt lat="45.6353967" lon="10.8822"><ele>128.0</ele><time>2026-04-26T08:16:59.759Z</time></trkpt><trkpt lat="45.6353517" lon="10.882065"><ele>128.0</ele><time>2026-04-26T08:17:00.758Z</time></trkpt><trkpt lat="45.6353033" lon="10.8819517"><ele>128.0</ele><time>2026-04-26T08:17:01.759Z</time></trkpt><trkpt lat="45.6352567" lon="10.88184"><ele>128.4</ele><time>2026-04-26T08:17:02.759Z</time></trkpt><trkpt lat="45.635205" lon="10.88171"><ele>128.8</ele><time>2026-04-26T08:17:03.758Z</time></trkpt><trkpt lat="45.6351517" lon="10.8815883"><ele>129.2</ele><time>2026-04-26T08:17:04.759Z</time></trkpt><trkpt lat="45.6351017" lon="10.8814733"><ele>129.6</ele><time>2026-04-26T08:17:05.758Z</time></trkpt><trkpt lat="45.635045" lon="10.8813617"><ele>130.0</ele><time>2026-04-26T08:17:06.758Z</time></trkpt><trkpt lat="45.634985" lon="10.8812467"><ele>130.0</ele><time>2026-04-26T08:17:07.758Z</time></trkpt><trkpt lat="45.6349217" lon="10.881135"><ele>130.0</ele><time>2026-04-26T08:17:08.758Z</time></trkpt><trkpt lat="45.6348517" lon="10.88103"><ele>130.0</ele><time>2026-04-26T08:17:09.758Z</time></trkpt><trkpt lat="45.6347733" lon="10.8809267"><ele>130.0</ele><time>2026-04-26T08:17:10.758Z</time></trkpt><trkpt lat="45.634695" lon="10.8808333"><ele>130.0</ele><time>2026-04-26T08:17:11.758Z</time></trkpt><trkpt lat="45.634595" lon="10.8807233"><ele>129.5</ele><time>2026-04-26T08:17:12.758Z</time></trkpt><trkpt lat="45.6345033" lon="10.880625"><ele>129.0</ele><time>2026-04-26T08:17:13.758Z</time></trkpt><trkpt lat="45.6344217" lon="10.8805217"><ele>128.5</ele><time>2026-04-26T08:17:14.758Z</time></trkpt><trkpt lat="45.6343183" lon="10.880435"><ele>128.0</ele><time>2026-04-26T08:17:15.758Z</time></trkpt><trkpt lat="45.6342017" lon="10.8803633"><ele>128.0</ele><time>2026-04-26T08:17:16.758Z</time></trkpt><trkpt lat="45.6341017" lon="10.8802833"><ele>128.0</ele><time>2026-04-26T08:17:17.758Z</time></trkpt><trkpt lat="45.6339733" lon="10.8802083"><ele>128.0</ele><time>2026-04-26T08:17:18.758Z</time></trkpt><trkpt lat="45.6338433" lon="10.88016"><ele>128.0</ele><time>2026-04-26T08:17:19.758Z</time></trkpt><trkpt lat="45.6337117" lon="10.8801117"><ele>127.25</ele><time>2026-04-26T08:17:20.758Z</time></trkpt><trkpt lat="45.6335833" lon="10.880065"><ele>126.5</ele><time>2026-04-26T08:17:21.758Z</time></trkpt><trkpt lat="45.633465" lon="10.8800267"><ele>125.75</ele><time>2026-04-26T08:17:22.758Z</time></trkpt><trkpt lat="45.63334" lon="10.87999"><ele>125.0</ele><time>2026-04-26T08:17:23.758Z</time></trkpt><trkpt lat="45.6332017" lon="10.8799533"><ele>125.0</ele><time>2026-04-26T08:17:24.759Z</time></trkpt><trkpt lat="45.63304" lon="10.8799167"><ele>125.0</ele><time>2026-04-26T08:17:25.758Z</time></trkpt><trkpt lat="45.6328733" lon="10.8798717"><ele>125.0</ele><time>2026-04-26T08:17:26.758Z</time></trkpt><trkpt lat="45.6326583" lon="10.8798317"><ele>127.0</ele><time>2026-04-26T08:17:27.759Z</time></trkpt><trkpt lat="45.63242" lon="10.879785"><ele>129.0</ele><time>2026-04-26T08:17:28.758Z</time></trkpt><trkpt lat="45.6322083" lon="10.8797083"><ele>129.0</ele><time>2026-04-26T08:17:29.758Z</time></trkpt><trkpt lat="45.6320183" lon="10.8796117"><ele>129.0</ele><time>2026-04-26T08:17:30.759Z</time></trkpt><trkpt lat="45.6318317" lon="10.8795033"><ele>129.0</ele><time>2026-04-26T08:17:31.758Z</time></trkpt><trkpt lat="45.63167" lon="10.8794083"><ele>127.33333333333334</ele><time>2026-04-26T08:17:32.758Z</time></trkpt><trkpt lat="45.6315067" lon="10.8793217"><ele>125.66666666666667</ele><time>2026-04-26T08:17:33.758Z</time></trkpt><trkpt lat="45.631365" lon="10.87922"><ele>124.0</ele><time>2026-04-26T08:17:34.758Z</time></trkpt><trkpt lat="45.631235" lon="10.8791317"><ele>124.00000000000001</ele><time>2026-04-26T08:17:35.758Z</time></trkpt><trkpt lat="45.6311367" lon="10.879035"><ele>124.0</ele><time>2026-04-26T08:17:36.758Z</time></trkpt><trkpt lat="45.6310717" lon="10.8789583"><ele>124.0</ele><time>2026-04-26T08:17:37.758Z</time></trkpt><trkpt lat="45.63116" lon="10.8789333"><ele>124.0</ele><time>2026-04-26T08:17:41.758Z</time></trkpt><trkpt lat="45.631225" lon="10.87898"><ele>124.00000000000001</ele><time>2026-04-26T08:17:42.759Z</time></trkpt><trkpt lat="45.631295" lon="10.8790117"><ele>124.0</ele><time>2026-04-26T08:17:44.758Z</time></trkpt><trkpt lat="45.6313633" lon="10.8790483"><ele>124.0</ele><time>2026-04-26T08:17:45.758Z</time></trkpt><trkpt lat="45.6314767" lon="10.8790883"><ele>124.0</ele><time>2026-04-26T08:17:47.758Z</time></trkpt><trkpt lat="45.63159" lon="10.87912"><ele>124.0</ele><time>2026-04-26T08:17:49.759Z</time></trkpt><trkpt lat="45.6316533" lon="10.8791467"><ele>124.0</ele><time>2026-04-26T08:17:50.758Z</time></trkpt><trkpt lat="45.6317333" lon="10.8791967"><ele>124.0</ele><time>2026-04-26T08:17:51.759Z</time></trkpt><trkpt lat="45.6318067" lon="10.8792383"><ele>124.83333333333334</ele><time>2026-04-26T08:17:52.758Z</time></trkpt><trkpt lat="45.6318817" lon="10.879285"><ele>125.66666666666667</ele><time>2026-04-26T08:17:53.758Z</time></trkpt><trkpt lat="45.6319333" lon="10.87934"><ele>126.5</ele><time>2026-04-26T08:17:54.759Z</time></trkpt><trkpt lat="45.6319883" lon="10.8793867"><ele>127.33333333333334</ele><time>2026-04-26T08:17:55.758Z</time></trkpt><trkpt lat="45.6320467" lon="10.8794367"><ele>128.16666666666666</ele><time>2026-04-26T08:17:56.758Z</time></trkpt><trkpt lat="45.6321183" lon="10.87948"><ele>129.0</ele><time>2026-04-26T08:17:57.758Z</time></trkpt><trkpt lat="45.6322167" lon="10.879545"><ele>129.0</ele><time>2026-04-26T08:17:59.758Z</time></trkpt><trkpt lat="45.6322867" lon="10.879575"><ele>129.0</ele><time>2026-04-26T08:18:01.759Z</time></trkpt><trkpt lat="45.6323567" lon="10.8796"><ele>129.0</ele><time>2026-04-26T08:18:03.758Z</time></trkpt><trkpt lat="45.6323167" lon="10.879525"><ele>129.0</ele><time>2026-04-26T08:18:07.758Z</time></trkpt><trkpt lat="45.632215" lon="10.8794117"><ele>129.0</ele><time>2026-04-26T08:18:16.758Z</time></trkpt><trkpt lat="45.63222" lon="10.8790583"><ele>125.5</ele><time>2026-04-26T08:18:20.793Z</time></trkpt><trkpt lat="45.63223" lon="10.8788933"><ele>122.0</ele><time>2026-04-26T08:18:21.794Z</time></trkpt><trkpt lat="45.63226" lon="10.8786433"><ele>118.5</ele><time>2026-04-26T08:18:22.793Z</time></trkpt><trkpt lat="45.6323217" lon="10.8784683"><ele>115.0</ele><time>2026-04-26T08:18:23.794Z</time></trkpt><trkpt lat="45.6323467" lon="10.8783733"><ele>113.83333333333334</ele><time>2026-04-26T08:18:24.794Z</time></trkpt><trkpt lat="45.63238" lon="10.8782583"><ele>112.66666666666667</ele><time>2026-04-26T08:18:25.793Z</time></trkpt><trkpt lat="45.632405" lon="10.8781567"><ele>111.5</ele><time>2026-04-26T08:18:26.793Z</time></trkpt><trkpt lat="45.6324333" lon="10.8780633"><ele>110.33333333333334</ele><time>2026-04-26T08:18:27.793Z</time></trkpt><trkpt lat="45.632485" lon="10.87792"><ele>109.16666666666667</ele><time>2026-04-26T08:18:29.793Z</time></trkpt><trkpt lat="45.6325167" lon="10.8778417"><ele>108.0</ele><time>2026-04-26T08:18:30.794Z</time></trkpt><trkpt lat="45.632545" lon="10.8777417"><ele>108.0</ele><time>2026-04-26T08:18:32.794Z</time></trkpt><trkpt lat="45.6324533" lon="10.8776983"><ele>108.00000000000001</ele><time>2026-04-26T08:18:34.793Z</time></trkpt><trkpt lat="45.6323817" lon="10.8776467"><ele>108.00000000000001</ele><time>2026-04-26T08:18:35.793Z</time></trkpt><trkpt lat="45.632305" lon="10.8776033"><ele>108.0</ele><time>2026-04-26T08:18:36.793Z</time></trkpt><trkpt lat="45.6322017" lon="10.8775767"><ele>108.0</ele><time>2026-04-26T08:18:37.793Z</time></trkpt><trkpt lat="45.6321083" lon="10.8775517"><ele>108.25</ele><time>2026-04-26T08:18:38.793Z</time></trkpt><trkpt lat="45.631995" lon="10.8775317"><ele>108.5</ele><time>2026-04-26T08:18:39.793Z</time></trkpt><trkpt lat="45.63186" lon="10.8775333"><ele>108.75</ele><time>2026-04-26T08:18:40.794Z</time></trkpt><trkpt lat="45.6317517" lon="10.8775217"><ele>109.0</ele><time>2026-04-26T08:18:41.793Z</time></trkpt><trkpt lat="45.6316317" lon="10.877505"><ele>109.0</ele><time>2026-04-26T08:18:42.792Z</time></trkpt><trkpt lat="45.6315133" lon="10.8774883"><ele>109.0</ele><time>2026-04-26T08:18:43.792Z</time></trkpt><trkpt lat="45.6314" lon="10.8774783"><ele>109.0</ele><time>2026-04-26T08:18:44.793Z</time></trkpt><trkpt lat="45.631285" lon="10.877455"><ele>109.0</ele><time>2026-04-26T08:18:45.792Z</time></trkpt><trkpt lat="45.63118" lon="10.8774417"><ele>108.80000000000001</ele><time>2026-04-26T08:18:46.792Z</time></trkpt><trkpt lat="45.631065" lon="10.8774417"><ele>108.60000000000001</ele><time>2026-04-26T08:18:47.792Z</time></trkpt><trkpt lat="45.630965" lon="10.8774267"><ele>108.4</ele><time>2026-04-26T08:18:48.792Z</time></trkpt><trkpt lat="45.6308633" lon="10.8774283"><ele>108.2</ele><time>2026-04-26T08:18:49.792Z</time></trkpt><trkpt lat="45.63078" lon="10.87741"><ele>108.0</ele><time>2026-04-26T08:18:50.792Z</time></trkpt><trkpt lat="45.6307" lon="10.877385"><ele>108.0</ele><time>2026-04-26T08:18:51.792Z</time></trkpt><trkpt lat="45.630615" lon="10.877355"><ele>108.00000000000001</ele><time>2026-04-26T08:18:52.792Z</time></trkpt><trkpt lat="45.630525" lon="10.87732"><ele>108.00000000000001</ele><time>2026-04-26T08:18:53.792Z</time></trkpt><trkpt lat="45.6304317" lon="10.8772933"><ele>108.0</ele><time>2026-04-26T08:18:54.792Z</time></trkpt><trkpt lat="45.6303367" lon="10.87728"><ele>108.0</ele><time>2026-04-26T08:18:55.792Z</time></trkpt><trkpt lat="45.6302567" lon="10.8772683"><ele>109.66666666666667</ele><time>2026-04-26T08:18:56.793Z</time></trkpt><trkpt lat="45.6301867" lon="10.8772567"><ele>111.33333333333334</ele><time>2026-04-26T08:18:57.792Z</time></trkpt><trkpt lat="45.6301167" lon="10.8772367"><ele>113.0</ele><time>2026-04-26T08:18:58.792Z</time></trkpt><trkpt lat="45.6300133" lon="10.87717"><ele>114.66666666666667</ele><time>2026-04-26T08:19:00.793Z</time></trkpt><trkpt lat="45.6300283" lon="10.87728"><ele>116.33333333333334</ele><time>2026-04-26T08:19:05.793Z</time></trkpt><trkpt lat="45.6300933" lon="10.8773683"><ele>118.0</ele><time>2026-04-26T08:19:07.793Z</time></trkpt><trkpt lat="45.6301967" lon="10.87746"><ele>118.00000000000001</ele><time>2026-04-26T08:19:09.793Z</time></trkpt><trkpt lat="45.6302617" lon="10.8775167"><ele>118.0</ele><time>2026-04-26T08:19:10.793Z</time></trkpt><trkpt lat="45.6303317" lon="10.8775667"><ele>118.0</ele><time>2026-04-26T08:19:11.792Z</time></trkpt><trkpt lat="45.6304017" lon="10.8776067"><ele>118.0</ele><time>2026-04-26T08:19:12.792Z</time></trkpt><trkpt lat="45.63047" lon="10.8776467"><ele>118.00000000000001</ele><time>2026-04-26T08:19:13.792Z</time></trkpt><trkpt lat="45.63055" lon="10.8776967"><ele>118.0</ele><time>2026-04-26T08:19:15.793Z</time></trkpt><trkpt lat="45.63051" lon="10.8777717"><ele>118.0</ele><time>2026-04-26T08:19:20.793Z</time></trkpt><trkpt lat="45.6303433" lon="10.87769"><ele>118.0</ele><time>2026-04-26T08:19:22.793Z</time></trkpt><trkpt lat="45.630235" lon="10.8776283"><ele>118.0</ele><time>2026-04-26T08:19:23.792Z</time></trkpt><trkpt lat="45.63011" lon="10.87754"><ele>118.0</ele><time>2026-04-26T08:19:24.793Z</time></trkpt><trkpt lat="45.62997" lon="10.8774417"><ele>118.0</ele><time>2026-04-26T08:19:25.793Z</time></trkpt><trkpt lat="45.6298533" lon="10.8773583"><ele>118.00000000000001</ele><time>2026-04-26T08:19:26.793Z</time></trkpt><trkpt lat="45.629755" lon="10.877285"><ele>118.00000000000001</ele><time>2026-04-26T08:19:27.793Z</time></trkpt><trkpt lat="45.6296683" lon="10.8772383"><ele>118.0</ele><time>2026-04-26T08:19:28.792Z</time></trkpt><trkpt lat="45.6296" lon="10.8772033"><ele>118.0</ele><time>2026-04-26T08:19:29.793Z</time></trkpt><trkpt lat="45.6295033" lon="10.877105"><ele>117.80000000000001</ele><time>2026-04-26T08:19:31.792Z</time></trkpt><trkpt lat="45.629445" lon="10.8770283"><ele>117.60000000000001</ele><time>2026-04-26T08:19:32.792Z</time></trkpt><trkpt lat="45.6293817" lon="10.8769333"><ele>117.39999999999999</ele><time>2026-04-26T08:19:33.793Z</time></trkpt><trkpt lat="45.62932" lon="10.8768367"><ele>117.19999999999999</ele><time>2026-04-26T08:19:34.793Z</time></trkpt><trkpt lat="45.6291933" lon="10.876705"><ele>117.0</ele><time>2026-04-26T08:19:35.792Z</time></trkpt><trkpt lat="45.6290933" lon="10.87656"><ele>117.0</ele><time>2026-04-26T08:19:36.793Z</time></trkpt><trkpt lat="45.6289933" lon="10.8764183"><ele>117.0</ele><time>2026-04-26T08:19:37.793Z</time></trkpt><trkpt lat="45.628895" lon="10.8762717"><ele>117.0</ele><time>2026-04-26T08:19:38.793Z</time></trkpt><trkpt lat="45.628795" lon="10.8761183"><ele>117.0</ele><time>2026-04-26T08:19:39.792Z</time></trkpt><trkpt lat="45.6286983" lon="10.8759433"><ele>118.0</ele><time>2026-04-26T08:19:40.792Z</time></trkpt><trkpt lat="45.628605" lon="10.8757683"><ele>119.0</ele><time>2026-04-26T08:19:41.793Z</time></trkpt><trkpt lat="45.628515" lon="10.8755983"><ele>120.0</ele><time>2026-04-26T08:19:42.792Z</time></trkpt><trkpt lat="45.62843" lon="10.8754317"><ele>121.0</ele><time>2026-04-26T08:19:43.792Z</time></trkpt><trkpt lat="45.628345" lon="10.8752533"><ele>118.33333333333334</ele><time>2026-04-26T08:19:44.792Z</time></trkpt><trkpt lat="45.62826" lon="10.87509"><ele>115.66666666666666</ele><time>2026-04-26T08:19:45.792Z</time></trkpt><trkpt lat="45.62817" lon="10.8748817"><ele>113.0</ele><time>2026-04-26T08:19:46.792Z</time></trkpt><trkpt lat="45.6280783" lon="10.8747067"><ele>113.0</ele><time>2026-04-26T08:19:47.793Z</time></trkpt><trkpt lat="45.627975" lon="10.8745267"><ele>113.0</ele><time>2026-04-26T08:19:48.792Z</time></trkpt><trkpt lat="45.6278733" lon="10.874355"><ele>113.0</ele><time>2026-04-26T08:19:49.793Z</time></trkpt><trkpt lat="45.627765" lon="10.8741783"><ele>114.25</ele><time>2026-04-26T08:19:50.792Z</time></trkpt><trkpt lat="45.627665" lon="10.8740367"><ele>115.5</ele><time>2026-04-26T08:19:51.792Z</time></trkpt><trkpt lat="45.6275733" lon="10.8738917"><ele>116.75</ele><time>2026-04-26T08:19:52.793Z</time></trkpt><trkpt lat="45.62748" lon="10.873765"><ele>118.0</ele><time>2026-04-26T08:19:53.793Z</time></trkpt><trkpt lat="45.6273817" lon="10.8736417"><ele>118.00000000000001</ele><time>2026-04-26T08:19:54.792Z</time></trkpt><trkpt lat="45.62729" lon="10.8735283"><ele>118.0</ele><time>2026-04-26T08:19:55.792Z</time></trkpt><trkpt lat="45.6272333" lon="10.873435"><ele>118.0</ele><time>2026-04-26T08:19:56.792Z</time></trkpt><trkpt lat="45.627265" lon="10.8735683"><ele>118.0</ele><time>2026-04-26T08:20:22.792Z</time></trkpt><trkpt lat="45.62732" lon="10.87363"><ele>118.00000000000001</ele><time>2026-04-26T08:20:23.792Z</time></trkpt><trkpt lat="45.6273683" lon="10.8736917"><ele>118.0</ele><time>2026-04-26T08:20:24.792Z</time></trkpt><trkpt lat="45.6274467" lon="10.87375"><ele>118.00000000000001</ele><time>2026-04-26T08:20:26.792Z</time></trkpt><trkpt lat="45.6274967" lon="10.8736833"><ele>118.0</ele><time>2026-04-26T08:20:30.792Z</time></trkpt><trkpt lat="45.6274867" lon="10.8735867"><ele>118.0</ele><time>2026-04-26T08:20:32.792Z</time></trkpt><trkpt lat="45.6274667" lon="10.8734233"><ele>118.0</ele><time>2026-04-26T08:20:34.793Z</time></trkpt><trkpt lat="45.6274333" lon="10.87332"><ele>118.00000000000001</ele><time>2026-04-26T08:20:35.792Z</time></trkpt><trkpt lat="45.6274017" lon="10.8732233"><ele>118.0</ele><time>2026-04-26T08:20:36.792Z</time></trkpt><trkpt lat="45.6273583" lon="10.873115"><ele>115.75</ele><time>2026-04-26T08:20:37.792Z</time></trkpt><trkpt lat="45.627295" lon="10.87298"><ele>113.5</ele><time>2026-04-26T08:20:38.792Z</time></trkpt><trkpt lat="45.6272233" lon="10.872835"><ele>111.25</ele><time>2026-04-26T08:20:39.792Z</time></trkpt><trkpt lat="45.627115" lon="10.8726517"><ele>109.0</ele><time>2026-04-26T08:20:40.793Z</time></trkpt><trkpt lat="45.6270083" lon="10.87247"><ele>110.0</ele><time>2026-04-26T08:20:41.792Z</time></trkpt><trkpt lat="45.626845" lon="10.8722267"><ele>111.0</ele><time>2026-04-26T08:20:42.792Z</time></trkpt><trkpt lat="45.6267133" lon="10.8720583"><ele>112.0</ele><time>2026-04-26T08:20:43.792Z</time></trkpt><trkpt lat="45.6266017" lon="10.8719267"><ele>112.0</ele><time>2026-04-26T08:20:44.792Z</time></trkpt><trkpt lat="45.626515" lon="10.8718033"><ele>112.0</ele><time>2026-04-26T08:20:45.792Z</time></trkpt><trkpt lat="45.6264333" lon="10.8716867"><ele>112.0</ele><time>2026-04-26T08:20:46.792Z</time></trkpt><trkpt lat="45.6263517" lon="10.87157"><ele>112.0</ele><time>2026-04-26T08:20:47.792Z</time></trkpt><trkpt lat="45.6262717" lon="10.8714583"><ele>112.0</ele><time>2026-04-26T08:20:48.792Z</time></trkpt><trkpt lat="45.6261883" lon="10.8713483"><ele>112.0</ele><time>2026-04-26T08:20:49.792Z</time></trkpt><trkpt lat="45.626095" lon="10.871235"><ele>112.0</ele><time>2026-04-26T08:20:50.792Z</time></trkpt><trkpt lat="45.626" lon="10.8711117"><ele>112.0</ele><time>2026-04-26T08:20:51.792Z</time></trkpt><trkpt lat="45.6259" lon="10.8709817"><ele>111.25</ele><time>2026-04-26T08:20:52.792Z</time></trkpt><trkpt lat="45.6257817" lon="10.870855"><ele>110.5</ele><time>2026-04-26T08:20:53.792Z</time></trkpt><trkpt lat="45.6256733" lon="10.8707383"><ele>109.75</ele><time>2026-04-26T08:20:54.793Z</time></trkpt><trkpt lat="45.6255667" lon="10.87062"><ele>109.0</ele><time>2026-04-26T08:20:55.792Z</time></trkpt><trkpt lat="45.62547" lon="10.8705067"><ele>109.0</ele><time>2026-04-26T08:20:56.792Z</time></trkpt><trkpt lat="45.6253717" lon="10.8704"><ele>109.0</ele><time>2026-04-26T08:20:57.792Z</time></trkpt><trkpt lat="45.6252617" lon="10.8703033"><ele>109.0</ele><time>2026-04-26T08:20:58.793Z</time></trkpt><trkpt lat="45.6251483" lon="10.8702067"><ele>109.0</ele><time>2026-04-26T08:20:59.793Z</time></trkpt><trkpt lat="45.625025" lon="10.870115"><ele>108.5</ele><time>2026-04-26T08:21:00.792Z</time></trkpt><trkpt lat="45.624905" lon="10.87002"><ele>108.0</ele><time>2026-04-26T08:21:01.793Z</time></trkpt><trkpt lat="45.6247867" lon="10.86991"><ele>107.5</ele><time>2026-04-26T08:21:02.793Z</time></trkpt><trkpt lat="45.6246667" lon="10.8698167"><ele>107.0</ele><time>2026-04-26T08:21:03.792Z</time></trkpt><trkpt lat="45.6245433" lon="10.8697283"><ele>107.5</ele><time>2026-04-26T08:21:04.793Z</time></trkpt><trkpt lat="45.62442" lon="10.8696417"><ele>108.0</ele><time>2026-04-26T08:21:05.792Z</time></trkpt><trkpt lat="45.624295" lon="10.8695567"><ele>108.5</ele><time>2026-04-26T08:21:06.793Z</time></trkpt><trkpt lat="45.624165" lon="10.8694567"><ele>109.0</ele><time>2026-04-26T08:21:07.792Z</time></trkpt><trkpt lat="45.6240333" lon="10.8693633"><ele>109.0</ele><time>2026-04-26T08:21:08.792Z</time></trkpt><trkpt lat="45.6239083" lon="10.8692767"><ele>109.0</ele><time>2026-04-26T08:21:09.793Z</time></trkpt><trkpt lat="45.6237917" lon="10.86919"><ele>109.0</ele><time>2026-04-26T08:21:10.792Z</time></trkpt><trkpt lat="45.6236717" lon="10.869105"><ele>109.0</ele><time>2026-04-26T08:21:11.792Z</time></trkpt><trkpt lat="45.6235533" lon="10.8690233"><ele>108.75</ele><time>2026-04-26T08:21:12.793Z</time></trkpt><trkpt lat="45.6234283" lon="10.868935"><ele>108.5</ele><time>2026-04-26T08:21:13.793Z</time></trkpt><trkpt lat="45.62331" lon="10.8688383"><ele>108.25</ele><time>2026-04-26T08:21:14.793Z</time></trkpt><trkpt lat="45.6231967" lon="10.8687483"><ele>108.0</ele><time>2026-04-26T08:21:15.792Z</time></trkpt><trkpt lat="45.6230883" lon="10.8686367"><ele>108.0</ele><time>2026-04-26T08:21:16.792Z</time></trkpt><trkpt lat="45.6229717" lon="10.868525"><ele>108.0</ele><time>2026-04-26T08:21:17.792Z</time></trkpt><trkpt lat="45.6228617" lon="10.8684217"><ele>108.0</ele><time>2026-04-26T08:21:18.792Z</time></trkpt><trkpt lat="45.6227517" lon="10.86833"><ele>108.0</ele><time>2026-04-26T08:21:19.793Z</time></trkpt><trkpt lat="45.62266" lon="10.86824"><ele>108.33333333333333</ele><time>2026-04-26T08:21:20.792Z</time></trkpt><trkpt lat="45.6225817" lon="10.8681467"><ele>108.66666666666666</ele><time>2026-04-26T08:21:21.792Z</time></trkpt><trkpt lat="45.6225083" lon="10.8680817"><ele>109.0</ele><time>2026-04-26T08:21:22.793Z</time></trkpt><trkpt lat="45.6224383" lon="10.8680717"><ele>109.33333333333333</ele><time>2026-04-26T08:21:23.792Z</time></trkpt><trkpt lat="45.62237" lon="10.8680633"><ele>109.66666666666666</ele><time>2026-04-26T08:21:24.792Z</time></trkpt><trkpt lat="45.6222883" lon="10.868105"><ele>110.0</ele><time>2026-04-26T08:21:26.792Z</time></trkpt><trkpt lat="45.622225" lon="10.86822"><ele>110.0</ele><time>2026-04-26T08:21:28.792Z</time></trkpt><trkpt lat="45.6222283" lon="10.868365"><ele>110.0</ele><time>2026-04-26T08:21:30.793Z</time></trkpt><trkpt lat="45.6222883" lon="10.8684467"><ele>110.0</ele><time>2026-04-26T08:21:32.792Z</time></trkpt><trkpt lat="45.6223583" lon="10.8684983"><ele>110.0</ele><time>2026-04-26T08:21:34.793Z</time></trkpt><trkpt lat="45.6224567" lon="10.8686"><ele>110.0</ele><time>2026-04-26T08:21:46.792Z</time></trkpt><trkpt lat="45.622385" lon="10.86861"><ele>109.99999999999999</ele><time>2026-04-26T08:21:59.791Z</time></trkpt><trkpt lat="45.6223267" lon="10.86857"><ele>110.0</ele><time>2026-04-26T08:22:00.792Z</time></trkpt><trkpt lat="45.6222383" lon="10.86852"><ele>110.0</ele><time>2026-04-26T08:22:02.791Z</time></trkpt><trkpt lat="45.6221633" lon="10.8684633"><ele>110.0</ele><time>2026-04-26T08:22:04.792Z</time></trkpt><trkpt lat="45.622075" lon="10.868395"><ele>109.99999999999999</ele><time>2026-04-26T08:22:06.791Z</time></trkpt><trkpt lat="45.6220183" lon="10.868345"><ele>110.0</ele><time>2026-04-26T08:22:07.791Z</time></trkpt><trkpt lat="45.621955" lon="10.868285"><ele>111.75</ele><time>2026-04-26T08:22:08.792Z</time></trkpt><trkpt lat="45.62184" lon="10.8682217"><ele>113.5</ele><time>2026-04-26T08:22:09.792Z</time></trkpt><trkpt lat="45.6217267" lon="10.868115"><ele>115.25</ele><time>2026-04-26T08:22:10.792Z</time></trkpt><trkpt lat="45.6216317" lon="10.8680233"><ele>117.0</ele><time>2026-04-26T08:22:11.791Z</time></trkpt><trkpt lat="45.6214867" lon="10.86789"><ele>117.0</ele><time>2026-04-26T08:22:12.791Z</time></trkpt><trkpt lat="45.6213533" lon="10.8677633"><ele>117.0</ele><time>2026-04-26T08:22:13.791Z</time></trkpt><trkpt lat="45.6212283" lon="10.8676467"><ele>117.0</ele><time>2026-04-26T08:22:14.792Z</time></trkpt><trkpt lat="45.6210783" lon="10.8674917"><ele>117.66666666666666</ele><time>2026-04-26T08:22:15.792Z</time></trkpt><trkpt lat="45.6209267" lon="10.8673467"><ele>118.33333333333333</ele><time>2026-04-26T08:22:16.792Z</time></trkpt><trkpt lat="45.6207833" lon="10.867205"><ele>119.0</ele><time>2026-04-26T08:22:17.792Z</time></trkpt><trkpt lat="45.6206483" lon="10.8670683"><ele>119.0</ele><time>2026-04-26T08:22:18.791Z</time></trkpt><trkpt lat="45.620515" lon="10.866925"><ele>119.0</ele><time>2026-04-26T08:22:19.791Z</time></trkpt><trkpt lat="45.6203917" lon="10.8667933"><ele>119.0</ele><time>2026-04-26T08:22:20.791Z</time></trkpt><trkpt lat="45.62028" lon="10.86665"><ele>119.75</ele><time>2026-04-26T08:22:21.792Z</time></trkpt><trkpt lat="45.6201767" lon="10.866515"><ele>120.5</ele><time>2026-04-26T08:22:22.791Z</time></trkpt><trkpt lat="45.6200883" lon="10.8663833"><ele>121.25</ele><time>2026-04-26T08:22:23.791Z</time></trkpt><trkpt lat="45.6199933" lon="10.8662467"><ele>122.0</ele><time>2026-04-26T08:22:24.792Z</time></trkpt><trkpt lat="45.6199033" lon="10.866105"><ele>122.0</ele><time>2026-04-26T08:22:25.791Z</time></trkpt><trkpt lat="45.619825" lon="10.8659733"><ele>122.0</ele><time>2026-04-26T08:22:26.791Z</time></trkpt><trkpt lat="45.6197583" lon="10.8658533"><ele>122.0</ele><time>2026-04-26T08:22:27.791Z</time></trkpt><trkpt lat="45.6196833" lon="10.8657433"><ele>122.0</ele><time>2026-04-26T08:22:28.791Z</time></trkpt><trkpt lat="45.6196" lon="10.865625"><ele>121.25</ele><time>2026-04-26T08:22:29.792Z</time></trkpt><trkpt lat="45.619515" lon="10.8654933"><ele>120.5</ele><time>2026-04-26T08:22:30.791Z</time></trkpt><trkpt lat="45.6194233" lon="10.8653583"><ele>119.75</ele><time>2026-04-26T08:22:31.792Z</time></trkpt><trkpt lat="45.6193233" lon="10.8652167"><ele>119.0</ele><time>2026-04-26T08:22:32.791Z</time></trkpt><trkpt lat="45.619225" lon="10.8650733"><ele>119.0</ele><time>2026-04-26T08:22:33.791Z</time></trkpt><trkpt lat="45.6191417" lon="10.864935"><ele>119.0</ele><time>2026-04-26T08:22:34.792Z</time></trkpt><trkpt lat="45.6190667" lon="10.86479"><ele>119.0</ele><time>2026-04-26T08:22:35.791Z</time></trkpt><trkpt lat="45.618995" lon="10.864655"><ele>119.0</ele><time>2026-04-26T08:22:36.791Z</time></trkpt><trkpt lat="45.6189267" lon="10.8645233"><ele>119.0</ele><time>2026-04-26T08:22:37.792Z</time></trkpt><trkpt lat="45.6188633" lon="10.864385"><ele>119.0</ele><time>2026-04-26T08:22:38.791Z</time></trkpt><trkpt lat="45.618805" lon="10.8642367"><ele>119.0</ele><time>2026-04-26T08:22:39.792Z</time></trkpt><trkpt lat="45.6187533" lon="10.86409"><ele>119.0</ele><time>2026-04-26T08:22:40.792Z</time></trkpt><trkpt lat="45.6187" lon="10.86395"><ele>118.80000000000001</ele><time>2026-04-26T08:22:41.792Z</time></trkpt><trkpt lat="45.6186533" lon="10.8638367"><ele>118.60000000000001</ele><time>2026-04-26T08:22:42.791Z</time></trkpt><trkpt lat="45.6186133" lon="10.8637667"><ele>118.4</ele><time>2026-04-26T08:22:43.792Z</time></trkpt><trkpt lat="45.618535" lon="10.86365"><ele>118.2</ele><time>2026-04-26T08:22:45.791Z</time></trkpt><trkpt lat="45.61848" lon="10.8635583"><ele>118.0</ele><time>2026-04-26T08:22:46.791Z</time></trkpt><trkpt lat="45.6184133" lon="10.8634483"><ele>116.80000000000001</ele><time>2026-04-26T08:22:47.791Z</time></trkpt><trkpt lat="45.61834" lon="10.8633283"><ele>115.60000000000001</ele><time>2026-04-26T08:22:48.791Z</time></trkpt><trkpt lat="45.61826" lon="10.8632"><ele>114.39999999999999</ele><time>2026-04-26T08:22:49.792Z</time></trkpt><trkpt lat="45.6181933" lon="10.8630817"><ele>113.19999999999999</ele><time>2026-04-26T08:22:50.791Z</time></trkpt><trkpt lat="45.6181383" lon="10.8629667"><ele>112.0</ele><time>2026-04-26T08:22:51.791Z</time></trkpt><trkpt lat="45.6180917" lon="10.8628367"><ele>112.0</ele><time>2026-04-26T08:22:52.791Z</time></trkpt><trkpt lat="45.6180333" lon="10.8626767"><ele>112.0</ele><time>2026-04-26T08:22:53.792Z</time></trkpt><trkpt lat="45.6179767" lon="10.8625283"><ele>112.0</ele><time>2026-04-26T08:22:54.791Z</time></trkpt><trkpt lat="45.6179267" lon="10.8623783"><ele>112.0</ele><time>2026-04-26T08:22:55.792Z</time></trkpt><trkpt lat="45.61788" lon="10.8622233"><ele>111.5</ele><time>2026-04-26T08:22:56.792Z</time></trkpt><trkpt lat="45.6178283" lon="10.8620633"><ele>111.0</ele><time>2026-04-26T08:22:57.792Z</time></trkpt><trkpt lat="45.61779" lon="10.8619033"><ele>110.5</ele><time>2026-04-26T08:22:58.792Z</time></trkpt><trkpt lat="45.6177583" lon="10.8617417"><ele>110.0</ele><time>2026-04-26T08:22:59.791Z</time></trkpt><trkpt lat="45.6177467" lon="10.8615833"><ele>111.6</ele><time>2026-04-26T08:23:00.791Z</time></trkpt><trkpt lat="45.6177317" lon="10.86141"><ele>113.2</ele><time>2026-04-26T08:23:01.792Z</time></trkpt><trkpt lat="45.6177183" lon="10.8612633"><ele>114.80000000000001</ele><time>2026-04-26T08:23:02.791Z</time></trkpt><trkpt lat="45.6177017" lon="10.8611317"><ele>116.4</ele><time>2026-04-26T08:23:03.791Z</time></trkpt><trkpt lat="45.61769" lon="10.8610183"><ele>118.0</ele><time>2026-04-26T08:23:04.791Z</time></trkpt><trkpt lat="45.6176833" lon="10.8609067"><ele>118.4</ele><time>2026-04-26T08:23:05.792Z</time></trkpt><trkpt lat="45.6176833" lon="10.8607833"><ele>118.80000000000001</ele><time>2026-04-26T08:23:06.791Z</time></trkpt><trkpt lat="45.617685" lon="10.86064"><ele>119.2</ele><time>2026-04-26T08:23:07.792Z</time></trkpt><trkpt lat="45.6176833" lon="10.8604883"><ele>119.6</ele><time>2026-04-26T08:23:08.791Z</time></trkpt><trkpt lat="45.6176883" lon="10.8603283"><ele>120.0</ele><time>2026-04-26T08:23:09.791Z</time></trkpt><trkpt lat="45.6177033" lon="10.8601583"><ele>120.0</ele><time>2026-04-26T08:23:10.792Z</time></trkpt><trkpt lat="45.61773" lon="10.85998"><ele>120.0</ele><time>2026-04-26T08:23:11.791Z</time></trkpt><trkpt lat="45.617765" lon="10.8598217"><ele>120.0</ele><time>2026-04-26T08:23:12.791Z</time></trkpt><trkpt lat="45.617805" lon="10.8596817"><ele>120.0</ele><time>2026-04-26T08:23:13.792Z</time></trkpt><trkpt lat="45.617845" lon="10.8595517"><ele>120.0</ele><time>2026-04-26T08:23:14.792Z</time></trkpt><trkpt lat="45.6178933" lon="10.85942"><ele>118.66666666666667</ele><time>2026-04-26T08:23:15.791Z</time></trkpt><trkpt lat="45.617945" lon="10.85929"><ele>117.33333333333334</ele><time>2026-04-26T08:23:16.791Z</time></trkpt><trkpt lat="45.6179933" lon="10.859165"><ele>116.0</ele><time>2026-04-26T08:23:17.791Z</time></trkpt><trkpt lat="45.618035" lon="10.859045"><ele>114.66666666666667</ele><time>2026-04-26T08:23:18.791Z</time></trkpt><trkpt lat="45.618075" lon="10.8589567"><ele>113.33333333333334</ele><time>2026-04-26T08:23:19.791Z</time></trkpt><trkpt lat="45.6181117" lon="10.8588667"><ele>112.0</ele><time>2026-04-26T08:23:20.791Z</time></trkpt><trkpt lat="45.6181433" lon="10.8587383"><ele>112.0</ele><time>2026-04-26T08:23:22.791Z</time></trkpt><trkpt lat="45.6181317" lon="10.8586383"><ele>111.99999999999999</ele><time>2026-04-26T08:23:24.792Z</time></trkpt><trkpt lat="45.618035" lon="10.85853"><ele>111.99999999999999</ele><time>2026-04-26T08:23:26.791Z</time></trkpt><trkpt lat="45.6179667" lon="10.858455"><ele>112.0</ele><time>2026-04-26T08:23:27.792Z</time></trkpt><trkpt lat="45.6178783" lon="10.8583633"><ele>112.0</ele><time>2026-04-26T08:23:28.791Z</time></trkpt><trkpt lat="45.6177617" lon="10.858275"><ele>114.66666666666667</ele><time>2026-04-26T08:23:29.791Z</time></trkpt><trkpt lat="45.6176317" lon="10.8581567"><ele>117.33333333333334</ele><time>2026-04-26T08:23:30.792Z</time></trkpt><trkpt lat="45.61749" lon="10.858025"><ele>120.0</ele><time>2026-04-26T08:23:31.792Z</time></trkpt><trkpt lat="45.6173583" lon="10.8579017"><ele>120.0</ele><time>2026-04-26T08:23:32.791Z</time></trkpt><trkpt lat="45.61723" lon="10.8577833"><ele>120.0</ele><time>2026-04-26T08:23:33.791Z</time></trkpt><trkpt lat="45.6171083" lon="10.8576633"><ele>120.0</ele><time>2026-04-26T08:23:34.792Z</time></trkpt><trkpt lat="45.61699" lon="10.8575617"><ele>120.0</ele><time>2026-04-26T08:23:35.791Z</time></trkpt><trkpt lat="45.61687" lon="10.8574517"><ele>120.0</ele><time>2026-04-26T08:23:36.791Z</time></trkpt><trkpt lat="45.616755" lon="10.8573333"><ele>120.0</ele><time>2026-04-26T08:23:37.792Z</time></trkpt><trkpt lat="45.6166333" lon="10.8572283"><ele>120.0</ele><time>2026-04-26T08:23:38.791Z</time></trkpt><trkpt lat="45.6165167" lon="10.8571167"><ele>120.0</ele><time>2026-04-26T08:23:39.791Z</time></trkpt><trkpt lat="45.6163917" lon="10.857005"><ele>120.0</ele><time>2026-04-26T08:23:40.791Z</time></trkpt><trkpt lat="45.6162717" lon="10.856885"><ele>120.0</ele><time>2026-04-26T08:23:41.791Z</time></trkpt><trkpt lat="45.6161467" lon="10.8567767"><ele>120.0</ele><time>2026-04-26T08:23:42.791Z</time></trkpt><trkpt lat="45.6160283" lon="10.8566683"><ele>120.0</ele><time>2026-04-26T08:23:43.791Z</time></trkpt><trkpt lat="45.6159067" lon="10.8565517"><ele>119.75</ele><time>2026-04-26T08:23:44.791Z</time></trkpt><trkpt lat="45.6157883" lon="10.8564433"><ele>119.5</ele><time>2026-04-26T08:23:45.791Z</time></trkpt><trkpt lat="45.615685" lon="10.8563433"><ele>119.25</ele><time>2026-04-26T08:23:46.791Z</time></trkpt><trkpt lat="45.61559" lon="10.8562533"><ele>119.0</ele><time>2026-04-26T08:23:47.791Z</time></trkpt><trkpt lat="45.6154867" lon="10.8561583"><ele>119.0</ele><time>2026-04-26T08:23:48.792Z</time></trkpt><trkpt lat="45.6153817" lon="10.85606"><ele>119.0</ele><time>2026-04-26T08:23:49.792Z</time></trkpt><trkpt lat="45.615285" lon="10.8559667"><ele>119.0</ele><time>2026-04-26T08:23:50.791Z</time></trkpt><trkpt lat="45.6152067" lon="10.8558767"><ele>119.0</ele><time>2026-04-26T08:23:51.792Z</time></trkpt><trkpt lat="45.6151317" lon="10.8558183"><ele>119.0</ele><time>2026-04-26T08:23:52.791Z</time></trkpt><trkpt lat="45.6150667" lon="10.855785"><ele>119.16666666666666</ele><time>2026-04-26T08:23:53.791Z</time></trkpt><trkpt lat="45.6150133" lon="10.8558617"><ele>119.33333333333333</ele><time>2026-04-26T08:23:57.791Z</time></trkpt><trkpt lat="45.6149567" lon="10.8557983"><ele>119.5</ele><time>2026-04-26T08:24:01.792Z</time></trkpt><trkpt lat="45.615" lon="10.8556933"><ele>119.66666666666666</ele><time>2026-04-26T08:24:03.791Z</time></trkpt><trkpt lat="45.6150467" lon="10.85561"><ele>119.83333333333333</ele><time>2026-04-26T08:24:04.792Z</time></trkpt><trkpt lat="45.6151133" lon="10.8554933"><ele>120.0</ele><time>2026-04-26T08:24:05.791Z</time></trkpt><trkpt lat="45.6151867" lon="10.8553533"><ele>120.0</ele><time>2026-04-26T08:24:06.791Z</time></trkpt><trkpt lat="45.6152483" lon="10.85523"><ele>120.0</ele><time>2026-04-26T08:24:07.791Z</time></trkpt><trkpt lat="45.615305" lon="10.85511"><ele>120.0</ele><time>2026-04-26T08:24:08.792Z</time></trkpt><trkpt lat="45.6153433" lon="10.855005"><ele>120.0</ele><time>2026-04-26T08:24:09.791Z</time></trkpt><trkpt lat="45.6153767" lon="10.8549117"><ele>120.0</ele><time>2026-04-26T08:24:10.791Z</time></trkpt><trkpt lat="45.6154067" lon="10.8548067"><ele>120.0</ele><time>2026-04-26T08:24:12.792Z</time></trkpt><trkpt lat="45.615435" lon="10.8547067"><ele>119.25</ele><time>2026-04-26T08:24:19.791Z</time></trkpt><trkpt lat="45.6154867" lon="10.8546"><ele>118.5</ele><time>2026-04-26T08:24:21.791Z</time></trkpt><trkpt lat="45.61557" lon="10.8545417"><ele>117.75</ele><time>2026-04-26T08:24:23.791Z</time></trkpt><trkpt lat="45.6157183" lon="10.8545633"><ele>117.0</ele><time>2026-04-26T08:24:25.792Z</time></trkpt><trkpt lat="45.615835" lon="10.854585"><ele>117.0</ele><time>2026-04-26T08:24:26.792Z</time></trkpt><trkpt lat="45.615975" lon="10.8546033"><ele>117.0</ele><time>2026-04-26T08:24:27.791Z</time></trkpt><trkpt lat="45.61611" lon="10.8546217"><ele>117.0</ele><time>2026-04-26T08:24:28.791Z</time></trkpt><trkpt lat="45.6162433" lon="10.8546517"><ele>117.0</ele><time>2026-04-26T08:24:29.792Z</time></trkpt><trkpt lat="45.6163783" lon="10.854675"><ele>116.5</ele><time>2026-04-26T08:24:30.792Z</time></trkpt><trkpt lat="45.6165183" lon="10.854685"><ele>116.0</ele><time>2026-04-26T08:24:31.791Z</time></trkpt><trkpt lat="45.6166467" lon="10.854705"><ele>115.5</ele><time>2026-04-26T08:24:32.791Z</time></trkpt><trkpt lat="45.6167817" lon="10.8547183"><ele>115.0</ele><time>2026-04-26T08:24:33.791Z</time></trkpt><trkpt lat="45.6169183" lon="10.854725"><ele>114.25</ele><time>2026-04-26T08:24:34.791Z</time></trkpt><trkpt lat="45.6170533" lon="10.8547317"><ele>113.5</ele><time>2026-04-26T08:24:35.791Z</time></trkpt><trkpt lat="45.61719" lon="10.8547283"><ele>112.75</ele><time>2026-04-26T08:24:36.791Z</time></trkpt><trkpt lat="45.617315" lon="10.8547283"><ele>112.0</ele><time>2026-04-26T08:24:37.791Z</time></trkpt><trkpt lat="45.617445" lon="10.8547367"><ele>112.0</ele><time>2026-04-26T08:24:38.792Z</time></trkpt><trkpt lat="45.6175733" lon="10.854735"><ele>112.0</ele><time>2026-04-26T08:24:39.792Z</time></trkpt><trkpt lat="45.61771" lon="10.8547333"><ele>112.0</ele><time>2026-04-26T08:24:40.791Z</time></trkpt><trkpt lat="45.6178367" lon="10.85473"><ele>112.0</ele><time>2026-04-26T08:24:41.791Z</time></trkpt><trkpt lat="45.6179583" lon="10.854725"><ele>112.75</ele><time>2026-04-26T08:24:42.791Z</time></trkpt><trkpt lat="45.618075" lon="10.8547333"><ele>113.5</ele><time>2026-04-26T08:24:43.791Z</time></trkpt><trkpt lat="45.6181917" lon="10.8547483"><ele>114.25</ele><time>2026-04-26T08:24:44.791Z</time></trkpt><trkpt lat="45.618315" lon="10.8547617"><ele>115.0</ele><time>2026-04-26T08:24:45.792Z</time></trkpt><trkpt lat="45.6184383" lon="10.8547733"><ele>115.0</ele><time>2026-04-26T08:24:46.792Z</time></trkpt><trkpt lat="45.618565" lon="10.8547817"><ele>115.0</ele><time>2026-04-26T08:24:47.791Z</time></trkpt><trkpt lat="45.6186683" lon="10.8547933"><ele>115.0</ele><time>2026-04-26T08:24:48.791Z</time></trkpt><trkpt lat="45.61877" lon="10.8548167"><ele>115.0</ele><time>2026-04-26T08:24:49.791Z</time></trkpt><trkpt lat="45.6188733" lon="10.854855"><ele>115.0</ele><time>2026-04-26T08:24:50.792Z</time></trkpt><trkpt lat="45.6189783" lon="10.8548917"><ele>114.25</ele><time>2026-04-26T08:24:51.791Z</time></trkpt><trkpt lat="45.61909" lon="10.8549333"><ele>113.5</ele><time>2026-04-26T08:24:52.791Z</time></trkpt><trkpt lat="45.6192" lon="10.854985"><ele>112.75</ele><time>2026-04-26T08:24:53.79Z</time></trkpt><trkpt lat="45.619305" lon="10.85504"><ele>112.0</ele><time>2026-04-26T08:24:54.79Z</time></trkpt><trkpt lat="45.6194133" lon="10.85509"><ele>112.0</ele><time>2026-04-26T08:24:55.79Z</time></trkpt><trkpt lat="45.6195117" lon="10.85514"><ele>111.99999999999999</ele><time>2026-04-26T08:24:56.79Z</time></trkpt><trkpt lat="45.6196117" lon="10.8551883"><ele>111.99999999999999</ele><time>2026-04-26T08:24:57.791Z</time></trkpt><trkpt lat="45.6197017" lon="10.855225"><ele>112.0</ele><time>2026-04-26T08:24:58.79Z</time></trkpt><trkpt lat="45.6197817" lon="10.85527"><ele>112.0</ele><time>2026-04-26T08:24:59.79Z</time></trkpt><trkpt lat="45.61983" lon="10.8553433"><ele>112.0</ele><time>2026-04-26T08:25:00.79Z</time></trkpt><trkpt lat="45.6199183" lon="10.8554667"><ele>112.0</ele><time>2026-04-26T08:25:02.791Z</time></trkpt><trkpt lat="45.6199767" lon="10.8556183"><ele>112.0</ele><time>2026-04-26T08:25:04.79Z</time></trkpt><trkpt lat="45.61996" lon="10.855795"><ele>112.0</ele><time>2026-04-26T08:25:06.79Z</time></trkpt><trkpt lat="45.6199217" lon="10.8559383"><ele>112.0</ele><time>2026-04-26T08:25:08.79Z</time></trkpt><trkpt lat="45.619915" lon="10.8560417"><ele>111.99999999999999</ele><time>2026-04-26T08:25:10.79Z</time></trkpt><trkpt lat="45.6199783" lon="10.8559433"><ele>111.99999999999999</ele><time>2026-04-26T08:25:15.79Z</time></trkpt><trkpt lat="45.6200017" lon="10.8557867"><ele>112.0</ele><time>2026-04-26T08:25:17.79Z</time></trkpt><trkpt lat="45.62" lon="10.8556367"><ele>112.0</ele><time>2026-04-26T08:25:19.791Z</time></trkpt><trkpt lat="45.61999" lon="10.8554933"><ele>112.00000000000001</ele><time>2026-04-26T08:25:21.791Z</time></trkpt><trkpt lat="45.6199617" lon="10.8553867"><ele>112.0</ele><time>2026-04-26T08:25:23.79Z</time></trkpt><trkpt lat="45.6198983" lon="10.8552983"><ele>112.0</ele><time>2026-04-26T08:25:25.791Z</time></trkpt><trkpt lat="45.6198333" lon="10.8552717"><ele>112.0</ele><time>2026-04-26T08:25:26.79Z</time></trkpt><trkpt lat="45.6197167" lon="10.8551983"><ele>112.00000000000001</ele><time>2026-04-26T08:25:28.79Z</time></trkpt><trkpt lat="45.61965" lon="10.8551583"><ele>112.0</ele><time>2026-04-26T08:25:29.79Z</time></trkpt><trkpt lat="45.6195767" lon="10.8551083"><ele>112.0</ele><time>2026-04-26T08:25:30.79Z</time></trkpt><trkpt lat="45.6195083" lon="10.8550483"><ele>111.99999999999999</ele><time>2026-04-26T08:25:31.79Z</time></trkpt><trkpt lat="45.6194217" lon="10.8549967"><ele>111.99999999999999</ele><time>2026-04-26T08:25:32.79Z</time></trkpt><trkpt lat="45.6193133" lon="10.8549533"><ele>112.0</ele><time>2026-04-26T08:25:33.791Z</time></trkpt><trkpt lat="45.619225" lon="10.85489"><ele>112.0</ele><time>2026-04-26T08:25:34.791Z</time></trkpt><trkpt lat="45.6191417" lon="10.8548517"><ele>112.0</ele><time>2026-04-26T08:25:35.79Z</time></trkpt><trkpt lat="45.6190533" lon="10.8548033"><ele>111.99999999999999</ele><time>2026-04-26T08:25:36.791Z</time></trkpt><trkpt lat="45.6189633" lon="10.8547617"><ele>111.99999999999999</ele><time>2026-04-26T08:25:37.79Z</time></trkpt><trkpt lat="45.6188683" lon="10.8547233"><ele>112.0</ele><time>2026-04-26T08:25:38.791Z</time></trkpt><trkpt lat="45.6187567" lon="10.8546883"><ele>112.0</ele><time>2026-04-26T08:25:39.791Z</time></trkpt><trkpt lat="45.61865" lon="10.8546417"><ele>112.6</ele><time>2026-04-26T08:25:40.79Z</time></trkpt><trkpt lat="45.618545" lon="10.8546017"><ele>113.19999999999999</ele><time>2026-04-26T08:25:41.79Z</time></trkpt><trkpt lat="45.6184417" lon="10.854565"><ele>113.8</ele><time>2026-04-26T08:25:42.79Z</time></trkpt><trkpt lat="45.6183433" lon="10.8545333"><ele>114.4</ele><time>2026-04-26T08:25:43.79Z</time></trkpt><trkpt lat="45.61824" lon="10.8545167"><ele>115.0</ele><time>2026-04-26T08:25:44.79Z</time></trkpt><trkpt lat="45.61814" lon="10.8545117"><ele>115.0</ele><time>2026-04-26T08:25:45.79Z</time></trkpt><trkpt lat="45.61803" lon="10.8545083"><ele>115.0</ele><time>2026-04-26T08:25:46.791Z</time></trkpt><trkpt lat="45.617915" lon="10.854485"><ele>115.0</ele><time>2026-04-26T08:25:47.79Z</time></trkpt><trkpt lat="45.6178117" lon="10.8544767"><ele>115.0</ele><time>2026-04-26T08:25:48.79Z</time></trkpt><trkpt lat="45.6177" lon="10.854465"><ele>115.0</ele><time>2026-04-26T08:25:49.791Z</time></trkpt><trkpt lat="45.617585" lon="10.854455"><ele>114.4</ele><time>2026-04-26T08:25:50.79Z</time></trkpt><trkpt lat="45.6174717" lon="10.854445"><ele>113.8</ele><time>2026-04-26T08:25:51.79Z</time></trkpt><trkpt lat="45.617365" lon="10.8544517"><ele>113.19999999999999</ele><time>2026-04-26T08:25:52.79Z</time></trkpt><trkpt lat="45.6172617" lon="10.8544633"><ele>112.6</ele><time>2026-04-26T08:25:53.791Z</time></trkpt><trkpt lat="45.6171567" lon="10.85447"><ele>112.0</ele><time>2026-04-26T08:25:54.79Z</time></trkpt><trkpt lat="45.617055" lon="10.8544883"><ele>113.0</ele><time>2026-04-26T08:25:55.791Z</time></trkpt><trkpt lat="45.6168883" lon="10.8544817"><ele>114.0</ele><time>2026-04-26T08:25:56.79Z</time></trkpt><trkpt lat="45.616735" lon="10.854465"><ele>115.0</ele><time>2026-04-26T08:25:57.79Z</time></trkpt><trkpt lat="45.6166033" lon="10.8544567"><ele>115.0</ele><time>2026-04-26T08:25:58.79Z</time></trkpt><trkpt lat="45.6164917" lon="10.8544583"><ele>115.0</ele><time>2026-04-26T08:25:59.79Z</time></trkpt><trkpt lat="45.6163883" lon="10.8544483"><ele>115.0</ele><time>2026-04-26T08:26:00.791Z</time></trkpt><trkpt lat="45.616295" lon="10.8544317"><ele>115.0</ele><time>2026-04-26T08:26:01.79Z</time></trkpt><trkpt lat="45.61622" lon="10.8544267"><ele>115.0</ele><time>2026-04-26T08:26:02.79Z</time></trkpt><trkpt lat="45.6161283" lon="10.854395"><ele>115.4</ele><time>2026-04-26T08:26:04.79Z</time></trkpt><trkpt lat="45.6160333" lon="10.8543367"><ele>115.8</ele><time>2026-04-26T08:26:06.79Z</time></trkpt><trkpt lat="45.615965" lon="10.8543067"><ele>116.19999999999999</ele><time>2026-04-26T08:26:07.79Z</time></trkpt><trkpt lat="45.615875" lon="10.8542833"><ele>116.6</ele><time>2026-04-26T08:26:08.791Z</time></trkpt><trkpt lat="45.615765" lon="10.85427"><ele>117.0</ele><time>2026-04-26T08:26:09.791Z</time></trkpt><trkpt lat="45.6155983" lon="10.8542383"><ele>114.25</ele><time>2026-04-26T08:26:10.79Z</time></trkpt><trkpt lat="45.61546" lon="10.8542083"><ele>111.5</ele><time>2026-04-26T08:26:11.791Z</time></trkpt><trkpt lat="45.615315" lon="10.854175"><ele>108.75</ele><time>2026-04-26T08:26:12.79Z</time></trkpt><trkpt lat="45.6151983" lon="10.854155"><ele>106.0</ele><time>2026-04-26T08:26:13.79Z</time></trkpt><trkpt lat="45.6150883" lon="10.85415"><ele>106.0</ele><time>2026-04-26T08:26:14.79Z</time></trkpt><trkpt lat="45.61497" lon="10.8541667"><ele>106.0</ele><time>2026-04-26T08:26:15.791Z</time></trkpt><trkpt lat="45.6148467" lon="10.8541833"><ele>106.0</ele><time>2026-04-26T08:26:16.79Z</time></trkpt><trkpt lat="45.6147333" lon="10.8542033"><ele>106.0</ele><time>2026-04-26T08:26:17.79Z</time></trkpt><trkpt lat="45.6146133" lon="10.854205"><ele>106.0</ele><time>2026-04-26T08:26:18.791Z</time></trkpt><trkpt lat="45.6145" lon="10.8541983"><ele>106.0</ele><time>2026-04-26T08:26:19.791Z</time></trkpt><trkpt lat="45.6143583" lon="10.8541883"><ele>106.0</ele><time>2026-04-26T08:26:20.79Z</time></trkpt><trkpt lat="45.6142533" lon="10.85418"><ele>106.0</ele><time>2026-04-26T08:26:21.79Z</time></trkpt><trkpt lat="45.61416" lon="10.8541783"><ele>105.8</ele><time>2026-04-26T08:26:22.79Z</time></trkpt><trkpt lat="45.6140567" lon="10.8541583"><ele>105.6</ele><time>2026-04-26T08:26:23.79Z</time></trkpt><trkpt lat="45.6139467" lon="10.85416"><ele>105.4</ele><time>2026-04-26T08:26:24.79Z</time></trkpt><trkpt lat="45.6138367" lon="10.854155"><ele>105.2</ele><time>2026-04-26T08:26:25.79Z</time></trkpt><trkpt lat="45.6137183" lon="10.8541583"><ele>105.0</ele><time>2026-04-26T08:26:26.79Z</time></trkpt><trkpt lat="45.6136017" lon="10.85415"><ele>105.0</ele><time>2026-04-26T08:26:27.791Z</time></trkpt><trkpt lat="45.6134767" lon="10.8541383"><ele>105.0</ele><time>2026-04-26T08:26:28.79Z</time></trkpt><trkpt lat="45.6133133" lon="10.8541867"><ele>105.0</ele><time>2026-04-26T08:26:29.791Z</time></trkpt><trkpt lat="45.6131683" lon="10.85422"><ele>105.0</ele><time>2026-04-26T08:26:30.79Z</time></trkpt><trkpt lat="45.6129983" lon="10.85424"><ele>105.0</ele><time>2026-04-26T08:26:31.79Z</time></trkpt><trkpt lat="45.612865" lon="10.85427"><ele>105.0</ele><time>2026-04-26T08:26:32.791Z</time></trkpt><trkpt lat="45.6127483" lon="10.8542567"><ele>105.0</ele><time>2026-04-26T08:26:33.791Z</time></trkpt><trkpt lat="45.612635" lon="10.854255"><ele>105.0</ele><time>2026-04-26T08:26:34.79Z</time></trkpt><trkpt lat="45.6125167" lon="10.8543083"><ele>106.5</ele><time>2026-04-26T08:26:35.79Z</time></trkpt><trkpt lat="45.6124067" lon="10.8543467"><ele>108.0</ele><time>2026-04-26T08:26:36.79Z</time></trkpt><trkpt lat="45.612305" lon="10.8544217"><ele>109.5</ele><time>2026-04-26T08:26:37.791Z</time></trkpt><trkpt lat="45.6121817" lon="10.8544733"><ele>111.0</ele><time>2026-04-26T08:26:38.79Z</time></trkpt><trkpt lat="45.6120917" lon="10.8545217"><ele>110.75</ele><time>2026-04-26T08:26:39.79Z</time></trkpt><trkpt lat="45.611985" lon="10.8545667"><ele>110.5</ele><time>2026-04-26T08:26:40.791Z</time></trkpt><trkpt lat="45.61187" lon="10.8545867"><ele>110.25</ele><time>2026-04-26T08:26:41.791Z</time></trkpt><trkpt lat="45.61175" lon="10.854635"><ele>110.0</ele><time>2026-04-26T08:26:42.79Z</time></trkpt><trkpt lat="45.6116267" lon="10.85468"><ele>110.0</ele><time>2026-04-26T08:26:43.791Z</time></trkpt><trkpt lat="45.6115167" lon="10.8547333"><ele>110.0</ele><time>2026-04-26T08:26:44.79Z</time></trkpt><trkpt lat="45.6114133" lon="10.8547767"><ele>110.0</ele><time>2026-04-26T08:26:45.79Z</time></trkpt><trkpt lat="45.6113183" lon="10.854815"><ele>110.0</ele><time>2026-04-26T08:26:46.791Z</time></trkpt><trkpt lat="45.6112167" lon="10.8548567"><ele>110.0</ele><time>2026-04-26T08:26:47.791Z</time></trkpt><trkpt lat="45.6111333" lon="10.8549"><ele>109.49999999999999</ele><time>2026-04-26T08:26:48.79Z</time></trkpt><trkpt lat="45.6110467" lon="10.8549567"><ele>109.0</ele><time>2026-04-26T08:26:49.791Z</time></trkpt><trkpt lat="45.6109683" lon="10.8550083"><ele>108.5</ele><time>2026-04-26T08:26:50.79Z</time></trkpt><trkpt lat="45.6108917" lon="10.8550733"><ele>108.0</ele><time>2026-04-26T08:26:51.791Z</time></trkpt><trkpt lat="45.610815" lon="10.8551283"><ele>107.49999999999999</ele><time>2026-04-26T08:26:52.791Z</time></trkpt><trkpt lat="45.6107417" lon="10.8551667"><ele>107.0</ele><time>2026-04-26T08:26:53.79Z</time></trkpt><trkpt lat="45.61067" lon="10.8552183"><ele>108.8</ele><time>2026-04-26T08:26:55.791Z</time></trkpt><trkpt lat="45.6106133" lon="10.8553"><ele>110.6</ele><time>2026-04-26T08:26:57.79Z</time></trkpt><trkpt lat="45.610575" lon="10.8554233"><ele>112.39999999999999</ele><time>2026-04-26T08:26:59.79Z</time></trkpt><trkpt lat="45.6105317" lon="10.8555783"><ele>114.19999999999999</ele><time>2026-04-26T08:27:01.79Z</time></trkpt><trkpt lat="45.6105167" lon="10.85575"><ele>116.0</ele><time>2026-04-26T08:27:03.791Z</time></trkpt><trkpt lat="45.6105033" lon="10.8558583"><ele>116.2857142857143</ele><time>2026-04-26T08:27:04.79Z</time></trkpt><trkpt lat="45.6104917" lon="10.85597"><ele>116.57142857142858</ele><time>2026-04-26T08:27:05.79Z</time></trkpt><trkpt lat="45.610485" lon="10.8560817"><ele>116.85714285714286</ele><time>2026-04-26T08:27:06.79Z</time></trkpt><trkpt lat="45.6104767" lon="10.8561867"><ele>117.14285714285715</ele><time>2026-04-26T08:27:07.79Z</time></trkpt><trkpt lat="45.6104617" lon="10.85629"><ele>117.42857142857144</ele><time>2026-04-26T08:27:08.79Z</time></trkpt><trkpt lat="45.6104533" lon="10.8563833"><ele>117.71428571428571</ele><time>2026-04-26T08:27:09.79Z</time></trkpt><trkpt lat="45.6104417" lon="10.8564817"><ele>118.0</ele><time>2026-04-26T08:27:10.79Z</time></trkpt><trkpt lat="45.61044" lon="10.8566333"><ele>118.0</ele><time>2026-04-26T08:27:12.79Z</time></trkpt><trkpt lat="45.6104567" lon="10.8567417"><ele>118.00000000000001</ele><time>2026-04-26T08:27:14.791Z</time></trkpt><trkpt lat="45.6105117" lon="10.8568967"><ele>118.00000000000001</ele><time>2026-04-26T08:27:16.79Z</time></trkpt><trkpt lat="45.610535" lon="10.857"><ele>118.0</ele><time>2026-04-26T08:27:17.79Z</time></trkpt><trkpt lat="45.610525" lon="10.857105"><ele>118.0</ele><time>2026-04-26T08:27:18.791Z</time></trkpt><trkpt lat="45.610475" lon="10.8572633"><ele>117.80000000000001</ele><time>2026-04-26T08:27:20.791Z</time></trkpt><trkpt lat="45.61044" lon="10.8573983"><ele>117.60000000000001</ele><time>2026-04-26T08:27:22.79Z</time></trkpt><trkpt lat="45.6104717" lon="10.8575033"><ele>117.39999999999999</ele><time>2026-04-26T08:27:24.791Z</time></trkpt><trkpt lat="45.6105867" lon="10.8575633"><ele>117.19999999999999</ele><time>2026-04-26T08:27:26.79Z</time></trkpt><trkpt lat="45.6106567" lon="10.8576117"><ele>117.0</ele><time>2026-04-26T08:27:28.79Z</time></trkpt><trkpt lat="45.61072" lon="10.8576633"><ele>117.0</ele><time>2026-04-26T08:27:30.79Z</time></trkpt><trkpt lat="45.6107817" lon="10.8576317"><ele>117.0</ele><time>2026-04-26T08:27:32.79Z</time></trkpt><trkpt lat="45.6108267" lon="10.85753"><ele>117.0</ele><time>2026-04-26T08:27:35.79Z</time></trkpt><trkpt lat="45.6107133" lon="10.8576067"><ele>117.0</ele><time>2026-04-26T09:01:27.789Z</time></trkpt><trkpt lat="45.6106583" lon="10.8576533"><ele>117.0</ele><time>2026-04-26T09:01:34.789Z</time></trkpt><trkpt lat="45.6106817" lon="10.8575267"><ele>117.0</ele><time>2026-04-26T09:02:36.789Z</time></trkpt><trkpt lat="45.610625" lon="10.857605"><ele>117.0</ele><time>2026-04-26T09:02:44.79Z</time></trkpt><trkpt lat="45.6105633" lon="10.85758"><ele>117.0</ele><time>2026-04-26T09:02:47.79Z</time></trkpt><trkpt lat="45.6105017" lon="10.85753"><ele>117.0</ele><time>2026-04-26T09:02:50.789Z</time></trkpt><trkpt lat="45.6104383" lon="10.8574683"><ele>117.0</ele><time>2026-04-26T09:02:53.789Z</time></trkpt><trkpt lat="45.6103833" lon="10.8573883"><ele>117.0</ele><time>2026-04-26T09:03:00.789Z</time></trkpt><trkpt lat="45.61037" lon="10.8572817"><ele>117.0</ele><time>2026-04-26T09:03:03.79Z</time></trkpt><trkpt lat="45.61023" lon="10.8571083"><ele>116.8</ele><time>2026-04-26T09:04:49.789Z</time></trkpt><trkpt lat="45.6101267" lon="10.8570817"><ele>116.6</ele><time>2026-04-26T09:04:51.788Z</time></trkpt><trkpt lat="45.6100167" lon="10.8570633"><ele>116.39999999999999</ele><time>2026-04-26T09:04:53.788Z</time></trkpt><trkpt lat="45.60989" lon="10.8570633"><ele>116.19999999999999</ele><time>2026-04-26T09:04:55.788Z</time></trkpt><trkpt lat="45.6098167" lon="10.8570667"><ele>116.0</ele><time>2026-04-26T09:04:56.788Z</time></trkpt><trkpt lat="45.6097367" lon="10.857065"><ele>115.99999999999999</ele><time>2026-04-26T09:04:57.789Z</time></trkpt><trkpt lat="45.6096583" lon="10.8570683"><ele>116.0</ele><time>2026-04-26T09:04:58.788Z</time></trkpt><trkpt lat="45.609575" lon="10.857085"><ele>116.0</ele><time>2026-04-26T09:04:59.789Z</time></trkpt><trkpt lat="45.6094917" lon="10.8571"><ele>116.0</ele><time>2026-04-26T09:05:00.789Z</time></trkpt><trkpt lat="45.6094033" lon="10.85711"><ele>115.99999999999999</ele><time>2026-04-26T09:05:01.788Z</time></trkpt><trkpt lat="45.6093117" lon="10.8571083"><ele>116.0</ele><time>2026-04-26T09:05:02.788Z</time></trkpt><trkpt lat="45.60923" lon="10.8570967"><ele>115.83333333333333</ele><time>2026-04-26T09:05:03.789Z</time></trkpt><trkpt lat="45.609155" lon="10.85707"><ele>115.66666666666666</ele><time>2026-04-26T09:05:04.788Z</time></trkpt><trkpt lat="45.6090833" lon="10.8570367"><ele>115.5</ele><time>2026-04-26T09:05:05.788Z</time></trkpt><trkpt lat="45.6090133" lon="10.8569933"><ele>115.33333333333334</ele><time>2026-04-26T09:05:06.788Z</time></trkpt><trkpt lat="45.608945" lon="10.856955"><ele>115.16666666666667</ele><time>2026-04-26T09:05:07.788Z</time></trkpt><trkpt lat="45.6088667" lon="10.8569133"><ele>115.0</ele><time>2026-04-26T09:05:08.788Z</time></trkpt><trkpt lat="45.608785" lon="10.856875"><ele>115.00000000000001</ele><time>2026-04-26T09:05:09.789Z</time></trkpt><trkpt lat="45.6087033" lon="10.8568417"><ele>115.0</ele><time>2026-04-26T09:05:10.789Z</time></trkpt><trkpt lat="45.608625" lon="10.85681"><ele>115.0</ele><time>2026-04-26T09:05:11.788Z</time></trkpt><trkpt lat="45.6085467" lon="10.8567733"><ele>115.0</ele><time>2026-04-26T09:05:12.789Z</time></trkpt><trkpt lat="45.6084683" lon="10.8567367"><ele>115.00000000000001</ele><time>2026-04-26T09:05:13.788Z</time></trkpt><trkpt lat="45.60839" lon="10.8566917"><ele>115.0</ele><time>2026-04-26T09:05:14.788Z</time></trkpt><trkpt lat="45.608315" lon="10.85665"><ele>113.66666666666667</ele><time>2026-04-26T09:05:15.788Z</time></trkpt><trkpt lat="45.6082383" lon="10.85661"><ele>112.33333333333334</ele><time>2026-04-26T09:05:16.788Z</time></trkpt><trkpt lat="45.60816" lon="10.85657"><ele>111.0</ele><time>2026-04-26T09:05:17.788Z</time></trkpt><trkpt lat="45.60808" lon="10.8565283"><ele>109.66666666666666</ele><time>2026-04-26T09:05:18.788Z</time></trkpt><trkpt lat="45.6080033" lon="10.856485"><ele>108.33333333333333</ele><time>2026-04-26T09:05:19.788Z</time></trkpt><trkpt lat="45.6079267" lon="10.856445"><ele>107.0</ele><time>2026-04-26T09:05:20.789Z</time></trkpt><trkpt lat="45.6078617" lon="10.8564067"><ele>107.33333333333333</ele><time>2026-04-26T09:05:21.788Z</time></trkpt><trkpt lat="45.6078017" lon="10.8563617"><ele>107.66666666666666</ele><time>2026-04-26T09:05:22.789Z</time></trkpt><trkpt lat="45.6077033" lon="10.8562817"><ele>108.0</ele><time>2026-04-26T09:05:24.788Z</time></trkpt><trkpt lat="45.6076317" lon="10.85626"><ele>108.33333333333334</ele><time>2026-04-26T09:05:26.789Z</time></trkpt><trkpt lat="45.6075933" lon="10.856385"><ele>108.66666666666667</ele><time>2026-04-26T09:07:56.788Z</time></trkpt><trkpt lat="45.6075967" lon="10.856485"><ele>109.0</ele><time>2026-04-26T09:08:00.788Z</time></trkpt><trkpt lat="45.6075533" lon="10.8565733"><ele>109.0</ele><time>2026-04-26T09:08:02.787Z</time></trkpt><trkpt lat="45.6074383" lon="10.8566533"><ele>109.0</ele><time>2026-04-26T09:08:04.787Z</time></trkpt><trkpt lat="45.6073183" lon="10.8566617"><ele>109.0</ele><time>2026-04-26T09:08:06.787Z</time></trkpt><trkpt lat="45.607255" lon="10.8566567"><ele>109.0</ele><time>2026-04-26T09:08:07.787Z</time></trkpt><trkpt lat="45.60716" lon="10.8566283"><ele>109.0</ele><time>2026-04-26T09:08:08.788Z</time></trkpt><trkpt lat="45.6070717" lon="10.8565783"><ele>110.5</ele><time>2026-04-26T09:08:09.787Z</time></trkpt><trkpt lat="45.6069717" lon="10.8565167"><ele>112.0</ele><time>2026-04-26T09:08:10.788Z</time></trkpt><trkpt lat="45.6068667" lon="10.85643"><ele>113.5</ele><time>2026-04-26T09:08:11.787Z</time></trkpt><trkpt lat="45.6067533" lon="10.8563383"><ele>115.0</ele><time>2026-04-26T09:08:12.788Z</time></trkpt><trkpt lat="45.6066067" lon="10.8562467"><ele>115.0</ele><time>2026-04-26T09:08:13.788Z</time></trkpt><trkpt lat="45.6064867" lon="10.85615"><ele>115.0</ele><time>2026-04-26T09:08:14.788Z</time></trkpt><trkpt lat="45.6063767" lon="10.8560367"><ele>115.0</ele><time>2026-04-26T09:08:15.787Z</time></trkpt><trkpt lat="45.6062633" lon="10.8559267"><ele>115.0</ele><time>2026-04-26T09:08:16.788Z</time></trkpt><trkpt lat="45.6061567" lon="10.8557983"><ele>116.25</ele><time>2026-04-26T09:08:17.787Z</time></trkpt><trkpt lat="45.6060567" lon="10.8556583"><ele>117.5</ele><time>2026-04-26T09:08:18.788Z</time></trkpt><trkpt lat="45.605975" lon="10.8555083"><ele>118.75</ele><time>2026-04-26T09:08:19.788Z</time></trkpt><trkpt lat="45.6058833" lon="10.8553567"><ele>120.0</ele><time>2026-04-26T09:08:20.788Z</time></trkpt><trkpt lat="45.6057883" lon="10.8552083"><ele>118.25</ele><time>2026-04-26T09:08:21.787Z</time></trkpt><trkpt lat="45.6056733" lon="10.8550517"><ele>116.5</ele><time>2026-04-26T09:08:22.788Z</time></trkpt><trkpt lat="45.6055767" lon="10.854905"><ele>114.75</ele><time>2026-04-26T09:08:23.788Z</time></trkpt><trkpt lat="45.605475" lon="10.854755"><ele>113.0</ele><time>2026-04-26T09:08:24.787Z</time></trkpt><trkpt lat="45.6053717" lon="10.8546133"><ele>113.5</ele><time>2026-04-26T09:08:25.788Z</time></trkpt><trkpt lat="45.6052717" lon="10.85448"><ele>114.0</ele><time>2026-04-26T09:08:26.787Z</time></trkpt><trkpt lat="45.605165" lon="10.8543567"><ele>114.5</ele><time>2026-04-26T09:08:27.787Z</time></trkpt><trkpt lat="45.6050483" lon="10.85423"><ele>115.0</ele><time>2026-04-26T09:08:28.787Z</time></trkpt><trkpt lat="45.6049167" lon="10.8540933"><ele>115.0</ele><time>2026-04-26T09:08:29.787Z</time></trkpt><trkpt lat="45.6047983" lon="10.8539633"><ele>115.0</ele><time>2026-04-26T09:08:30.787Z</time></trkpt><trkpt lat="45.6046683" lon="10.8538233"><ele>115.0</ele><time>2026-04-26T09:08:31.787Z</time></trkpt><trkpt lat="45.6045517" lon="10.8536967"><ele>115.25</ele><time>2026-04-26T09:08:32.787Z</time></trkpt><trkpt lat="45.604435" lon="10.85357"><ele>115.5</ele><time>2026-04-26T09:08:33.787Z</time></trkpt><trkpt lat="45.6043217" lon="10.853445"><ele>115.75</ele><time>2026-04-26T09:08:34.786Z</time></trkpt><trkpt lat="45.6042117" lon="10.8533383"><ele>116.0</ele><time>2026-04-26T09:08:35.786Z</time></trkpt><trkpt lat="45.6041067" lon="10.8532383"><ele>116.0</ele><time>2026-04-26T09:08:36.786Z</time></trkpt><trkpt lat="45.6040017" lon="10.8531383"><ele>116.0</ele><time>2026-04-26T09:08:37.786Z</time></trkpt><trkpt lat="45.603875" lon="10.853025"><ele>116.0</ele><time>2026-04-26T09:08:38.787Z</time></trkpt><trkpt lat="45.6037583" lon="10.85295"><ele>116.0</ele><time>2026-04-26T09:08:39.787Z</time></trkpt><trkpt lat="45.6036317" lon="10.8528733"><ele>115.75</ele><time>2026-04-26T09:08:40.786Z</time></trkpt><trkpt lat="45.6035083" lon="10.8528017"><ele>115.5</ele><time>2026-04-26T09:08:41.787Z</time></trkpt><trkpt lat="45.6033817" lon="10.85273"><ele>115.25</ele><time>2026-04-26T09:08:42.786Z</time></trkpt><trkpt lat="45.6032567" lon="10.85266"><ele>115.0</ele><time>2026-04-26T09:08:43.787Z</time></trkpt><trkpt lat="45.603135" lon="10.85259"><ele>115.0</ele><time>2026-04-26T09:08:44.786Z</time></trkpt><trkpt lat="45.6030133" lon="10.8525267"><ele>115.0</ele><time>2026-04-26T09:08:45.787Z</time></trkpt><trkpt lat="45.6028883" lon="10.8524633"><ele>115.0</ele><time>2026-04-26T09:08:46.787Z</time></trkpt><trkpt lat="45.6027617" lon="10.8523933"><ele>115.0</ele><time>2026-04-26T09:08:47.786Z</time></trkpt><trkpt lat="45.6026333" lon="10.8523283"><ele>115.0</ele><time>2026-04-26T09:08:48.787Z</time></trkpt><trkpt lat="45.6023733" lon="10.8522017"><ele>115.0</ele><time>2026-04-26T09:08:50.786Z</time></trkpt><trkpt lat="45.602245" lon="10.852145"><ele>115.0</ele><time>2026-04-26T09:08:51.787Z</time></trkpt><trkpt lat="45.6021217" lon="10.85209"><ele>115.0</ele><time>2026-04-26T09:08:52.787Z</time></trkpt><trkpt lat="45.6020017" lon="10.852025"><ele>115.0</ele><time>2026-04-26T09:08:53.786Z</time></trkpt><trkpt lat="45.6018833" lon="10.85196"><ele>115.0</ele><time>2026-04-26T09:08:54.787Z</time></trkpt><trkpt lat="45.6017683" lon="10.851875"><ele>115.0</ele><time>2026-04-26T09:08:55.786Z</time></trkpt><trkpt lat="45.6016433" lon="10.8517783"><ele>114.6</ele><time>2026-04-26T09:08:56.787Z</time></trkpt><trkpt lat="45.6015283" lon="10.8516883"><ele>114.2</ele><time>2026-04-26T09:08:57.786Z</time></trkpt><trkpt lat="45.60143" lon="10.851605"><ele>113.80000000000001</ele><time>2026-04-26T09:08:58.786Z</time></trkpt><trkpt lat="45.6013533" lon="10.85155"><ele>113.4</ele><time>2026-04-26T09:08:59.786Z</time></trkpt><trkpt lat="45.6012933" lon="10.8515017"><ele>113.0</ele><time>2026-04-26T09:09:00.786Z</time></trkpt><trkpt lat="45.6012183" lon="10.851435"><ele>113.0</ele><time>2026-04-26T09:09:02.787Z</time></trkpt><trkpt lat="45.60128" lon="10.8513517"><ele>113.00000000000001</ele><time>2026-04-26T09:09:09.786Z</time></trkpt><trkpt lat="45.6013883" lon="10.8512433"><ele>113.00000000000001</ele><time>2026-04-26T09:09:18.786Z</time></trkpt><trkpt lat="45.60147" lon="10.8511633"><ele>113.0</ele><time>2026-04-26T09:09:20.786Z</time></trkpt><trkpt lat="45.6015333" lon="10.8511217"><ele>113.0</ele><time>2026-04-26T09:09:21.787Z</time></trkpt><trkpt lat="45.60159" lon="10.8510767"><ele>112.80000000000001</ele><time>2026-04-26T09:09:22.786Z</time></trkpt><trkpt lat="45.6017333" lon="10.8509217"><ele>112.60000000000001</ele><time>2026-04-26T09:09:25.787Z</time></trkpt><trkpt lat="45.6017867" lon="10.8508517"><ele>112.39999999999999</ele><time>2026-04-26T09:09:27.786Z</time></trkpt><trkpt lat="45.60187" lon="10.8508033"><ele>112.19999999999999</ele><time>2026-04-26T09:09:29.787Z</time></trkpt><trkpt lat="45.6019317" lon="10.850715"><ele>112.0</ele><time>2026-04-26T09:09:31.786Z</time></trkpt><trkpt lat="45.6019517" lon="10.85059"><ele>112.0</ele><time>2026-04-26T09:09:33.786Z</time></trkpt><trkpt lat="45.6019417" lon="10.85048"><ele>111.99999999999999</ele><time>2026-04-26T09:09:34.786Z</time></trkpt><trkpt lat="45.6018883" lon="10.8503867"><ele>111.99999999999999</ele><time>2026-04-26T09:09:35.786Z</time></trkpt><trkpt lat="45.6017983" lon="10.8503033"><ele>112.0</ele><time>2026-04-26T09:09:36.787Z</time></trkpt><trkpt lat="45.601695" lon="10.8502367"><ele>112.0</ele><time>2026-04-26T09:09:37.786Z</time></trkpt><trkpt lat="45.601575" lon="10.85019"><ele>112.0</ele><time>2026-04-26T09:09:38.787Z</time></trkpt><trkpt lat="45.6014667" lon="10.85016"><ele>111.99999999999999</ele><time>2026-04-26T09:09:39.787Z</time></trkpt><trkpt lat="45.6013467" lon="10.85014"><ele>111.99999999999999</ele><time>2026-04-26T09:09:40.786Z</time></trkpt><trkpt lat="45.6012417" lon="10.8501233"><ele>112.0</ele><time>2026-04-26T09:09:41.786Z</time></trkpt><trkpt lat="45.6011383" lon="10.8501017"><ele>112.0</ele><time>2026-04-26T09:09:42.786Z</time></trkpt><trkpt lat="45.6010233" lon="10.85008"><ele>112.0</ele><time>2026-04-26T09:09:43.787Z</time></trkpt><trkpt lat="45.6009033" lon="10.850065"><ele>112.0</ele><time>2026-04-26T09:09:44.787Z</time></trkpt><trkpt lat="45.60079" lon="10.8500333"><ele>112.0</ele><time>2026-04-26T09:09:45.786Z</time></trkpt><trkpt lat="45.6006817" lon="10.8499983"><ele>112.0</ele><time>2026-04-26T09:09:46.787Z</time></trkpt><trkpt lat="45.6005817" lon="10.8499617"><ele>112.0</ele><time>2026-04-26T09:09:47.787Z</time></trkpt><trkpt lat="45.600475" lon="10.84993"><ele>111.99999999999999</ele><time>2026-04-26T09:09:48.786Z</time></trkpt><trkpt lat="45.6003733" lon="10.8498867"><ele>111.99999999999999</ele><time>2026-04-26T09:09:49.786Z</time></trkpt><trkpt lat="45.6002817" lon="10.849855"><ele>112.0</ele><time>2026-04-26T09:09:50.787Z</time></trkpt><trkpt lat="45.60019" lon="10.8498333"><ele>112.0</ele><time>2026-04-26T09:09:51.786Z</time></trkpt><trkpt lat="45.6001067" lon="10.849815"><ele>111.50000000000001</ele><time>2026-04-26T09:09:52.787Z</time></trkpt><trkpt lat="45.600035" lon="10.8498"><ele>111.0</ele><time>2026-04-26T09:09:53.787Z</time></trkpt><trkpt lat="45.5999467" lon="10.8497533"><ele>110.5</ele><time>2026-04-26T09:09:55.787Z</time></trkpt><trkpt lat="45.5999" lon="10.849675"><ele>110.0</ele><time>2026-04-26T09:09:58.786Z</time></trkpt><trkpt lat="45.5998933" lon="10.8495383"><ele>109.50000000000001</ele><time>2026-04-26T09:10:05.787Z</time></trkpt><trkpt lat="45.5999017" lon="10.8494467"><ele>109.0</ele><time>2026-04-26T09:10:06.786Z</time></trkpt><trkpt lat="45.5999283" lon="10.84934"><ele>108.6</ele><time>2026-04-26T09:10:07.786Z</time></trkpt><trkpt lat="45.599965" lon="10.8492183"><ele>108.2</ele><time>2026-04-26T09:10:08.786Z</time></trkpt><trkpt lat="45.6000033" lon="10.849085"><ele>107.79999999999998</ele><time>2026-04-26T09:10:09.787Z</time></trkpt><trkpt lat="45.600045" lon="10.84896"><ele>107.39999999999999</ele><time>2026-04-26T09:10:10.787Z</time></trkpt><trkpt lat="45.60008" lon="10.84884"><ele>107.0</ele><time>2026-04-26T09:10:11.786Z</time></trkpt><trkpt lat="45.6001183" lon="10.8487217"><ele>107.0</ele><time>2026-04-26T09:10:12.786Z</time></trkpt><trkpt lat="45.6001567" lon="10.8486"><ele>106.99999999999999</ele><time>2026-04-26T09:10:13.786Z</time></trkpt><trkpt lat="45.6002" lon="10.8484833"><ele>106.99999999999999</ele><time>2026-04-26T09:10:14.786Z</time></trkpt><trkpt lat="45.6002483" lon="10.8483617"><ele>107.0</ele><time>2026-04-26T09:10:15.787Z</time></trkpt><trkpt lat="45.6002983" lon="10.8482333"><ele>107.0</ele><time>2026-04-26T09:10:16.786Z</time></trkpt><trkpt lat="45.60035" lon="10.8480933"><ele>106.83333333333333</ele><time>2026-04-26T09:10:17.786Z</time></trkpt><trkpt lat="45.6003983" lon="10.8479567"><ele>106.66666666666666</ele><time>2026-04-26T09:10:18.787Z</time></trkpt><trkpt lat="45.6004367" lon="10.8478383"><ele>106.5</ele><time>2026-04-26T09:10:19.786Z</time></trkpt><trkpt lat="45.60049" lon="10.84774"><ele>106.33333333333334</ele><time>2026-04-26T09:10:20.786Z</time></trkpt><trkpt lat="45.60053" lon="10.8476417"><ele>106.16666666666667</ele><time>2026-04-26T09:10:21.787Z</time></trkpt><trkpt lat="45.6005683" lon="10.8475683"><ele>106.0</ele><time>2026-04-26T09:10:22.787Z</time></trkpt><trkpt lat="45.6006617" lon="10.847455"><ele>105.83333333333334</ele><time>2026-04-26T09:10:24.787Z</time></trkpt><trkpt lat="45.6007433" lon="10.8474117"><ele>105.66666666666667</ele><time>2026-04-26T09:10:26.787Z</time></trkpt><trkpt lat="45.6008333" lon="10.8474"><ele>105.5</ele><time>2026-04-26T09:10:30.786Z</time></trkpt><trkpt lat="45.6009183" lon="10.8473683"><ele>105.33333333333334</ele><time>2026-04-26T09:10:32.787Z</time></trkpt><trkpt lat="45.60099" lon="10.8473267"><ele>105.16666666666667</ele><time>2026-04-26T09:10:34.786Z</time></trkpt><trkpt lat="45.6009283" lon="10.8472767"><ele>105.0</ele><time>2026-04-26T09:10:38.787Z</time></trkpt><trkpt lat="45.6008783" lon="10.8473383"><ele>105.0</ele><time>2026-04-26T09:10:40.786Z</time></trkpt><trkpt lat="45.6008117" lon="10.8474283"><ele>105.0</ele><time>2026-04-26T09:10:42.787Z</time></trkpt><trkpt lat="45.600745" lon="10.84749"><ele>105.0</ele><time>2026-04-26T09:10:44.787Z</time></trkpt><trkpt lat="45.6006883" lon="10.8474333"><ele>105.0</ele><time>2026-04-26T09:10:49.786Z</time></trkpt><trkpt lat="45.60062" lon="10.8473117"><ele>105.0</ele><time>2026-04-26T09:10:51.786Z</time></trkpt><trkpt lat="45.6005017" lon="10.8471717"><ele>105.0</ele><time>2026-04-26T09:10:52.786Z</time></trkpt><trkpt lat="45.6004117" lon="10.84707"><ele>105.0</ele><time>2026-04-26T09:10:53.786Z</time></trkpt><trkpt lat="45.6003117" lon="10.8469317"><ele>105.0</ele><time>2026-04-26T09:10:54.787Z</time></trkpt><trkpt lat="45.6002283" lon="10.84682"><ele>105.0</ele><time>2026-04-26T09:10:55.787Z</time></trkpt><trkpt lat="45.60016" lon="10.8467167"><ele>104.2</ele><time>2026-04-26T09:10:56.787Z</time></trkpt><trkpt lat="45.6000917" lon="10.846635"><ele>103.4</ele><time>2026-04-26T09:10:57.787Z</time></trkpt><trkpt lat="45.6000067" lon="10.846565"><ele>102.6</ele><time>2026-04-26T09:10:58.787Z</time></trkpt><trkpt lat="45.5999067" lon="10.8464967"><ele>101.8</ele><time>2026-04-26T09:10:59.786Z</time></trkpt><trkpt lat="45.5997933" lon="10.846425"><ele>101.0</ele><time>2026-04-26T09:11:00.786Z</time></trkpt><trkpt lat="45.5997033" lon="10.8463617"><ele>101.0</ele><time>2026-04-26T09:11:01.786Z</time></trkpt><trkpt lat="45.599615" lon="10.8462983"><ele>101.0</ele><time>2026-04-26T09:11:02.786Z</time></trkpt><trkpt lat="45.5995417" lon="10.8462317"><ele>101.0</ele><time>2026-04-26T09:11:03.786Z</time></trkpt><trkpt lat="45.59946" lon="10.8461467"><ele>101.0</ele><time>2026-04-26T09:11:04.786Z</time></trkpt><trkpt lat="45.5993817" lon="10.8460733"><ele>101.0</ele><time>2026-04-26T09:11:05.786Z</time></trkpt><trkpt lat="45.5993017" lon="10.8459983"><ele>100.8</ele><time>2026-04-26T09:11:06.786Z</time></trkpt><trkpt lat="45.599205" lon="10.8459233"><ele>100.6</ele><time>2026-04-26T09:11:07.787Z</time></trkpt><trkpt lat="45.5991117" lon="10.8458717"><ele>100.4</ele><time>2026-04-26T09:11:08.786Z</time></trkpt><trkpt lat="45.5990183" lon="10.8458217"><ele>100.2</ele><time>2026-04-26T09:11:09.786Z</time></trkpt><trkpt lat="45.5989233" lon="10.845765"><ele>100.0</ele><time>2026-04-26T09:11:10.787Z</time></trkpt><trkpt lat="45.5988317" lon="10.8457033"><ele>100.0</ele><time>2026-04-26T09:11:11.786Z</time></trkpt><trkpt lat="45.598735" lon="10.8456367"><ele>100.0</ele><time>2026-04-26T09:11:12.786Z</time></trkpt><trkpt lat="45.5986567" lon="10.845595"><ele>100.0</ele><time>2026-04-26T09:11:13.786Z</time></trkpt><trkpt lat="45.5985667" lon="10.84556"><ele>100.0</ele><time>2026-04-26T09:11:14.786Z</time></trkpt><trkpt lat="45.5984817" lon="10.845525"><ele>100.0</ele><time>2026-04-26T09:11:15.786Z</time></trkpt><trkpt lat="45.5984083" lon="10.84549"><ele>100.0</ele><time>2026-04-26T09:11:16.786Z</time></trkpt><trkpt lat="45.5983483" lon="10.8454467"><ele>100.0</ele><time>2026-04-26T09:11:17.785Z</time></trkpt><trkpt lat="45.59826" lon="10.8453767"><ele>100.0</ele><time>2026-04-26T09:11:19.786Z</time></trkpt><trkpt lat="45.5981417" lon="10.8453017"><ele>100.0</ele><time>2026-04-26T09:11:21.785Z</time></trkpt><trkpt lat="45.59807" lon="10.8452517"><ele>100.0</ele><time>2026-04-26T09:11:22.786Z</time></trkpt><trkpt lat="45.5980017" lon="10.8452017"><ele>100.0</ele><time>2026-04-26T09:11:23.785Z</time></trkpt><trkpt lat="45.5979417" lon="10.8451617"><ele>100.0</ele><time>2026-04-26T09:11:24.785Z</time></trkpt><trkpt lat="45.5978283" lon="10.8450967"><ele>100.0</ele><time>2026-04-26T09:11:26.785Z</time></trkpt><trkpt lat="45.5977233" lon="10.8450233"><ele>100.0</ele><time>2026-04-26T09:11:28.785Z</time></trkpt><trkpt lat="45.5976417" lon="10.8450183"><ele>100.0</ele><time>2026-04-26T09:11:31.785Z</time></trkpt><trkpt lat="45.597635" lon="10.8451467"><ele>100.00000000000001</ele><time>2026-04-26T09:11:34.786Z</time></trkpt><trkpt lat="45.597705" lon="10.8452433"><ele>100.0</ele><time>2026-04-26T09:11:36.786Z</time></trkpt><trkpt lat="45.5977617" lon="10.8452833"><ele>100.0</ele><time>2026-04-26T09:11:37.785Z</time></trkpt><trkpt lat="45.59786" lon="10.84534"><ele>100.0</ele><time>2026-04-26T09:11:39.785Z</time></trkpt><trkpt lat="45.5979283" lon="10.8453733"><ele>100.00000000000001</ele><time>2026-04-26T09:11:41.785Z</time></trkpt><trkpt lat="45.598" lon="10.8454117"><ele>100.0</ele><time>2026-04-26T09:11:44.786Z</time></trkpt><trkpt lat="45.5980667" lon="10.8454417"><ele>100.00000000000001</ele><time>2026-04-26T09:11:46.785Z</time></trkpt><trkpt lat="45.5981767" lon="10.8455117"><ele>100.0</ele><time>2026-04-26T09:11:48.785Z</time></trkpt><trkpt lat="45.598235" lon="10.8455467"><ele>100.0</ele><time>2026-04-26T09:11:49.786Z</time></trkpt><trkpt lat="45.5983" lon="10.845605"><ele>100.0</ele><time>2026-04-26T09:11:51.785Z</time></trkpt><trkpt lat="45.5982433" lon="10.8456617"><ele>100.00000000000001</ele><time>2026-04-26T09:11:55.785Z</time></trkpt><trkpt lat="45.59816" lon="10.845595"><ele>100.0</ele><time>2026-04-26T09:11:57.785Z</time></trkpt><trkpt lat="45.5980567" lon="10.8455267"><ele>100.0</ele><time>2026-04-26T09:11:59.785Z</time></trkpt><trkpt lat="45.5979933" lon="10.8454867"><ele>100.0</ele><time>2026-04-26T09:12:01.785Z</time></trkpt><trkpt lat="45.5979333" lon="10.8454333"><ele>100.0</ele><time>2026-04-26T09:12:13.785Z</time></trkpt><trkpt lat="45.5977833" lon="10.8453567"><ele>100.0</ele><time>2026-04-26T09:12:15.785Z</time></trkpt><trkpt lat="45.5976833" lon="10.84531"><ele>100.0</ele><time>2026-04-26T09:12:16.785Z</time></trkpt><trkpt lat="45.5975817" lon="10.84526"><ele>100.2</ele><time>2026-04-26T09:12:17.786Z</time></trkpt><trkpt lat="45.59749" lon="10.8452117"><ele>100.4</ele><time>2026-04-26T09:12:18.785Z</time></trkpt><trkpt lat="45.597405" lon="10.8451717"><ele>100.6</ele><time>2026-04-26T09:12:19.786Z</time></trkpt><trkpt lat="45.59731" lon="10.84513"><ele>100.8</ele><time>2026-04-26T09:12:20.786Z</time></trkpt><trkpt lat="45.5972033" lon="10.84507"><ele>101.0</ele><time>2026-04-26T09:12:21.786Z</time></trkpt><trkpt lat="45.5970867" lon="10.844995"><ele>101.0</ele><time>2026-04-26T09:12:22.785Z</time></trkpt><trkpt lat="45.5969783" lon="10.8449333"><ele>101.0</ele><time>2026-04-26T09:12:23.786Z</time></trkpt><trkpt lat="45.5968717" lon="10.8448717"><ele>101.0</ele><time>2026-04-26T09:12:24.785Z</time></trkpt><trkpt lat="45.596755" lon="10.8448067"><ele>101.0</ele><time>2026-04-26T09:12:25.785Z</time></trkpt><trkpt lat="45.596645" lon="10.844735"><ele>101.0</ele><time>2026-04-26T09:12:26.786Z</time></trkpt><trkpt lat="45.5965433" lon="10.8446667"><ele>101.0</ele><time>2026-04-26T09:12:27.786Z</time></trkpt><trkpt lat="45.5964333" lon="10.8446117"><ele>101.0</ele><time>2026-04-26T09:12:28.785Z</time></trkpt><trkpt lat="45.5963267" lon="10.8445517"><ele>101.0</ele><time>2026-04-26T09:12:29.785Z</time></trkpt><trkpt lat="45.5962183" lon="10.8444917"><ele>101.19999999999999</ele><time>2026-04-26T09:12:30.785Z</time></trkpt><trkpt lat="45.596115" lon="10.844445"><ele>101.39999999999999</ele><time>2026-04-26T09:12:31.785Z</time></trkpt><trkpt lat="45.5960183" lon="10.8443983"><ele>101.6</ele><time>2026-04-26T09:12:32.785Z</time></trkpt><trkpt lat="45.5959183" lon="10.8443567"><ele>101.8</ele><time>2026-04-26T09:12:33.785Z</time></trkpt><trkpt lat="45.59582" lon="10.84432"><ele>102.0</ele><time>2026-04-26T09:12:34.785Z</time></trkpt><trkpt lat="45.5957133" lon="10.8442767"><ele>102.0</ele><time>2026-04-26T09:12:35.785Z</time></trkpt><trkpt lat="45.5956217" lon="10.84423"><ele>102.0</ele><time>2026-04-26T09:12:36.785Z</time></trkpt><trkpt lat="45.5955433" lon="10.8441983"><ele>102.0</ele><time>2026-04-26T09:12:37.785Z</time></trkpt><trkpt lat="45.5954667" lon="10.8441717"><ele>102.0</ele><time>2026-04-26T09:12:38.785Z</time></trkpt><trkpt lat="45.595395" lon="10.8441517"><ele>102.0</ele><time>2026-04-26T09:12:39.785Z</time></trkpt><trkpt lat="45.5952833" lon="10.8441283"><ele>102.0</ele><time>2026-04-26T09:12:41.785Z</time></trkpt><trkpt lat="45.5952083" lon="10.84412"><ele>101.6</ele><time>2026-04-26T09:12:43.785Z</time></trkpt><trkpt lat="45.59509" lon="10.8440883"><ele>101.19999999999999</ele><time>2026-04-26T09:12:45.785Z</time></trkpt><trkpt lat="45.5950033" lon="10.8440733"><ele>100.8</ele><time>2026-04-26T09:12:46.785Z</time></trkpt><trkpt lat="45.59492" lon="10.8440633"><ele>100.4</ele><time>2026-04-26T09:12:47.785Z</time></trkpt><trkpt lat="45.594825" lon="10.8440417"><ele>100.0</ele><time>2026-04-26T09:12:48.785Z</time></trkpt><trkpt lat="45.5947217" lon="10.8440183"><ele>100.00000000000001</ele><time>2026-04-26T09:12:49.785Z</time></trkpt><trkpt lat="45.5946367" lon="10.8439967"><ele>100.0</ele><time>2026-04-26T09:12:50.785Z</time></trkpt><trkpt lat="45.5945733" lon="10.8439767"><ele>100.0</ele><time>2026-04-26T09:12:51.785Z</time></trkpt><trkpt lat="45.5944867" lon="10.8439783"><ele>100.0</ele><time>2026-04-26T09:12:53.785Z</time></trkpt><trkpt lat="45.5944233" lon="10.8441017"><ele>100.00000000000001</ele><time>2026-04-26T09:12:55.785Z</time></trkpt><trkpt lat="45.5943917" lon="10.8442383"><ele>100.0</ele><time>2026-04-26T09:12:56.785Z</time></trkpt><trkpt lat="45.59436" lon="10.8444133"><ele>100.75</ele><time>2026-04-26T09:12:57.786Z</time></trkpt><trkpt lat="45.5943333" lon="10.8446167"><ele>101.5</ele><time>2026-04-26T09:12:58.785Z</time></trkpt><trkpt lat="45.594305" lon="10.8447933"><ele>102.25</ele><time>2026-04-26T09:12:59.786Z</time></trkpt><trkpt lat="45.5942767" lon="10.8449317"><ele>103.0</ele><time>2026-04-26T09:13:00.785Z</time></trkpt><trkpt lat="45.5942567" lon="10.845055"><ele>102.50000000000001</ele><time>2026-04-26T09:13:01.785Z</time></trkpt><trkpt lat="45.5942367" lon="10.84516"><ele>102.0</ele><time>2026-04-26T09:13:02.785Z</time></trkpt><trkpt lat="45.5942133" lon="10.84525"><ele>101.5</ele><time>2026-04-26T09:13:03.785Z</time></trkpt><trkpt lat="45.59416" lon="10.8453683"><ele>101.0</ele><time>2026-04-26T09:13:05.785Z</time></trkpt><trkpt lat="45.59409" lon="10.8453717"><ele>100.50000000000001</ele><time>2026-04-26T09:13:07.785Z</time></trkpt><trkpt lat="45.594015" lon="10.84532"><ele>100.0</ele><time>2026-04-26T09:13:08.785Z</time></trkpt><trkpt lat="45.59392" lon="10.8452683"><ele>100.0</ele><time>2026-04-26T09:13:09.786Z</time></trkpt><trkpt lat="45.5938067" lon="10.8452167"><ele>100.0</ele><time>2026-04-26T09:13:10.785Z</time></trkpt><trkpt lat="45.5937083" lon="10.84517"><ele>100.0</ele><time>2026-04-26T09:13:11.785Z</time></trkpt><trkpt lat="45.5936283" lon="10.84513"><ele>100.0</ele><time>2026-04-26T09:13:12.785Z</time></trkpt><trkpt lat="45.59353" lon="10.8450617"><ele>100.0</ele><time>2026-04-26T09:13:14.785Z</time></trkpt><trkpt lat="45.593505" lon="10.844905"><ele>100.33333333333334</ele><time>2026-04-26T09:13:16.786Z</time></trkpt><trkpt lat="45.5935167" lon="10.8447967"><ele>100.66666666666667</ele><time>2026-04-26T09:13:17.785Z</time></trkpt><trkpt lat="45.59355" lon="10.84467"><ele>101.0</ele><time>2026-04-26T09:13:18.786Z</time></trkpt><trkpt lat="45.5935567" lon="10.8445533"><ele>101.33333333333334</ele><time>2026-04-26T09:13:19.785Z</time></trkpt><trkpt lat="45.593565" lon="10.8444633"><ele>101.66666666666667</ele><time>2026-04-26T09:13:20.785Z</time></trkpt><trkpt lat="45.59356" lon="10.8443333"><ele>102.0</ele><time>2026-04-26T09:13:22.786Z</time></trkpt><trkpt lat="45.593455" lon="10.8442883"><ele>102.0</ele><time>2026-04-26T09:13:24.786Z</time></trkpt><trkpt lat="45.59337" lon="10.8442767"><ele>102.0</ele><time>2026-04-26T09:13:25.786Z</time></trkpt><trkpt lat="45.5932633" lon="10.8442683"><ele>102.0</ele><time>2026-04-26T09:13:26.785Z</time></trkpt><trkpt lat="45.59317" lon="10.84426"><ele>102.0</ele><time>2026-04-26T09:13:27.785Z</time></trkpt><trkpt lat="45.5930767" lon="10.8442517"><ele>102.0</ele><time>2026-04-26T09:13:28.785Z</time></trkpt><trkpt lat="45.5929933" lon="10.8442433"><ele>102.0</ele><time>2026-04-26T09:13:29.785Z</time></trkpt><trkpt lat="45.592885" lon="10.8442367"><ele>102.0</ele><time>2026-04-26T09:13:31.785Z</time></trkpt><trkpt lat="45.5928283" lon="10.8441617"><ele>102.0</ele><time>2026-04-26T09:13:33.785Z</time></trkpt><trkpt lat="45.5928433" lon="10.84397"><ele>102.0</ele><time>2026-04-26T09:13:35.785Z</time></trkpt><trkpt lat="45.5928583" lon="10.8438183"><ele>102.0</ele><time>2026-04-26T09:13:37.785Z</time></trkpt><trkpt lat="45.5927683" lon="10.8437733"><ele>101.39999999999999</ele><time>2026-04-26T09:13:39.785Z</time></trkpt><trkpt lat="45.5927017" lon="10.8437783"><ele>100.8</ele><time>2026-04-26T09:13:40.785Z</time></trkpt><trkpt lat="45.5926083" lon="10.8437967"><ele>100.2</ele><time>2026-04-26T09:13:41.785Z</time></trkpt><trkpt lat="45.5924767" lon="10.843825"><ele>99.6</ele><time>2026-04-26T09:13:42.785Z</time></trkpt><trkpt lat="45.59234" lon="10.8438567"><ele>99.0</ele><time>2026-04-26T09:13:43.785Z</time></trkpt><trkpt lat="45.59221" lon="10.84388"><ele>99.0</ele><time>2026-04-26T09:13:44.785Z</time></trkpt><trkpt lat="45.5920967" lon="10.843895"><ele>99.0</ele><time>2026-04-26T09:13:45.785Z</time></trkpt><trkpt lat="45.59198" lon="10.8439083"><ele>99.0</ele><time>2026-04-26T09:13:46.785Z</time></trkpt><trkpt lat="45.5918567" lon="10.8439233"><ele>99.0</ele><time>2026-04-26T09:13:47.785Z</time></trkpt><trkpt lat="45.591735" lon="10.8439283"><ele>99.6</ele><time>2026-04-26T09:13:48.785Z</time></trkpt><trkpt lat="45.5916217" lon="10.8439417"><ele>100.2</ele><time>2026-04-26T09:13:49.785Z</time></trkpt><trkpt lat="45.5915167" lon="10.8439533"><ele>100.8</ele><time>2026-04-26T09:13:50.785Z</time></trkpt><trkpt lat="45.5914183" lon="10.8439583"><ele>101.39999999999999</ele><time>2026-04-26T09:13:51.785Z</time></trkpt><trkpt lat="45.5913167" lon="10.8439617"><ele>102.0</ele><time>2026-04-26T09:13:52.785Z</time></trkpt><trkpt lat="45.5912083" lon="10.843945"><ele>101.8</ele><time>2026-04-26T09:13:53.785Z</time></trkpt><trkpt lat="45.5911033" lon="10.8439417"><ele>101.6</ele><time>2026-04-26T09:13:54.785Z</time></trkpt><trkpt lat="45.590995" lon="10.8439567"><ele>101.39999999999999</ele><time>2026-04-26T09:13:55.785Z</time></trkpt><trkpt lat="45.5908867" lon="10.8439867"><ele>101.19999999999999</ele><time>2026-04-26T09:13:56.785Z</time></trkpt><trkpt lat="45.590775" lon="10.8440167"><ele>101.0</ele><time>2026-04-26T09:13:57.786Z</time></trkpt><trkpt lat="45.5906517" lon="10.8440533"><ele>101.0</ele><time>2026-04-26T09:13:58.785Z</time></trkpt><trkpt lat="45.5905367" lon="10.8440833"><ele>101.0</ele><time>2026-04-26T09:13:59.785Z</time></trkpt><trkpt lat="45.5904183" lon="10.8441183"><ele>101.0</ele><time>2026-04-26T09:14:00.786Z</time></trkpt><trkpt lat="45.5902983" lon="10.84414"><ele>101.0</ele><time>2026-04-26T09:14:01.785Z</time></trkpt><trkpt lat="45.5901783" lon="10.8441567"><ele>101.0</ele><time>2026-04-26T09:14:02.785Z</time></trkpt><trkpt lat="45.590065" lon="10.8441733"><ele>101.0</ele><time>2026-04-26T09:14:03.786Z</time></trkpt><trkpt lat="45.589945" lon="10.8441883"><ele>101.0</ele><time>2026-04-26T09:14:04.784Z</time></trkpt><trkpt lat="45.5898167" lon="10.8442067"><ele>101.0</ele><time>2026-04-26T09:14:05.785Z</time></trkpt><trkpt lat="45.58969" lon="10.84423"><ele>101.0</ele><time>2026-04-26T09:14:06.784Z</time></trkpt><trkpt lat="45.5895717" lon="10.8442383"><ele>101.0</ele><time>2026-04-26T09:14:07.785Z</time></trkpt><trkpt lat="45.5894533" lon="10.8442517"><ele>101.0</ele><time>2026-04-26T09:14:08.784Z</time></trkpt><trkpt lat="45.589325" lon="10.8442733"><ele>101.0</ele><time>2026-04-26T09:14:09.784Z</time></trkpt><trkpt lat="45.5892017" lon="10.8442967"><ele>101.0</ele><time>2026-04-26T09:14:10.784Z</time></trkpt><trkpt lat="45.5890867" lon="10.8443267"><ele>101.0</ele><time>2026-04-26T09:14:11.784Z</time></trkpt><trkpt lat="45.588965" lon="10.8443683"><ele>101.0</ele><time>2026-04-26T09:14:12.784Z</time></trkpt><trkpt lat="45.5888383" lon="10.84442"><ele>101.0</ele><time>2026-04-26T09:14:13.785Z</time></trkpt><trkpt lat="45.5887083" lon="10.8444717"><ele>100.75</ele><time>2026-04-26T09:14:14.785Z</time></trkpt><trkpt lat="45.5885683" lon="10.8445283"><ele>100.5</ele><time>2026-04-26T09:14:15.784Z</time></trkpt><trkpt lat="45.5884333" lon="10.8445783"><ele>100.25</ele><time>2026-04-26T09:14:16.785Z</time></trkpt><trkpt lat="45.5883067" lon="10.8446217"><ele>100.0</ele><time>2026-04-26T09:14:17.784Z</time></trkpt><trkpt lat="45.5881867" lon="10.8446583"><ele>100.00000000000001</ele><time>2026-04-26T09:14:18.785Z</time></trkpt><trkpt lat="45.58808" lon="10.8446883"><ele>100.0</ele><time>2026-04-26T09:14:19.784Z</time></trkpt><trkpt lat="45.5879917" lon="10.8447133"><ele>100.0</ele><time>2026-04-26T09:14:20.784Z</time></trkpt><trkpt lat="45.5879133" lon="10.8447417"><ele>100.0</ele><time>2026-04-26T09:14:21.784Z</time></trkpt><trkpt lat="45.5878383" lon="10.844775"><ele>100.00000000000001</ele><time>2026-04-26T09:14:22.785Z</time></trkpt><trkpt lat="45.587775" lon="10.8448267"><ele>100.0</ele><time>2026-04-26T09:14:23.785Z</time></trkpt><trkpt lat="45.5877183" lon="10.8448933"><ele>99.71428571428572</ele><time>2026-04-26T09:14:24.784Z</time></trkpt><trkpt lat="45.5876767" lon="10.8449783"><ele>99.42857142857143</ele><time>2026-04-26T09:14:25.784Z</time></trkpt><trkpt lat="45.5876483" lon="10.8450733"><ele>99.14285714285714</ele><time>2026-04-26T09:14:26.784Z</time></trkpt><trkpt lat="45.587625" lon="10.84518"><ele>98.85714285714286</ele><time>2026-04-26T09:14:27.784Z</time></trkpt><trkpt lat="45.587605" lon="10.845295"><ele>98.57142857142857</ele><time>2026-04-26T09:14:28.784Z</time></trkpt><trkpt lat="45.5875883" lon="10.845385"><ele>98.28571428571429</ele><time>2026-04-26T09:14:29.784Z</time></trkpt><trkpt lat="45.58757" lon="10.8454883"><ele>98.0</ele><time>2026-04-26T09:14:31.785Z</time></trkpt><trkpt lat="45.587625" lon="10.8455567"><ele>98.80000000000001</ele><time>2026-04-26T09:14:39.784Z</time></trkpt><trkpt lat="45.58771" lon="10.8455933"><ele>99.6</ele><time>2026-04-26T09:14:40.785Z</time></trkpt><trkpt lat="45.5878067" lon="10.8456267"><ele>100.4</ele><time>2026-04-26T09:14:41.785Z</time></trkpt><trkpt lat="45.58791" lon="10.845675"><ele>101.19999999999999</ele><time>2026-04-26T09:14:42.785Z</time></trkpt><trkpt lat="45.588015" lon="10.8457133"><ele>102.0</ele><time>2026-04-26T09:14:43.785Z</time></trkpt><trkpt lat="45.5881217" lon="10.8457567"><ele>102.0</ele><time>2026-04-26T09:14:44.785Z</time></trkpt><trkpt lat="45.5882333" lon="10.8458017"><ele>102.0</ele><time>2026-04-26T09:14:45.785Z</time></trkpt><trkpt lat="45.588365" lon="10.8458333"><ele>102.0</ele><time>2026-04-26T09:14:46.784Z</time></trkpt><trkpt lat="45.5884833" lon="10.8458767"><ele>102.0</ele><time>2026-04-26T09:14:47.784Z</time></trkpt><trkpt lat="45.5886017" lon="10.8459117"><ele>102.25</ele><time>2026-04-26T09:14:48.784Z</time></trkpt><trkpt lat="45.5887333" lon="10.845915"><ele>102.5</ele><time>2026-04-26T09:14:49.785Z</time></trkpt><trkpt lat="45.5888567" lon="10.8459467"><ele>102.75</ele><time>2026-04-26T09:14:50.785Z</time></trkpt><trkpt lat="45.5889833" lon="10.8459833"><ele>103.0</ele><time>2026-04-26T09:14:51.785Z</time></trkpt><trkpt lat="45.5891183" lon="10.8460383"><ele>103.2</ele><time>2026-04-26T09:14:52.785Z</time></trkpt><trkpt lat="45.5892283" lon="10.8460833"><ele>103.4</ele><time>2026-04-26T09:14:53.785Z</time></trkpt><trkpt lat="45.5893317" lon="10.8461283"><ele>103.60000000000001</ele><time>2026-04-26T09:14:54.785Z</time></trkpt><trkpt lat="45.5894417" lon="10.8461667"><ele>103.80000000000001</ele><time>2026-04-26T09:14:55.784Z</time></trkpt><trkpt lat="45.5895517" lon="10.8462017"><ele>104.0</ele><time>2026-04-26T09:14:56.784Z</time></trkpt><trkpt lat="45.5896433" lon="10.8462417"><ele>103.6</ele><time>2026-04-26T09:14:57.784Z</time></trkpt><trkpt lat="45.58974" lon="10.8462833"><ele>103.2</ele><time>2026-04-26T09:14:58.784Z</time></trkpt><trkpt lat="45.5898367" lon="10.8463133"><ele>102.8</ele><time>2026-04-26T09:14:59.784Z</time></trkpt><trkpt lat="45.5899267" lon="10.8463417"><ele>102.39999999999999</ele><time>2026-04-26T09:15:00.784Z</time></trkpt><trkpt lat="45.5900117" lon="10.846375"><ele>102.0</ele><time>2026-04-26T09:15:01.784Z</time></trkpt><trkpt lat="45.5900983" lon="10.8464133"><ele>102.0</ele><time>2026-04-26T09:15:02.785Z</time></trkpt><trkpt lat="45.5901817" lon="10.84645"><ele>102.0</ele><time>2026-04-26T09:15:03.784Z</time></trkpt><trkpt lat="45.5902517" lon="10.8464817"><ele>102.0</ele><time>2026-04-26T09:15:04.784Z</time></trkpt><trkpt lat="45.5903183" lon="10.84651"><ele>102.0</ele><time>2026-04-26T09:15:05.784Z</time></trkpt><trkpt lat="45.590395" lon="10.8465367"><ele>102.0</ele><time>2026-04-26T09:15:06.785Z</time></trkpt><trkpt lat="45.5904633" lon="10.846565"><ele>102.0</ele><time>2026-04-26T09:15:07.784Z</time></trkpt><trkpt lat="45.5905617" lon="10.8466083"><ele>102.19999999999999</ele><time>2026-04-26T09:15:09.784Z</time></trkpt><trkpt lat="45.59061" lon="10.8466883"><ele>102.4</ele><time>2026-04-26T09:15:11.784Z</time></trkpt><trkpt lat="45.5906483" lon="10.84681"><ele>102.6</ele><time>2026-04-26T09:15:13.784Z</time></trkpt><trkpt lat="45.590655" lon="10.84697"><ele>102.80000000000001</ele><time>2026-04-26T09:15:15.784Z</time></trkpt><trkpt lat="45.5906217" lon="10.84712"><ele>103.0</ele><time>2026-04-26T09:15:17.785Z</time></trkpt><trkpt lat="45.5905533" lon="10.8472683"><ele>103.00000000000001</ele><time>2026-04-26T09:15:19.784Z</time></trkpt><trkpt lat="45.5905183" lon="10.8473667"><ele>103.0</ele><time>2026-04-26T09:15:20.784Z</time></trkpt><trkpt lat="45.590485" lon="10.8474633"><ele>103.0</ele><time>2026-04-26T09:15:21.784Z</time></trkpt><trkpt lat="45.59044" lon="10.8475583"><ele>103.0</ele><time>2026-04-26T09:15:22.785Z</time></trkpt><trkpt lat="45.590375" lon="10.8477133"><ele>103.00000000000001</ele><time>2026-04-26T09:15:24.784Z</time></trkpt><trkpt lat="45.59034" lon="10.8478267"><ele>103.0</ele><time>2026-04-26T09:15:26.784Z</time></trkpt><trkpt lat="45.5902467" lon="10.84785"><ele>103.0</ele><time>2026-04-26T09:15:47.785Z</time></trkpt><trkpt lat="45.5901783" lon="10.847805"><ele>103.0</ele><time>2026-04-26T09:15:48.785Z</time></trkpt><trkpt lat="45.5901033" lon="10.847755"><ele>103.0</ele><time>2026-04-26T09:15:49.785Z</time></trkpt><trkpt lat="45.590015" lon="10.8476983"><ele>103.0</ele><time>2026-04-26T09:15:50.785Z</time></trkpt><trkpt lat="45.58991" lon="10.8476383"><ele>103.0</ele><time>2026-04-26T09:15:51.785Z</time></trkpt><trkpt lat="45.589795" lon="10.8475733"><ele>103.0</ele><time>2026-04-26T09:15:52.785Z</time></trkpt><trkpt lat="45.5896867" lon="10.847525"><ele>103.0</ele><time>2026-04-26T09:15:53.784Z</time></trkpt><trkpt lat="45.5895883" lon="10.847475"><ele>103.0</ele><time>2026-04-26T09:15:54.785Z</time></trkpt><trkpt lat="45.589495" lon="10.84743"><ele>103.0</ele><time>2026-04-26T09:15:55.784Z</time></trkpt><trkpt lat="45.5893983" lon="10.8473733"><ele>103.0</ele><time>2026-04-26T09:15:56.784Z</time></trkpt><trkpt lat="45.5893017" lon="10.8473233"><ele>104.4</ele><time>2026-04-26T09:15:57.784Z</time></trkpt><trkpt lat="45.5891933" lon="10.8472783"><ele>105.80000000000001</ele><time>2026-04-26T09:15:58.785Z</time></trkpt><trkpt lat="45.5890883" lon="10.8472267"><ele>107.2</ele><time>2026-04-26T09:15:59.784Z</time></trkpt><trkpt lat="45.5890067" lon="10.847175"><ele>108.6</ele><time>2026-04-26T09:16:00.784Z</time></trkpt><trkpt lat="45.58893" lon="10.84713"><ele>110.0</ele><time>2026-04-26T09:16:01.784Z</time></trkpt><trkpt lat="45.5888633" lon="10.847095"><ele>109.99999999999999</ele><time>2026-04-26T09:16:02.784Z</time></trkpt><trkpt lat="45.5888017" lon="10.8470617"><ele>110.0</ele><time>2026-04-26T09:16:03.784Z</time></trkpt><trkpt lat="45.58869" lon="10.8470433"><ele>110.0</ele><time>2026-04-26T09:16:05.784Z</time></trkpt><trkpt lat="45.58861" lon="10.847045"><ele>110.0</ele><time>2026-04-26T09:16:06.784Z</time></trkpt><trkpt lat="45.5885383" lon="10.8470317"><ele>109.99999999999999</ele><time>2026-04-26T09:16:07.784Z</time></trkpt><trkpt lat="45.5884417" lon="10.8470283"><ele>110.0</ele><time>2026-04-26T09:16:09.784Z</time></trkpt><trkpt lat="45.5884767" lon="10.8471117"><ele>109.99999999999999</ele><time>2026-04-26T09:16:14.785Z</time></trkpt><trkpt lat="45.5885433" lon="10.8471517"><ele>110.0</ele><time>2026-04-26T09:16:15.784Z</time></trkpt><trkpt lat="45.588635" lon="10.8472233"><ele>110.0</ele><time>2026-04-26T09:16:17.785Z</time></trkpt><trkpt lat="45.588705" lon="10.8472917"><ele>110.0</ele><time>2026-04-26T09:16:19.784Z</time></trkpt><trkpt lat="45.5887317" lon="10.8474067"><ele>109.99999999999999</ele><time>2026-04-26T09:16:22.784Z</time></trkpt><trkpt lat="45.5886483" lon="10.8474417"><ele>110.0</ele><time>2026-04-26T09:16:29.785Z</time></trkpt><trkpt lat="45.5885517" lon="10.8474033"><ele>111.33333333333333</ele><time>2026-04-26T09:16:31.785Z</time></trkpt><trkpt lat="45.5884867" lon="10.8473767"><ele>112.66666666666666</ele><time>2026-04-26T09:16:32.785Z</time></trkpt><trkpt lat="45.5884133" lon="10.8473533"><ele>114.0</ele><time>2026-04-26T09:16:33.784Z</time></trkpt><trkpt lat="45.58833" lon="10.8473067"><ele>115.33333333333334</ele><time>2026-04-26T09:16:34.784Z</time></trkpt><trkpt lat="45.5882483" lon="10.8472583"><ele>116.66666666666667</ele><time>2026-04-26T09:16:35.785Z</time></trkpt><trkpt lat="45.5881683" lon="10.8472117"><ele>118.0</ele><time>2026-04-26T09:16:36.784Z</time></trkpt><trkpt lat="45.5881" lon="10.8471533"><ele>118.0</ele><time>2026-04-26T09:16:37.784Z</time></trkpt><trkpt lat="45.5880233" lon="10.8470917"><ele>118.00000000000001</ele><time>2026-04-26T09:16:38.784Z</time></trkpt><trkpt lat="45.5879417" lon="10.8470233"><ele>118.00000000000001</ele><time>2026-04-26T09:16:39.784Z</time></trkpt><trkpt lat="45.587855" lon="10.8469583"><ele>118.0</ele><time>2026-04-26T09:16:40.784Z</time></trkpt><trkpt lat="45.58777" lon="10.8468967"><ele>118.0</ele><time>2026-04-26T09:16:41.784Z</time></trkpt><trkpt lat="45.5876817" lon="10.84683"><ele>116.75</ele><time>2026-04-26T09:16:42.784Z</time></trkpt><trkpt lat="45.587585" lon="10.8467583"><ele>115.5</ele><time>2026-04-26T09:16:43.784Z</time></trkpt><trkpt lat="45.587485" lon="10.8466683"><ele>114.25</ele><time>2026-04-26T09:16:44.784Z</time></trkpt><trkpt lat="45.58738" lon="10.846575"><ele>113.0</ele><time>2026-04-26T09:16:45.785Z</time></trkpt><trkpt lat="45.5872717" lon="10.846475"><ele>113.0</ele><time>2026-04-26T09:16:46.785Z</time></trkpt><trkpt lat="45.5871567" lon="10.8463783"><ele>113.0</ele><time>2026-04-26T09:16:47.785Z</time></trkpt><trkpt lat="45.5870417" lon="10.8462767"><ele>113.0</ele><time>2026-04-26T09:16:48.784Z</time></trkpt><trkpt lat="45.58693" lon="10.8461583"><ele>113.0</ele><time>2026-04-26T09:16:49.784Z</time></trkpt><trkpt lat="45.5868133" lon="10.84604"><ele>112.0</ele><time>2026-04-26T09:16:50.785Z</time></trkpt><trkpt lat="45.58669" lon="10.8459317"><ele>111.0</ele><time>2026-04-26T09:16:51.784Z</time></trkpt><trkpt lat="45.5865583" lon="10.8458217"><ele>110.0</ele><time>2026-04-26T09:16:52.784Z</time></trkpt><trkpt lat="45.5864267" lon="10.8457017"><ele>110.0</ele><time>2026-04-26T09:16:53.784Z</time></trkpt><trkpt lat="45.5862933" lon="10.845565"><ele>110.0</ele><time>2026-04-26T09:16:54.784Z</time></trkpt><trkpt lat="45.586155" lon="10.845435"><ele>110.0</ele><time>2026-04-26T09:16:55.783Z</time></trkpt><trkpt lat="45.586015" lon="10.845305"><ele>110.33333333333333</ele><time>2026-04-26T09:16:56.783Z</time></trkpt><trkpt lat="45.5858783" lon="10.8451817"><ele>110.66666666666666</ele><time>2026-04-26T09:16:57.784Z</time></trkpt><trkpt lat="45.5857383" lon="10.8450483"><ele>111.0</ele><time>2026-04-26T09:16:58.783Z</time></trkpt><trkpt lat="45.5855983" lon="10.844915"><ele>111.0</ele><time>2026-04-26T09:16:59.783Z</time></trkpt><trkpt lat="45.5854583" lon="10.8447817"><ele>111.0</ele><time>2026-04-26T09:17:00.783Z</time></trkpt><trkpt lat="45.5853133" lon="10.8446317"><ele>111.0</ele><time>2026-04-26T09:17:01.783Z</time></trkpt><trkpt lat="45.58519" lon="10.8444717"><ele>111.33333333333334</ele><time>2026-04-26T09:17:02.784Z</time></trkpt><trkpt lat="45.5850567" lon="10.8443217"><ele>111.66666666666667</ele><time>2026-04-26T09:17:03.783Z</time></trkpt><trkpt lat="45.584915" lon="10.8441767"><ele>112.0</ele><time>2026-04-26T09:17:04.783Z</time></trkpt><trkpt lat="45.58478" lon="10.8440333"><ele>112.0</ele><time>2026-04-26T09:17:05.784Z</time></trkpt><trkpt lat="45.5846433" lon="10.8438817"><ele>112.0</ele><time>2026-04-26T09:17:06.784Z</time></trkpt><trkpt lat="45.5844967" lon="10.843725"><ele>112.0</ele><time>2026-04-26T09:17:07.783Z</time></trkpt><trkpt lat="45.5843583" lon="10.84357"><ele>114.66666666666667</ele><time>2026-04-26T09:17:08.784Z</time></trkpt><trkpt lat="45.58423" lon="10.8434083"><ele>117.33333333333334</ele><time>2026-04-26T09:17:09.784Z</time></trkpt><trkpt lat="45.5841117" lon="10.843245"><ele>120.0</ele><time>2026-04-26T09:17:10.783Z</time></trkpt><trkpt lat="45.5839983" lon="10.8430717"><ele>120.0</ele><time>2026-04-26T09:17:11.783Z</time></trkpt><trkpt lat="45.5838817" lon="10.84289"><ele>120.0</ele><time>2026-04-26T09:17:12.784Z</time></trkpt><trkpt lat="45.5837683" lon="10.8426983"><ele>120.0</ele><time>2026-04-26T09:17:13.784Z</time></trkpt><trkpt lat="45.5836567" lon="10.8425067"><ele>123.0</ele><time>2026-04-26T09:17:14.783Z</time></trkpt><trkpt lat="45.5835483" lon="10.8423217"><ele>126.0</ele><time>2026-04-26T09:17:15.784Z</time></trkpt><trkpt lat="45.5834333" lon="10.84213"><ele>129.0</ele><time>2026-04-26T09:17:16.783Z</time></trkpt><trkpt lat="45.5833233" lon="10.8419417"><ele>122.66666666666666</ele><time>2026-04-26T09:17:17.783Z</time></trkpt><trkpt lat="45.5832133" lon="10.8417483"><ele>116.33333333333333</ele><time>2026-04-26T09:17:18.783Z</time></trkpt><trkpt lat="45.58311" lon="10.8415533"><ele>110.0</ele><time>2026-04-26T09:17:19.783Z</time></trkpt><trkpt lat="45.5830117" lon="10.8413583"><ele>110.0</ele><time>2026-04-26T09:17:20.783Z</time></trkpt><trkpt lat="45.5829283" lon="10.84116"><ele>110.0</ele><time>2026-04-26T09:17:21.783Z</time></trkpt><trkpt lat="45.5828317" lon="10.84096"><ele>110.0</ele><time>2026-04-26T09:17:22.784Z</time></trkpt><trkpt lat="45.5827383" lon="10.8407533"><ele>116.0</ele><time>2026-04-26T09:17:23.784Z</time></trkpt><trkpt lat="45.58265" lon="10.8405583"><ele>122.0</ele><time>2026-04-26T09:17:24.783Z</time></trkpt><trkpt lat="45.5825733" lon="10.8403683"><ele>128.0</ele><time>2026-04-26T09:17:25.783Z</time></trkpt><trkpt lat="45.582485" lon="10.8401417"><ele>122.66666666666666</ele><time>2026-04-26T09:17:26.784Z</time></trkpt><trkpt lat="45.5824167" lon="10.8399117"><ele>117.33333333333334</ele><time>2026-04-26T09:17:27.783Z</time></trkpt><trkpt lat="45.5823333" lon="10.839625"><ele>112.0</ele><time>2026-04-26T09:17:28.783Z</time></trkpt><trkpt lat="45.5822567" lon="10.83939"><ele>110.0</ele><time>2026-04-26T09:17:29.784Z</time></trkpt><trkpt lat="45.5821783" lon="10.8391617"><ele>108.0</ele><time>2026-04-26T09:17:30.783Z</time></trkpt><trkpt lat="45.58211" lon="10.8389017"><ele>106.0</ele><time>2026-04-26T09:17:31.784Z</time></trkpt><trkpt lat="45.5820433" lon="10.8386817"><ele>109.66666666666667</ele><time>2026-04-26T09:17:32.783Z</time></trkpt><trkpt lat="45.58197" lon="10.8384617"><ele>113.33333333333334</ele><time>2026-04-26T09:17:33.783Z</time></trkpt><trkpt lat="45.581905" lon="10.838225"><ele>117.0</ele><time>2026-04-26T09:17:34.783Z</time></trkpt><trkpt lat="45.581825" lon="10.8380133"><ele>117.0</ele><time>2026-04-26T09:17:35.783Z</time></trkpt><trkpt lat="45.5817317" lon="10.8378017"><ele>117.0</ele><time>2026-04-26T09:17:36.783Z</time></trkpt><trkpt lat="45.5816517" lon="10.8376017"><ele>117.0</ele><time>2026-04-26T09:17:37.783Z</time></trkpt><trkpt lat="45.5815717" lon="10.83739"><ele>113.66666666666666</ele><time>2026-04-26T09:17:38.783Z</time></trkpt><trkpt lat="45.5814883" lon="10.837175"><ele>110.33333333333333</ele><time>2026-04-26T09:17:39.783Z</time></trkpt><trkpt lat="45.5814067" lon="10.836955"><ele>107.0</ele><time>2026-04-26T09:17:40.783Z</time></trkpt><trkpt lat="45.5813217" lon="10.83674"><ele>106.0</ele><time>2026-04-26T09:17:41.783Z</time></trkpt><trkpt lat="45.58124" lon="10.8365217"><ele>105.0</ele><time>2026-04-26T09:17:42.784Z</time></trkpt><trkpt lat="45.5811683" lon="10.8363033"><ele>104.0</ele><time>2026-04-26T09:17:43.783Z</time></trkpt><trkpt lat="45.5811167" lon="10.8360883"><ele>104.0</ele><time>2026-04-26T09:17:44.784Z</time></trkpt><trkpt lat="45.5810567" lon="10.8358967"><ele>104.0</ele><time>2026-04-26T09:17:45.783Z</time></trkpt><trkpt lat="45.5810117" lon="10.8357417"><ele>104.0</ele><time>2026-04-26T09:17:46.784Z</time></trkpt><trkpt lat="45.58098" lon="10.835625"><ele>104.0</ele><time>2026-04-26T09:17:47.783Z</time></trkpt><trkpt lat="45.5809633" lon="10.8355133"><ele>104.0</ele><time>2026-04-26T09:17:49.783Z</time></trkpt><trkpt lat="45.5809717" lon="10.835395"><ele>104.0</ele><time>2026-04-26T09:17:54.783Z</time></trkpt><trkpt lat="45.58108" lon="10.8354367"><ele>104.0</ele><time>2026-04-26T09:17:56.783Z</time></trkpt><trkpt lat="45.58115" lon="10.8354833"><ele>104.0</ele><time>2026-04-26T09:17:58.783Z</time></trkpt><trkpt lat="45.5811217" lon="10.835565"><ele>104.0</ele><time>2026-04-26T09:18:00.784Z</time></trkpt><trkpt lat="45.5810217" lon="10.835625"><ele>104.0</ele><time>2026-04-26T09:18:02.783Z</time></trkpt><trkpt lat="45.58106" lon="10.8354833"><ele>104.0</ele><time>2026-04-26T09:18:04.783Z</time></trkpt><trkpt lat="45.5810867" lon="10.8353317"><ele>104.0</ele><time>2026-04-26T09:18:05.784Z</time></trkpt><trkpt lat="45.5810933" lon="10.8351617"><ele>104.0</ele><time>2026-04-26T09:18:06.783Z</time></trkpt><trkpt lat="45.581065" lon="10.8349333"><ele>104.0</ele><time>2026-04-26T09:18:07.783Z</time></trkpt><trkpt lat="45.5810283" lon="10.83473"><ele>103.66666666666666</ele><time>2026-04-26T09:18:08.783Z</time></trkpt><trkpt lat="45.5809867" lon="10.834525"><ele>103.33333333333334</ele><time>2026-04-26T09:18:09.784Z</time></trkpt><trkpt lat="45.580925" lon="10.8343517"><ele>103.0</ele><time>2026-04-26T09:18:10.783Z</time></trkpt><trkpt lat="45.5809383" lon="10.8340867"><ele>102.66666666666667</ele><time>2026-04-26T09:18:11.783Z</time></trkpt><trkpt lat="45.5809433" lon="10.833825"><ele>102.33333333333334</ele><time>2026-04-26T09:18:12.784Z</time></trkpt><trkpt lat="45.5809533" lon="10.8335567"><ele>102.0</ele><time>2026-04-26T09:18:13.784Z</time></trkpt><trkpt lat="45.580975" lon="10.8332767"><ele>101.0</ele><time>2026-04-26T09:18:14.783Z</time></trkpt><trkpt lat="45.580995" lon="10.832995"><ele>100.0</ele><time>2026-04-26T09:18:15.783Z</time></trkpt><trkpt lat="45.58101" lon="10.8327333"><ele>99.0</ele><time>2026-04-26T09:18:16.783Z</time></trkpt><trkpt lat="45.5810067" lon="10.8324717"><ele>98.66666666666666</ele><time>2026-04-26T09:18:17.784Z</time></trkpt><trkpt lat="45.5810183" lon="10.8322283"><ele>98.33333333333333</ele><time>2026-04-26T09:18:18.784Z</time></trkpt><trkpt lat="45.5810333" lon="10.8320233"><ele>98.0</ele><time>2026-04-26T09:18:19.783Z</time></trkpt><trkpt lat="45.58106" lon="10.8318267"><ele>98.0</ele><time>2026-04-26T09:18:20.783Z</time></trkpt><trkpt lat="45.5811" lon="10.83166"><ele>98.0</ele><time>2026-04-26T09:18:21.784Z</time></trkpt><trkpt lat="45.5811167" lon="10.8314783"><ele>98.0</ele><time>2026-04-26T09:18:22.784Z</time></trkpt><trkpt lat="45.5811233" lon="10.8313033"><ele>98.0</ele><time>2026-04-26T09:18:23.784Z</time></trkpt><trkpt lat="45.5811217" lon="10.8311333"><ele>98.0</ele><time>2026-04-26T09:18:24.783Z</time></trkpt><trkpt lat="45.5811317" lon="10.83096"><ele>98.0</ele><time>2026-04-26T09:18:25.783Z</time></trkpt><trkpt lat="45.58113" lon="10.8307917"><ele>98.0</ele><time>2026-04-26T09:18:26.783Z</time></trkpt><trkpt lat="45.581135" lon="10.8306233"><ele>98.0</ele><time>2026-04-26T09:18:27.783Z</time></trkpt><trkpt lat="45.5811367" lon="10.8304583"><ele>98.0</ele><time>2026-04-26T09:18:28.783Z</time></trkpt><trkpt lat="45.5811517" lon="10.8302933"><ele>98.0</ele><time>2026-04-26T09:18:29.784Z</time></trkpt><trkpt lat="45.5811567" lon="10.83013"><ele>98.0</ele><time>2026-04-26T09:18:30.784Z</time></trkpt><trkpt lat="45.581145" lon="10.8299883"><ele>98.0</ele><time>2026-04-26T09:18:31.783Z</time></trkpt><trkpt lat="45.5811183" lon="10.82985"><ele>98.0</ele><time>2026-04-26T09:18:32.783Z</time></trkpt><trkpt lat="45.58107" lon="10.829715"><ele>98.2</ele><time>2026-04-26T09:18:33.783Z</time></trkpt><trkpt lat="45.581005" lon="10.8295817"><ele>98.4</ele><time>2026-04-26T09:18:34.784Z</time></trkpt><trkpt lat="45.58092" lon="10.8294583"><ele>98.60000000000001</ele><time>2026-04-26T09:18:35.783Z</time></trkpt><trkpt lat="45.5808467" lon="10.829345"><ele>98.80000000000001</ele><time>2026-04-26T09:18:36.783Z</time></trkpt><trkpt lat="45.5807783" lon="10.829235"><ele>99.0</ele><time>2026-04-26T09:18:37.783Z</time></trkpt><trkpt lat="45.5807167" lon="10.8291133"><ele>99.4</ele><time>2026-04-26T09:18:38.783Z</time></trkpt><trkpt lat="45.58066" lon="10.82899"><ele>99.80000000000001</ele><time>2026-04-26T09:18:39.783Z</time></trkpt><trkpt lat="45.5806017" lon="10.828865"><ele>100.19999999999999</ele><time>2026-04-26T09:18:40.784Z</time></trkpt><trkpt lat="45.58055" lon="10.8287533"><ele>100.6</ele><time>2026-04-26T09:18:41.783Z</time></trkpt><trkpt lat="45.580495" lon="10.82867"><ele>101.0</ele><time>2026-04-26T09:18:42.783Z</time></trkpt><trkpt lat="45.5804133" lon="10.8285883"><ele>100.83333333333333</ele><time>2026-04-26T09:18:43.784Z</time></trkpt><trkpt lat="45.580345" lon="10.8285333"><ele>100.66666666666666</ele><time>2026-04-26T09:18:44.784Z</time></trkpt><trkpt lat="45.5802833" lon="10.828475"><ele>100.5</ele><time>2026-04-26T09:18:45.784Z</time></trkpt><trkpt lat="45.58023" lon="10.8283883"><ele>100.33333333333334</ele><time>2026-04-26T09:18:46.783Z</time></trkpt><trkpt lat="45.5801783" lon="10.828305"><ele>100.16666666666667</ele><time>2026-04-26T09:18:47.784Z</time></trkpt><trkpt lat="45.58013" lon="10.828225"><ele>100.0</ele><time>2026-04-26T09:18:48.783Z</time></trkpt><trkpt lat="45.5800767" lon="10.8281567"><ele>100.0</ele><time>2026-04-26T09:18:49.783Z</time></trkpt><trkpt lat="45.5800283" lon="10.8280917"><ele>100.0</ele><time>2026-04-26T09:18:50.783Z</time></trkpt><trkpt lat="45.57994" lon="10.82798"><ele>100.0</ele><time>2026-04-26T09:18:52.783Z</time></trkpt><trkpt lat="45.5798683" lon="10.827865"><ele>100.0</ele><time>2026-04-26T09:18:54.784Z</time></trkpt><trkpt lat="45.5797967" lon="10.8277517"><ele>100.0</ele><time>2026-04-26T09:18:56.783Z</time></trkpt><trkpt lat="45.5797983" lon="10.82765"><ele>100.0</ele><time>2026-04-26T09:18:58.783Z</time></trkpt><trkpt lat="45.579875" lon="10.8274983"><ele>100.0</ele><time>2026-04-26T09:19:00.783Z</time></trkpt><trkpt lat="45.579945" lon="10.827375"><ele>100.0</ele><time>2026-04-26T09:19:01.783Z</time></trkpt><trkpt lat="45.58002" lon="10.827255"><ele>100.0</ele><time>2026-04-26T09:19:02.783Z</time></trkpt><trkpt lat="45.5801" lon="10.827135"><ele>100.0</ele><time>2026-04-26T09:19:03.783Z</time></trkpt><trkpt lat="45.580175" lon="10.82701"><ele>100.0</ele><time>2026-04-26T09:19:04.783Z</time></trkpt><trkpt lat="45.5802567" lon="10.826885"><ele>100.0</ele><time>2026-04-26T09:19:05.783Z</time></trkpt><trkpt lat="45.5803383" lon="10.8267533"><ele>100.0</ele><time>2026-04-26T09:19:06.783Z</time></trkpt><trkpt lat="45.5804183" lon="10.8266333"><ele>100.0</ele><time>2026-04-26T09:19:07.783Z</time></trkpt><trkpt lat="45.580495" lon="10.826505"><ele>100.0</ele><time>2026-04-26T09:19:08.784Z</time></trkpt><trkpt lat="45.5805717" lon="10.8263833"><ele>100.0</ele><time>2026-04-26T09:19:09.784Z</time></trkpt><trkpt lat="45.5806433" lon="10.8262483"><ele>100.0</ele><time>2026-04-26T09:19:10.783Z</time></trkpt><trkpt lat="45.580715" lon="10.8261067"><ele>99.8</ele><time>2026-04-26T09:19:11.783Z</time></trkpt><trkpt lat="45.58079" lon="10.8259767"><ele>99.6</ele><time>2026-04-26T09:19:12.783Z</time></trkpt><trkpt lat="45.5808567" lon="10.82585"><ele>99.4</ele><time>2026-04-26T09:19:13.784Z</time></trkpt><trkpt lat="45.58091" lon="10.8257267"><ele>99.2</ele><time>2026-04-26T09:19:14.783Z</time></trkpt><trkpt lat="45.580975" lon="10.8256117"><ele>99.0</ele><time>2026-04-26T09:19:15.783Z</time></trkpt><trkpt lat="45.5810517" lon="10.8255117"><ele>99.0</ele><time>2026-04-26T09:19:16.784Z</time></trkpt><trkpt lat="45.58113" lon="10.8254"><ele>99.0</ele><time>2026-04-26T09:19:17.783Z</time></trkpt><trkpt lat="45.5811917" lon="10.8252883"><ele>99.0</ele><time>2026-04-26T09:19:18.784Z</time></trkpt><trkpt lat="45.581245" lon="10.8251933"><ele>99.0</ele><time>2026-04-26T09:19:19.783Z</time></trkpt><trkpt lat="45.5812883" lon="10.8251083"><ele>99.0</ele><time>2026-04-26T09:19:20.783Z</time></trkpt><trkpt lat="45.5813267" lon="10.8250267"><ele>99.0</ele><time>2026-04-26T09:19:21.783Z</time></trkpt><trkpt lat="45.581355" lon="10.8248967"><ele>99.4</ele><time>2026-04-26T09:19:23.783Z</time></trkpt><trkpt lat="45.581345" lon="10.8247383"><ele>99.80000000000001</ele><time>2026-04-26T09:19:25.784Z</time></trkpt><trkpt lat="45.581315" lon="10.8246567"><ele>100.19999999999999</ele><time>2026-04-26T09:19:26.783Z</time></trkpt><trkpt lat="45.5812717" lon="10.8245517"><ele>100.6</ele><time>2026-04-26T09:19:27.784Z</time></trkpt><trkpt lat="45.5811917" lon="10.82441"><ele>101.0</ele><time>2026-04-26T09:19:28.784Z</time></trkpt><trkpt lat="45.581095" lon="10.82427"><ele>101.0</ele><time>2026-04-26T09:19:29.783Z</time></trkpt><trkpt lat="45.5810117" lon="10.82413"><ele>101.0</ele><time>2026-04-26T09:19:30.784Z</time></trkpt><trkpt lat="45.580925" lon="10.824015"><ele>101.0</ele><time>2026-04-26T09:19:31.784Z</time></trkpt><trkpt lat="45.5808467" lon="10.8239133"><ele>101.0</ele><time>2026-04-26T09:19:32.783Z</time></trkpt><trkpt lat="45.5807717" lon="10.8238267"><ele>101.0</ele><time>2026-04-26T09:19:33.784Z</time></trkpt><trkpt lat="45.5807033" lon="10.823765"><ele>101.0</ele><time>2026-04-26T09:19:34.783Z</time></trkpt><trkpt lat="45.58066" lon="10.8236933"><ele>101.0</ele><time>2026-04-26T09:19:35.784Z</time></trkpt><trkpt lat="45.5805817" lon="10.8236383"><ele>101.0</ele><time>2026-04-26T09:19:36.783Z</time></trkpt><trkpt lat="45.5804917" lon="10.8235917"><ele>101.0</ele><time>2026-04-26T09:19:37.784Z</time></trkpt><trkpt lat="45.580395" lon="10.823555"><ele>101.0</ele><time>2026-04-26T09:19:38.783Z</time></trkpt><trkpt lat="45.5802733" lon="10.823515"><ele>100.5</ele><time>2026-04-26T09:19:39.783Z</time></trkpt><trkpt lat="45.5801417" lon="10.8234733"><ele>100.0</ele><time>2026-04-26T09:19:40.783Z</time></trkpt><trkpt lat="45.5800133" lon="10.823425"><ele>99.5</ele><time>2026-04-26T09:19:41.783Z</time></trkpt><trkpt lat="45.5798883" lon="10.8233783"><ele>99.0</ele><time>2026-04-26T09:19:42.784Z</time></trkpt><trkpt lat="45.5797717" lon="10.8233367"><ele>99.0</ele><time>2026-04-26T09:19:43.783Z</time></trkpt><trkpt lat="45.5796467" lon="10.8233133"><ele>99.0</ele><time>2026-04-26T09:19:44.784Z</time></trkpt><trkpt lat="45.579515" lon="10.8232917"><ele>99.0</ele><time>2026-04-26T09:19:45.784Z</time></trkpt><trkpt lat="45.5793967" lon="10.823275"><ele>99.0</ele><time>2026-04-26T09:19:46.783Z</time></trkpt><trkpt lat="45.579285" lon="10.8232567"><ele>98.4</ele><time>2026-04-26T09:19:47.783Z</time></trkpt><trkpt lat="45.5791833" lon="10.8232317"><ele>97.80000000000001</ele><time>2026-04-26T09:19:48.783Z</time></trkpt><trkpt lat="45.5790833" lon="10.8231983"><ele>97.19999999999999</ele><time>2026-04-26T09:19:49.782Z</time></trkpt><trkpt lat="45.578975" lon="10.8231583"><ele>96.6</ele><time>2026-04-26T09:19:50.782Z</time></trkpt><trkpt lat="45.5788667" lon="10.8231167"><ele>96.0</ele><time>2026-04-26T09:19:51.782Z</time></trkpt><trkpt lat="45.5787667" lon="10.8230533"><ele>96.0</ele><time>2026-04-26T09:19:52.783Z</time></trkpt><trkpt lat="45.57866" lon="10.8229933"><ele>96.0</ele><time>2026-04-26T09:19:53.782Z</time></trkpt><trkpt lat="45.578555" lon="10.8229317"><ele>96.0</ele><time>2026-04-26T09:19:54.782Z</time></trkpt><trkpt lat="45.5784517" lon="10.8228767"><ele>96.0</ele><time>2026-04-26T09:19:55.782Z</time></trkpt><trkpt lat="45.5783517" lon="10.8228183"><ele>96.0</ele><time>2026-04-26T09:19:56.783Z</time></trkpt><trkpt lat="45.5782483" lon="10.8227633"><ele>96.0</ele><time>2026-04-26T09:19:57.782Z</time></trkpt><trkpt lat="45.5781467" lon="10.82269"><ele>96.0</ele><time>2026-04-26T09:19:58.782Z</time></trkpt><trkpt lat="45.5780417" lon="10.82261"><ele>96.0</ele><time>2026-04-26T09:19:59.782Z</time></trkpt><trkpt lat="45.5779317" lon="10.8225367"><ele>96.0</ele><time>2026-04-26T09:20:00.783Z</time></trkpt><trkpt lat="45.5778267" lon="10.8224667"><ele>96.0</ele><time>2026-04-26T09:20:01.783Z</time></trkpt><trkpt lat="45.57772" lon="10.822405"><ele>96.0</ele><time>2026-04-26T09:20:02.782Z</time></trkpt><trkpt lat="45.57762" lon="10.8223533"><ele>96.0</ele><time>2026-04-26T09:20:03.783Z</time></trkpt><trkpt lat="45.57752" lon="10.8222833"><ele>96.0</ele><time>2026-04-26T09:20:04.782Z</time></trkpt><trkpt lat="45.5774217" lon="10.8222233"><ele>96.0</ele><time>2026-04-26T09:20:05.782Z</time></trkpt><trkpt lat="45.577315" lon="10.8221833"><ele>96.0</ele><time>2026-04-26T09:20:06.783Z</time></trkpt><trkpt lat="45.57722" lon="10.82214"><ele>96.0</ele><time>2026-04-26T09:20:07.782Z</time></trkpt><trkpt lat="45.5771083" lon="10.8221183"><ele>96.0</ele><time>2026-04-26T09:20:08.782Z</time></trkpt><trkpt lat="45.5769867" lon="10.822105"><ele>96.0</ele><time>2026-04-26T09:20:09.782Z</time></trkpt><trkpt lat="45.57686" lon="10.8220683"><ele>96.5</ele><time>2026-04-26T09:20:10.782Z</time></trkpt><trkpt lat="45.5767267" lon="10.8220317"><ele>97.0</ele><time>2026-04-26T09:20:11.782Z</time></trkpt><trkpt lat="45.5765983" lon="10.8219917"><ele>97.5</ele><time>2026-04-26T09:20:12.783Z</time></trkpt><trkpt lat="45.576475" lon="10.8219567"><ele>98.0</ele><time>2026-04-26T09:20:13.783Z</time></trkpt><trkpt lat="45.57636" lon="10.8219117"><ele>98.0</ele><time>2026-04-26T09:20:14.783Z</time></trkpt><trkpt lat="45.576245" lon="10.82188"><ele>98.0</ele><time>2026-04-26T09:20:15.782Z</time></trkpt><trkpt lat="45.57614" lon="10.8218533"><ele>98.0</ele><time>2026-04-26T09:20:16.783Z</time></trkpt><trkpt lat="45.5760283" lon="10.82183"><ele>98.0</ele><time>2026-04-26T09:20:17.782Z</time></trkpt><trkpt lat="45.5758983" lon="10.8217983"><ele>97.0</ele><time>2026-04-26T09:20:18.783Z</time></trkpt><trkpt lat="45.5757717" lon="10.8217533"><ele>96.0</ele><time>2026-04-26T09:20:19.783Z</time></trkpt><trkpt lat="45.575635" lon="10.8217083"><ele>95.0</ele><time>2026-04-26T09:20:20.782Z</time></trkpt><trkpt lat="45.5755033" lon="10.8216617"><ele>94.0</ele><time>2026-04-26T09:20:21.783Z</time></trkpt><trkpt lat="45.5753717" lon="10.8215983"><ele>94.25</ele><time>2026-04-26T09:20:22.782Z</time></trkpt><trkpt lat="45.5752417" lon="10.82153"><ele>94.5</ele><time>2026-04-26T09:20:23.782Z</time></trkpt><trkpt lat="45.575115" lon="10.8214667"><ele>94.75</ele><time>2026-04-26T09:20:24.782Z</time></trkpt><trkpt lat="45.5749883" lon="10.8214067"><ele>95.0</ele><time>2026-04-26T09:20:25.783Z</time></trkpt><trkpt lat="45.57486" lon="10.8213533"><ele>95.0</ele><time>2026-04-26T09:20:26.782Z</time></trkpt><trkpt lat="45.574735" lon="10.8212933"><ele>95.0</ele><time>2026-04-26T09:20:27.782Z</time></trkpt><trkpt lat="45.5746083" lon="10.821245"><ele>95.0</ele><time>2026-04-26T09:20:28.782Z</time></trkpt><trkpt lat="45.57449" lon="10.821215"><ele>95.0</ele><time>2026-04-26T09:20:29.782Z</time></trkpt><trkpt lat="45.5743733" lon="10.821185"><ele>95.5</ele><time>2026-04-26T09:20:30.783Z</time></trkpt><trkpt lat="45.574255" lon="10.8211417"><ele>96.0</ele><time>2026-04-26T09:20:31.783Z</time></trkpt><trkpt lat="45.57413" lon="10.821085"><ele>96.5</ele><time>2026-04-26T09:20:32.783Z</time></trkpt><trkpt lat="45.57399" lon="10.821035"><ele>97.0</ele><time>2026-04-26T09:20:33.782Z</time></trkpt><trkpt lat="45.573855" lon="10.8209833"><ele>97.25</ele><time>2026-04-26T09:20:34.782Z</time></trkpt><trkpt lat="45.5737317" lon="10.82092"><ele>97.5</ele><time>2026-04-26T09:20:35.782Z</time></trkpt><trkpt lat="45.573605" lon="10.8208483"><ele>97.75</ele><time>2026-04-26T09:20:36.783Z</time></trkpt><trkpt lat="45.5734783" lon="10.820775"><ele>98.0</ele><time>2026-04-26T09:20:37.782Z</time></trkpt><trkpt lat="45.5733483" lon="10.820705"><ele>98.0</ele><time>2026-04-26T09:20:38.782Z</time></trkpt><trkpt lat="45.57321" lon="10.8206383"><ele>98.0</ele><time>2026-04-26T09:20:39.782Z</time></trkpt><trkpt lat="45.5730767" lon="10.820565"><ele>98.0</ele><time>2026-04-26T09:20:40.782Z</time></trkpt><trkpt lat="45.5729567" lon="10.82049"><ele>98.0</ele><time>2026-04-26T09:20:41.783Z</time></trkpt><trkpt lat="45.5728383" lon="10.8204167"><ele>98.25</ele><time>2026-04-26T09:20:42.782Z</time></trkpt><trkpt lat="45.572725" lon="10.8203567"><ele>98.5</ele><time>2026-04-26T09:20:43.782Z</time></trkpt><trkpt lat="45.5726067" lon="10.8202883"><ele>98.75</ele><time>2026-04-26T09:20:44.782Z</time></trkpt><trkpt lat="45.5724883" lon="10.820225"><ele>99.0</ele><time>2026-04-26T09:20:45.783Z</time></trkpt><trkpt lat="45.572385" lon="10.8201683"><ele>99.0</ele><time>2026-04-26T09:20:46.783Z</time></trkpt><trkpt lat="45.5722967" lon="10.820125"><ele>99.0</ele><time>2026-04-26T09:20:47.782Z</time></trkpt><trkpt lat="45.5722183" lon="10.8200917"><ele>99.0</ele><time>2026-04-26T09:20:48.782Z</time></trkpt><trkpt lat="45.5721567" lon="10.8200683"><ele>99.0</ele><time>2026-04-26T09:20:49.782Z</time></trkpt><trkpt lat="45.5721117" lon="10.8201567"><ele>99.0</ele><time>2026-04-26T09:20:52.782Z</time></trkpt><trkpt lat="45.572075" lon="10.8203483"><ele>99.0</ele><time>2026-04-26T09:20:54.782Z</time></trkpt><trkpt lat="45.5720567" lon="10.8204883"><ele>99.0</ele><time>2026-04-26T09:20:55.782Z</time></trkpt><trkpt lat="45.5720367" lon="10.820655"><ele>99.0</ele><time>2026-04-26T09:20:56.782Z</time></trkpt><trkpt lat="45.5720183" lon="10.820795"><ele>99.0</ele><time>2026-04-26T09:20:57.783Z</time></trkpt><trkpt lat="45.5719883" lon="10.8209167"><ele>99.0</ele><time>2026-04-26T09:20:58.783Z</time></trkpt><trkpt lat="45.5719317" lon="10.821"><ele>98.25</ele><time>2026-04-26T09:21:00.782Z</time></trkpt><trkpt lat="45.5718067" lon="10.820985"><ele>97.5</ele><time>2026-04-26T09:21:02.783Z</time></trkpt><trkpt lat="45.5716767" lon="10.820915"><ele>96.75</ele><time>2026-04-26T09:21:03.782Z</time></trkpt><trkpt lat="45.5715383" lon="10.82084"><ele>96.0</ele><time>2026-04-26T09:21:04.782Z</time></trkpt><trkpt lat="45.571365" lon="10.820745"><ele>95.33333333333333</ele><time>2026-04-26T09:21:05.782Z</time></trkpt><trkpt lat="45.5711833" lon="10.8206583"><ele>94.66666666666666</ele><time>2026-04-26T09:21:06.782Z</time></trkpt><trkpt lat="45.5710167" lon="10.8205917"><ele>94.0</ele><time>2026-04-26T09:21:07.783Z</time></trkpt><trkpt lat="45.570865" lon="10.82054"><ele>94.0</ele><time>2026-04-26T09:21:08.782Z</time></trkpt><trkpt lat="45.57072" lon="10.820485"><ele>94.0</ele><time>2026-04-26T09:21:09.782Z</time></trkpt><trkpt lat="45.570575" lon="10.82042"><ele>94.0</ele><time>2026-04-26T09:21:10.783Z</time></trkpt><trkpt lat="45.5704367" lon="10.8203533"><ele>94.0</ele><time>2026-04-26T09:21:11.782Z</time></trkpt><trkpt lat="45.5702883" lon="10.8202817"><ele>94.25</ele><time>2026-04-26T09:21:12.782Z</time></trkpt><trkpt lat="45.5701467" lon="10.82022"><ele>94.5</ele><time>2026-04-26T09:21:13.782Z</time></trkpt><trkpt lat="45.5700117" lon="10.82016"><ele>94.75</ele><time>2026-04-26T09:21:14.782Z</time></trkpt><trkpt lat="45.5698867" lon="10.8201133"><ele>95.0</ele><time>2026-04-26T09:21:15.782Z</time></trkpt><trkpt lat="45.5697567" lon="10.8200733"><ele>95.0</ele><time>2026-04-26T09:21:16.782Z</time></trkpt><trkpt lat="45.5696367" lon="10.8200133"><ele>95.0</ele><time>2026-04-26T09:21:17.782Z</time></trkpt><trkpt lat="45.5695317" lon="10.819965"><ele>95.0</ele><time>2026-04-26T09:21:18.782Z</time></trkpt><trkpt lat="45.5694333" lon="10.819935"><ele>95.0</ele><time>2026-04-26T09:21:19.782Z</time></trkpt><trkpt lat="45.5693583" lon="10.819925"><ele>95.0</ele><time>2026-04-26T09:21:20.783Z</time></trkpt><trkpt lat="45.5692667" lon="10.8199267"><ele>95.0</ele><time>2026-04-26T09:21:22.782Z</time></trkpt><trkpt lat="45.5692217" lon="10.820055"><ele>95.0</ele><time>2026-04-26T09:21:24.783Z</time></trkpt><trkpt lat="45.5692483" lon="10.820175"><ele>95.0</ele><time>2026-04-26T09:21:25.783Z</time></trkpt><trkpt lat="45.5692717" lon="10.8202717"><ele>95.0</ele><time>2026-04-26T09:21:26.783Z</time></trkpt><trkpt lat="45.5693067" lon="10.8203667"><ele>95.0</ele><time>2026-04-26T09:21:27.783Z</time></trkpt><trkpt lat="45.56937" lon="10.8204567"><ele>95.0</ele><time>2026-04-26T09:21:28.782Z</time></trkpt><trkpt lat="45.5694417" lon="10.82055"><ele>95.0</ele><time>2026-04-26T09:21:29.782Z</time></trkpt><trkpt lat="45.5695417" lon="10.8206967"><ele>95.0</ele><time>2026-04-26T09:21:30.782Z</time></trkpt><trkpt lat="45.5696317" lon="10.820855"><ele>95.0</ele><time>2026-04-26T09:21:31.782Z</time></trkpt><trkpt lat="45.5696967" lon="10.8209917"><ele>95.0</ele><time>2026-04-26T09:21:32.782Z</time></trkpt><trkpt lat="45.5697617" lon="10.8211317"><ele>95.5</ele><time>2026-04-26T09:21:33.782Z</time></trkpt><trkpt lat="45.5698183" lon="10.8212817"><ele>96.0</ele><time>2026-04-26T09:21:34.783Z</time></trkpt><trkpt lat="45.5698667" lon="10.8214367"><ele>96.5</ele><time>2026-04-26T09:21:35.782Z</time></trkpt><trkpt lat="45.5699117" lon="10.8215967"><ele>97.0</ele><time>2026-04-26T09:21:36.783Z</time></trkpt><trkpt lat="45.569945" lon="10.8217483"><ele>97.39999999999999</ele><time>2026-04-26T09:21:37.783Z</time></trkpt><trkpt lat="45.5699717" lon="10.8218933"><ele>97.8</ele><time>2026-04-26T09:21:38.782Z</time></trkpt><trkpt lat="45.5699883" lon="10.8220067"><ele>98.2</ele><time>2026-04-26T09:21:39.782Z</time></trkpt><trkpt lat="45.5700017" lon="10.8220967"><ele>98.6</ele><time>2026-04-26T09:21:40.782Z</time></trkpt><trkpt lat="45.5700467" lon="10.822225"><ele>99.0</ele><time>2026-04-26T09:21:42.783Z</time></trkpt><trkpt lat="45.5701367" lon="10.8223133"><ele>99.0</ele><time>2026-04-26T09:21:44.782Z</time></trkpt><trkpt lat="45.5702133" lon="10.822345"><ele>99.0</ele><time>2026-04-26T09:21:45.782Z</time></trkpt><trkpt lat="45.5703083" lon="10.8223867"><ele>99.0</ele><time>2026-04-26T09:21:46.782Z</time></trkpt><trkpt lat="45.5704233" lon="10.8224483"><ele>99.0</ele><time>2026-04-26T09:21:47.782Z</time></trkpt><trkpt lat="45.570545" lon="10.822525"><ele>99.0</ele><time>2026-04-26T09:21:48.782Z</time></trkpt><trkpt lat="45.5706633" lon="10.8225933"><ele>101.75</ele><time>2026-04-26T09:21:49.782Z</time></trkpt><trkpt lat="45.5707833" lon="10.82266"><ele>104.5</ele><time>2026-04-26T09:21:50.782Z</time></trkpt><trkpt lat="45.5709133" lon="10.82271"><ele>107.25</ele><time>2026-04-26T09:21:51.782Z</time></trkpt><trkpt lat="45.5710317" lon="10.82277"><ele>110.0</ele><time>2026-04-26T09:21:52.782Z</time></trkpt><trkpt lat="45.571145" lon="10.8228317"><ele>108.8</ele><time>2026-04-26T09:21:53.782Z</time></trkpt><trkpt lat="45.57125" lon="10.8228767"><ele>107.6</ele><time>2026-04-26T09:21:54.782Z</time></trkpt><trkpt lat="45.571355" lon="10.8229133"><ele>106.4</ele><time>2026-04-26T09:21:55.782Z</time></trkpt><trkpt lat="45.5714567" lon="10.822965"><ele>105.2</ele><time>2026-04-26T09:21:56.782Z</time></trkpt><trkpt lat="45.5715467" lon="10.8230133"><ele>104.0</ele><time>2026-04-26T09:21:57.783Z</time></trkpt><trkpt lat="45.5716383" lon="10.8230383"><ele>104.0</ele><time>2026-04-26T09:21:58.782Z</time></trkpt><trkpt lat="45.5717283" lon="10.82307"><ele>104.0</ele><time>2026-04-26T09:21:59.782Z</time></trkpt><trkpt lat="45.5718117" lon="10.8231017"><ele>104.0</ele><time>2026-04-26T09:22:00.783Z</time></trkpt><trkpt lat="45.5718867" lon="10.8231367"><ele>104.0</ele><time>2026-04-26T09:22:01.782Z</time></trkpt><trkpt lat="45.57198" lon="10.8231783"><ele>104.0</ele><time>2026-04-26T09:22:02.783Z</time></trkpt><trkpt lat="45.57211" lon="10.8232317"><ele>103.33333333333333</ele><time>2026-04-26T09:22:04.783Z</time></trkpt><trkpt lat="45.572205" lon="10.8233467"><ele>102.66666666666666</ele><time>2026-04-26T09:22:06.782Z</time></trkpt><trkpt lat="45.5722417" lon="10.82343"><ele>102.0</ele><time>2026-04-26T09:22:07.782Z</time></trkpt><trkpt lat="45.5722683" lon="10.8235383"><ele>101.33333333333334</ele><time>2026-04-26T09:22:08.783Z</time></trkpt><trkpt lat="45.5722783" lon="10.8236367"><ele>100.66666666666667</ele><time>2026-04-26T09:22:09.782Z</time></trkpt><trkpt lat="45.572265" lon="10.8237333"><ele>100.0</ele><time>2026-04-26T09:22:11.782Z</time></trkpt><trkpt lat="45.5722133" lon="10.8238167"><ele>100.00000000000001</ele><time>2026-04-26T09:22:13.783Z</time></trkpt><trkpt lat="45.5721633" lon="10.8239467"><ele>100.0</ele><time>2026-04-26T09:22:15.782Z</time></trkpt><trkpt lat="45.572115" lon="10.82408"><ele>100.0</ele><time>2026-04-26T09:22:17.782Z</time></trkpt><trkpt lat="45.5720783" lon="10.82416"><ele>100.0</ele><time>2026-04-26T09:22:18.783Z</time></trkpt><trkpt lat="45.572065" lon="10.8242633"><ele>100.00000000000001</ele><time>2026-04-26T09:22:19.783Z</time></trkpt><trkpt lat="45.5720433" lon="10.8243817"><ele>100.0</ele><time>2026-04-26T09:22:21.782Z</time></trkpt><trkpt lat="45.57202" lon="10.824485"><ele>102.2</ele><time>2026-04-26T09:22:24.783Z</time></trkpt><trkpt lat="45.571955" lon="10.8244717"><ele>104.4</ele><time>2026-04-26T09:22:56.781Z</time></trkpt><trkpt lat="45.5719" lon="10.8243633"><ele>106.6</ele><time>2026-04-26T09:23:45.782Z</time></trkpt><trkpt lat="45.5719167" lon="10.8242117"><ele>108.8</ele><time>2026-04-26T09:23:47.781Z</time></trkpt><trkpt lat="45.571925" lon="10.8240417"><ele>111.0</ele><time>2026-04-26T09:23:49.782Z</time></trkpt><trkpt lat="45.5719083" lon="10.823885"><ele>111.0</ele><time>2026-04-26T09:23:51.781Z</time></trkpt><trkpt lat="45.5718267" lon="10.8238717"><ele>111.0</ele><time>2026-04-26T09:23:53.781Z</time></trkpt><trkpt lat="45.5717567" lon="10.8239283"><ele>111.0</ele><time>2026-04-26T09:23:56.781Z</time></trkpt><trkpt lat="45.5717283" lon="10.82407"><ele>111.0</ele><time>2026-04-26T09:23:58.781Z</time></trkpt><trkpt lat="45.5717133" lon="10.8241817"><ele>111.0</ele><time>2026-04-26T09:24:00.781Z</time></trkpt><trkpt lat="45.571735" lon="10.8243067"><ele>111.0</ele><time>2026-04-26T09:25:15.781Z</time></trkpt><trkpt lat="45.5717567" lon="10.8244567"><ele>112.0</ele><time>2026-04-26T09:25:17.781Z</time></trkpt><trkpt lat="45.5717933" lon="10.8246317"><ele>113.0</ele><time>2026-04-26T09:25:18.781Z</time></trkpt><trkpt lat="45.571825" lon="10.824805"><ele>114.0</ele><time>2026-04-26T09:25:19.781Z</time></trkpt><trkpt lat="45.57185" lon="10.8249517"><ele>115.0</ele><time>2026-04-26T09:25:20.782Z</time></trkpt><trkpt lat="45.5718733" lon="10.8250817"><ele>116.16666666666667</ele><time>2026-04-26T09:25:21.781Z</time></trkpt><trkpt lat="45.5718967" lon="10.8251967"><ele>117.33333333333334</ele><time>2026-04-26T09:25:22.781Z</time></trkpt><trkpt lat="45.5718983" lon="10.8252983"><ele>118.5</ele><time>2026-04-26T09:25:23.782Z</time></trkpt><trkpt lat="45.5719183" lon="10.8254083"><ele>119.66666666666666</ele><time>2026-04-26T09:25:25.781Z</time></trkpt><trkpt lat="45.57181" lon="10.8254167"><ele>120.83333333333333</ele><time>2026-04-26T09:25:28.781Z</time></trkpt><trkpt lat="45.57173" lon="10.8254083"><ele>122.0</ele><time>2026-04-26T09:25:29.781Z</time></trkpt><trkpt lat="45.5716317" lon="10.825515"><ele>122.0</ele><time>2026-04-26T09:25:31.782Z</time></trkpt><trkpt lat="45.5716" lon="10.8256"><ele>121.99999999999999</ele><time>2026-04-26T09:25:32.781Z</time></trkpt><trkpt lat="45.5715333" lon="10.8256867"><ele>121.99999999999999</ele><time>2026-04-26T09:25:33.782Z</time></trkpt><trkpt lat="45.571435" lon="10.82572"><ele>122.0</ele><time>2026-04-26T09:25:34.781Z</time></trkpt><trkpt lat="45.5713317" lon="10.8257583"><ele>122.0</ele><time>2026-04-26T09:25:35.782Z</time></trkpt><trkpt lat="45.5712017" lon="10.8257517"><ele>121.0</ele><time>2026-04-26T09:25:36.781Z</time></trkpt><trkpt lat="45.5710767" lon="10.8257667"><ele>120.0</ele><time>2026-04-26T09:25:37.78Z</time></trkpt><trkpt lat="45.570955" lon="10.8257817"><ele>119.0</ele><time>2026-04-26T09:25:38.78Z</time></trkpt><trkpt lat="45.5708267" lon="10.8258383"><ele>118.0</ele><time>2026-04-26T09:25:39.78Z</time></trkpt><trkpt lat="45.5707083" lon="10.8258983"><ele>118.0</ele><time>2026-04-26T09:25:40.78Z</time></trkpt><trkpt lat="45.570575" lon="10.8259233"><ele>118.0</ele><time>2026-04-26T09:25:41.78Z</time></trkpt><trkpt lat="45.5704317" lon="10.8259433"><ele>118.0</ele><time>2026-04-26T09:25:42.781Z</time></trkpt><trkpt lat="45.5702917" lon="10.8259617"><ele>118.0</ele><time>2026-04-26T09:25:43.781Z</time></trkpt><trkpt lat="45.5701767" lon="10.8259967"><ele>119.4</ele><time>2026-04-26T09:25:44.781Z</time></trkpt><trkpt lat="45.5700683" lon="10.8260667"><ele>120.80000000000001</ele><time>2026-04-26T09:25:45.781Z</time></trkpt><trkpt lat="45.5699717" lon="10.8261433"><ele>122.2</ele><time>2026-04-26T09:25:46.781Z</time></trkpt><trkpt lat="45.56989" lon="10.826235"><ele>123.6</ele><time>2026-04-26T09:25:47.781Z</time></trkpt><trkpt lat="45.569805" lon="10.8263183"><ele>125.0</ele><time>2026-04-26T09:25:48.78Z</time></trkpt><trkpt lat="45.5697267" lon="10.8264333"><ele>125.0</ele><time>2026-04-26T09:25:49.78Z</time></trkpt><trkpt lat="45.5696483" lon="10.826505"><ele>125.0</ele><time>2026-04-26T09:25:50.78Z</time></trkpt><trkpt lat="45.5695883" lon="10.8265783"><ele>125.0</ele><time>2026-04-26T09:25:51.78Z</time></trkpt><trkpt lat="45.5694817" lon="10.8266567"><ele>125.0</ele><time>2026-04-26T09:25:53.78Z</time></trkpt><trkpt lat="45.5694117" lon="10.82671"><ele>125.0</ele><time>2026-04-26T09:25:54.78Z</time></trkpt><trkpt lat="45.5693267" lon="10.8267667"><ele>134.0</ele><time>2026-04-26T09:25:55.78Z</time></trkpt><trkpt lat="45.5692267" lon="10.82682"><ele>143.0</ele><time>2026-04-26T09:25:56.781Z</time></trkpt><trkpt lat="45.5691033" lon="10.82686"><ele>152.0</ele><time>2026-04-26T09:25:57.781Z</time></trkpt><trkpt lat="45.56897" lon="10.8269033"><ele>161.0</ele><time>2026-04-26T09:25:58.781Z</time></trkpt><trkpt lat="45.5688233" lon="10.8269383"><ele>162.66666666666666</ele><time>2026-04-26T09:25:59.78Z</time></trkpt><trkpt lat="45.5686617" lon="10.8269717"><ele>164.33333333333334</ele><time>2026-04-26T09:26:00.781Z</time></trkpt><trkpt lat="45.56848" lon="10.8269717"><ele>166.0</ele><time>2026-04-26T09:26:01.78Z</time></trkpt><trkpt lat="45.56831" lon="10.8269517"><ele>166.0</ele><time>2026-04-26T09:26:02.78Z</time></trkpt><trkpt lat="45.5681417" lon="10.8269117"><ele>166.0</ele><time>2026-04-26T09:26:03.78Z</time></trkpt><trkpt lat="45.567995" lon="10.8268183"><ele>166.0</ele><time>2026-04-26T09:26:04.78Z</time></trkpt><trkpt lat="45.567855" lon="10.8267117"><ele>166.0</ele><time>2026-04-26T09:26:05.781Z</time></trkpt><trkpt lat="45.567715" lon="10.8266033"><ele>166.0</ele><time>2026-04-26T09:26:06.78Z</time></trkpt><trkpt lat="45.5675767" lon="10.826525"><ele>166.0</ele><time>2026-04-26T09:26:07.78Z</time></trkpt><trkpt lat="45.56744" lon="10.8264617"><ele>166.0</ele><time>2026-04-26T09:26:08.781Z</time></trkpt><trkpt lat="45.567295" lon="10.8264017"><ele>166.0</ele><time>2026-04-26T09:26:09.78Z</time></trkpt><trkpt lat="45.5671367" lon="10.82635"><ele>166.0</ele><time>2026-04-26T09:26:10.78Z</time></trkpt><trkpt lat="45.56697" lon="10.82631"><ele>191.0</ele><time>2026-04-26T09:26:11.78Z</time></trkpt><trkpt lat="45.5668033" lon="10.8262783"><ele>216.0</ele><time>2026-04-26T09:26:12.78Z</time></trkpt><trkpt lat="45.5666333" lon="10.8262383"><ele>241.0</ele><time>2026-04-26T09:26:13.78Z</time></trkpt><trkpt lat="45.566465" lon="10.8261983"><ele>241.0</ele><time>2026-04-26T09:26:14.78Z</time></trkpt><trkpt lat="45.5662933" lon="10.82616"><ele>241.0</ele><time>2026-04-26T09:26:15.781Z</time></trkpt><trkpt lat="45.56612" lon="10.826125"><ele>241.0</ele><time>2026-04-26T09:26:16.78Z</time></trkpt><trkpt lat="45.5659467" lon="10.8260883"><ele>234.0</ele><time>2026-04-26T09:26:17.78Z</time></trkpt><trkpt lat="45.5657767" lon="10.82607"><ele>227.0</ele><time>2026-04-26T09:26:18.781Z</time></trkpt><trkpt lat="45.5656233" lon="10.82611"><ele>220.0</ele><time>2026-04-26T09:26:19.78Z</time></trkpt><trkpt lat="45.56545" lon="10.8260917"><ele>216.33333333333331</ele><time>2026-04-26T09:26:20.781Z</time></trkpt><trkpt lat="45.56528" lon="10.8260583"><ele>212.66666666666669</ele><time>2026-04-26T09:26:21.78Z</time></trkpt><trkpt lat="45.5651083" lon="10.8260233"><ele>209.0</ele><time>2026-04-26T09:26:22.78Z</time></trkpt><trkpt lat="45.56494" lon="10.8259983"><ele>209.0</ele><time>2026-04-26T09:26:23.781Z</time></trkpt><trkpt lat="45.5647733" lon="10.8259833"><ele>209.0</ele><time>2026-04-26T09:26:24.78Z</time></trkpt><trkpt lat="45.5646017" lon="10.8259783"><ele>209.0</ele><time>2026-04-26T09:26:25.78Z</time></trkpt><trkpt lat="45.56444" lon="10.82596"><ele>176.66666666666669</ele><time>2026-04-26T09:26:26.781Z</time></trkpt><trkpt lat="45.5642767" lon="10.8259533"><ele>144.33333333333334</ele><time>2026-04-26T09:26:27.78Z</time></trkpt><trkpt lat="45.5641133" lon="10.8259433"><ele>112.0</ele><time>2026-04-26T09:26:28.78Z</time></trkpt><trkpt lat="45.5639517" lon="10.8259583"><ele>112.0</ele><time>2026-04-26T09:26:29.78Z</time></trkpt><trkpt lat="45.56379" lon="10.825975"><ele>112.0</ele><time>2026-04-26T09:26:30.781Z</time></trkpt><trkpt lat="45.5636317" lon="10.8260017"><ele>112.0</ele><time>2026-04-26T09:26:31.78Z</time></trkpt><trkpt lat="45.5634767" lon="10.82608"><ele>115.33333333333334</ele><time>2026-04-26T09:26:32.78Z</time></trkpt><trkpt lat="45.5633217" lon="10.8261417"><ele>118.66666666666666</ele><time>2026-04-26T09:26:33.781Z</time></trkpt><trkpt lat="45.5631783" lon="10.8262417"><ele>122.0</ele><time>2026-04-26T09:26:34.78Z</time></trkpt><trkpt lat="45.563035" lon="10.8263333"><ele>122.0</ele><time>2026-04-26T09:26:35.78Z</time></trkpt><trkpt lat="45.5628933" lon="10.8264333"><ele>122.0</ele><time>2026-04-26T09:26:36.78Z</time></trkpt><trkpt lat="45.5627533" lon="10.82655"><ele>122.0</ele><time>2026-04-26T09:26:37.781Z</time></trkpt><trkpt lat="45.5626383" lon="10.8267117"><ele>113.66666666666666</ele><time>2026-04-26T09:26:38.78Z</time></trkpt><trkpt lat="45.5625267" lon="10.8268783"><ele>105.33333333333334</ele><time>2026-04-26T09:26:39.781Z</time></trkpt><trkpt lat="45.56241" lon="10.8270333"><ele>97.0</ele><time>2026-04-26T09:26:40.78Z</time></trkpt><trkpt lat="45.56229" lon="10.8272117"><ele>97.0</ele><time>2026-04-26T09:26:41.781Z</time></trkpt><trkpt lat="45.5621667" lon="10.827385"><ele>97.0</ele><time>2026-04-26T09:26:42.78Z</time></trkpt><trkpt lat="45.5620383" lon="10.8275533"><ele>97.0</ele><time>2026-04-26T09:26:43.78Z</time></trkpt><trkpt lat="45.56191" lon="10.82772"><ele>104.0</ele><time>2026-04-26T09:26:44.78Z</time></trkpt><trkpt lat="45.5617667" lon="10.82788"><ele>111.0</ele><time>2026-04-26T09:26:45.78Z</time></trkpt><trkpt lat="45.561625" lon="10.82805"><ele>118.0</ele><time>2026-04-26T09:26:46.78Z</time></trkpt><trkpt lat="45.5614883" lon="10.8282083"><ele>118.0</ele><time>2026-04-26T09:26:47.781Z</time></trkpt><trkpt lat="45.5613517" lon="10.828375"><ele>118.0</ele><time>2026-04-26T09:26:48.78Z</time></trkpt><trkpt lat="45.56122" lon="10.8285417"><ele>118.0</ele><time>2026-04-26T09:26:49.78Z</time></trkpt><trkpt lat="45.5610883" lon="10.8287083"><ele>118.0</ele><time>2026-04-26T09:26:50.78Z</time></trkpt><trkpt lat="45.5609633" lon="10.82889"><ele>118.0</ele><time>2026-04-26T09:26:51.78Z</time></trkpt><trkpt lat="45.560855" lon="10.8290883"><ele>118.0</ele><time>2026-04-26T09:26:52.781Z</time></trkpt><trkpt lat="45.56075" lon="10.8292967"><ele>118.0</ele><time>2026-04-26T09:26:53.78Z</time></trkpt><trkpt lat="45.5606433" lon="10.8295117"><ele>118.0</ele><time>2026-04-26T09:26:54.781Z</time></trkpt><trkpt lat="45.5605567" lon="10.8297283"><ele>118.0</ele><time>2026-04-26T09:26:55.78Z</time></trkpt><trkpt lat="45.5604767" lon="10.8299417"><ele>118.0</ele><time>2026-04-26T09:26:56.781Z</time></trkpt><trkpt lat="45.560395" lon="10.8301367"><ele>118.0</ele><time>2026-04-26T09:26:57.78Z</time></trkpt><trkpt lat="45.5602867" lon="10.830335"><ele>118.0</ele><time>2026-04-26T09:26:58.781Z</time></trkpt><trkpt lat="45.5601033" lon="10.8305333"><ele>118.0</ele><time>2026-04-26T09:26:59.78Z</time></trkpt><trkpt lat="45.5599583" lon="10.8306667"><ele>118.0</ele><time>2026-04-26T09:27:00.781Z</time></trkpt><trkpt lat="45.5598033" lon="10.830765"><ele>118.0</ele><time>2026-04-26T09:27:01.781Z</time></trkpt><trkpt lat="45.55965" lon="10.8308667"><ele>145.0</ele><time>2026-04-26T09:27:02.781Z</time></trkpt><trkpt lat="45.5594867" lon="10.8309567"><ele>172.0</ele><time>2026-04-26T09:27:03.78Z</time></trkpt><trkpt lat="45.5593283" lon="10.831055"><ele>199.0</ele><time>2026-04-26T09:27:04.78Z</time></trkpt><trkpt lat="45.55915" lon="10.8311733"><ele>199.0</ele><time>2026-04-26T09:27:05.78Z</time></trkpt><trkpt lat="45.5589883" lon="10.8312783"><ele>199.0</ele><time>2026-04-26T09:27:06.78Z</time></trkpt><trkpt lat="45.5588167" lon="10.8313733"><ele>199.0</ele><time>2026-04-26T09:27:07.781Z</time></trkpt><trkpt lat="45.55865" lon="10.8314683"><ele>205.66666666666666</ele><time>2026-04-26T09:27:08.781Z</time></trkpt><trkpt lat="45.5584867" lon="10.8315467"><ele>212.33333333333331</ele><time>2026-04-26T09:27:09.781Z</time></trkpt><trkpt lat="45.5583117" lon="10.8316267"><ele>219.0</ele><time>2026-04-26T09:27:10.781Z</time></trkpt><trkpt lat="45.5581333" lon="10.831695"><ele>219.0</ele><time>2026-04-26T09:27:11.78Z</time></trkpt><trkpt lat="45.5579567" lon="10.83175"><ele>219.0</ele><time>2026-04-26T09:27:12.781Z</time></trkpt><trkpt lat="45.55777" lon="10.8317717"><ele>219.0</ele><time>2026-04-26T09:27:13.781Z</time></trkpt><trkpt lat="45.5575917" lon="10.83179"><ele>219.0</ele><time>2026-04-26T09:27:14.781Z</time></trkpt><trkpt lat="45.5574183" lon="10.8317717"><ele>219.0</ele><time>2026-04-26T09:27:15.78Z</time></trkpt><trkpt lat="45.55724" lon="10.8317267"><ele>219.0</ele><time>2026-04-26T09:27:16.781Z</time></trkpt><trkpt lat="45.5570683" lon="10.8316667"><ele>207.33333333333334</ele><time>2026-04-26T09:27:17.78Z</time></trkpt><trkpt lat="45.5569017" lon="10.8316133"><ele>195.66666666666669</ele><time>2026-04-26T09:27:18.78Z</time></trkpt><trkpt lat="45.5567283" lon="10.83154"><ele>184.0</ele><time>2026-04-26T09:27:19.78Z</time></trkpt><trkpt lat="45.556565" lon="10.8314967"><ele>184.0</ele><time>2026-04-26T09:27:20.781Z</time></trkpt><trkpt lat="45.5564033" lon="10.8314617"><ele>184.0</ele><time>2026-04-26T09:27:21.78Z</time></trkpt><trkpt lat="45.556235" lon="10.831425"><ele>184.0</ele><time>2026-04-26T09:27:22.781Z</time></trkpt><trkpt lat="45.5560717" lon="10.8313617"><ele>201.33333333333334</ele><time>2026-04-26T09:27:23.78Z</time></trkpt><trkpt lat="45.5559083" lon="10.8312833"><ele>218.66666666666669</ele><time>2026-04-26T09:27:24.78Z</time></trkpt><trkpt lat="45.55574" lon="10.83119"><ele>236.0</ele><time>2026-04-26T09:27:25.78Z</time></trkpt><trkpt lat="45.555575" lon="10.8310917"><ele>188.33333333333334</ele><time>2026-04-26T09:27:26.78Z</time></trkpt><trkpt lat="45.5554183" lon="10.8309717"><ele>140.66666666666669</ele><time>2026-04-26T09:27:27.781Z</time></trkpt><trkpt lat="45.5552717" lon="10.83083"><ele>93.0</ele><time>2026-04-26T09:27:28.78Z</time></trkpt><trkpt lat="45.55514" lon="10.8306733"><ele>93.0</ele><time>2026-04-26T09:27:29.78Z</time></trkpt><trkpt lat="45.555" lon="10.8305233"><ele>93.0</ele><time>2026-04-26T09:27:30.781Z</time></trkpt><trkpt lat="45.5548483" lon="10.8303833"><ele>93.0</ele><time>2026-04-26T09:27:31.78Z</time></trkpt><trkpt lat="45.5547017" lon="10.8302467"><ele>90.66666666666667</ele><time>2026-04-26T09:27:32.781Z</time></trkpt><trkpt lat="45.55456" lon="10.8301283"><ele>88.33333333333334</ele><time>2026-04-26T09:27:33.78Z</time></trkpt><trkpt lat="45.5544233" lon="10.830065"><ele>86.0</ele><time>2026-04-26T09:27:34.78Z</time></trkpt><trkpt lat="45.5542633" lon="10.8299767"><ele>91.0</ele><time>2026-04-26T09:27:35.781Z</time></trkpt><trkpt lat="45.5540933" lon="10.82989"><ele>96.0</ele><time>2026-04-26T09:27:36.78Z</time></trkpt><trkpt lat="45.5539233" lon="10.8298033"><ele>101.0</ele><time>2026-04-26T09:27:37.78Z</time></trkpt><trkpt lat="45.5537533" lon="10.8297183"><ele>105.33333333333333</ele><time>2026-04-26T09:27:38.78Z</time></trkpt><trkpt lat="45.5535817" lon="10.8296417"><ele>109.66666666666666</ele><time>2026-04-26T09:27:39.78Z</time></trkpt><trkpt lat="45.5534067" lon="10.829565"><ele>114.0</ele><time>2026-04-26T09:27:40.781Z</time></trkpt><trkpt lat="45.55323" lon="10.829485"><ele>114.0</ele><time>2026-04-26T09:27:41.78Z</time></trkpt><trkpt lat="45.5530533" lon="10.8294"><ele>114.0</ele><time>2026-04-26T09:27:42.781Z</time></trkpt><trkpt lat="45.552875" lon="10.829295"><ele>114.0</ele><time>2026-04-26T09:27:43.78Z</time></trkpt><trkpt lat="45.5527117" lon="10.82919"><ele>110.66666666666666</ele><time>2026-04-26T09:27:44.78Z</time></trkpt><trkpt lat="45.55256" lon="10.8290633"><ele>107.33333333333333</ele><time>2026-04-26T09:27:45.78Z</time></trkpt><trkpt lat="45.5524233" lon="10.8289083"><ele>104.0</ele><time>2026-04-26T09:27:46.781Z</time></trkpt><trkpt lat="45.5522967" lon="10.8287333"><ele>104.0</ele><time>2026-04-26T09:27:47.78Z</time></trkpt><trkpt lat="45.55217" lon="10.8285733"><ele>104.0</ele><time>2026-04-26T09:27:48.781Z</time></trkpt><trkpt lat="45.552035" lon="10.8284083"><ele>104.0</ele><time>2026-04-26T09:27:49.78Z</time></trkpt><trkpt lat="45.55189" lon="10.8282517"><ele>110.0</ele><time>2026-04-26T09:27:50.78Z</time></trkpt><trkpt lat="45.5517567" lon="10.8280983"><ele>116.0</ele><time>2026-04-26T09:27:51.78Z</time></trkpt><trkpt lat="45.5516217" lon="10.8279383"><ele>122.0</ele><time>2026-04-26T09:27:52.78Z</time></trkpt><trkpt lat="45.5514967" lon="10.8277767"><ele>115.66666666666666</ele><time>2026-04-26T09:27:53.78Z</time></trkpt><trkpt lat="45.5513767" lon="10.82761"><ele>109.33333333333334</ele><time>2026-04-26T09:27:54.78Z</time></trkpt><trkpt lat="45.551255" lon="10.8274233"><ele>103.0</ele><time>2026-04-26T09:27:55.78Z</time></trkpt><trkpt lat="45.5511383" lon="10.8272317"><ele>103.0</ele><time>2026-04-26T09:27:56.78Z</time></trkpt><trkpt lat="45.55102" lon="10.8270383"><ele>103.0</ele><time>2026-04-26T09:27:57.78Z</time></trkpt><trkpt lat="45.5509133" lon="10.8268233"><ele>103.0</ele><time>2026-04-26T09:27:58.781Z</time></trkpt><trkpt lat="45.5507917" lon="10.8266783"><ele>99.33333333333334</ele><time>2026-04-26T09:27:59.78Z</time></trkpt><trkpt lat="45.5506717" lon="10.8264683"><ele>95.66666666666667</ele><time>2026-04-26T09:28:00.781Z</time></trkpt><trkpt lat="45.5505567" lon="10.8262583"><ele>92.0</ele><time>2026-04-26T09:28:01.78Z</time></trkpt><trkpt lat="45.5504433" lon="10.8260633"><ele>93.0</ele><time>2026-04-26T09:28:02.78Z</time></trkpt><trkpt lat="45.5503683" lon="10.8259067"><ele>94.0</ele><time>2026-04-26T09:28:03.781Z</time></trkpt><trkpt lat="45.5502517" lon="10.8257067"><ele>95.0</ele><time>2026-04-26T09:28:04.78Z</time></trkpt><trkpt lat="45.55014" lon="10.82552"><ele>95.0</ele><time>2026-04-26T09:28:05.781Z</time></trkpt><trkpt lat="45.5500267" lon="10.8253367"><ele>95.0</ele><time>2026-04-26T09:28:06.781Z</time></trkpt><trkpt lat="45.5498983" lon="10.8251667"><ele>95.0</ele><time>2026-04-26T09:28:07.78Z</time></trkpt><trkpt lat="45.5497633" lon="10.825"><ele>94.33333333333334</ele><time>2026-04-26T09:28:08.78Z</time></trkpt><trkpt lat="45.5496317" lon="10.824855"><ele>93.66666666666667</ele><time>2026-04-26T09:28:09.78Z</time></trkpt><trkpt lat="45.549495" lon="10.8247283"><ele>93.0</ele><time>2026-04-26T09:28:10.78Z</time></trkpt><trkpt lat="45.5493783" lon="10.8245867"><ele>94.0</ele><time>2026-04-26T09:28:11.78Z</time></trkpt><trkpt lat="45.54925" lon="10.824445"><ele>95.0</ele><time>2026-04-26T09:28:12.78Z</time></trkpt><trkpt lat="45.549105" lon="10.8243083"><ele>96.0</ele><time>2026-04-26T09:28:13.78Z</time></trkpt><trkpt lat="45.548965" lon="10.8241617"><ele>96.0</ele><time>2026-04-26T09:28:14.781Z</time></trkpt><trkpt lat="45.54884" lon="10.8240367"><ele>96.0</ele><time>2026-04-26T09:28:15.78Z</time></trkpt><trkpt lat="45.5487083" lon="10.8239017"><ele>96.0</ele><time>2026-04-26T09:28:16.781Z</time></trkpt><trkpt lat="45.5485833" lon="10.8237883"><ele>96.0</ele><time>2026-04-26T09:28:17.781Z</time></trkpt><trkpt lat="45.5484433" lon="10.8236683"><ele>96.0</ele><time>2026-04-26T09:28:18.78Z</time></trkpt><trkpt lat="45.5483117" lon="10.8235733"><ele>96.0</ele><time>2026-04-26T09:28:19.78Z</time></trkpt><trkpt lat="45.5481717" lon="10.8234817"><ele>96.5</ele><time>2026-04-26T09:28:20.78Z</time></trkpt><trkpt lat="45.54804" lon="10.8234017"><ele>97.0</ele><time>2026-04-26T09:28:21.78Z</time></trkpt><trkpt lat="45.54791" lon="10.82334"><ele>97.5</ele><time>2026-04-26T09:28:22.781Z</time></trkpt><trkpt lat="45.54777" lon="10.8232833"><ele>98.0</ele><time>2026-04-26T09:28:23.78Z</time></trkpt><trkpt lat="45.5476267" lon="10.8232267"><ele>98.33333333333333</ele><time>2026-04-26T09:28:24.78Z</time></trkpt><trkpt lat="45.5474817" lon="10.8231783"><ele>98.66666666666666</ele><time>2026-04-26T09:28:25.781Z</time></trkpt><trkpt lat="45.5473283" lon="10.82313"><ele>99.0</ele><time>2026-04-26T09:28:26.78Z</time></trkpt><trkpt lat="45.5471717" lon="10.823095"><ele>100.66666666666666</ele><time>2026-04-26T09:28:27.78Z</time></trkpt><trkpt lat="45.5470067" lon="10.8230717"><ele>102.33333333333333</ele><time>2026-04-26T09:28:28.78Z</time></trkpt><trkpt lat="45.546845" lon="10.823055"><ele>104.0</ele><time>2026-04-26T09:28:29.78Z</time></trkpt><trkpt lat="45.5466783" lon="10.823045"><ele>104.0</ele><time>2026-04-26T09:28:30.78Z</time></trkpt><trkpt lat="45.54651" lon="10.8230317"><ele>104.0</ele><time>2026-04-26T09:28:31.781Z</time></trkpt><trkpt lat="45.5463433" lon="10.8230217"><ele>104.0</ele><time>2026-04-26T09:28:32.781Z</time></trkpt><trkpt lat="45.5461733" lon="10.8230133"><ele>104.0</ele><time>2026-04-26T09:28:33.78Z</time></trkpt><trkpt lat="45.5460033" lon="10.8230017"><ele>104.0</ele><time>2026-04-26T09:28:34.779Z</time></trkpt><trkpt lat="45.5458333" lon="10.8229867"><ele>104.0</ele><time>2026-04-26T09:28:35.779Z</time></trkpt><trkpt lat="45.5456567" lon="10.82298"><ele>104.0</ele><time>2026-04-26T09:28:36.78Z</time></trkpt><trkpt lat="45.545485" lon="10.8229683"><ele>104.0</ele><time>2026-04-26T09:28:37.78Z</time></trkpt><trkpt lat="45.5453133" lon="10.8229567"><ele>104.0</ele><time>2026-04-26T09:28:38.78Z</time></trkpt><trkpt lat="45.5451417" lon="10.82294"><ele>104.66666666666666</ele><time>2026-04-26T09:28:39.78Z</time></trkpt><trkpt lat="45.5449767" lon="10.8229217"><ele>105.33333333333334</ele><time>2026-04-26T09:28:40.78Z</time></trkpt><trkpt lat="45.5448017" lon="10.8228933"><ele>106.0</ele><time>2026-04-26T09:28:41.779Z</time></trkpt><trkpt lat="45.5446367" lon="10.8228867"><ele>107.0</ele><time>2026-04-26T09:28:42.779Z</time></trkpt><trkpt lat="45.5444733" lon="10.8228667"><ele>108.0</ele><time>2026-04-26T09:28:43.779Z</time></trkpt><trkpt lat="45.5443017" lon="10.8228533"><ele>109.0</ele><time>2026-04-26T09:28:44.78Z</time></trkpt><trkpt lat="45.5441233" lon="10.8228467"><ele>109.0</ele><time>2026-04-26T09:28:45.78Z</time></trkpt><trkpt lat="45.54395" lon="10.82284"><ele>109.0</ele><time>2026-04-26T09:28:46.78Z</time></trkpt><trkpt lat="45.5437767" lon="10.82282"><ele>109.0</ele><time>2026-04-26T09:28:47.779Z</time></trkpt><trkpt lat="45.5436017" lon="10.8228017"><ele>109.33333333333334</ele><time>2026-04-26T09:28:48.779Z</time></trkpt><trkpt lat="45.5434217" lon="10.8227917"><ele>109.66666666666666</ele><time>2026-04-26T09:28:49.779Z</time></trkpt><trkpt lat="45.5432517" lon="10.822775"><ele>110.0</ele><time>2026-04-26T09:28:50.779Z</time></trkpt><trkpt lat="45.5430717" lon="10.8227567"><ele>110.0</ele><time>2026-04-26T09:28:51.779Z</time></trkpt><trkpt lat="45.5428983" lon="10.822755"><ele>110.0</ele><time>2026-04-26T09:28:52.78Z</time></trkpt><trkpt lat="45.542715" lon="10.8227167"><ele>110.0</ele><time>2026-04-26T09:28:53.779Z</time></trkpt><trkpt lat="45.5425467" lon="10.8226883"><ele>110.66666666666666</ele><time>2026-04-26T09:28:54.779Z</time></trkpt><trkpt lat="45.5423783" lon="10.822645"><ele>111.33333333333334</ele><time>2026-04-26T09:28:55.779Z</time></trkpt><trkpt lat="45.5422117" lon="10.82258"><ele>112.0</ele><time>2026-04-26T09:28:56.779Z</time></trkpt><trkpt lat="45.542055" lon="10.822505"><ele>112.33333333333334</ele><time>2026-04-26T09:28:57.78Z</time></trkpt><trkpt lat="45.5418983" lon="10.8224333"><ele>112.66666666666666</ele><time>2026-04-26T09:28:58.779Z</time></trkpt><trkpt lat="45.54174" lon="10.8223433"><ele>113.0</ele><time>2026-04-26T09:28:59.779Z</time></trkpt><trkpt lat="45.5415733" lon="10.82225"><ele>113.0</ele><time>2026-04-26T09:29:00.779Z</time></trkpt><trkpt lat="45.5414083" lon="10.82217"><ele>113.0</ele><time>2026-04-26T09:29:01.779Z</time></trkpt><trkpt lat="45.5412367" lon="10.822075"><ele>113.0</ele><time>2026-04-26T09:29:02.78Z</time></trkpt><trkpt lat="45.5410717" lon="10.821995"><ele>113.33333333333333</ele><time>2026-04-26T09:29:03.78Z</time></trkpt><trkpt lat="45.5409083" lon="10.8218983"><ele>113.66666666666666</ele><time>2026-04-26T09:29:04.779Z</time></trkpt><trkpt lat="45.5407283" lon="10.8218"><ele>114.0</ele><time>2026-04-26T09:29:05.779Z</time></trkpt><trkpt lat="45.5405517" lon="10.821705"><ele>113.33333333333334</ele><time>2026-04-26T09:29:06.779Z</time></trkpt><trkpt lat="45.54038" lon="10.8216183"><ele>112.66666666666667</ele><time>2026-04-26T09:29:07.78Z</time></trkpt><trkpt lat="45.5402" lon="10.821525"><ele>112.0</ele><time>2026-04-26T09:29:08.779Z</time></trkpt><trkpt lat="45.5400267" lon="10.8214383"><ele>112.0</ele><time>2026-04-26T09:29:09.779Z</time></trkpt><trkpt lat="45.5398533" lon="10.8213483"><ele>112.0</ele><time>2026-04-26T09:29:10.779Z</time></trkpt><trkpt lat="45.5396767" lon="10.82125"><ele>112.0</ele><time>2026-04-26T09:29:11.779Z</time></trkpt><trkpt lat="45.539515" lon="10.8211633"><ele>112.33333333333334</ele><time>2026-04-26T09:29:12.779Z</time></trkpt><trkpt lat="45.5393533" lon="10.8210767"><ele>112.66666666666666</ele><time>2026-04-26T09:29:13.78Z</time></trkpt><trkpt lat="45.53918" lon="10.8209983"><ele>113.0</ele><time>2026-04-26T09:29:14.78Z</time></trkpt><trkpt lat="45.5390083" lon="10.8209117"><ele>112.33333333333333</ele><time>2026-04-26T09:29:15.78Z</time></trkpt><trkpt lat="45.5388517" lon="10.8208133"><ele>111.66666666666666</ele><time>2026-04-26T09:29:16.779Z</time></trkpt><trkpt lat="45.538695" lon="10.8207117"><ele>111.0</ele><time>2026-04-26T09:29:17.779Z</time></trkpt><trkpt lat="45.538535" lon="10.8206"><ele>111.0</ele><time>2026-04-26T09:29:18.779Z</time></trkpt><trkpt lat="45.5383783" lon="10.8204917"><ele>111.0</ele><time>2026-04-26T09:29:19.779Z</time></trkpt><trkpt lat="45.5382233" lon="10.82039"><ele>111.0</ele><time>2026-04-26T09:29:20.779Z</time></trkpt><trkpt lat="45.5380783" lon="10.82027"><ele>111.66666666666666</ele><time>2026-04-26T09:29:21.779Z</time></trkpt><trkpt lat="45.53792" lon="10.8201483"><ele>112.33333333333333</ele><time>2026-04-26T09:29:22.78Z</time></trkpt><trkpt lat="45.5377583" lon="10.8200233"><ele>113.0</ele><time>2026-04-26T09:29:23.78Z</time></trkpt><trkpt lat="45.5376117" lon="10.8199083"><ele>113.0</ele><time>2026-04-26T09:29:24.779Z</time></trkpt><trkpt lat="45.537455" lon="10.8197883"><ele>113.0</ele><time>2026-04-26T09:29:25.779Z</time></trkpt><trkpt lat="45.5373" lon="10.8196767"><ele>113.0</ele><time>2026-04-26T09:29:26.779Z</time></trkpt><trkpt lat="45.5371333" lon="10.8195683"><ele>112.33333333333333</ele><time>2026-04-26T09:29:27.779Z</time></trkpt><trkpt lat="45.5369767" lon="10.819475"><ele>111.66666666666666</ele><time>2026-04-26T09:29:28.779Z</time></trkpt><trkpt lat="45.5368267" lon="10.8193767"><ele>111.0</ele><time>2026-04-26T09:29:29.78Z</time></trkpt><trkpt lat="45.5366667" lon="10.81929"><ele>111.0</ele><time>2026-04-26T09:29:30.779Z</time></trkpt><trkpt lat="45.53651" lon="10.8191817"><ele>111.0</ele><time>2026-04-26T09:29:31.78Z</time></trkpt><trkpt lat="45.5363483" lon="10.8190717"><ele>111.0</ele><time>2026-04-26T09:29:32.779Z</time></trkpt><trkpt lat="45.53619" lon="10.818965"><ele>110.66666666666666</ele><time>2026-04-26T09:29:33.78Z</time></trkpt><trkpt lat="45.5360317" lon="10.8188667"><ele>110.33333333333333</ele><time>2026-04-26T09:29:34.779Z</time></trkpt><trkpt lat="45.53587" lon="10.8187733"><ele>110.0</ele><time>2026-04-26T09:29:35.779Z</time></trkpt><trkpt lat="45.5357167" lon="10.8186817"><ele>110.0</ele><time>2026-04-26T09:29:36.779Z</time></trkpt><trkpt lat="45.5355533" lon="10.8186067"><ele>110.0</ele><time>2026-04-26T09:29:37.78Z</time></trkpt><trkpt lat="45.5353933" lon="10.818545"><ele>110.0</ele><time>2026-04-26T09:29:38.779Z</time></trkpt><trkpt lat="45.535225" lon="10.8184967"><ele>110.0</ele><time>2026-04-26T09:29:39.78Z</time></trkpt><trkpt lat="45.53506" lon="10.8184517"><ele>110.0</ele><time>2026-04-26T09:29:40.779Z</time></trkpt><trkpt lat="45.534885" lon="10.8184267"><ele>110.0</ele><time>2026-04-26T09:29:41.779Z</time></trkpt><trkpt lat="45.534715" lon="10.8184017"><ele>110.33333333333333</ele><time>2026-04-26T09:29:42.78Z</time></trkpt><trkpt lat="45.534535" lon="10.8183767"><ele>110.66666666666666</ele><time>2026-04-26T09:29:43.779Z</time></trkpt><trkpt lat="45.53436" lon="10.818345"><ele>111.0</ele><time>2026-04-26T09:29:44.78Z</time></trkpt><trkpt lat="45.5341883" lon="10.8183167"><ele>111.0</ele><time>2026-04-26T09:29:45.779Z</time></trkpt><trkpt lat="45.5340133" lon="10.8182817"><ele>111.0</ele><time>2026-04-26T09:29:46.779Z</time></trkpt><trkpt lat="45.5338483" lon="10.8182667"><ele>111.0</ele><time>2026-04-26T09:29:47.779Z</time></trkpt><trkpt lat="45.5336833" lon="10.8182433"><ele>111.66666666666666</ele><time>2026-04-26T09:29:48.779Z</time></trkpt><trkpt lat="45.533515" lon="10.8182267"><ele>112.33333333333333</ele><time>2026-04-26T09:29:49.78Z</time></trkpt><trkpt lat="45.5333383" lon="10.818215"><ele>113.0</ele><time>2026-04-26T09:29:50.78Z</time></trkpt><trkpt lat="45.5331583" lon="10.8182183"><ele>113.0</ele><time>2026-04-26T09:29:51.78Z</time></trkpt><trkpt lat="45.5329867" lon="10.81821"><ele>113.0</ele><time>2026-04-26T09:29:52.78Z</time></trkpt><trkpt lat="45.5328" lon="10.81821"><ele>113.0</ele><time>2026-04-26T09:29:53.779Z</time></trkpt><trkpt lat="45.5326233" lon="10.8181983"><ele>112.66666666666666</ele><time>2026-04-26T09:29:54.779Z</time></trkpt><trkpt lat="45.5324483" lon="10.8182033"><ele>112.33333333333334</ele><time>2026-04-26T09:29:55.779Z</time></trkpt><trkpt lat="45.5322717" lon="10.8182067"><ele>112.0</ele><time>2026-04-26T09:29:56.78Z</time></trkpt><trkpt lat="45.5321" lon="10.81822"><ele>112.33333333333334</ele><time>2026-04-26T09:29:57.779Z</time></trkpt><trkpt lat="45.5319367" lon="10.8182383"><ele>112.66666666666666</ele><time>2026-04-26T09:29:58.779Z</time></trkpt><trkpt lat="45.53177" lon="10.8182483"><ele>113.0</ele><time>2026-04-26T09:29:59.78Z</time></trkpt><trkpt lat="45.531595" lon="10.8182467"><ele>113.0</ele><time>2026-04-26T09:30:00.779Z</time></trkpt><trkpt lat="45.5314167" lon="10.8182433"><ele>113.0</ele><time>2026-04-26T09:30:01.779Z</time></trkpt><trkpt lat="45.5312517" lon="10.81824"><ele>113.0</ele><time>2026-04-26T09:30:02.779Z</time></trkpt><trkpt lat="45.531075" lon="10.818225"><ele>112.33333333333333</ele><time>2026-04-26T09:30:03.779Z</time></trkpt><trkpt lat="45.53089" lon="10.8182167"><ele>111.66666666666666</ele><time>2026-04-26T09:30:04.78Z</time></trkpt><trkpt lat="45.5306933" lon="10.8182067"><ele>111.0</ele><time>2026-04-26T09:30:05.779Z</time></trkpt><trkpt lat="45.5305183" lon="10.8182067"><ele>111.0</ele><time>2026-04-26T09:30:06.779Z</time></trkpt><trkpt lat="45.53034" lon="10.8182267"><ele>111.0</ele><time>2026-04-26T09:30:07.779Z</time></trkpt><trkpt lat="45.53017" lon="10.8182533"><ele>111.0</ele><time>2026-04-26T09:30:08.779Z</time></trkpt><trkpt lat="45.53" lon="10.8182867"><ele>111.0</ele><time>2026-04-26T09:30:09.779Z</time></trkpt><trkpt lat="45.52983" lon="10.8183183"><ele>111.0</ele><time>2026-04-26T09:30:10.779Z</time></trkpt><trkpt lat="45.5296633" lon="10.8183383"><ele>111.0</ele><time>2026-04-26T09:30:11.779Z</time></trkpt><trkpt lat="45.5294933" lon="10.81835"><ele>111.33333333333334</ele><time>2026-04-26T09:30:12.78Z</time></trkpt><trkpt lat="45.5293217" lon="10.8183717"><ele>111.66666666666667</ele><time>2026-04-26T09:30:13.779Z</time></trkpt><trkpt lat="45.52916" lon="10.8183783"><ele>112.0</ele><time>2026-04-26T09:30:14.779Z</time></trkpt><trkpt lat="45.52899" lon="10.818365"><ele>112.0</ele><time>2026-04-26T09:30:15.779Z</time></trkpt><trkpt lat="45.5288217" lon="10.8183467"><ele>112.0</ele><time>2026-04-26T09:30:16.78Z</time></trkpt><trkpt lat="45.5286633" lon="10.8183267"><ele>112.0</ele><time>2026-04-26T09:30:17.779Z</time></trkpt><trkpt lat="45.528515" lon="10.8183067"><ele>111.75</ele><time>2026-04-26T09:30:18.779Z</time></trkpt><trkpt lat="45.5283617" lon="10.818295"><ele>111.5</ele><time>2026-04-26T09:30:19.779Z</time></trkpt><trkpt lat="45.5282133" lon="10.818285"><ele>111.25</ele><time>2026-04-26T09:30:20.779Z</time></trkpt><trkpt lat="45.5280683" lon="10.8182783"><ele>111.0</ele><time>2026-04-26T09:30:21.779Z</time></trkpt><trkpt lat="45.5279283" lon="10.8182767"><ele>112.0</ele><time>2026-04-26T09:30:22.779Z</time></trkpt><trkpt lat="45.5277783" lon="10.8182633"><ele>113.0</ele><time>2026-04-26T09:30:23.78Z</time></trkpt><trkpt lat="45.5276283" lon="10.818245"><ele>114.0</ele><time>2026-04-26T09:30:24.779Z</time></trkpt><trkpt lat="45.5274917" lon="10.8182367"><ele>115.0</ele><time>2026-04-26T09:30:25.779Z</time></trkpt><trkpt lat="45.5273683" lon="10.818235"><ele>115.0</ele><time>2026-04-26T09:30:26.78Z</time></trkpt><trkpt lat="45.5272533" lon="10.818245"><ele>115.0</ele><time>2026-04-26T09:30:27.779Z</time></trkpt><trkpt lat="45.5271533" lon="10.8182283"><ele>115.0</ele><time>2026-04-26T09:30:28.779Z</time></trkpt><trkpt lat="45.5270633" lon="10.8182183"><ele>115.0</ele><time>2026-04-26T09:30:29.78Z</time></trkpt><trkpt lat="45.526995" lon="10.8182267"><ele>115.0</ele><time>2026-04-26T09:30:30.779Z</time></trkpt><trkpt lat="45.52692" lon="10.8182233"><ele>115.0</ele><time>2026-04-26T09:30:32.779Z</time></trkpt><trkpt lat="45.5268283" lon="10.8182183"><ele>115.0</ele><time>2026-04-26T09:30:35.78Z</time></trkpt><trkpt lat="45.52672" lon="10.8182467"><ele>115.0</ele><time>2026-04-26T09:30:37.78Z</time></trkpt><trkpt lat="45.5266917" lon="10.8184133"><ele>115.0</ele><time>2026-04-26T09:30:39.779Z</time></trkpt><trkpt lat="45.5267017" lon="10.8185233"><ele>115.0</ele><time>2026-04-26T09:30:40.78Z</time></trkpt><trkpt lat="45.526715" lon="10.8186233"><ele>115.00000000000001</ele><time>2026-04-26T09:30:41.779Z</time></trkpt><trkpt lat="45.5267167" lon="10.818725"><ele>115.0</ele><time>2026-04-26T09:30:42.779Z</time></trkpt><trkpt lat="45.5267033" lon="10.81883"><ele>115.0</ele><time>2026-04-26T09:30:43.78Z</time></trkpt><trkpt lat="45.5267" lon="10.8189317"><ele>115.0</ele><time>2026-04-26T09:30:44.779Z</time></trkpt><trkpt lat="45.5266833" lon="10.8190267"><ele>115.00000000000001</ele><time>2026-04-26T09:30:45.779Z</time></trkpt><trkpt lat="45.5266567" lon="10.8192033"><ele>115.0</ele><time>2026-04-26T09:30:47.779Z</time></trkpt><trkpt lat="45.5265633" lon="10.819335"><ele>115.0</ele><time>2026-04-26T09:30:49.779Z</time></trkpt><trkpt lat="45.5264983" lon="10.8193833"><ele>115.0</ele><time>2026-04-26T09:30:50.779Z</time></trkpt><trkpt lat="45.5264133" lon="10.8194133"><ele>115.0</ele><time>2026-04-26T09:30:51.779Z</time></trkpt><trkpt lat="45.52631" lon="10.819415"><ele>115.0</ele><time>2026-04-26T09:30:52.779Z</time></trkpt><trkpt lat="45.52619" lon="10.8193983"><ele>115.0</ele><time>2026-04-26T09:30:53.78Z</time></trkpt><trkpt lat="45.5260683" lon="10.8193833"><ele>115.25</ele><time>2026-04-26T09:30:54.78Z</time></trkpt><trkpt lat="45.52596" lon="10.8193833"><ele>115.5</ele><time>2026-04-26T09:30:55.779Z</time></trkpt><trkpt lat="45.5258467" lon="10.819385"><ele>115.75</ele><time>2026-04-26T09:30:56.78Z</time></trkpt><trkpt lat="45.5257333" lon="10.8193933"><ele>116.0</ele><time>2026-04-26T09:30:57.779Z</time></trkpt><trkpt lat="45.52561" lon="10.8193967"><ele>116.0</ele><time>2026-04-26T09:30:58.78Z</time></trkpt><trkpt lat="45.525485" lon="10.819395"><ele>116.0</ele><time>2026-04-26T09:30:59.779Z</time></trkpt><trkpt lat="45.525355" lon="10.8193933"><ele>116.0</ele><time>2026-04-26T09:31:00.778Z</time></trkpt><trkpt lat="45.5252283" lon="10.8193933"><ele>116.0</ele><time>2026-04-26T09:31:01.779Z</time></trkpt><trkpt lat="45.525115" lon="10.8193983"><ele>115.8</ele><time>2026-04-26T09:31:02.779Z</time></trkpt><trkpt lat="45.525015" lon="10.8194067"><ele>115.6</ele><time>2026-04-26T09:31:03.78Z</time></trkpt><trkpt lat="45.524945" lon="10.8194533"><ele>115.4</ele><time>2026-04-26T09:31:04.779Z</time></trkpt><trkpt lat="45.524885" lon="10.8195333"><ele>115.2</ele><time>2026-04-26T09:31:05.779Z</time></trkpt><trkpt lat="45.524845" lon="10.8196767"><ele>115.0</ele><time>2026-04-26T09:31:06.779Z</time></trkpt><trkpt lat="45.5248167" lon="10.8198517"><ele>115.0</ele><time>2026-04-26T09:31:07.779Z</time></trkpt><trkpt lat="45.5247983" lon="10.8200317"><ele>115.0</ele><time>2026-04-26T09:31:08.779Z</time></trkpt><trkpt lat="45.524775" lon="10.8202217"><ele>115.0</ele><time>2026-04-26T09:31:09.78Z</time></trkpt><trkpt lat="45.5247617" lon="10.8203867"><ele>115.0</ele><time>2026-04-26T09:31:10.779Z</time></trkpt><trkpt lat="45.5247417" lon="10.8205433"><ele>115.2</ele><time>2026-04-26T09:31:11.779Z</time></trkpt><trkpt lat="45.5247133" lon="10.8206917"><ele>115.4</ele><time>2026-04-26T09:31:12.779Z</time></trkpt><trkpt lat="45.5246917" lon="10.8208267"><ele>115.6</ele><time>2026-04-26T09:31:13.78Z</time></trkpt><trkpt lat="45.52467" lon="10.8209733"><ele>115.8</ele><time>2026-04-26T09:31:14.779Z</time></trkpt><trkpt lat="45.5246383" lon="10.8211067"><ele>116.0</ele><time>2026-04-26T09:31:15.78Z</time></trkpt><trkpt lat="45.5246067" lon="10.8212317"><ele>116.5</ele><time>2026-04-26T09:31:16.78Z</time></trkpt><trkpt lat="45.52453" lon="10.8213833"><ele>117.0</ele><time>2026-04-26T09:31:17.78Z</time></trkpt><trkpt lat="45.52443" lon="10.8215367"><ele>117.5</ele><time>2026-04-26T09:31:18.779Z</time></trkpt><trkpt lat="45.5243283" lon="10.8216617"><ele>118.0</ele><time>2026-04-26T09:31:19.779Z</time></trkpt><trkpt lat="45.52423" lon="10.8217833"><ele>118.0</ele><time>2026-04-26T09:31:20.78Z</time></trkpt><trkpt lat="45.52412" lon="10.821885"><ele>118.0</ele><time>2026-04-26T09:31:21.779Z</time></trkpt><trkpt lat="45.5239733" lon="10.8219433"><ele>118.0</ele><time>2026-04-26T09:31:22.78Z</time></trkpt><trkpt lat="45.523845" lon="10.8219867"><ele>118.0</ele><time>2026-04-26T09:31:23.779Z</time></trkpt><trkpt lat="45.5237083" lon="10.8220733"><ele>118.0</ele><time>2026-04-26T09:31:24.779Z</time></trkpt><trkpt lat="45.523595" lon="10.8221433"><ele>118.0</ele><time>2026-04-26T09:31:25.779Z</time></trkpt><trkpt lat="45.52347" lon="10.82217"><ele>118.0</ele><time>2026-04-26T09:31:26.779Z</time></trkpt><trkpt lat="45.5233383" lon="10.8221617"><ele>118.0</ele><time>2026-04-26T09:31:27.779Z</time></trkpt><trkpt lat="45.523185" lon="10.82217"><ele>118.0</ele><time>2026-04-26T09:31:28.779Z</time></trkpt><trkpt lat="45.52305" lon="10.8222"><ele>118.0</ele><time>2026-04-26T09:31:29.779Z</time></trkpt><trkpt lat="45.522925" lon="10.8222217"><ele>118.0</ele><time>2026-04-26T09:31:30.779Z</time></trkpt><trkpt lat="45.5227967" lon="10.82225"><ele>118.0</ele><time>2026-04-26T09:31:31.78Z</time></trkpt><trkpt lat="45.5226733" lon="10.82231"><ele>118.0</ele><time>2026-04-26T09:31:32.779Z</time></trkpt><trkpt lat="45.5225633" lon="10.8223333"><ele>118.00000000000001</ele><time>2026-04-26T09:31:33.779Z</time></trkpt><trkpt lat="45.5224533" lon="10.8223433"><ele>118.00000000000001</ele><time>2026-04-26T09:31:34.78Z</time></trkpt><trkpt lat="45.522365" lon="10.822325"><ele>118.0</ele><time>2026-04-26T09:31:35.78Z</time></trkpt><trkpt lat="45.5222633" lon="10.8223"><ele>118.0</ele><time>2026-04-26T09:31:36.779Z</time></trkpt><trkpt lat="45.52215" lon="10.8222967"><ele>117.5</ele><time>2026-04-26T09:31:37.779Z</time></trkpt><trkpt lat="45.5220383" lon="10.82232"><ele>117.0</ele><time>2026-04-26T09:31:38.78Z</time></trkpt><trkpt lat="45.5219167" lon="10.8223617"><ele>116.5</ele><time>2026-04-26T09:31:39.78Z</time></trkpt><trkpt lat="45.5217883" lon="10.8223917"><ele>116.0</ele><time>2026-04-26T09:31:40.778Z</time></trkpt><trkpt lat="45.5216467" lon="10.822415"><ele>116.0</ele><time>2026-04-26T09:31:41.778Z</time></trkpt><trkpt lat="45.5214867" lon="10.82242"><ele>116.0</ele><time>2026-04-26T09:31:42.778Z</time></trkpt><trkpt lat="45.5213433" lon="10.8224267"><ele>116.0</ele><time>2026-04-26T09:31:43.778Z</time></trkpt><trkpt lat="45.5211967" lon="10.8224317"><ele>115.75</ele><time>2026-04-26T09:31:44.779Z</time></trkpt><trkpt lat="45.5210467" lon="10.8224367"><ele>115.5</ele><time>2026-04-26T09:31:45.779Z</time></trkpt><trkpt lat="45.5209033" lon="10.8224417"><ele>115.25</ele><time>2026-04-26T09:31:46.779Z</time></trkpt><trkpt lat="45.5207533" lon="10.8224317"><ele>115.0</ele><time>2026-04-26T09:31:47.778Z</time></trkpt><trkpt lat="45.5206183" lon="10.8224217"><ele>115.0</ele><time>2026-04-26T09:31:48.779Z</time></trkpt><trkpt lat="45.520485" lon="10.8224267"><ele>115.0</ele><time>2026-04-26T09:31:49.779Z</time></trkpt><trkpt lat="45.5203617" lon="10.8224317"><ele>115.0</ele><time>2026-04-26T09:31:50.778Z</time></trkpt><trkpt lat="45.520245" lon="10.82246"><ele>115.0</ele><time>2026-04-26T09:31:51.779Z</time></trkpt><trkpt lat="45.5201283" lon="10.82246"><ele>115.25</ele><time>2026-04-26T09:31:52.778Z</time></trkpt><trkpt lat="45.5200033" lon="10.82245"><ele>115.5</ele><time>2026-04-26T09:31:53.778Z</time></trkpt><trkpt lat="45.5198517" lon="10.822435"><ele>115.75</ele><time>2026-04-26T09:31:54.778Z</time></trkpt><trkpt lat="45.5196883" lon="10.82244"><ele>116.0</ele><time>2026-04-26T09:31:55.778Z</time></trkpt><trkpt lat="45.5195483" lon="10.822465"><ele>116.75</ele><time>2026-04-26T09:31:56.779Z</time></trkpt><trkpt lat="45.51944" lon="10.8225117"><ele>117.5</ele><time>2026-04-26T09:31:57.778Z</time></trkpt><trkpt lat="45.51934" lon="10.8225733"><ele>118.25</ele><time>2026-04-26T09:31:58.779Z</time></trkpt><trkpt lat="45.5192333" lon="10.8226433"><ele>119.0</ele><time>2026-04-26T09:31:59.778Z</time></trkpt><trkpt lat="45.5191333" lon="10.82272"><ele>120.0</ele><time>2026-04-26T09:32:00.779Z</time></trkpt><trkpt lat="45.5190483" lon="10.8228117"><ele>121.0</ele><time>2026-04-26T09:32:01.778Z</time></trkpt><trkpt lat="45.518975" lon="10.8228933"><ele>122.0</ele><time>2026-04-26T09:32:02.778Z</time></trkpt><trkpt lat="45.518905" lon="10.82295"><ele>123.0</ele><time>2026-04-26T09:32:03.779Z</time></trkpt><trkpt lat="45.5188083" lon="10.8230267"><ele>124.0</ele><time>2026-04-26T09:32:05.778Z</time></trkpt><trkpt lat="45.5187533" lon="10.8230733"><ele>124.2</ele><time>2026-04-26T09:32:08.778Z</time></trkpt><trkpt lat="45.5186867" lon="10.82315"><ele>124.4</ele><time>2026-04-26T09:33:06.778Z</time></trkpt><trkpt lat="45.51863" lon="10.82328"><ele>124.6</ele><time>2026-04-26T09:33:08.779Z</time></trkpt><trkpt lat="45.5186017" lon="10.8233817"><ele>124.8</ele><time>2026-04-26T09:33:09.779Z</time></trkpt><trkpt lat="45.5185683" lon="10.823505"><ele>125.0</ele><time>2026-04-26T09:33:10.779Z</time></trkpt><trkpt lat="45.5185383" lon="10.8236383"><ele>125.0</ele><time>2026-04-26T09:33:11.778Z</time></trkpt><trkpt lat="45.5185167" lon="10.823775"><ele>125.0</ele><time>2026-04-26T09:33:12.778Z</time></trkpt><trkpt lat="45.5185" lon="10.823915"><ele>125.0</ele><time>2026-04-26T09:33:13.778Z</time></trkpt><trkpt lat="45.5184817" lon="10.8240633"><ele>125.0</ele><time>2026-04-26T09:33:14.778Z</time></trkpt><trkpt lat="45.5184667" lon="10.824205"><ele>125.0</ele><time>2026-04-26T09:33:15.778Z</time></trkpt><trkpt lat="45.51846" lon="10.8243383"><ele>126.2</ele><time>2026-04-26T09:33:16.778Z</time></trkpt><trkpt lat="45.51845" lon="10.8244783"><ele>127.4</ele><time>2026-04-26T09:33:17.778Z</time></trkpt><trkpt lat="45.5184417" lon="10.8246233"><ele>128.6</ele><time>2026-04-26T09:33:18.778Z</time></trkpt><trkpt lat="45.5184433" lon="10.8247783"><ele>129.8</ele><time>2026-04-26T09:33:19.779Z</time></trkpt><trkpt lat="45.518435" lon="10.824945"><ele>131.0</ele><time>2026-04-26T09:33:20.778Z</time></trkpt><trkpt lat="45.51843" lon="10.8251233"><ele>131.5</ele><time>2026-04-26T09:33:21.779Z</time></trkpt><trkpt lat="45.5184217" lon="10.825295"><ele>132.0</ele><time>2026-04-26T09:33:22.779Z</time></trkpt><trkpt lat="45.518415" lon="10.82548"><ele>132.5</ele><time>2026-04-26T09:33:23.779Z</time></trkpt><trkpt lat="45.51842" lon="10.825665"><ele>133.0</ele><time>2026-04-26T09:33:24.778Z</time></trkpt><trkpt lat="45.5184233" lon="10.8258517"><ele>133.75</ele><time>2026-04-26T09:33:25.778Z</time></trkpt><trkpt lat="45.5184417" lon="10.826045"><ele>134.5</ele><time>2026-04-26T09:33:26.778Z</time></trkpt><trkpt lat="45.5184467" lon="10.826255"><ele>135.25</ele><time>2026-04-26T09:33:27.779Z</time></trkpt><trkpt lat="45.5184567" lon="10.82645"><ele>136.0</ele><time>2026-04-26T09:33:28.779Z</time></trkpt><trkpt lat="45.5184567" lon="10.8266217"><ele>136.0</ele><time>2026-04-26T09:33:29.778Z</time></trkpt><trkpt lat="45.518465" lon="10.82679"><ele>136.0</ele><time>2026-04-26T09:33:30.778Z</time></trkpt><trkpt lat="45.5184733" lon="10.8269483"><ele>136.0</ele><time>2026-04-26T09:33:31.779Z</time></trkpt><trkpt lat="45.5184817" lon="10.82709"><ele>136.0</ele><time>2026-04-26T09:33:32.778Z</time></trkpt><trkpt lat="45.5184883" lon="10.8272183"><ele>136.0</ele><time>2026-04-26T09:33:33.779Z</time></trkpt><trkpt lat="45.518495" lon="10.8273333"><ele>136.4</ele><time>2026-04-26T09:33:34.778Z</time></trkpt><trkpt lat="45.5184933" lon="10.827445"><ele>136.8</ele><time>2026-04-26T09:33:35.778Z</time></trkpt><trkpt lat="45.5184867" lon="10.827565"><ele>137.20000000000002</ele><time>2026-04-26T09:33:36.778Z</time></trkpt><trkpt lat="45.5184833" lon="10.8277067"><ele>137.6</ele><time>2026-04-26T09:33:37.778Z</time></trkpt><trkpt lat="45.518485" lon="10.82786"><ele>138.0</ele><time>2026-04-26T09:33:38.778Z</time></trkpt><trkpt lat="45.5184883" lon="10.82802"><ele>138.75</ele><time>2026-04-26T09:33:39.779Z</time></trkpt><trkpt lat="45.5184933" lon="10.8281867"><ele>139.5</ele><time>2026-04-26T09:33:40.778Z</time></trkpt><trkpt lat="45.5185017" lon="10.8283617"><ele>140.25</ele><time>2026-04-26T09:33:41.778Z</time></trkpt><trkpt lat="45.51851" lon="10.828535"><ele>141.0</ele><time>2026-04-26T09:33:42.779Z</time></trkpt><trkpt lat="45.5185183" lon="10.8286983"><ele>141.0</ele><time>2026-04-26T09:33:43.779Z</time></trkpt><trkpt lat="45.5185267" lon="10.8288483"><ele>141.0</ele><time>2026-04-26T09:33:44.779Z</time></trkpt><trkpt lat="45.518525" lon="10.8289633"><ele>141.0</ele><time>2026-04-26T09:33:45.778Z</time></trkpt><trkpt lat="45.518525" lon="10.8290583"><ele>141.0</ele><time>2026-04-26T09:33:46.779Z</time></trkpt><trkpt lat="45.5185333" lon="10.8291867"><ele>141.0</ele><time>2026-04-26T09:33:48.778Z</time></trkpt><trkpt lat="45.5185533" lon="10.82933"><ele>141.0</ele><time>2026-04-26T09:33:50.778Z</time></trkpt><trkpt lat="45.51857" lon="10.82944"><ele>141.25</ele><time>2026-04-26T09:33:51.778Z</time></trkpt><trkpt lat="45.518585" lon="10.8295867"><ele>141.5</ele><time>2026-04-26T09:33:52.778Z</time></trkpt><trkpt lat="45.5186233" lon="10.829775"><ele>141.75</ele><time>2026-04-26T09:33:53.778Z</time></trkpt><trkpt lat="45.5186767" lon="10.8299917"><ele>142.0</ele><time>2026-04-26T09:33:54.779Z</time></trkpt><trkpt lat="45.5187267" lon="10.8301917"><ele>145.0</ele><time>2026-04-26T09:33:55.779Z</time></trkpt><trkpt lat="45.5187783" lon="10.830375"><ele>148.0</ele><time>2026-04-26T09:33:56.779Z</time></trkpt><trkpt lat="45.518815" lon="10.8305283"><ele>151.0</ele><time>2026-04-26T09:33:57.778Z</time></trkpt><trkpt lat="45.51882" lon="10.8306583"><ele>154.0</ele><time>2026-04-26T09:33:58.779Z</time></trkpt><trkpt lat="45.5188033" lon="10.8307867"><ele>157.0</ele><time>2026-04-26T09:33:59.778Z</time></trkpt><trkpt lat="45.5188" lon="10.830905"><ele>157.0</ele><time>2026-04-26T09:34:00.778Z</time></trkpt><trkpt lat="45.5188483" lon="10.8310817"><ele>157.0</ele><time>2026-04-26T09:34:02.778Z</time></trkpt><trkpt lat="45.5189033" lon="10.83117"><ele>157.0</ele><time>2026-04-26T09:34:03.778Z</time></trkpt><trkpt lat="45.5189983" lon="10.8311817"><ele>157.0</ele><time>2026-04-26T09:34:04.779Z</time></trkpt><trkpt lat="45.519075" lon="10.831165"><ele>157.0</ele><time>2026-04-26T09:34:05.778Z</time></trkpt><trkpt lat="45.5191283" lon="10.8310767"><ele>157.0</ele><time>2026-04-26T09:34:06.778Z</time></trkpt><trkpt lat="45.5191733" lon="10.8309633"><ele>157.0</ele><time>2026-04-26T09:34:07.779Z</time></trkpt><trkpt lat="45.5191933" lon="10.830845"><ele>157.0</ele><time>2026-04-26T09:34:08.778Z</time></trkpt><trkpt lat="45.51921" lon="10.83071"><ele>157.0</ele><time>2026-04-26T09:34:09.778Z</time></trkpt><trkpt lat="45.5192567" lon="10.8305617"><ele>157.0</ele><time>2026-04-26T09:34:10.778Z</time></trkpt><trkpt lat="45.519315" lon="10.8304167"><ele>157.0</ele><time>2026-04-26T09:34:11.778Z</time></trkpt><trkpt lat="45.519375" lon="10.8302517"><ele>157.0</ele><time>2026-04-26T09:34:12.778Z</time></trkpt><trkpt lat="45.5194283" lon="10.830085"><ele>157.0</ele><time>2026-04-26T09:34:13.778Z</time></trkpt><trkpt lat="45.51948" lon="10.8299117"><ele>157.0</ele><time>2026-04-26T09:34:14.778Z</time></trkpt><trkpt lat="45.5195367" lon="10.82974"><ele>158.0</ele><time>2026-04-26T09:34:15.778Z</time></trkpt><trkpt lat="45.5195967" lon="10.8295733"><ele>159.0</ele><time>2026-04-26T09:34:16.778Z</time></trkpt><trkpt lat="45.51965" lon="10.82942"><ele>160.0</ele><time>2026-04-26T09:34:17.778Z</time></trkpt><trkpt lat="45.5197167" lon="10.8292667"><ele>161.0</ele><time>2026-04-26T09:34:18.778Z</time></trkpt><trkpt lat="45.5197917" lon="10.829115"><ele>161.0</ele><time>2026-04-26T09:34:19.778Z</time></trkpt><trkpt lat="45.5198567" lon="10.8289667"><ele>161.0</ele><time>2026-04-26T09:34:20.779Z</time></trkpt><trkpt lat="45.5199267" lon="10.828825"><ele>161.0</ele><time>2026-04-26T09:34:21.778Z</time></trkpt><trkpt lat="45.5200033" lon="10.8286717"><ele>161.0</ele><time>2026-04-26T09:34:22.779Z</time></trkpt><trkpt lat="45.5200783" lon="10.8285067"><ele>161.5</ele><time>2026-04-26T09:34:23.778Z</time></trkpt><trkpt lat="45.52013" lon="10.8283233"><ele>162.0</ele><time>2026-04-26T09:34:24.778Z</time></trkpt><trkpt lat="45.52017" lon="10.8281333"><ele>162.5</ele><time>2026-04-26T09:34:25.778Z</time></trkpt><trkpt lat="45.5201983" lon="10.827935"><ele>163.0</ele><time>2026-04-26T09:34:26.778Z</time></trkpt><trkpt lat="45.5202233" lon="10.8277283"><ele>163.25</ele><time>2026-04-26T09:34:27.779Z</time></trkpt><trkpt lat="45.5202483" lon="10.82753"><ele>163.5</ele><time>2026-04-26T09:34:28.778Z</time></trkpt><trkpt lat="45.5202783" lon="10.827335"><ele>163.75</ele><time>2026-04-26T09:34:29.778Z</time></trkpt><trkpt lat="45.5203083" lon="10.8271383"><ele>164.0</ele><time>2026-04-26T09:34:30.778Z</time></trkpt><trkpt lat="45.520325" lon="10.8269267"><ele>165.0</ele><time>2026-04-26T09:34:31.778Z</time></trkpt><trkpt lat="45.5203467" lon="10.8267183"><ele>166.0</ele><time>2026-04-26T09:34:32.778Z</time></trkpt><trkpt lat="45.5203817" lon="10.826515"><ele>167.0</ele><time>2026-04-26T09:34:33.778Z</time></trkpt><trkpt lat="45.5204067" lon="10.826305"><ele>168.0</ele><time>2026-04-26T09:34:34.778Z</time></trkpt><trkpt lat="45.5204417" lon="10.82611"><ele>171.25</ele><time>2026-04-26T09:34:35.779Z</time></trkpt><trkpt lat="45.5204767" lon="10.8259233"><ele>174.5</ele><time>2026-04-26T09:34:36.778Z</time></trkpt><trkpt lat="45.5205383" lon="10.8257267"><ele>177.75</ele><time>2026-04-26T09:34:37.778Z</time></trkpt><trkpt lat="45.5206183" lon="10.8255733"><ele>181.0</ele><time>2026-04-26T09:34:38.778Z</time></trkpt><trkpt lat="45.5207167" lon="10.8254267"><ele>181.0</ele><time>2026-04-26T09:34:39.778Z</time></trkpt><trkpt lat="45.52084" lon="10.8252967"><ele>181.0</ele><time>2026-04-26T09:34:40.778Z</time></trkpt><trkpt lat="45.5209767" lon="10.8251717"><ele>181.0</ele><time>2026-04-26T09:34:41.778Z</time></trkpt><trkpt lat="45.5211067" lon="10.82512"><ele>178.0</ele><time>2026-04-26T09:34:42.779Z</time></trkpt><trkpt lat="45.5212533" lon="10.825095"><ele>175.0</ele><time>2026-04-26T09:34:43.778Z</time></trkpt><trkpt lat="45.52141" lon="10.8250867"><ele>172.0</ele><time>2026-04-26T09:34:44.779Z</time></trkpt><trkpt lat="45.5215567" lon="10.82511"><ele>176.5</ele><time>2026-04-26T09:34:45.778Z</time></trkpt><trkpt lat="45.5216733" lon="10.8251733"><ele>181.0</ele><time>2026-04-26T09:34:46.778Z</time></trkpt><trkpt lat="45.521795" lon="10.8252933"><ele>185.5</ele><time>2026-04-26T09:34:47.777Z</time></trkpt><trkpt lat="45.5219133" lon="10.8254433"><ele>190.0</ele><time>2026-04-26T09:34:48.778Z</time></trkpt><trkpt lat="45.5220367" lon="10.8256"><ele>187.66666666666669</ele><time>2026-04-26T09:34:49.778Z</time></trkpt><trkpt lat="45.5221583" lon="10.8257617"><ele>185.33333333333334</ele><time>2026-04-26T09:34:50.778Z</time></trkpt><trkpt lat="45.5222767" lon="10.8259283"><ele>183.0</ele><time>2026-04-26T09:34:51.777Z</time></trkpt><trkpt lat="45.522395" lon="10.826095"><ele>188.33333333333331</ele><time>2026-04-26T09:34:52.777Z</time></trkpt><trkpt lat="45.5225167" lon="10.8262583"><ele>193.66666666666666</ele><time>2026-04-26T09:34:53.777Z</time></trkpt><trkpt lat="45.5226333" lon="10.8264233"><ele>199.0</ele><time>2026-04-26T09:34:54.777Z</time></trkpt><trkpt lat="45.5227483" lon="10.8265733"><ele>199.0</ele><time>2026-04-26T09:34:55.777Z</time></trkpt><trkpt lat="45.522865" lon="10.8267283"><ele>199.0</ele><time>2026-04-26T09:34:56.778Z</time></trkpt><trkpt lat="45.5229533" lon="10.8268717"><ele>199.0</ele><time>2026-04-26T09:34:57.778Z</time></trkpt><trkpt lat="45.5230583" lon="10.82699"><ele>199.0</ele><time>2026-04-26T09:34:58.777Z</time></trkpt><trkpt lat="45.5231533" lon="10.82707"><ele>200.75</ele><time>2026-04-26T09:34:59.777Z</time></trkpt><trkpt lat="45.5232617" lon="10.8271517"><ele>202.5</ele><time>2026-04-26T09:35:00.777Z</time></trkpt><trkpt lat="45.5234033" lon="10.8271833"><ele>204.25</ele><time>2026-04-26T09:35:01.777Z</time></trkpt><trkpt lat="45.523545" lon="10.8271"><ele>206.0</ele><time>2026-04-26T09:35:02.777Z</time></trkpt><trkpt lat="45.523715" lon="10.8269717"><ele>208.0</ele><time>2026-04-26T09:35:03.778Z</time></trkpt><trkpt lat="45.523845" lon="10.8268567"><ele>210.0</ele><time>2026-04-26T09:35:04.778Z</time></trkpt><trkpt lat="45.5239667" lon="10.8267167"><ele>212.0</ele><time>2026-04-26T09:35:05.778Z</time></trkpt><trkpt lat="45.52409" lon="10.826565"><ele>212.0</ele><time>2026-04-26T09:35:06.777Z</time></trkpt><trkpt lat="45.5242183" lon="10.8264333"><ele>212.0</ele><time>2026-04-26T09:35:07.777Z</time></trkpt><trkpt lat="45.5243533" lon="10.8263233"><ele>212.0</ele><time>2026-04-26T09:35:08.777Z</time></trkpt><trkpt lat="45.5244883" lon="10.8262233"><ele>214.5</ele><time>2026-04-26T09:35:09.777Z</time></trkpt><trkpt lat="45.5246133" lon="10.8261383"><ele>217.0</ele><time>2026-04-26T09:35:10.777Z</time></trkpt><trkpt lat="45.5247267" lon="10.8260817"><ele>219.5</ele><time>2026-04-26T09:35:11.777Z</time></trkpt><trkpt lat="45.5248483" lon="10.8260467"><ele>222.0</ele><time>2026-04-26T09:35:12.778Z</time></trkpt><trkpt lat="45.5249833" lon="10.82604"><ele>222.0</ele><time>2026-04-26T09:35:13.777Z</time></trkpt><trkpt lat="45.525125" lon="10.8260467"><ele>222.0</ele><time>2026-04-26T09:35:14.777Z</time></trkpt><trkpt lat="45.5252767" lon="10.8260633"><ele>222.0</ele><time>2026-04-26T09:35:15.778Z</time></trkpt><trkpt lat="45.5254317" lon="10.82608"><ele>222.0</ele><time>2026-04-26T09:35:16.777Z</time></trkpt><trkpt lat="45.5255767" lon="10.8261133"><ele>222.33333333333331</ele><time>2026-04-26T09:35:17.778Z</time></trkpt><trkpt lat="45.52573" lon="10.826145"><ele>222.66666666666666</ele><time>2026-04-26T09:35:18.778Z</time></trkpt><trkpt lat="45.5258817" lon="10.8261683"><ele>223.0</ele><time>2026-04-26T09:35:19.777Z</time></trkpt><trkpt lat="45.5260417" lon="10.8262017"><ele>223.0</ele><time>2026-04-26T09:35:20.777Z</time></trkpt><trkpt lat="45.5262" lon="10.8262283"><ele>223.0</ele><time>2026-04-26T09:35:21.777Z</time></trkpt><trkpt lat="45.5263583" lon="10.8262517"><ele>223.0</ele><time>2026-04-26T09:35:22.777Z</time></trkpt><trkpt lat="45.52651" lon="10.8262733"><ele>225.33333333333331</ele><time>2026-04-26T09:35:23.778Z</time></trkpt><trkpt lat="45.5266667" lon="10.8262917"><ele>227.66666666666669</ele><time>2026-04-26T09:35:24.777Z</time></trkpt><trkpt lat="45.5268267" lon="10.8263033"><ele>230.0</ele><time>2026-04-26T09:35:25.778Z</time></trkpt><trkpt lat="45.526995" lon="10.8263067"><ele>231.66666666666669</ele><time>2026-04-26T09:35:26.777Z</time></trkpt><trkpt lat="45.5271633" lon="10.8262817"><ele>233.33333333333331</ele><time>2026-04-26T09:35:27.777Z</time></trkpt><trkpt lat="45.5273233" lon="10.8262417"><ele>235.0</ele><time>2026-04-26T09:35:28.778Z</time></trkpt><trkpt lat="45.527475" lon="10.8261817"><ele>235.0</ele><time>2026-04-26T09:35:29.777Z</time></trkpt><trkpt lat="45.5276183" lon="10.8260983"><ele>235.0</ele><time>2026-04-26T09:35:30.777Z</time></trkpt><trkpt lat="45.5277533" lon="10.8259783"><ele>235.0</ele><time>2026-04-26T09:35:31.777Z</time></trkpt><trkpt lat="45.527885" lon="10.8258433"><ele>234.33333333333331</ele><time>2026-04-26T09:35:32.777Z</time></trkpt><trkpt lat="45.5280183" lon="10.82571"><ele>233.66666666666669</ele><time>2026-04-26T09:35:33.777Z</time></trkpt><trkpt lat="45.528155" lon="10.8255967"><ele>233.0</ele><time>2026-04-26T09:35:34.777Z</time></trkpt><trkpt lat="45.5282917" lon="10.8254983"><ele>233.0</ele><time>2026-04-26T09:35:35.777Z</time></trkpt><trkpt lat="45.52843" lon="10.8254217"><ele>233.0</ele><time>2026-04-26T09:35:36.777Z</time></trkpt><trkpt lat="45.5285683" lon="10.8253617"><ele>233.0</ele><time>2026-04-26T09:35:37.777Z</time></trkpt><trkpt lat="45.52871" lon="10.825315"><ele>233.0</ele><time>2026-04-26T09:35:38.778Z</time></trkpt><trkpt lat="45.528855" lon="10.8252783"><ele>235.75</ele><time>2026-04-26T09:35:39.777Z</time></trkpt><trkpt lat="45.5290033" lon="10.8252517"><ele>238.5</ele><time>2026-04-26T09:35:40.777Z</time></trkpt><trkpt lat="45.5291433" lon="10.8252233"><ele>241.25</ele><time>2026-04-26T09:35:41.777Z</time></trkpt><trkpt lat="45.529275" lon="10.8251967"><ele>244.0</ele><time>2026-04-26T09:35:42.778Z</time></trkpt><trkpt lat="45.5294" lon="10.8251817"><ele>244.0</ele><time>2026-04-26T09:35:43.778Z</time></trkpt><trkpt lat="45.5295233" lon="10.8251883"><ele>244.0</ele><time>2026-04-26T09:35:44.777Z</time></trkpt><trkpt lat="45.5296417" lon="10.8252133"><ele>244.0</ele><time>2026-04-26T09:35:45.777Z</time></trkpt><trkpt lat="45.5297583" lon="10.8252717"><ele>244.0</ele><time>2026-04-26T09:35:46.777Z</time></trkpt><trkpt lat="45.529865" lon="10.8253467"><ele>244.25</ele><time>2026-04-26T09:35:47.777Z</time></trkpt><trkpt lat="45.52996" lon="10.8254417"><ele>244.5</ele><time>2026-04-26T09:35:48.777Z</time></trkpt><trkpt lat="45.530065" lon="10.82556"><ele>244.75</ele><time>2026-04-26T09:35:49.778Z</time></trkpt><trkpt lat="45.53017" lon="10.8256467"><ele>245.0</ele><time>2026-04-26T09:35:50.778Z</time></trkpt><trkpt lat="45.5302767" lon="10.8257217"><ele>245.0</ele><time>2026-04-26T09:35:51.778Z</time></trkpt><trkpt lat="45.5303883" lon="10.8257683"><ele>245.0</ele><time>2026-04-26T09:35:52.777Z</time></trkpt><trkpt lat="45.530515" lon="10.8258017"><ele>245.0</ele><time>2026-04-26T09:35:53.777Z</time></trkpt><trkpt lat="45.5306467" lon="10.8258467"><ele>245.0</ele><time>2026-04-26T09:35:54.778Z</time></trkpt><trkpt lat="45.5307783" lon="10.8258833"><ele>244.75</ele><time>2026-04-26T09:35:55.777Z</time></trkpt><trkpt lat="45.5309083" lon="10.8259233"><ele>244.5</ele><time>2026-04-26T09:35:56.777Z</time></trkpt><trkpt lat="45.53103" lon="10.825975"><ele>244.25</ele><time>2026-04-26T09:35:57.778Z</time></trkpt><trkpt lat="45.5311567" lon="10.8260317"><ele>244.0</ele><time>2026-04-26T09:35:58.777Z</time></trkpt><trkpt lat="45.5312867" lon="10.8260883"><ele>247.2</ele><time>2026-04-26T09:35:59.778Z</time></trkpt><trkpt lat="45.5314033" lon="10.8261267"><ele>250.39999999999998</ele><time>2026-04-26T09:36:00.777Z</time></trkpt><trkpt lat="45.5315033" lon="10.826155"><ele>253.6</ele><time>2026-04-26T09:36:01.777Z</time></trkpt><trkpt lat="45.5315833" lon="10.8261733"><ele>256.8</ele><time>2026-04-26T09:36:02.777Z</time></trkpt><trkpt lat="45.5316967" lon="10.8261717"><ele>260.0</ele><time>2026-04-26T09:36:04.777Z</time></trkpt><trkpt lat="45.5317817" lon="10.8262367"><ele>260.0</ele><time>2026-04-26T09:36:05.777Z</time></trkpt><trkpt lat="45.5318767" lon="10.8263"><ele>260.0</ele><time>2026-04-26T09:36:06.777Z</time></trkpt><trkpt lat="45.5319683" lon="10.8263633"><ele>260.0</ele><time>2026-04-26T09:36:07.777Z</time></trkpt><trkpt lat="45.532065" lon="10.8264283"><ele>260.0</ele><time>2026-04-26T09:36:08.777Z</time></trkpt><trkpt lat="45.5321533" lon="10.82651"><ele>260.0</ele><time>2026-04-26T09:36:09.778Z</time></trkpt><trkpt lat="45.5322317" lon="10.826585"><ele>260.5</ele><time>2026-04-26T09:36:10.777Z</time></trkpt><trkpt lat="45.5322883" lon="10.826655"><ele>261.0</ele><time>2026-04-26T09:36:11.777Z</time></trkpt><trkpt lat="45.5323467" lon="10.8267383"><ele>261.5</ele><time>2026-04-26T09:36:12.777Z</time></trkpt><trkpt lat="45.5323867" lon="10.826825"><ele>262.0</ele><time>2026-04-26T09:36:13.778Z</time></trkpt><trkpt lat="45.532425" lon="10.82692"><ele>262.5</ele><time>2026-04-26T09:36:14.778Z</time></trkpt><trkpt lat="45.5324567" lon="10.8270183"><ele>263.0</ele><time>2026-04-26T09:36:15.778Z</time></trkpt><trkpt lat="45.53249" lon="10.8271217"><ele>263.0</ele><time>2026-04-26T09:36:16.778Z</time></trkpt><trkpt lat="45.53251" lon="10.8272117"><ele>263.0</ele><time>2026-04-26T09:36:17.777Z</time></trkpt><trkpt lat="45.5325467" lon="10.8272983"><ele>263.0</ele><time>2026-04-26T09:36:18.777Z</time></trkpt><trkpt lat="45.5325817" lon="10.827385"><ele>263.0</ele><time>2026-04-26T09:36:19.777Z</time></trkpt><trkpt lat="45.5326233" lon="10.82746"><ele>263.0</ele><time>2026-04-26T09:36:20.777Z</time></trkpt><trkpt lat="45.5326817" lon="10.82758"><ele>263.0</ele><time>2026-04-26T09:36:22.777Z</time></trkpt><trkpt lat="45.5327617" lon="10.8276683"><ele>263.0</ele><time>2026-04-26T09:36:24.777Z</time></trkpt><trkpt lat="45.5328617" lon="10.8277233"><ele>263.0</ele><time>2026-04-26T09:36:26.777Z</time></trkpt><trkpt lat="45.53296" lon="10.8277383"><ele>263.0</ele><time>2026-04-26T09:36:28.778Z</time></trkpt><trkpt lat="45.5330567" lon="10.8277233"><ele>263.0</ele><time>2026-04-26T09:36:30.777Z</time></trkpt><trkpt lat="45.53312" lon="10.827715"><ele>263.0</ele><time>2026-04-26T09:36:31.777Z</time></trkpt><trkpt lat="45.5332417" lon="10.82772"><ele>263.0</ele><time>2026-04-26T09:36:33.778Z</time></trkpt><trkpt lat="45.53331" lon="10.8277283"><ele>263.0</ele><time>2026-04-26T09:36:34.777Z</time></trkpt><trkpt lat="45.5334117" lon="10.8277467"><ele>263.0</ele><time>2026-04-26T09:36:36.778Z</time></trkpt><trkpt lat="45.53353" lon="10.8277733"><ele>263.0</ele><time>2026-04-26T09:36:38.778Z</time></trkpt><trkpt lat="45.5335917" lon="10.8277967"><ele>263.0</ele><time>2026-04-26T09:36:39.778Z</time></trkpt><trkpt lat="45.5336567" lon="10.82782"><ele>263.0</ele><time>2026-04-26T09:36:40.777Z</time></trkpt><trkpt lat="45.5337533" lon="10.8279233"><ele>262.1666666666667</ele><time>2026-04-26T09:36:42.777Z</time></trkpt><trkpt lat="45.5338033" lon="10.8279883"><ele>261.33333333333337</ele><time>2026-04-26T09:36:43.777Z</time></trkpt><trkpt lat="45.5338583" lon="10.8280517"><ele>260.5</ele><time>2026-04-26T09:36:44.777Z</time></trkpt><trkpt lat="45.5339183" lon="10.8281067"><ele>259.6666666666667</ele><time>2026-04-26T09:36:45.778Z</time></trkpt><trkpt lat="45.5340117" lon="10.8282167"><ele>258.8333333333333</ele><time>2026-04-26T09:36:47.777Z</time></trkpt><trkpt lat="45.5340483" lon="10.8282933"><ele>258.0</ele><time>2026-04-26T09:36:48.777Z</time></trkpt><trkpt lat="45.534105" lon="10.8284317"><ele>256.71428571428567</ele><time>2026-04-26T09:36:50.778Z</time></trkpt><trkpt lat="45.5341067" lon="10.82854"><ele>255.42857142857142</ele><time>2026-04-26T09:36:52.777Z</time></trkpt><trkpt lat="45.53406" lon="10.8286367"><ele>254.1428571428571</ele><time>2026-04-26T09:36:54.777Z</time></trkpt><trkpt lat="45.53401" lon="10.8287"><ele>252.85714285714283</ele><time>2026-04-26T09:36:56.777Z</time></trkpt><trkpt lat="45.533955" lon="10.82875"><ele>251.57142857142856</ele><time>2026-04-26T09:36:57.778Z</time></trkpt><trkpt lat="45.5338983" lon="10.8288133"><ele>250.28571428571428</ele><time>2026-04-26T09:36:58.778Z</time></trkpt><trkpt lat="45.533835" lon="10.8288417"><ele>249.0</ele><time>2026-04-26T09:36:59.777Z</time></trkpt><trkpt lat="45.5337517" lon="10.82888"><ele>251.79999999999998</ele><time>2026-04-26T09:37:00.777Z</time></trkpt><trkpt lat="45.53366" lon="10.8289233"><ele>254.59999999999997</ele><time>2026-04-26T09:37:01.777Z</time></trkpt><trkpt lat="45.53358" lon="10.8289667"><ele>257.4</ele><time>2026-04-26T09:37:02.778Z</time></trkpt><trkpt lat="45.5335033" lon="10.8290217"><ele>260.2</ele><time>2026-04-26T09:37:03.778Z</time></trkpt><trkpt lat="45.5334267" lon="10.8291017"><ele>263.0</ele><time>2026-04-26T09:37:04.778Z</time></trkpt><trkpt lat="45.533335" lon="10.82919"><ele>260.6</ele><time>2026-04-26T09:37:05.777Z</time></trkpt><trkpt lat="45.5332433" lon="10.8293133"><ele>258.20000000000005</ele><time>2026-04-26T09:37:06.777Z</time></trkpt><trkpt lat="45.5331633" lon="10.8294133"><ele>255.8</ele><time>2026-04-26T09:37:07.778Z</time></trkpt><trkpt lat="45.533095" lon="10.8295083"><ele>253.4</ele><time>2026-04-26T09:37:08.777Z</time></trkpt><trkpt lat="45.5330283" lon="10.82962"><ele>251.0</ele><time>2026-04-26T09:37:09.777Z</time></trkpt><trkpt lat="45.5329733" lon="10.8297017"><ele>251.0</ele><time>2026-04-26T09:37:10.777Z</time></trkpt><trkpt lat="45.532925" lon="10.8297883"><ele>251.00000000000003</ele><time>2026-04-26T09:37:11.778Z</time></trkpt><trkpt lat="45.5328833" lon="10.829895"><ele>251.00000000000003</ele><time>2026-04-26T09:37:12.777Z</time></trkpt><trkpt lat="45.532845" lon="10.8300233"><ele>251.0</ele><time>2026-04-26T09:37:13.778Z</time></trkpt><trkpt lat="45.5328017" lon="10.8301467"><ele>251.0</ele><time>2026-04-26T09:37:14.777Z</time></trkpt><trkpt lat="45.5327617" lon="10.8302783"><ele>251.4</ele><time>2026-04-26T09:37:15.778Z</time></trkpt><trkpt lat="45.5327383" lon="10.8304217"><ele>251.8</ele><time>2026-04-26T09:37:16.777Z</time></trkpt><trkpt lat="45.532705" lon="10.83058"><ele>252.20000000000002</ele><time>2026-04-26T09:37:17.778Z</time></trkpt><trkpt lat="45.53266" lon="10.8307217"><ele>252.60000000000002</ele><time>2026-04-26T09:37:18.778Z</time></trkpt><trkpt lat="45.5326083" lon="10.8308533"><ele>253.0</ele><time>2026-04-26T09:37:19.778Z</time></trkpt><trkpt lat="45.5325367" lon="10.83102"><ele>253.0</ele><time>2026-04-26T09:37:20.778Z</time></trkpt><trkpt lat="45.5324767" lon="10.8311517"><ele>253.0</ele><time>2026-04-26T09:37:21.778Z</time></trkpt><trkpt lat="45.53239" lon="10.8313217"><ele>253.0</ele><time>2026-04-26T09:37:22.777Z</time></trkpt><trkpt lat="45.5323167" lon="10.8314667"><ele>253.0</ele><time>2026-04-26T09:37:23.777Z</time></trkpt><trkpt lat="45.532245" lon="10.831605"><ele>253.0</ele><time>2026-04-26T09:37:24.777Z</time></trkpt><trkpt lat="45.53217" lon="10.8317567"><ele>253.0</ele><time>2026-04-26T09:37:25.777Z</time></trkpt><trkpt lat="45.5321017" lon="10.8319067"><ele>253.0</ele><time>2026-04-26T09:37:26.777Z</time></trkpt><trkpt lat="45.532025" lon="10.8320683"><ele>253.0</ele><time>2026-04-26T09:37:27.777Z</time></trkpt><trkpt lat="45.53195" lon="10.8322183"><ele>252.25</ele><time>2026-04-26T09:37:28.778Z</time></trkpt><trkpt lat="45.5318883" lon="10.8323533"><ele>251.5</ele><time>2026-04-26T09:37:29.778Z</time></trkpt><trkpt lat="45.5318167" lon="10.8324933"><ele>250.75</ele><time>2026-04-26T09:37:30.777Z</time></trkpt><trkpt lat="45.5317517" lon="10.832625"><ele>250.0</ele><time>2026-04-26T09:37:31.777Z</time></trkpt><trkpt lat="45.5316867" lon="10.8327433"><ele>249.99999999999997</ele><time>2026-04-26T09:37:32.777Z</time></trkpt><trkpt lat="45.5316933" lon="10.8328933"><ele>250.0</ele><time>2026-04-26T09:37:33.777Z</time></trkpt><trkpt lat="45.5316683" lon="10.8330167"><ele>250.0</ele><time>2026-04-26T09:37:34.777Z</time></trkpt><trkpt lat="45.5316367" lon="10.83311"><ele>250.0</ele><time>2026-04-26T09:37:35.777Z</time></trkpt><trkpt lat="45.5316233" lon="10.8332083"><ele>249.99999999999997</ele><time>2026-04-26T09:37:36.777Z</time></trkpt><trkpt lat="45.5315967" lon="10.8333233"><ele>250.0</ele><time>2026-04-26T09:37:37.777Z</time></trkpt><trkpt lat="45.53157" lon="10.8334183"><ele>250.0</ele><time>2026-04-26T09:37:38.778Z</time></trkpt><trkpt lat="45.5315283" lon="10.8335167"><ele>250.0</ele><time>2026-04-26T09:37:39.777Z</time></trkpt><trkpt lat="45.5314867" lon="10.8336017"><ele>250.0</ele><time>2026-04-26T09:37:40.778Z</time></trkpt><trkpt lat="45.531415" lon="10.833705"><ele>250.0</ele><time>2026-04-26T09:37:41.777Z</time></trkpt><trkpt lat="45.53133" lon="10.8338417"><ele>250.0</ele><time>2026-04-26T09:37:42.777Z</time></trkpt><trkpt lat="45.53126" lon="10.8339333"><ele>250.33333333333331</ele><time>2026-04-26T09:37:43.777Z</time></trkpt><trkpt lat="45.531205" lon="10.834015"><ele>250.66666666666666</ele><time>2026-04-26T09:37:44.777Z</time></trkpt><trkpt lat="45.531155" lon="10.8340783"><ele>251.0</ele><time>2026-04-26T09:37:45.777Z</time></trkpt><trkpt lat="45.531125" lon="10.8341733"><ele>251.33333333333331</ele><time>2026-04-26T09:37:47.777Z</time></trkpt><trkpt lat="45.5311217" lon="10.83429"><ele>251.66666666666666</ele><time>2026-04-26T09:37:49.777Z</time></trkpt><trkpt lat="45.5311783" lon="10.83443"><ele>252.0</ele><time>2026-04-26T09:37:51.777Z</time></trkpt><trkpt lat="45.5312417" lon="10.8345483"><ele>252.2</ele><time>2026-04-26T09:37:53.776Z</time></trkpt><trkpt lat="45.5312783" lon="10.8346433"><ele>252.39999999999998</ele><time>2026-04-26T09:37:55.776Z</time></trkpt><trkpt lat="45.5312833" lon="10.8347583"><ele>252.60000000000002</ele><time>2026-04-26T09:37:57.776Z</time></trkpt><trkpt lat="45.5312283" lon="10.8349383"><ele>252.8</ele><time>2026-04-26T09:37:59.777Z</time></trkpt><trkpt lat="45.5312083" lon="10.835045"><ele>253.0</ele><time>2026-04-26T09:38:00.777Z</time></trkpt><trkpt lat="45.531185" lon="10.83518"><ele>253.16666666666666</ele><time>2026-04-26T09:38:01.777Z</time></trkpt><trkpt lat="45.531155" lon="10.8352867"><ele>253.33333333333331</ele><time>2026-04-26T09:38:02.777Z</time></trkpt><trkpt lat="45.5311367" lon="10.8353867"><ele>253.5</ele><time>2026-04-26T09:38:04.776Z</time></trkpt><trkpt lat="45.5311983" lon="10.8354267"><ele>253.66666666666669</ele><time>2026-04-26T09:38:07.776Z</time></trkpt><trkpt lat="45.5312817" lon="10.835345"><ele>253.83333333333334</ele><time>2026-04-26T09:38:09.776Z</time></trkpt><trkpt lat="45.5313317" lon="10.8352633"><ele>254.0</ele><time>2026-04-26T09:38:10.776Z</time></trkpt><trkpt lat="45.5313783" lon="10.8351383"><ele>253.79999999999998</ele><time>2026-04-26T09:38:11.777Z</time></trkpt><trkpt lat="45.5314317" lon="10.8350017"><ele>253.59999999999997</ele><time>2026-04-26T09:38:12.776Z</time></trkpt><trkpt lat="45.5314933" lon="10.8348533"><ele>253.4</ele><time>2026-04-26T09:38:13.776Z</time></trkpt><trkpt lat="45.5315667" lon="10.8347283"><ele>253.2</ele><time>2026-04-26T09:38:14.776Z</time></trkpt><trkpt lat="45.5316367" lon="10.8346217"><ele>253.0</ele><time>2026-04-26T09:38:15.776Z</time></trkpt><trkpt lat="45.53172" lon="10.8345267"><ele>253.0</ele><time>2026-04-26T09:38:16.776Z</time></trkpt><trkpt lat="45.53183" lon="10.83445"><ele>253.0</ele><time>2026-04-26T09:38:17.776Z</time></trkpt><trkpt lat="45.5319517" lon="10.8343867"><ele>253.0</ele><time>2026-04-26T09:38:18.776Z</time></trkpt><trkpt lat="45.532085" lon="10.834345"><ele>253.0</ele><time>2026-04-26T09:38:19.776Z</time></trkpt><trkpt lat="45.532215" lon="10.8343083"><ele>255.0</ele><time>2026-04-26T09:38:20.776Z</time></trkpt><trkpt lat="45.5323467" lon="10.83427"><ele>257.0</ele><time>2026-04-26T09:38:21.776Z</time></trkpt><trkpt lat="45.53248" lon="10.834205"><ele>259.0</ele><time>2026-04-26T09:38:22.777Z</time></trkpt><trkpt lat="45.532615" lon="10.8341383"><ele>261.0</ele><time>2026-04-26T09:38:23.776Z</time></trkpt><trkpt lat="45.532755" lon="10.834065"><ele>265.6666666666667</ele><time>2026-04-26T09:38:24.776Z</time></trkpt><trkpt lat="45.532895" lon="10.8339933"><ele>270.33333333333337</ele><time>2026-04-26T09:38:25.776Z</time></trkpt><trkpt lat="45.5330367" lon="10.8339183"><ele>275.0</ele><time>2026-04-26T09:38:26.776Z</time></trkpt><trkpt lat="45.5331817" lon="10.8338383"><ele>275.0</ele><time>2026-04-26T09:38:27.776Z</time></trkpt><trkpt lat="45.5333267" lon="10.833765"><ele>275.0</ele><time>2026-04-26T09:38:28.776Z</time></trkpt><trkpt lat="45.5334683" lon="10.83367"><ele>275.0</ele><time>2026-04-26T09:38:29.776Z</time></trkpt><trkpt lat="45.5336167" lon="10.833585"><ele>273.0</ele><time>2026-04-26T09:38:30.776Z</time></trkpt><trkpt lat="45.5337633" lon="10.8335117"><ele>271.0</ele><time>2026-04-26T09:38:31.776Z</time></trkpt><trkpt lat="45.5339083" lon="10.8334533"><ele>269.0</ele><time>2026-04-26T09:38:32.776Z</time></trkpt><trkpt lat="45.5340367" lon="10.8334067"><ele>267.0</ele><time>2026-04-26T09:38:33.777Z</time></trkpt><trkpt lat="45.53416" lon="10.833395"><ele>267.0</ele><time>2026-04-26T09:38:34.776Z</time></trkpt><trkpt lat="45.5342883" lon="10.8333967"><ele>267.0</ele><time>2026-04-26T09:38:35.777Z</time></trkpt><trkpt lat="45.5344083" lon="10.8334167"><ele>267.0</ele><time>2026-04-26T09:38:36.777Z</time></trkpt><trkpt lat="45.5345383" lon="10.83342"><ele>267.0</ele><time>2026-04-26T09:38:37.776Z</time></trkpt><trkpt lat="45.53467" lon="10.8334033"><ele>269.0</ele><time>2026-04-26T09:38:38.776Z</time></trkpt><trkpt lat="45.5348067" lon="10.8333633"><ele>271.0</ele><time>2026-04-26T09:38:39.776Z</time></trkpt><trkpt lat="45.5349567" lon="10.8333"><ele>273.0</ele><time>2026-04-26T09:38:40.776Z</time></trkpt><trkpt lat="45.5350967" lon="10.8332383"><ele>275.0</ele><time>2026-04-26T09:38:41.776Z</time></trkpt><trkpt lat="45.5352433" lon="10.8331883"><ele>275.0</ele><time>2026-04-26T09:38:42.776Z</time></trkpt><trkpt lat="45.5353867" lon="10.8331433"><ele>275.0</ele><time>2026-04-26T09:38:43.776Z</time></trkpt><trkpt lat="45.535525" lon="10.8330817"><ele>275.0</ele><time>2026-04-26T09:38:44.777Z</time></trkpt><trkpt lat="45.53566" lon="10.83299"><ele>275.0</ele><time>2026-04-26T09:38:45.776Z</time></trkpt><trkpt lat="45.5357783" lon="10.8328417"><ele>274.75</ele><time>2026-04-26T09:38:46.776Z</time></trkpt><trkpt lat="45.5358917" lon="10.8326983"><ele>274.5</ele><time>2026-04-26T09:38:47.777Z</time></trkpt><trkpt lat="45.535995" lon="10.8325617"><ele>274.25</ele><time>2026-04-26T09:38:48.776Z</time></trkpt><trkpt lat="45.5361133" lon="10.8324417"><ele>274.0</ele><time>2026-04-26T09:38:49.777Z</time></trkpt><trkpt lat="45.5362417" lon="10.832365"><ele>276.5</ele><time>2026-04-26T09:38:50.776Z</time></trkpt><trkpt lat="45.5363867" lon="10.8323183"><ele>279.0</ele><time>2026-04-26T09:38:51.776Z</time></trkpt><trkpt lat="45.5365317" lon="10.832315"><ele>281.5</ele><time>2026-04-26T09:38:52.776Z</time></trkpt><trkpt lat="45.5366733" lon="10.8323667"><ele>284.0</ele><time>2026-04-26T09:38:53.776Z</time></trkpt><trkpt lat="45.5368017" lon="10.8324533"><ele>284.0</ele><time>2026-04-26T09:38:54.776Z</time></trkpt><trkpt lat="45.5369317" lon="10.83256"><ele>284.0</ele><time>2026-04-26T09:38:55.776Z</time></trkpt><trkpt lat="45.537065" lon="10.8326733"><ele>284.0</ele><time>2026-04-26T09:38:56.776Z</time></trkpt><trkpt lat="45.537205" lon="10.8327683"><ele>288.25</ele><time>2026-04-26T09:38:57.777Z</time></trkpt><trkpt lat="45.537355" lon="10.8328567"><ele>292.5</ele><time>2026-04-26T09:38:58.776Z</time></trkpt><trkpt lat="45.53748" lon="10.8329083"><ele>296.75</ele><time>2026-04-26T09:38:59.777Z</time></trkpt><trkpt lat="45.537615" lon="10.8329"><ele>301.0</ele><time>2026-04-26T09:39:00.776Z</time></trkpt><trkpt lat="45.5377533" lon="10.8328467"><ele>299.0</ele><time>2026-04-26T09:39:01.776Z</time></trkpt><trkpt lat="45.5378883" lon="10.832765"><ele>297.0</ele><time>2026-04-26T09:39:02.776Z</time></trkpt><trkpt lat="45.5380333" lon="10.8326683"><ele>295.0</ele><time>2026-04-26T09:39:03.776Z</time></trkpt><trkpt lat="45.538165" lon="10.832565"><ele>295.0</ele><time>2026-04-26T09:39:04.777Z</time></trkpt><trkpt lat="45.5383083" lon="10.8324317"><ele>295.0</ele><time>2026-04-26T09:39:05.776Z</time></trkpt><trkpt lat="45.5384517" lon="10.8323633"><ele>295.0</ele><time>2026-04-26T09:39:06.776Z</time></trkpt><trkpt lat="45.5385967" lon="10.8323283"><ele>295.25</ele><time>2026-04-26T09:39:07.776Z</time></trkpt><trkpt lat="45.5387317" lon="10.8323417"><ele>295.5</ele><time>2026-04-26T09:39:08.776Z</time></trkpt><trkpt lat="45.5388633" lon="10.832395"><ele>295.75</ele><time>2026-04-26T09:39:09.777Z</time></trkpt><trkpt lat="45.53898" lon="10.83249"><ele>296.0</ele><time>2026-04-26T09:39:10.777Z</time></trkpt><trkpt lat="45.5391283" lon="10.83263"><ele>300.5</ele><time>2026-04-26T09:39:11.777Z</time></trkpt><trkpt lat="45.5392567" lon="10.8327517"><ele>305.0</ele><time>2026-04-26T09:39:12.776Z</time></trkpt><trkpt lat="45.539375" lon="10.8328767"><ele>309.5</ele><time>2026-04-26T09:39:13.776Z</time></trkpt><trkpt lat="45.5394633" lon="10.83303"><ele>314.0</ele><time>2026-04-26T09:39:14.776Z</time></trkpt><trkpt lat="45.5395267" lon="10.8332"><ele>314.75</ele><time>2026-04-26T09:39:15.777Z</time></trkpt><trkpt lat="45.5395617" lon="10.8333733"><ele>315.5</ele><time>2026-04-26T09:39:16.776Z</time></trkpt><trkpt lat="45.5395917" lon="10.8335383"><ele>316.25</ele><time>2026-04-26T09:39:17.776Z</time></trkpt><trkpt lat="45.5396367" lon="10.8336917"><ele>317.0</ele><time>2026-04-26T09:39:18.776Z</time></trkpt><trkpt lat="45.5397517" lon="10.8338083"><ele>317.0</ele><time>2026-04-26T09:39:19.776Z</time></trkpt><trkpt lat="45.5398917" lon="10.833855"><ele>317.0</ele><time>2026-04-26T09:39:20.777Z</time></trkpt><trkpt lat="45.5400433" lon="10.8338883"><ele>317.0</ele><time>2026-04-26T09:39:21.776Z</time></trkpt><trkpt lat="45.5402017" lon="10.8339017"><ele>317.0</ele><time>2026-04-26T09:39:22.776Z</time></trkpt><trkpt lat="45.5403617" lon="10.833895"><ele>317.0</ele><time>2026-04-26T09:39:23.777Z</time></trkpt><trkpt lat="45.5405283" lon="10.833915"><ele>317.0</ele><time>2026-04-26T09:39:24.776Z</time></trkpt><trkpt lat="45.5407083" lon="10.83394"><ele>318.6666666666667</ele><time>2026-04-26T09:39:25.776Z</time></trkpt><trkpt lat="45.5408717" lon="10.8339717"><ele>320.3333333333333</ele><time>2026-04-26T09:39:26.776Z</time></trkpt><trkpt lat="45.541035" lon="10.834"><ele>322.0</ele><time>2026-04-26T09:39:27.776Z</time></trkpt><trkpt lat="45.541195" lon="10.834025"><ele>322.66666666666663</ele><time>2026-04-26T09:39:28.776Z</time></trkpt><trkpt lat="45.5413517" lon="10.834035"><ele>323.3333333333333</ele><time>2026-04-26T09:39:29.777Z</time></trkpt><trkpt lat="45.5415083" lon="10.8340267"><ele>324.0</ele><time>2026-04-26T09:39:30.776Z</time></trkpt><trkpt lat="45.5416633" lon="10.8340133"><ele>324.0</ele><time>2026-04-26T09:39:31.776Z</time></trkpt><trkpt lat="45.541815" lon="10.8340383"><ele>324.0</ele><time>2026-04-26T09:39:32.776Z</time></trkpt><trkpt lat="45.5419517" lon="10.8340983"><ele>324.0</ele><time>2026-04-26T09:39:33.777Z</time></trkpt><trkpt lat="45.5420817" lon="10.8342"><ele>324.0</ele><time>2026-04-26T09:39:34.776Z</time></trkpt><trkpt lat="45.5422133" lon="10.834335"><ele>326.25</ele><time>2026-04-26T09:39:35.776Z</time></trkpt><trkpt lat="45.5423417" lon="10.8344433"><ele>328.5</ele><time>2026-04-26T09:39:36.776Z</time></trkpt><trkpt lat="45.5424733" lon="10.8345367"><ele>330.75</ele><time>2026-04-26T09:39:37.777Z</time></trkpt><trkpt lat="45.5426133" lon="10.8346117"><ele>333.0</ele><time>2026-04-26T09:39:38.776Z</time></trkpt><trkpt lat="45.5427683" lon="10.83467"><ele>332.6666666666667</ele><time>2026-04-26T09:39:39.776Z</time></trkpt><trkpt lat="45.5429183" lon="10.83469"><ele>332.33333333333337</ele><time>2026-04-26T09:39:40.777Z</time></trkpt><trkpt lat="45.5430733" lon="10.8347217"><ele>332.0</ele><time>2026-04-26T09:39:41.776Z</time></trkpt><trkpt lat="45.54323" lon="10.8347333"><ele>332.0</ele><time>2026-04-26T09:39:42.776Z</time></trkpt><trkpt lat="45.5434033" lon="10.8347433"><ele>332.0</ele><time>2026-04-26T09:39:43.776Z</time></trkpt><trkpt lat="45.543585" lon="10.8347883"><ele>332.0</ele><time>2026-04-26T09:39:44.776Z</time></trkpt><trkpt lat="45.543765" lon="10.8348033"><ele>333.0</ele><time>2026-04-26T09:39:45.776Z</time></trkpt><trkpt lat="45.5439267" lon="10.8348083"><ele>334.0</ele><time>2026-04-26T09:39:46.777Z</time></trkpt><trkpt lat="45.54407" lon="10.83481"><ele>335.0</ele><time>2026-04-26T09:39:47.776Z</time></trkpt><trkpt lat="45.5442067" lon="10.834805"><ele>336.0</ele><time>2026-04-26T09:39:48.776Z</time></trkpt><trkpt lat="45.5443317" lon="10.8348033"><ele>336.0</ele><time>2026-04-26T09:39:49.776Z</time></trkpt><trkpt lat="45.5444483" lon="10.83481"><ele>336.0</ele><time>2026-04-26T09:39:50.776Z</time></trkpt><trkpt lat="45.544555" lon="10.8348133"><ele>336.0</ele><time>2026-04-26T09:39:51.776Z</time></trkpt><trkpt lat="45.5446567" lon="10.834825"><ele>336.0</ele><time>2026-04-26T09:39:52.777Z</time></trkpt><trkpt lat="45.5447367" lon="10.83486"><ele>336.0</ele><time>2026-04-26T09:39:53.777Z</time></trkpt><trkpt lat="45.5448017" lon="10.8348933"><ele>335.8</ele><time>2026-04-26T09:39:54.776Z</time></trkpt><trkpt lat="45.5448667" lon="10.8349267"><ele>335.6</ele><time>2026-04-26T09:39:55.777Z</time></trkpt><trkpt lat="45.5449267" lon="10.83496"><ele>335.4</ele><time>2026-04-26T09:39:56.776Z</time></trkpt><trkpt lat="45.5450167" lon="10.835035"><ele>335.2</ele><time>2026-04-26T09:39:57.776Z</time></trkpt><trkpt lat="45.545105" lon="10.8351233"><ele>335.0</ele><time>2026-04-26T09:39:58.776Z</time></trkpt><trkpt lat="45.5452083" lon="10.8352517"><ele>336.6666666666667</ele><time>2026-04-26T09:39:59.776Z</time></trkpt><trkpt lat="45.54531" lon="10.835415"><ele>338.3333333333333</ele><time>2026-04-26T09:40:00.776Z</time></trkpt><trkpt lat="45.54541" lon="10.8356067"><ele>340.0</ele><time>2026-04-26T09:40:01.776Z</time></trkpt><trkpt lat="45.5454883" lon="10.83582"><ele>341.0</ele><time>2026-04-26T09:40:02.776Z</time></trkpt><trkpt lat="45.545555" lon="10.8360133"><ele>342.0</ele><time>2026-04-26T09:40:03.777Z</time></trkpt><trkpt lat="45.5455933" lon="10.8362067"><ele>343.0</ele><time>2026-04-26T09:40:04.776Z</time></trkpt><trkpt lat="45.5455817" lon="10.83639"><ele>344.0</ele><time>2026-04-26T09:40:05.776Z</time></trkpt><trkpt lat="45.5455933" lon="10.8365617"><ele>344.0</ele><time>2026-04-26T09:40:06.777Z</time></trkpt><trkpt lat="45.5455567" lon="10.836695"><ele>344.0</ele><time>2026-04-26T09:40:07.777Z</time></trkpt><trkpt lat="45.5454767" lon="10.83679"><ele>344.0</ele><time>2026-04-26T09:40:08.776Z</time></trkpt><trkpt lat="45.54542" lon="10.8368383"><ele>344.0</ele><time>2026-04-26T09:40:09.777Z</time></trkpt><trkpt lat="45.5453367" lon="10.8368717"><ele>344.0</ele><time>2026-04-26T09:40:11.776Z</time></trkpt><trkpt lat="45.5453767" lon="10.836525"><ele>344.0</ele><time>2026-04-26T09:40:14.777Z</time></trkpt><trkpt lat="45.54545" lon="10.8361917"><ele>344.0</ele><time>2026-04-26T09:40:15.776Z</time></trkpt><trkpt lat="45.5454617" lon="10.8359833"><ele>344.0</ele><time>2026-04-26T09:40:16.776Z</time></trkpt><trkpt lat="45.5454533" lon="10.8357717"><ele>344.5</ele><time>2026-04-26T09:40:17.776Z</time></trkpt><trkpt lat="45.5454217" lon="10.83561"><ele>345.0</ele><time>2026-04-26T09:40:18.776Z</time></trkpt><trkpt lat="45.5453567" lon="10.8354183"><ele>345.5</ele><time>2026-04-26T09:40:19.776Z</time></trkpt><trkpt lat="45.5452767" lon="10.8352683"><ele>346.0</ele><time>2026-04-26T09:40:20.776Z</time></trkpt><trkpt lat="45.545155" lon="10.83512"><ele>343.25</ele><time>2026-04-26T09:40:21.776Z</time></trkpt><trkpt lat="45.5450233" lon="10.834975"><ele>340.5</ele><time>2026-04-26T09:40:22.776Z</time></trkpt><trkpt lat="45.5449" lon="10.8348633"><ele>337.75</ele><time>2026-04-26T09:40:23.776Z</time></trkpt><trkpt lat="45.54478" lon="10.8347967"><ele>335.0</ele><time>2026-04-26T09:40:24.776Z</time></trkpt><trkpt lat="45.5446717" lon="10.8347467"><ele>335.0</ele><time>2026-04-26T09:40:25.776Z</time></trkpt><trkpt lat="45.5445717" lon="10.83472"><ele>335.0</ele><time>2026-04-26T09:40:26.776Z</time></trkpt><trkpt lat="45.5444833" lon="10.8347067"><ele>335.0</ele><time>2026-04-26T09:40:27.776Z</time></trkpt><trkpt lat="45.5444033" lon="10.8347033"><ele>335.0</ele><time>2026-04-26T09:40:28.777Z</time></trkpt><trkpt lat="45.544335" lon="10.8347083"><ele>335.0</ele><time>2026-04-26T09:40:30.776Z</time></trkpt><trkpt lat="45.544385" lon="10.8346417"><ele>335.0</ele><time>2026-04-26T09:40:34.776Z</time></trkpt><trkpt lat="45.54445" lon="10.8346517"><ele>335.0</ele><time>2026-04-26T09:40:36.776Z</time></trkpt><trkpt lat="45.54452" lon="10.834665"><ele>335.0</ele><time>2026-04-26T09:40:38.776Z</time></trkpt><trkpt lat="45.5445867" lon="10.8346817"><ele>335.0</ele><time>2026-04-26T09:40:39.776Z</time></trkpt><trkpt lat="45.544685" lon="10.8347017"><ele>335.0</ele><time>2026-04-26T09:40:40.776Z</time></trkpt><trkpt lat="45.5447733" lon="10.83472"><ele>335.0</ele><time>2026-04-26T09:40:41.777Z</time></trkpt><trkpt lat="45.54487" lon="10.8347533"><ele>335.0</ele><time>2026-04-26T09:40:42.776Z</time></trkpt><trkpt lat="45.5449683" lon="10.8347917"><ele>335.0</ele><time>2026-04-26T09:40:43.777Z</time></trkpt><trkpt lat="45.5450583" lon="10.834825"><ele>335.0</ele><time>2026-04-26T09:40:44.776Z</time></trkpt><trkpt lat="45.5451583" lon="10.8348717"><ele>335.0</ele><time>2026-04-26T09:40:45.776Z</time></trkpt><trkpt lat="45.5452733" lon="10.8349483"><ele>335.0</ele><time>2026-04-26T09:40:46.777Z</time></trkpt><trkpt lat="45.5453933" lon="10.8350533"><ele>336.25</ele><time>2026-04-26T09:40:47.777Z</time></trkpt><trkpt lat="45.5455017" lon="10.8351617"><ele>337.5</ele><time>2026-04-26T09:40:48.776Z</time></trkpt><trkpt lat="45.5456167" lon="10.835275"><ele>338.75</ele><time>2026-04-26T09:40:49.777Z</time></trkpt><trkpt lat="45.5457333" lon="10.8353767"><ele>340.0</ele><time>2026-04-26T09:40:50.776Z</time></trkpt><trkpt lat="45.5458533" lon="10.8354733"><ele>340.0</ele><time>2026-04-26T09:40:51.776Z</time></trkpt><trkpt lat="45.5459867" lon="10.8355533"><ele>340.0</ele><time>2026-04-26T09:40:52.776Z</time></trkpt><trkpt lat="45.54612" lon="10.8356167"><ele>340.0</ele><time>2026-04-26T09:40:53.776Z</time></trkpt><trkpt lat="45.5462483" lon="10.8356633"><ele>340.0</ele><time>2026-04-26T09:40:54.777Z</time></trkpt><trkpt lat="45.5464" lon="10.8357217"><ele>338.0</ele><time>2026-04-26T09:40:55.776Z</time></trkpt><trkpt lat="45.54654" lon="10.8357733"><ele>336.0</ele><time>2026-04-26T09:40:56.775Z</time></trkpt><trkpt lat="45.54668" lon="10.83583"><ele>334.0</ele><time>2026-04-26T09:40:57.775Z</time></trkpt><trkpt lat="45.5468267" lon="10.835885"><ele>332.0</ele><time>2026-04-26T09:40:58.776Z</time></trkpt><trkpt lat="45.546985" lon="10.8359317"><ele>332.6666666666667</ele><time>2026-04-26T09:40:59.776Z</time></trkpt><trkpt lat="45.54714" lon="10.8359717"><ele>333.3333333333333</ele><time>2026-04-26T09:41:00.775Z</time></trkpt><trkpt lat="45.5472883" lon="10.8360067"><ele>334.0</ele><time>2026-04-26T09:41:01.775Z</time></trkpt><trkpt lat="45.5474467" lon="10.8360333"><ele>334.0</ele><time>2026-04-26T09:41:02.775Z</time></trkpt><trkpt lat="45.5476" lon="10.8360583"><ele>334.0</ele><time>2026-04-26T09:41:03.775Z</time></trkpt><trkpt lat="45.5477367" lon="10.8360783"><ele>334.0</ele><time>2026-04-26T09:41:04.776Z</time></trkpt><trkpt lat="45.54784" lon="10.8360933"><ele>334.0</ele><time>2026-04-26T09:41:05.776Z</time></trkpt><trkpt lat="45.5479133" lon="10.8361133"><ele>333.5</ele><time>2026-04-26T09:41:06.776Z</time></trkpt><trkpt lat="45.54801" lon="10.83617"><ele>333.0</ele><time>2026-04-26T09:41:08.775Z</time></trkpt><trkpt lat="45.5480717" lon="10.8362117"><ele>332.5</ele><time>2026-04-26T09:41:09.775Z</time></trkpt><trkpt lat="45.5481467" lon="10.8362833"><ele>332.0</ele><time>2026-04-26T09:41:10.775Z</time></trkpt><trkpt lat="45.5482167" lon="10.836365"><ele>331.5</ele><time>2026-04-26T09:41:11.775Z</time></trkpt><trkpt lat="45.5482817" lon="10.8364633"><ele>331.0</ele><time>2026-04-26T09:41:12.775Z</time></trkpt><trkpt lat="45.5483383" lon="10.8365717"><ele>331.0</ele><time>2026-04-26T09:41:13.776Z</time></trkpt><trkpt lat="45.5483967" lon="10.8366817"><ele>331.0</ele><time>2026-04-26T09:41:14.775Z</time></trkpt><trkpt lat="45.5484567" lon="10.8367783"><ele>331.0</ele><time>2026-04-26T09:41:15.776Z</time></trkpt><trkpt lat="45.5485117" lon="10.8368433"><ele>331.0</ele><time>2026-04-26T09:41:16.775Z</time></trkpt><trkpt lat="45.5486017" lon="10.8369067"><ele>331.0</ele><time>2026-04-26T09:41:18.776Z</time></trkpt><trkpt lat="45.548675" lon="10.836835"><ele>331.0</ele><time>2026-04-26T09:41:21.775Z</time></trkpt><trkpt lat="45.5487633" lon="10.8367383"><ele>331.8</ele><time>2026-04-26T09:41:23.776Z</time></trkpt><trkpt lat="45.5488367" lon="10.8366183"><ele>332.6</ele><time>2026-04-26T09:41:25.775Z</time></trkpt><trkpt lat="45.5488917" lon="10.8365083"><ele>333.4</ele><time>2026-04-26T09:41:27.775Z</time></trkpt><trkpt lat="45.5489817" lon="10.8363817"><ele>334.2</ele><time>2026-04-26T09:41:29.775Z</time></trkpt><trkpt lat="45.5490283" lon="10.8363033"><ele>335.0</ele><time>2026-04-26T09:41:30.775Z</time></trkpt><trkpt lat="45.5490733" lon="10.836205"><ele>335.0</ele><time>2026-04-26T09:41:31.776Z</time></trkpt><trkpt lat="45.5491133" lon="10.8361183"><ele>335.0</ele><time>2026-04-26T09:41:32.776Z</time></trkpt><trkpt lat="45.5491733" lon="10.8360183"><ele>335.0</ele><time>2026-04-26T09:41:33.776Z</time></trkpt><trkpt lat="45.5492417" lon="10.83591"><ele>335.0</ele><time>2026-04-26T09:41:34.775Z</time></trkpt><trkpt lat="45.5493233" lon="10.835795"><ele>335.0</ele><time>2026-04-26T09:41:35.775Z</time></trkpt><trkpt lat="45.549405" lon="10.8356767"><ele>334.4</ele><time>2026-04-26T09:41:36.776Z</time></trkpt><trkpt lat="45.549485" lon="10.8355717"><ele>333.8</ele><time>2026-04-26T09:41:37.775Z</time></trkpt><trkpt lat="45.5495633" lon="10.835475"><ele>333.20000000000005</ele><time>2026-04-26T09:41:38.775Z</time></trkpt><trkpt lat="45.5496433" lon="10.8353817"><ele>332.6</ele><time>2026-04-26T09:41:39.775Z</time></trkpt><trkpt lat="45.54973" lon="10.8352867"><ele>332.0</ele><time>2026-04-26T09:41:40.776Z</time></trkpt><trkpt lat="45.5498183" lon="10.8352317"><ele>332.0</ele><time>2026-04-26T09:41:41.776Z</time></trkpt><trkpt lat="45.5499083" lon="10.835185"><ele>332.0</ele><time>2026-04-26T09:41:42.776Z</time></trkpt><trkpt lat="45.55" lon="10.8351567"><ele>332.0</ele><time>2026-04-26T09:41:43.776Z</time></trkpt><trkpt lat="45.5500867" lon="10.8351233"><ele>332.0</ele><time>2026-04-26T09:41:44.775Z</time></trkpt><trkpt lat="45.5501683" lon="10.8350967"><ele>332.0</ele><time>2026-04-26T09:41:45.775Z</time></trkpt><trkpt lat="45.5502433" lon="10.8350933"><ele>332.0</ele><time>2026-04-26T09:41:46.775Z</time></trkpt><trkpt lat="45.5503183" lon="10.8351017"><ele>332.0</ele><time>2026-04-26T09:41:47.776Z</time></trkpt><trkpt lat="45.5504017" lon="10.8351467"><ele>332.0</ele><time>2026-04-26T09:41:48.775Z</time></trkpt><trkpt lat="45.5505133" lon="10.8352317"><ele>332.0</ele><time>2026-04-26T09:41:49.775Z</time></trkpt><trkpt lat="45.550635" lon="10.8353167"><ele>332.0</ele><time>2026-04-26T09:41:50.775Z</time></trkpt><trkpt lat="45.5507533" lon="10.8353933"><ele>332.0</ele><time>2026-04-26T09:41:51.775Z</time></trkpt><trkpt lat="45.5508783" lon="10.8354717"><ele>332.0</ele><time>2026-04-26T09:41:52.775Z</time></trkpt><trkpt lat="45.5509967" lon="10.8355417"><ele>332.0</ele><time>2026-04-26T09:41:53.775Z</time></trkpt><trkpt lat="45.55112" lon="10.8356133"><ele>332.0</ele><time>2026-04-26T09:41:54.776Z</time></trkpt><trkpt lat="45.5512567" lon="10.8356983"><ele>331.20000000000005</ele><time>2026-04-26T09:41:55.775Z</time></trkpt><trkpt lat="45.5513683" lon="10.8357667"><ele>330.4</ele><time>2026-04-26T09:41:56.776Z</time></trkpt><trkpt lat="45.5514783" lon="10.83583"><ele>329.6</ele><time>2026-04-26T09:41:57.775Z</time></trkpt><trkpt lat="45.5515717" lon="10.8358883"><ele>328.79999999999995</ele><time>2026-04-26T09:41:58.776Z</time></trkpt><trkpt lat="45.5516383" lon="10.8359067"><ele>328.0</ele><time>2026-04-26T09:41:59.776Z</time></trkpt><trkpt lat="45.5517217" lon="10.8359217"><ele>328.0</ele><time>2026-04-26T09:42:00.775Z</time></trkpt><trkpt lat="45.551825" lon="10.8359267"><ele>328.0</ele><time>2026-04-26T09:42:01.775Z</time></trkpt><trkpt lat="45.5519333" lon="10.8359133"><ele>328.0</ele><time>2026-04-26T09:42:02.775Z</time></trkpt><trkpt lat="45.5520617" lon="10.8359083"><ele>328.0</ele><time>2026-04-26T09:42:03.775Z</time></trkpt><trkpt lat="45.55219" lon="10.8359"><ele>327.25</ele><time>2026-04-26T09:42:04.775Z</time></trkpt><trkpt lat="45.552325" lon="10.8358983"><ele>326.5</ele><time>2026-04-26T09:42:05.776Z</time></trkpt><trkpt lat="45.5524467" lon="10.8358983"><ele>325.75</ele><time>2026-04-26T09:42:06.775Z</time></trkpt><trkpt lat="45.5525783" lon="10.83591"><ele>325.0</ele><time>2026-04-26T09:42:07.775Z</time></trkpt><trkpt lat="45.5526933" lon="10.8359083"><ele>325.0</ele><time>2026-04-26T09:42:08.775Z</time></trkpt><trkpt lat="45.5528" lon="10.8359367"><ele>325.0</ele><time>2026-04-26T09:42:09.776Z</time></trkpt><trkpt lat="45.5529017" lon="10.835965"><ele>325.0</ele><time>2026-04-26T09:42:10.775Z</time></trkpt><trkpt lat="45.55299" lon="10.8360033"><ele>325.0</ele><time>2026-04-26T09:42:11.775Z</time></trkpt><trkpt lat="45.5530917" lon="10.83607"><ele>325.0</ele><time>2026-04-26T09:42:12.775Z</time></trkpt><trkpt lat="45.5532167" lon="10.836135"><ele>327.75</ele><time>2026-04-26T09:42:13.775Z</time></trkpt><trkpt lat="45.5533467" lon="10.8362033"><ele>330.5</ele><time>2026-04-26T09:42:14.775Z</time></trkpt><trkpt lat="45.553465" lon="10.8362767"><ele>333.25</ele><time>2026-04-26T09:42:15.775Z</time></trkpt><trkpt lat="45.5535817" lon="10.8363533"><ele>336.0</ele><time>2026-04-26T09:42:16.775Z</time></trkpt><trkpt lat="45.5536983" lon="10.8364133"><ele>334.25</ele><time>2026-04-26T09:42:17.775Z</time></trkpt><trkpt lat="45.55382" lon="10.8364683"><ele>332.5</ele><time>2026-04-26T09:42:18.776Z</time></trkpt><trkpt lat="45.5539333" lon="10.8365017"><ele>330.75</ele><time>2026-04-26T09:42:19.776Z</time></trkpt><trkpt lat="45.5540317" lon="10.8365"><ele>329.0</ele><time>2026-04-26T09:42:20.776Z</time></trkpt><trkpt lat="45.5541583" lon="10.8364967"><ele>329.0</ele><time>2026-04-26T09:42:21.776Z</time></trkpt><trkpt lat="45.554275" lon="10.8365033"><ele>329.0</ele><time>2026-04-26T09:42:22.776Z</time></trkpt><trkpt lat="45.554385" lon="10.8365083"><ele>329.0</ele><time>2026-04-26T09:42:23.775Z</time></trkpt><trkpt lat="45.5544967" lon="10.8365433"><ele>329.0</ele><time>2026-04-26T09:42:24.775Z</time></trkpt><trkpt lat="45.5545983" lon="10.836585"><ele>329.0</ele><time>2026-04-26T09:42:25.775Z</time></trkpt><trkpt lat="45.5547117" lon="10.83664"><ele>328.75</ele><time>2026-04-26T09:42:26.776Z</time></trkpt><trkpt lat="45.5548283" lon="10.8367183"><ele>328.5</ele><time>2026-04-26T09:42:27.775Z</time></trkpt><trkpt lat="45.55494" lon="10.8368017"><ele>328.25</ele><time>2026-04-26T09:42:28.775Z</time></trkpt><trkpt lat="45.5550567" lon="10.836905"><ele>328.0</ele><time>2026-04-26T09:42:29.775Z</time></trkpt><trkpt lat="45.55517" lon="10.837015"><ele>328.0</ele><time>2026-04-26T09:42:30.775Z</time></trkpt><trkpt lat="45.55527" lon="10.8371233"><ele>328.0</ele><time>2026-04-26T09:42:31.775Z</time></trkpt><trkpt lat="45.5553617" lon="10.83723"><ele>328.0</ele><time>2026-04-26T09:42:32.775Z</time></trkpt><trkpt lat="45.55544" lon="10.8373417"><ele>328.0</ele><time>2026-04-26T09:42:33.775Z</time></trkpt><trkpt lat="45.5555" lon="10.837445"><ele>328.0</ele><time>2026-04-26T09:42:34.776Z</time></trkpt><trkpt lat="45.5555583" lon="10.8375567"><ele>325.79999999999995</ele><time>2026-04-26T09:42:35.776Z</time></trkpt><trkpt lat="45.5555967" lon="10.8376617"><ele>323.59999999999997</ele><time>2026-04-26T09:42:36.775Z</time></trkpt><trkpt lat="45.5555833" lon="10.8377933"><ele>321.4</ele><time>2026-04-26T09:42:37.776Z</time></trkpt><trkpt lat="45.555555" lon="10.8379417"><ele>319.2</ele><time>2026-04-26T09:42:38.775Z</time></trkpt><trkpt lat="45.5555217" lon="10.838075"><ele>317.0</ele><time>2026-04-26T09:42:39.775Z</time></trkpt><trkpt lat="45.5554833" lon="10.8382067"><ele>317.0</ele><time>2026-04-26T09:42:40.776Z</time></trkpt><trkpt lat="45.55545" lon="10.8383533"><ele>317.0</ele><time>2026-04-26T09:42:41.775Z</time></trkpt><trkpt lat="45.55541" lon="10.8384933"><ele>317.0</ele><time>2026-04-26T09:42:42.775Z</time></trkpt><trkpt lat="45.5553683" lon="10.83862"><ele>317.0</ele><time>2026-04-26T09:42:43.776Z</time></trkpt><trkpt lat="45.555345" lon="10.83873"><ele>317.0</ele><time>2026-04-26T09:42:44.776Z</time></trkpt><trkpt lat="45.555315" lon="10.8388417"><ele>319.8</ele><time>2026-04-26T09:42:46.776Z</time></trkpt><trkpt lat="45.5553117" lon="10.8389517"><ele>322.6</ele><time>2026-04-26T09:42:48.775Z</time></trkpt><trkpt lat="45.555415" lon="10.8389183"><ele>325.40000000000003</ele><time>2026-04-26T09:42:49.776Z</time></trkpt><trkpt lat="45.5554883" lon="10.8388883"><ele>328.2</ele><time>2026-04-26T09:42:50.776Z</time></trkpt><trkpt lat="45.55563" lon="10.8387217"><ele>331.0</ele><time>2026-04-26T09:42:52.775Z</time></trkpt><trkpt lat="45.55569" lon="10.8386483"><ele>331.0</ele><time>2026-04-26T09:42:53.775Z</time></trkpt><trkpt lat="45.5557833" lon="10.8385267"><ele>331.0</ele><time>2026-04-26T09:42:55.775Z</time></trkpt><trkpt lat="45.5558517" lon="10.8384867"><ele>331.0</ele><time>2026-04-26T09:42:56.776Z</time></trkpt><trkpt lat="45.5559867" lon="10.83854"><ele>331.0</ele><time>2026-04-26T09:42:58.775Z</time></trkpt><trkpt lat="45.5560483" lon="10.8385833"><ele>331.0</ele><time>2026-04-26T09:42:59.775Z</time></trkpt><trkpt lat="45.5561117" lon="10.8386517"><ele>331.0</ele><time>2026-04-26T09:43:00.775Z</time></trkpt><trkpt lat="45.55617" lon="10.8387317"><ele>331.0</ele><time>2026-04-26T09:43:01.775Z</time></trkpt><trkpt lat="45.55622" lon="10.838825"><ele>331.0</ele><time>2026-04-26T09:43:02.775Z</time></trkpt><trkpt lat="45.5562783" lon="10.838925"><ele>331.0</ele><time>2026-04-26T09:43:03.775Z</time></trkpt><trkpt lat="45.5563333" lon="10.839035"><ele>331.0</ele><time>2026-04-26T09:43:04.776Z</time></trkpt><trkpt lat="45.5563667" lon="10.8391567"><ele>331.0</ele><time>2026-04-26T09:43:05.775Z</time></trkpt><trkpt lat="45.5563933" lon="10.83926"><ele>331.0</ele><time>2026-04-26T09:43:06.776Z</time></trkpt><trkpt lat="45.55641" lon="10.839365"><ele>331.0</ele><time>2026-04-26T09:43:07.775Z</time></trkpt><trkpt lat="45.5564117" lon="10.839455"><ele>331.0</ele><time>2026-04-26T09:43:08.776Z</time></trkpt><trkpt lat="45.5563967" lon="10.839555"><ele>331.0</ele><time>2026-04-26T09:43:09.775Z</time></trkpt><trkpt lat="45.5564417" lon="10.8396567"><ele>331.0</ele><time>2026-04-26T09:43:11.776Z</time></trkpt><trkpt lat="45.55654" lon="10.8397"><ele>331.0</ele><time>2026-04-26T09:43:14.776Z</time></trkpt><trkpt lat="45.5566233" lon="10.8396483"><ele>331.0</ele><time>2026-04-26T09:43:16.776Z</time></trkpt><trkpt lat="45.5567433" lon="10.8396817"><ele>331.0</ele><time>2026-04-26T09:43:18.776Z</time></trkpt><trkpt lat="45.5568417" lon="10.83977"><ele>331.0</ele><time>2026-04-26T09:43:20.776Z</time></trkpt><trkpt lat="45.556895" lon="10.83984"><ele>331.0</ele><time>2026-04-26T09:43:21.776Z</time></trkpt><trkpt lat="45.5569367" lon="10.83992"><ele>331.0</ele><time>2026-04-26T09:43:22.775Z</time></trkpt><trkpt lat="45.5569817" lon="10.8400167"><ele>331.0</ele><time>2026-04-26T09:43:23.775Z</time></trkpt><trkpt lat="45.5570333" lon="10.840125"><ele>331.0</ele><time>2026-04-26T09:43:24.776Z</time></trkpt><trkpt lat="45.5570817" lon="10.8402383"><ele>331.0</ele><time>2026-04-26T09:43:25.776Z</time></trkpt><trkpt lat="45.5571383" lon="10.8403283"><ele>331.0</ele><time>2026-04-26T09:43:26.775Z</time></trkpt><trkpt lat="45.5571917" lon="10.8404117"><ele>331.0</ele><time>2026-04-26T09:43:27.775Z</time></trkpt><trkpt lat="45.55726" lon="10.840485"><ele>331.0</ele><time>2026-04-26T09:43:28.776Z</time></trkpt><trkpt lat="45.5573233" lon="10.84057"><ele>332.3333333333333</ele><time>2026-04-26T09:43:29.775Z</time></trkpt><trkpt lat="45.557385" lon="10.8406517"><ele>333.66666666666663</ele><time>2026-04-26T09:43:30.776Z</time></trkpt><trkpt lat="45.557475" lon="10.8407333"><ele>335.0</ele><time>2026-04-26T09:43:31.775Z</time></trkpt><trkpt lat="45.55754" lon="10.8408"><ele>336.3333333333333</ele><time>2026-04-26T09:43:32.775Z</time></trkpt><trkpt lat="45.5575883" lon="10.8408583"><ele>337.6666666666667</ele><time>2026-04-26T09:43:33.775Z</time></trkpt><trkpt lat="45.5576467" lon="10.8409067"><ele>339.0</ele><time>2026-04-26T09:43:35.775Z</time></trkpt><trkpt lat="45.5576267" lon="10.8407633"><ele>339.0</ele><time>2026-04-26T09:43:50.775Z</time></trkpt><trkpt lat="45.5576317" lon="10.84064"><ele>339.0</ele><time>2026-04-26T09:43:53.775Z</time></trkpt><trkpt lat="45.557605" lon="10.840555"><ele>339.0</ele><time>2026-04-26T09:43:54.775Z</time></trkpt><trkpt lat="45.5575617" lon="10.8404567"><ele>339.0</ele><time>2026-04-26T09:43:55.775Z</time></trkpt><trkpt lat="45.5575083" lon="10.8403267"><ele>339.0</ele><time>2026-04-26T09:43:56.776Z</time></trkpt><trkpt lat="45.5574733" lon="10.840195"><ele>339.0</ele><time>2026-04-26T09:43:57.775Z</time></trkpt><trkpt lat="45.5574333" lon="10.8400367"><ele>335.0</ele><time>2026-04-26T09:43:58.774Z</time></trkpt><trkpt lat="45.5574167" lon="10.8398317"><ele>331.0</ele><time>2026-04-26T09:43:59.774Z</time></trkpt><trkpt lat="45.5574117" lon="10.8395867"><ele>327.0</ele><time>2026-04-26T09:44:00.774Z</time></trkpt><trkpt lat="45.5574" lon="10.8393717"><ele>326.25</ele><time>2026-04-26T09:44:01.775Z</time></trkpt><trkpt lat="45.5573817" lon="10.8392083"><ele>325.5</ele><time>2026-04-26T09:44:02.774Z</time></trkpt><trkpt lat="45.5573617" lon="10.8390467"><ele>324.75</ele><time>2026-04-26T09:44:03.775Z</time></trkpt><trkpt lat="45.557345" lon="10.8388917"><ele>324.0</ele><time>2026-04-26T09:44:04.775Z</time></trkpt><trkpt lat="45.5573117" lon="10.8387367"><ele>324.0</ele><time>2026-04-26T09:44:05.775Z</time></trkpt><trkpt lat="45.5572867" lon="10.8385833"><ele>324.0</ele><time>2026-04-26T09:44:06.775Z</time></trkpt><trkpt lat="45.5572717" lon="10.8384417"><ele>324.0</ele><time>2026-04-26T09:44:07.774Z</time></trkpt><trkpt lat="45.5572667" lon="10.838315"><ele>324.0</ele><time>2026-04-26T09:44:08.774Z</time></trkpt><trkpt lat="45.55728" lon="10.838185"><ele>324.0</ele><time>2026-04-26T09:44:09.775Z</time></trkpt><trkpt lat="45.55732" lon="10.8380367"><ele>324.0</ele><time>2026-04-26T09:44:10.775Z</time></trkpt><trkpt lat="45.5573883" lon="10.8378833"><ele>324.0</ele><time>2026-04-26T09:44:11.774Z</time></trkpt><trkpt lat="45.557465" lon="10.8377283"><ele>324.0</ele><time>2026-04-26T09:44:12.774Z</time></trkpt><trkpt lat="45.557545" lon="10.8375783"><ele>324.0</ele><time>2026-04-26T09:44:13.775Z</time></trkpt><trkpt lat="45.55762" lon="10.837435"><ele>325.25</ele><time>2026-04-26T09:44:14.775Z</time></trkpt><trkpt lat="45.5576967" lon="10.8372983"><ele>326.5</ele><time>2026-04-26T09:44:15.774Z</time></trkpt><trkpt lat="45.55776" lon="10.8371667"><ele>327.75</ele><time>2026-04-26T09:44:16.774Z</time></trkpt><trkpt lat="45.557815" lon="10.837025"><ele>329.0</ele><time>2026-04-26T09:44:17.774Z</time></trkpt><trkpt lat="45.5578783" lon="10.8368883"><ele>327.0</ele><time>2026-04-26T09:44:18.775Z</time></trkpt><trkpt lat="45.5579283" lon="10.836725"><ele>325.0</ele><time>2026-04-26T09:44:19.775Z</time></trkpt><trkpt lat="45.5579717" lon="10.83656"><ele>323.0</ele><time>2026-04-26T09:44:20.774Z</time></trkpt><trkpt lat="45.5580083" lon="10.8364133"><ele>321.0</ele><time>2026-04-26T09:44:21.774Z</time></trkpt><trkpt lat="45.5580517" lon="10.8362467"><ele>321.0</ele><time>2026-04-26T09:44:22.774Z</time></trkpt><trkpt lat="45.5581133" lon="10.8360833"><ele>321.0</ele><time>2026-04-26T09:44:23.774Z</time></trkpt><trkpt lat="45.5581767" lon="10.8359183"><ele>321.0</ele><time>2026-04-26T09:44:24.774Z</time></trkpt><trkpt lat="45.5582417" lon="10.8357817"><ele>321.0</ele><time>2026-04-26T09:44:25.774Z</time></trkpt><trkpt lat="45.5583117" lon="10.8356733"><ele>320.1666666666667</ele><time>2026-04-26T09:44:26.774Z</time></trkpt><trkpt lat="45.5583833" lon="10.835575"><ele>319.3333333333333</ele><time>2026-04-26T09:44:27.775Z</time></trkpt><trkpt lat="45.5584667" lon="10.835505"><ele>318.5</ele><time>2026-04-26T09:44:28.775Z</time></trkpt><trkpt lat="45.5585467" lon="10.8354517"><ele>317.66666666666663</ele><time>2026-04-26T09:44:29.775Z</time></trkpt><trkpt lat="45.5586233" lon="10.83542"><ele>316.8333333333333</ele><time>2026-04-26T09:44:30.775Z</time></trkpt><trkpt lat="45.5586983" lon="10.8354067"><ele>316.0</ele><time>2026-04-26T09:44:31.775Z</time></trkpt><trkpt lat="45.5587667" lon="10.8354117"><ele>315.0</ele><time>2026-04-26T09:44:32.775Z</time></trkpt><trkpt lat="45.55884" lon="10.8354367"><ele>314.0</ele><time>2026-04-26T09:44:33.774Z</time></trkpt><trkpt lat="45.5588933" lon="10.835485"><ele>313.0</ele><time>2026-04-26T09:44:34.774Z</time></trkpt><trkpt lat="45.55893" lon="10.83558"><ele>312.0</ele><time>2026-04-26T09:44:35.774Z</time></trkpt><trkpt lat="45.5589467" lon="10.8357333"><ele>311.0</ele><time>2026-04-26T09:44:36.774Z</time></trkpt><trkpt lat="45.5589817" lon="10.8358633"><ele>310.0</ele><time>2026-04-26T09:44:37.775Z</time></trkpt><trkpt lat="45.559015" lon="10.836005"><ele>312.6</ele><time>2026-04-26T09:44:38.774Z</time></trkpt><trkpt lat="45.55906" lon="10.8361233"><ele>315.2</ele><time>2026-04-26T09:44:39.775Z</time></trkpt><trkpt lat="45.559115" lon="10.8362183"><ele>317.79999999999995</ele><time>2026-04-26T09:44:40.774Z</time></trkpt><trkpt lat="45.5591717" lon="10.836325"><ele>320.4</ele><time>2026-04-26T09:44:41.774Z</time></trkpt><trkpt lat="45.5592617" lon="10.836425"><ele>323.0</ele><time>2026-04-26T09:44:42.774Z</time></trkpt><trkpt lat="45.5593633" lon="10.8365083"><ele>323.0</ele><time>2026-04-26T09:44:43.774Z</time></trkpt><trkpt lat="45.5594617" lon="10.83661"><ele>323.0</ele><time>2026-04-26T09:44:44.775Z</time></trkpt><trkpt lat="45.55956" lon="10.8367467"><ele>323.0</ele><time>2026-04-26T09:44:45.774Z</time></trkpt><trkpt lat="45.5596733" lon="10.8368933"><ele>323.0</ele><time>2026-04-26T09:44:46.774Z</time></trkpt><trkpt lat="45.5597683" lon="10.8370083"><ele>323.59999999999997</ele><time>2026-04-26T09:44:47.775Z</time></trkpt><trkpt lat="45.559865" lon="10.8371133"><ele>324.2</ele><time>2026-04-26T09:44:48.774Z</time></trkpt><trkpt lat="45.5599417" lon="10.8372"><ele>324.8</ele><time>2026-04-26T09:44:49.774Z</time></trkpt><trkpt lat="45.56002" lon="10.8372667"><ele>325.4</ele><time>2026-04-26T09:44:50.775Z</time></trkpt><trkpt lat="45.5601067" lon="10.8373217"><ele>326.0</ele><time>2026-04-26T09:44:51.774Z</time></trkpt><trkpt lat="45.5601983" lon="10.8373833"><ele>326.0</ele><time>2026-04-26T09:44:52.775Z</time></trkpt><trkpt lat="45.56028" lon="10.837445"><ele>326.0</ele><time>2026-04-26T09:44:53.775Z</time></trkpt><trkpt lat="45.5603617" lon="10.8374983"><ele>326.0</ele><time>2026-04-26T09:44:54.774Z</time></trkpt><trkpt lat="45.56044" lon="10.8375567"><ele>326.0</ele><time>2026-04-26T09:44:55.774Z</time></trkpt><trkpt lat="45.5605183" lon="10.8376167"><ele>326.0</ele><time>2026-04-26T09:44:56.775Z</time></trkpt><trkpt lat="45.5605983" lon="10.8376567"><ele>326.0</ele><time>2026-04-26T09:44:57.774Z</time></trkpt><trkpt lat="45.5606733" lon="10.83767"><ele>326.4</ele><time>2026-04-26T09:44:58.775Z</time></trkpt><trkpt lat="45.5607533" lon="10.8376667"><ele>326.8</ele><time>2026-04-26T09:44:59.775Z</time></trkpt><trkpt lat="45.5608317" lon="10.837655"><ele>327.2</ele><time>2026-04-26T09:45:00.775Z</time></trkpt><trkpt lat="45.5609417" lon="10.837565"><ele>327.59999999999997</ele><time>2026-04-26T09:45:02.774Z</time></trkpt><trkpt lat="45.5610133" lon="10.837445"><ele>328.0</ele><time>2026-04-26T09:45:04.775Z</time></trkpt><trkpt lat="45.561075" lon="10.8373183"><ele>327.2</ele><time>2026-04-26T09:45:06.775Z</time></trkpt><trkpt lat="45.5611" lon="10.8371617"><ele>326.4</ele><time>2026-04-26T09:45:08.775Z</time></trkpt><trkpt lat="45.5611017" lon="10.83706"><ele>325.59999999999997</ele><time>2026-04-26T09:45:09.774Z</time></trkpt><trkpt lat="45.5610567" lon="10.8369"><ele>324.79999999999995</ele><time>2026-04-26T09:45:10.774Z</time></trkpt><trkpt lat="45.5610117" lon="10.836725"><ele>324.0</ele><time>2026-04-26T09:45:11.774Z</time></trkpt><trkpt lat="45.5610017" lon="10.83659"><ele>323.4</ele><time>2026-04-26T09:45:12.775Z</time></trkpt><trkpt lat="45.56098" lon="10.83643"><ele>322.79999999999995</ele><time>2026-04-26T09:45:13.775Z</time></trkpt><trkpt lat="45.5609817" lon="10.8362783"><ele>322.20000000000005</ele><time>2026-04-26T09:45:14.775Z</time></trkpt><trkpt lat="45.5610083" lon="10.8361483"><ele>321.6</ele><time>2026-04-26T09:45:15.774Z</time></trkpt><trkpt lat="45.5610567" lon="10.8360367"><ele>321.0</ele><time>2026-04-26T09:45:16.774Z</time></trkpt><trkpt lat="45.5611133" lon="10.83593"><ele>321.6</ele><time>2026-04-26T09:45:17.774Z</time></trkpt><trkpt lat="45.561185" lon="10.83587"><ele>322.20000000000005</ele><time>2026-04-26T09:45:18.774Z</time></trkpt><trkpt lat="45.5612467" lon="10.8358517"><ele>322.79999999999995</ele><time>2026-04-26T09:45:19.775Z</time></trkpt><trkpt lat="45.56133" lon="10.8358983"><ele>323.4</ele><time>2026-04-26T09:45:21.774Z</time></trkpt><trkpt lat="45.5614233" lon="10.8359867"><ele>324.0</ele><time>2026-04-26T09:45:23.774Z</time></trkpt><trkpt lat="45.5615283" lon="10.836065"><ele>325.3333333333333</ele><time>2026-04-26T09:45:25.774Z</time></trkpt><trkpt lat="45.56157" lon="10.8361567"><ele>326.6666666666667</ele><time>2026-04-26T09:45:28.774Z</time></trkpt><trkpt lat="45.5615517" lon="10.83628"><ele>328.0</ele><time>2026-04-26T09:45:30.774Z</time></trkpt><trkpt lat="45.561535" lon="10.8363783"><ele>329.33333333333337</ele><time>2026-04-26T09:45:31.774Z</time></trkpt><trkpt lat="45.5615217" lon="10.8364917"><ele>330.6666666666667</ele><time>2026-04-26T09:45:32.774Z</time></trkpt><trkpt lat="45.561525" lon="10.8366083"><ele>332.0</ele><time>2026-04-26T09:45:33.774Z</time></trkpt><trkpt lat="45.5615267" lon="10.8367083"><ele>332.8</ele><time>2026-04-26T09:45:34.774Z</time></trkpt><trkpt lat="45.5615333" lon="10.8368217"><ele>333.6</ele><time>2026-04-26T09:45:35.774Z</time></trkpt><trkpt lat="45.5615583" lon="10.836945"><ele>334.40000000000003</ele><time>2026-04-26T09:45:36.774Z</time></trkpt><trkpt lat="45.5615917" lon="10.8370767"><ele>335.20000000000005</ele><time>2026-04-26T09:45:37.775Z</time></trkpt><trkpt lat="45.5616383" lon="10.8372267"><ele>336.0</ele><time>2026-04-26T09:45:38.774Z</time></trkpt><trkpt lat="45.56168" lon="10.837345"><ele>336.0</ele><time>2026-04-26T09:45:39.775Z</time></trkpt><trkpt lat="45.5617417" lon="10.8374567"><ele>336.0</ele><time>2026-04-26T09:45:40.774Z</time></trkpt><trkpt lat="45.5617983" lon="10.8375517"><ele>336.0</ele><time>2026-04-26T09:45:41.774Z</time></trkpt><trkpt lat="45.5618683" lon="10.83761"><ele>336.0</ele><time>2026-04-26T09:45:42.774Z</time></trkpt><trkpt lat="45.5619517" lon="10.83766"><ele>336.0</ele><time>2026-04-26T09:45:43.775Z</time></trkpt><trkpt lat="45.5620417" lon="10.8377133"><ele>339.20000000000005</ele><time>2026-04-26T09:45:44.774Z</time></trkpt><trkpt lat="45.56215" lon="10.837785"><ele>342.40000000000003</ele><time>2026-04-26T09:45:45.774Z</time></trkpt><trkpt lat="45.5622467" lon="10.8378717"><ele>345.6</ele><time>2026-04-26T09:45:46.774Z</time></trkpt><trkpt lat="45.562325" lon="10.8379583"><ele>348.8</ele><time>2026-04-26T09:45:47.774Z</time></trkpt><trkpt lat="45.562405" lon="10.838045"><ele>352.0</ele><time>2026-04-26T09:45:48.774Z</time></trkpt><trkpt lat="45.5624833" lon="10.8381267"><ele>352.0</ele><time>2026-04-26T09:45:49.775Z</time></trkpt><trkpt lat="45.5625817" lon="10.8382217"><ele>352.0</ele><time>2026-04-26T09:45:50.775Z</time></trkpt><trkpt lat="45.56268" lon="10.8383067"><ele>352.0</ele><time>2026-04-26T09:45:51.774Z</time></trkpt><trkpt lat="45.5627717" lon="10.83838"><ele>352.0</ele><time>2026-04-26T09:45:52.775Z</time></trkpt><trkpt lat="45.56285" lon="10.8384483"><ele>352.0</ele><time>2026-04-26T09:45:53.774Z</time></trkpt><trkpt lat="45.562925" lon="10.8384983"><ele>355.8</ele><time>2026-04-26T09:45:54.775Z</time></trkpt><trkpt lat="45.5630017" lon="10.8385533"><ele>359.6</ele><time>2026-04-26T09:45:55.774Z</time></trkpt><trkpt lat="45.5630883" lon="10.8386083"><ele>363.40000000000003</ele><time>2026-04-26T09:45:56.775Z</time></trkpt><trkpt lat="45.5631967" lon="10.8386733"><ele>367.20000000000005</ele><time>2026-04-26T09:45:57.774Z</time></trkpt><trkpt lat="45.563295" lon="10.83872"><ele>371.0</ele><time>2026-04-26T09:45:58.774Z</time></trkpt><trkpt lat="45.5634" lon="10.8387783"><ele>371.0</ele><time>2026-04-26T09:45:59.774Z</time></trkpt><trkpt lat="45.5634967" lon="10.83883"><ele>371.0</ele><time>2026-04-26T09:46:00.774Z</time></trkpt><trkpt lat="45.5635883" lon="10.838875"><ele>371.0</ele><time>2026-04-26T09:46:01.774Z</time></trkpt><trkpt lat="45.5636717" lon="10.83894"><ele>371.0</ele><time>2026-04-26T09:46:02.775Z</time></trkpt><trkpt lat="45.5637467" lon="10.8390067"><ele>371.0</ele><time>2026-04-26T09:46:03.775Z</time></trkpt><trkpt lat="45.5638167" lon="10.8390867"><ele>373.0</ele><time>2026-04-26T09:46:04.775Z</time></trkpt><trkpt lat="45.5638867" lon="10.8391867"><ele>375.0</ele><time>2026-04-26T09:46:05.774Z</time></trkpt><trkpt lat="45.5639667" lon="10.8393"><ele>377.0</ele><time>2026-04-26T09:46:06.774Z</time></trkpt><trkpt lat="45.56403" lon="10.839395"><ele>379.0</ele><time>2026-04-26T09:46:07.774Z</time></trkpt><trkpt lat="45.5640933" lon="10.839495"><ele>381.0</ele><time>2026-04-26T09:46:08.774Z</time></trkpt><trkpt lat="45.5641533" lon="10.8395983"><ele>381.8333333333333</ele><time>2026-04-26T09:46:09.774Z</time></trkpt><trkpt lat="45.5642183" lon="10.839715"><ele>382.66666666666663</ele><time>2026-04-26T09:46:10.774Z</time></trkpt><trkpt lat="45.56428" lon="10.839815"><ele>383.5</ele><time>2026-04-26T09:46:11.775Z</time></trkpt><trkpt lat="45.56433" lon="10.8398933"><ele>384.3333333333333</ele><time>2026-04-26T09:46:12.774Z</time></trkpt><trkpt lat="45.5643883" lon="10.839955"><ele>385.16666666666663</ele><time>2026-04-26T09:46:13.775Z</time></trkpt><trkpt lat="45.5644467" lon="10.8399983"><ele>386.0</ele><time>2026-04-26T09:46:14.775Z</time></trkpt><trkpt lat="45.5645083" lon="10.84003"><ele>389.20000000000005</ele><time>2026-04-26T09:46:15.775Z</time></trkpt><trkpt lat="45.564635" lon="10.8400517"><ele>392.40000000000003</ele><time>2026-04-26T09:46:17.775Z</time></trkpt><trkpt lat="45.564705" lon="10.8400533"><ele>395.6</ele><time>2026-04-26T09:46:18.774Z</time></trkpt><trkpt lat="45.5647733" lon="10.8400483"><ele>398.8</ele><time>2026-04-26T09:46:19.774Z</time></trkpt><trkpt lat="45.5648867" lon="10.8399917"><ele>402.0</ele><time>2026-04-26T09:46:21.774Z</time></trkpt><trkpt lat="45.5649567" lon="10.839965"><ele>402.0</ele><time>2026-04-26T09:46:22.774Z</time></trkpt><trkpt lat="45.5650317" lon="10.8399517"><ele>402.0</ele><time>2026-04-26T09:46:23.774Z</time></trkpt><trkpt lat="45.5651117" lon="10.8399633"><ele>402.0</ele><time>2026-04-26T09:46:24.775Z</time></trkpt><trkpt lat="45.5651867" lon="10.8399983"><ele>402.0</ele><time>2026-04-26T09:46:25.774Z</time></trkpt><trkpt lat="45.5652583" lon="10.84004"><ele>402.0</ele><time>2026-04-26T09:46:26.774Z</time></trkpt><trkpt lat="45.5653183" lon="10.8400783"><ele>402.0</ele><time>2026-04-26T09:46:27.775Z</time></trkpt><trkpt lat="45.5653833" lon="10.840105"><ele>402.0</ele><time>2026-04-26T09:46:28.774Z</time></trkpt><trkpt lat="45.565505" lon="10.8401083"><ele>405.1666666666667</ele><time>2026-04-26T09:46:30.774Z</time></trkpt><trkpt lat="45.5655883" lon="10.840095"><ele>408.33333333333337</ele><time>2026-04-26T09:46:31.775Z</time></trkpt><trkpt lat="45.5656683" lon="10.8400567"><ele>411.5</ele><time>2026-04-26T09:46:32.774Z</time></trkpt><trkpt lat="45.5657483" lon="10.8400367"><ele>414.6666666666667</ele><time>2026-04-26T09:46:33.774Z</time></trkpt><trkpt lat="45.5658283" lon="10.84003"><ele>417.83333333333337</ele><time>2026-04-26T09:46:34.774Z</time></trkpt><trkpt lat="45.56591" lon="10.8400367"><ele>421.0</ele><time>2026-04-26T09:46:35.774Z</time></trkpt><trkpt lat="45.5659833" lon="10.840055"><ele>421.0</ele><time>2026-04-26T09:46:36.774Z</time></trkpt><trkpt lat="45.5661" lon="10.840095"><ele>421.0</ele><time>2026-04-26T09:46:38.774Z</time></trkpt><trkpt lat="45.5661667" lon="10.8401133"><ele>421.0</ele><time>2026-04-26T09:46:39.774Z</time></trkpt><trkpt lat="45.56627" lon="10.84019"><ele>421.0</ele><time>2026-04-26T09:46:41.774Z</time></trkpt><trkpt lat="45.56637" lon="10.8403067"><ele>421.0</ele><time>2026-04-26T09:46:43.774Z</time></trkpt><trkpt lat="45.5664467" lon="10.840385"><ele>425.00000000000006</ele><time>2026-04-26T09:46:44.774Z</time></trkpt><trkpt lat="45.5665483" lon="10.840505"><ele>429.0</ele><time>2026-04-26T09:46:46.774Z</time></trkpt><trkpt lat="45.56659" lon="10.84059"><ele>433.0</ele><time>2026-04-26T09:46:47.774Z</time></trkpt><trkpt lat="45.56662" lon="10.8406717"><ele>437.0</ele><time>2026-04-26T09:46:48.774Z</time></trkpt><trkpt lat="45.5666567" lon="10.8407833"><ele>441.00000000000006</ele><time>2026-04-26T09:46:49.774Z</time></trkpt><trkpt lat="45.5666983" lon="10.8408633"><ele>445.0</ele><time>2026-04-26T09:46:50.775Z</time></trkpt><trkpt lat="45.56674" lon="10.840935"><ele>444.8</ele><time>2026-04-26T09:46:51.774Z</time></trkpt><trkpt lat="45.5668183" lon="10.8410317"><ele>444.6</ele><time>2026-04-26T09:46:53.775Z</time></trkpt><trkpt lat="45.566875" lon="10.8411033"><ele>444.4</ele><time>2026-04-26T09:46:55.774Z</time></trkpt><trkpt lat="45.5668467" lon="10.8410167"><ele>444.2</ele><time>2026-04-26T09:53:47.771Z</time></trkpt><trkpt lat="45.5669417" lon="10.8411567"><ele>444.0</ele><time>2026-04-26T10:05:18.768Z</time></trkpt><trkpt lat="45.5670083" lon="10.8412833"><ele>444.0</ele><time>2026-04-26T10:05:20.767Z</time></trkpt><trkpt lat="45.5670617" lon="10.841455"><ele>444.0</ele><time>2026-04-26T10:05:22.767Z</time></trkpt><trkpt lat="45.566995" lon="10.841585"><ele>444.0</ele><time>2026-04-26T10:05:24.767Z</time></trkpt><trkpt lat="45.5669483" lon="10.8417133"><ele>444.0</ele><time>2026-04-26T10:05:26.767Z</time></trkpt><trkpt lat="45.5669417" lon="10.8418683"><ele>443.2</ele><time>2026-04-26T10:05:28.767Z</time></trkpt><trkpt lat="45.566935" lon="10.842"><ele>442.4</ele><time>2026-04-26T10:05:30.768Z</time></trkpt><trkpt lat="45.5669433" lon="10.842135"><ele>441.6</ele><time>2026-04-26T10:05:32.767Z</time></trkpt><trkpt lat="45.5669717" lon="10.842265"><ele>440.8</ele><time>2026-04-26T10:05:34.768Z</time></trkpt><trkpt lat="45.5670067" lon="10.8423883"><ele>440.0</ele><time>2026-04-26T10:05:36.766Z</time></trkpt><trkpt lat="45.5670317" lon="10.8425267"><ele>439.99999999999994</ele><time>2026-04-26T10:05:38.766Z</time></trkpt><trkpt lat="45.5670583" lon="10.842675"><ele>440.0</ele><time>2026-04-26T10:05:40.767Z</time></trkpt><trkpt lat="45.5670783" lon="10.84278"><ele>440.0</ele><time>2026-04-26T10:05:42.767Z</time></trkpt><trkpt lat="45.5670667" lon="10.8428733"><ele>440.0</ele><time>2026-04-26T10:05:44.767Z</time></trkpt><trkpt lat="45.567045" lon="10.8430083"><ele>439.99999999999994</ele><time>2026-04-26T10:05:46.766Z</time></trkpt><trkpt lat="45.567" lon="10.8430933"><ele>440.0</ele><time>2026-04-26T10:05:48.766Z</time></trkpt><trkpt lat="45.566945" lon="10.843175"><ele>440.0</ele><time>2026-04-26T10:05:51.767Z</time></trkpt><trkpt lat="45.5668567" lon="10.8432483"><ele>440.0</ele><time>2026-04-26T10:06:06.766Z</time></trkpt><trkpt lat="45.5668017" lon="10.8433367"><ele>440.0</ele><time>2026-04-26T10:06:07.766Z</time></trkpt><trkpt lat="45.5667417" lon="10.843425"><ele>440.0</ele><time>2026-04-26T10:06:08.767Z</time></trkpt><trkpt lat="45.566695" lon="10.8435617"><ele>440.0</ele><time>2026-04-26T10:06:09.766Z</time></trkpt><trkpt lat="45.56665" lon="10.8437033"><ele>440.4</ele><time>2026-04-26T10:06:10.766Z</time></trkpt><trkpt lat="45.56662" lon="10.8438633"><ele>440.8</ele><time>2026-04-26T10:06:11.766Z</time></trkpt><trkpt lat="45.5665983" lon="10.8439983"><ele>441.20000000000005</ele><time>2026-04-26T10:06:12.767Z</time></trkpt><trkpt lat="45.5665867" lon="10.8441417"><ele>441.6</ele><time>2026-04-26T10:06:13.766Z</time></trkpt><trkpt lat="45.5665867" lon="10.84431"><ele>442.0</ele><time>2026-04-26T10:06:14.766Z</time></trkpt><trkpt lat="45.56657" lon="10.8444533"><ele>442.33333333333337</ele><time>2026-04-26T10:06:15.766Z</time></trkpt><trkpt lat="45.5665567" lon="10.844595"><ele>442.6666666666667</ele><time>2026-04-26T10:06:16.766Z</time></trkpt><trkpt lat="45.56656" lon="10.8446867"><ele>443.0</ele><time>2026-04-26T10:06:17.766Z</time></trkpt><trkpt lat="45.566625" lon="10.8447567"><ele>443.33333333333337</ele><time>2026-04-26T10:06:19.766Z</time></trkpt><trkpt lat="45.5666867" lon="10.8447817"><ele>443.6666666666667</ele><time>2026-04-26T10:06:20.766Z</time></trkpt><trkpt lat="45.5667717" lon="10.8449167"><ele>444.0</ele><time>2026-04-26T10:06:22.767Z</time></trkpt><trkpt lat="45.5668267" lon="10.8450217"><ele>444.4</ele><time>2026-04-26T10:06:23.766Z</time></trkpt><trkpt lat="45.566845" lon="10.84515"><ele>444.79999999999995</ele><time>2026-04-26T10:06:24.766Z</time></trkpt><trkpt lat="45.5668667" lon="10.8452883"><ele>445.20000000000005</ele><time>2026-04-26T10:06:25.767Z</time></trkpt><trkpt lat="45.5668833" lon="10.8454267"><ele>445.6</ele><time>2026-04-26T10:06:26.767Z</time></trkpt><trkpt lat="45.5669233" lon="10.84555"><ele>446.0</ele><time>2026-04-26T10:06:27.766Z</time></trkpt><trkpt lat="45.5669933" lon="10.84567"><ele>449.0</ele><time>2026-04-26T10:06:28.766Z</time></trkpt><trkpt lat="45.5670683" lon="10.8457667"><ele>452.0</ele><time>2026-04-26T10:06:29.767Z</time></trkpt><trkpt lat="45.5671533" lon="10.8458533"><ele>455.0</ele><time>2026-04-26T10:06:30.767Z</time></trkpt><trkpt lat="45.5672467" lon="10.8459317"><ele>458.0</ele><time>2026-04-26T10:06:31.767Z</time></trkpt><trkpt lat="45.5673333" lon="10.8460433"><ele>461.0</ele><time>2026-04-26T10:06:32.767Z</time></trkpt><trkpt lat="45.5674117" lon="10.846155"><ele>461.25</ele><time>2026-04-26T10:06:33.766Z</time></trkpt><trkpt lat="45.56748" lon="10.84628"><ele>461.5</ele><time>2026-04-26T10:06:34.766Z</time></trkpt><trkpt lat="45.5675483" lon="10.84641"><ele>461.75</ele><time>2026-04-26T10:06:35.766Z</time></trkpt><trkpt lat="45.5676" lon="10.8465517"><ele>462.0</ele><time>2026-04-26T10:06:36.767Z</time></trkpt><trkpt lat="45.5676583" lon="10.846705"><ele>463.0</ele><time>2026-04-26T10:06:37.766Z</time></trkpt><trkpt lat="45.5677117" lon="10.84685"><ele>464.00000000000006</ele><time>2026-04-26T10:06:38.767Z</time></trkpt><trkpt lat="45.5677433" lon="10.8469983"><ele>465.00000000000006</ele><time>2026-04-26T10:06:39.766Z</time></trkpt><trkpt lat="45.5677633" lon="10.8471217"><ele>466.0</ele><time>2026-04-26T10:06:40.766Z</time></trkpt><trkpt lat="45.5678017" lon="10.8472467"><ele>467.0</ele><time>2026-04-26T10:06:41.766Z</time></trkpt><trkpt lat="45.567865" lon="10.847355"><ele>470.16666666666663</ele><time>2026-04-26T10:06:42.767Z</time></trkpt><trkpt lat="45.56792" lon="10.847445"><ele>473.3333333333333</ele><time>2026-04-26T10:06:43.766Z</time></trkpt><trkpt lat="45.5679667" lon="10.84756"><ele>476.5</ele><time>2026-04-26T10:06:44.767Z</time></trkpt><trkpt lat="45.568005" lon="10.8476567"><ele>479.66666666666663</ele><time>2026-04-26T10:06:45.766Z</time></trkpt><trkpt lat="45.5680433" lon="10.847775"><ele>482.8333333333333</ele><time>2026-04-26T10:06:46.766Z</time></trkpt><trkpt lat="45.5680717" lon="10.84791"><ele>486.0</ele><time>2026-04-26T10:06:47.766Z</time></trkpt><trkpt lat="45.56811" lon="10.8480617"><ele>486.0</ele><time>2026-04-26T10:06:48.766Z</time></trkpt><trkpt lat="45.5681433" lon="10.8482383"><ele>486.0</ele><time>2026-04-26T10:06:49.766Z</time></trkpt><trkpt lat="45.568185" lon="10.8484067"><ele>486.0</ele><time>2026-04-26T10:06:50.767Z</time></trkpt><trkpt lat="45.5682367" lon="10.8485767"><ele>486.0</ele><time>2026-04-26T10:06:51.767Z</time></trkpt><trkpt lat="45.568265" lon="10.848695"><ele>486.6</ele><time>2026-04-26T10:06:52.766Z</time></trkpt><trkpt lat="45.5682867" lon="10.84882"><ele>487.20000000000005</ele><time>2026-04-26T10:06:53.766Z</time></trkpt><trkpt lat="45.5683133" lon="10.84892"><ele>487.79999999999995</ele><time>2026-04-26T10:06:54.767Z</time></trkpt><trkpt lat="45.5682867" lon="10.8490383"><ele>488.4</ele><time>2026-04-26T10:06:56.767Z</time></trkpt><trkpt lat="45.5681733" lon="10.849005"><ele>489.0</ele><time>2026-04-26T10:06:58.766Z</time></trkpt><trkpt lat="45.5680817" lon="10.8489017"><ele>489.0</ele><time>2026-04-26T10:06:59.766Z</time></trkpt><trkpt lat="45.567965" lon="10.8487367"><ele>489.0</ele><time>2026-04-26T10:07:00.766Z</time></trkpt><trkpt lat="45.5678633" lon="10.8485667"><ele>489.0</ele><time>2026-04-26T10:07:01.767Z</time></trkpt><trkpt lat="45.567775" lon="10.848475"><ele>489.0</ele><time>2026-04-26T10:07:02.766Z</time></trkpt><trkpt lat="45.5676783" lon="10.8484083"><ele>487.25</ele><time>2026-04-26T10:07:03.767Z</time></trkpt><trkpt lat="45.5675683" lon="10.8483667"><ele>485.5</ele><time>2026-04-26T10:07:04.767Z</time></trkpt><trkpt lat="45.567455" lon="10.8483967"><ele>483.75</ele><time>2026-04-26T10:07:05.766Z</time></trkpt><trkpt lat="45.5673333" lon="10.8484233"><ele>482.0</ele><time>2026-04-26T10:07:06.766Z</time></trkpt><trkpt lat="45.5672033" lon="10.8484317"><ele>485.75</ele><time>2026-04-26T10:07:07.766Z</time></trkpt><trkpt lat="45.567085" lon="10.8484717"><ele>489.5</ele><time>2026-04-26T10:07:08.766Z</time></trkpt><trkpt lat="45.5669633" lon="10.8484983"><ele>493.25</ele><time>2026-04-26T10:07:09.767Z</time></trkpt><trkpt lat="45.5668417" lon="10.848535"><ele>497.0</ele><time>2026-04-26T10:07:10.766Z</time></trkpt><trkpt lat="45.566715" lon="10.848585"><ele>497.75</ele><time>2026-04-26T10:07:11.766Z</time></trkpt><trkpt lat="45.5665867" lon="10.84863"><ele>498.5</ele><time>2026-04-26T10:07:12.766Z</time></trkpt><trkpt lat="45.5664617" lon="10.8486517"><ele>499.25</ele><time>2026-04-26T10:07:13.767Z</time></trkpt><trkpt lat="45.5663383" lon="10.8486783"><ele>500.0</ele><time>2026-04-26T10:07:14.766Z</time></trkpt><trkpt lat="45.566215" lon="10.848705"><ele>500.6</ele><time>2026-04-26T10:07:15.767Z</time></trkpt><trkpt lat="45.5661167" lon="10.848715"><ele>501.2</ele><time>2026-04-26T10:07:16.766Z</time></trkpt><trkpt lat="45.5660417" lon="10.8487083"><ele>501.79999999999995</ele><time>2026-04-26T10:07:17.767Z</time></trkpt><trkpt lat="45.565935" lon="10.8487033"><ele>502.4</ele><time>2026-04-26T10:07:19.766Z</time></trkpt><trkpt lat="45.5658333" lon="10.8486517"><ele>503.0</ele><time>2026-04-26T10:07:31.767Z</time></trkpt><trkpt lat="45.565745" lon="10.8486433"><ele>503.0</ele><time>2026-04-26T10:07:32.766Z</time></trkpt><trkpt lat="45.5656183" lon="10.8486433"><ele>502.99999999999994</ele><time>2026-04-26T10:07:33.766Z</time></trkpt><trkpt lat="45.5655183" lon="10.8486667"><ele>502.99999999999994</ele><time>2026-04-26T10:07:34.766Z</time></trkpt><trkpt lat="45.5654267" lon="10.8487067"><ele>503.0</ele><time>2026-04-26T10:07:35.766Z</time></trkpt><trkpt lat="45.5653483" lon="10.84877"><ele>503.0</ele><time>2026-04-26T10:07:36.766Z</time></trkpt><trkpt lat="45.5652733" lon="10.8488767"><ele>503.0</ele><time>2026-04-26T10:07:37.766Z</time></trkpt><trkpt lat="45.5651983" lon="10.84899"><ele>503.0</ele><time>2026-04-26T10:07:38.767Z</time></trkpt><trkpt lat="45.5651167" lon="10.8490983"><ele>503.0</ele><time>2026-04-26T10:07:39.767Z</time></trkpt><trkpt lat="45.5650183" lon="10.849165"><ele>503.0</ele><time>2026-04-26T10:07:40.766Z</time></trkpt><trkpt lat="45.5648883" lon="10.8492267"><ele>503.0</ele><time>2026-04-26T10:07:41.767Z</time></trkpt><trkpt lat="45.56474" lon="10.8492783"><ele>503.0</ele><time>2026-04-26T10:07:42.766Z</time></trkpt><trkpt lat="45.564575" lon="10.8493217"><ele>503.0</ele><time>2026-04-26T10:07:43.766Z</time></trkpt><trkpt lat="45.5643933" lon="10.849345"><ele>507.66666666666663</ele><time>2026-04-26T10:07:44.766Z</time></trkpt><trkpt lat="45.564225" lon="10.8493633"><ele>512.3333333333334</ele><time>2026-04-26T10:07:45.766Z</time></trkpt><trkpt lat="45.5640717" lon="10.8493417"><ele>517.0</ele><time>2026-04-26T10:07:46.766Z</time></trkpt><trkpt lat="45.5639283" lon="10.8493267"><ele>517.0</ele><time>2026-04-26T10:07:47.767Z</time></trkpt><trkpt lat="45.5638083" lon="10.849305"><ele>517.0</ele><time>2026-04-26T10:07:48.766Z</time></trkpt><trkpt lat="45.563705" lon="10.8492967"><ele>517.0</ele><time>2026-04-26T10:07:49.767Z</time></trkpt><trkpt lat="45.5636333" lon="10.8493"><ele>517.0</ele><time>2026-04-26T10:07:50.766Z</time></trkpt><trkpt lat="45.56357" lon="10.8492733"><ele>517.0</ele><time>2026-04-26T10:07:52.766Z</time></trkpt><trkpt lat="45.5635683" lon="10.8491683"><ele>517.0</ele><time>2026-04-26T10:07:54.766Z</time></trkpt><trkpt lat="45.563485" lon="10.8490417"><ele>514.75</ele><time>2026-04-26T10:07:56.766Z</time></trkpt><trkpt lat="45.5633517" lon="10.848985"><ele>512.5</ele><time>2026-04-26T10:07:58.767Z</time></trkpt><trkpt lat="45.5632483" lon="10.8489867"><ele>510.25</ele><time>2026-04-26T10:07:59.766Z</time></trkpt><trkpt lat="45.5631367" lon="10.849005"><ele>508.0</ele><time>2026-04-26T10:08:00.766Z</time></trkpt><trkpt lat="45.56298" lon="10.8490717"><ele>505.33333333333337</ele><time>2026-04-26T10:08:01.766Z</time></trkpt><trkpt lat="45.5628067" lon="10.8491683"><ele>502.66666666666663</ele><time>2026-04-26T10:08:02.767Z</time></trkpt><trkpt lat="45.56262" lon="10.8492417"><ele>500.0</ele><time>2026-04-26T10:08:03.766Z</time></trkpt><trkpt lat="45.562455" lon="10.8492683"><ele>500.0</ele><time>2026-04-26T10:08:04.767Z</time></trkpt><trkpt lat="45.562305" lon="10.8492817"><ele>500.0</ele><time>2026-04-26T10:08:05.767Z</time></trkpt><trkpt lat="45.5621633" lon="10.8493067"><ele>500.0</ele><time>2026-04-26T10:08:06.767Z</time></trkpt><trkpt lat="45.5620517" lon="10.8493817"><ele>500.0</ele><time>2026-04-26T10:08:07.765Z</time></trkpt><trkpt lat="45.5619333" lon="10.8494683"><ele>499.0</ele><time>2026-04-26T10:08:08.765Z</time></trkpt><trkpt lat="45.5618633" lon="10.8496267"><ele>498.0</ele><time>2026-04-26T10:08:09.765Z</time></trkpt><trkpt lat="45.5617933" lon="10.8498067"><ele>497.0</ele><time>2026-04-26T10:08:10.765Z</time></trkpt><trkpt lat="45.5617383" lon="10.8499933"><ele>496.0</ele><time>2026-04-26T10:08:11.766Z</time></trkpt><trkpt lat="45.5616967" lon="10.850215"><ele>496.0</ele><time>2026-04-26T10:08:12.765Z</time></trkpt><trkpt lat="45.5616667" lon="10.8504317"><ele>496.0</ele><time>2026-04-26T10:08:13.766Z</time></trkpt><trkpt lat="45.5616117" lon="10.8506467"><ele>496.0</ele><time>2026-04-26T10:08:14.766Z</time></trkpt><trkpt lat="45.5615583" lon="10.8508517"><ele>497.0</ele><time>2026-04-26T10:08:15.765Z</time></trkpt><trkpt lat="45.5615" lon="10.8510483"><ele>498.0</ele><time>2026-04-26T10:08:16.765Z</time></trkpt><trkpt lat="45.561435" lon="10.85123"><ele>499.0</ele><time>2026-04-26T10:08:17.766Z</time></trkpt><trkpt lat="45.56137" lon="10.8513967"><ele>500.0</ele><time>2026-04-26T10:08:18.766Z</time></trkpt><trkpt lat="45.5612933" lon="10.8515183"><ele>497.4</ele><time>2026-04-26T10:08:19.765Z</time></trkpt><trkpt lat="45.5611917" lon="10.8515483"><ele>494.8</ele><time>2026-04-26T10:08:20.766Z</time></trkpt><trkpt lat="45.5610817" lon="10.8515483"><ele>492.20000000000005</ele><time>2026-04-26T10:08:21.766Z</time></trkpt><trkpt lat="45.5609867" lon="10.85153"><ele>489.6</ele><time>2026-04-26T10:08:22.766Z</time></trkpt><trkpt lat="45.5609217" lon="10.85152"><ele>487.0</ele><time>2026-04-26T10:08:23.765Z</time></trkpt><trkpt lat="45.56083" lon="10.8514917"><ele>487.0</ele><time>2026-04-26T10:08:25.765Z</time></trkpt><trkpt lat="45.5607567" lon="10.8514783"><ele>487.00000000000006</ele><time>2026-04-26T10:08:27.765Z</time></trkpt><trkpt lat="45.5606817" lon="10.8515183"><ele>487.00000000000006</ele><time>2026-04-26T10:08:31.765Z</time></trkpt><trkpt lat="45.56062" lon="10.8515667"><ele>487.0</ele><time>2026-04-26T10:08:33.766Z</time></trkpt><trkpt lat="45.5605283" lon="10.8515933"><ele>487.0</ele><time>2026-04-26T10:08:35.766Z</time></trkpt><trkpt lat="45.560395" lon="10.851595"><ele>486.8</ele><time>2026-04-26T10:08:37.766Z</time></trkpt><trkpt lat="45.5603" lon="10.8515683"><ele>486.6</ele><time>2026-04-26T10:08:38.765Z</time></trkpt><trkpt lat="45.5601917" lon="10.8515317"><ele>486.40000000000003</ele><time>2026-04-26T10:08:39.765Z</time></trkpt><trkpt lat="45.5600733" lon="10.8514983"><ele>486.20000000000005</ele><time>2026-04-26T10:08:40.765Z</time></trkpt><trkpt lat="45.5599867" lon="10.851485"><ele>486.0</ele><time>2026-04-26T10:08:41.766Z</time></trkpt><trkpt lat="45.55991" lon="10.85149"><ele>486.0</ele><time>2026-04-26T10:08:42.765Z</time></trkpt><trkpt lat="45.5597833" lon="10.851535"><ele>486.0</ele><time>2026-04-26T10:08:44.765Z</time></trkpt><trkpt lat="45.5597033" lon="10.85156"><ele>486.0</ele><time>2026-04-26T10:08:45.765Z</time></trkpt><trkpt lat="45.559615" lon="10.8515783"><ele>486.0</ele><time>2026-04-26T10:08:46.766Z</time></trkpt><trkpt lat="45.559515" lon="10.851585"><ele>486.0</ele><time>2026-04-26T10:08:47.766Z</time></trkpt><trkpt lat="45.5594033" lon="10.8515717"><ele>485.8</ele><time>2026-04-26T10:08:48.766Z</time></trkpt><trkpt lat="45.5592933" lon="10.8515733"><ele>485.6</ele><time>2026-04-26T10:08:49.765Z</time></trkpt><trkpt lat="45.5591883" lon="10.8515733"><ele>485.4</ele><time>2026-04-26T10:08:50.766Z</time></trkpt><trkpt lat="45.5590817" lon="10.8515833"><ele>485.2</ele><time>2026-04-26T10:08:51.766Z</time></trkpt><trkpt lat="45.558975" lon="10.8516033"><ele>485.0</ele><time>2026-04-26T10:08:52.765Z</time></trkpt><trkpt lat="45.55888" lon="10.8516067"><ele>485.0</ele><time>2026-04-26T10:08:53.765Z</time></trkpt><trkpt lat="45.5587733" lon="10.8516067"><ele>485.0</ele><time>2026-04-26T10:08:55.766Z</time></trkpt><trkpt lat="45.55869" lon="10.8515683"><ele>485.0</ele><time>2026-04-26T10:08:57.765Z</time></trkpt><trkpt lat="45.5586067" lon="10.8514717"><ele>485.0</ele><time>2026-04-26T10:08:59.765Z</time></trkpt><trkpt lat="45.5584983" lon="10.8514067"><ele>485.0</ele><time>2026-04-26T10:09:01.765Z</time></trkpt><trkpt lat="45.558435" lon="10.85137"><ele>485.75</ele><time>2026-04-26T10:09:02.766Z</time></trkpt><trkpt lat="45.5583317" lon="10.8512967"><ele>486.5</ele><time>2026-04-26T10:09:03.766Z</time></trkpt><trkpt lat="45.5582283" lon="10.8512283"><ele>487.25</ele><time>2026-04-26T10:09:04.765Z</time></trkpt><trkpt lat="45.5581383" lon="10.8511517"><ele>488.0</ele><time>2026-04-26T10:09:05.765Z</time></trkpt><trkpt lat="45.55803" lon="10.8510483"><ele>488.99999999999994</ele><time>2026-04-26T10:09:06.766Z</time></trkpt><trkpt lat="45.55793" lon="10.85094"><ele>490.0</ele><time>2026-04-26T10:09:07.765Z</time></trkpt><trkpt lat="45.5578517" lon="10.85086"><ele>491.0</ele><time>2026-04-26T10:09:08.765Z</time></trkpt><trkpt lat="45.5577883" lon="10.8508183"><ele>492.0</ele><time>2026-04-26T10:09:09.766Z</time></trkpt><trkpt lat="45.5577217" lon="10.8507833"><ele>492.99999999999994</ele><time>2026-04-26T10:09:10.765Z</time></trkpt><trkpt lat="45.5576617" lon="10.850755"><ele>494.0</ele><time>2026-04-26T10:09:11.765Z</time></trkpt><trkpt lat="45.5576" lon="10.8507183"><ele>493.99999999999994</ele><time>2026-04-26T10:09:12.766Z</time></trkpt><trkpt lat="45.5574767" lon="10.8506333"><ele>494.0</ele><time>2026-04-26T10:09:14.765Z</time></trkpt><trkpt lat="45.5574083" lon="10.8505817"><ele>494.0</ele><time>2026-04-26T10:09:15.765Z</time></trkpt><trkpt lat="45.5573417" lon="10.8505267"><ele>494.0</ele><time>2026-04-26T10:09:16.765Z</time></trkpt><trkpt lat="45.55728" lon="10.850475"><ele>493.99999999999994</ele><time>2026-04-26T10:09:17.765Z</time></trkpt><trkpt lat="45.557225" lon="10.8504267"><ele>494.0</ele><time>2026-04-26T10:09:18.765Z</time></trkpt><trkpt lat="45.5571667" lon="10.8503667"><ele>493.5</ele><time>2026-04-26T10:09:19.765Z</time></trkpt><trkpt lat="45.55702" lon="10.8502567"><ele>493.0</ele><time>2026-04-26T10:09:21.766Z</time></trkpt><trkpt lat="45.5569" lon="10.8501817"><ele>492.5</ele><time>2026-04-26T10:09:22.765Z</time></trkpt><trkpt lat="45.5567933" lon="10.8501133"><ele>492.0</ele><time>2026-04-26T10:09:23.765Z</time></trkpt><trkpt lat="45.55673" lon="10.850075"><ele>492.0</ele><time>2026-04-26T10:09:24.765Z</time></trkpt><trkpt lat="45.55663" lon="10.8500117"><ele>492.00000000000006</ele><time>2026-04-26T10:09:26.765Z</time></trkpt><trkpt lat="45.5565217" lon="10.8499517"><ele>492.00000000000006</ele><time>2026-04-26T10:09:28.765Z</time></trkpt><trkpt lat="45.5564567" lon="10.8499217"><ele>492.0</ele><time>2026-04-26T10:09:29.766Z</time></trkpt><trkpt lat="45.5563433" lon="10.849895"><ele>492.0</ele><time>2026-04-26T10:09:31.765Z</time></trkpt><trkpt lat="45.5562383" lon="10.8498933"><ele>492.0</ele><time>2026-04-26T10:09:33.765Z</time></trkpt><trkpt lat="45.5561317" lon="10.849915"><ele>492.00000000000006</ele><time>2026-04-26T10:09:35.765Z</time></trkpt><trkpt lat="45.556035" lon="10.8499467"><ele>492.00000000000006</ele><time>2026-04-26T10:09:37.765Z</time></trkpt><trkpt lat="45.555945" lon="10.8499867"><ele>492.0</ele><time>2026-04-26T10:09:39.765Z</time></trkpt><trkpt lat="45.5558317" lon="10.8500517"><ele>492.0</ele><time>2026-04-26T10:09:41.766Z</time></trkpt><trkpt lat="45.5557433" lon="10.8501433"><ele>494.40000000000003</ele><time>2026-04-26T10:09:43.765Z</time></trkpt><trkpt lat="45.5556483" lon="10.8502267"><ele>496.80000000000007</ele><time>2026-04-26T10:09:45.765Z</time></trkpt><trkpt lat="45.5555917" lon="10.8503483"><ele>499.2</ele><time>2026-04-26T10:09:47.766Z</time></trkpt><trkpt lat="45.5555367" lon="10.8504633"><ele>501.6</ele><time>2026-04-26T10:09:49.766Z</time></trkpt><trkpt lat="45.555495" lon="10.8505483"><ele>504.0</ele><time>2026-04-26T10:09:51.766Z</time></trkpt><trkpt lat="45.5554283" lon="10.850635"><ele>503.6</ele><time>2026-04-26T10:09:53.766Z</time></trkpt><trkpt lat="45.5553433" lon="10.8507483"><ele>503.2</ele><time>2026-04-26T10:09:55.765Z</time></trkpt><trkpt lat="45.5552867" lon="10.8508233"><ele>502.80000000000007</ele><time>2026-04-26T10:09:56.765Z</time></trkpt><trkpt lat="45.5551867" lon="10.8509"><ele>502.40000000000003</ele><time>2026-04-26T10:09:58.765Z</time></trkpt><trkpt lat="45.5551133" lon="10.8508583"><ele>502.0</ele><time>2026-04-26T10:10:01.766Z</time></trkpt><trkpt lat="45.555075" lon="10.8507283"><ele>502.00000000000006</ele><time>2026-04-26T10:10:12.765Z</time></trkpt><trkpt lat="45.5550467" lon="10.85056"><ele>502.0</ele><time>2026-04-26T10:10:13.766Z</time></trkpt><trkpt lat="45.5550067" lon="10.850435"><ele>502.0</ele><time>2026-04-26T10:10:14.766Z</time></trkpt><trkpt lat="45.55497" lon="10.8503433"><ele>502.0</ele><time>2026-04-26T10:10:15.766Z</time></trkpt><trkpt lat="45.5549283" lon="10.85026"><ele>502.00000000000006</ele><time>2026-04-26T10:10:16.766Z</time></trkpt><trkpt lat="45.554885" lon="10.850185"><ele>502.0</ele><time>2026-04-26T10:10:17.766Z</time></trkpt><trkpt lat="45.55483" lon="10.8501133"><ele>500.6666666666667</ele><time>2026-04-26T10:10:18.766Z</time></trkpt><trkpt lat="45.5547817" lon="10.8500533"><ele>499.33333333333337</ele><time>2026-04-26T10:10:19.766Z</time></trkpt><trkpt lat="45.5547433" lon="10.849975"><ele>498.0</ele><time>2026-04-26T10:10:20.765Z</time></trkpt><trkpt lat="45.5546583" lon="10.84982"><ele>496.66666666666663</ele><time>2026-04-26T10:10:22.765Z</time></trkpt><trkpt lat="45.55462" lon="10.8497267"><ele>495.3333333333333</ele><time>2026-04-26T10:10:23.765Z</time></trkpt><trkpt lat="45.5545933" lon="10.8496283"><ele>494.0</ele><time>2026-04-26T10:10:24.765Z</time></trkpt><trkpt lat="45.55456" lon="10.8494483"><ele>495.8333333333333</ele><time>2026-04-26T10:10:26.765Z</time></trkpt><trkpt lat="45.55453" lon="10.8493583"><ele>497.66666666666663</ele><time>2026-04-26T10:10:27.765Z</time></trkpt><trkpt lat="45.5544883" lon="10.8492833"><ele>499.5</ele><time>2026-04-26T10:10:28.765Z</time></trkpt><trkpt lat="45.5544333" lon="10.8492183"><ele>501.33333333333337</ele><time>2026-04-26T10:10:29.765Z</time></trkpt><trkpt lat="45.5543583" lon="10.849155"><ele>503.1666666666667</ele><time>2026-04-26T10:10:30.765Z</time></trkpt><trkpt lat="45.554285" lon="10.8490967"><ele>505.0</ele><time>2026-04-26T10:10:31.765Z</time></trkpt><trkpt lat="45.5541683" lon="10.8489883"><ele>505.0</ele><time>2026-04-26T10:10:33.766Z</time></trkpt><trkpt lat="45.5541133" lon="10.8489333"><ele>504.99999999999994</ele><time>2026-04-26T10:10:34.766Z</time></trkpt><trkpt lat="45.5540567" lon="10.8488733"><ele>505.0</ele><time>2026-04-26T10:10:35.765Z</time></trkpt><trkpt lat="45.5539933" lon="10.84884"><ele>505.0</ele><time>2026-04-26T10:10:37.765Z</time></trkpt><trkpt lat="45.5539967" lon="10.8489433"><ele>504.99999999999994</ele><time>2026-04-26T10:10:44.765Z</time></trkpt><trkpt lat="45.5540417" lon="10.8490333"><ele>505.0</ele><time>2026-04-26T10:10:50.764Z</time></trkpt><trkpt lat="45.5540917" lon="10.84911"><ele>505.0</ele><time>2026-04-26T10:10:51.764Z</time></trkpt><trkpt lat="45.5541467" lon="10.84922"><ele>506.1666666666667</ele><time>2026-04-26T10:10:52.765Z</time></trkpt><trkpt lat="45.554185" lon="10.8493283"><ele>507.33333333333337</ele><time>2026-04-26T10:10:53.764Z</time></trkpt><trkpt lat="45.55419" lon="10.8494383"><ele>508.5</ele><time>2026-04-26T10:10:54.764Z</time></trkpt><trkpt lat="45.5541667" lon="10.8495317"><ele>509.66666666666663</ele><time>2026-04-26T10:10:55.765Z</time></trkpt><trkpt lat="45.5540483" lon="10.8495983"><ele>510.8333333333333</ele><time>2026-04-26T10:10:57.764Z</time></trkpt><trkpt lat="45.5539767" lon="10.84959"><ele>512.0</ele><time>2026-04-26T10:10:58.765Z</time></trkpt><trkpt lat="45.5538633" lon="10.84954"><ele>512.0</ele><time>2026-04-26T10:10:59.764Z</time></trkpt><trkpt lat="45.5537117" lon="10.84949"><ele>512.0</ele><time>2026-04-26T10:11:00.765Z</time></trkpt><trkpt lat="45.5535767" lon="10.8494583"><ele>512.0</ele><time>2026-04-26T10:11:01.764Z</time></trkpt><trkpt lat="45.5534367" lon="10.8494483"><ele>512.0</ele><time>2026-04-26T10:11:02.764Z</time></trkpt><trkpt lat="45.5532883" lon="10.8494567"><ele>515.25</ele><time>2026-04-26T10:11:03.764Z</time></trkpt><trkpt lat="45.5531417" lon="10.84946"><ele>518.5</ele><time>2026-04-26T10:11:04.764Z</time></trkpt><trkpt lat="45.5529967" lon="10.8494467"><ele>521.75</ele><time>2026-04-26T10:11:05.764Z</time></trkpt><trkpt lat="45.552855" lon="10.84943"><ele>525.0</ele><time>2026-04-26T10:11:06.764Z</time></trkpt><trkpt lat="45.5527167" lon="10.8494317"><ele>526.0</ele><time>2026-04-26T10:11:07.764Z</time></trkpt><trkpt lat="45.5525817" lon="10.8494467"><ele>527.0</ele><time>2026-04-26T10:11:08.764Z</time></trkpt><trkpt lat="45.5524533" lon="10.8494883"><ele>528.0</ele><time>2026-04-26T10:11:09.764Z</time></trkpt><trkpt lat="45.5523167" lon="10.8495433"><ele>529.0</ele><time>2026-04-26T10:11:10.764Z</time></trkpt><trkpt lat="45.552185" lon="10.849585"><ele>529.0</ele><time>2026-04-26T10:11:11.764Z</time></trkpt><trkpt lat="45.5520517" lon="10.84961"><ele>529.0</ele><time>2026-04-26T10:11:12.764Z</time></trkpt><trkpt lat="45.5519267" lon="10.849645"><ele>529.0</ele><time>2026-04-26T10:11:13.764Z</time></trkpt><trkpt lat="45.551795" lon="10.849655"><ele>529.0</ele><time>2026-04-26T10:11:14.764Z</time></trkpt><trkpt lat="45.55165" lon="10.8497033"><ele>531.0</ele><time>2026-04-26T10:11:15.764Z</time></trkpt><trkpt lat="45.5514983" lon="10.8497317"><ele>533.0</ele><time>2026-04-26T10:11:16.764Z</time></trkpt><trkpt lat="45.5513467" lon="10.8497583"><ele>535.0</ele><time>2026-04-26T10:11:17.764Z</time></trkpt><trkpt lat="45.55119" lon="10.84977"><ele>537.0</ele><time>2026-04-26T10:11:18.765Z</time></trkpt><trkpt lat="45.551035" lon="10.849785"><ele>539.0</ele><time>2026-04-26T10:11:19.765Z</time></trkpt><trkpt lat="45.55089" lon="10.8498033"><ele>541.0</ele><time>2026-04-26T10:11:20.765Z</time></trkpt><trkpt lat="45.55074" lon="10.849825"><ele>541.0</ele><time>2026-04-26T10:11:21.765Z</time></trkpt><trkpt lat="45.550595" lon="10.8498317"><ele>541.0</ele><time>2026-04-26T10:11:22.765Z</time></trkpt><trkpt lat="45.5504667" lon="10.8498283"><ele>541.0</ele><time>2026-04-26T10:11:23.764Z</time></trkpt><trkpt lat="45.550365" lon="10.8498367"><ele>541.0</ele><time>2026-04-26T10:11:24.765Z</time></trkpt><trkpt lat="45.5502817" lon="10.8498467"><ele>541.0</ele><time>2026-04-26T10:11:25.764Z</time></trkpt><trkpt lat="45.5503533" lon="10.8499833"><ele>541.0</ele><time>2026-04-26T10:11:28.764Z</time></trkpt><trkpt lat="45.55042" lon="10.8500033"><ele>541.0</ele><time>2026-04-26T10:11:29.765Z</time></trkpt><trkpt lat="45.55051" lon="10.85"><ele>541.0</ele><time>2026-04-26T10:11:30.764Z</time></trkpt><trkpt lat="45.55059" lon="10.8500083"><ele>541.0</ele><time>2026-04-26T10:11:31.764Z</time></trkpt><trkpt lat="45.5506633" lon="10.8500183"><ele>541.0</ele><time>2026-04-26T10:11:32.764Z</time></trkpt><trkpt lat="45.5507317" lon="10.8500467"><ele>541.0</ele><time>2026-04-26T10:11:33.765Z</time></trkpt><trkpt lat="45.5508167" lon="10.8500717"><ele>541.0</ele><time>2026-04-26T10:11:34.764Z</time></trkpt><trkpt lat="45.5509067" lon="10.85011"><ele>541.0</ele><time>2026-04-26T10:11:35.765Z</time></trkpt><trkpt lat="45.5509783" lon="10.85014"><ele>541.0</ele><time>2026-04-26T10:11:36.765Z</time></trkpt><trkpt lat="45.5510483" lon="10.8501783"><ele>541.0</ele><time>2026-04-26T10:11:37.765Z</time></trkpt><trkpt lat="45.55109" lon="10.8502483"><ele>541.0</ele><time>2026-04-26T10:11:39.764Z</time></trkpt><trkpt lat="45.5510583" lon="10.8503833"><ele>543.8</ele><time>2026-04-26T10:11:41.764Z</time></trkpt><trkpt lat="45.5510083" lon="10.8504683"><ele>546.6</ele><time>2026-04-26T10:11:42.764Z</time></trkpt><trkpt lat="45.5509533" lon="10.850565"><ele>549.4</ele><time>2026-04-26T10:11:43.765Z</time></trkpt><trkpt lat="45.5508967" lon="10.8506617"><ele>552.2</ele><time>2026-04-26T10:11:44.765Z</time></trkpt><trkpt lat="45.5508433" lon="10.85078"><ele>555.0</ele><time>2026-04-26T10:11:45.764Z</time></trkpt><trkpt lat="45.5507917" lon="10.850905"><ele>558.2</ele><time>2026-04-26T10:11:46.764Z</time></trkpt><trkpt lat="45.5507333" lon="10.8510433"><ele>561.4</ele><time>2026-04-26T10:11:47.765Z</time></trkpt><trkpt lat="45.5506867" lon="10.8511667"><ele>564.6</ele><time>2026-04-26T10:11:48.764Z</time></trkpt><trkpt lat="45.55065" lon="10.8512833"><ele>567.8</ele><time>2026-04-26T10:11:49.764Z</time></trkpt><trkpt lat="45.550615" lon="10.8514"><ele>571.0</ele><time>2026-04-26T10:11:50.764Z</time></trkpt><trkpt lat="45.5505717" lon="10.8515083"><ele>571.0</ele><time>2026-04-26T10:11:51.765Z</time></trkpt><trkpt lat="45.5505267" lon="10.851625"><ele>571.0</ele><time>2026-04-26T10:11:52.764Z</time></trkpt><trkpt lat="45.5504833" lon="10.8517283"><ele>571.0</ele><time>2026-04-26T10:11:53.764Z</time></trkpt><trkpt lat="45.550455" lon="10.85183"><ele>571.0</ele><time>2026-04-26T10:11:54.764Z</time></trkpt><trkpt lat="45.5504233" lon="10.85192"><ele>571.0</ele><time>2026-04-26T10:11:55.764Z</time></trkpt><trkpt lat="45.5503683" lon="10.8520267"><ele>571.0</ele><time>2026-04-26T10:11:57.765Z</time></trkpt><trkpt lat="45.5502417" lon="10.8521517"><ele>572.0</ele><time>2026-04-26T10:11:59.765Z</time></trkpt><trkpt lat="45.55015" lon="10.8522233"><ele>573.0</ele><time>2026-04-26T10:12:00.764Z</time></trkpt><trkpt lat="45.55005" lon="10.8522883"><ele>574.0</ele><time>2026-04-26T10:12:01.764Z</time></trkpt><trkpt lat="45.5499433" lon="10.8523617"><ele>575.0</ele><time>2026-04-26T10:12:02.765Z</time></trkpt><trkpt lat="45.5498267" lon="10.8524333"><ele>575.0</ele><time>2026-04-26T10:12:03.764Z</time></trkpt><trkpt lat="45.5497083" lon="10.8525067"><ele>575.0</ele><time>2026-04-26T10:12:04.764Z</time></trkpt><trkpt lat="45.5495867" lon="10.8525817"><ele>575.0</ele><time>2026-04-26T10:12:05.764Z</time></trkpt><trkpt lat="45.54947" lon="10.8526667"><ele>575.0</ele><time>2026-04-26T10:12:06.764Z</time></trkpt><trkpt lat="45.54936" lon="10.8527433"><ele>577.0</ele><time>2026-04-26T10:12:07.765Z</time></trkpt><trkpt lat="45.5492533" lon="10.8528117"><ele>579.0</ele><time>2026-04-26T10:12:08.764Z</time></trkpt><trkpt lat="45.54915" lon="10.85287"><ele>581.0</ele><time>2026-04-26T10:12:09.765Z</time></trkpt><trkpt lat="45.54904" lon="10.8529283"><ele>583.0</ele><time>2026-04-26T10:12:10.764Z</time></trkpt><trkpt lat="45.5489267" lon="10.85298"><ele>583.0</ele><time>2026-04-26T10:12:11.764Z</time></trkpt><trkpt lat="45.5488167" lon="10.8530217"><ele>583.0</ele><time>2026-04-26T10:12:12.764Z</time></trkpt><trkpt lat="45.548705" lon="10.85308"><ele>583.0</ele><time>2026-04-26T10:12:13.764Z</time></trkpt><trkpt lat="45.5485933" lon="10.8531567"><ele>583.0</ele><time>2026-04-26T10:12:14.765Z</time></trkpt><trkpt lat="45.548485" lon="10.8532517"><ele>583.4</ele><time>2026-04-26T10:12:15.765Z</time></trkpt><trkpt lat="45.5483867" lon="10.8533433"><ele>583.8</ele><time>2026-04-26T10:12:16.765Z</time></trkpt><trkpt lat="45.5483167" lon="10.8534517"><ele>584.2</ele><time>2026-04-26T10:12:17.764Z</time></trkpt><trkpt lat="45.5482433" lon="10.8535483"><ele>584.6</ele><time>2026-04-26T10:12:18.764Z</time></trkpt><trkpt lat="45.548195" lon="10.85364"><ele>585.0</ele><time>2026-04-26T10:12:19.764Z</time></trkpt><trkpt lat="45.5481567" lon="10.8537383"><ele>585.8</ele><time>2026-04-26T10:12:20.764Z</time></trkpt><trkpt lat="45.5481183" lon="10.8538667"><ele>586.6</ele><time>2026-04-26T10:12:21.764Z</time></trkpt><trkpt lat="45.5480867" lon="10.85401"><ele>587.4</ele><time>2026-04-26T10:12:22.765Z</time></trkpt><trkpt lat="45.54805" lon="10.85416"><ele>588.2</ele><time>2026-04-26T10:12:23.764Z</time></trkpt><trkpt lat="45.5480217" lon="10.8543267"><ele>589.0</ele><time>2026-04-26T10:12:24.764Z</time></trkpt><trkpt lat="45.5479933" lon="10.8545017"><ele>590.0</ele><time>2026-04-26T10:12:25.764Z</time></trkpt><trkpt lat="45.54797" lon="10.8546717"><ele>591.0</ele><time>2026-04-26T10:12:26.764Z</time></trkpt><trkpt lat="45.5479617" lon="10.8548183"><ele>592.0</ele><time>2026-04-26T10:12:27.765Z</time></trkpt><trkpt lat="45.5479467" lon="10.8549933"><ele>593.0</ele><time>2026-04-26T10:12:28.764Z</time></trkpt><trkpt lat="45.5479317" lon="10.85517"><ele>594.8</ele><time>2026-04-26T10:12:29.764Z</time></trkpt><trkpt lat="45.5479317" lon="10.855315"><ele>596.5999999999999</ele><time>2026-04-26T10:12:30.764Z</time></trkpt><trkpt lat="45.5479317" lon="10.855465"><ele>598.4000000000001</ele><time>2026-04-26T10:12:31.764Z</time></trkpt><trkpt lat="45.5479317" lon="10.8556233"><ele>600.2</ele><time>2026-04-26T10:12:32.764Z</time></trkpt><trkpt lat="45.547925" lon="10.8557767"><ele>602.0</ele><time>2026-04-26T10:12:33.764Z</time></trkpt><trkpt lat="45.5479133" lon="10.8559117"><ele>602.8000000000001</ele><time>2026-04-26T10:12:34.764Z</time></trkpt><trkpt lat="45.547895" lon="10.8560367"><ele>603.6</ele><time>2026-04-26T10:12:35.764Z</time></trkpt><trkpt lat="45.5478633" lon="10.8561283"><ele>604.4000000000001</ele><time>2026-04-26T10:12:36.764Z</time></trkpt><trkpt lat="45.5477567" lon="10.856245"><ele>605.2</ele><time>2026-04-26T10:12:38.765Z</time></trkpt><trkpt lat="45.5476667" lon="10.8562883"><ele>606.0</ele><time>2026-04-26T10:12:39.764Z</time></trkpt><trkpt lat="45.5475317" lon="10.85632"><ele>601.0</ele><time>2026-04-26T10:12:40.765Z</time></trkpt><trkpt lat="45.5474" lon="10.8563833"><ele>596.0</ele><time>2026-04-26T10:12:41.764Z</time></trkpt><trkpt lat="45.5472517" lon="10.8564183"><ele>591.0</ele><time>2026-04-26T10:12:42.764Z</time></trkpt><trkpt lat="45.5470833" lon="10.856415"><ele>587.25</ele><time>2026-04-26T10:12:43.764Z</time></trkpt><trkpt lat="45.5469333" lon="10.8564117"><ele>583.5</ele><time>2026-04-26T10:12:44.764Z</time></trkpt><trkpt lat="45.5468133" lon="10.856425"><ele>579.75</ele><time>2026-04-26T10:12:45.764Z</time></trkpt><trkpt lat="45.54672" lon="10.8564683"><ele>576.0</ele><time>2026-04-26T10:12:46.764Z</time></trkpt><trkpt lat="45.5466383" lon="10.8565217"><ele>576.0</ele><time>2026-04-26T10:12:47.764Z</time></trkpt><trkpt lat="45.54655" lon="10.8565833"><ele>576.0</ele><time>2026-04-26T10:12:48.764Z</time></trkpt><trkpt lat="45.5464667" lon="10.8566517"><ele>576.0</ele><time>2026-04-26T10:12:49.765Z</time></trkpt><trkpt lat="45.5463933" lon="10.8567417"><ele>576.0</ele><time>2026-04-26T10:12:50.764Z</time></trkpt><trkpt lat="45.546325" lon="10.8568267"><ele>576.0</ele><time>2026-04-26T10:12:51.764Z</time></trkpt><trkpt lat="45.5462583" lon="10.8569067"><ele>574.6</ele><time>2026-04-26T10:12:52.764Z</time></trkpt><trkpt lat="45.5461883" lon="10.8570383"><ele>573.2</ele><time>2026-04-26T10:12:53.764Z</time></trkpt><trkpt lat="45.5461133" lon="10.8571367"><ele>571.8</ele><time>2026-04-26T10:12:55.764Z</time></trkpt><trkpt lat="45.5461267" lon="10.8572517"><ele>570.4</ele><time>2026-04-26T10:12:57.764Z</time></trkpt><trkpt lat="45.5461767" lon="10.8574183"><ele>569.0</ele><time>2026-04-26T10:12:59.765Z</time></trkpt><trkpt lat="45.5462317" lon="10.857535"><ele>563.0</ele><time>2026-04-26T10:13:00.764Z</time></trkpt><trkpt lat="45.5463233" lon="10.8576783"><ele>557.0</ele><time>2026-04-26T10:13:01.764Z</time></trkpt><trkpt lat="45.5464733" lon="10.857875"><ele>551.0</ele><time>2026-04-26T10:13:02.765Z</time></trkpt><trkpt lat="45.5465933" lon="10.8580533"><ele>551.0</ele><time>2026-04-26T10:13:03.765Z</time></trkpt><trkpt lat="45.5467083" lon="10.8582383"><ele>551.0</ele><time>2026-04-26T10:13:04.765Z</time></trkpt><trkpt lat="45.54683" lon="10.8584267"><ele>551.0</ele><time>2026-04-26T10:13:05.765Z</time></trkpt><trkpt lat="45.54694" lon="10.8586133"><ele>554.3333333333333</ele><time>2026-04-26T10:13:06.765Z</time></trkpt><trkpt lat="45.547055" lon="10.8588017"><ele>557.6666666666666</ele><time>2026-04-26T10:13:07.764Z</time></trkpt><trkpt lat="45.5471783" lon="10.8589783"><ele>561.0</ele><time>2026-04-26T10:13:08.764Z</time></trkpt><trkpt lat="45.5473117" lon="10.8591383"><ele>556.25</ele><time>2026-04-26T10:13:09.764Z</time></trkpt><trkpt lat="45.5474067" lon="10.8593167"><ele>551.5</ele><time>2026-04-26T10:13:10.765Z</time></trkpt><trkpt lat="45.5474983" lon="10.85949"><ele>546.75</ele><time>2026-04-26T10:13:11.764Z</time></trkpt><trkpt lat="45.547565" lon="10.859645"><ele>542.0</ele><time>2026-04-26T10:13:12.764Z</time></trkpt><trkpt lat="45.5476117" lon="10.8597817"><ele>542.0</ele><time>2026-04-26T10:13:13.764Z</time></trkpt><trkpt lat="45.5476533" lon="10.8599333"><ele>542.0</ele><time>2026-04-26T10:13:14.765Z</time></trkpt><trkpt lat="45.5476883" lon="10.8601083"><ele>542.0</ele><time>2026-04-26T10:13:15.764Z</time></trkpt><trkpt lat="45.5477383" lon="10.860285"><ele>542.0</ele><time>2026-04-26T10:13:16.764Z</time></trkpt><trkpt lat="45.5477967" lon="10.8604733"><ele>539.6666666666666</ele><time>2026-04-26T10:13:17.764Z</time></trkpt><trkpt lat="45.547855" lon="10.860665"><ele>537.3333333333334</ele><time>2026-04-26T10:13:18.765Z</time></trkpt><trkpt lat="45.5479133" lon="10.8608617"><ele>535.0</ele><time>2026-04-26T10:13:19.765Z</time></trkpt><trkpt lat="45.5479717" lon="10.861075"><ele>533.4</ele><time>2026-04-26T10:13:20.765Z</time></trkpt><trkpt lat="45.5480083" lon="10.8612417"><ele>531.8</ele><time>2026-04-26T10:13:21.764Z</time></trkpt><trkpt lat="45.5480167" lon="10.8613933"><ele>530.2</ele><time>2026-04-26T10:13:22.764Z</time></trkpt><trkpt lat="45.548005" lon="10.8615433"><ele>528.6</ele><time>2026-04-26T10:13:23.764Z</time></trkpt><trkpt lat="45.5479817" lon="10.8616817"><ele>527.0</ele><time>2026-04-26T10:13:24.764Z</time></trkpt><trkpt lat="45.5479533" lon="10.8618217"><ele>522.75</ele><time>2026-04-26T10:13:25.765Z</time></trkpt><trkpt lat="45.5479017" lon="10.8619267"><ele>518.5</ele><time>2026-04-26T10:13:26.765Z</time></trkpt><trkpt lat="45.54775" lon="10.8619467"><ele>514.25</ele><time>2026-04-26T10:13:27.764Z</time></trkpt><trkpt lat="45.547665" lon="10.86206"><ele>510.0</ele><time>2026-04-26T10:13:28.765Z</time></trkpt><trkpt lat="45.5475517" lon="10.8621633"><ele>508.25</ele><time>2026-04-26T10:13:29.765Z</time></trkpt><trkpt lat="45.547425" lon="10.8622667"><ele>506.5</ele><time>2026-04-26T10:13:30.763Z</time></trkpt><trkpt lat="45.547295" lon="10.862365"><ele>504.75</ele><time>2026-04-26T10:13:31.763Z</time></trkpt><trkpt lat="45.5471733" lon="10.862445"><ele>503.0</ele><time>2026-04-26T10:13:32.763Z</time></trkpt><trkpt lat="45.547065" lon="10.86251"><ele>501.4</ele><time>2026-04-26T10:13:33.764Z</time></trkpt><trkpt lat="45.5469617" lon="10.8625667"><ele>499.79999999999995</ele><time>2026-04-26T10:13:34.763Z</time></trkpt><trkpt lat="45.5468667" lon="10.8626067"><ele>498.2</ele><time>2026-04-26T10:13:35.764Z</time></trkpt><trkpt lat="45.5467817" lon="10.862645"><ele>496.6</ele><time>2026-04-26T10:13:36.763Z</time></trkpt><trkpt lat="45.5466817" lon="10.8626667"><ele>495.0</ele><time>2026-04-26T10:13:38.764Z</time></trkpt><trkpt lat="45.5465883" lon="10.8625767"><ele>495.0</ele><time>2026-04-26T10:13:40.763Z</time></trkpt><trkpt lat="45.5465417" lon="10.8624033"><ele>495.0</ele><time>2026-04-26T10:13:42.763Z</time></trkpt><trkpt lat="45.546545" lon="10.8622833"><ele>495.0</ele><time>2026-04-26T10:13:43.763Z</time></trkpt><trkpt lat="45.5465517" lon="10.862135"><ele>495.0</ele><time>2026-04-26T10:13:44.764Z</time></trkpt><trkpt lat="45.5465633" lon="10.8619817"><ele>495.0</ele><time>2026-04-26T10:13:45.763Z</time></trkpt><trkpt lat="45.5465517" lon="10.8617933"><ele>497.2</ele><time>2026-04-26T10:13:46.763Z</time></trkpt><trkpt lat="45.5465283" lon="10.8616183"><ele>499.4</ele><time>2026-04-26T10:13:47.763Z</time></trkpt><trkpt lat="45.5464983" lon="10.8614617"><ele>501.6</ele><time>2026-04-26T10:13:48.763Z</time></trkpt><trkpt lat="45.5464667" lon="10.8613233"><ele>503.8</ele><time>2026-04-26T10:13:49.764Z</time></trkpt><trkpt lat="45.5464383" lon="10.8612083"><ele>506.0</ele><time>2026-04-26T10:13:50.763Z</time></trkpt><trkpt lat="45.54642" lon="10.8611117"><ele>506.0</ele><time>2026-04-26T10:13:51.763Z</time></trkpt><trkpt lat="45.5463783" lon="10.8609567"><ele>506.0</ele><time>2026-04-26T10:13:53.764Z</time></trkpt><trkpt lat="45.54634" lon="10.8608533"><ele>506.0</ele><time>2026-04-26T10:13:54.763Z</time></trkpt><trkpt lat="45.5462967" lon="10.8607383"><ele>506.0</ele><time>2026-04-26T10:13:55.764Z</time></trkpt><trkpt lat="45.5462583" lon="10.86061"><ele>506.0</ele><time>2026-04-26T10:13:56.763Z</time></trkpt><trkpt lat="45.5462267" lon="10.860475"><ele>506.0</ele><time>2026-04-26T10:13:57.763Z</time></trkpt><trkpt lat="45.5461983" lon="10.8603233"><ele>506.0</ele><time>2026-04-26T10:13:58.763Z</time></trkpt><trkpt lat="45.5461717" lon="10.8601667"><ele>506.0</ele><time>2026-04-26T10:13:59.763Z</time></trkpt><trkpt lat="45.5461467" lon="10.8600133"><ele>506.0</ele><time>2026-04-26T10:14:00.764Z</time></trkpt><trkpt lat="45.546105" lon="10.8598767"><ele>506.0</ele><time>2026-04-26T10:14:01.764Z</time></trkpt><trkpt lat="45.54605" lon="10.8597383"><ele>505.99999999999994</ele><time>2026-04-26T10:14:02.764Z</time></trkpt><trkpt lat="45.5460117" lon="10.8595983"><ele>506.0</ele><time>2026-04-26T10:14:03.763Z</time></trkpt><trkpt lat="45.5459867" lon="10.85947"><ele>506.0</ele><time>2026-04-26T10:14:04.763Z</time></trkpt><trkpt lat="45.5459583" lon="10.8593483"><ele>506.0</ele><time>2026-04-26T10:14:05.763Z</time></trkpt><trkpt lat="45.5459233" lon="10.8592333"><ele>505.99999999999994</ele><time>2026-04-26T10:14:06.763Z</time></trkpt><trkpt lat="45.5459017" lon="10.859145"><ele>506.0</ele><time>2026-04-26T10:14:07.763Z</time></trkpt><trkpt lat="45.545875" lon="10.8590583"><ele>508.16666666666663</ele><time>2026-04-26T10:14:08.763Z</time></trkpt><trkpt lat="45.5458167" lon="10.8588817"><ele>510.3333333333333</ele><time>2026-04-26T10:14:10.763Z</time></trkpt><trkpt lat="45.545775" lon="10.858795"><ele>512.5</ele><time>2026-04-26T10:14:11.763Z</time></trkpt><trkpt lat="45.545735" lon="10.85872"><ele>514.6666666666666</ele><time>2026-04-26T10:14:12.763Z</time></trkpt><trkpt lat="45.5457017" lon="10.8586367"><ele>516.8333333333334</ele><time>2026-04-26T10:14:13.763Z</time></trkpt><trkpt lat="45.545685" lon="10.8585283"><ele>519.0</ele><time>2026-04-26T10:14:14.763Z</time></trkpt><trkpt lat="45.5456683" lon="10.85844"><ele>518.2</ele><time>2026-04-26T10:14:15.764Z</time></trkpt><trkpt lat="45.5456367" lon="10.85836"><ele>517.4</ele><time>2026-04-26T10:14:16.763Z</time></trkpt><trkpt lat="45.5455583" lon="10.8582183"><ele>516.6</ele><time>2026-04-26T10:14:18.763Z</time></trkpt><trkpt lat="45.5454867" lon="10.8581533"><ele>515.8</ele><time>2026-04-26T10:14:19.764Z</time></trkpt><trkpt lat="45.545415" lon="10.858075"><ele>515.0</ele><time>2026-04-26T10:14:20.763Z</time></trkpt><trkpt lat="45.545325" lon="10.857985"><ele>515.0</ele><time>2026-04-26T10:14:21.763Z</time></trkpt><trkpt lat="45.5452433" lon="10.8579067"><ele>515.0</ele><time>2026-04-26T10:14:22.763Z</time></trkpt><trkpt lat="45.5451667" lon="10.85783"><ele>515.0</ele><time>2026-04-26T10:14:23.764Z</time></trkpt><trkpt lat="45.5450867" lon="10.8577783"><ele>515.0</ele><time>2026-04-26T10:14:24.764Z</time></trkpt><trkpt lat="45.544995" lon="10.8577117"><ele>515.0</ele><time>2026-04-26T10:14:25.763Z</time></trkpt><trkpt lat="45.5449117" lon="10.85763"><ele>516.8333333333333</ele><time>2026-04-26T10:14:26.764Z</time></trkpt><trkpt lat="45.5448267" lon="10.8575517"><ele>518.6666666666666</ele><time>2026-04-26T10:14:27.763Z</time></trkpt><trkpt lat="45.5447517" lon="10.8574667"><ele>520.5</ele><time>2026-04-26T10:14:28.763Z</time></trkpt><trkpt lat="45.544675" lon="10.8573983"><ele>522.3333333333334</ele><time>2026-04-26T10:14:29.763Z</time></trkpt><trkpt lat="45.54461" lon="10.8573267"><ele>524.1666666666667</ele><time>2026-04-26T10:14:30.764Z</time></trkpt><trkpt lat="45.544545" lon="10.8572633"><ele>526.0</ele><time>2026-04-26T10:14:31.763Z</time></trkpt><trkpt lat="45.5444833" lon="10.8572067"><ele>526.0</ele><time>2026-04-26T10:14:32.763Z</time></trkpt><trkpt lat="45.5444183" lon="10.8571533"><ele>526.0</ele><time>2026-04-26T10:14:33.763Z</time></trkpt><trkpt lat="45.5443583" lon="10.8571183"><ele>526.0</ele><time>2026-04-26T10:14:34.764Z</time></trkpt><trkpt lat="45.5442867" lon="10.8570583"><ele>526.0</ele><time>2026-04-26T10:14:35.763Z</time></trkpt><trkpt lat="45.5442217" lon="10.857005"><ele>526.0</ele><time>2026-04-26T10:14:36.764Z</time></trkpt><trkpt lat="45.5440967" lon="10.856945"><ele>526.0</ele><time>2026-04-26T10:14:38.764Z</time></trkpt><trkpt lat="45.5440367" lon="10.856915"><ele>526.0</ele><time>2026-04-26T10:14:39.764Z</time></trkpt><trkpt lat="45.54392" lon="10.8568967"><ele>526.0</ele><time>2026-04-26T10:14:41.763Z</time></trkpt><trkpt lat="45.5438083" lon="10.8568717"><ele>526.0</ele><time>2026-04-26T10:14:43.764Z</time></trkpt><trkpt lat="45.543745" lon="10.8568633"><ele>526.0</ele><time>2026-04-26T10:14:44.764Z</time></trkpt><trkpt lat="45.5436167" lon="10.8568467"><ele>526.0</ele><time>2026-04-26T10:14:46.763Z</time></trkpt><trkpt lat="45.543545" lon="10.8568317"><ele>525.4285714285714</ele><time>2026-04-26T10:14:47.763Z</time></trkpt><trkpt lat="45.5434783" lon="10.856815"><ele>524.8571428571428</ele><time>2026-04-26T10:14:48.763Z</time></trkpt><trkpt lat="45.5434117" lon="10.856805"><ele>524.2857142857142</ele><time>2026-04-26T10:14:49.763Z</time></trkpt><trkpt lat="45.5433433" lon="10.85679"><ele>523.7142857142857</ele><time>2026-04-26T10:14:50.764Z</time></trkpt><trkpt lat="45.543275" lon="10.8567717"><ele>523.1428571428571</ele><time>2026-04-26T10:14:51.763Z</time></trkpt><trkpt lat="45.5431933" lon="10.8567417"><ele>522.5714285714286</ele><time>2026-04-26T10:14:52.764Z</time></trkpt><trkpt lat="45.5431083" lon="10.856715"><ele>522.0</ele><time>2026-04-26T10:14:53.763Z</time></trkpt><trkpt lat="45.5430083" lon="10.8566933"><ele>522.0</ele><time>2026-04-26T10:14:54.763Z</time></trkpt><trkpt lat="45.542915" lon="10.856675"><ele>522.0</ele><time>2026-04-26T10:14:55.764Z</time></trkpt><trkpt lat="45.5428267" lon="10.856655"><ele>522.0</ele><time>2026-04-26T10:14:56.763Z</time></trkpt><trkpt lat="45.54274" lon="10.8566317"><ele>522.0</ele><time>2026-04-26T10:14:57.763Z</time></trkpt><trkpt lat="45.5426617" lon="10.8566083"><ele>522.0</ele><time>2026-04-26T10:14:58.764Z</time></trkpt><trkpt lat="45.5425833" lon="10.8565933"><ele>522.0</ele><time>2026-04-26T10:14:59.764Z</time></trkpt><trkpt lat="45.542495" lon="10.8565783"><ele>521.2</ele><time>2026-04-26T10:15:00.763Z</time></trkpt><trkpt lat="45.542405" lon="10.8565667"><ele>520.4000000000001</ele><time>2026-04-26T10:15:01.763Z</time></trkpt><trkpt lat="45.5423233" lon="10.8565533"><ele>519.5999999999999</ele><time>2026-04-26T10:15:02.764Z</time></trkpt><trkpt lat="45.5422267" lon="10.8565333"><ele>518.8</ele><time>2026-04-26T10:15:03.763Z</time></trkpt><trkpt lat="45.5421267" lon="10.856515"><ele>518.0</ele><time>2026-04-26T10:15:04.764Z</time></trkpt><trkpt lat="45.5420217" lon="10.8564983"><ele>516.1999999999999</ele><time>2026-04-26T10:15:05.763Z</time></trkpt><trkpt lat="45.5419217" lon="10.8564717"><ele>514.4</ele><time>2026-04-26T10:15:06.763Z</time></trkpt><trkpt lat="45.5418083" lon="10.85644"><ele>512.5999999999999</ele><time>2026-04-26T10:15:07.763Z</time></trkpt><trkpt lat="45.5416933" lon="10.8564117"><ele>510.79999999999995</ele><time>2026-04-26T10:15:08.763Z</time></trkpt><trkpt lat="45.5415817" lon="10.8563967"><ele>509.0</ele><time>2026-04-26T10:15:09.764Z</time></trkpt><trkpt lat="45.54148" lon="10.856385"><ele>508.99999999999994</ele><time>2026-04-26T10:15:10.763Z</time></trkpt><trkpt lat="45.5413767" lon="10.8563733"><ele>509.0</ele><time>2026-04-26T10:15:11.764Z</time></trkpt><trkpt lat="45.5412833" lon="10.8563633"><ele>509.0</ele><time>2026-04-26T10:15:12.763Z</time></trkpt><trkpt lat="45.541195" lon="10.8563467"><ele>509.0</ele><time>2026-04-26T10:15:13.763Z</time></trkpt><trkpt lat="45.54111" lon="10.8563517"><ele>508.99999999999994</ele><time>2026-04-26T10:15:14.763Z</time></trkpt><trkpt lat="45.54104" lon="10.8563733"><ele>509.0</ele><time>2026-04-26T10:15:15.763Z</time></trkpt><trkpt lat="45.5409883" lon="10.856435"><ele>506.6</ele><time>2026-04-26T10:15:16.764Z</time></trkpt><trkpt lat="45.5409233" lon="10.8565567"><ele>504.2</ele><time>2026-04-26T10:15:18.763Z</time></trkpt><trkpt lat="45.5409033" lon="10.8566717"><ele>501.80000000000007</ele><time>2026-04-26T10:15:19.763Z</time></trkpt><trkpt lat="45.5408833" lon="10.8568317"><ele>499.40000000000003</ele><time>2026-04-26T10:15:20.763Z</time></trkpt><trkpt lat="45.5408783" lon="10.8570167"><ele>497.0</ele><time>2026-04-26T10:15:21.763Z</time></trkpt><trkpt lat="45.5408533" lon="10.8572017"><ele>496.49999999999994</ele><time>2026-04-26T10:15:22.764Z</time></trkpt><trkpt lat="45.54084" lon="10.8573633"><ele>496.0</ele><time>2026-04-26T10:15:23.763Z</time></trkpt><trkpt lat="45.5408217" lon="10.85751"><ele>495.5</ele><time>2026-04-26T10:15:24.764Z</time></trkpt><trkpt lat="45.54081" lon="10.8576283"><ele>495.0</ele><time>2026-04-26T10:15:25.763Z</time></trkpt><trkpt lat="45.5408083" lon="10.8577283"><ele>494.49999999999994</ele><time>2026-04-26T10:15:26.763Z</time></trkpt><trkpt lat="45.5408117" lon="10.85783"><ele>494.0</ele><time>2026-04-26T10:15:27.764Z</time></trkpt><trkpt lat="45.540825" lon="10.857935"><ele>494.2</ele><time>2026-04-26T10:15:28.764Z</time></trkpt><trkpt lat="45.5408483" lon="10.8580383"><ele>494.4</ele><time>2026-04-26T10:15:29.763Z</time></trkpt><trkpt lat="45.5408867" lon="10.8581217"><ele>494.6</ele><time>2026-04-26T10:15:30.763Z</time></trkpt><trkpt lat="45.540955" lon="10.8581933"><ele>494.8</ele><time>2026-04-26T10:15:31.763Z</time></trkpt><trkpt lat="45.541115" lon="10.8582233"><ele>495.0</ele><time>2026-04-26T10:15:32.764Z</time></trkpt><trkpt lat="45.5412417" lon="10.85826"><ele>495.0</ele><time>2026-04-26T10:15:33.763Z</time></trkpt><trkpt lat="45.5413567" lon="10.8583017"><ele>495.0</ele><time>2026-04-26T10:15:34.764Z</time></trkpt><trkpt lat="45.5414617" lon="10.858355"><ele>495.0</ele><time>2026-04-26T10:15:35.764Z</time></trkpt><trkpt lat="45.541555" lon="10.85841"><ele>495.0</ele><time>2026-04-26T10:15:36.763Z</time></trkpt><trkpt lat="45.54163" lon="10.8584767"><ele>495.0</ele><time>2026-04-26T10:15:37.763Z</time></trkpt><trkpt lat="45.5417133" lon="10.8585383"><ele>491.75</ele><time>2026-04-26T10:15:38.763Z</time></trkpt><trkpt lat="45.5418117" lon="10.85859"><ele>488.5</ele><time>2026-04-26T10:15:39.764Z</time></trkpt><trkpt lat="45.5419317" lon="10.85863"><ele>485.25</ele><time>2026-04-26T10:15:40.763Z</time></trkpt><trkpt lat="45.542065" lon="10.858655"><ele>482.0</ele><time>2026-04-26T10:15:41.763Z</time></trkpt><trkpt lat="45.5422417" lon="10.858675"><ele>482.0</ele><time>2026-04-26T10:15:42.763Z</time></trkpt><trkpt lat="45.5424033" lon="10.8586783"><ele>482.0</ele><time>2026-04-26T10:15:43.763Z</time></trkpt><trkpt lat="45.5425417" lon="10.8586533"><ele>482.0</ele><time>2026-04-26T10:15:44.763Z</time></trkpt><trkpt lat="45.54269" lon="10.8586383"><ele>482.0</ele><time>2026-04-26T10:15:45.763Z</time></trkpt><trkpt lat="45.542835" lon="10.8586417"><ele>482.0</ele><time>2026-04-26T10:15:46.763Z</time></trkpt><trkpt lat="45.5429617" lon="10.8586317"><ele>482.0</ele><time>2026-04-26T10:15:47.763Z</time></trkpt><trkpt lat="45.543085" lon="10.858595"><ele>482.0</ele><time>2026-04-26T10:15:48.764Z</time></trkpt><trkpt lat="45.543205" lon="10.8585383"><ele>482.0</ele><time>2026-04-26T10:15:49.764Z</time></trkpt><trkpt lat="45.54333" lon="10.8584667"><ele>482.0</ele><time>2026-04-26T10:15:50.764Z</time></trkpt><trkpt lat="45.543455" lon="10.8584033"><ele>482.0</ele><time>2026-04-26T10:15:51.763Z</time></trkpt><trkpt lat="45.5435717" lon="10.858365"><ele>482.0</ele><time>2026-04-26T10:15:52.763Z</time></trkpt><trkpt lat="45.5436833" lon="10.8583333"><ele>482.20000000000005</ele><time>2026-04-26T10:15:53.763Z</time></trkpt><trkpt lat="45.5437783" lon="10.858315"><ele>482.40000000000003</ele><time>2026-04-26T10:15:54.763Z</time></trkpt><trkpt lat="45.5438533" lon="10.85832"><ele>482.59999999999997</ele><time>2026-04-26T10:15:55.764Z</time></trkpt><trkpt lat="45.5439333" lon="10.8583833"><ele>482.79999999999995</ele><time>2026-04-26T10:15:56.764Z</time></trkpt><trkpt lat="45.5440333" lon="10.8584783"><ele>483.0</ele><time>2026-04-26T10:15:57.764Z</time></trkpt><trkpt lat="45.5441433" lon="10.8585683"><ele>483.0</ele><time>2026-04-26T10:15:58.763Z</time></trkpt><trkpt lat="45.544265" lon="10.8586617"><ele>483.0</ele><time>2026-04-26T10:15:59.764Z</time></trkpt><trkpt lat="45.544395" lon="10.858755"><ele>483.0</ele><time>2026-04-26T10:16:00.763Z</time></trkpt><trkpt lat="45.54451" lon="10.8588767"><ele>483.0</ele><time>2026-04-26T10:16:01.764Z</time></trkpt><trkpt lat="45.54462" lon="10.8590183"><ele>483.0</ele><time>2026-04-26T10:16:02.763Z</time></trkpt><trkpt lat="45.5446933" lon="10.8591883"><ele>483.0</ele><time>2026-04-26T10:16:03.764Z</time></trkpt><trkpt lat="45.544765" lon="10.8593483"><ele>483.0</ele><time>2026-04-26T10:16:04.763Z</time></trkpt><trkpt lat="45.544825" lon="10.8595183"><ele>483.0</ele><time>2026-04-26T10:16:05.764Z</time></trkpt><trkpt lat="45.5449017" lon="10.8596983"><ele>483.0</ele><time>2026-04-26T10:16:06.764Z</time></trkpt><trkpt lat="45.54496" lon="10.8598567"><ele>483.0</ele><time>2026-04-26T10:16:07.763Z</time></trkpt><trkpt lat="45.5450117" lon="10.8600233"><ele>483.0</ele><time>2026-04-26T10:16:08.763Z</time></trkpt><trkpt lat="45.5450567" lon="10.8602133"><ele>483.0</ele><time>2026-04-26T10:16:09.763Z</time></trkpt><trkpt lat="45.545095" lon="10.8603867"><ele>481.0</ele><time>2026-04-26T10:16:10.764Z</time></trkpt><trkpt lat="45.5451233" lon="10.860565"><ele>479.0</ele><time>2026-04-26T10:16:11.763Z</time></trkpt><trkpt lat="45.5451367" lon="10.860755"><ele>477.0</ele><time>2026-04-26T10:16:12.764Z</time></trkpt><trkpt lat="45.545145" lon="10.8609383"><ele>475.0</ele><time>2026-04-26T10:16:13.764Z</time></trkpt><trkpt lat="45.5451367" lon="10.86111"><ele>473.5</ele><time>2026-04-26T10:16:14.764Z</time></trkpt><trkpt lat="45.5451167" lon="10.8612817"><ele>472.0</ele><time>2026-04-26T10:16:15.763Z</time></trkpt><trkpt lat="45.545105" lon="10.8614633"><ele>470.5</ele><time>2026-04-26T10:16:16.763Z</time></trkpt><trkpt lat="45.5451" lon="10.8616267"><ele>469.0</ele><time>2026-04-26T10:16:17.763Z</time></trkpt><trkpt lat="45.545095" lon="10.86177"><ele>465.75</ele><time>2026-04-26T10:16:18.763Z</time></trkpt><trkpt lat="45.5451067" lon="10.8619217"><ele>462.5</ele><time>2026-04-26T10:16:19.763Z</time></trkpt><trkpt lat="45.545135" lon="10.8620783"><ele>459.25</ele><time>2026-04-26T10:16:20.763Z</time></trkpt><trkpt lat="45.54521" lon="10.86224"><ele>456.0</ele><time>2026-04-26T10:16:21.763Z</time></trkpt><trkpt lat="45.5452933" lon="10.8623667"><ele>460.20000000000005</ele><time>2026-04-26T10:16:22.762Z</time></trkpt><trkpt lat="45.5453967" lon="10.8624283"><ele>464.40000000000003</ele><time>2026-04-26T10:16:23.762Z</time></trkpt><trkpt lat="45.5454983" lon="10.86248"><ele>468.6</ele><time>2026-04-26T10:16:24.763Z</time></trkpt><trkpt lat="45.5455867" lon="10.8625083"><ele>472.8</ele><time>2026-04-26T10:16:25.762Z</time></trkpt><trkpt lat="45.545665" lon="10.862545"><ele>477.0</ele><time>2026-04-26T10:16:26.762Z</time></trkpt><trkpt lat="45.545715" lon="10.8626033"><ele>473.6666666666667</ele><time>2026-04-26T10:16:27.762Z</time></trkpt><trkpt lat="45.5457567" lon="10.8626717"><ele>470.33333333333337</ele><time>2026-04-26T10:16:28.762Z</time></trkpt><trkpt lat="45.5458117" lon="10.8627983"><ele>467.0</ele><time>2026-04-26T10:16:30.763Z</time></trkpt><trkpt lat="45.5458667" lon="10.862955"><ele>463.6666666666667</ele><time>2026-04-26T10:16:32.763Z</time></trkpt><trkpt lat="45.5459017" lon="10.8630483"><ele>460.33333333333337</ele><time>2026-04-26T10:16:33.762Z</time></trkpt><trkpt lat="45.5459417" lon="10.8631417"><ele>457.0</ele><time>2026-04-26T10:16:34.762Z</time></trkpt><trkpt lat="45.5459933" lon="10.8632333"><ele>457.0</ele><time>2026-04-26T10:16:35.763Z</time></trkpt><trkpt lat="45.5460633" lon="10.8633017"><ele>457.00000000000006</ele><time>2026-04-26T10:16:36.762Z</time></trkpt><trkpt lat="45.54615" lon="10.8633817"><ele>457.00000000000006</ele><time>2026-04-26T10:16:37.762Z</time></trkpt><trkpt lat="45.5462483" lon="10.8634583"><ele>457.0</ele><time>2026-04-26T10:16:38.762Z</time></trkpt><trkpt lat="45.5463617" lon="10.86355"><ele>457.0</ele><time>2026-04-26T10:16:39.762Z</time></trkpt><trkpt lat="45.5464683" lon="10.8636467"><ele>458.6</ele><time>2026-04-26T10:16:40.763Z</time></trkpt><trkpt lat="45.5465717" lon="10.8637417"><ele>460.20000000000005</ele><time>2026-04-26T10:16:41.762Z</time></trkpt><trkpt lat="45.5466717" lon="10.8638417"><ele>461.8</ele><time>2026-04-26T10:16:42.762Z</time></trkpt><trkpt lat="45.5467633" lon="10.863925"><ele>463.4</ele><time>2026-04-26T10:16:43.762Z</time></trkpt><trkpt lat="45.54684" lon="10.863995"><ele>465.0</ele><time>2026-04-26T10:16:44.762Z</time></trkpt><trkpt lat="45.5469217" lon="10.864065"><ele>465.0</ele><time>2026-04-26T10:16:45.763Z</time></trkpt><trkpt lat="45.547" lon="10.86414"><ele>465.0</ele><time>2026-04-26T10:16:46.762Z</time></trkpt><trkpt lat="45.5470867" lon="10.8642183"><ele>465.0</ele><time>2026-04-26T10:16:47.762Z</time></trkpt><trkpt lat="45.5471783" lon="10.8642967"><ele>465.0</ele><time>2026-04-26T10:16:48.763Z</time></trkpt><trkpt lat="45.54726" lon="10.8643567"><ele>465.0</ele><time>2026-04-26T10:16:49.762Z</time></trkpt><trkpt lat="45.54734" lon="10.8644117"><ele>465.6666666666667</ele><time>2026-04-26T10:16:50.762Z</time></trkpt><trkpt lat="45.5474117" lon="10.8644467"><ele>466.33333333333337</ele><time>2026-04-26T10:16:51.763Z</time></trkpt><trkpt lat="45.54748" lon="10.8644833"><ele>467.0</ele><time>2026-04-26T10:16:52.762Z</time></trkpt><trkpt lat="45.5475467" lon="10.8645167"><ele>467.6666666666667</ele><time>2026-04-26T10:16:53.762Z</time></trkpt><trkpt lat="45.547615" lon="10.8645767"><ele>468.33333333333337</ele><time>2026-04-26T10:16:55.763Z</time></trkpt><trkpt lat="45.547675" lon="10.86466"><ele>469.0</ele><time>2026-04-26T10:17:06.762Z</time></trkpt><trkpt lat="45.5476133" lon="10.864765"><ele>469.0</ele><time>2026-04-26T10:17:17.763Z</time></trkpt><trkpt lat="45.5475833" lon="10.8648617"><ele>469.0</ele><time>2026-04-26T10:17:19.762Z</time></trkpt><trkpt lat="45.5475517" lon="10.8650483"><ele>469.0</ele><time>2026-04-26T10:17:22.763Z</time></trkpt><trkpt lat="45.5475333" lon="10.865175"><ele>469.0</ele><time>2026-04-26T10:17:24.762Z</time></trkpt><trkpt lat="45.5475283" lon="10.86531"><ele>469.0</ele><time>2026-04-26T10:17:26.763Z</time></trkpt><trkpt lat="45.5475383" lon="10.865455"><ele>467.50000000000006</ele><time>2026-04-26T10:17:28.762Z</time></trkpt><trkpt lat="45.5475433" lon="10.8656267"><ele>466.0</ele><time>2026-04-26T10:17:30.762Z</time></trkpt><trkpt lat="45.5475467" lon="10.86572"><ele>464.5</ele><time>2026-04-26T10:17:31.763Z</time></trkpt><trkpt lat="45.5475533" lon="10.86582"><ele>463.0</ele><time>2026-04-26T10:17:32.762Z</time></trkpt><trkpt lat="45.547565" lon="10.865925"><ele>461.50000000000006</ele><time>2026-04-26T10:17:33.762Z</time></trkpt><trkpt lat="45.5475767" lon="10.8660267"><ele>460.0</ele><time>2026-04-26T10:17:34.762Z</time></trkpt><trkpt lat="45.5475967" lon="10.8661583"><ele>458.0</ele><time>2026-04-26T10:17:36.762Z</time></trkpt><trkpt lat="45.547605" lon="10.8662733"><ele>456.0</ele><time>2026-04-26T10:17:38.763Z</time></trkpt><trkpt lat="45.5475517" lon="10.8664117"><ele>454.0</ele><time>2026-04-26T10:17:41.763Z</time></trkpt><trkpt lat="45.5474783" lon="10.86658"><ele>452.0</ele><time>2026-04-26T10:17:43.762Z</time></trkpt><trkpt lat="45.547445" lon="10.86667"><ele>450.0</ele><time>2026-04-26T10:17:44.763Z</time></trkpt><trkpt lat="45.54742" lon="10.8667767"><ele>447.8</ele><time>2026-04-26T10:17:45.763Z</time></trkpt><trkpt lat="45.5474267" lon="10.8668767"><ele>445.6</ele><time>2026-04-26T10:17:46.762Z</time></trkpt><trkpt lat="45.5474483" lon="10.866975"><ele>443.4</ele><time>2026-04-26T10:17:47.762Z</time></trkpt><trkpt lat="45.5474583" lon="10.8671167"><ele>441.2</ele><time>2026-04-26T10:17:49.762Z</time></trkpt><trkpt lat="45.5474067" lon="10.86721"><ele>439.0</ele><time>2026-04-26T10:17:51.762Z</time></trkpt><trkpt lat="45.547235" lon="10.86718"><ele>439.0</ele><time>2026-04-26T10:17:53.762Z</time></trkpt><trkpt lat="45.547075" lon="10.8671017"><ele>439.0</ele><time>2026-04-26T10:17:54.762Z</time></trkpt><trkpt lat="45.54689" lon="10.8670033"><ele>439.0</ele><time>2026-04-26T10:17:55.762Z</time></trkpt><trkpt lat="45.546715" lon="10.866905"><ele>440.6666666666667</ele><time>2026-04-26T10:17:56.763Z</time></trkpt><trkpt lat="45.5465417" lon="10.8668183"><ele>442.33333333333337</ele><time>2026-04-26T10:17:57.762Z</time></trkpt><trkpt lat="45.5463817" lon="10.8667283"><ele>444.0</ele><time>2026-04-26T10:17:58.762Z</time></trkpt><trkpt lat="45.546225" lon="10.8666433"><ele>439.0</ele><time>2026-04-26T10:17:59.762Z</time></trkpt><trkpt lat="45.546075" lon="10.86655"><ele>434.0</ele><time>2026-04-26T10:18:00.762Z</time></trkpt><trkpt lat="45.5459333" lon="10.866465"><ele>429.0</ele><time>2026-04-26T10:18:01.762Z</time></trkpt><trkpt lat="45.54579" lon="10.8663733"><ele>429.0</ele><time>2026-04-26T10:18:02.762Z</time></trkpt><trkpt lat="45.5456483" lon="10.8662767"><ele>429.0</ele><time>2026-04-26T10:18:03.762Z</time></trkpt><trkpt lat="45.5455233" lon="10.8661833"><ele>429.0</ele><time>2026-04-26T10:18:04.762Z</time></trkpt><trkpt lat="45.545395" lon="10.866075"><ele>429.0</ele><time>2026-04-26T10:18:05.762Z</time></trkpt><trkpt lat="45.5452617" lon="10.86594"><ele>426.66666666666663</ele><time>2026-04-26T10:18:06.762Z</time></trkpt><trkpt lat="45.54515" lon="10.865775"><ele>424.3333333333333</ele><time>2026-04-26T10:18:07.762Z</time></trkpt><trkpt lat="45.545065" lon="10.865615"><ele>422.0</ele><time>2026-04-26T10:18:08.762Z</time></trkpt><trkpt lat="45.5449717" lon="10.8654433"><ele>422.0</ele><time>2026-04-26T10:18:09.762Z</time></trkpt><trkpt lat="45.5448717" lon="10.8652883"><ele>422.0</ele><time>2026-04-26T10:18:10.762Z</time></trkpt><trkpt lat="45.544785" lon="10.8651133"><ele>422.0</ele><time>2026-04-26T10:18:11.762Z</time></trkpt><trkpt lat="45.544715" lon="10.8649867"><ele>422.0</ele><time>2026-04-26T10:18:12.762Z</time></trkpt><trkpt lat="45.54463" lon="10.864885"><ele>419.25</ele><time>2026-04-26T10:18:13.763Z</time></trkpt><trkpt lat="45.5445317" lon="10.8647917"><ele>416.5</ele><time>2026-04-26T10:18:14.762Z</time></trkpt><trkpt lat="45.5444017" lon="10.8646933"><ele>413.75</ele><time>2026-04-26T10:18:15.762Z</time></trkpt><trkpt lat="45.54427" lon="10.8646233"><ele>411.0</ele><time>2026-04-26T10:18:16.763Z</time></trkpt><trkpt lat="45.5441367" lon="10.8645783"><ele>411.0</ele><time>2026-04-26T10:18:17.762Z</time></trkpt><trkpt lat="45.54402" lon="10.8645667"><ele>411.0</ele><time>2026-04-26T10:18:18.763Z</time></trkpt><trkpt lat="45.5439233" lon="10.8646017"><ele>411.0</ele><time>2026-04-26T10:18:19.762Z</time></trkpt><trkpt lat="45.543825" lon="10.8646783"><ele>411.0</ele><time>2026-04-26T10:18:20.763Z</time></trkpt><trkpt lat="45.54377" lon="10.8647617"><ele>411.0</ele><time>2026-04-26T10:18:21.763Z</time></trkpt><trkpt lat="45.5437" lon="10.8647983"><ele>411.0</ele><time>2026-04-26T10:18:22.762Z</time></trkpt><trkpt lat="45.5437583" lon="10.8647517"><ele>411.0</ele><time>2026-04-26T10:18:26.762Z</time></trkpt><trkpt lat="45.5438217" lon="10.8647117"><ele>411.0</ele><time>2026-04-26T10:18:28.763Z</time></trkpt><trkpt lat="45.5438717" lon="10.864655"><ele>411.0</ele><time>2026-04-26T10:18:31.762Z</time></trkpt><trkpt lat="45.543805" lon="10.8646017"><ele>411.0</ele><time>2026-04-26T10:18:38.763Z</time></trkpt><trkpt lat="45.5437333" lon="10.8645867"><ele>411.0</ele><time>2026-04-26T10:18:40.762Z</time></trkpt><trkpt lat="45.543665" lon="10.864585"><ele>411.0</ele><time>2026-04-26T10:18:42.762Z</time></trkpt><trkpt lat="45.5436017" lon="10.864635"><ele>408.6</ele><time>2026-04-26T10:18:44.762Z</time></trkpt><trkpt lat="45.5435183" lon="10.8646783"><ele>406.20000000000005</ele><time>2026-04-26T10:18:46.762Z</time></trkpt><trkpt lat="45.5434533" lon="10.8647067"><ele>403.79999999999995</ele><time>2026-04-26T10:18:47.763Z</time></trkpt><trkpt lat="45.5433217" lon="10.8647383"><ele>401.4</ele><time>2026-04-26T10:18:49.763Z</time></trkpt><trkpt lat="45.54326" lon="10.8647567"><ele>399.0</ele><time>2026-04-26T10:18:50.762Z</time></trkpt><trkpt lat="45.543135" lon="10.8648117"><ele>399.0</ele><time>2026-04-26T10:18:52.762Z</time></trkpt><trkpt lat="45.543065" lon="10.86484"><ele>399.0</ele><time>2026-04-26T10:18:53.762Z</time></trkpt><trkpt lat="45.542945" lon="10.8649133"><ele>399.0</ele><time>2026-04-26T10:18:55.762Z</time></trkpt><trkpt lat="45.5428783" lon="10.86499"><ele>399.0</ele><time>2026-04-26T10:18:56.763Z</time></trkpt><trkpt lat="45.5427967" lon="10.8650283"><ele>399.0</ele><time>2026-04-26T10:18:57.762Z</time></trkpt><trkpt lat="45.5427233" lon="10.8650533"><ele>396.7142857142857</ele><time>2026-04-26T10:18:58.762Z</time></trkpt><trkpt lat="45.54265" lon="10.8650917"><ele>394.42857142857144</ele><time>2026-04-26T10:18:59.762Z</time></trkpt><trkpt lat="45.54258" lon="10.8651217"><ele>392.1428571428571</ele><time>2026-04-26T10:19:00.762Z</time></trkpt><trkpt lat="45.5425033" lon="10.8651433"><ele>389.8571428571429</ele><time>2026-04-26T10:19:01.762Z</time></trkpt><trkpt lat="45.5424283" lon="10.86518"><ele>387.57142857142856</ele><time>2026-04-26T10:19:02.763Z</time></trkpt><trkpt lat="45.5423633" lon="10.8652117"><ele>385.2857142857143</ele><time>2026-04-26T10:19:03.762Z</time></trkpt><trkpt lat="45.5423" lon="10.8652417"><ele>383.0</ele><time>2026-04-26T10:19:04.762Z</time></trkpt><trkpt lat="45.5422417" lon="10.8652817"><ele>383.0</ele><time>2026-04-26T10:19:05.762Z</time></trkpt><trkpt lat="45.5421283" lon="10.8653467"><ele>383.0</ele><time>2026-04-26T10:19:07.762Z</time></trkpt><trkpt lat="45.5420217" lon="10.8654217"><ele>383.0</ele><time>2026-04-26T10:19:09.762Z</time></trkpt><trkpt lat="45.54192" lon="10.8654867"><ele>383.0</ele><time>2026-04-26T10:19:11.762Z</time></trkpt><trkpt lat="45.5418067" lon="10.865505"><ele>380.4</ele><time>2026-04-26T10:19:13.763Z</time></trkpt><trkpt lat="45.5417033" lon="10.8655467"><ele>377.79999999999995</ele><time>2026-04-26T10:19:15.761Z</time></trkpt><trkpt lat="45.5416033" lon="10.865585"><ele>375.2</ele><time>2026-04-26T10:19:17.762Z</time></trkpt><trkpt lat="45.5415133" lon="10.865605"><ele>372.6</ele><time>2026-04-26T10:19:19.761Z</time></trkpt><trkpt lat="45.54144" lon="10.8656267"><ele>370.0</ele><time>2026-04-26T10:19:21.762Z</time></trkpt><trkpt lat="45.5413667" lon="10.8656517"><ele>370.0</ele><time>2026-04-26T10:19:23.761Z</time></trkpt><trkpt lat="45.541295" lon="10.8657117"><ele>370.0</ele><time>2026-04-26T10:19:25.761Z</time></trkpt><trkpt lat="45.5412233" lon="10.8658083"><ele>370.0</ele><time>2026-04-26T10:19:27.762Z</time></trkpt><trkpt lat="45.541165" lon="10.8659183"><ele>370.0</ele><time>2026-04-26T10:19:29.761Z</time></trkpt><trkpt lat="45.5411033" lon="10.8660517"><ele>370.0</ele><time>2026-04-26T10:19:31.761Z</time></trkpt><trkpt lat="45.54102" lon="10.86618"><ele>366.66666666666663</ele><time>2026-04-26T10:19:33.761Z</time></trkpt><trkpt lat="45.5409783" lon="10.8662533"><ele>363.3333333333333</ele><time>2026-04-26T10:19:34.761Z</time></trkpt><trkpt lat="45.5409083" lon="10.8663733"><ele>360.0</ele><time>2026-04-26T10:19:36.762Z</time></trkpt><trkpt lat="45.5408317" lon="10.866495"><ele>356.6666666666667</ele><time>2026-04-26T10:19:38.761Z</time></trkpt><trkpt lat="45.54078" lon="10.86655"><ele>353.33333333333337</ele><time>2026-04-26T10:19:39.761Z</time></trkpt><trkpt lat="45.5407167" lon="10.866605"><ele>350.0</ele><time>2026-04-26T10:19:40.761Z</time></trkpt><trkpt lat="45.540635" lon="10.866675"><ele>350.0</ele><time>2026-04-26T10:19:41.761Z</time></trkpt><trkpt lat="45.5405367" lon="10.8667383"><ele>350.0</ele><time>2026-04-26T10:19:42.761Z</time></trkpt><trkpt lat="45.5404333" lon="10.8668"><ele>350.0</ele><time>2026-04-26T10:19:43.761Z</time></trkpt><trkpt lat="45.5403317" lon="10.8668767"><ele>350.0</ele><time>2026-04-26T10:19:44.761Z</time></trkpt><trkpt lat="45.540245" lon="10.86694"><ele>350.0</ele><time>2026-04-26T10:19:45.761Z</time></trkpt><trkpt lat="45.540155" lon="10.8669733"><ele>345.33333333333337</ele><time>2026-04-26T10:19:46.761Z</time></trkpt><trkpt lat="45.5400583" lon="10.86702"><ele>340.6666666666667</ele><time>2026-04-26T10:19:47.761Z</time></trkpt><trkpt lat="45.539985" lon="10.8670683"><ele>336.0</ele><time>2026-04-26T10:19:48.762Z</time></trkpt><trkpt lat="45.5399133" lon="10.8670983"><ele>331.3333333333333</ele><time>2026-04-26T10:19:49.761Z</time></trkpt><trkpt lat="45.53985" lon="10.8671167"><ele>326.66666666666663</ele><time>2026-04-26T10:19:50.762Z</time></trkpt><trkpt lat="45.5397633" lon="10.8671283"><ele>322.0</ele><time>2026-04-26T10:19:52.761Z</time></trkpt><trkpt lat="45.53967" lon="10.86714"><ele>322.0</ele><time>2026-04-26T10:19:54.762Z</time></trkpt><trkpt lat="45.539605" lon="10.8671483"><ele>322.0</ele><time>2026-04-26T10:19:55.761Z</time></trkpt><trkpt lat="45.5395367" lon="10.8671583"><ele>322.0</ele><time>2026-04-26T10:19:56.761Z</time></trkpt><trkpt lat="45.53947" lon="10.8671717"><ele>322.0</ele><time>2026-04-26T10:19:57.761Z</time></trkpt><trkpt lat="45.5394" lon="10.867175"><ele>322.0</ele><time>2026-04-26T10:19:58.762Z</time></trkpt><trkpt lat="45.53931" lon="10.8671883"><ele>322.0</ele><time>2026-04-26T10:19:59.761Z</time></trkpt><trkpt lat="45.539215" lon="10.8671983"><ele>320.0</ele><time>2026-04-26T10:20:00.761Z</time></trkpt><trkpt lat="45.5391167" lon="10.867205"><ele>318.0</ele><time>2026-04-26T10:20:01.761Z</time></trkpt><trkpt lat="45.5390167" lon="10.8672183"><ele>316.0</ele><time>2026-04-26T10:20:02.761Z</time></trkpt><trkpt lat="45.53892" lon="10.8672283"><ele>314.0</ele><time>2026-04-26T10:20:03.761Z</time></trkpt><trkpt lat="45.53882" lon="10.8672417"><ele>312.0</ele><time>2026-04-26T10:20:04.762Z</time></trkpt><trkpt lat="45.53871" lon="10.8672617"><ele>310.2</ele><time>2026-04-26T10:20:05.762Z</time></trkpt><trkpt lat="45.5386067" lon="10.8672783"><ele>308.4</ele><time>2026-04-26T10:20:06.762Z</time></trkpt><trkpt lat="45.5385" lon="10.8672917"><ele>306.6</ele><time>2026-04-26T10:20:07.762Z</time></trkpt><trkpt lat="45.53839" lon="10.867325"><ele>304.8</ele><time>2026-04-26T10:20:08.761Z</time></trkpt><trkpt lat="45.53828" lon="10.8673567"><ele>303.0</ele><time>2026-04-26T10:20:09.762Z</time></trkpt><trkpt lat="45.5381633" lon="10.8673817"><ele>303.0</ele><time>2026-04-26T10:20:10.761Z</time></trkpt><trkpt lat="45.538045" lon="10.867405"><ele>303.0</ele><time>2026-04-26T10:20:11.761Z</time></trkpt><trkpt lat="45.5379317" lon="10.867435"><ele>303.0</ele><time>2026-04-26T10:20:12.761Z</time></trkpt><trkpt lat="45.5378167" lon="10.8674533"><ele>303.0</ele><time>2026-04-26T10:20:13.761Z</time></trkpt><trkpt lat="45.5377033" lon="10.8674717"><ele>300.5</ele><time>2026-04-26T10:20:14.761Z</time></trkpt><trkpt lat="45.53759" lon="10.8674917"><ele>298.0</ele><time>2026-04-26T10:20:15.761Z</time></trkpt><trkpt lat="45.53747" lon="10.8675033"><ele>295.5</ele><time>2026-04-26T10:20:16.761Z</time></trkpt><trkpt lat="45.5373417" lon="10.867515"><ele>293.0</ele><time>2026-04-26T10:20:17.762Z</time></trkpt><trkpt lat="45.5372183" lon="10.867545"><ele>293.0</ele><time>2026-04-26T10:20:18.761Z</time></trkpt><trkpt lat="45.5370933" lon="10.867565"><ele>293.0</ele><time>2026-04-26T10:20:19.762Z</time></trkpt><trkpt lat="45.5369633" lon="10.8675933"><ele>293.0</ele><time>2026-04-26T10:20:20.761Z</time></trkpt><trkpt lat="45.536845" lon="10.8676133"><ele>293.0</ele><time>2026-04-26T10:20:21.761Z</time></trkpt><trkpt lat="45.5367183" lon="10.8676283"><ele>288.25</ele><time>2026-04-26T10:20:22.762Z</time></trkpt><trkpt lat="45.53659" lon="10.8676467"><ele>283.5</ele><time>2026-04-26T10:20:23.761Z</time></trkpt><trkpt lat="45.5364683" lon="10.867685"><ele>278.75</ele><time>2026-04-26T10:20:24.761Z</time></trkpt><trkpt lat="45.5363667" lon="10.8677117"><ele>274.0</ele><time>2026-04-26T10:20:25.761Z</time></trkpt><trkpt lat="45.5362767" lon="10.86776"><ele>273.4</ele><time>2026-04-26T10:20:26.761Z</time></trkpt><trkpt lat="45.5362067" lon="10.86779"><ele>272.79999999999995</ele><time>2026-04-26T10:20:27.762Z</time></trkpt><trkpt lat="45.5361383" lon="10.8678017"><ele>272.20000000000005</ele><time>2026-04-26T10:20:28.761Z</time></trkpt><trkpt lat="45.5360767" lon="10.8678217"><ele>271.6</ele><time>2026-04-26T10:20:29.762Z</time></trkpt><trkpt lat="45.5359533" lon="10.86788"><ele>271.0</ele><time>2026-04-26T10:20:31.762Z</time></trkpt><trkpt lat="45.5358317" lon="10.867965"><ele>271.0</ele><time>2026-04-26T10:20:33.761Z</time></trkpt><trkpt lat="45.5357633" lon="10.8680117"><ele>271.0</ele><time>2026-04-26T10:20:34.762Z</time></trkpt><trkpt lat="45.5356817" lon="10.8680667"><ele>271.0</ele><time>2026-04-26T10:20:35.761Z</time></trkpt><trkpt lat="45.53559" lon="10.8681133"><ele>271.0</ele><time>2026-04-26T10:20:36.761Z</time></trkpt><trkpt lat="45.5354983" lon="10.868165"><ele>271.0</ele><time>2026-04-26T10:20:37.761Z</time></trkpt><trkpt lat="45.5354017" lon="10.8682167"><ele>269.2</ele><time>2026-04-26T10:20:38.761Z</time></trkpt><trkpt lat="45.5353033" lon="10.86826"><ele>267.40000000000003</ele><time>2026-04-26T10:20:39.762Z</time></trkpt><trkpt lat="45.53521" lon="10.8683167"><ele>265.6</ele><time>2026-04-26T10:20:40.761Z</time></trkpt><trkpt lat="45.53511" lon="10.8683717"><ele>263.8</ele><time>2026-04-26T10:20:41.761Z</time></trkpt><trkpt lat="45.535015" lon="10.86842"><ele>262.0</ele><time>2026-04-26T10:20:42.761Z</time></trkpt><trkpt lat="45.53491" lon="10.8684617"><ele>259.25</ele><time>2026-04-26T10:20:43.761Z</time></trkpt><trkpt lat="45.5347967" lon="10.868515"><ele>256.5</ele><time>2026-04-26T10:20:44.761Z</time></trkpt><trkpt lat="45.5346783" lon="10.8685733"><ele>253.75</ele><time>2026-04-26T10:20:45.761Z</time></trkpt><trkpt lat="45.5345583" lon="10.8686283"><ele>251.0</ele><time>2026-04-26T10:20:46.762Z</time></trkpt><trkpt lat="45.5344383" lon="10.8686767"><ele>249.5</ele><time>2026-04-26T10:20:47.761Z</time></trkpt><trkpt lat="45.534315" lon="10.8687233"><ele>248.0</ele><time>2026-04-26T10:20:48.762Z</time></trkpt><trkpt lat="45.5341933" lon="10.868765"><ele>246.5</ele><time>2026-04-26T10:20:49.761Z</time></trkpt><trkpt lat="45.534085" lon="10.8687917"><ele>245.0</ele><time>2026-04-26T10:20:50.761Z</time></trkpt><trkpt lat="45.5339733" lon="10.86881"><ele>245.0</ele><time>2026-04-26T10:20:51.761Z</time></trkpt><trkpt lat="45.5338867" lon="10.8688083"><ele>245.0</ele><time>2026-04-26T10:20:52.762Z</time></trkpt><trkpt lat="45.5338117" lon="10.8687883"><ele>245.0</ele><time>2026-04-26T10:20:53.761Z</time></trkpt><trkpt lat="45.5337167" lon="10.868685"><ele>245.0</ele><time>2026-04-26T10:20:55.761Z</time></trkpt><trkpt lat="45.533685" lon="10.8685783"><ele>245.0</ele><time>2026-04-26T10:20:56.761Z</time></trkpt><trkpt lat="45.53366" lon="10.8684217"><ele>244.75</ele><time>2026-04-26T10:20:57.761Z</time></trkpt><trkpt lat="45.53364" lon="10.8682333"><ele>244.5</ele><time>2026-04-26T10:20:58.761Z</time></trkpt><trkpt lat="45.5336367" lon="10.8680567"><ele>244.25</ele><time>2026-04-26T10:20:59.762Z</time></trkpt><trkpt lat="45.5336433" lon="10.8678983"><ele>244.0</ele><time>2026-04-26T10:21:00.761Z</time></trkpt><trkpt lat="45.5336517" lon="10.8677467"><ele>243.39999999999998</ele><time>2026-04-26T10:21:01.761Z</time></trkpt><trkpt lat="45.5336617" lon="10.8675983"><ele>242.79999999999998</ele><time>2026-04-26T10:21:02.761Z</time></trkpt><trkpt lat="45.5336783" lon="10.86746"><ele>242.20000000000002</ele><time>2026-04-26T10:21:03.762Z</time></trkpt><trkpt lat="45.5337133" lon="10.8673467"><ele>241.60000000000002</ele><time>2026-04-26T10:21:04.761Z</time></trkpt><trkpt lat="45.5337567" lon="10.8672217"><ele>241.0</ele><time>2026-04-26T10:21:05.762Z</time></trkpt><trkpt lat="45.5338167" lon="10.8671033"><ele>241.8</ele><time>2026-04-26T10:21:06.761Z</time></trkpt><trkpt lat="45.5338917" lon="10.8669933"><ele>242.60000000000002</ele><time>2026-04-26T10:21:07.761Z</time></trkpt><trkpt lat="45.53398" lon="10.8668917"><ele>243.4</ele><time>2026-04-26T10:21:08.762Z</time></trkpt><trkpt lat="45.5340917" lon="10.86682"><ele>244.2</ele><time>2026-04-26T10:21:09.761Z</time></trkpt><trkpt lat="45.534175" lon="10.866745"><ele>245.0</ele><time>2026-04-26T10:21:10.762Z</time></trkpt><trkpt lat="45.5342517" lon="10.8666633"><ele>245.00000000000003</ele><time>2026-04-26T10:21:11.761Z</time></trkpt><trkpt lat="45.5342983" lon="10.8665733"><ele>245.0</ele><time>2026-04-26T10:21:12.761Z</time></trkpt><trkpt lat="45.5342933" lon="10.8664617"><ele>245.0</ele><time>2026-04-26T10:21:13.761Z</time></trkpt><trkpt lat="45.5342833" lon="10.8663583"><ele>245.0</ele><time>2026-04-26T10:21:14.761Z</time></trkpt><trkpt lat="45.5342433" lon="10.8662483"><ele>245.00000000000003</ele><time>2026-04-26T10:21:15.761Z</time></trkpt><trkpt lat="45.53418" lon="10.8661333"><ele>245.0</ele><time>2026-04-26T10:21:16.761Z</time></trkpt><trkpt lat="45.534025" lon="10.8659683"><ele>244.33333333333334</ele><time>2026-04-26T10:21:17.761Z</time></trkpt><trkpt lat="45.5338867" lon="10.86583"><ele>243.66666666666669</ele><time>2026-04-26T10:21:18.761Z</time></trkpt><trkpt lat="45.5337067" lon="10.86567"><ele>243.0</ele><time>2026-04-26T10:21:19.761Z</time></trkpt><trkpt lat="45.533455" lon="10.8654833"><ele>239.25</ele><time>2026-04-26T10:21:20.762Z</time></trkpt><trkpt lat="45.5333033" lon="10.8653783"><ele>235.5</ele><time>2026-04-26T10:21:21.761Z</time></trkpt><trkpt lat="45.5331917" lon="10.8652917"><ele>231.75</ele><time>2026-04-26T10:21:22.762Z</time></trkpt><trkpt lat="45.5330833" lon="10.8652017"><ele>228.0</ele><time>2026-04-26T10:21:23.761Z</time></trkpt><trkpt lat="45.532985" lon="10.8651383"><ele>226.25</ele><time>2026-04-26T10:21:24.761Z</time></trkpt><trkpt lat="45.5328567" lon="10.86506"><ele>224.5</ele><time>2026-04-26T10:21:25.761Z</time></trkpt><trkpt lat="45.5327083" lon="10.8649967"><ele>222.75</ele><time>2026-04-26T10:21:26.761Z</time></trkpt><trkpt lat="45.53256" lon="10.8649367"><ele>221.0</ele><time>2026-04-26T10:21:27.761Z</time></trkpt><trkpt lat="45.5324217" lon="10.8648933"><ele>221.0</ele><time>2026-04-26T10:21:28.761Z</time></trkpt><trkpt lat="45.532285" lon="10.864855"><ele>221.0</ele><time>2026-04-26T10:21:29.762Z</time></trkpt><trkpt lat="45.532165" lon="10.8648283"><ele>221.0</ele><time>2026-04-26T10:21:30.761Z</time></trkpt><trkpt lat="45.5320517" lon="10.8647917"><ele>221.0</ele><time>2026-04-26T10:21:31.762Z</time></trkpt><trkpt lat="45.5319433" lon="10.8647233"><ele>220.0</ele><time>2026-04-26T10:21:32.762Z</time></trkpt><trkpt lat="45.531835" lon="10.86466"><ele>219.0</ele><time>2026-04-26T10:21:33.762Z</time></trkpt><trkpt lat="45.5317233" lon="10.8645933"><ele>218.0</ele><time>2026-04-26T10:21:34.761Z</time></trkpt><trkpt lat="45.53161" lon="10.8645183"><ele>217.0</ele><time>2026-04-26T10:21:35.762Z</time></trkpt><trkpt lat="45.5314867" lon="10.8644333"><ele>217.0</ele><time>2026-04-26T10:21:36.762Z</time></trkpt><trkpt lat="45.5313483" lon="10.8643317"><ele>217.0</ele><time>2026-04-26T10:21:37.761Z</time></trkpt><trkpt lat="45.53121" lon="10.86422"><ele>217.0</ele><time>2026-04-26T10:21:38.761Z</time></trkpt><trkpt lat="45.531075" lon="10.8640933"><ele>214.0</ele><time>2026-04-26T10:21:39.761Z</time></trkpt><trkpt lat="45.53095" lon="10.86396"><ele>211.0</ele><time>2026-04-26T10:21:40.761Z</time></trkpt><trkpt lat="45.53083" lon="10.8638117"><ele>208.0</ele><time>2026-04-26T10:21:41.762Z</time></trkpt><trkpt lat="45.53072" lon="10.863655"><ele>208.0</ele><time>2026-04-26T10:21:42.761Z</time></trkpt><trkpt lat="45.5306233" lon="10.8634967"><ele>208.0</ele><time>2026-04-26T10:21:43.761Z</time></trkpt><trkpt lat="45.5305417" lon="10.863345"><ele>208.0</ele><time>2026-04-26T10:21:44.761Z</time></trkpt><trkpt lat="45.5305" lon="10.8632067"><ele>208.0</ele><time>2026-04-26T10:21:45.762Z</time></trkpt><trkpt lat="45.5305017" lon="10.8630783"><ele>206.33333333333331</ele><time>2026-04-26T10:21:46.761Z</time></trkpt><trkpt lat="45.5305933" lon="10.8630017"><ele>204.66666666666666</ele><time>2026-04-26T10:21:47.761Z</time></trkpt><trkpt lat="45.530645" lon="10.8628933"><ele>203.0</ele><time>2026-04-26T10:21:48.761Z</time></trkpt><trkpt lat="45.5306583" lon="10.8628"><ele>201.33333333333331</ele><time>2026-04-26T10:21:49.761Z</time></trkpt><trkpt lat="45.530645" lon="10.8626967"><ele>199.66666666666666</ele><time>2026-04-26T10:21:50.761Z</time></trkpt><trkpt lat="45.53059" lon="10.8625833"><ele>198.0</ele><time>2026-04-26T10:21:51.761Z</time></trkpt><trkpt lat="45.5305217" lon="10.86252"><ele>197.8</ele><time>2026-04-26T10:21:52.761Z</time></trkpt><trkpt lat="45.5304283" lon="10.862435"><ele>197.60000000000002</ele><time>2026-04-26T10:21:53.761Z</time></trkpt><trkpt lat="45.53033" lon="10.8623833"><ele>197.39999999999998</ele><time>2026-04-26T10:21:54.761Z</time></trkpt><trkpt lat="45.530215" lon="10.862355"><ele>197.2</ele><time>2026-04-26T10:21:55.762Z</time></trkpt><trkpt lat="45.5301183" lon="10.8622967"><ele>197.0</ele><time>2026-04-26T10:21:56.762Z</time></trkpt><trkpt lat="45.5300283" lon="10.8622267"><ele>196.16666666666669</ele><time>2026-04-26T10:21:57.762Z</time></trkpt><trkpt lat="45.5299733" lon="10.8621433"><ele>195.33333333333334</ele><time>2026-04-26T10:21:58.762Z</time></trkpt><trkpt lat="45.5299317" lon="10.86203"><ele>194.5</ele><time>2026-04-26T10:21:59.761Z</time></trkpt><trkpt lat="45.5298933" lon="10.8619283"><ele>193.66666666666669</ele><time>2026-04-26T10:22:00.761Z</time></trkpt><trkpt lat="45.5298517" lon="10.861805"><ele>192.83333333333334</ele><time>2026-04-26T10:22:01.761Z</time></trkpt><trkpt lat="45.5297967" lon="10.8617217"><ele>192.0</ele><time>2026-04-26T10:22:02.761Z</time></trkpt><trkpt lat="45.5297467" lon="10.86164"><ele>192.0</ele><time>2026-04-26T10:22:03.761Z</time></trkpt><trkpt lat="45.52966" lon="10.861515"><ele>192.0</ele><time>2026-04-26T10:22:05.76Z</time></trkpt><trkpt lat="45.529625" lon="10.8614383"><ele>192.0</ele><time>2026-04-26T10:22:06.76Z</time></trkpt><trkpt lat="45.5295917" lon="10.8613083"><ele>192.0</ele><time>2026-04-26T10:22:08.76Z</time></trkpt><trkpt lat="45.5295933" lon="10.86117"><ele>192.0</ele><time>2026-04-26T10:22:10.76Z</time></trkpt><trkpt lat="45.529575" lon="10.8610683"><ele>190.39999999999998</ele><time>2026-04-26T10:22:14.76Z</time></trkpt><trkpt lat="45.5295033" lon="10.86106"><ele>188.79999999999998</ele><time>2026-04-26T10:22:18.76Z</time></trkpt><trkpt lat="45.5294367" lon="10.8612433"><ele>187.2</ele><time>2026-04-26T10:22:39.761Z</time></trkpt><trkpt lat="45.5293633" lon="10.8613717"><ele>185.6</ele><time>2026-04-26T10:22:40.761Z</time></trkpt><trkpt lat="45.529305" lon="10.8614717"><ele>184.0</ele><time>2026-04-26T10:22:41.76Z</time></trkpt><trkpt lat="45.529235" lon="10.8615733"><ele>184.0</ele><time>2026-04-26T10:22:42.76Z</time></trkpt><trkpt lat="45.52914" lon="10.861685"><ele>184.0</ele><time>2026-04-26T10:22:43.761Z</time></trkpt><trkpt lat="45.5290383" lon="10.8617967"><ele>184.0</ele><time>2026-04-26T10:22:44.76Z</time></trkpt><trkpt lat="45.52894" lon="10.8619233"><ele>184.0</ele><time>2026-04-26T10:22:45.76Z</time></trkpt><trkpt lat="45.5288367" lon="10.8620633"><ele>183.75</ele><time>2026-04-26T10:22:46.76Z</time></trkpt><trkpt lat="45.5287417" lon="10.8622067"><ele>183.5</ele><time>2026-04-26T10:22:47.76Z</time></trkpt><trkpt lat="45.52867" lon="10.8623567"><ele>183.25</ele><time>2026-04-26T10:22:48.76Z</time></trkpt><trkpt lat="45.528595" lon="10.8624833"><ele>183.0</ele><time>2026-04-26T10:22:49.761Z</time></trkpt><trkpt lat="45.5285167" lon="10.862595"><ele>181.75</ele><time>2026-04-26T10:22:50.76Z</time></trkpt><trkpt lat="45.52843" lon="10.8626967"><ele>180.5</ele><time>2026-04-26T10:22:51.761Z</time></trkpt><trkpt lat="45.5283483" lon="10.86276"><ele>179.25</ele><time>2026-04-26T10:22:52.76Z</time></trkpt><trkpt lat="45.5282183" lon="10.8628767"><ele>178.0</ele><time>2026-04-26T10:22:53.76Z</time></trkpt><trkpt lat="45.5280967" lon="10.8629983"><ele>178.0</ele><time>2026-04-26T10:22:54.76Z</time></trkpt><trkpt lat="45.5279817" lon="10.8631033"><ele>178.0</ele><time>2026-04-26T10:22:55.761Z</time></trkpt><trkpt lat="45.5278717" lon="10.8631817"><ele>178.0</ele><time>2026-04-26T10:22:56.76Z</time></trkpt><trkpt lat="45.52776" lon="10.8632583"><ele>178.0</ele><time>2026-04-26T10:22:57.761Z</time></trkpt><trkpt lat="45.527655" lon="10.8633267"><ele>178.0</ele><time>2026-04-26T10:22:58.76Z</time></trkpt><trkpt lat="45.527545" lon="10.8633933"><ele>178.0</ele><time>2026-04-26T10:22:59.76Z</time></trkpt><trkpt lat="45.527435" lon="10.8634417"><ele>178.0</ele><time>2026-04-26T10:23:00.76Z</time></trkpt><trkpt lat="45.527315" lon="10.863485"><ele>178.0</ele><time>2026-04-26T10:23:01.76Z</time></trkpt><trkpt lat="45.5271933" lon="10.8635117"><ele>176.75</ele><time>2026-04-26T10:23:02.761Z</time></trkpt><trkpt lat="45.5270767" lon="10.8635617"><ele>175.5</ele><time>2026-04-26T10:23:03.761Z</time></trkpt><trkpt lat="45.5269667" lon="10.8635817"><ele>174.25</ele><time>2026-04-26T10:23:04.76Z</time></trkpt><trkpt lat="45.526845" lon="10.8636183"><ele>173.0</ele><time>2026-04-26T10:23:05.761Z</time></trkpt><trkpt lat="45.5267233" lon="10.8636533"><ele>171.5</ele><time>2026-04-26T10:23:06.76Z</time></trkpt><trkpt lat="45.5266017" lon="10.8636983"><ele>170.0</ele><time>2026-04-26T10:23:07.761Z</time></trkpt><trkpt lat="45.526485" lon="10.863755"><ele>168.5</ele><time>2026-04-26T10:23:08.76Z</time></trkpt><trkpt lat="45.5263667" lon="10.8638317"><ele>167.0</ele><time>2026-04-26T10:23:09.76Z</time></trkpt><trkpt lat="45.5262583" lon="10.8639167"><ele>165.75</ele><time>2026-04-26T10:23:10.76Z</time></trkpt><trkpt lat="45.52615" lon="10.8640017"><ele>164.5</ele><time>2026-04-26T10:23:11.761Z</time></trkpt><trkpt lat="45.5260433" lon="10.8640833"><ele>163.25</ele><time>2026-04-26T10:23:12.761Z</time></trkpt><trkpt lat="45.5259417" lon="10.8641583"><ele>162.0</ele><time>2026-04-26T10:23:13.76Z</time></trkpt><trkpt lat="45.52584" lon="10.8642183"><ele>161.4</ele><time>2026-04-26T10:23:14.76Z</time></trkpt><trkpt lat="45.5257467" lon="10.8642867"><ele>160.79999999999998</ele><time>2026-04-26T10:23:15.76Z</time></trkpt><trkpt lat="45.52565" lon="10.8643483"><ele>160.2</ele><time>2026-04-26T10:23:16.76Z</time></trkpt><trkpt lat="45.5255633" lon="10.8644133"><ele>159.6</ele><time>2026-04-26T10:23:17.76Z</time></trkpt><trkpt lat="45.5254767" lon="10.86447"><ele>159.0</ele><time>2026-04-26T10:23:18.76Z</time></trkpt><trkpt lat="45.5254" lon="10.8645367"><ele>159.0</ele><time>2026-04-26T10:23:19.761Z</time></trkpt><trkpt lat="45.5253217" lon="10.8645917"><ele>159.0</ele><time>2026-04-26T10:23:20.761Z</time></trkpt><trkpt lat="45.5252467" lon="10.864655"><ele>159.0</ele><time>2026-04-26T10:23:21.761Z</time></trkpt><trkpt lat="45.5251767" lon="10.8647117"><ele>159.0</ele><time>2026-04-26T10:23:22.76Z</time></trkpt><trkpt lat="45.5251133" lon="10.8647633"><ele>159.0</ele><time>2026-04-26T10:23:23.761Z</time></trkpt><trkpt lat="45.5250483" lon="10.864815"><ele>159.0</ele><time>2026-04-26T10:23:24.761Z</time></trkpt><trkpt lat="45.5249883" lon="10.864865"><ele>159.0</ele><time>2026-04-26T10:23:25.76Z</time></trkpt><trkpt lat="45.5248733" lon="10.8649367"><ele>159.0</ele><time>2026-04-26T10:23:27.761Z</time></trkpt><trkpt lat="45.52481" lon="10.864985"><ele>159.0</ele><time>2026-04-26T10:23:28.76Z</time></trkpt><trkpt lat="45.5247367" lon="10.8650417"><ele>159.0</ele><time>2026-04-26T10:23:29.76Z</time></trkpt><trkpt lat="45.52465" lon="10.86511"><ele>159.0</ele><time>2026-04-26T10:23:30.761Z</time></trkpt><trkpt lat="45.5245617" lon="10.8651767"><ele>158.0</ele><time>2026-04-26T10:23:31.76Z</time></trkpt><trkpt lat="45.5244683" lon="10.8652417"><ele>157.0</ele><time>2026-04-26T10:23:32.761Z</time></trkpt><trkpt lat="45.524375" lon="10.8653133"><ele>156.0</ele><time>2026-04-26T10:23:33.76Z</time></trkpt><trkpt lat="45.524275" lon="10.86538"><ele>155.0</ele><time>2026-04-26T10:23:34.761Z</time></trkpt><trkpt lat="45.5241683" lon="10.86545"><ele>154.0</ele><time>2026-04-26T10:23:35.76Z</time></trkpt><trkpt lat="45.5240683" lon="10.865525"><ele>154.0</ele><time>2026-04-26T10:23:36.76Z</time></trkpt><trkpt lat="45.5239717" lon="10.8655967"><ele>154.0</ele><time>2026-04-26T10:23:37.761Z</time></trkpt><trkpt lat="45.52387" lon="10.8656667"><ele>154.0</ele><time>2026-04-26T10:23:38.76Z</time></trkpt><trkpt lat="45.5237733" lon="10.8657383"><ele>154.0</ele><time>2026-04-26T10:23:39.761Z</time></trkpt><trkpt lat="45.5236833" lon="10.86581"><ele>154.0</ele><time>2026-04-26T10:23:40.761Z</time></trkpt><trkpt lat="45.523595" lon="10.8658717"><ele>153.5</ele><time>2026-04-26T10:23:41.761Z</time></trkpt><trkpt lat="45.5235" lon="10.8659233"><ele>153.0</ele><time>2026-04-26T10:23:42.76Z</time></trkpt><trkpt lat="45.5234167" lon="10.8659833"><ele>152.5</ele><time>2026-04-26T10:23:43.761Z</time></trkpt><trkpt lat="45.5233417" lon="10.8660383"><ele>152.0</ele><time>2026-04-26T10:23:44.76Z</time></trkpt><trkpt lat="45.5232833" lon="10.8660917"><ele>151.5</ele><time>2026-04-26T10:23:45.761Z</time></trkpt><trkpt lat="45.52321" lon="10.8661483"><ele>151.0</ele><time>2026-04-26T10:23:46.76Z</time></trkpt><trkpt lat="45.5231033" lon="10.8661983"><ele>151.0</ele><time>2026-04-26T10:23:48.761Z</time></trkpt><trkpt lat="45.5230283" lon="10.8661933"><ele>151.0</ele><time>2026-04-26T10:23:50.76Z</time></trkpt><trkpt lat="45.5229617" lon="10.866075"><ele>151.0</ele><time>2026-04-26T10:23:52.76Z</time></trkpt><trkpt lat="45.5229317" lon="10.86594"><ele>151.0</ele><time>2026-04-26T10:23:53.76Z</time></trkpt><trkpt lat="45.5229067" lon="10.8657617"><ele>151.0</ele><time>2026-04-26T10:23:54.761Z</time></trkpt><trkpt lat="45.522865" lon="10.8655567"><ele>150.33333333333334</ele><time>2026-04-26T10:23:55.76Z</time></trkpt><trkpt lat="45.5228083" lon="10.8653317"><ele>149.66666666666666</ele><time>2026-04-26T10:23:56.761Z</time></trkpt><trkpt lat="45.5227433" lon="10.8651"><ele>149.0</ele><time>2026-04-26T10:23:57.76Z</time></trkpt><trkpt lat="45.522655" lon="10.8648367"><ele>148.33333333333331</ele><time>2026-04-26T10:23:58.76Z</time></trkpt><trkpt lat="45.5225683" lon="10.864585"><ele>147.66666666666666</ele><time>2026-04-26T10:23:59.76Z</time></trkpt><trkpt lat="45.5224767" lon="10.8643267"><ele>147.0</ele><time>2026-04-26T10:24:00.76Z</time></trkpt><trkpt lat="45.5223833" lon="10.86407"><ele>147.33333333333334</ele><time>2026-04-26T10:24:01.761Z</time></trkpt><trkpt lat="45.5223067" lon="10.8638267"><ele>147.66666666666669</ele><time>2026-04-26T10:24:02.761Z</time></trkpt><trkpt lat="45.5222383" lon="10.8635867"><ele>148.0</ele><time>2026-04-26T10:24:03.76Z</time></trkpt><trkpt lat="45.5221767" lon="10.8633467"><ele>148.0</ele><time>2026-04-26T10:24:04.761Z</time></trkpt><trkpt lat="45.5221217" lon="10.863115"><ele>148.0</ele><time>2026-04-26T10:24:05.761Z</time></trkpt><trkpt lat="45.5220767" lon="10.862875"><ele>148.0</ele><time>2026-04-26T10:24:06.76Z</time></trkpt><trkpt lat="45.5220383" lon="10.8626383"><ele>145.66666666666669</ele><time>2026-04-26T10:24:07.761Z</time></trkpt><trkpt lat="45.5219983" lon="10.8624217"><ele>143.33333333333334</ele><time>2026-04-26T10:24:08.761Z</time></trkpt><trkpt lat="45.5219583" lon="10.8621917"><ele>141.0</ele><time>2026-04-26T10:24:09.76Z</time></trkpt><trkpt lat="45.5219167" lon="10.8619533"><ele>141.25</ele><time>2026-04-26T10:24:10.761Z</time></trkpt><trkpt lat="45.5218817" lon="10.8617233"><ele>141.5</ele><time>2026-04-26T10:24:11.76Z</time></trkpt><trkpt lat="45.5218633" lon="10.86152"><ele>141.75</ele><time>2026-04-26T10:24:12.76Z</time></trkpt><trkpt lat="45.5218567" lon="10.8613433"><ele>142.0</ele><time>2026-04-26T10:24:13.76Z</time></trkpt><trkpt lat="45.5218583" lon="10.8611917"><ele>142.0</ele><time>2026-04-26T10:24:14.761Z</time></trkpt><trkpt lat="45.521865" lon="10.86104"><ele>142.0</ele><time>2026-04-26T10:24:15.761Z</time></trkpt><trkpt lat="45.5218733" lon="10.8608717"><ele>142.0</ele><time>2026-04-26T10:24:16.761Z</time></trkpt><trkpt lat="45.5218817" lon="10.860715"><ele>142.0</ele><time>2026-04-26T10:24:17.76Z</time></trkpt><trkpt lat="45.5218967" lon="10.8605767"><ele>142.0</ele><time>2026-04-26T10:24:18.76Z</time></trkpt><trkpt lat="45.5218883" lon="10.8604717"><ele>142.0</ele><time>2026-04-26T10:24:19.761Z</time></trkpt><trkpt lat="45.5218283" lon="10.8605033"><ele>142.0</ele><time>2026-04-26T10:24:22.76Z</time></trkpt><trkpt lat="45.5217933" lon="10.86064"><ele>142.0</ele><time>2026-04-26T10:24:24.76Z</time></trkpt><trkpt lat="45.5218" lon="10.8607583"><ele>142.0</ele><time>2026-04-26T10:24:25.761Z</time></trkpt><trkpt lat="45.5218317" lon="10.8609733"><ele>142.0</ele><time>2026-04-26T10:24:26.761Z</time></trkpt><trkpt lat="45.52185" lon="10.8611617"><ele>142.0</ele><time>2026-04-26T10:24:27.76Z</time></trkpt><trkpt lat="45.5218567" lon="10.8613283"><ele>142.0</ele><time>2026-04-26T10:24:28.76Z</time></trkpt><trkpt lat="45.5218683" lon="10.8614717"><ele>142.0</ele><time>2026-04-26T10:24:29.76Z</time></trkpt><trkpt lat="45.5218817" lon="10.861585"><ele>142.0</ele><time>2026-04-26T10:24:30.76Z</time></trkpt><trkpt lat="45.5218617" lon="10.861675"><ele>142.0</ele><time>2026-04-26T10:24:32.76Z</time></trkpt><trkpt lat="45.5217983" lon="10.8617017"><ele>142.0</ele><time>2026-04-26T10:24:35.761Z</time></trkpt><trkpt lat="45.5216967" lon="10.8617"><ele>142.0</ele><time>2026-04-26T10:24:38.76Z</time></trkpt><trkpt lat="45.5216267" lon="10.8616617"><ele>142.0</ele><time>2026-04-26T10:24:39.76Z</time></trkpt><trkpt lat="45.5215233" lon="10.8616267"><ele>142.0</ele><time>2026-04-26T10:24:40.76Z</time></trkpt><trkpt lat="45.5214083" lon="10.861585"><ele>142.0</ele><time>2026-04-26T10:24:41.76Z</time></trkpt><trkpt lat="45.5212933" lon="10.8615517"><ele>142.0</ele><time>2026-04-26T10:24:42.76Z</time></trkpt><trkpt lat="45.52118" lon="10.861525"><ele>141.0</ele><time>2026-04-26T10:24:43.76Z</time></trkpt><trkpt lat="45.5210583" lon="10.8614967"><ele>140.0</ele><time>2026-04-26T10:24:44.76Z</time></trkpt><trkpt lat="45.520915" lon="10.861455"><ele>139.0</ele><time>2026-04-26T10:24:45.761Z</time></trkpt><trkpt lat="45.5207533" lon="10.8614167"><ele>138.0</ele><time>2026-04-26T10:24:46.761Z</time></trkpt><trkpt lat="45.52059" lon="10.8613783"><ele>138.0</ele><time>2026-04-26T10:24:47.76Z</time></trkpt><trkpt lat="45.5204283" lon="10.8613433"><ele>138.0</ele><time>2026-04-26T10:24:48.761Z</time></trkpt><trkpt lat="45.520275" lon="10.86132"><ele>138.0</ele><time>2026-04-26T10:24:49.761Z</time></trkpt><trkpt lat="45.5201267" lon="10.8612883"><ele>138.0</ele><time>2026-04-26T10:24:50.76Z</time></trkpt><trkpt lat="45.5199783" lon="10.8612517"><ele>138.0</ele><time>2026-04-26T10:24:51.761Z</time></trkpt><trkpt lat="45.51983" lon="10.8612133"><ele>138.0</ele><time>2026-04-26T10:24:52.76Z</time></trkpt><trkpt lat="45.5196767" lon="10.8611583"><ele>137.66666666666666</ele><time>2026-04-26T10:24:53.76Z</time></trkpt><trkpt lat="45.5195133" lon="10.8611167"><ele>137.33333333333331</ele><time>2026-04-26T10:24:54.76Z</time></trkpt><trkpt lat="45.5193617" lon="10.8610433"><ele>137.0</ele><time>2026-04-26T10:24:55.76Z</time></trkpt><trkpt lat="45.519215" lon="10.8609617"><ele>137.66666666666666</ele><time>2026-04-26T10:24:56.759Z</time></trkpt><trkpt lat="45.51907" lon="10.86088"><ele>138.33333333333334</ele><time>2026-04-26T10:24:57.759Z</time></trkpt><trkpt lat="45.51892" lon="10.8607867"><ele>139.0</ele><time>2026-04-26T10:24:58.759Z</time></trkpt><trkpt lat="45.5187733" lon="10.860685"><ele>138.33333333333334</ele><time>2026-04-26T10:24:59.759Z</time></trkpt><trkpt lat="45.51861" lon="10.86056"><ele>137.66666666666666</ele><time>2026-04-26T10:25:00.76Z</time></trkpt><trkpt lat="45.5184633" lon="10.86044"><ele>137.0</ele><time>2026-04-26T10:25:01.76Z</time></trkpt><trkpt lat="45.5183167" lon="10.86031"><ele>137.0</ele><time>2026-04-26T10:25:02.759Z</time></trkpt><trkpt lat="45.518175" lon="10.86019"><ele>137.0</ele><time>2026-04-26T10:25:03.759Z</time></trkpt><trkpt lat="45.51803" lon="10.8600717"><ele>137.0</ele><time>2026-04-26T10:25:04.76Z</time></trkpt><trkpt lat="45.5178817" lon="10.8599583"><ele>136.33333333333331</ele><time>2026-04-26T10:25:05.759Z</time></trkpt><trkpt lat="45.51773" lon="10.8598333"><ele>135.66666666666666</ele><time>2026-04-26T10:25:06.759Z</time></trkpt><trkpt lat="45.5175767" lon="10.8597183"><ele>135.0</ele><time>2026-04-26T10:25:07.759Z</time></trkpt><trkpt lat="45.51743" lon="10.8595983"><ele>135.0</ele><time>2026-04-26T10:25:08.76Z</time></trkpt><trkpt lat="45.5172783" lon="10.8594733"><ele>135.0</ele><time>2026-04-26T10:25:09.76Z</time></trkpt><trkpt lat="45.5171383" lon="10.8593567"><ele>135.0</ele><time>2026-04-26T10:25:10.759Z</time></trkpt><trkpt lat="45.5170117" lon="10.85925"><ele>134.75</ele><time>2026-04-26T10:25:11.759Z</time></trkpt><trkpt lat="45.516915" lon="10.85916"><ele>134.5</ele><time>2026-04-26T10:25:12.759Z</time></trkpt><trkpt lat="45.5168167" lon="10.8590783"><ele>134.25</ele><time>2026-04-26T10:25:13.76Z</time></trkpt><trkpt lat="45.5167083" lon="10.8589667"><ele>134.0</ele><time>2026-04-26T10:25:14.76Z</time></trkpt><trkpt lat="45.5165767" lon="10.8588583"><ele>134.0</ele><time>2026-04-26T10:25:15.76Z</time></trkpt><trkpt lat="45.5164483" lon="10.858765"><ele>134.0</ele><time>2026-04-26T10:25:16.759Z</time></trkpt><trkpt lat="45.5163183" lon="10.858695"><ele>134.0</ele><time>2026-04-26T10:25:17.759Z</time></trkpt><trkpt lat="45.51619" lon="10.858625"><ele>134.0</ele><time>2026-04-26T10:25:18.759Z</time></trkpt><trkpt lat="45.516075" lon="10.8585533"><ele>134.25</ele><time>2026-04-26T10:25:19.759Z</time></trkpt><trkpt lat="45.5159667" lon="10.8584767"><ele>134.5</ele><time>2026-04-26T10:25:20.76Z</time></trkpt><trkpt lat="45.5158583" lon="10.8584067"><ele>134.75</ele><time>2026-04-26T10:25:21.759Z</time></trkpt><trkpt lat="45.515735" lon="10.8583417"><ele>135.0</ele><time>2026-04-26T10:25:22.76Z</time></trkpt><trkpt lat="45.515605" lon="10.8582883"><ele>135.0</ele><time>2026-04-26T10:25:23.76Z</time></trkpt><trkpt lat="45.5154783" lon="10.85822"><ele>135.0</ele><time>2026-04-26T10:25:24.759Z</time></trkpt><trkpt lat="45.515355" lon="10.858145"><ele>135.0</ele><time>2026-04-26T10:25:25.759Z</time></trkpt><trkpt lat="45.515245" lon="10.85805"><ele>135.0</ele><time>2026-04-26T10:25:26.76Z</time></trkpt><trkpt lat="45.5151517" lon="10.85797"><ele>135.0</ele><time>2026-04-26T10:25:27.759Z</time></trkpt><trkpt lat="45.51508" lon="10.8579"><ele>135.0</ele><time>2026-04-26T10:25:28.759Z</time></trkpt><trkpt lat="45.5150183" lon="10.8578433"><ele>135.0</ele><time>2026-04-26T10:25:29.759Z</time></trkpt><trkpt lat="45.51497" lon="10.8577833"><ele>135.0</ele><time>2026-04-26T10:25:30.76Z</time></trkpt><trkpt lat="45.514925" lon="10.8577133"><ele>135.0</ele><time>2026-04-26T10:25:31.759Z</time></trkpt><trkpt lat="45.51488" lon="10.8576183"><ele>135.0</ele><time>2026-04-26T10:25:32.759Z</time></trkpt><trkpt lat="45.5148283" lon="10.8575233"><ele>134.83333333333334</ele><time>2026-04-26T10:25:33.759Z</time></trkpt><trkpt lat="45.514775" lon="10.8574417"><ele>134.66666666666666</ele><time>2026-04-26T10:25:34.76Z</time></trkpt><trkpt lat="45.5147083" lon="10.8573517"><ele>134.5</ele><time>2026-04-26T10:25:35.76Z</time></trkpt><trkpt lat="45.5146417" lon="10.8572683"><ele>134.33333333333331</ele><time>2026-04-26T10:25:36.759Z</time></trkpt><trkpt lat="45.5145717" lon="10.85719"><ele>134.16666666666666</ele><time>2026-04-26T10:25:37.759Z</time></trkpt><trkpt lat="45.5145" lon="10.8571183"><ele>134.0</ele><time>2026-04-26T10:25:38.759Z</time></trkpt><trkpt lat="45.5144117" lon="10.8570183"><ele>134.0</ele><time>2026-04-26T10:25:39.759Z</time></trkpt><trkpt lat="45.5143167" lon="10.856935"><ele>134.0</ele><time>2026-04-26T10:25:40.76Z</time></trkpt><trkpt lat="45.5142217" lon="10.8568417"><ele>134.0</ele><time>2026-04-26T10:25:41.76Z</time></trkpt><trkpt lat="45.5141433" lon="10.8567617"><ele>134.0</ele><time>2026-04-26T10:25:42.759Z</time></trkpt><trkpt lat="45.514065" lon="10.8566667"><ele>134.0</ele><time>2026-04-26T10:25:43.76Z</time></trkpt><trkpt lat="45.5139967" lon="10.8565717"><ele>134.0</ele><time>2026-04-26T10:25:44.759Z</time></trkpt><trkpt lat="45.5139233" lon="10.8564767"><ele>134.0</ele><time>2026-04-26T10:25:45.76Z</time></trkpt><trkpt lat="45.51384" lon="10.8563667"><ele>134.0</ele><time>2026-04-26T10:25:46.759Z</time></trkpt><trkpt lat="45.513755" lon="10.8562617"><ele>134.0</ele><time>2026-04-26T10:25:47.759Z</time></trkpt><trkpt lat="45.5136683" lon="10.856155"><ele>134.0</ele><time>2026-04-26T10:25:48.759Z</time></trkpt><trkpt lat="45.5135817" lon="10.856065"><ele>134.0</ele><time>2026-04-26T10:25:49.759Z</time></trkpt><trkpt lat="45.5134933" lon="10.8559567"><ele>134.0</ele><time>2026-04-26T10:25:50.759Z</time></trkpt><trkpt lat="45.5134067" lon="10.8558517"><ele>134.0</ele><time>2026-04-26T10:25:51.76Z</time></trkpt><trkpt lat="45.5133217" lon="10.8557433"><ele>134.0</ele><time>2026-04-26T10:25:52.76Z</time></trkpt><trkpt lat="45.5132367" lon="10.85564"><ele>134.0</ele><time>2026-04-26T10:25:53.759Z</time></trkpt><trkpt lat="45.513155" lon="10.8555383"><ele>134.0</ele><time>2026-04-26T10:25:54.759Z</time></trkpt><trkpt lat="45.5130817" lon="10.8554483"><ele>134.0</ele><time>2026-04-26T10:25:55.76Z</time></trkpt><trkpt lat="45.5130133" lon="10.8553467"><ele>134.0</ele><time>2026-04-26T10:25:56.759Z</time></trkpt><trkpt lat="45.51294" lon="10.8552433"><ele>134.0</ele><time>2026-04-26T10:25:57.76Z</time></trkpt><trkpt lat="45.51288" lon="10.8551417"><ele>134.16666666666666</ele><time>2026-04-26T10:25:58.759Z</time></trkpt><trkpt lat="45.5128167" lon="10.8550367"><ele>134.33333333333331</ele><time>2026-04-26T10:25:59.759Z</time></trkpt><trkpt lat="45.5127517" lon="10.8549517"><ele>134.5</ele><time>2026-04-26T10:26:00.759Z</time></trkpt><trkpt lat="45.5126983" lon="10.8548833"><ele>134.66666666666666</ele><time>2026-04-26T10:26:01.759Z</time></trkpt><trkpt lat="45.5126467" lon="10.85482"><ele>134.83333333333334</ele><time>2026-04-26T10:26:02.76Z</time></trkpt><trkpt lat="45.5125983" lon="10.85476"><ele>135.0</ele><time>2026-04-26T10:26:03.759Z</time></trkpt><trkpt lat="45.5125317" lon="10.8546483"><ele>135.0</ele><time>2026-04-26T10:26:05.759Z</time></trkpt><trkpt lat="45.5124967" lon="10.8545667"><ele>135.0</ele><time>2026-04-26T10:26:07.759Z</time></trkpt><trkpt lat="45.51247" lon="10.8544833"><ele>135.0</ele><time>2026-04-26T10:26:10.76Z</time></trkpt><trkpt lat="45.5124267" lon="10.8543717"><ele>135.0</ele><time>2026-04-26T10:26:23.759Z</time></trkpt><trkpt lat="45.5123967" lon="10.85426"><ele>135.0</ele><time>2026-04-26T10:26:24.759Z</time></trkpt><trkpt lat="45.512375" lon="10.8541367"><ele>135.0</ele><time>2026-04-26T10:26:25.759Z</time></trkpt><trkpt lat="45.5123533" lon="10.8540033"><ele>134.75</ele><time>2026-04-26T10:26:26.76Z</time></trkpt><trkpt lat="45.5123233" lon="10.8538433"><ele>134.5</ele><time>2026-04-26T10:26:27.76Z</time></trkpt><trkpt lat="45.5122833" lon="10.8536733"><ele>134.25</ele><time>2026-04-26T10:26:28.759Z</time></trkpt><trkpt lat="45.5122433" lon="10.8535117"><ele>134.0</ele><time>2026-04-26T10:26:29.759Z</time></trkpt><trkpt lat="45.512205" lon="10.8533483"><ele>133.8</ele><time>2026-04-26T10:26:30.76Z</time></trkpt><trkpt lat="45.5121667" lon="10.8532"><ele>133.60000000000002</ele><time>2026-04-26T10:26:31.76Z</time></trkpt><trkpt lat="45.5121267" lon="10.853055"><ele>133.4</ele><time>2026-04-26T10:26:32.759Z</time></trkpt><trkpt lat="45.5120833" lon="10.8529183"><ele>133.20000000000002</ele><time>2026-04-26T10:26:33.759Z</time></trkpt><trkpt lat="45.5120317" lon="10.8527983"><ele>133.0</ele><time>2026-04-26T10:26:34.76Z</time></trkpt><trkpt lat="45.5119467" lon="10.8526983"><ele>129.75</ele><time>2026-04-26T10:26:35.759Z</time></trkpt><trkpt lat="45.511835" lon="10.852605"><ele>126.5</ele><time>2026-04-26T10:26:36.76Z</time></trkpt><trkpt lat="45.5117167" lon="10.85252"><ele>123.25</ele><time>2026-04-26T10:26:37.759Z</time></trkpt><trkpt lat="45.5115883" lon="10.8524533"><ele>120.0</ele><time>2026-04-26T10:26:38.76Z</time></trkpt><trkpt lat="45.51142" lon="10.852405"><ele>120.0</ele><time>2026-04-26T10:26:39.76Z</time></trkpt><trkpt lat="45.5112617" lon="10.8523567"><ele>120.0</ele><time>2026-04-26T10:26:40.759Z</time></trkpt><trkpt lat="45.5110917" lon="10.8523033"><ele>120.0</ele><time>2026-04-26T10:26:41.759Z</time></trkpt><trkpt lat="45.5109083" lon="10.8522383"><ele>119.0</ele><time>2026-04-26T10:26:42.76Z</time></trkpt><trkpt lat="45.5107317" lon="10.8521867"><ele>118.0</ele><time>2026-04-26T10:26:43.759Z</time></trkpt><trkpt lat="45.510575" lon="10.8521417"><ele>117.0</ele><time>2026-04-26T10:26:44.759Z</time></trkpt><trkpt lat="45.5104167" lon="10.8520967"><ele>116.66666666666666</ele><time>2026-04-26T10:26:45.759Z</time></trkpt><trkpt lat="45.5102533" lon="10.85203"><ele>116.33333333333333</ele><time>2026-04-26T10:26:46.759Z</time></trkpt><trkpt lat="45.5100967" lon="10.85197"><ele>116.0</ele><time>2026-04-26T10:26:47.759Z</time></trkpt><trkpt lat="45.50994" lon="10.85191"><ele>116.0</ele><time>2026-04-26T10:26:48.76Z</time></trkpt><trkpt lat="45.5097717" lon="10.8518583"><ele>116.0</ele><time>2026-04-26T10:26:49.759Z</time></trkpt><trkpt lat="45.5096033" lon="10.85182"><ele>116.0</ele><time>2026-04-26T10:26:50.759Z</time></trkpt><trkpt lat="45.5094367" lon="10.85176"><ele>115.66666666666666</ele><time>2026-04-26T10:26:51.759Z</time></trkpt><trkpt lat="45.509275" lon="10.8516983"><ele>115.33333333333334</ele><time>2026-04-26T10:26:52.76Z</time></trkpt><trkpt lat="45.5091083" lon="10.8516067"><ele>115.0</ele><time>2026-04-26T10:26:53.76Z</time></trkpt><trkpt lat="45.508945" lon="10.8515217"><ele>115.0</ele><time>2026-04-26T10:26:54.759Z</time></trkpt><trkpt lat="45.5087733" lon="10.8514533"><ele>115.0</ele><time>2026-04-26T10:26:55.759Z</time></trkpt><trkpt lat="45.5086033" lon="10.8513733"><ele>115.0</ele><time>2026-04-26T10:26:56.76Z</time></trkpt><trkpt lat="45.5084433" lon="10.8513133"><ele>116.0</ele><time>2026-04-26T10:26:57.76Z</time></trkpt><trkpt lat="45.50828" lon="10.8512583"><ele>117.0</ele><time>2026-04-26T10:26:58.759Z</time></trkpt><trkpt lat="45.50812" lon="10.8512033"><ele>118.0</ele><time>2026-04-26T10:26:59.759Z</time></trkpt><trkpt lat="45.5079667" lon="10.8511417"><ele>118.0</ele><time>2026-04-26T10:27:00.759Z</time></trkpt><trkpt lat="45.507805" lon="10.8510683"><ele>118.0</ele><time>2026-04-26T10:27:01.76Z</time></trkpt><trkpt lat="45.5076383" lon="10.8509967"><ele>118.0</ele><time>2026-04-26T10:27:02.759Z</time></trkpt><trkpt lat="45.5074667" lon="10.8509333"><ele>118.0</ele><time>2026-04-26T10:27:03.76Z</time></trkpt><trkpt lat="45.5072967" lon="10.8508667"><ele>118.0</ele><time>2026-04-26T10:27:04.759Z</time></trkpt><trkpt lat="45.5071317" lon="10.8507917"><ele>118.0</ele><time>2026-04-26T10:27:05.76Z</time></trkpt><trkpt lat="45.5069717" lon="10.850725"><ele>117.0</ele><time>2026-04-26T10:27:06.76Z</time></trkpt><trkpt lat="45.50682" lon="10.8506633"><ele>116.0</ele><time>2026-04-26T10:27:07.759Z</time></trkpt><trkpt lat="45.506665" lon="10.8505883"><ele>115.0</ele><time>2026-04-26T10:27:08.76Z</time></trkpt><trkpt lat="45.5065133" lon="10.85053"><ele>115.0</ele><time>2026-04-26T10:27:09.76Z</time></trkpt><trkpt lat="45.5063583" lon="10.8504817"><ele>115.0</ele><time>2026-04-26T10:27:10.759Z</time></trkpt><trkpt lat="45.5061917" lon="10.8504167"><ele>115.0</ele><time>2026-04-26T10:27:11.759Z</time></trkpt><trkpt lat="45.50603" lon="10.8503533"><ele>114.33333333333334</ele><time>2026-04-26T10:27:12.759Z</time></trkpt><trkpt lat="45.5058783" lon="10.850295"><ele>113.66666666666666</ele><time>2026-04-26T10:27:13.759Z</time></trkpt><trkpt lat="45.5057283" lon="10.85025"><ele>113.0</ele><time>2026-04-26T10:27:14.759Z</time></trkpt><trkpt lat="45.5055633" lon="10.8502"><ele>114.33333333333333</ele><time>2026-04-26T10:27:15.759Z</time></trkpt><trkpt lat="45.5053917" lon="10.850145"><ele>115.66666666666666</ele><time>2026-04-26T10:27:16.76Z</time></trkpt><trkpt lat="45.5052467" lon="10.8501017"><ele>117.0</ele><time>2026-04-26T10:27:17.759Z</time></trkpt><trkpt lat="45.5051033" lon="10.8500567"><ele>117.0</ele><time>2026-04-26T10:27:18.759Z</time></trkpt><trkpt lat="45.50497" lon="10.8500183"><ele>117.0</ele><time>2026-04-26T10:27:19.759Z</time></trkpt><trkpt lat="45.50484" lon="10.849965"><ele>117.0</ele><time>2026-04-26T10:27:20.76Z</time></trkpt><trkpt lat="45.5047017" lon="10.8499217"><ele>117.0</ele><time>2026-04-26T10:27:21.759Z</time></trkpt><trkpt lat="45.5045667" lon="10.8498717"><ele>117.0</ele><time>2026-04-26T10:27:22.759Z</time></trkpt><trkpt lat="45.5044467" lon="10.8498133"><ele>116.99999999999999</ele><time>2026-04-26T10:27:23.759Z</time></trkpt><trkpt lat="45.504335" lon="10.8497617"><ele>116.99999999999999</ele><time>2026-04-26T10:27:24.759Z</time></trkpt><trkpt lat="45.504235" lon="10.8497083"><ele>117.0</ele><time>2026-04-26T10:27:25.76Z</time></trkpt><trkpt lat="45.5041483" lon="10.8496617"><ele>117.0</ele><time>2026-04-26T10:27:26.759Z</time></trkpt><trkpt lat="45.50407" lon="10.8496233"><ele>117.0</ele><time>2026-04-26T10:27:27.76Z</time></trkpt><trkpt lat="45.503995" lon="10.8495933"><ele>117.0</ele><time>2026-04-26T10:27:29.759Z</time></trkpt><trkpt lat="45.504045" lon="10.849475"><ele>117.0</ele><time>2026-04-26T10:27:58.758Z</time></trkpt><trkpt lat="45.5040817" lon="10.8493767"><ele>117.0</ele><time>2026-04-26T10:27:59.759Z</time></trkpt><trkpt lat="45.50413" lon="10.849265"><ele>117.0</ele><time>2026-04-26T10:28:00.759Z</time></trkpt><trkpt lat="45.5041783" lon="10.849145"><ele>117.0</ele><time>2026-04-26T10:28:01.759Z</time></trkpt><trkpt lat="45.50423" lon="10.8490117"><ele>117.25</ele><time>2026-04-26T10:28:02.759Z</time></trkpt><trkpt lat="45.504265" lon="10.8488533"><ele>117.5</ele><time>2026-04-26T10:28:03.759Z</time></trkpt><trkpt lat="45.5043" lon="10.8486883"><ele>117.75</ele><time>2026-04-26T10:28:04.758Z</time></trkpt><trkpt lat="45.50434" lon="10.8485133"><ele>118.0</ele><time>2026-04-26T10:28:05.758Z</time></trkpt><trkpt lat="45.504375" lon="10.8483517"><ele>118.0</ele><time>2026-04-26T10:28:06.758Z</time></trkpt><trkpt lat="45.5044267" lon="10.84821"><ele>118.00000000000001</ele><time>2026-04-26T10:28:07.758Z</time></trkpt><trkpt lat="45.5044817" lon="10.8480717"><ele>118.00000000000001</ele><time>2026-04-26T10:28:08.759Z</time></trkpt><trkpt lat="45.50452" lon="10.8479317"><ele>118.0</ele><time>2026-04-26T10:28:09.758Z</time></trkpt><trkpt lat="45.5045733" lon="10.8477933"><ele>118.0</ele><time>2026-04-26T10:28:10.759Z</time></trkpt><trkpt lat="45.50462" lon="10.8476617"><ele>118.75</ele><time>2026-04-26T10:28:11.759Z</time></trkpt><trkpt lat="45.5046683" lon="10.84752"><ele>119.5</ele><time>2026-04-26T10:28:12.759Z</time></trkpt><trkpt lat="45.5047117" lon="10.8473667"><ele>120.25</ele><time>2026-04-26T10:28:13.758Z</time></trkpt><trkpt lat="45.5047583" lon="10.8472017"><ele>121.0</ele><time>2026-04-26T10:28:14.759Z</time></trkpt><trkpt lat="45.504815" lon="10.8470383"><ele>121.0</ele><time>2026-04-26T10:28:15.759Z</time></trkpt><trkpt lat="45.504875" lon="10.84687"><ele>121.0</ele><time>2026-04-26T10:28:16.758Z</time></trkpt><trkpt lat="45.50494" lon="10.8467017"><ele>121.0</ele><time>2026-04-26T10:28:17.758Z</time></trkpt><trkpt lat="45.505015" lon="10.8465467"><ele>121.0</ele><time>2026-04-26T10:28:18.759Z</time></trkpt><trkpt lat="45.5050983" lon="10.8464"><ele>120.5</ele><time>2026-04-26T10:28:19.759Z</time></trkpt><trkpt lat="45.5051717" lon="10.8462533"><ele>120.0</ele><time>2026-04-26T10:28:20.759Z</time></trkpt><trkpt lat="45.505255" lon="10.8461117"><ele>119.5</ele><time>2026-04-26T10:28:21.759Z</time></trkpt><trkpt lat="45.5053417" lon="10.8459717"><ele>119.0</ele><time>2026-04-26T10:28:22.759Z</time></trkpt><trkpt lat="45.5054233" lon="10.8458267"><ele>119.0</ele><time>2026-04-26T10:28:23.758Z</time></trkpt><trkpt lat="45.505485" lon="10.8456933"><ele>119.0</ele><time>2026-04-26T10:28:24.758Z</time></trkpt><trkpt lat="45.5055567" lon="10.8455483"><ele>119.0</ele><time>2026-04-26T10:28:25.758Z</time></trkpt><trkpt lat="45.5056317" lon="10.8454"><ele>119.0</ele><time>2026-04-26T10:28:26.758Z</time></trkpt><trkpt lat="45.505695" lon="10.8452467"><ele>119.5</ele><time>2026-04-26T10:28:27.758Z</time></trkpt><trkpt lat="45.5057517" lon="10.84509"><ele>120.0</ele><time>2026-04-26T10:28:28.759Z</time></trkpt><trkpt lat="45.50581" lon="10.8449433"><ele>120.5</ele><time>2026-04-26T10:28:29.758Z</time></trkpt><trkpt lat="45.50586" lon="10.844785"><ele>121.0</ele><time>2026-04-26T10:28:30.759Z</time></trkpt><trkpt lat="45.5058883" lon="10.8446117"><ele>121.0</ele><time>2026-04-26T10:28:31.758Z</time></trkpt><trkpt lat="45.5059333" lon="10.8444417"><ele>121.0</ele><time>2026-04-26T10:28:32.758Z</time></trkpt><trkpt lat="45.505975" lon="10.8442567"><ele>121.0</ele><time>2026-04-26T10:28:33.758Z</time></trkpt><trkpt lat="45.506015" lon="10.8440867"><ele>121.0</ele><time>2026-04-26T10:28:34.759Z</time></trkpt><trkpt lat="45.5060517" lon="10.8439117"><ele>121.0</ele><time>2026-04-26T10:28:35.758Z</time></trkpt><trkpt lat="45.5060933" lon="10.8437267"><ele>121.0</ele><time>2026-04-26T10:28:36.758Z</time></trkpt><trkpt lat="45.50613" lon="10.8435583"><ele>121.0</ele><time>2026-04-26T10:28:37.759Z</time></trkpt><trkpt lat="45.506175" lon="10.8434233"><ele>121.0</ele><time>2026-04-26T10:28:38.758Z</time></trkpt><trkpt lat="45.5062133" lon="10.843315"><ele>120.33333333333334</ele><time>2026-04-26T10:28:39.759Z</time></trkpt><trkpt lat="45.5062667" lon="10.8432283"><ele>119.66666666666667</ele><time>2026-04-26T10:28:40.759Z</time></trkpt><trkpt lat="45.506335" lon="10.84317"><ele>119.0</ele><time>2026-04-26T10:28:41.758Z</time></trkpt><trkpt lat="45.5064017" lon="10.8431283"><ele>118.33333333333334</ele><time>2026-04-26T10:28:42.759Z</time></trkpt><trkpt lat="45.5064483" lon="10.8430467"><ele>117.66666666666667</ele><time>2026-04-26T10:28:43.758Z</time></trkpt><trkpt lat="45.5064983" lon="10.8429567"><ele>117.0</ele><time>2026-04-26T10:28:44.759Z</time></trkpt><trkpt lat="45.5064883" lon="10.8428333"><ele>117.0</ele><time>2026-04-26T10:28:45.758Z</time></trkpt><trkpt lat="45.5064633" lon="10.8427033"><ele>116.99999999999999</ele><time>2026-04-26T10:28:46.758Z</time></trkpt><trkpt lat="45.5064333" lon="10.8425683"><ele>116.99999999999999</ele><time>2026-04-26T10:28:47.759Z</time></trkpt><trkpt lat="45.5064167" lon="10.8424217"><ele>117.0</ele><time>2026-04-26T10:28:48.758Z</time></trkpt><trkpt lat="45.5064233" lon="10.8422683"><ele>117.0</ele><time>2026-04-26T10:28:49.758Z</time></trkpt><trkpt lat="45.5064517" lon="10.8421117"><ele>117.25</ele><time>2026-04-26T10:28:50.759Z</time></trkpt><trkpt lat="45.5064833" lon="10.8419533"><ele>117.5</ele><time>2026-04-26T10:28:51.759Z</time></trkpt><trkpt lat="45.5065167" lon="10.8417833"><ele>117.75</ele><time>2026-04-26T10:28:52.758Z</time></trkpt><trkpt lat="45.5065467" lon="10.84161"><ele>118.0</ele><time>2026-04-26T10:28:53.758Z</time></trkpt><trkpt lat="45.5065783" lon="10.8414267"><ele>118.5</ele><time>2026-04-26T10:28:54.758Z</time></trkpt><trkpt lat="45.5066067" lon="10.84125"><ele>119.0</ele><time>2026-04-26T10:28:55.759Z</time></trkpt><trkpt lat="45.5066333" lon="10.8410533"><ele>119.5</ele><time>2026-04-26T10:28:56.759Z</time></trkpt><trkpt lat="45.5066733" lon="10.8408717"><ele>120.0</ele><time>2026-04-26T10:28:57.759Z</time></trkpt><trkpt lat="45.506715" lon="10.8406967"><ele>120.0</ele><time>2026-04-26T10:28:58.759Z</time></trkpt><trkpt lat="45.506745" lon="10.8405283"><ele>120.0</ele><time>2026-04-26T10:28:59.759Z</time></trkpt><trkpt lat="45.5067833" lon="10.8403533"><ele>120.0</ele><time>2026-04-26T10:29:00.758Z</time></trkpt><trkpt lat="45.5068067" lon="10.840175"><ele>120.0</ele><time>2026-04-26T10:29:01.758Z</time></trkpt><trkpt lat="45.5068383" lon="10.8399983"><ele>120.0</ele><time>2026-04-26T10:29:02.758Z</time></trkpt><trkpt lat="45.5068617" lon="10.8398167"><ele>120.0</ele><time>2026-04-26T10:29:03.759Z</time></trkpt><trkpt lat="45.5068867" lon="10.839635"><ele>120.0</ele><time>2026-04-26T10:29:04.759Z</time></trkpt><trkpt lat="45.5069117" lon="10.8394583"><ele>120.0</ele><time>2026-04-26T10:29:05.758Z</time></trkpt><trkpt lat="45.50694" lon="10.8392817"><ele>120.0</ele><time>2026-04-26T10:29:06.758Z</time></trkpt><trkpt lat="45.5069683" lon="10.8391133"><ele>120.0</ele><time>2026-04-26T10:29:07.758Z</time></trkpt><trkpt lat="45.5069917" lon="10.8389367"><ele>120.0</ele><time>2026-04-26T10:29:08.759Z</time></trkpt><trkpt lat="45.507015" lon="10.8387617"><ele>120.0</ele><time>2026-04-26T10:29:09.758Z</time></trkpt><trkpt lat="45.5070383" lon="10.838595"><ele>120.4</ele><time>2026-04-26T10:29:10.758Z</time></trkpt><trkpt lat="45.5070583" lon="10.8384383"><ele>120.8</ele><time>2026-04-26T10:29:11.758Z</time></trkpt><trkpt lat="45.5070783" lon="10.8382917"><ele>121.19999999999999</ele><time>2026-04-26T10:29:12.758Z</time></trkpt><trkpt lat="45.5070967" lon="10.8381817"><ele>121.6</ele><time>2026-04-26T10:29:13.758Z</time></trkpt><trkpt lat="45.50716" lon="10.8380733"><ele>122.0</ele><time>2026-04-26T10:29:15.759Z</time></trkpt><trkpt lat="45.50724" lon="10.8380083"><ele>122.0</ele><time>2026-04-26T10:29:17.759Z</time></trkpt><trkpt lat="45.5073133" lon="10.8379217"><ele>121.99999999999999</ele><time>2026-04-26T10:29:19.758Z</time></trkpt><trkpt lat="45.5072983" lon="10.837785"><ele>121.99999999999999</ele><time>2026-04-26T10:32:13.758Z</time></trkpt><trkpt lat="45.5072467" lon="10.837665"><ele>122.0</ele><time>2026-04-26T10:35:00.756Z</time></trkpt><trkpt lat="45.5072233" lon="10.8375533"><ele>122.0</ele><time>2026-04-26T10:35:24.756Z</time></trkpt><trkpt lat="45.5071817" lon="10.837425"><ele>122.25</ele><time>2026-04-26T10:35:27.756Z</time></trkpt><trkpt lat="45.50717" lon="10.8372517"><ele>122.5</ele><time>2026-04-26T10:35:29.756Z</time></trkpt><trkpt lat="45.507205" lon="10.8370383"><ele>122.75</ele><time>2026-04-26T10:35:30.756Z</time></trkpt><trkpt lat="45.50724" lon="10.8368367"><ele>123.0</ele><time>2026-04-26T10:35:31.756Z</time></trkpt><trkpt lat="45.5072733" lon="10.83664"><ele>123.0</ele><time>2026-04-26T10:35:32.756Z</time></trkpt><trkpt lat="45.50731" lon="10.836445"><ele>123.0</ele><time>2026-04-26T10:35:33.756Z</time></trkpt><trkpt lat="45.5073383" lon="10.8362517"><ele>123.0</ele><time>2026-04-26T10:35:34.756Z</time></trkpt><trkpt lat="45.507365" lon="10.8360467"><ele>123.0</ele><time>2026-04-26T10:35:35.756Z</time></trkpt><trkpt lat="45.5073933" lon="10.8358483"><ele>122.75</ele><time>2026-04-26T10:35:36.757Z</time></trkpt><trkpt lat="45.5074283" lon="10.8356417"><ele>122.5</ele><time>2026-04-26T10:35:37.757Z</time></trkpt><trkpt lat="45.5074667" lon="10.835435"><ele>122.25</ele><time>2026-04-26T10:35:38.756Z</time></trkpt><trkpt lat="45.5075083" lon="10.835245"><ele>122.0</ele><time>2026-04-26T10:35:39.756Z</time></trkpt><trkpt lat="45.5075483" lon="10.835055"><ele>122.0</ele><time>2026-04-26T10:35:40.756Z</time></trkpt><trkpt lat="45.5075917" lon="10.83486"><ele>122.0</ele><time>2026-04-26T10:35:41.756Z</time></trkpt><trkpt lat="45.507625" lon="10.8346517"><ele>122.0</ele><time>2026-04-26T10:35:42.756Z</time></trkpt><trkpt lat="45.507655" lon="10.834445"><ele>122.0</ele><time>2026-04-26T10:35:43.756Z</time></trkpt><trkpt lat="45.5076983" lon="10.8342433"><ele>121.75</ele><time>2026-04-26T10:35:44.756Z</time></trkpt><trkpt lat="45.50774" lon="10.834065"><ele>121.5</ele><time>2026-04-26T10:35:45.757Z</time></trkpt><trkpt lat="45.507785" lon="10.8338583"><ele>121.25</ele><time>2026-04-26T10:35:46.756Z</time></trkpt><trkpt lat="45.50783" lon="10.8336583"><ele>121.0</ele><time>2026-04-26T10:35:47.756Z</time></trkpt><trkpt lat="45.5078817" lon="10.8334633"><ele>120.0</ele><time>2026-04-26T10:35:48.756Z</time></trkpt><trkpt lat="45.5079333" lon="10.833255"><ele>119.0</ele><time>2026-04-26T10:35:49.756Z</time></trkpt><trkpt lat="45.5079817" lon="10.8330533"><ele>118.0</ele><time>2026-04-26T10:35:50.756Z</time></trkpt><trkpt lat="45.508025" lon="10.83284"><ele>118.66666666666667</ele><time>2026-04-26T10:35:51.756Z</time></trkpt><trkpt lat="45.5080867" lon="10.832595"><ele>119.33333333333334</ele><time>2026-04-26T10:35:52.757Z</time></trkpt><trkpt lat="45.50813" lon="10.8323833"><ele>120.0</ele><time>2026-04-26T10:35:53.756Z</time></trkpt><trkpt lat="45.5081667" lon="10.8321933"><ele>120.0</ele><time>2026-04-26T10:35:54.756Z</time></trkpt><trkpt lat="45.508205" lon="10.8320183"><ele>120.0</ele><time>2026-04-26T10:35:55.756Z</time></trkpt><trkpt lat="45.5082417" lon="10.8318267"><ele>120.0</ele><time>2026-04-26T10:35:56.756Z</time></trkpt><trkpt lat="45.50828" lon="10.8316717"><ele>120.0</ele><time>2026-04-26T10:35:57.757Z</time></trkpt><trkpt lat="45.508345" lon="10.8315033"><ele>119.5</ele><time>2026-04-26T10:35:58.756Z</time></trkpt><trkpt lat="45.50841" lon="10.8313417"><ele>119.0</ele><time>2026-04-26T10:35:59.757Z</time></trkpt><trkpt lat="45.508475" lon="10.8312017"><ele>118.5</ele><time>2026-04-26T10:36:00.756Z</time></trkpt><trkpt lat="45.508545" lon="10.831075"><ele>118.0</ele><time>2026-04-26T10:36:01.756Z</time></trkpt><trkpt lat="45.5086133" lon="10.8309583"><ele>118.0</ele><time>2026-04-26T10:36:02.757Z</time></trkpt><trkpt lat="45.508675" lon="10.8308317"><ele>118.0</ele><time>2026-04-26T10:36:03.756Z</time></trkpt><trkpt lat="45.50875" lon="10.8306917"><ele>118.0</ele><time>2026-04-26T10:36:04.756Z</time></trkpt><trkpt lat="45.50882" lon="10.8305233"><ele>118.0</ele><time>2026-04-26T10:36:05.757Z</time></trkpt><trkpt lat="45.508915" lon="10.8303517"><ele>118.0</ele><time>2026-04-26T10:36:06.756Z</time></trkpt><trkpt lat="45.50901" lon="10.8302"><ele>118.0</ele><time>2026-04-26T10:36:07.756Z</time></trkpt><trkpt lat="45.50909" lon="10.8300367"><ele>118.0</ele><time>2026-04-26T10:36:08.756Z</time></trkpt><trkpt lat="45.509185" lon="10.8298867"><ele>118.0</ele><time>2026-04-26T10:36:09.757Z</time></trkpt><trkpt lat="45.5092783" lon="10.82973"><ele>118.0</ele><time>2026-04-26T10:36:10.756Z</time></trkpt><trkpt lat="45.5093783" lon="10.8295767"><ele>118.0</ele><time>2026-04-26T10:36:11.756Z</time></trkpt><trkpt lat="45.5094867" lon="10.8294233"><ele>118.0</ele><time>2026-04-26T10:36:12.755Z</time></trkpt><trkpt lat="45.5096017" lon="10.82929"><ele>118.0</ele><time>2026-04-26T10:36:13.755Z</time></trkpt><trkpt lat="45.509705" lon="10.8291583"><ele>117.66666666666667</ele><time>2026-04-26T10:36:14.755Z</time></trkpt><trkpt lat="45.509825" lon="10.829025"><ele>117.33333333333334</ele><time>2026-04-26T10:36:15.756Z</time></trkpt><trkpt lat="45.5099533" lon="10.8288967"><ele>117.0</ele><time>2026-04-26T10:36:16.755Z</time></trkpt><trkpt lat="45.5100817" lon="10.8287667"><ele>117.0</ele><time>2026-04-26T10:36:17.755Z</time></trkpt><trkpt lat="45.5102067" lon="10.8286383"><ele>117.0</ele><time>2026-04-26T10:36:18.755Z</time></trkpt><trkpt lat="45.5103367" lon="10.8285117"><ele>117.0</ele><time>2026-04-26T10:36:19.755Z</time></trkpt><trkpt lat="45.5104633" lon="10.8283683"><ele>116.66666666666666</ele><time>2026-04-26T10:36:20.756Z</time></trkpt><trkpt lat="45.510595" lon="10.8282233"><ele>116.33333333333333</ele><time>2026-04-26T10:36:21.755Z</time></trkpt><trkpt lat="45.510725" lon="10.82809"><ele>116.0</ele><time>2026-04-26T10:36:22.756Z</time></trkpt><trkpt lat="45.51086" lon="10.8279483"><ele>116.0</ele><time>2026-04-26T10:36:23.755Z</time></trkpt><trkpt lat="45.51099" lon="10.8278017"><ele>116.0</ele><time>2026-04-26T10:36:24.755Z</time></trkpt><trkpt lat="45.5111133" lon="10.82767"><ele>116.0</ele><time>2026-04-26T10:36:25.755Z</time></trkpt><trkpt lat="45.51124" lon="10.8275333"><ele>117.0</ele><time>2026-04-26T10:36:26.755Z</time></trkpt><trkpt lat="45.5113667" lon="10.8273967"><ele>118.0</ele><time>2026-04-26T10:36:27.756Z</time></trkpt><trkpt lat="45.5114833" lon="10.82725"><ele>119.0</ele><time>2026-04-26T10:36:28.755Z</time></trkpt><trkpt lat="45.5116067" lon="10.8271317"><ele>119.0</ele><time>2026-04-26T10:36:29.755Z</time></trkpt><trkpt lat="45.5117283" lon="10.8270017"><ele>119.0</ele><time>2026-04-26T10:36:30.755Z</time></trkpt><trkpt lat="45.511865" lon="10.8268783"><ele>119.0</ele><time>2026-04-26T10:36:31.755Z</time></trkpt><trkpt lat="45.5120017" lon="10.8267367"><ele>117.66666666666666</ele><time>2026-04-26T10:36:32.755Z</time></trkpt><trkpt lat="45.5121267" lon="10.8266"><ele>116.33333333333334</ele><time>2026-04-26T10:36:33.755Z</time></trkpt><trkpt lat="45.51225" lon="10.826455"><ele>115.0</ele><time>2026-04-26T10:36:34.755Z</time></trkpt><trkpt lat="45.5123633" lon="10.8263167"><ele>115.0</ele><time>2026-04-26T10:36:35.756Z</time></trkpt><trkpt lat="45.512475" lon="10.82619"><ele>115.0</ele><time>2026-04-26T10:36:36.755Z</time></trkpt><trkpt lat="45.5125933" lon="10.8260783"><ele>115.0</ele><time>2026-04-26T10:36:37.756Z</time></trkpt><trkpt lat="45.5126933" lon="10.8259733"><ele>115.0</ele><time>2026-04-26T10:36:38.755Z</time></trkpt><trkpt lat="45.5127883" lon="10.8258833"><ele>114.8</ele><time>2026-04-26T10:36:39.755Z</time></trkpt><trkpt lat="45.51287" lon="10.825795"><ele>114.6</ele><time>2026-04-26T10:36:40.756Z</time></trkpt><trkpt lat="45.512935" lon="10.8257233"><ele>114.4</ele><time>2026-04-26T10:36:41.755Z</time></trkpt><trkpt lat="45.51298" lon="10.82565"><ele>114.2</ele><time>2026-04-26T10:36:42.755Z</time></trkpt><trkpt lat="45.5130283" lon="10.8255267"><ele>114.0</ele><time>2026-04-26T10:36:44.755Z</time></trkpt><trkpt lat="45.5129467" lon="10.825415"><ele>114.0</ele><time>2026-04-26T10:36:46.755Z</time></trkpt><trkpt lat="45.5128833" lon="10.82535"><ele>114.0</ele><time>2026-04-26T10:36:47.755Z</time></trkpt><trkpt lat="45.5128083" lon="10.8252917"><ele>114.0</ele><time>2026-04-26T10:36:48.755Z</time></trkpt><trkpt lat="45.5127083" lon="10.8252667"><ele>114.0</ele><time>2026-04-26T10:36:49.755Z</time></trkpt><trkpt lat="45.5126" lon="10.8252417"><ele>114.0</ele><time>2026-04-26T10:36:50.755Z</time></trkpt><trkpt lat="45.5125" lon="10.825235"><ele>114.0</ele><time>2026-04-26T10:36:51.755Z</time></trkpt><trkpt lat="45.51238" lon="10.825245"><ele>114.0</ele><time>2026-04-26T10:36:52.756Z</time></trkpt><trkpt lat="45.512265" lon="10.8252433"><ele>114.0</ele><time>2026-04-26T10:36:53.755Z</time></trkpt><trkpt lat="45.5121683" lon="10.825225"><ele>114.0</ele><time>2026-04-26T10:36:54.755Z</time></trkpt><trkpt lat="45.51207" lon="10.8251983"><ele>114.0</ele><time>2026-04-26T10:36:55.755Z</time></trkpt><trkpt lat="45.5119817" lon="10.82517"><ele>114.16666666666667</ele><time>2026-04-26T10:36:56.756Z</time></trkpt><trkpt lat="45.5119033" lon="10.825155"><ele>114.33333333333334</ele><time>2026-04-26T10:36:57.755Z</time></trkpt><trkpt lat="45.51183" lon="10.8251267"><ele>114.5</ele><time>2026-04-26T10:36:58.755Z</time></trkpt><trkpt lat="45.5117583" lon="10.8250983"><ele>114.66666666666667</ele><time>2026-04-26T10:36:59.755Z</time></trkpt><trkpt lat="45.51169" lon="10.8250533"><ele>114.83333333333334</ele><time>2026-04-26T10:37:00.755Z</time></trkpt><trkpt lat="45.511625" lon="10.8249983"><ele>115.0</ele><time>2026-04-26T10:37:01.756Z</time></trkpt><trkpt lat="45.5115567" lon="10.8249367"><ele>115.00000000000001</ele><time>2026-04-26T10:37:02.755Z</time></trkpt><trkpt lat="45.5114717" lon="10.8248533"><ele>115.0</ele><time>2026-04-26T10:37:03.755Z</time></trkpt><trkpt lat="45.5114017" lon="10.8247667"><ele>115.0</ele><time>2026-04-26T10:37:04.755Z</time></trkpt><trkpt lat="45.5113283" lon="10.8247017"><ele>115.0</ele><time>2026-04-26T10:37:05.755Z</time></trkpt><trkpt lat="45.5112567" lon="10.824635"><ele>115.00000000000001</ele><time>2026-04-26T10:37:06.755Z</time></trkpt><trkpt lat="45.5112017" lon="10.8245633"><ele>115.0</ele><time>2026-04-26T10:37:07.755Z</time></trkpt><trkpt lat="45.5111583" lon="10.82448"><ele>114.66666666666667</ele><time>2026-04-26T10:37:08.755Z</time></trkpt><trkpt lat="45.511115" lon="10.8243817"><ele>114.33333333333334</ele><time>2026-04-26T10:37:09.755Z</time></trkpt><trkpt lat="45.51109" lon="10.82429"><ele>114.0</ele><time>2026-04-26T10:37:10.755Z</time></trkpt><trkpt lat="45.51102" lon="10.824135"><ele>113.66666666666666</ele><time>2026-04-26T10:37:12.755Z</time></trkpt><trkpt lat="45.510965" lon="10.8240617"><ele>113.33333333333333</ele><time>2026-04-26T10:37:13.755Z</time></trkpt><trkpt lat="45.510895" lon="10.823985"><ele>113.0</ele><time>2026-04-26T10:37:14.755Z</time></trkpt><trkpt lat="45.510805" lon="10.8239067"><ele>112.80000000000001</ele><time>2026-04-26T10:37:15.755Z</time></trkpt><trkpt lat="45.5107317" lon="10.823855"><ele>112.60000000000001</ele><time>2026-04-26T10:37:16.756Z</time></trkpt><trkpt lat="45.5106483" lon="10.823805"><ele>112.39999999999999</ele><time>2026-04-26T10:37:17.755Z</time></trkpt><trkpt lat="45.51056" lon="10.8237483"><ele>112.19999999999999</ele><time>2026-04-26T10:37:18.755Z</time></trkpt><trkpt lat="45.5104567" lon="10.823695"><ele>112.0</ele><time>2026-04-26T10:37:19.755Z</time></trkpt><trkpt lat="45.5103567" lon="10.8236483"><ele>112.0</ele><time>2026-04-26T10:37:20.756Z</time></trkpt><trkpt lat="45.5102483" lon="10.8236017"><ele>111.99999999999999</ele><time>2026-04-26T10:37:21.755Z</time></trkpt><trkpt lat="45.5101433" lon="10.8235567"><ele>111.99999999999999</ele><time>2026-04-26T10:37:22.756Z</time></trkpt><trkpt lat="45.5100517" lon="10.8235183"><ele>112.0</ele><time>2026-04-26T10:37:23.756Z</time></trkpt><trkpt lat="45.5099783" lon="10.8234817"><ele>112.0</ele><time>2026-04-26T10:37:24.755Z</time></trkpt><trkpt lat="45.5099067" lon="10.8234483"><ele>111.66666666666667</ele><time>2026-04-26T10:37:25.755Z</time></trkpt><trkpt lat="45.509845" lon="10.8234167"><ele>111.33333333333334</ele><time>2026-04-26T10:37:26.756Z</time></trkpt><trkpt lat="45.509785" lon="10.8233317"><ele>111.0</ele><time>2026-04-26T10:37:28.755Z</time></trkpt><trkpt lat="45.5097783" lon="10.8232017"><ele>110.66666666666666</ele><time>2026-04-26T10:37:30.756Z</time></trkpt><trkpt lat="45.50981" lon="10.8230417"><ele>110.33333333333333</ele><time>2026-04-26T10:37:32.755Z</time></trkpt><trkpt lat="45.5098417" lon="10.8229433"><ele>110.0</ele><time>2026-04-26T10:37:33.755Z</time></trkpt><trkpt lat="45.5098817" lon="10.8228033"><ele>109.75</ele><time>2026-04-26T10:37:34.756Z</time></trkpt><trkpt lat="45.5099233" lon="10.8226467"><ele>109.5</ele><time>2026-04-26T10:37:35.755Z</time></trkpt><trkpt lat="45.5099633" lon="10.82249"><ele>109.25</ele><time>2026-04-26T10:37:36.755Z</time></trkpt><trkpt lat="45.51001" lon="10.8223"><ele>109.0</ele><time>2026-04-26T10:37:37.755Z</time></trkpt><trkpt lat="45.5100617" lon="10.8221117"><ele>109.0</ele><time>2026-04-26T10:37:38.755Z</time></trkpt><trkpt lat="45.51011" lon="10.8219233"><ele>109.0</ele><time>2026-04-26T10:37:39.755Z</time></trkpt><trkpt lat="45.5101633" lon="10.821735"><ele>109.0</ele><time>2026-04-26T10:37:40.755Z</time></trkpt><trkpt lat="45.510215" lon="10.8215283"><ele>109.0</ele><time>2026-04-26T10:37:41.755Z</time></trkpt><trkpt lat="45.5102683" lon="10.8213417"><ele>109.25</ele><time>2026-04-26T10:37:42.755Z</time></trkpt><trkpt lat="45.510325" lon="10.8211533"><ele>109.5</ele><time>2026-04-26T10:37:43.755Z</time></trkpt><trkpt lat="45.51038" lon="10.820955"><ele>109.75</ele><time>2026-04-26T10:37:44.756Z</time></trkpt><trkpt lat="45.510435" lon="10.8207517"><ele>110.0</ele><time>2026-04-26T10:37:45.756Z</time></trkpt><trkpt lat="45.5104783" lon="10.82054"><ele>110.0</ele><time>2026-04-26T10:37:46.756Z</time></trkpt><trkpt lat="45.5105217" lon="10.8203217"><ele>110.0</ele><time>2026-04-26T10:37:47.755Z</time></trkpt><trkpt lat="45.51056" lon="10.8201233"><ele>110.0</ele><time>2026-04-26T10:37:48.756Z</time></trkpt><trkpt lat="45.5105967" lon="10.8199367"><ele>110.0</ele><time>2026-04-26T10:37:49.756Z</time></trkpt><trkpt lat="45.510625" lon="10.8197783"><ele>109.99999999999999</ele><time>2026-04-26T10:37:50.756Z</time></trkpt><trkpt lat="45.5106483" lon="10.8196517"><ele>110.0</ele><time>2026-04-26T10:37:51.756Z</time></trkpt><trkpt lat="45.5106667" lon="10.8195417"><ele>110.0</ele><time>2026-04-26T10:37:52.755Z</time></trkpt><trkpt lat="45.5106883" lon="10.8194267"><ele>110.0</ele><time>2026-04-26T10:37:53.755Z</time></trkpt><trkpt lat="45.5107033" lon="10.819305"><ele>109.99999999999999</ele><time>2026-04-26T10:37:54.756Z</time></trkpt><trkpt lat="45.5107217" lon="10.8191933"><ele>110.0</ele><time>2026-04-26T10:37:55.756Z</time></trkpt><trkpt lat="45.5107433" lon="10.8190733"><ele>110.75</ele><time>2026-04-26T10:37:56.755Z</time></trkpt><trkpt lat="45.5107767" lon="10.818905"><ele>111.5</ele><time>2026-04-26T10:37:57.755Z</time></trkpt><trkpt lat="45.5108233" lon="10.8187267"><ele>112.25</ele><time>2026-04-26T10:37:58.755Z</time></trkpt><trkpt lat="45.5108867" lon="10.8185267"><ele>113.0</ele><time>2026-04-26T10:37:59.755Z</time></trkpt><trkpt lat="45.5109383" lon="10.8183433"><ele>113.0</ele><time>2026-04-26T10:38:00.755Z</time></trkpt><trkpt lat="45.5109983" lon="10.8181817"><ele>113.0</ele><time>2026-04-26T10:38:01.755Z</time></trkpt><trkpt lat="45.5110667" lon="10.8180433"><ele>113.0</ele><time>2026-04-26T10:38:02.755Z</time></trkpt><trkpt lat="45.51112" lon="10.8179083"><ele>113.0</ele><time>2026-04-26T10:38:03.755Z</time></trkpt><trkpt lat="45.511175" lon="10.8177867"><ele>113.0</ele><time>2026-04-26T10:38:04.756Z</time></trkpt><trkpt lat="45.511225" lon="10.81766"><ele>113.00000000000001</ele><time>2026-04-26T10:38:05.755Z</time></trkpt><trkpt lat="45.5112767" lon="10.817525"><ele>113.00000000000001</ele><time>2026-04-26T10:38:06.755Z</time></trkpt><trkpt lat="45.5113233" lon="10.8173833"><ele>113.0</ele><time>2026-04-26T10:38:07.755Z</time></trkpt><trkpt lat="45.5113667" lon="10.8172517"><ele>113.0</ele><time>2026-04-26T10:38:08.755Z</time></trkpt><trkpt lat="45.511405" lon="10.817115"><ele>113.0</ele><time>2026-04-26T10:38:09.755Z</time></trkpt><trkpt lat="45.5114433" lon="10.8169667"><ele>113.00000000000001</ele><time>2026-04-26T10:38:10.755Z</time></trkpt><trkpt lat="45.51149" lon="10.816825"><ele>113.00000000000001</ele><time>2026-04-26T10:38:11.755Z</time></trkpt><trkpt lat="45.5115317" lon="10.8166767"><ele>113.0</ele><time>2026-04-26T10:38:12.755Z</time></trkpt><trkpt lat="45.511575" lon="10.8165233"><ele>113.0</ele><time>2026-04-26T10:38:13.755Z</time></trkpt><trkpt lat="45.51162" lon="10.8163717"><ele>113.0</ele><time>2026-04-26T10:38:14.755Z</time></trkpt><trkpt lat="45.511665" lon="10.816225"><ele>113.00000000000001</ele><time>2026-04-26T10:38:15.755Z</time></trkpt><trkpt lat="45.51171" lon="10.816075"><ele>113.00000000000001</ele><time>2026-04-26T10:38:16.755Z</time></trkpt><trkpt lat="45.51175" lon="10.8159283"><ele>113.0</ele><time>2026-04-26T10:38:17.756Z</time></trkpt><trkpt lat="45.5117817" lon="10.8157783"><ele>113.0</ele><time>2026-04-26T10:38:18.755Z</time></trkpt><trkpt lat="45.5118117" lon="10.8156267"><ele>113.2</ele><time>2026-04-26T10:38:19.756Z</time></trkpt><trkpt lat="45.5118417" lon="10.8154717"><ele>113.4</ele><time>2026-04-26T10:38:20.756Z</time></trkpt><trkpt lat="45.5118767" lon="10.8153233"><ele>113.60000000000001</ele><time>2026-04-26T10:38:21.755Z</time></trkpt><trkpt lat="45.5119117" lon="10.8151633"><ele>113.80000000000001</ele><time>2026-04-26T10:38:22.756Z</time></trkpt><trkpt lat="45.511945" lon="10.81503"><ele>114.0</ele><time>2026-04-26T10:38:23.755Z</time></trkpt><trkpt lat="45.51197" lon="10.81491"><ele>114.0</ele><time>2026-04-26T10:38:24.755Z</time></trkpt><trkpt lat="45.511995" lon="10.8148033"><ele>114.0</ele><time>2026-04-26T10:38:25.756Z</time></trkpt><trkpt lat="45.5120267" lon="10.8146967"><ele>114.0</ele><time>2026-04-26T10:38:26.755Z</time></trkpt><trkpt lat="45.512065" lon="10.814585"><ele>114.0</ele><time>2026-04-26T10:38:27.755Z</time></trkpt><trkpt lat="45.5121117" lon="10.8144917"><ele>114.0</ele><time>2026-04-26T10:38:28.755Z</time></trkpt><trkpt lat="45.5121617" lon="10.8144117"><ele>114.0</ele><time>2026-04-26T10:38:29.756Z</time></trkpt><trkpt lat="45.5122583" lon="10.8142883"><ele>114.0</ele><time>2026-04-26T10:38:31.755Z</time></trkpt><trkpt lat="45.51232" lon="10.81416"><ele>114.0</ele><time>2026-04-26T10:38:33.755Z</time></trkpt><trkpt lat="45.5123083" lon="10.8140067"><ele>114.0</ele><time>2026-04-26T10:38:35.756Z</time></trkpt><trkpt lat="45.512275" lon="10.8138883"><ele>114.0</ele><time>2026-04-26T10:38:36.755Z</time></trkpt><trkpt lat="45.512235" lon="10.8137533"><ele>114.0</ele><time>2026-04-26T10:38:37.756Z</time></trkpt><trkpt lat="45.5122017" lon="10.81361"><ele>114.2</ele><time>2026-04-26T10:38:38.755Z</time></trkpt><trkpt lat="45.512175" lon="10.8134567"><ele>114.4</ele><time>2026-04-26T10:38:39.755Z</time></trkpt><trkpt lat="45.512145" lon="10.8133083"><ele>114.6</ele><time>2026-04-26T10:38:40.755Z</time></trkpt><trkpt lat="45.5121267" lon="10.8131583"><ele>114.8</ele><time>2026-04-26T10:38:41.755Z</time></trkpt><trkpt lat="45.5121067" lon="10.813005"><ele>115.0</ele><time>2026-04-26T10:38:42.756Z</time></trkpt><trkpt lat="45.5120967" lon="10.812825"><ele>115.25</ele><time>2026-04-26T10:38:43.755Z</time></trkpt><trkpt lat="45.5121" lon="10.8126483"><ele>115.5</ele><time>2026-04-26T10:38:44.756Z</time></trkpt><trkpt lat="45.51209" lon="10.81248"><ele>115.75</ele><time>2026-04-26T10:38:45.755Z</time></trkpt><trkpt lat="45.5121067" lon="10.8122867"><ele>116.0</ele><time>2026-04-26T10:38:46.755Z</time></trkpt><trkpt lat="45.5121367" lon="10.8121083"><ele>116.0</ele><time>2026-04-26T10:38:47.756Z</time></trkpt><trkpt lat="45.5121733" lon="10.81194"><ele>116.0</ele><time>2026-04-26T10:38:48.755Z</time></trkpt><trkpt lat="45.51222" lon="10.81176"><ele>116.0</ele><time>2026-04-26T10:38:49.755Z</time></trkpt><trkpt lat="45.5122633" lon="10.8115833"><ele>116.0</ele><time>2026-04-26T10:38:50.756Z</time></trkpt><trkpt lat="45.5123167" lon="10.8114083"><ele>115.75</ele><time>2026-04-26T10:38:51.756Z</time></trkpt><trkpt lat="45.5123733" lon="10.8112317"><ele>115.5</ele><time>2026-04-26T10:38:52.756Z</time></trkpt><trkpt lat="45.5124433" lon="10.8110383"><ele>115.25</ele><time>2026-04-26T10:38:53.755Z</time></trkpt><trkpt lat="45.512495" lon="10.8108583"><ele>115.0</ele><time>2026-04-26T10:38:54.755Z</time></trkpt><trkpt lat="45.5125517" lon="10.8106683"><ele>114.8</ele><time>2026-04-26T10:38:55.755Z</time></trkpt><trkpt lat="45.5126017" lon="10.8104967"><ele>114.6</ele><time>2026-04-26T10:38:56.756Z</time></trkpt><trkpt lat="45.5126467" lon="10.8103483"><ele>114.4</ele><time>2026-04-26T10:38:57.755Z</time></trkpt><trkpt lat="45.51269" lon="10.8102067"><ele>114.2</ele><time>2026-04-26T10:38:58.756Z</time></trkpt><trkpt lat="45.5127167" lon="10.8101"><ele>114.0</ele><time>2026-04-26T10:38:59.755Z</time></trkpt><trkpt lat="45.5127483" lon="10.8100083"><ele>113.80000000000001</ele><time>2026-04-26T10:39:00.755Z</time></trkpt><trkpt lat="45.5127817" lon="10.8099317"><ele>113.60000000000001</ele><time>2026-04-26T10:39:02.754Z</time></trkpt><trkpt lat="45.5128817" lon="10.8099833"><ele>113.4</ele><time>2026-04-26T10:39:05.754Z</time></trkpt><trkpt lat="45.5129883" lon="10.8100783"><ele>113.2</ele><time>2026-04-26T10:39:06.754Z</time></trkpt><trkpt lat="45.5131117" lon="10.8101683"><ele>113.0</ele><time>2026-04-26T10:39:07.754Z</time></trkpt><trkpt lat="45.5132383" lon="10.810265"><ele>113.0</ele><time>2026-04-26T10:39:08.755Z</time></trkpt><trkpt lat="45.5133667" lon="10.8103667"><ele>113.0</ele><time>2026-04-26T10:39:09.754Z</time></trkpt><trkpt lat="45.5135183" lon="10.8104683"><ele>113.0</ele><time>2026-04-26T10:39:10.754Z</time></trkpt><trkpt lat="45.5136783" lon="10.8105767"><ele>113.0</ele><time>2026-04-26T10:39:11.755Z</time></trkpt><trkpt lat="45.5138433" lon="10.8106783"><ele>113.0</ele><time>2026-04-26T10:39:12.754Z</time></trkpt><trkpt lat="45.5140167" lon="10.8107833"><ele>113.0</ele><time>2026-04-26T10:39:13.754Z</time></trkpt><trkpt lat="45.5141867" lon="10.8108917"><ele>113.0</ele><time>2026-04-26T10:39:14.754Z</time></trkpt><trkpt lat="45.5143617" lon="10.810985"><ele>113.0</ele><time>2026-04-26T10:39:15.755Z</time></trkpt><trkpt lat="45.5145333" lon="10.8110817"><ele>113.0</ele><time>2026-04-26T10:39:16.754Z</time></trkpt><trkpt lat="45.5147167" lon="10.811175"><ele>114.0</ele><time>2026-04-26T10:39:17.754Z</time></trkpt><trkpt lat="45.5148783" lon="10.81127"><ele>115.0</ele><time>2026-04-26T10:39:18.754Z</time></trkpt><trkpt lat="45.5150433" lon="10.8113967"><ele>116.0</ele><time>2026-04-26T10:39:19.754Z</time></trkpt><trkpt lat="45.5151783" lon="10.8114867"><ele>116.0</ele><time>2026-04-26T10:39:20.754Z</time></trkpt><trkpt lat="45.51533" lon="10.8115633"><ele>116.0</ele><time>2026-04-26T10:39:21.754Z</time></trkpt><trkpt lat="45.5154867" lon="10.8116367"><ele>116.0</ele><time>2026-04-26T10:39:22.754Z</time></trkpt><trkpt lat="45.51566" lon="10.8116783"><ele>115.66666666666666</ele><time>2026-04-26T10:39:23.755Z</time></trkpt><trkpt lat="45.5158233" lon="10.81171"><ele>115.33333333333334</ele><time>2026-04-26T10:39:24.755Z</time></trkpt><trkpt lat="45.5160017" lon="10.8117517"><ele>115.0</ele><time>2026-04-26T10:39:25.754Z</time></trkpt><trkpt lat="45.5161883" lon="10.8117967"><ele>115.33333333333334</ele><time>2026-04-26T10:39:26.754Z</time></trkpt><trkpt lat="45.51638" lon="10.81183"><ele>115.66666666666666</ele><time>2026-04-26T10:39:27.754Z</time></trkpt><trkpt lat="45.5165783" lon="10.81188"><ele>116.0</ele><time>2026-04-26T10:39:28.755Z</time></trkpt><trkpt lat="45.5167733" lon="10.8119417"><ele>116.0</ele><time>2026-04-26T10:39:29.754Z</time></trkpt><trkpt lat="45.5169633" lon="10.812005"><ele>116.0</ele><time>2026-04-26T10:39:30.754Z</time></trkpt><trkpt lat="45.5171417" lon="10.81205"><ele>116.0</ele><time>2026-04-26T10:39:31.754Z</time></trkpt><trkpt lat="45.5173117" lon="10.8121017"><ele>116.75</ele><time>2026-04-26T10:39:32.754Z</time></trkpt><trkpt lat="45.517465" lon="10.8121483"><ele>117.5</ele><time>2026-04-26T10:39:33.754Z</time></trkpt><trkpt lat="45.51761" lon="10.812195"><ele>118.25</ele><time>2026-04-26T10:39:34.754Z</time></trkpt><trkpt lat="45.5177467" lon="10.8122383"><ele>119.0</ele><time>2026-04-26T10:39:35.754Z</time></trkpt><trkpt lat="45.5178733" lon="10.81228"><ele>118.4</ele><time>2026-04-26T10:39:36.754Z</time></trkpt><trkpt lat="45.5179933" lon="10.8123033"><ele>117.80000000000001</ele><time>2026-04-26T10:39:37.754Z</time></trkpt><trkpt lat="45.5180867" lon="10.8123"><ele>117.19999999999999</ele><time>2026-04-26T10:39:38.754Z</time></trkpt><trkpt lat="45.518155" lon="10.8123117"><ele>116.6</ele><time>2026-04-26T10:39:39.754Z</time></trkpt><trkpt lat="45.5182633" lon="10.8123483"><ele>116.0</ele><time>2026-04-26T10:39:41.754Z</time></trkpt><trkpt lat="45.5183267" lon="10.8123617"><ele>116.0</ele><time>2026-04-26T10:39:42.754Z</time></trkpt><trkpt lat="45.51839" lon="10.81232"><ele>116.0</ele><time>2026-04-26T10:39:43.754Z</time></trkpt><trkpt lat="45.51848" lon="10.8122467"><ele>116.0</ele><time>2026-04-26T10:39:44.755Z</time></trkpt><trkpt lat="45.5185783" lon="10.8121533"><ele>116.0</ele><time>2026-04-26T10:39:45.755Z</time></trkpt><trkpt lat="45.5186833" lon="10.8120833"><ele>116.0</ele><time>2026-04-26T10:39:46.755Z</time></trkpt><trkpt lat="45.5188183" lon="10.8120333"><ele>115.33333333333333</ele><time>2026-04-26T10:39:47.754Z</time></trkpt><trkpt lat="45.5189717" lon="10.8119833"><ele>114.66666666666666</ele><time>2026-04-26T10:39:48.755Z</time></trkpt><trkpt lat="45.5191267" lon="10.8119567"><ele>114.0</ele><time>2026-04-26T10:39:49.754Z</time></trkpt><trkpt lat="45.5192883" lon="10.8119217"><ele>114.0</ele><time>2026-04-26T10:39:50.755Z</time></trkpt><trkpt lat="45.519465" lon="10.8118967"><ele>114.0</ele><time>2026-04-26T10:39:51.754Z</time></trkpt><trkpt lat="45.5196383" lon="10.8118867"><ele>114.0</ele><time>2026-04-26T10:39:52.754Z</time></trkpt><trkpt lat="45.5198017" lon="10.8118833"><ele>114.0</ele><time>2026-04-26T10:39:53.754Z</time></trkpt><trkpt lat="45.5199533" lon="10.8118933"><ele>114.0</ele><time>2026-04-26T10:39:54.755Z</time></trkpt><trkpt lat="45.520095" lon="10.8119033"><ele>114.0</ele><time>2026-04-26T10:39:55.754Z</time></trkpt><trkpt lat="45.5202267" lon="10.811915"><ele>114.0</ele><time>2026-04-26T10:39:56.754Z</time></trkpt><trkpt lat="45.52034" lon="10.811925"><ele>113.6</ele><time>2026-04-26T10:39:57.754Z</time></trkpt><trkpt lat="45.5204467" lon="10.8119383"><ele>113.2</ele><time>2026-04-26T10:39:58.754Z</time></trkpt><trkpt lat="45.5205483" lon="10.81193"><ele>112.79999999999998</ele><time>2026-04-26T10:39:59.755Z</time></trkpt><trkpt lat="45.5206283" lon="10.8118983"><ele>112.39999999999999</ele><time>2026-04-26T10:40:00.755Z</time></trkpt><trkpt lat="45.5207183" lon="10.8118467"><ele>112.0</ele><time>2026-04-26T10:40:01.754Z</time></trkpt><trkpt lat="45.520815" lon="10.8118183"><ele>112.0</ele><time>2026-04-26T10:40:02.754Z</time></trkpt><trkpt lat="45.5209083" lon="10.8118183"><ele>112.0</ele><time>2026-04-26T10:40:03.755Z</time></trkpt><trkpt lat="45.5210167" lon="10.8118317"><ele>112.0</ele><time>2026-04-26T10:40:04.755Z</time></trkpt><trkpt lat="45.52116" lon="10.8118433"><ele>112.0</ele><time>2026-04-26T10:40:05.754Z</time></trkpt><trkpt lat="45.521305" lon="10.8118667"><ele>112.5</ele><time>2026-04-26T10:40:06.755Z</time></trkpt><trkpt lat="45.521435" lon="10.81188"><ele>113.0</ele><time>2026-04-26T10:40:07.755Z</time></trkpt><trkpt lat="45.5215717" lon="10.8118867"><ele>113.5</ele><time>2026-04-26T10:40:08.755Z</time></trkpt><trkpt lat="45.5216817" lon="10.81188"><ele>114.0</ele><time>2026-04-26T10:40:09.755Z</time></trkpt><trkpt lat="45.5218117" lon="10.8118933"><ele>114.0</ele><time>2026-04-26T10:40:10.755Z</time></trkpt><trkpt lat="45.521945" lon="10.811915"><ele>114.0</ele><time>2026-04-26T10:40:11.754Z</time></trkpt><trkpt lat="45.522085" lon="10.811945"><ele>114.0</ele><time>2026-04-26T10:40:12.754Z</time></trkpt><trkpt lat="45.52222" lon="10.8119533"><ele>114.0</ele><time>2026-04-26T10:40:13.754Z</time></trkpt><trkpt lat="45.5223633" lon="10.8119383"><ele>113.75</ele><time>2026-04-26T10:40:14.755Z</time></trkpt><trkpt lat="45.5225183" lon="10.8119067"><ele>113.5</ele><time>2026-04-26T10:40:15.754Z</time></trkpt><trkpt lat="45.522665" lon="10.8118733"><ele>113.25</ele><time>2026-04-26T10:40:16.754Z</time></trkpt><trkpt lat="45.5227967" lon="10.81184"><ele>113.0</ele><time>2026-04-26T10:40:17.754Z</time></trkpt><trkpt lat="45.52293" lon="10.8118067"><ele>112.5</ele><time>2026-04-26T10:40:18.754Z</time></trkpt><trkpt lat="45.5230567" lon="10.8117717"><ele>112.0</ele><time>2026-04-26T10:40:19.754Z</time></trkpt><trkpt lat="45.523175" lon="10.811745"><ele>111.5</ele><time>2026-04-26T10:40:20.754Z</time></trkpt><trkpt lat="45.5232867" lon="10.811705"><ele>111.0</ele><time>2026-04-26T10:40:21.755Z</time></trkpt><trkpt lat="45.5233917" lon="10.8116817"><ele>111.0</ele><time>2026-04-26T10:40:22.755Z</time></trkpt><trkpt lat="45.5234717" lon="10.81165"><ele>111.0</ele><time>2026-04-26T10:40:23.755Z</time></trkpt><trkpt lat="45.52357" lon="10.8116"><ele>111.0</ele><time>2026-04-26T10:40:25.755Z</time></trkpt><trkpt lat="45.5236367" lon="10.81158"><ele>111.0</ele><time>2026-04-26T10:40:40.755Z</time></trkpt><trkpt lat="45.5236833" lon="10.8114483"><ele>111.0</ele><time>2026-04-26T10:40:50.755Z</time></trkpt><trkpt lat="45.523675" lon="10.8113467"><ele>111.0</ele><time>2026-04-26T10:40:51.754Z</time></trkpt><trkpt lat="45.5236517" lon="10.811255"><ele>111.0</ele><time>2026-04-26T10:40:52.755Z</time></trkpt><trkpt lat="45.5236167" lon="10.8111617"><ele>111.0</ele><time>2026-04-26T10:40:53.754Z</time></trkpt><trkpt lat="45.5235733" lon="10.8110633"><ele>111.0</ele><time>2026-04-26T10:40:54.754Z</time></trkpt><trkpt lat="45.5235367" lon="10.81095"><ele>111.0</ele><time>2026-04-26T10:40:55.755Z</time></trkpt><trkpt lat="45.52349" lon="10.81084"><ele>111.0</ele><time>2026-04-26T10:40:56.755Z</time></trkpt><trkpt lat="45.5234483" lon="10.8107183"><ele>111.0</ele><time>2026-04-26T10:40:57.755Z</time></trkpt><trkpt lat="45.5234017" lon="10.8105917"><ele>111.0</ele><time>2026-04-26T10:40:58.754Z</time></trkpt><trkpt lat="45.5233567" lon="10.8104583"><ele>111.0</ele><time>2026-04-26T10:40:59.754Z</time></trkpt><trkpt lat="45.5233083" lon="10.8103183"><ele>111.0</ele><time>2026-04-26T10:41:00.754Z</time></trkpt><trkpt lat="45.52326" lon="10.8101667"><ele>111.0</ele><time>2026-04-26T10:41:01.754Z</time></trkpt><trkpt lat="45.5232083" lon="10.810005"><ele>111.0</ele><time>2026-04-26T10:41:02.754Z</time></trkpt><trkpt lat="45.5231517" lon="10.8098317"><ele>111.0</ele><time>2026-04-26T10:41:03.755Z</time></trkpt><trkpt lat="45.5231033" lon="10.80965"><ele>111.0</ele><time>2026-04-26T10:41:04.754Z</time></trkpt><trkpt lat="45.5230533" lon="10.80948"><ele>111.0</ele><time>2026-04-26T10:41:05.755Z</time></trkpt><trkpt lat="45.5230067" lon="10.8093067"><ele>111.5</ele><time>2026-04-26T10:41:06.754Z</time></trkpt><trkpt lat="45.5229567" lon="10.8091217"><ele>112.0</ele><time>2026-04-26T10:41:07.754Z</time></trkpt><trkpt lat="45.5229083" lon="10.808945"><ele>112.5</ele><time>2026-04-26T10:41:08.754Z</time></trkpt><trkpt lat="45.52286" lon="10.8087583"><ele>113.0</ele><time>2026-04-26T10:41:09.754Z</time></trkpt><trkpt lat="45.522815" lon="10.8086017"><ele>112.25</ele><time>2026-04-26T10:41:10.754Z</time></trkpt><trkpt lat="45.5227617" lon="10.8084217"><ele>111.5</ele><time>2026-04-26T10:41:11.754Z</time></trkpt><trkpt lat="45.522705" lon="10.8082567"><ele>110.75</ele><time>2026-04-26T10:41:12.754Z</time></trkpt><trkpt lat="45.522645" lon="10.80808"><ele>110.0</ele><time>2026-04-26T10:41:13.754Z</time></trkpt><trkpt lat="45.5225833" lon="10.8079083"><ele>110.0</ele><time>2026-04-26T10:41:14.755Z</time></trkpt><trkpt lat="45.5225233" lon="10.807735"><ele>110.0</ele><time>2026-04-26T10:41:15.754Z</time></trkpt><trkpt lat="45.5224617" lon="10.8075617"><ele>110.0</ele><time>2026-04-26T10:41:16.754Z</time></trkpt><trkpt lat="45.5224" lon="10.80739"><ele>110.0</ele><time>2026-04-26T10:41:17.754Z</time></trkpt><trkpt lat="45.5223417" lon="10.80721"><ele>109.75</ele><time>2026-04-26T10:41:18.754Z</time></trkpt><trkpt lat="45.5222767" lon="10.80703"><ele>109.5</ele><time>2026-04-26T10:41:19.754Z</time></trkpt><trkpt lat="45.5222133" lon="10.806845"><ele>109.25</ele><time>2026-04-26T10:41:20.754Z</time></trkpt><trkpt lat="45.52216" lon="10.8066667"><ele>109.0</ele><time>2026-04-26T10:41:21.754Z</time></trkpt><trkpt lat="45.5221183" lon="10.80647"><ele>107.5</ele><time>2026-04-26T10:41:22.755Z</time></trkpt><trkpt lat="45.5220983" lon="10.8062767"><ele>106.0</ele><time>2026-04-26T10:41:23.755Z</time></trkpt><trkpt lat="45.5220967" lon="10.8060767"><ele>104.5</ele><time>2026-04-26T10:41:24.754Z</time></trkpt><trkpt lat="45.5221167" lon="10.8058867"><ele>103.0</ele><time>2026-04-26T10:41:25.754Z</time></trkpt><trkpt lat="45.52215" lon="10.805685"><ele>101.0</ele><time>2026-04-26T10:41:26.754Z</time></trkpt><trkpt lat="45.5221917" lon="10.8054917"><ele>99.0</ele><time>2026-04-26T10:41:27.754Z</time></trkpt><trkpt lat="45.52223" lon="10.8053133"><ele>97.0</ele><time>2026-04-26T10:41:28.755Z</time></trkpt><trkpt lat="45.5222733" lon="10.8051383"><ele>95.0</ele><time>2026-04-26T10:41:29.754Z</time></trkpt><trkpt lat="45.522315" lon="10.8049617"><ele>95.0</ele><time>2026-04-26T10:41:30.755Z</time></trkpt><trkpt lat="45.5223633" lon="10.8048083"><ele>95.0</ele><time>2026-04-26T10:41:31.754Z</time></trkpt><trkpt lat="45.522405" lon="10.8046633"><ele>95.0</ele><time>2026-04-26T10:41:32.754Z</time></trkpt><trkpt lat="45.5224483" lon="10.8045383"><ele>95.0</ele><time>2026-04-26T10:41:33.754Z</time></trkpt><trkpt lat="45.5224817" lon="10.8044067"><ele>95.0</ele><time>2026-04-26T10:41:34.755Z</time></trkpt><trkpt lat="45.5225267" lon="10.804255"><ele>95.0</ele><time>2026-04-26T10:41:35.754Z</time></trkpt><trkpt lat="45.52259" lon="10.8041133"><ele>95.0</ele><time>2026-04-26T10:41:36.754Z</time></trkpt><trkpt lat="45.5226333" lon="10.80398"><ele>95.0</ele><time>2026-04-26T10:41:37.755Z</time></trkpt><trkpt lat="45.5226683" lon="10.80384"><ele>95.0</ele><time>2026-04-26T10:41:38.754Z</time></trkpt><trkpt lat="45.5226983" lon="10.8037217"><ele>95.0</ele><time>2026-04-26T10:41:39.754Z</time></trkpt><trkpt lat="45.52273" lon="10.8036083"><ele>95.4</ele><time>2026-04-26T10:41:40.755Z</time></trkpt><trkpt lat="45.52277" lon="10.80349"><ele>95.8</ele><time>2026-04-26T10:41:41.754Z</time></trkpt><trkpt lat="45.522815" lon="10.8033783"><ele>96.19999999999999</ele><time>2026-04-26T10:41:42.755Z</time></trkpt><trkpt lat="45.522865" lon="10.8032633"><ele>96.6</ele><time>2026-04-26T10:41:43.755Z</time></trkpt><trkpt lat="45.5229217" lon="10.8031517"><ele>97.0</ele><time>2026-04-26T10:41:44.754Z</time></trkpt><trkpt lat="45.52298" lon="10.8030433"><ele>97.16666666666667</ele><time>2026-04-26T10:41:45.754Z</time></trkpt><trkpt lat="45.5230367" lon="10.8029433"><ele>97.33333333333334</ele><time>2026-04-26T10:41:46.754Z</time></trkpt><trkpt lat="45.5230967" lon="10.802855"><ele>97.5</ele><time>2026-04-26T10:41:47.754Z</time></trkpt><trkpt lat="45.52316" lon="10.8027867"><ele>97.66666666666666</ele><time>2026-04-26T10:41:48.755Z</time></trkpt><trkpt lat="45.52323" lon="10.8027217"><ele>97.83333333333333</ele><time>2026-04-26T10:41:49.753Z</time></trkpt><trkpt lat="45.523315" lon="10.80269"><ele>98.0</ele><time>2026-04-26T10:41:50.753Z</time></trkpt><trkpt lat="45.5234067" lon="10.8026867"><ele>98.0</ele><time>2026-04-26T10:41:51.753Z</time></trkpt><trkpt lat="45.523505" lon="10.8027067"><ele>98.0</ele><time>2026-04-26T10:41:52.754Z</time></trkpt><trkpt lat="45.5236117" lon="10.8027083"><ele>98.0</ele><time>2026-04-26T10:41:53.753Z</time></trkpt><trkpt lat="45.5237183" lon="10.80269"><ele>98.0</ele><time>2026-04-26T10:41:54.753Z</time></trkpt><trkpt lat="45.5238117" lon="10.80264"><ele>98.0</ele><time>2026-04-26T10:41:55.753Z</time></trkpt><trkpt lat="45.5238933" lon="10.8025483"><ele>98.0</ele><time>2026-04-26T10:41:56.754Z</time></trkpt><trkpt lat="45.5239833" lon="10.80243"><ele>98.0</ele><time>2026-04-26T10:41:57.753Z</time></trkpt><trkpt lat="45.524075" lon="10.802305"><ele>98.0</ele><time>2026-04-26T10:41:58.754Z</time></trkpt><trkpt lat="45.5241583" lon="10.802185"><ele>98.0</ele><time>2026-04-26T10:41:59.754Z</time></trkpt><trkpt lat="45.5242433" lon="10.8020617"><ele>98.0</ele><time>2026-04-26T10:42:00.753Z</time></trkpt><trkpt lat="45.5243383" lon="10.80194"><ele>98.0</ele><time>2026-04-26T10:42:01.753Z</time></trkpt><trkpt lat="45.5244367" lon="10.8018467"><ele>98.0</ele><time>2026-04-26T10:42:02.753Z</time></trkpt><trkpt lat="45.5245483" lon="10.8017767"><ele>98.0</ele><time>2026-04-26T10:42:03.753Z</time></trkpt><trkpt lat="45.5246667" lon="10.801725"><ele>98.25</ele><time>2026-04-26T10:42:04.753Z</time></trkpt><trkpt lat="45.5247933" lon="10.8016817"><ele>98.5</ele><time>2026-04-26T10:42:05.754Z</time></trkpt><trkpt lat="45.5249167" lon="10.8016367"><ele>98.75</ele><time>2026-04-26T10:42:06.753Z</time></trkpt><trkpt lat="45.52503" lon="10.80159"><ele>99.0</ele><time>2026-04-26T10:42:07.753Z</time></trkpt><trkpt lat="45.5251383" lon="10.8015333"><ele>99.0</ele><time>2026-04-26T10:42:08.753Z</time></trkpt><trkpt lat="45.5252333" lon="10.801465"><ele>99.0</ele><time>2026-04-26T10:42:09.753Z</time></trkpt><trkpt lat="45.52533" lon="10.8013917"><ele>99.0</ele><time>2026-04-26T10:42:10.753Z</time></trkpt><trkpt lat="45.5254283" lon="10.801305"><ele>99.0</ele><time>2026-04-26T10:42:11.754Z</time></trkpt><trkpt lat="45.5255133" lon="10.8012033"><ele>99.0</ele><time>2026-04-26T10:42:12.753Z</time></trkpt><trkpt lat="45.5256267" lon="10.8011033"><ele>99.25</ele><time>2026-04-26T10:42:13.753Z</time></trkpt><trkpt lat="45.5257333" lon="10.8009883"><ele>99.5</ele><time>2026-04-26T10:42:14.754Z</time></trkpt><trkpt lat="45.5258167" lon="10.8008583"><ele>99.75</ele><time>2026-04-26T10:42:15.753Z</time></trkpt><trkpt lat="45.525905" lon="10.8007333"><ele>100.0</ele><time>2026-04-26T10:42:16.754Z</time></trkpt><trkpt lat="45.525995" lon="10.8005967"><ele>100.0</ele><time>2026-04-26T10:42:17.754Z</time></trkpt><trkpt lat="45.5260817" lon="10.8004567"><ele>100.0</ele><time>2026-04-26T10:42:18.753Z</time></trkpt><trkpt lat="45.5261733" lon="10.80033"><ele>100.0</ele><time>2026-04-26T10:42:19.753Z</time></trkpt><trkpt lat="45.526275" lon="10.8002283"><ele>100.0</ele><time>2026-04-26T10:42:20.753Z</time></trkpt><trkpt lat="45.5263683" lon="10.800165"><ele>100.2</ele><time>2026-04-26T10:42:21.754Z</time></trkpt><trkpt lat="45.5264783" lon="10.800125"><ele>100.4</ele><time>2026-04-26T10:42:22.753Z</time></trkpt><trkpt lat="45.526585" lon="10.80013"><ele>100.6</ele><time>2026-04-26T10:42:23.753Z</time></trkpt><trkpt lat="45.5266867" lon="10.8001533"><ele>100.8</ele><time>2026-04-26T10:42:24.753Z</time></trkpt><trkpt lat="45.5267983" lon="10.800165"><ele>101.0</ele><time>2026-04-26T10:42:25.753Z</time></trkpt><trkpt lat="45.5269083" lon="10.8001583"><ele>101.0</ele><time>2026-04-26T10:42:26.753Z</time></trkpt><trkpt lat="45.5270183" lon="10.8001533"><ele>101.0</ele><time>2026-04-26T10:42:27.753Z</time></trkpt><trkpt lat="45.5271217" lon="10.8001933"><ele>101.0</ele><time>2026-04-26T10:42:28.753Z</time></trkpt><trkpt lat="45.5272267" lon="10.8002667"><ele>101.0</ele><time>2026-04-26T10:42:29.753Z</time></trkpt><trkpt lat="45.5273333" lon="10.8003517"><ele>102.5</ele><time>2026-04-26T10:42:30.753Z</time></trkpt><trkpt lat="45.5274517" lon="10.8004217"><ele>104.0</ele><time>2026-04-26T10:42:31.754Z</time></trkpt><trkpt lat="45.5275633" lon="10.8004933"><ele>105.5</ele><time>2026-04-26T10:42:32.754Z</time></trkpt><trkpt lat="45.5276883" lon="10.8005667"><ele>107.0</ele><time>2026-04-26T10:42:33.754Z</time></trkpt><trkpt lat="45.5278167" lon="10.8006283"><ele>109.66666666666666</ele><time>2026-04-26T10:42:34.753Z</time></trkpt><trkpt lat="45.5279533" lon="10.8006883"><ele>112.33333333333334</ele><time>2026-04-26T10:42:35.754Z</time></trkpt><trkpt lat="45.5280933" lon="10.800735"><ele>115.0</ele><time>2026-04-26T10:42:36.753Z</time></trkpt><trkpt lat="45.5282467" lon="10.8008233"><ele>115.0</ele><time>2026-04-26T10:42:37.753Z</time></trkpt><trkpt lat="45.5283867" lon="10.80089"><ele>115.0</ele><time>2026-04-26T10:42:38.753Z</time></trkpt><trkpt lat="45.5285433" lon="10.8009667"><ele>115.0</ele><time>2026-04-26T10:42:39.754Z</time></trkpt><trkpt lat="45.5286833" lon="10.8010117"><ele>114.0</ele><time>2026-04-26T10:42:40.754Z</time></trkpt><trkpt lat="45.5288417" lon="10.80108"><ele>113.0</ele><time>2026-04-26T10:42:41.753Z</time></trkpt><trkpt lat="45.5289933" lon="10.8011617"><ele>112.0</ele><time>2026-04-26T10:42:42.753Z</time></trkpt><trkpt lat="45.529145" lon="10.8012367"><ele>112.0</ele><time>2026-04-26T10:42:43.753Z</time></trkpt><trkpt lat="45.5292983" lon="10.8013133"><ele>112.0</ele><time>2026-04-26T10:42:44.753Z</time></trkpt><trkpt lat="45.52945" lon="10.80139"><ele>112.0</ele><time>2026-04-26T10:42:45.753Z</time></trkpt><trkpt lat="45.5296033" lon="10.8014683"><ele>115.0</ele><time>2026-04-26T10:42:46.753Z</time></trkpt><trkpt lat="45.5297633" lon="10.8015483"><ele>118.0</ele><time>2026-04-26T10:42:47.753Z</time></trkpt><trkpt lat="45.5299117" lon="10.8016217"><ele>121.0</ele><time>2026-04-26T10:42:48.754Z</time></trkpt><trkpt lat="45.530075" lon="10.8017017"><ele>121.0</ele><time>2026-04-26T10:42:49.754Z</time></trkpt><trkpt lat="45.530235" lon="10.8017783"><ele>121.0</ele><time>2026-04-26T10:42:50.753Z</time></trkpt><trkpt lat="45.5304067" lon="10.801865"><ele>121.0</ele><time>2026-04-26T10:42:51.753Z</time></trkpt><trkpt lat="45.5305617" lon="10.80196"><ele>119.33333333333334</ele><time>2026-04-26T10:42:52.754Z</time></trkpt><trkpt lat="45.5307117" lon="10.8020517"><ele>117.66666666666666</ele><time>2026-04-26T10:42:53.754Z</time></trkpt><trkpt lat="45.5308467" lon="10.8021167"><ele>116.0</ele><time>2026-04-26T10:42:54.754Z</time></trkpt><trkpt lat="45.530985" lon="10.8021733"><ele>116.0</ele><time>2026-04-26T10:42:55.753Z</time></trkpt><trkpt lat="45.531095" lon="10.8022317"><ele>116.0</ele><time>2026-04-26T10:42:56.754Z</time></trkpt><trkpt lat="45.5311983" lon="10.80227"><ele>116.0</ele><time>2026-04-26T10:42:57.753Z</time></trkpt><trkpt lat="45.5313183" lon="10.8023"><ele>116.0</ele><time>2026-04-26T10:42:58.753Z</time></trkpt><trkpt lat="45.5314233" lon="10.802315"><ele>118.75</ele><time>2026-04-26T10:42:59.753Z</time></trkpt><trkpt lat="45.5315283" lon="10.8022967"><ele>121.5</ele><time>2026-04-26T10:43:00.754Z</time></trkpt><trkpt lat="45.5316383" lon="10.8022533"><ele>124.25</ele><time>2026-04-26T10:43:01.753Z</time></trkpt><trkpt lat="45.53175" lon="10.8021833"><ele>127.0</ele><time>2026-04-26T10:43:02.753Z</time></trkpt><trkpt lat="45.53186" lon="10.802105"><ele>127.0</ele><time>2026-04-26T10:43:03.754Z</time></trkpt><trkpt lat="45.53197" lon="10.8020417"><ele>127.0</ele><time>2026-04-26T10:43:04.753Z</time></trkpt><trkpt lat="45.53208" lon="10.80199"><ele>127.0</ele><time>2026-04-26T10:43:05.753Z</time></trkpt><trkpt lat="45.5322" lon="10.8019383"><ele>127.0</ele><time>2026-04-26T10:43:06.754Z</time></trkpt><trkpt lat="45.5323283" lon="10.80191"><ele>128.75</ele><time>2026-04-26T10:43:07.753Z</time></trkpt><trkpt lat="45.532465" lon="10.8018867"><ele>130.5</ele><time>2026-04-26T10:43:08.753Z</time></trkpt><trkpt lat="45.5325917" lon="10.8018633"><ele>132.25</ele><time>2026-04-26T10:43:09.753Z</time></trkpt><trkpt lat="45.5327217" lon="10.80185"><ele>134.0</ele><time>2026-04-26T10:43:10.753Z</time></trkpt><trkpt lat="45.532855" lon="10.8018433"><ele>136.0</ele><time>2026-04-26T10:43:11.753Z</time></trkpt><trkpt lat="45.5329967" lon="10.8018283"><ele>138.0</ele><time>2026-04-26T10:43:12.754Z</time></trkpt><trkpt lat="45.533145" lon="10.8018233"><ele>140.0</ele><time>2026-04-26T10:43:13.753Z</time></trkpt><trkpt lat="45.5332917" lon="10.8018133"><ele>142.0</ele><time>2026-04-26T10:43:14.754Z</time></trkpt><trkpt lat="45.5334383" lon="10.8018233"><ele>142.0</ele><time>2026-04-26T10:43:15.753Z</time></trkpt><trkpt lat="45.5336" lon="10.8018183"><ele>142.0</ele><time>2026-04-26T10:43:16.753Z</time></trkpt><trkpt lat="45.533765" lon="10.80182"><ele>142.0</ele><time>2026-04-26T10:43:17.753Z</time></trkpt><trkpt lat="45.533925" lon="10.8018317"><ele>141.66666666666669</ele><time>2026-04-26T10:43:18.753Z</time></trkpt><trkpt lat="45.5341" lon="10.8018317"><ele>141.33333333333334</ele><time>2026-04-26T10:43:19.753Z</time></trkpt><trkpt lat="45.5342767" lon="10.8018533"><ele>141.0</ele><time>2026-04-26T10:43:20.753Z</time></trkpt><trkpt lat="45.5344633" lon="10.801875"><ele>141.33333333333334</ele><time>2026-04-26T10:43:21.754Z</time></trkpt><trkpt lat="45.53464" lon="10.8019017"><ele>141.66666666666669</ele><time>2026-04-26T10:43:22.753Z</time></trkpt><trkpt lat="45.5348217" lon="10.8019217"><ele>142.0</ele><time>2026-04-26T10:43:23.754Z</time></trkpt><trkpt lat="45.534995" lon="10.801945"><ele>142.0</ele><time>2026-04-26T10:43:24.754Z</time></trkpt><trkpt lat="45.5351667" lon="10.8019717"><ele>142.0</ele><time>2026-04-26T10:43:25.753Z</time></trkpt><trkpt lat="45.535345" lon="10.802015"><ele>142.0</ele><time>2026-04-26T10:43:26.753Z</time></trkpt><trkpt lat="45.53552" lon="10.80204"><ele>143.33333333333334</ele><time>2026-04-26T10:43:27.754Z</time></trkpt><trkpt lat="45.5356733" lon="10.80206"><ele>144.66666666666666</ele><time>2026-04-26T10:43:28.753Z</time></trkpt><trkpt lat="45.5358417" lon="10.802095"><ele>146.0</ele><time>2026-04-26T10:43:29.754Z</time></trkpt><trkpt lat="45.5359983" lon="10.80211"><ele>146.0</ele><time>2026-04-26T10:43:30.753Z</time></trkpt><trkpt lat="45.53617" lon="10.8021333"><ele>146.0</ele><time>2026-04-26T10:43:31.754Z</time></trkpt><trkpt lat="45.5363533" lon="10.80215"><ele>146.0</ele><time>2026-04-26T10:43:32.753Z</time></trkpt><trkpt lat="45.536545" lon="10.802135"><ele>146.33333333333331</ele><time>2026-04-26T10:43:33.754Z</time></trkpt><trkpt lat="45.5367433" lon="10.8020967"><ele>146.66666666666666</ele><time>2026-04-26T10:43:34.754Z</time></trkpt><trkpt lat="45.5369267" lon="10.8020567"><ele>147.0</ele><time>2026-04-26T10:43:35.754Z</time></trkpt><trkpt lat="45.5371283" lon="10.8020283"><ele>147.66666666666666</ele><time>2026-04-26T10:43:36.753Z</time></trkpt><trkpt lat="45.53732" lon="10.802005"><ele>148.33333333333331</ele><time>2026-04-26T10:43:37.754Z</time></trkpt><trkpt lat="45.5375067" lon="10.801975"><ele>149.0</ele><time>2026-04-26T10:43:38.754Z</time></trkpt><trkpt lat="45.537685" lon="10.801945"><ele>149.0</ele><time>2026-04-26T10:43:39.754Z</time></trkpt><trkpt lat="45.5378567" lon="10.80192"><ele>149.0</ele><time>2026-04-26T10:43:40.753Z</time></trkpt><trkpt lat="45.53802" lon="10.801885"><ele>149.0</ele><time>2026-04-26T10:43:41.753Z</time></trkpt><trkpt lat="45.5381867" lon="10.80186"><ele>148.66666666666666</ele><time>2026-04-26T10:43:42.754Z</time></trkpt><trkpt lat="45.538345" lon="10.801835"><ele>148.33333333333334</ele><time>2026-04-26T10:43:43.753Z</time></trkpt><trkpt lat="45.5385217" lon="10.8018317"><ele>148.0</ele><time>2026-04-26T10:43:44.753Z</time></trkpt><trkpt lat="45.5386767" lon="10.8017983"><ele>150.0</ele><time>2026-04-26T10:43:45.754Z</time></trkpt><trkpt lat="45.53884" lon="10.8017733"><ele>152.0</ele><time>2026-04-26T10:43:46.753Z</time></trkpt><trkpt lat="45.5390167" lon="10.8017733"><ele>154.0</ele><time>2026-04-26T10:43:47.754Z</time></trkpt><trkpt lat="45.5391983" lon="10.8017667"><ele>154.0</ele><time>2026-04-26T10:43:48.753Z</time></trkpt><trkpt lat="45.5393817" lon="10.8017717"><ele>154.0</ele><time>2026-04-26T10:43:49.753Z</time></trkpt><trkpt lat="45.5395517" lon="10.80177"><ele>154.0</ele><time>2026-04-26T10:43:50.753Z</time></trkpt><trkpt lat="45.5397333" lon="10.8017917"><ele>153.0</ele><time>2026-04-26T10:43:51.753Z</time></trkpt><trkpt lat="45.5399033" lon="10.8018367"><ele>152.0</ele><time>2026-04-26T10:43:52.753Z</time></trkpt><trkpt lat="45.540075" lon="10.801885"><ele>151.0</ele><time>2026-04-26T10:43:53.754Z</time></trkpt><trkpt lat="45.5402533" lon="10.8019483"><ele>152.0</ele><time>2026-04-26T10:43:54.754Z</time></trkpt><trkpt lat="45.5404033" lon="10.8019683"><ele>153.0</ele><time>2026-04-26T10:43:55.753Z</time></trkpt><trkpt lat="45.5405617" lon="10.8019867"><ele>154.0</ele><time>2026-04-26T10:43:56.754Z</time></trkpt><trkpt lat="45.5407233" lon="10.80201"><ele>154.0</ele><time>2026-04-26T10:43:57.754Z</time></trkpt><trkpt lat="45.5408983" lon="10.8020383"><ele>154.0</ele><time>2026-04-26T10:43:58.753Z</time></trkpt><trkpt lat="45.5410617" lon="10.8020783"><ele>154.0</ele><time>2026-04-26T10:43:59.753Z</time></trkpt><trkpt lat="45.54122" lon="10.80209"><ele>154.25</ele><time>2026-04-26T10:44:00.753Z</time></trkpt><trkpt lat="45.541385" lon="10.802115"><ele>154.5</ele><time>2026-04-26T10:44:01.754Z</time></trkpt><trkpt lat="45.5415233" lon="10.8021233"><ele>154.75</ele><time>2026-04-26T10:44:02.753Z</time></trkpt><trkpt lat="45.54164" lon="10.8021233"><ele>155.0</ele><time>2026-04-26T10:44:03.753Z</time></trkpt><trkpt lat="45.5417367" lon="10.802105"><ele>155.0</ele><time>2026-04-26T10:44:04.754Z</time></trkpt><trkpt lat="45.5417967" lon="10.8020483"><ele>155.0</ele><time>2026-04-26T10:44:05.753Z</time></trkpt><trkpt lat="45.5418333" lon="10.8019617"><ele>155.0</ele><time>2026-04-26T10:44:06.753Z</time></trkpt><trkpt lat="45.5418383" lon="10.8018333"><ele>155.0</ele><time>2026-04-26T10:44:07.753Z</time></trkpt><trkpt lat="45.541845" lon="10.80167"><ele>155.0</ele><time>2026-04-26T10:44:08.753Z</time></trkpt><trkpt lat="45.54185" lon="10.8014717"><ele>156.0</ele><time>2026-04-26T10:44:09.753Z</time></trkpt><trkpt lat="45.541855" lon="10.801265"><ele>157.0</ele><time>2026-04-26T10:44:10.753Z</time></trkpt><trkpt lat="45.5418667" lon="10.80102"><ele>158.0</ele><time>2026-04-26T10:44:11.754Z</time></trkpt><trkpt lat="45.5418783" lon="10.8007767"><ele>160.0</ele><time>2026-04-26T10:44:12.753Z</time></trkpt><trkpt lat="45.541895" lon="10.8005317"><ele>162.0</ele><time>2026-04-26T10:44:13.754Z</time></trkpt><trkpt lat="45.5419133" lon="10.800285"><ele>164.0</ele><time>2026-04-26T10:44:14.753Z</time></trkpt><trkpt lat="45.5419283" lon="10.800035"><ele>164.33333333333331</ele><time>2026-04-26T10:44:15.753Z</time></trkpt><trkpt lat="45.5419433" lon="10.7997883"><ele>164.66666666666666</ele><time>2026-04-26T10:44:16.753Z</time></trkpt><trkpt lat="45.5419633" lon="10.79955"><ele>165.0</ele><time>2026-04-26T10:44:17.753Z</time></trkpt><trkpt lat="45.5419917" lon="10.7992967"><ele>165.0</ele><time>2026-04-26T10:44:18.754Z</time></trkpt><trkpt lat="45.542015" lon="10.7990483"><ele>165.0</ele><time>2026-04-26T10:44:19.753Z</time></trkpt><trkpt lat="45.542035" lon="10.7988067"><ele>165.0</ele><time>2026-04-26T10:44:20.754Z</time></trkpt><trkpt lat="45.5420533" lon="10.7985733"><ele>166.0</ele><time>2026-04-26T10:44:21.754Z</time></trkpt><trkpt lat="45.54207" lon="10.7983333"><ele>167.0</ele><time>2026-04-26T10:44:22.753Z</time></trkpt><trkpt lat="45.5420933" lon="10.798095"><ele>168.0</ele><time>2026-04-26T10:44:23.753Z</time></trkpt><trkpt lat="45.54212" lon="10.7978483"><ele>168.66666666666666</ele><time>2026-04-26T10:44:24.753Z</time></trkpt><trkpt lat="45.5421383" lon="10.7975883"><ele>169.33333333333331</ele><time>2026-04-26T10:44:25.753Z</time></trkpt><trkpt lat="45.54215" lon="10.797335"><ele>170.0</ele><time>2026-04-26T10:44:26.753Z</time></trkpt><trkpt lat="45.542165" lon="10.7970767"><ele>170.0</ele><time>2026-04-26T10:44:27.754Z</time></trkpt><trkpt lat="45.5421833" lon="10.7968317"><ele>170.0</ele><time>2026-04-26T10:44:28.753Z</time></trkpt><trkpt lat="45.542185" lon="10.79663"><ele>170.0</ele><time>2026-04-26T10:44:29.753Z</time></trkpt><trkpt lat="45.5421933" lon="10.79646"><ele>170.0</ele><time>2026-04-26T10:44:30.753Z</time></trkpt><trkpt lat="45.5422133" lon="10.7963417"><ele>170.0</ele><time>2026-04-26T10:44:31.753Z</time></trkpt><trkpt lat="45.542245" lon="10.7962483"><ele>170.0</ele><time>2026-04-26T10:44:32.753Z</time></trkpt><trkpt lat="45.5422883" lon="10.7961767"><ele>170.0</ele><time>2026-04-26T10:44:33.753Z</time></trkpt><trkpt lat="45.5423467" lon="10.7961317"><ele>170.0</ele><time>2026-04-26T10:44:34.754Z</time></trkpt><trkpt lat="45.542475" lon="10.7961967"><ele>170.0</ele><time>2026-04-26T10:44:35.753Z</time></trkpt><trkpt lat="45.5426167" lon="10.7962617"><ele>170.0</ele><time>2026-04-26T10:44:36.753Z</time></trkpt><trkpt lat="45.5427683" lon="10.7963083"><ele>170.0</ele><time>2026-04-26T10:44:37.752Z</time></trkpt><trkpt lat="45.5429333" lon="10.7963633"><ele>170.0</ele><time>2026-04-26T10:44:38.752Z</time></trkpt><trkpt lat="45.5430967" lon="10.7963917"><ele>171.0</ele><time>2026-04-26T10:44:39.753Z</time></trkpt><trkpt lat="45.5432517" lon="10.7964267"><ele>172.0</ele><time>2026-04-26T10:44:40.752Z</time></trkpt><trkpt lat="45.5434117" lon="10.7964617"><ele>173.0</ele><time>2026-04-26T10:44:41.752Z</time></trkpt><trkpt lat="45.5435833" lon="10.79649"><ele>173.66666666666666</ele><time>2026-04-26T10:44:42.753Z</time></trkpt><trkpt lat="45.543745" lon="10.7965217"><ele>174.33333333333334</ele><time>2026-04-26T10:44:43.753Z</time></trkpt><trkpt lat="45.54391" lon="10.7965533"><ele>175.0</ele><time>2026-04-26T10:44:44.753Z</time></trkpt><trkpt lat="45.5440717" lon="10.7965783"><ele>175.0</ele><time>2026-04-26T10:44:45.752Z</time></trkpt><trkpt lat="45.5442367" lon="10.7966067"><ele>175.0</ele><time>2026-04-26T10:44:46.752Z</time></trkpt><trkpt lat="45.5444217" lon="10.796665"><ele>175.0</ele><time>2026-04-26T10:44:47.752Z</time></trkpt><trkpt lat="45.5445633" lon="10.7966883"><ele>175.0</ele><time>2026-04-26T10:44:48.752Z</time></trkpt><trkpt lat="45.5447183" lon="10.7967217"><ele>175.0</ele><time>2026-04-26T10:44:49.753Z</time></trkpt><trkpt lat="45.5448583" lon="10.79675"><ele>175.0</ele><time>2026-04-26T10:44:50.752Z</time></trkpt><trkpt lat="45.544995" lon="10.7967867"><ele>175.0</ele><time>2026-04-26T10:44:51.752Z</time></trkpt><trkpt lat="45.545135" lon="10.7968133"><ele>175.0</ele><time>2026-04-26T10:44:52.753Z</time></trkpt><trkpt lat="45.54528" lon="10.796835"><ele>175.0</ele><time>2026-04-26T10:44:53.752Z</time></trkpt><trkpt lat="45.5453933" lon="10.796845"><ele>175.0</ele><time>2026-04-26T10:44:54.752Z</time></trkpt><trkpt lat="45.54549" lon="10.7968817"><ele>175.0</ele><time>2026-04-26T10:44:55.752Z</time></trkpt><trkpt lat="45.5455817" lon="10.7969017"><ele>174.8</ele><time>2026-04-26T10:44:56.752Z</time></trkpt><trkpt lat="45.5456867" lon="10.7969067"><ele>174.6</ele><time>2026-04-26T10:44:58.752Z</time></trkpt><trkpt lat="45.5457533" lon="10.79678"><ele>174.39999999999998</ele><time>2026-04-26T10:45:01.752Z</time></trkpt><trkpt lat="45.545765" lon="10.7966533"><ele>174.2</ele><time>2026-04-26T10:45:02.752Z</time></trkpt><trkpt lat="45.5457867" lon="10.7964967"><ele>174.0</ele><time>2026-04-26T10:45:03.752Z</time></trkpt><trkpt lat="45.54581" lon="10.79629"><ele>175.0</ele><time>2026-04-26T10:45:04.752Z</time></trkpt><trkpt lat="45.54583" lon="10.7960733"><ele>176.0</ele><time>2026-04-26T10:45:05.752Z</time></trkpt><trkpt lat="45.5458583" lon="10.795855"><ele>177.0</ele><time>2026-04-26T10:45:06.752Z</time></trkpt><trkpt lat="45.545885" lon="10.7956333"><ele>177.25</ele><time>2026-04-26T10:45:07.752Z</time></trkpt><trkpt lat="45.5459167" lon="10.795465"><ele>177.5</ele><time>2026-04-26T10:45:08.753Z</time></trkpt><trkpt lat="45.54596" lon="10.79529"><ele>177.75</ele><time>2026-04-26T10:45:09.753Z</time></trkpt><trkpt lat="45.5459867" lon="10.7951117"><ele>178.0</ele><time>2026-04-26T10:45:10.752Z</time></trkpt><trkpt lat="45.5460117" lon="10.7949417"><ele>178.5</ele><time>2026-04-26T10:45:11.752Z</time></trkpt><trkpt lat="45.5460267" lon="10.7947417"><ele>179.0</ele><time>2026-04-26T10:45:12.753Z</time></trkpt><trkpt lat="45.5460533" lon="10.79454"><ele>179.5</ele><time>2026-04-26T10:45:13.752Z</time></trkpt><trkpt lat="45.5460883" lon="10.794325"><ele>180.0</ele><time>2026-04-26T10:45:14.753Z</time></trkpt><trkpt lat="45.5461267" lon="10.7941233"><ele>180.5</ele><time>2026-04-26T10:45:15.753Z</time></trkpt><trkpt lat="45.54615" lon="10.79392"><ele>181.0</ele><time>2026-04-26T10:45:16.752Z</time></trkpt><trkpt lat="45.5461817" lon="10.79373"><ele>181.5</ele><time>2026-04-26T10:45:17.752Z</time></trkpt><trkpt lat="45.5462017" lon="10.7935517"><ele>182.0</ele><time>2026-04-26T10:45:18.752Z</time></trkpt><trkpt lat="45.5462317" lon="10.793405"><ele>182.0</ele><time>2026-04-26T10:45:19.752Z</time></trkpt><trkpt lat="45.5462533" lon="10.7932883"><ele>182.0</ele><time>2026-04-26T10:45:20.752Z</time></trkpt><trkpt lat="45.5462817" lon="10.7931767"><ele>182.0</ele><time>2026-04-26T10:45:22.752Z</time></trkpt><trkpt lat="45.5463783" lon="10.7931267"><ele>182.0</ele><time>2026-04-26T10:45:25.752Z</time></trkpt><trkpt lat="45.5464533" lon="10.79314"><ele>182.0</ele><time>2026-04-26T10:45:26.752Z</time></trkpt><trkpt lat="45.5465367" lon="10.79316"><ele>182.0</ele><time>2026-04-26T10:45:27.752Z</time></trkpt><trkpt lat="45.5466317" lon="10.7932133"><ele>182.0</ele><time>2026-04-26T10:45:28.752Z</time></trkpt><trkpt lat="45.5467383" lon="10.79327"><ele>182.0</ele><time>2026-04-26T10:45:29.752Z</time></trkpt><trkpt lat="45.5468633" lon="10.7933483"><ele>182.0</ele><time>2026-04-26T10:45:30.752Z</time></trkpt><trkpt lat="45.5469833" lon="10.7934183"><ele>182.0</ele><time>2026-04-26T10:45:31.752Z</time></trkpt><trkpt lat="45.5470967" lon="10.7934733"><ele>182.0</ele><time>2026-04-26T10:45:32.753Z</time></trkpt><trkpt lat="45.5471817" lon="10.7935183"><ele>182.0</ele><time>2026-04-26T10:45:33.752Z</time></trkpt><trkpt lat="45.5472567" lon="10.7935533"><ele>182.0</ele><time>2026-04-26T10:45:34.753Z</time></trkpt><trkpt lat="45.54732" lon="10.7935683"><ele>182.0</ele><time>2026-04-26T10:45:35.752Z</time></trkpt><trkpt lat="45.5474217" lon="10.7935983"><ele>182.0</ele><time>2026-04-26T10:45:37.752Z</time></trkpt><trkpt lat="45.547435" lon="10.7934917"><ele>182.0</ele><time>2026-04-26T10:47:15.753Z</time></trkpt><trkpt lat="45.54746" lon="10.79338"><ele>182.0</ele><time>2026-04-26T10:47:17.752Z</time></trkpt><trkpt lat="45.5475" lon="10.793215"><ele>182.0</ele><time>2026-04-26T10:47:19.752Z</time></trkpt><trkpt lat="45.5475217" lon="10.7931233"><ele>182.0</ele><time>2026-04-26T10:47:20.752Z</time></trkpt><trkpt lat="45.5475417" lon="10.7930283"><ele>182.0</ele><time>2026-04-26T10:47:21.752Z</time></trkpt><trkpt lat="45.547565" lon="10.79293"><ele>182.0</ele><time>2026-04-26T10:47:22.752Z</time></trkpt><trkpt lat="45.54759" lon="10.7928267"><ele>182.0</ele><time>2026-04-26T10:47:23.751Z</time></trkpt><trkpt lat="45.547605" lon="10.7927267"><ele>181.8</ele><time>2026-04-26T10:47:24.751Z</time></trkpt><trkpt lat="45.5476233" lon="10.7926133"><ele>181.6</ele><time>2026-04-26T10:47:25.751Z</time></trkpt><trkpt lat="45.547665" lon="10.7924717"><ele>181.4</ele><time>2026-04-26T10:47:27.751Z</time></trkpt><trkpt lat="45.547765" lon="10.79242"><ele>181.20000000000002</ele><time>2026-04-26T10:47:29.751Z</time></trkpt><trkpt lat="45.54789" lon="10.79247"><ele>181.0</ele><time>2026-04-26T10:47:31.752Z</time></trkpt><trkpt lat="45.54796" lon="10.7925433"><ele>181.4</ele><time>2026-04-26T10:47:32.751Z</time></trkpt><trkpt lat="45.548035" lon="10.79264"><ele>181.8</ele><time>2026-04-26T10:47:33.751Z</time></trkpt><trkpt lat="45.5481033" lon="10.7926967"><ele>182.20000000000002</ele><time>2026-04-26T10:47:34.751Z</time></trkpt><trkpt lat="45.5481883" lon="10.7927567"><ele>182.60000000000002</ele><time>2026-04-26T10:47:35.752Z</time></trkpt><trkpt lat="45.548285" lon="10.792805"><ele>183.0</ele><time>2026-04-26T10:47:36.751Z</time></trkpt><trkpt lat="45.5483867" lon="10.7928517"><ele>183.0</ele><time>2026-04-26T10:47:37.751Z</time></trkpt><trkpt lat="45.5485083" lon="10.7928817"><ele>183.0</ele><time>2026-04-26T10:47:38.752Z</time></trkpt><trkpt lat="45.5486317" lon="10.7928883"><ele>183.0</ele><time>2026-04-26T10:47:39.752Z</time></trkpt><trkpt lat="45.5487583" lon="10.7928883"><ele>183.0</ele><time>2026-04-26T10:47:40.751Z</time></trkpt><trkpt lat="45.5488767" lon="10.792875"><ele>183.8</ele><time>2026-04-26T10:47:41.751Z</time></trkpt><trkpt lat="45.5489983" lon="10.792855"><ele>184.60000000000002</ele><time>2026-04-26T10:47:42.751Z</time></trkpt><trkpt lat="45.5491067" lon="10.7928283"><ele>185.39999999999998</ele><time>2026-04-26T10:47:43.751Z</time></trkpt><trkpt lat="45.54921" lon="10.7927967"><ele>186.2</ele><time>2026-04-26T10:47:44.751Z</time></trkpt><trkpt lat="45.5493117" lon="10.7927717"><ele>187.0</ele><time>2026-04-26T10:47:45.751Z</time></trkpt><trkpt lat="45.549405" lon="10.7927567"><ele>187.0</ele><time>2026-04-26T10:47:46.751Z</time></trkpt><trkpt lat="45.549495" lon="10.7927567"><ele>187.0</ele><time>2026-04-26T10:47:47.751Z</time></trkpt><trkpt lat="45.54958" lon="10.79277"><ele>187.0</ele><time>2026-04-26T10:47:48.751Z</time></trkpt><trkpt lat="45.5496633" lon="10.7928067"><ele>187.0</ele><time>2026-04-26T10:47:49.751Z</time></trkpt><trkpt lat="45.5497583" lon="10.7928633"><ele>187.0</ele><time>2026-04-26T10:47:50.752Z</time></trkpt><trkpt lat="45.54985" lon="10.7929283"><ele>186.8</ele><time>2026-04-26T10:47:51.751Z</time></trkpt><trkpt lat="45.54994" lon="10.7930183"><ele>186.6</ele><time>2026-04-26T10:47:52.752Z</time></trkpt><trkpt lat="45.5500183" lon="10.7931167"><ele>186.4</ele><time>2026-04-26T10:47:53.751Z</time></trkpt><trkpt lat="45.550095" lon="10.793215"><ele>186.20000000000002</ele><time>2026-04-26T10:47:54.751Z</time></trkpt><trkpt lat="45.5501633" lon="10.7933083"><ele>186.0</ele><time>2026-04-26T10:47:55.751Z</time></trkpt><trkpt lat="45.550235" lon="10.7934133"><ele>186.0</ele><time>2026-04-26T10:47:56.751Z</time></trkpt><trkpt lat="45.5503067" lon="10.793535"><ele>186.0</ele><time>2026-04-26T10:47:57.751Z</time></trkpt><trkpt lat="45.550385" lon="10.7936583"><ele>186.0</ele><time>2026-04-26T10:47:58.752Z</time></trkpt><trkpt lat="45.5504633" lon="10.793805"><ele>186.0</ele><time>2026-04-26T10:47:59.751Z</time></trkpt><trkpt lat="45.5505267" lon="10.7939633"><ele>186.0</ele><time>2026-04-26T10:48:00.752Z</time></trkpt><trkpt lat="45.5505983" lon="10.7941067"><ele>186.0</ele><time>2026-04-26T10:48:01.751Z</time></trkpt><trkpt lat="45.5506633" lon="10.7942183"><ele>186.0</ele><time>2026-04-26T10:48:02.752Z</time></trkpt><trkpt lat="45.5507233" lon="10.7943333"><ele>186.0</ele><time>2026-04-26T10:48:03.751Z</time></trkpt><trkpt lat="45.5507783" lon="10.7944317"><ele>186.0</ele><time>2026-04-26T10:48:04.751Z</time></trkpt><trkpt lat="45.55082" lon="10.7945233"><ele>186.0</ele><time>2026-04-26T10:48:05.751Z</time></trkpt><trkpt lat="45.5508483" lon="10.7946867"><ele>186.0</ele><time>2026-04-26T10:48:07.751Z</time></trkpt><trkpt lat="45.5508267" lon="10.7947767"><ele>186.0</ele><time>2026-04-26T10:48:08.751Z</time></trkpt><trkpt lat="45.5508083" lon="10.7948883"><ele>186.0</ele><time>2026-04-26T10:48:09.751Z</time></trkpt><trkpt lat="45.5508" lon="10.7950283"><ele>186.0</ele><time>2026-04-26T10:48:10.751Z</time></trkpt><trkpt lat="45.5507983" lon="10.7951683"><ele>186.0</ele><time>2026-04-26T10:48:11.751Z</time></trkpt><trkpt lat="45.5507933" lon="10.7953033"><ele>186.0</ele><time>2026-04-26T10:48:12.751Z</time></trkpt><trkpt lat="45.550785" lon="10.7954483"><ele>186.0</ele><time>2026-04-26T10:48:13.752Z</time></trkpt><trkpt lat="45.5507767" lon="10.7955967"><ele>186.0</ele><time>2026-04-26T10:48:14.751Z</time></trkpt><trkpt lat="45.55078" lon="10.7957567"><ele>186.0</ele><time>2026-04-26T10:48:15.751Z</time></trkpt><trkpt lat="45.550785" lon="10.7959133"><ele>186.0</ele><time>2026-04-26T10:48:16.751Z</time></trkpt><trkpt lat="45.5507867" lon="10.7960667"><ele>186.0</ele><time>2026-04-26T10:48:17.751Z</time></trkpt><trkpt lat="45.550795" lon="10.79621"><ele>186.0</ele><time>2026-04-26T10:48:18.752Z</time></trkpt><trkpt lat="45.5507967" lon="10.7963667"><ele>186.0</ele><time>2026-04-26T10:48:19.752Z</time></trkpt><trkpt lat="45.550795" lon="10.7965133"><ele>186.0</ele><time>2026-04-26T10:48:20.752Z</time></trkpt><trkpt lat="45.5508067" lon="10.7966333"><ele>186.0</ele><time>2026-04-26T10:48:21.751Z</time></trkpt><trkpt lat="45.5508183" lon="10.79675"><ele>186.0</ele><time>2026-04-26T10:48:22.751Z</time></trkpt><trkpt lat="45.5508533" lon="10.796905"><ele>186.0</ele><time>2026-04-26T10:48:24.751Z</time></trkpt><trkpt lat="45.550875" lon="10.79704"><ele>186.0</ele><time>2026-04-26T10:48:26.751Z</time></trkpt><trkpt lat="45.5508733" lon="10.79713"><ele>186.0</ele><time>2026-04-26T10:48:27.752Z</time></trkpt><trkpt lat="45.5508683" lon="10.79723"><ele>186.0</ele><time>2026-04-26T10:48:28.751Z</time></trkpt><trkpt lat="45.550865" lon="10.7973467"><ele>186.0</ele><time>2026-04-26T10:48:29.751Z</time></trkpt><trkpt lat="45.5508583" lon="10.7974667"><ele>186.0</ele><time>2026-04-26T10:48:30.751Z</time></trkpt><trkpt lat="45.55085" lon="10.7975883"><ele>186.0</ele><time>2026-04-26T10:48:31.751Z</time></trkpt><trkpt lat="45.55084" lon="10.7977167"><ele>186.0</ele><time>2026-04-26T10:48:32.752Z</time></trkpt><trkpt lat="45.5508317" lon="10.7978367"><ele>186.0</ele><time>2026-04-26T10:48:33.751Z</time></trkpt><trkpt lat="45.5508283" lon="10.7979417"><ele>186.0</ele><time>2026-04-26T10:48:34.751Z</time></trkpt><trkpt lat="45.55082" lon="10.798035"><ele>186.0</ele><time>2026-04-26T10:48:35.752Z</time></trkpt><trkpt lat="45.5507983" lon="10.7981883"><ele>186.0</ele><time>2026-04-26T10:48:37.751Z</time></trkpt><trkpt lat="45.5507767" lon="10.79832"><ele>186.0</ele><time>2026-04-26T10:48:39.752Z</time></trkpt><trkpt lat="45.550785" lon="10.798465"><ele>186.0</ele><time>2026-04-26T10:48:41.751Z</time></trkpt><trkpt lat="45.5507833" lon="10.7985817"><ele>186.0</ele><time>2026-04-26T10:48:42.751Z</time></trkpt><trkpt lat="45.5507817" lon="10.7987083"><ele>185.83333333333334</ele><time>2026-04-26T10:48:43.751Z</time></trkpt><trkpt lat="45.5507833" lon="10.79883"><ele>185.66666666666666</ele><time>2026-04-26T10:48:44.751Z</time></trkpt><trkpt lat="45.5507817" lon="10.7989583"><ele>185.5</ele><time>2026-04-26T10:48:45.751Z</time></trkpt><trkpt lat="45.5507867" lon="10.79907"><ele>185.33333333333331</ele><time>2026-04-26T10:48:46.751Z</time></trkpt><trkpt lat="45.5508083" lon="10.799165"><ele>185.16666666666666</ele><time>2026-04-26T10:48:47.751Z</time></trkpt><trkpt lat="45.55085" lon="10.79927"><ele>185.0</ele><time>2026-04-26T10:48:49.751Z</time></trkpt><trkpt lat="45.5509033" lon="10.7993733"><ele>184.83333333333331</ele><time>2026-04-26T10:49:01.752Z</time></trkpt><trkpt lat="45.5509467" lon="10.7994517"><ele>184.66666666666666</ele><time>2026-04-26T10:49:02.751Z</time></trkpt><trkpt lat="45.5509883" lon="10.7995267"><ele>184.5</ele><time>2026-04-26T10:49:03.751Z</time></trkpt><trkpt lat="45.551035" lon="10.7996117"><ele>184.33333333333334</ele><time>2026-04-26T10:49:04.752Z</time></trkpt><trkpt lat="45.551125" lon="10.799705"><ele>184.16666666666669</ele><time>2026-04-26T10:49:05.752Z</time></trkpt><trkpt lat="45.5512167" lon="10.7998033"><ele>184.0</ele><time>2026-04-26T10:49:06.751Z</time></trkpt><trkpt lat="45.5513167" lon="10.799885"><ele>184.75</ele><time>2026-04-26T10:49:07.751Z</time></trkpt><trkpt lat="45.55143" lon="10.7999483"><ele>185.5</ele><time>2026-04-26T10:49:08.751Z</time></trkpt><trkpt lat="45.5515433" lon="10.8000117"><ele>186.25</ele><time>2026-04-26T10:49:09.751Z</time></trkpt><trkpt lat="45.5516683" lon="10.8000833"><ele>187.0</ele><time>2026-04-26T10:49:10.752Z</time></trkpt><trkpt lat="45.5517817" lon="10.8001633"><ele>187.0</ele><time>2026-04-26T10:49:11.751Z</time></trkpt><trkpt lat="45.5518983" lon="10.8002483"><ele>187.0</ele><time>2026-04-26T10:49:12.751Z</time></trkpt><trkpt lat="45.5520133" lon="10.8003233"><ele>187.0</ele><time>2026-04-26T10:49:13.751Z</time></trkpt><trkpt lat="45.55212" lon="10.80039"><ele>187.0</ele><time>2026-04-26T10:49:14.751Z</time></trkpt><trkpt lat="45.5522167" lon="10.8004433"><ele>187.0</ele><time>2026-04-26T10:49:15.752Z</time></trkpt><trkpt lat="45.552315" lon="10.8004733"><ele>187.0</ele><time>2026-04-26T10:49:16.751Z</time></trkpt><trkpt lat="45.55241" lon="10.8004783"><ele>187.0</ele><time>2026-04-26T10:49:17.751Z</time></trkpt><trkpt lat="45.55251" lon="10.8004833"><ele>187.0</ele><time>2026-04-26T10:49:18.751Z</time></trkpt><trkpt lat="45.5526233" lon="10.80049"><ele>187.0</ele><time>2026-04-26T10:49:19.752Z</time></trkpt><trkpt lat="45.5527433" lon="10.8004983"><ele>187.0</ele><time>2026-04-26T10:49:20.751Z</time></trkpt><trkpt lat="45.5528783" lon="10.8005167"><ele>187.0</ele><time>2026-04-26T10:49:21.752Z</time></trkpt><trkpt lat="45.5530067" lon="10.8005433"><ele>187.0</ele><time>2026-04-26T10:49:22.751Z</time></trkpt><trkpt lat="45.5531317" lon="10.8005683"><ele>187.0</ele><time>2026-04-26T10:49:23.751Z</time></trkpt><trkpt lat="45.55325" lon="10.8005983"><ele>187.0</ele><time>2026-04-26T10:49:24.751Z</time></trkpt><trkpt lat="45.553355" lon="10.8006167"><ele>187.0</ele><time>2026-04-26T10:49:25.751Z</time></trkpt><trkpt lat="45.5534717" lon="10.8006283"><ele>187.0</ele><time>2026-04-26T10:49:26.751Z</time></trkpt><trkpt lat="45.5535783" lon="10.8006433"><ele>187.0</ele><time>2026-04-26T10:49:27.751Z</time></trkpt><trkpt lat="45.5536517" lon="10.8006783"><ele>187.0</ele><time>2026-04-26T10:49:28.751Z</time></trkpt><trkpt lat="45.553735" lon="10.8007033"><ele>187.16666666666669</ele><time>2026-04-26T10:49:29.752Z</time></trkpt><trkpt lat="45.5538017" lon="10.8007267"><ele>187.33333333333334</ele><time>2026-04-26T10:49:30.751Z</time></trkpt><trkpt lat="45.5538583" lon="10.800815"><ele>187.5</ele><time>2026-04-26T10:49:33.752Z</time></trkpt><trkpt lat="45.5539117" lon="10.8008667"><ele>187.66666666666666</ele><time>2026-04-26T10:49:47.751Z</time></trkpt><trkpt lat="45.5540017" lon="10.8009333"><ele>187.83333333333331</ele><time>2026-04-26T10:49:50.752Z</time></trkpt><trkpt lat="45.5540817" lon="10.8009867"><ele>188.0</ele><time>2026-04-26T10:49:53.751Z</time></trkpt><trkpt lat="45.5541467" lon="10.8010217"><ele>186.66666666666666</ele><time>2026-04-26T10:49:56.751Z</time></trkpt><trkpt lat="45.55423" lon="10.8010417"><ele>185.33333333333331</ele><time>2026-04-26T10:50:01.752Z</time></trkpt><trkpt lat="45.55432" lon="10.8010467"><ele>184.0</ele><time>2026-04-26T10:50:03.751Z</time></trkpt><trkpt lat="45.5544233" lon="10.8010467"><ele>182.66666666666666</ele><time>2026-04-26T10:50:05.751Z</time></trkpt><trkpt lat="45.554515" lon="10.801075"><ele>181.33333333333334</ele><time>2026-04-26T10:50:07.75Z</time></trkpt><trkpt lat="45.5545667" lon="10.801135"><ele>180.0</ele><time>2026-04-26T10:50:09.751Z</time></trkpt><trkpt lat="45.554625" lon="10.8012567"><ele>180.0</ele><time>2026-04-26T10:50:11.75Z</time></trkpt><trkpt lat="45.5546317" lon="10.8013933"><ele>180.0</ele><time>2026-04-26T10:50:13.751Z</time></trkpt><trkpt lat="45.5545967" lon="10.8015"><ele>180.0</ele><time>2026-04-26T10:50:15.75Z</time></trkpt><trkpt lat="45.554535" lon="10.8016517"><ele>180.0</ele><time>2026-04-26T10:50:17.75Z</time></trkpt><trkpt lat="45.5545017" lon="10.8017283"><ele>180.0</ele><time>2026-04-26T10:50:18.75Z</time></trkpt><trkpt lat="45.5544667" lon="10.8018067"><ele>180.0</ele><time>2026-04-26T10:50:19.75Z</time></trkpt><trkpt lat="45.5544183" lon="10.8019067"><ele>178.8</ele><time>2026-04-26T10:50:20.75Z</time></trkpt><trkpt lat="45.5543733" lon="10.80202"><ele>177.6</ele><time>2026-04-26T10:50:21.75Z</time></trkpt><trkpt lat="45.55433" lon="10.80214"><ele>176.39999999999998</ele><time>2026-04-26T10:50:22.75Z</time></trkpt><trkpt lat="45.5542917" lon="10.8022617"><ele>175.2</ele><time>2026-04-26T10:50:23.75Z</time></trkpt><trkpt lat="45.55425" lon="10.80239"><ele>174.0</ele><time>2026-04-26T10:50:24.751Z</time></trkpt><trkpt lat="45.5542083" lon="10.8025283"><ele>173.6</ele><time>2026-04-26T10:50:25.75Z</time></trkpt><trkpt lat="45.5541567" lon="10.8026967"><ele>173.2</ele><time>2026-04-26T10:50:26.75Z</time></trkpt><trkpt lat="45.554115" lon="10.8028233"><ele>172.79999999999998</ele><time>2026-04-26T10:50:27.75Z</time></trkpt><trkpt lat="45.554075" lon="10.802945"><ele>172.39999999999998</ele><time>2026-04-26T10:50:28.75Z</time></trkpt><trkpt lat="45.554035" lon="10.803065"><ele>172.0</ele><time>2026-04-26T10:50:29.75Z</time></trkpt><trkpt lat="45.5540183" lon="10.80318"><ele>172.0</ele><time>2026-04-26T10:50:30.75Z</time></trkpt><trkpt lat="45.55401" lon="10.8032817"><ele>172.0</ele><time>2026-04-26T10:50:31.751Z</time></trkpt><trkpt lat="45.5540433" lon="10.8034367"><ele>172.0</ele><time>2026-04-26T10:50:33.751Z</time></trkpt><trkpt lat="45.554095" lon="10.803525"><ele>172.0</ele><time>2026-04-26T10:50:35.751Z</time></trkpt><trkpt lat="45.5541817" lon="10.803615"><ele>172.0</ele><time>2026-04-26T10:50:44.751Z</time></trkpt><trkpt lat="45.5542417" lon="10.8036467"><ele>172.0</ele><time>2026-04-26T10:50:45.75Z</time></trkpt><trkpt lat="45.5543767" lon="10.8036733"><ele>173.0</ele><time>2026-04-26T10:50:46.751Z</time></trkpt><trkpt lat="45.5545217" lon="10.8036817"><ele>174.0</ele><time>2026-04-26T10:50:47.751Z</time></trkpt><trkpt lat="45.5546733" lon="10.803685"><ele>175.0</ele><time>2026-04-26T10:50:48.751Z</time></trkpt><trkpt lat="45.5548383" lon="10.803685"><ele>176.0</ele><time>2026-04-26T10:50:49.751Z</time></trkpt><trkpt lat="45.5550083" lon="10.80367"><ele>177.0</ele><time>2026-04-26T10:50:50.75Z</time></trkpt><trkpt lat="45.5551883" lon="10.8036267"><ele>178.0</ele><time>2026-04-26T10:50:51.75Z</time></trkpt><trkpt lat="45.555325" lon="10.8035633"><ele>178.0</ele><time>2026-04-26T10:50:52.75Z</time></trkpt><trkpt lat="45.5554833" lon="10.8034567"><ele>178.0</ele><time>2026-04-26T10:50:53.75Z</time></trkpt><trkpt lat="45.55565" lon="10.8033433"><ele>178.0</ele><time>2026-04-26T10:50:54.751Z</time></trkpt><trkpt lat="45.5557983" lon="10.8031933"><ele>178.0</ele><time>2026-04-26T10:50:55.75Z</time></trkpt><trkpt lat="45.55596" lon="10.80308"><ele>178.0</ele><time>2026-04-26T10:50:56.751Z</time></trkpt><trkpt lat="45.5561133" lon="10.8029583"><ele>178.0</ele><time>2026-04-26T10:50:57.751Z</time></trkpt><trkpt lat="45.55626" lon="10.802815"><ele>178.66666666666669</ele><time>2026-04-26T10:50:58.751Z</time></trkpt><trkpt lat="45.5564017" lon="10.8026717"><ele>179.33333333333334</ele><time>2026-04-26T10:50:59.75Z</time></trkpt><trkpt lat="45.5565383" lon="10.802535"><ele>180.0</ele><time>2026-04-26T10:51:00.751Z</time></trkpt><trkpt lat="45.5566817" lon="10.8024067"><ele>180.0</ele><time>2026-04-26T10:51:01.75Z</time></trkpt><trkpt lat="45.5568283" lon="10.8022767"><ele>180.0</ele><time>2026-04-26T10:51:02.75Z</time></trkpt><trkpt lat="45.5569733" lon="10.8021333"><ele>180.0</ele><time>2026-04-26T10:51:03.751Z</time></trkpt><trkpt lat="45.557115" lon="10.80198"><ele>181.0</ele><time>2026-04-26T10:51:04.75Z</time></trkpt><trkpt lat="45.5572617" lon="10.801835"><ele>182.0</ele><time>2026-04-26T10:51:05.75Z</time></trkpt><trkpt lat="45.5574083" lon="10.8017067"><ele>183.0</ele><time>2026-04-26T10:51:06.751Z</time></trkpt><trkpt lat="45.5575567" lon="10.8015683"><ele>183.0</ele><time>2026-04-26T10:51:07.75Z</time></trkpt><trkpt lat="45.5577117" lon="10.801435"><ele>183.0</ele><time>2026-04-26T10:51:08.751Z</time></trkpt><trkpt lat="45.5578783" lon="10.8013217"><ele>183.0</ele><time>2026-04-26T10:51:09.75Z</time></trkpt><trkpt lat="45.5580217" lon="10.8012067"><ele>183.66666666666666</ele><time>2026-04-26T10:51:10.751Z</time></trkpt><trkpt lat="45.5581667" lon="10.80112"><ele>184.33333333333331</ele><time>2026-04-26T10:51:11.75Z</time></trkpt><trkpt lat="45.558305" lon="10.8010217"><ele>185.0</ele><time>2026-04-26T10:51:12.751Z</time></trkpt><trkpt lat="45.55844" lon="10.8009167"><ele>185.0</ele><time>2026-04-26T10:51:13.75Z</time></trkpt><trkpt lat="45.55856" lon="10.800775"><ele>185.0</ele><time>2026-04-26T10:51:14.751Z</time></trkpt><trkpt lat="45.5586733" lon="10.80062"><ele>185.0</ele><time>2026-04-26T10:51:15.75Z</time></trkpt><trkpt lat="45.5587783" lon="10.8004733"><ele>185.0</ele><time>2026-04-26T10:51:16.75Z</time></trkpt><trkpt lat="45.558875" lon="10.8003667"><ele>185.0</ele><time>2026-04-26T10:51:17.75Z</time></trkpt><trkpt lat="45.5589783" lon="10.800255"><ele>185.0</ele><time>2026-04-26T10:51:18.75Z</time></trkpt><trkpt lat="45.5591" lon="10.8001317"><ele>185.0</ele><time>2026-04-26T10:51:19.751Z</time></trkpt><trkpt lat="45.559225" lon="10.8000367"><ele>185.0</ele><time>2026-04-26T10:51:20.75Z</time></trkpt><trkpt lat="45.5593683" lon="10.7999783"><ele>185.0</ele><time>2026-04-26T10:51:21.751Z</time></trkpt><trkpt lat="45.5595183" lon="10.7999417"><ele>185.0</ele><time>2026-04-26T10:51:22.75Z</time></trkpt><trkpt lat="45.5596717" lon="10.7999317"><ele>185.33333333333331</ele><time>2026-04-26T10:51:23.75Z</time></trkpt><trkpt lat="45.5598233" lon="10.7999467"><ele>185.66666666666666</ele><time>2026-04-26T10:51:24.75Z</time></trkpt><trkpt lat="45.559985" lon="10.7999717"><ele>186.0</ele><time>2026-04-26T10:51:25.751Z</time></trkpt><trkpt lat="45.5601517" lon="10.7999917"><ele>186.0</ele><time>2026-04-26T10:51:26.751Z</time></trkpt><trkpt lat="45.5603333" lon="10.7999967"><ele>186.0</ele><time>2026-04-26T10:51:27.75Z</time></trkpt><trkpt lat="45.5604833" lon="10.800015"><ele>186.0</ele><time>2026-04-26T10:51:28.75Z</time></trkpt><trkpt lat="45.560645" lon="10.8000317"><ele>185.66666666666666</ele><time>2026-04-26T10:51:29.751Z</time></trkpt><trkpt lat="45.5608" lon="10.800045"><ele>185.33333333333331</ele><time>2026-04-26T10:51:30.751Z</time></trkpt><trkpt lat="45.5609533" lon="10.8000683"><ele>185.0</ele><time>2026-04-26T10:51:31.751Z</time></trkpt><trkpt lat="45.561115" lon="10.80009"><ele>185.33333333333331</ele><time>2026-04-26T10:51:32.75Z</time></trkpt><trkpt lat="45.5612717" lon="10.80011"><ele>185.66666666666666</ele><time>2026-04-26T10:51:33.75Z</time></trkpt><trkpt lat="45.561435" lon="10.800135"><ele>186.0</ele><time>2026-04-26T10:51:34.751Z</time></trkpt><trkpt lat="45.5615883" lon="10.8001633"><ele>186.66666666666666</ele><time>2026-04-26T10:51:35.751Z</time></trkpt><trkpt lat="45.5617467" lon="10.80018"><ele>187.33333333333331</ele><time>2026-04-26T10:51:36.751Z</time></trkpt><trkpt lat="45.5619083" lon="10.8001967"><ele>188.0</ele><time>2026-04-26T10:51:37.75Z</time></trkpt><trkpt lat="45.5620533" lon="10.8002183"><ele>188.0</ele><time>2026-04-26T10:51:38.75Z</time></trkpt><trkpt lat="45.5622167" lon="10.8002567"><ele>188.0</ele><time>2026-04-26T10:51:39.75Z</time></trkpt><trkpt lat="45.562385" lon="10.80029"><ele>188.0</ele><time>2026-04-26T10:51:40.75Z</time></trkpt><trkpt lat="45.5625467" lon="10.80033"><ele>188.0</ele><time>2026-04-26T10:51:41.75Z</time></trkpt><trkpt lat="45.56271" lon="10.8003733"><ele>188.0</ele><time>2026-04-26T10:51:42.75Z</time></trkpt><trkpt lat="45.5628867" lon="10.8004267"><ele>188.0</ele><time>2026-04-26T10:51:43.75Z</time></trkpt><trkpt lat="45.56305" lon="10.8004867"><ele>189.0</ele><time>2026-04-26T10:51:44.751Z</time></trkpt><trkpt lat="45.5632117" lon="10.8005517"><ele>190.0</ele><time>2026-04-26T10:51:45.75Z</time></trkpt><trkpt lat="45.563365" lon="10.80061"><ele>191.0</ele><time>2026-04-26T10:51:46.751Z</time></trkpt><trkpt lat="45.563505" lon="10.8006883"><ele>191.0</ele><time>2026-04-26T10:51:47.75Z</time></trkpt><trkpt lat="45.563645" lon="10.8008017"><ele>191.0</ele><time>2026-04-26T10:51:48.75Z</time></trkpt><trkpt lat="45.5637733" lon="10.80092"><ele>191.0</ele><time>2026-04-26T10:51:49.751Z</time></trkpt><trkpt lat="45.56391" lon="10.8010567"><ele>190.33333333333331</ele><time>2026-04-26T10:51:50.75Z</time></trkpt><trkpt lat="45.564045" lon="10.80118"><ele>189.66666666666666</ele><time>2026-04-26T10:51:51.751Z</time></trkpt><trkpt lat="45.5641817" lon="10.8013083"><ele>189.0</ele><time>2026-04-26T10:51:52.75Z</time></trkpt><trkpt lat="45.564335" lon="10.8014133"><ele>189.0</ele><time>2026-04-26T10:51:53.751Z</time></trkpt><trkpt lat="45.5644817" lon="10.8015267"><ele>189.0</ele><time>2026-04-26T10:51:54.75Z</time></trkpt><trkpt lat="45.5646417" lon="10.801635"><ele>189.0</ele><time>2026-04-26T10:51:55.75Z</time></trkpt><trkpt lat="45.5648" lon="10.801735"><ele>189.33333333333334</ele><time>2026-04-26T10:51:56.75Z</time></trkpt><trkpt lat="45.5649617" lon="10.801815"><ele>189.66666666666669</ele><time>2026-04-26T10:51:57.751Z</time></trkpt><trkpt lat="45.5651267" lon="10.80188"><ele>190.0</ele><time>2026-04-26T10:51:58.751Z</time></trkpt><trkpt lat="45.5652967" lon="10.801925"><ele>190.33333333333334</ele><time>2026-04-26T10:51:59.751Z</time></trkpt><trkpt lat="45.5654667" lon="10.8019567"><ele>190.66666666666666</ele><time>2026-04-26T10:52:00.75Z</time></trkpt><trkpt lat="45.5656333" lon="10.8019983"><ele>191.0</ele><time>2026-04-26T10:52:01.751Z</time></trkpt><trkpt lat="45.5657967" lon="10.8020367"><ele>191.0</ele><time>2026-04-26T10:52:02.751Z</time></trkpt><trkpt lat="45.565955" lon="10.80208"><ele>191.0</ele><time>2026-04-26T10:52:03.751Z</time></trkpt><trkpt lat="45.5661267" lon="10.8021517"><ele>191.0</ele><time>2026-04-26T10:52:04.751Z</time></trkpt><trkpt lat="45.5663" lon="10.80219"><ele>190.66666666666666</ele><time>2026-04-26T10:52:05.751Z</time></trkpt><trkpt lat="45.5664583" lon="10.802225"><ele>190.33333333333334</ele><time>2026-04-26T10:52:06.75Z</time></trkpt><trkpt lat="45.5666283" lon="10.80227"><ele>190.0</ele><time>2026-04-26T10:52:07.751Z</time></trkpt><trkpt lat="45.5668" lon="10.8022967"><ele>190.0</ele><time>2026-04-26T10:52:08.75Z</time></trkpt><trkpt lat="45.56696" lon="10.8023167"><ele>190.0</ele><time>2026-04-26T10:52:09.75Z</time></trkpt><trkpt lat="45.5671217" lon="10.802325"><ele>190.0</ele><time>2026-04-26T10:52:10.75Z</time></trkpt><trkpt lat="45.5672917" lon="10.8023183"><ele>190.66666666666669</ele><time>2026-04-26T10:52:11.75Z</time></trkpt><trkpt lat="45.5674533" lon="10.8023217"><ele>191.33333333333334</ele><time>2026-04-26T10:52:12.751Z</time></trkpt><trkpt lat="45.567615" lon="10.802305"><ele>192.0</ele><time>2026-04-26T10:52:13.75Z</time></trkpt><trkpt lat="45.567785" lon="10.802285"><ele>191.66666666666666</ele><time>2026-04-26T10:52:14.75Z</time></trkpt><trkpt lat="45.567955" lon="10.8022667"><ele>191.33333333333331</ele><time>2026-04-26T10:52:15.751Z</time></trkpt><trkpt lat="45.56813" lon="10.8022467"><ele>191.0</ele><time>2026-04-26T10:52:16.75Z</time></trkpt><trkpt lat="45.5682983" lon="10.8022267"><ele>191.0</ele><time>2026-04-26T10:52:17.75Z</time></trkpt><trkpt lat="45.568465" lon="10.8022033"><ele>191.0</ele><time>2026-04-26T10:52:18.75Z</time></trkpt><trkpt lat="45.56861" lon="10.8021733"><ele>191.0</ele><time>2026-04-26T10:52:19.75Z</time></trkpt><trkpt lat="45.5687517" lon="10.8021667"><ele>191.75</ele><time>2026-04-26T10:52:20.75Z</time></trkpt><trkpt lat="45.5688983" lon="10.802165"><ele>192.5</ele><time>2026-04-26T10:52:21.751Z</time></trkpt><trkpt lat="45.569035" lon="10.8021633"><ele>193.25</ele><time>2026-04-26T10:52:22.75Z</time></trkpt><trkpt lat="45.5691433" lon="10.8021783"><ele>194.0</ele><time>2026-04-26T10:52:23.75Z</time></trkpt><trkpt lat="45.5692133" lon="10.8021933"><ele>194.0</ele><time>2026-04-26T10:52:24.75Z</time></trkpt><trkpt lat="45.5693" lon="10.802235"><ele>194.0</ele><time>2026-04-26T10:52:26.75Z</time></trkpt><trkpt lat="45.5693617" lon="10.80218"><ele>194.0</ele><time>2026-04-26T10:52:34.75Z</time></trkpt><trkpt lat="45.569405" lon="10.8020517"><ele>194.0</ele><time>2026-04-26T10:52:36.75Z</time></trkpt><trkpt lat="45.5694483" lon="10.8019"><ele>194.0</ele><time>2026-04-26T10:52:38.75Z</time></trkpt><trkpt lat="45.56947" lon="10.8017633"><ele>193.5</ele><time>2026-04-26T10:52:40.75Z</time></trkpt><trkpt lat="45.56951" lon="10.80165"><ele>193.0</ele><time>2026-04-26T10:52:42.75Z</time></trkpt><trkpt lat="45.56954" lon="10.8015667"><ele>192.5</ele><time>2026-04-26T10:52:44.751Z</time></trkpt><trkpt lat="45.5696083" lon="10.8012383"><ele>192.0</ele><time>2026-04-26T10:52:57.75Z</time></trkpt><trkpt lat="45.5696433" lon="10.80108"><ele>192.0</ele><time>2026-04-26T10:52:58.75Z</time></trkpt><trkpt lat="45.5696767" lon="10.8008933"><ele>192.0</ele><time>2026-04-26T10:52:59.749Z</time></trkpt><trkpt lat="45.569715" lon="10.8007317"><ele>192.0</ele><time>2026-04-26T10:53:00.749Z</time></trkpt><trkpt lat="45.56976" lon="10.8005817"><ele>192.0</ele><time>2026-04-26T10:53:01.749Z</time></trkpt><trkpt lat="45.5698083" lon="10.8004283"><ele>192.0</ele><time>2026-04-26T10:53:02.749Z</time></trkpt><trkpt lat="45.569855" lon="10.8003"><ele>192.0</ele><time>2026-04-26T10:53:03.749Z</time></trkpt><trkpt lat="45.5699067" lon="10.80019"><ele>192.0</ele><time>2026-04-26T10:53:04.749Z</time></trkpt><trkpt lat="45.5699483" lon="10.8000983"><ele>192.0</ele><time>2026-04-26T10:53:05.749Z</time></trkpt><trkpt lat="45.5700017" lon="10.80005"><ele>192.0</ele><time>2026-04-26T10:53:06.75Z</time></trkpt><trkpt lat="45.5700633" lon="10.8000117"><ele>192.0</ele><time>2026-04-26T10:53:07.75Z</time></trkpt><trkpt lat="45.570175" lon="10.7999567"><ele>192.33333333333334</ele><time>2026-04-26T10:53:09.749Z</time></trkpt><trkpt lat="45.5702433" lon="10.7999483"><ele>192.66666666666669</ele><time>2026-04-26T10:53:10.75Z</time></trkpt><trkpt lat="45.5703383" lon="10.79995"><ele>193.0</ele><time>2026-04-26T10:53:11.749Z</time></trkpt><trkpt lat="45.5704217" lon="10.7999467"><ele>193.33333333333334</ele><time>2026-04-26T10:53:12.75Z</time></trkpt><trkpt lat="45.57051" lon="10.799925"><ele>193.66666666666669</ele><time>2026-04-26T10:53:13.749Z</time></trkpt><trkpt lat="45.570595" lon="10.7998733"><ele>194.0</ele><time>2026-04-26T10:53:14.749Z</time></trkpt><trkpt lat="45.5706833" lon="10.7998033"><ele>194.6</ele><time>2026-04-26T10:53:15.749Z</time></trkpt><trkpt lat="45.5707633" lon="10.7997433"><ele>195.2</ele><time>2026-04-26T10:53:16.749Z</time></trkpt><trkpt lat="45.5708433" lon="10.79969"><ele>195.79999999999998</ele><time>2026-04-26T10:53:17.75Z</time></trkpt><trkpt lat="45.5709367" lon="10.7996333"><ele>196.39999999999998</ele><time>2026-04-26T10:53:18.749Z</time></trkpt><trkpt lat="45.5710267" lon="10.7995733"><ele>197.0</ele><time>2026-04-26T10:53:19.749Z</time></trkpt><trkpt lat="45.5711167" lon="10.7995217"><ele>197.0</ele><time>2026-04-26T10:53:20.749Z</time></trkpt><trkpt lat="45.571195" lon="10.7994433"><ele>197.0</ele><time>2026-04-26T10:53:21.749Z</time></trkpt><trkpt lat="45.5712733" lon="10.7993817"><ele>197.0</ele><time>2026-04-26T10:53:22.749Z</time></trkpt><trkpt lat="45.5713583" lon="10.7992967"><ele>197.0</ele><time>2026-04-26T10:53:23.749Z</time></trkpt><trkpt lat="45.57145" lon="10.799225"><ele>197.0</ele><time>2026-04-26T10:53:24.749Z</time></trkpt><trkpt lat="45.57155" lon="10.79915"><ele>197.8</ele><time>2026-04-26T10:53:25.749Z</time></trkpt><trkpt lat="45.57165" lon="10.79907"><ele>198.6</ele><time>2026-04-26T10:53:26.749Z</time></trkpt><trkpt lat="45.57175" lon="10.79901"><ele>199.4</ele><time>2026-04-26T10:53:27.749Z</time></trkpt><trkpt lat="45.571835" lon="10.7989483"><ele>200.20000000000002</ele><time>2026-04-26T10:53:28.749Z</time></trkpt><trkpt lat="45.5719233" lon="10.7988717"><ele>201.0</ele><time>2026-04-26T10:53:29.749Z</time></trkpt><trkpt lat="45.572005" lon="10.798795"><ele>201.0</ele><time>2026-04-26T10:53:30.749Z</time></trkpt><trkpt lat="45.5720783" lon="10.7987183"><ele>201.0</ele><time>2026-04-26T10:53:31.749Z</time></trkpt><trkpt lat="45.5721533" lon="10.7986433"><ele>201.0</ele><time>2026-04-26T10:53:32.75Z</time></trkpt><trkpt lat="45.5722383" lon="10.798575"><ele>201.0</ele><time>2026-04-26T10:53:33.749Z</time></trkpt><trkpt lat="45.5723333" lon="10.798505"><ele>201.0</ele><time>2026-04-26T10:53:34.749Z</time></trkpt><trkpt lat="45.57243" lon="10.798435"><ele>201.5</ele><time>2026-04-26T10:53:35.75Z</time></trkpt><trkpt lat="45.5725433" lon="10.7983633"><ele>202.0</ele><time>2026-04-26T10:53:36.75Z</time></trkpt><trkpt lat="45.5726517" lon="10.7982967"><ele>202.5</ele><time>2026-04-26T10:53:37.75Z</time></trkpt><trkpt lat="45.5727533" lon="10.7982417"><ele>203.0</ele><time>2026-04-26T10:53:38.749Z</time></trkpt><trkpt lat="45.5729483" lon="10.7981783"><ele>203.0</ele><time>2026-04-26T10:53:39.749Z</time></trkpt><trkpt lat="45.573105" lon="10.7981317"><ele>203.0</ele><time>2026-04-26T10:53:40.75Z</time></trkpt><trkpt lat="45.5732583" lon="10.7981033"><ele>203.0</ele><time>2026-04-26T10:53:41.75Z</time></trkpt><trkpt lat="45.573385" lon="10.7980633"><ele>203.0</ele><time>2026-04-26T10:53:42.749Z</time></trkpt><trkpt lat="45.5734967" lon="10.79802"><ele>203.0</ele><time>2026-04-26T10:53:43.75Z</time></trkpt><trkpt lat="45.5736067" lon="10.7979817"><ele>203.0</ele><time>2026-04-26T10:53:44.749Z</time></trkpt><trkpt lat="45.5737183" lon="10.7979383"><ele>203.0</ele><time>2026-04-26T10:53:45.749Z</time></trkpt><trkpt lat="45.573825" lon="10.7978933"><ele>203.0</ele><time>2026-04-26T10:53:46.749Z</time></trkpt><trkpt lat="45.5739267" lon="10.7978517"><ele>203.0</ele><time>2026-04-26T10:53:47.75Z</time></trkpt><trkpt lat="45.5740217" lon="10.7978083"><ele>202.0</ele><time>2026-04-26T10:53:48.75Z</time></trkpt><trkpt lat="45.574095" lon="10.7977567"><ele>201.0</ele><time>2026-04-26T10:53:49.749Z</time></trkpt><trkpt lat="45.57419" lon="10.7976917"><ele>200.0</ele><time>2026-04-26T10:53:50.749Z</time></trkpt><trkpt lat="45.57427" lon="10.7976217"><ele>199.0</ele><time>2026-04-26T10:53:51.749Z</time></trkpt><trkpt lat="45.5743467" lon="10.79755"><ele>198.0</ele><time>2026-04-26T10:53:52.749Z</time></trkpt><trkpt lat="45.57441" lon="10.79747"><ele>198.4</ele><time>2026-04-26T10:53:53.75Z</time></trkpt><trkpt lat="45.57448" lon="10.79737"><ele>198.8</ele><time>2026-04-26T10:53:54.75Z</time></trkpt><trkpt lat="45.5745217" lon="10.79727"><ele>199.2</ele><time>2026-04-26T10:53:55.749Z</time></trkpt><trkpt lat="45.5745867" lon="10.7971683"><ele>199.6</ele><time>2026-04-26T10:53:56.749Z</time></trkpt><trkpt lat="45.5746733" lon="10.797075"><ele>200.0</ele><time>2026-04-26T10:53:57.75Z</time></trkpt><trkpt lat="45.5747633" lon="10.7969867"><ele>200.0</ele><time>2026-04-26T10:53:58.749Z</time></trkpt><trkpt lat="45.5749233" lon="10.7968783"><ele>200.0</ele><time>2026-04-26T10:53:59.75Z</time></trkpt><trkpt lat="45.5750333" lon="10.796785"><ele>200.0</ele><time>2026-04-26T10:54:00.749Z</time></trkpt><trkpt lat="45.5751467" lon="10.7966917"><ele>200.0</ele><time>2026-04-26T10:54:01.749Z</time></trkpt><trkpt lat="45.575255" lon="10.7965883"><ele>199.8</ele><time>2026-04-26T10:54:02.749Z</time></trkpt><trkpt lat="45.575335" lon="10.796485"><ele>199.6</ele><time>2026-04-26T10:54:03.749Z</time></trkpt><trkpt lat="45.575425" lon="10.7963567"><ele>199.39999999999998</ele><time>2026-04-26T10:54:04.749Z</time></trkpt><trkpt lat="45.5754983" lon="10.7962367"><ele>199.2</ele><time>2026-04-26T10:54:05.749Z</time></trkpt><trkpt lat="45.5755567" lon="10.7961217"><ele>199.0</ele><time>2026-04-26T10:54:06.749Z</time></trkpt><trkpt lat="45.5756133" lon="10.7960067"><ele>200.25</ele><time>2026-04-26T10:54:07.75Z</time></trkpt><trkpt lat="45.5756833" lon="10.7958767"><ele>201.5</ele><time>2026-04-26T10:54:08.749Z</time></trkpt><trkpt lat="45.575765" lon="10.7957367"><ele>202.75</ele><time>2026-04-26T10:54:09.749Z</time></trkpt><trkpt lat="45.57585" lon="10.795605"><ele>204.0</ele><time>2026-04-26T10:54:10.749Z</time></trkpt><trkpt lat="45.575935" lon="10.795485"><ele>204.0</ele><time>2026-04-26T10:54:11.749Z</time></trkpt><trkpt lat="45.5760183" lon="10.79538"><ele>204.0</ele><time>2026-04-26T10:54:12.749Z</time></trkpt><trkpt lat="45.576095" lon="10.7952883"><ele>204.0</ele><time>2026-04-26T10:54:13.75Z</time></trkpt><trkpt lat="45.5761517" lon="10.7952317"><ele>204.0</ele><time>2026-04-26T10:54:14.75Z</time></trkpt><trkpt lat="45.576245" lon="10.79517"><ele>204.0</ele><time>2026-04-26T10:54:16.75Z</time></trkpt><trkpt lat="45.5763133" lon="10.79516"><ele>203.6</ele><time>2026-04-26T10:54:17.75Z</time></trkpt><trkpt lat="45.5764033" lon="10.7951383"><ele>203.2</ele><time>2026-04-26T10:54:19.749Z</time></trkpt><trkpt lat="45.5764983" lon="10.7951167"><ele>202.79999999999998</ele><time>2026-04-26T10:54:25.749Z</time></trkpt><trkpt lat="45.576525" lon="10.7949783"><ele>202.39999999999998</ele><time>2026-04-26T10:54:41.749Z</time></trkpt><trkpt lat="45.5765183" lon="10.79481"><ele>202.0</ele><time>2026-04-26T10:54:43.749Z</time></trkpt><trkpt lat="45.5765117" lon="10.79467"><ele>202.0</ele><time>2026-04-26T10:54:44.75Z</time></trkpt><trkpt lat="45.5765083" lon="10.7944767"><ele>202.0</ele><time>2026-04-26T10:54:45.749Z</time></trkpt><trkpt lat="45.5765167" lon="10.794255"><ele>202.0</ele><time>2026-04-26T10:54:46.749Z</time></trkpt><trkpt lat="45.5765233" lon="10.7940217"><ele>202.0</ele><time>2026-04-26T10:54:47.749Z</time></trkpt><trkpt lat="45.57651" lon="10.7937917"><ele>202.0</ele><time>2026-04-26T10:54:48.749Z</time></trkpt><trkpt lat="45.57653" lon="10.7935483"><ele>202.0</ele><time>2026-04-26T10:54:49.749Z</time></trkpt><trkpt lat="45.57655" lon="10.7932917"><ele>202.0</ele><time>2026-04-26T10:54:50.749Z</time></trkpt><trkpt lat="45.5765783" lon="10.793035"><ele>202.0</ele><time>2026-04-26T10:54:51.75Z</time></trkpt><trkpt lat="45.5766033" lon="10.792795"><ele>202.0</ele><time>2026-04-26T10:54:52.749Z</time></trkpt><trkpt lat="45.5766217" lon="10.7925633"><ele>202.0</ele><time>2026-04-26T10:54:53.749Z</time></trkpt><trkpt lat="45.5766333" lon="10.79234"><ele>202.0</ele><time>2026-04-26T10:54:54.749Z</time></trkpt><trkpt lat="45.5766333" lon="10.792125"><ele>202.0</ele><time>2026-04-26T10:54:55.749Z</time></trkpt><trkpt lat="45.576625" lon="10.791915"><ele>202.0</ele><time>2026-04-26T10:54:56.749Z</time></trkpt><trkpt lat="45.5765983" lon="10.7916983"><ele>202.0</ele><time>2026-04-26T10:54:57.75Z</time></trkpt><trkpt lat="45.5765483" lon="10.7915"><ele>202.0</ele><time>2026-04-26T10:54:58.749Z</time></trkpt><trkpt lat="45.5764717" lon="10.7913117"><ele>202.0</ele><time>2026-04-26T10:54:59.75Z</time></trkpt><trkpt lat="45.5763817" lon="10.7911367"><ele>202.0</ele><time>2026-04-26T10:55:00.75Z</time></trkpt><trkpt lat="45.5762867" lon="10.79097"><ele>202.0</ele><time>2026-04-26T10:55:01.749Z</time></trkpt><trkpt lat="45.5761833" lon="10.7907933"><ele>203.0</ele><time>2026-04-26T10:55:02.75Z</time></trkpt><trkpt lat="45.5760767" lon="10.79062"><ele>204.0</ele><time>2026-04-26T10:55:03.749Z</time></trkpt><trkpt lat="45.5759883" lon="10.79044"><ele>205.0</ele><time>2026-04-26T10:55:04.749Z</time></trkpt><trkpt lat="45.5759" lon="10.7902483"><ele>206.33333333333331</ele><time>2026-04-26T10:55:05.749Z</time></trkpt><trkpt lat="45.575815" lon="10.7900567"><ele>207.66666666666669</ele><time>2026-04-26T10:55:06.749Z</time></trkpt><trkpt lat="45.5757333" lon="10.7898617"><ele>209.0</ele><time>2026-04-26T10:55:07.75Z</time></trkpt><trkpt lat="45.575655" lon="10.78966"><ele>209.0</ele><time>2026-04-26T10:55:08.75Z</time></trkpt><trkpt lat="45.575575" lon="10.789475"><ele>209.0</ele><time>2026-04-26T10:55:09.749Z</time></trkpt><trkpt lat="45.5755083" lon="10.78928"><ele>209.0</ele><time>2026-04-26T10:55:10.749Z</time></trkpt><trkpt lat="45.5754467" lon="10.7890717"><ele>212.33333333333334</ele><time>2026-04-26T10:55:11.75Z</time></trkpt><trkpt lat="45.5754033" lon="10.7888667"><ele>215.66666666666669</ele><time>2026-04-26T10:55:12.749Z</time></trkpt><trkpt lat="45.5753917" lon="10.7886467"><ele>219.0</ele><time>2026-04-26T10:55:13.749Z</time></trkpt><trkpt lat="45.5753967" lon="10.7884133"><ele>219.0</ele><time>2026-04-26T10:55:14.749Z</time></trkpt><trkpt lat="45.5754167" lon="10.7881667"><ele>219.0</ele><time>2026-04-26T10:55:15.749Z</time></trkpt><trkpt lat="45.5754233" lon="10.7879167"><ele>219.0</ele><time>2026-04-26T10:55:16.749Z</time></trkpt><trkpt lat="45.575445" lon="10.7876617"><ele>218.0</ele><time>2026-04-26T10:55:17.749Z</time></trkpt><trkpt lat="45.5754767" lon="10.787405"><ele>217.0</ele><time>2026-04-26T10:55:18.75Z</time></trkpt><trkpt lat="45.5755117" lon="10.78719"><ele>216.0</ele><time>2026-04-26T10:55:19.75Z</time></trkpt><trkpt lat="45.5755417" lon="10.7869667"><ele>217.0</ele><time>2026-04-26T10:55:20.749Z</time></trkpt><trkpt lat="45.5755767" lon="10.7867367"><ele>218.0</ele><time>2026-04-26T10:55:21.749Z</time></trkpt><trkpt lat="45.5756" lon="10.7865067"><ele>219.0</ele><time>2026-04-26T10:55:22.75Z</time></trkpt><trkpt lat="45.5756167" lon="10.7862817"><ele>219.0</ele><time>2026-04-26T10:55:23.749Z</time></trkpt><trkpt lat="45.5756233" lon="10.7860483"><ele>219.0</ele><time>2026-04-26T10:55:24.749Z</time></trkpt><trkpt lat="45.57562" lon="10.7858117"><ele>219.0</ele><time>2026-04-26T10:55:25.749Z</time></trkpt><trkpt lat="45.5756233" lon="10.7855667"><ele>220.66666666666669</ele><time>2026-04-26T10:55:26.749Z</time></trkpt><trkpt lat="45.57561" lon="10.7853333"><ele>222.33333333333334</ele><time>2026-04-26T10:55:27.749Z</time></trkpt><trkpt lat="45.57559" lon="10.7851083"><ele>224.0</ele><time>2026-04-26T10:55:28.749Z</time></trkpt><trkpt lat="45.5755583" lon="10.7848933"><ele>226.33333333333334</ele><time>2026-04-26T10:55:29.75Z</time></trkpt><trkpt lat="45.5755183" lon="10.784675"><ele>228.66666666666669</ele><time>2026-04-26T10:55:30.749Z</time></trkpt><trkpt lat="45.57548" lon="10.784435"><ele>231.0</ele><time>2026-04-26T10:55:31.749Z</time></trkpt><trkpt lat="45.5754417" lon="10.7842017"><ele>233.33333333333331</ele><time>2026-04-26T10:55:32.75Z</time></trkpt><trkpt lat="45.5754033" lon="10.7839733"><ele>235.66666666666666</ele><time>2026-04-26T10:55:33.749Z</time></trkpt><trkpt lat="45.575355" lon="10.7837283"><ele>238.0</ele><time>2026-04-26T10:55:34.75Z</time></trkpt><trkpt lat="45.575335" lon="10.78351"><ele>233.0</ele><time>2026-04-26T10:55:35.749Z</time></trkpt><trkpt lat="45.5753083" lon="10.783265"><ele>228.0</ele><time>2026-04-26T10:55:36.749Z</time></trkpt><trkpt lat="45.57529" lon="10.7830183"><ele>223.0</ele><time>2026-04-26T10:55:37.749Z</time></trkpt><trkpt lat="45.5752783" lon="10.78278"><ele>224.33333333333331</ele><time>2026-04-26T10:55:38.748Z</time></trkpt><trkpt lat="45.57529" lon="10.7825417"><ele>225.66666666666669</ele><time>2026-04-26T10:55:39.749Z</time></trkpt><trkpt lat="45.575285" lon="10.7823083"><ele>227.0</ele><time>2026-04-26T10:55:40.748Z</time></trkpt><trkpt lat="45.575285" lon="10.7820933"><ele>227.0</ele><time>2026-04-26T10:55:41.748Z</time></trkpt><trkpt lat="45.5752833" lon="10.781875"><ele>227.0</ele><time>2026-04-26T10:55:42.748Z</time></trkpt><trkpt lat="45.5753033" lon="10.7816417"><ele>227.0</ele><time>2026-04-26T10:55:43.749Z</time></trkpt><trkpt lat="45.5753433" lon="10.7814317"><ele>231.66666666666669</ele><time>2026-04-26T10:55:44.749Z</time></trkpt><trkpt lat="45.5754217" lon="10.781215"><ele>236.33333333333331</ele><time>2026-04-26T10:55:45.748Z</time></trkpt><trkpt lat="45.57548" lon="10.780975"><ele>241.0</ele><time>2026-04-26T10:55:46.748Z</time></trkpt><trkpt lat="45.5755317" lon="10.7807367"><ele>241.0</ele><time>2026-04-26T10:55:47.749Z</time></trkpt><trkpt lat="45.5756" lon="10.780545"><ele>241.0</ele><time>2026-04-26T10:55:48.748Z</time></trkpt><trkpt lat="45.5756517" lon="10.780345"><ele>241.0</ele><time>2026-04-26T10:55:49.748Z</time></trkpt><trkpt lat="45.575665" lon="10.7801167"><ele>238.0</ele><time>2026-04-26T10:55:50.748Z</time></trkpt><trkpt lat="45.575655" lon="10.7798817"><ele>235.0</ele><time>2026-04-26T10:55:51.749Z</time></trkpt><trkpt lat="45.57563" lon="10.7796683"><ele>232.0</ele><time>2026-04-26T10:55:52.749Z</time></trkpt><trkpt lat="45.5755667" lon="10.77947"><ele>232.33333333333331</ele><time>2026-04-26T10:55:53.748Z</time></trkpt><trkpt lat="45.5754683" lon="10.7792783"><ele>232.66666666666669</ele><time>2026-04-26T10:55:54.748Z</time></trkpt><trkpt lat="45.5753317" lon="10.7790717"><ele>233.0</ele><time>2026-04-26T10:55:55.748Z</time></trkpt><trkpt lat="45.5751867" lon="10.7788767"><ele>233.0</ele><time>2026-04-26T10:55:56.748Z</time></trkpt><trkpt lat="45.5750683" lon="10.7786967"><ele>233.0</ele><time>2026-04-26T10:55:57.749Z</time></trkpt><trkpt lat="45.5749467" lon="10.7785117"><ele>233.0</ele><time>2026-04-26T10:55:58.748Z</time></trkpt><trkpt lat="45.5748383" lon="10.7783283"><ele>229.33333333333334</ele><time>2026-04-26T10:55:59.748Z</time></trkpt><trkpt lat="45.5747333" lon="10.7781433"><ele>225.66666666666669</ele><time>2026-04-26T10:56:00.749Z</time></trkpt><trkpt lat="45.57463" lon="10.7779317"><ele>222.0</ele><time>2026-04-26T10:56:01.749Z</time></trkpt><trkpt lat="45.5745367" lon="10.7777067"><ele>221.0</ele><time>2026-04-26T10:56:02.748Z</time></trkpt><trkpt lat="45.5744467" lon="10.7774833"><ele>220.0</ele><time>2026-04-26T10:56:03.748Z</time></trkpt><trkpt lat="45.5743567" lon="10.7772683"><ele>219.0</ele><time>2026-04-26T10:56:04.748Z</time></trkpt><trkpt lat="45.574265" lon="10.77707"><ele>219.0</ele><time>2026-04-26T10:56:05.748Z</time></trkpt><trkpt lat="45.57419" lon="10.7768717"><ele>219.0</ele><time>2026-04-26T10:56:06.748Z</time></trkpt><trkpt lat="45.5740967" lon="10.776665"><ele>219.0</ele><time>2026-04-26T10:56:07.748Z</time></trkpt><trkpt lat="45.5740133" lon="10.7764633"><ele>219.33333333333331</ele><time>2026-04-26T10:56:08.749Z</time></trkpt><trkpt lat="45.5739267" lon="10.776235"><ele>219.66666666666666</ele><time>2026-04-26T10:56:09.748Z</time></trkpt><trkpt lat="45.5738517" lon="10.7760167"><ele>220.0</ele><time>2026-04-26T10:56:10.749Z</time></trkpt><trkpt lat="45.5737733" lon="10.7757817"><ele>219.66666666666666</ele><time>2026-04-26T10:56:11.749Z</time></trkpt><trkpt lat="45.5736967" lon="10.775545"><ele>219.33333333333331</ele><time>2026-04-26T10:56:12.748Z</time></trkpt><trkpt lat="45.5736283" lon="10.775305"><ele>219.0</ele><time>2026-04-26T10:56:13.749Z</time></trkpt><trkpt lat="45.5735567" lon="10.7750733"><ele>218.0</ele><time>2026-04-26T10:56:14.748Z</time></trkpt><trkpt lat="45.5735" lon="10.774835"><ele>217.0</ele><time>2026-04-26T10:56:15.748Z</time></trkpt><trkpt lat="45.57345" lon="10.77462"><ele>216.0</ele><time>2026-04-26T10:56:16.748Z</time></trkpt><trkpt lat="45.57342" lon="10.7744267"><ele>215.4</ele><time>2026-04-26T10:56:17.749Z</time></trkpt><trkpt lat="45.5734133" lon="10.7743283"><ele>214.8</ele><time>2026-04-26T10:56:18.748Z</time></trkpt><trkpt lat="45.5734" lon="10.7741867"><ele>214.20000000000002</ele><time>2026-04-26T10:56:20.748Z</time></trkpt><trkpt lat="45.5734017" lon="10.7740567"><ele>213.60000000000002</ele><time>2026-04-26T10:56:22.748Z</time></trkpt><trkpt lat="45.5734283" lon="10.7738667"><ele>213.0</ele><time>2026-04-26T10:56:24.749Z</time></trkpt><trkpt lat="45.5734933" lon="10.7738067"><ele>213.0</ele><time>2026-04-26T10:56:25.748Z</time></trkpt><trkpt lat="45.5735883" lon="10.7737817"><ele>213.0</ele><time>2026-04-26T10:56:26.748Z</time></trkpt><trkpt lat="45.5736917" lon="10.773765"><ele>213.0</ele><time>2026-04-26T10:56:27.748Z</time></trkpt><trkpt lat="45.57382" lon="10.7737733"><ele>213.0</ele><time>2026-04-26T10:56:28.748Z</time></trkpt><trkpt lat="45.573955" lon="10.7737783"><ele>215.0</ele><time>2026-04-26T10:56:29.748Z</time></trkpt><trkpt lat="45.5740867" lon="10.7737767"><ele>217.0</ele><time>2026-04-26T10:56:30.748Z</time></trkpt><trkpt lat="45.5742183" lon="10.773775"><ele>219.0</ele><time>2026-04-26T10:56:31.749Z</time></trkpt><trkpt lat="45.5743467" lon="10.773775"><ele>221.0</ele><time>2026-04-26T10:56:32.748Z</time></trkpt><trkpt lat="45.5744767" lon="10.7737833"><ele>219.5</ele><time>2026-04-26T10:56:33.748Z</time></trkpt><trkpt lat="45.574605" lon="10.773785"><ele>218.0</ele><time>2026-04-26T10:56:34.749Z</time></trkpt><trkpt lat="45.5747267" lon="10.7737917"><ele>216.5</ele><time>2026-04-26T10:56:35.748Z</time></trkpt><trkpt lat="45.5748467" lon="10.7738083"><ele>215.0</ele><time>2026-04-26T10:56:36.749Z</time></trkpt><trkpt lat="45.5749717" lon="10.7738233"><ele>215.0</ele><time>2026-04-26T10:56:37.749Z</time></trkpt><trkpt lat="45.5751033" lon="10.7738433"><ele>215.0</ele><time>2026-04-26T10:56:38.748Z</time></trkpt><trkpt lat="45.5752367" lon="10.7738733"><ele>215.0</ele><time>2026-04-26T10:56:39.749Z</time></trkpt><trkpt lat="45.5753767" lon="10.77391"><ele>215.0</ele><time>2026-04-26T10:56:40.748Z</time></trkpt><trkpt lat="45.5755217" lon="10.7739483"><ele>214.75</ele><time>2026-04-26T10:56:41.748Z</time></trkpt><trkpt lat="45.575665" lon="10.773985"><ele>214.5</ele><time>2026-04-26T10:56:42.748Z</time></trkpt><trkpt lat="45.5758083" lon="10.7740217"><ele>214.25</ele><time>2026-04-26T10:56:43.749Z</time></trkpt><trkpt lat="45.5759483" lon="10.774055"><ele>214.0</ele><time>2026-04-26T10:56:44.749Z</time></trkpt><trkpt lat="45.5761" lon="10.77409"><ele>215.0</ele><time>2026-04-26T10:56:45.748Z</time></trkpt><trkpt lat="45.576245" lon="10.7741283"><ele>216.0</ele><time>2026-04-26T10:56:46.749Z</time></trkpt><trkpt lat="45.5763867" lon="10.7741717"><ele>217.0</ele><time>2026-04-26T10:56:47.748Z</time></trkpt><trkpt lat="45.5765333" lon="10.7742133"><ele>218.0</ele><time>2026-04-26T10:56:48.748Z</time></trkpt><trkpt lat="45.5766783" lon="10.774255"><ele>218.0</ele><time>2026-04-26T10:56:49.748Z</time></trkpt><trkpt lat="45.5768233" lon="10.7743"><ele>218.0</ele><time>2026-04-26T10:56:50.748Z</time></trkpt><trkpt lat="45.5769717" lon="10.77434"><ele>218.0</ele><time>2026-04-26T10:56:51.748Z</time></trkpt><trkpt lat="45.5771217" lon="10.7743817"><ele>219.66666666666669</ele><time>2026-04-26T10:56:52.748Z</time></trkpt><trkpt lat="45.5772767" lon="10.774425"><ele>221.33333333333331</ele><time>2026-04-26T10:56:53.749Z</time></trkpt><trkpt lat="45.5774383" lon="10.774475"><ele>223.0</ele><time>2026-04-26T10:56:54.749Z</time></trkpt><trkpt lat="45.577605" lon="10.7745233"><ele>223.0</ele><time>2026-04-26T10:56:55.748Z</time></trkpt><trkpt lat="45.5777767" lon="10.7745683"><ele>223.0</ele><time>2026-04-26T10:56:56.749Z</time></trkpt><trkpt lat="45.57795" lon="10.7746167"><ele>223.0</ele><time>2026-04-26T10:56:57.748Z</time></trkpt><trkpt lat="45.5781183" lon="10.7746667"><ele>223.0</ele><time>2026-04-26T10:56:58.749Z</time></trkpt><trkpt lat="45.5782883" lon="10.7747"><ele>223.0</ele><time>2026-04-26T10:56:59.748Z</time></trkpt><trkpt lat="45.5784533" lon="10.7747483"><ele>223.0</ele><time>2026-04-26T10:57:00.748Z</time></trkpt><trkpt lat="45.578625" lon="10.774795"><ele>223.33333333333331</ele><time>2026-04-26T10:57:01.748Z</time></trkpt><trkpt lat="45.5787817" lon="10.77483"><ele>223.66666666666669</ele><time>2026-04-26T10:57:02.748Z</time></trkpt><trkpt lat="45.57894" lon="10.7748733"><ele>224.0</ele><time>2026-04-26T10:57:03.749Z</time></trkpt><trkpt lat="45.5790917" lon="10.774905"><ele>224.0</ele><time>2026-04-26T10:57:04.749Z</time></trkpt><trkpt lat="45.57924" lon="10.7749367"><ele>224.0</ele><time>2026-04-26T10:57:05.749Z</time></trkpt><trkpt lat="45.5793783" lon="10.7749883"><ele>224.0</ele><time>2026-04-26T10:57:06.748Z</time></trkpt><trkpt lat="45.5795167" lon="10.7750267"><ele>224.0</ele><time>2026-04-26T10:57:07.748Z</time></trkpt><trkpt lat="45.57965" lon="10.7750583"><ele>224.25</ele><time>2026-04-26T10:57:08.749Z</time></trkpt><trkpt lat="45.57978" lon="10.7750983"><ele>224.5</ele><time>2026-04-26T10:57:09.748Z</time></trkpt><trkpt lat="45.5799083" lon="10.775135"><ele>224.75</ele><time>2026-04-26T10:57:10.748Z</time></trkpt><trkpt lat="45.5800367" lon="10.77517"><ele>225.0</ele><time>2026-04-26T10:57:11.748Z</time></trkpt><trkpt lat="45.580165" lon="10.7751917"><ele>225.75</ele><time>2026-04-26T10:57:12.748Z</time></trkpt><trkpt lat="45.5803033" lon="10.7752"><ele>226.5</ele><time>2026-04-26T10:57:13.748Z</time></trkpt><trkpt lat="45.5804433" lon="10.7752417"><ele>227.25</ele><time>2026-04-26T10:57:14.748Z</time></trkpt><trkpt lat="45.5805867" lon="10.775285"><ele>228.0</ele><time>2026-04-26T10:57:15.748Z</time></trkpt><trkpt lat="45.5807267" lon="10.77533"><ele>228.25</ele><time>2026-04-26T10:57:16.749Z</time></trkpt><trkpt lat="45.580865" lon="10.7753733"><ele>228.5</ele><time>2026-04-26T10:57:17.748Z</time></trkpt><trkpt lat="45.5810017" lon="10.7754233"><ele>228.75</ele><time>2026-04-26T10:57:18.749Z</time></trkpt><trkpt lat="45.5811467" lon="10.775475"><ele>229.0</ele><time>2026-04-26T10:57:19.749Z</time></trkpt><trkpt lat="45.5812883" lon="10.77552"><ele>229.5</ele><time>2026-04-26T10:57:20.748Z</time></trkpt><trkpt lat="45.5814117" lon="10.7755533"><ele>230.0</ele><time>2026-04-26T10:57:21.748Z</time></trkpt><trkpt lat="45.5815333" lon="10.775585"><ele>230.5</ele><time>2026-04-26T10:57:22.748Z</time></trkpt><trkpt lat="45.581645" lon="10.7756117"><ele>231.0</ele><time>2026-04-26T10:57:23.749Z</time></trkpt><trkpt lat="45.5817417" lon="10.7756533"><ele>231.0</ele><time>2026-04-26T10:57:24.748Z</time></trkpt><trkpt lat="45.5818483" lon="10.7756867"><ele>231.0</ele><time>2026-04-26T10:57:25.748Z</time></trkpt><trkpt lat="45.5819333" lon="10.7757067"><ele>231.0</ele><time>2026-04-26T10:57:26.749Z</time></trkpt><trkpt lat="45.58201" lon="10.7757383"><ele>231.0</ele><time>2026-04-26T10:57:27.748Z</time></trkpt><trkpt lat="45.58209" lon="10.775775"><ele>231.0</ele><time>2026-04-26T10:57:28.748Z</time></trkpt><trkpt lat="45.5821567" lon="10.77582"><ele>231.0</ele><time>2026-04-26T10:57:29.749Z</time></trkpt><trkpt lat="45.5822267" lon="10.7758417"><ele>230.8</ele><time>2026-04-26T10:57:30.749Z</time></trkpt><trkpt lat="45.5823333" lon="10.7757567"><ele>230.60000000000002</ele><time>2026-04-26T10:57:32.748Z</time></trkpt><trkpt lat="45.5823717" lon="10.775655"><ele>230.4</ele><time>2026-04-26T10:57:33.748Z</time></trkpt><trkpt lat="45.5824033" lon="10.77551"><ele>230.2</ele><time>2026-04-26T10:57:34.748Z</time></trkpt><trkpt lat="45.5824167" lon="10.7753567"><ele>230.0</ele><time>2026-04-26T10:57:35.748Z</time></trkpt><trkpt lat="45.5824317" lon="10.7751683"><ele>229.5</ele><time>2026-04-26T10:57:36.749Z</time></trkpt><trkpt lat="45.5824433" lon="10.774965"><ele>229.0</ele><time>2026-04-26T10:57:37.748Z</time></trkpt><trkpt lat="45.58246" lon="10.77477"><ele>228.5</ele><time>2026-04-26T10:57:38.749Z</time></trkpt><trkpt lat="45.58248" lon="10.77457"><ele>228.0</ele><time>2026-04-26T10:57:39.748Z</time></trkpt><trkpt lat="45.5825" lon="10.7743717"><ele>227.75</ele><time>2026-04-26T10:57:40.748Z</time></trkpt><trkpt lat="45.5825333" lon="10.7741817"><ele>227.5</ele><time>2026-04-26T10:57:41.748Z</time></trkpt><trkpt lat="45.5825817" lon="10.773995"><ele>227.25</ele><time>2026-04-26T10:57:42.748Z</time></trkpt><trkpt lat="45.5826417" lon="10.7738183"><ele>227.0</ele><time>2026-04-26T10:57:43.749Z</time></trkpt><trkpt lat="45.582725" lon="10.7736617"><ele>226.5</ele><time>2026-04-26T10:57:44.748Z</time></trkpt><trkpt lat="45.5828167" lon="10.77352"><ele>226.0</ele><time>2026-04-26T10:57:45.748Z</time></trkpt><trkpt lat="45.5829083" lon="10.7733933"><ele>225.5</ele><time>2026-04-26T10:57:46.748Z</time></trkpt><trkpt lat="45.5830033" lon="10.7732833"><ele>225.0</ele><time>2026-04-26T10:57:47.748Z</time></trkpt><trkpt lat="45.5831" lon="10.77316"><ele>225.0</ele><time>2026-04-26T10:57:48.748Z</time></trkpt><trkpt lat="45.583195" lon="10.7730233"><ele>225.0</ele><time>2026-04-26T10:57:49.749Z</time></trkpt><trkpt lat="45.583285" lon="10.7729033"><ele>225.0</ele><time>2026-04-26T10:57:50.748Z</time></trkpt><trkpt lat="45.5833633" lon="10.7727733"><ele>225.0</ele><time>2026-04-26T10:57:51.748Z</time></trkpt><trkpt lat="45.583435" lon="10.7726133"><ele>224.5</ele><time>2026-04-26T10:57:52.748Z</time></trkpt><trkpt lat="45.583485" lon="10.77245"><ele>224.0</ele><time>2026-04-26T10:57:53.748Z</time></trkpt><trkpt lat="45.5835317" lon="10.7722517"><ele>223.5</ele><time>2026-04-26T10:57:54.748Z</time></trkpt><trkpt lat="45.5835683" lon="10.7720483"><ele>223.0</ele><time>2026-04-26T10:57:55.748Z</time></trkpt><trkpt lat="45.5835933" lon="10.7718433"><ele>222.25</ele><time>2026-04-26T10:57:56.748Z</time></trkpt><trkpt lat="45.583605" lon="10.771635"><ele>221.5</ele><time>2026-04-26T10:57:57.748Z</time></trkpt><trkpt lat="45.58361" lon="10.7714217"><ele>220.75</ele><time>2026-04-26T10:57:58.748Z</time></trkpt><trkpt lat="45.5836233" lon="10.7712033"><ele>220.0</ele><time>2026-04-26T10:57:59.748Z</time></trkpt><trkpt lat="45.58364" lon="10.7709833"><ele>219.66666666666666</ele><time>2026-04-26T10:58:00.749Z</time></trkpt><trkpt lat="45.5836533" lon="10.7707633"><ele>219.33333333333331</ele><time>2026-04-26T10:58:01.749Z</time></trkpt><trkpt lat="45.5836717" lon="10.7705533"><ele>219.0</ele><time>2026-04-26T10:58:02.748Z</time></trkpt><trkpt lat="45.5836967" lon="10.770345"><ele>219.0</ele><time>2026-04-26T10:58:03.748Z</time></trkpt><trkpt lat="45.5837283" lon="10.770125"><ele>219.0</ele><time>2026-04-26T10:58:04.748Z</time></trkpt><trkpt lat="45.5837717" lon="10.7699"><ele>219.0</ele><time>2026-04-26T10:58:05.748Z</time></trkpt><trkpt lat="45.583785" lon="10.769685"><ele>219.0</ele><time>2026-04-26T10:58:06.748Z</time></trkpt><trkpt lat="45.5838067" lon="10.7694917"><ele>219.0</ele><time>2026-04-26T10:58:07.748Z</time></trkpt><trkpt lat="45.5838317" lon="10.7692883"><ele>219.0</ele><time>2026-04-26T10:58:08.748Z</time></trkpt><trkpt lat="45.583845" lon="10.7690833"><ele>219.0</ele><time>2026-04-26T10:58:09.748Z</time></trkpt><trkpt lat="45.5838633" lon="10.7688667"><ele>218.25</ele><time>2026-04-26T10:58:10.748Z</time></trkpt><trkpt lat="45.583875" lon="10.768675"><ele>217.5</ele><time>2026-04-26T10:58:11.748Z</time></trkpt><trkpt lat="45.5838933" lon="10.7684967"><ele>216.75</ele><time>2026-04-26T10:58:12.748Z</time></trkpt><trkpt lat="45.5839133" lon="10.7683017"><ele>216.0</ele><time>2026-04-26T10:58:13.749Z</time></trkpt><trkpt lat="45.5839367" lon="10.7681233"><ele>215.5</ele><time>2026-04-26T10:58:14.749Z</time></trkpt><trkpt lat="45.583965" lon="10.767955"><ele>215.0</ele><time>2026-04-26T10:58:15.748Z</time></trkpt><trkpt lat="45.584" lon="10.76778"><ele>214.5</ele><time>2026-04-26T10:58:16.748Z</time></trkpt><trkpt lat="45.5840383" lon="10.7676167"><ele>214.0</ele><time>2026-04-26T10:58:17.749Z</time></trkpt><trkpt lat="45.58408" lon="10.7674583"><ele>214.0</ele><time>2026-04-26T10:58:18.749Z</time></trkpt><trkpt lat="45.5841367" lon="10.76732"><ele>213.99999999999997</ele><time>2026-04-26T10:58:19.748Z</time></trkpt><trkpt lat="45.5842083" lon="10.7672067"><ele>213.99999999999997</ele><time>2026-04-26T10:58:20.749Z</time></trkpt><trkpt lat="45.58429" lon="10.7671033"><ele>214.0</ele><time>2026-04-26T10:58:21.748Z</time></trkpt><trkpt lat="45.5843833" lon="10.7669967"><ele>214.0</ele><time>2026-04-26T10:58:22.749Z</time></trkpt><trkpt lat="45.58448" lon="10.766865"><ele>214.0</ele><time>2026-04-26T10:58:23.748Z</time></trkpt><trkpt lat="45.58458" lon="10.7667367"><ele>214.0</ele><time>2026-04-26T10:58:24.749Z</time></trkpt><trkpt lat="45.58467" lon="10.7666033"><ele>214.0</ele><time>2026-04-26T10:58:25.748Z</time></trkpt><trkpt lat="45.5847517" lon="10.7664617"><ele>214.0</ele><time>2026-04-26T10:58:26.747Z</time></trkpt><trkpt lat="45.584835" lon="10.7663317"><ele>214.0</ele><time>2026-04-26T10:58:27.747Z</time></trkpt><trkpt lat="45.5849167" lon="10.76618"><ele>214.0</ele><time>2026-04-26T10:58:28.747Z</time></trkpt><trkpt lat="45.585005" lon="10.76602"><ele>214.0</ele><time>2026-04-26T10:58:29.748Z</time></trkpt><trkpt lat="45.5850933" lon="10.7658567"><ele>214.0</ele><time>2026-04-26T10:58:30.747Z</time></trkpt><trkpt lat="45.5851817" lon="10.7657083"><ele>213.75</ele><time>2026-04-26T10:58:31.747Z</time></trkpt><trkpt lat="45.58527" lon="10.7655483"><ele>213.5</ele><time>2026-04-26T10:58:32.748Z</time></trkpt><trkpt lat="45.58536" lon="10.76539"><ele>213.25</ele><time>2026-04-26T10:58:33.747Z</time></trkpt><trkpt lat="45.5854433" lon="10.7652317"><ele>213.0</ele><time>2026-04-26T10:58:34.747Z</time></trkpt><trkpt lat="45.58553" lon="10.7650833"><ele>213.0</ele><time>2026-04-26T10:58:35.747Z</time></trkpt><trkpt lat="45.5856083" lon="10.7649283"><ele>213.0</ele><time>2026-04-26T10:58:36.747Z</time></trkpt><trkpt lat="45.585675" lon="10.76477"><ele>213.0</ele><time>2026-04-26T10:58:37.747Z</time></trkpt><trkpt lat="45.5857467" lon="10.7646133"><ele>213.0</ele><time>2026-04-26T10:58:38.747Z</time></trkpt><trkpt lat="45.5858217" lon="10.76447"><ele>212.75</ele><time>2026-04-26T10:58:39.747Z</time></trkpt><trkpt lat="45.5858967" lon="10.7643283"><ele>212.5</ele><time>2026-04-26T10:58:40.748Z</time></trkpt><trkpt lat="45.5859817" lon="10.76419"><ele>212.25</ele><time>2026-04-26T10:58:41.747Z</time></trkpt><trkpt lat="45.586075" lon="10.764045"><ele>212.0</ele><time>2026-04-26T10:58:42.747Z</time></trkpt><trkpt lat="45.5861717" lon="10.7639"><ele>212.0</ele><time>2026-04-26T10:58:43.747Z</time></trkpt><trkpt lat="45.58627" lon="10.763755"><ele>212.0</ele><time>2026-04-26T10:58:44.747Z</time></trkpt><trkpt lat="45.58636" lon="10.7636183"><ele>212.0</ele><time>2026-04-26T10:58:45.747Z</time></trkpt><trkpt lat="45.5864433" lon="10.7634967"><ele>212.0</ele><time>2026-04-26T10:58:46.747Z</time></trkpt><trkpt lat="45.586525" lon="10.7633683"><ele>211.75</ele><time>2026-04-26T10:58:47.747Z</time></trkpt><trkpt lat="45.5866383" lon="10.7632617"><ele>211.5</ele><time>2026-04-26T10:58:48.747Z</time></trkpt><trkpt lat="45.5867483" lon="10.7631733"><ele>211.25</ele><time>2026-04-26T10:58:49.747Z</time></trkpt><trkpt lat="45.58684" lon="10.7630883"><ele>211.0</ele><time>2026-04-26T10:58:50.747Z</time></trkpt><trkpt lat="45.5869283" lon="10.7629967"><ele>211.25</ele><time>2026-04-26T10:58:51.747Z</time></trkpt><trkpt lat="45.5870183" lon="10.7628867"><ele>211.5</ele><time>2026-04-26T10:58:52.748Z</time></trkpt><trkpt lat="45.58711" lon="10.7627617"><ele>211.75</ele><time>2026-04-26T10:58:53.747Z</time></trkpt><trkpt lat="45.5871983" lon="10.7626333"><ele>212.0</ele><time>2026-04-26T10:58:54.748Z</time></trkpt><trkpt lat="45.5872783" lon="10.7624867"><ele>212.0</ele><time>2026-04-26T10:58:55.747Z</time></trkpt><trkpt lat="45.5873467" lon="10.7623233"><ele>212.0</ele><time>2026-04-26T10:58:56.747Z</time></trkpt><trkpt lat="45.5874117" lon="10.7621533"><ele>212.0</ele><time>2026-04-26T10:58:57.747Z</time></trkpt><trkpt lat="45.58746" lon="10.76198"><ele>212.0</ele><time>2026-04-26T10:58:58.748Z</time></trkpt><trkpt lat="45.5874883" lon="10.7618117"><ele>211.75</ele><time>2026-04-26T10:58:59.748Z</time></trkpt><trkpt lat="45.587515" lon="10.761615"><ele>211.5</ele><time>2026-04-26T10:59:00.747Z</time></trkpt><trkpt lat="45.5875333" lon="10.7614283"><ele>211.25</ele><time>2026-04-26T10:59:01.747Z</time></trkpt><trkpt lat="45.58754" lon="10.7612467"><ele>211.0</ele><time>2026-04-26T10:59:02.748Z</time></trkpt><trkpt lat="45.5875367" lon="10.7610567"><ele>210.75</ele><time>2026-04-26T10:59:03.747Z</time></trkpt><trkpt lat="45.5875333" lon="10.7608833"><ele>210.5</ele><time>2026-04-26T10:59:04.747Z</time></trkpt><trkpt lat="45.5875317" lon="10.7607017"><ele>210.25</ele><time>2026-04-26T10:59:05.748Z</time></trkpt><trkpt lat="45.587535" lon="10.7605233"><ele>210.0</ele><time>2026-04-26T10:59:06.748Z</time></trkpt><trkpt lat="45.58754" lon="10.760325"><ele>209.75</ele><time>2026-04-26T10:59:07.748Z</time></trkpt><trkpt lat="45.5875433" lon="10.7601633"><ele>209.5</ele><time>2026-04-26T10:59:08.747Z</time></trkpt><trkpt lat="45.5875517" lon="10.7599767"><ele>209.25</ele><time>2026-04-26T10:59:09.747Z</time></trkpt><trkpt lat="45.5875533" lon="10.7598033"><ele>209.0</ele><time>2026-04-26T10:59:10.748Z</time></trkpt><trkpt lat="45.587555" lon="10.7596317"><ele>209.0</ele><time>2026-04-26T10:59:11.747Z</time></trkpt><trkpt lat="45.587555" lon="10.759465"><ele>209.0</ele><time>2026-04-26T10:59:12.747Z</time></trkpt><trkpt lat="45.5875567" lon="10.7593117"><ele>209.0</ele><time>2026-04-26T10:59:13.748Z</time></trkpt><trkpt lat="45.587555" lon="10.7591783"><ele>209.0</ele><time>2026-04-26T10:59:14.748Z</time></trkpt><trkpt lat="45.58756" lon="10.7590533"><ele>209.0</ele><time>2026-04-26T10:59:15.747Z</time></trkpt><trkpt lat="45.5875667" lon="10.75894"><ele>209.2</ele><time>2026-04-26T10:59:16.748Z</time></trkpt><trkpt lat="45.5875767" lon="10.75883"><ele>209.39999999999998</ele><time>2026-04-26T10:59:17.748Z</time></trkpt><trkpt lat="45.5875917" lon="10.758725"><ele>209.6</ele><time>2026-04-26T10:59:18.748Z</time></trkpt><trkpt lat="45.587585" lon="10.75857"><ele>209.8</ele><time>2026-04-26T10:59:20.747Z</time></trkpt><trkpt lat="45.5875183" lon="10.7584383"><ele>210.0</ele><time>2026-04-26T10:59:22.748Z</time></trkpt><trkpt lat="45.5874633" lon="10.75836"><ele>210.0</ele><time>2026-04-26T10:59:23.748Z</time></trkpt><trkpt lat="45.587395" lon="10.7583"><ele>210.0</ele><time>2026-04-26T10:59:24.747Z</time></trkpt><trkpt lat="45.5873183" lon="10.7582583"><ele>210.0</ele><time>2026-04-26T10:59:25.747Z</time></trkpt><trkpt lat="45.5872183" lon="10.7582317"><ele>210.0</ele><time>2026-04-26T10:59:26.747Z</time></trkpt><trkpt lat="45.5870933" lon="10.7582133"><ele>210.0</ele><time>2026-04-26T10:59:27.748Z</time></trkpt><trkpt lat="45.5869417" lon="10.7581933"><ele>210.0</ele><time>2026-04-26T10:59:28.747Z</time></trkpt><trkpt lat="45.5867917" lon="10.7581533"><ele>210.0</ele><time>2026-04-26T10:59:29.747Z</time></trkpt><trkpt lat="45.5866483" lon="10.7581183"><ele>210.0</ele><time>2026-04-26T10:59:30.747Z</time></trkpt><trkpt lat="45.5865" lon="10.75809"><ele>210.0</ele><time>2026-04-26T10:59:31.748Z</time></trkpt><trkpt lat="45.5863733" lon="10.7580633"><ele>210.0</ele><time>2026-04-26T10:59:32.747Z</time></trkpt><trkpt lat="45.5862517" lon="10.7580367"><ele>210.0</ele><time>2026-04-26T10:59:33.747Z</time></trkpt><trkpt lat="45.5861117" lon="10.7580067"><ele>210.0</ele><time>2026-04-26T10:59:34.748Z</time></trkpt><trkpt lat="45.5859883" lon="10.7579783"><ele>210.0</ele><time>2026-04-26T10:59:35.747Z</time></trkpt><trkpt lat="45.5858683" lon="10.7579283"><ele>210.0</ele><time>2026-04-26T10:59:36.748Z</time></trkpt><trkpt lat="45.585765" lon="10.7578633"><ele>210.0</ele><time>2026-04-26T10:59:37.747Z</time></trkpt><trkpt lat="45.5856633" lon="10.7577883"><ele>210.0</ele><time>2026-04-26T10:59:38.747Z</time></trkpt><trkpt lat="45.58556" lon="10.7577033"><ele>210.0</ele><time>2026-04-26T10:59:39.747Z</time></trkpt><trkpt lat="45.5854567" lon="10.7576167"><ele>209.8</ele><time>2026-04-26T10:59:40.747Z</time></trkpt><trkpt lat="45.585345" lon="10.7575383"><ele>209.6</ele><time>2026-04-26T10:59:41.747Z</time></trkpt><trkpt lat="45.58524" lon="10.7574767"><ele>209.39999999999998</ele><time>2026-04-26T10:59:42.747Z</time></trkpt><trkpt lat="45.5851483" lon="10.75743"><ele>209.2</ele><time>2026-04-26T10:59:43.748Z</time></trkpt><trkpt lat="45.5850667" lon="10.7574083"><ele>209.0</ele><time>2026-04-26T10:59:44.747Z</time></trkpt><trkpt lat="45.5849883" lon="10.75735"><ele>209.0</ele><time>2026-04-26T10:59:45.747Z</time></trkpt><trkpt lat="45.5849083" lon="10.7572783"><ele>209.0</ele><time>2026-04-26T10:59:46.747Z</time></trkpt><trkpt lat="45.584825" lon="10.757185"><ele>209.0</ele><time>2026-04-26T10:59:47.748Z</time></trkpt><trkpt lat="45.5847433" lon="10.757075"><ele>209.0</ele><time>2026-04-26T10:59:48.747Z</time></trkpt><trkpt lat="45.5846533" lon="10.7569533"><ele>209.0</ele><time>2026-04-26T10:59:49.748Z</time></trkpt><trkpt lat="45.58458" lon="10.756835"><ele>209.0</ele><time>2026-04-26T10:59:50.747Z</time></trkpt><trkpt lat="45.5845167" lon="10.7567233"><ele>209.0</ele><time>2026-04-26T10:59:51.747Z</time></trkpt><trkpt lat="45.584445" lon="10.7565983"><ele>209.0</ele><time>2026-04-26T10:59:52.747Z</time></trkpt><trkpt lat="45.5843683" lon="10.75647"><ele>209.0</ele><time>2026-04-26T10:59:53.747Z</time></trkpt><trkpt lat="45.58429" lon="10.756345"><ele>209.0</ele><time>2026-04-26T10:59:54.747Z</time></trkpt><trkpt lat="45.5842067" lon="10.756205"><ele>209.25</ele><time>2026-04-26T10:59:55.748Z</time></trkpt><trkpt lat="45.5841283" lon="10.7560617"><ele>209.5</ele><time>2026-04-26T10:59:56.748Z</time></trkpt><trkpt lat="45.5840483" lon="10.75593"><ele>209.75</ele><time>2026-04-26T10:59:57.747Z</time></trkpt><trkpt lat="45.58397" lon="10.7558067"><ele>210.0</ele><time>2026-04-26T10:59:58.748Z</time></trkpt><trkpt lat="45.58391" lon="10.7556867"><ele>210.0</ele><time>2026-04-26T10:59:59.748Z</time></trkpt><trkpt lat="45.5838533" lon="10.7555667"><ele>210.0</ele><time>2026-04-26T11:00:00.747Z</time></trkpt><trkpt lat="45.5838017" lon="10.75543"><ele>210.0</ele><time>2026-04-26T11:00:01.747Z</time></trkpt><trkpt lat="45.5837567" lon="10.7552983"><ele>210.0</ele><time>2026-04-26T11:00:02.747Z</time></trkpt><trkpt lat="45.5836967" lon="10.755165"><ele>210.0</ele><time>2026-04-26T11:00:03.747Z</time></trkpt><trkpt lat="45.5836467" lon="10.75503"><ele>210.0</ele><time>2026-04-26T11:00:04.748Z</time></trkpt><trkpt lat="45.5835933" lon="10.7549067"><ele>210.0</ele><time>2026-04-26T11:00:05.747Z</time></trkpt><trkpt lat="45.58353" lon="10.7547817"><ele>210.0</ele><time>2026-04-26T11:00:06.747Z</time></trkpt><trkpt lat="45.5834683" lon="10.75466"><ele>210.0</ele><time>2026-04-26T11:00:07.748Z</time></trkpt><trkpt lat="45.5834067" lon="10.7545417"><ele>210.0</ele><time>2026-04-26T11:00:08.747Z</time></trkpt><trkpt lat="45.5833383" lon="10.7544233"><ele>209.6</ele><time>2026-04-26T11:00:09.748Z</time></trkpt><trkpt lat="45.5832783" lon="10.7543133"><ele>209.2</ele><time>2026-04-26T11:00:10.747Z</time></trkpt><trkpt lat="45.5832117" lon="10.7541917"><ele>208.8</ele><time>2026-04-26T11:00:11.747Z</time></trkpt><trkpt lat="45.5831333" lon="10.7540617"><ele>208.4</ele><time>2026-04-26T11:00:12.747Z</time></trkpt><trkpt lat="45.58306" lon="10.7539217"><ele>208.0</ele><time>2026-04-26T11:00:13.747Z</time></trkpt><trkpt lat="45.5829817" lon="10.7538033"><ele>207.99999999999997</ele><time>2026-04-26T11:00:14.747Z</time></trkpt><trkpt lat="45.58292" lon="10.7537083"><ele>208.0</ele><time>2026-04-26T11:00:15.747Z</time></trkpt><trkpt lat="45.5828517" lon="10.7536167"><ele>208.0</ele><time>2026-04-26T11:00:16.747Z</time></trkpt><trkpt lat="45.5828017" lon="10.7535233"><ele>208.0</ele><time>2026-04-26T11:00:17.748Z</time></trkpt><trkpt lat="45.5827567" lon="10.7534317"><ele>207.99999999999997</ele><time>2026-04-26T11:00:18.748Z</time></trkpt><trkpt lat="45.5827133" lon="10.75335"><ele>208.0</ele><time>2026-04-26T11:00:19.747Z</time></trkpt><trkpt lat="45.5826717" lon="10.7532767"><ele>208.33333333333331</ele><time>2026-04-26T11:00:20.747Z</time></trkpt><trkpt lat="45.5826383" lon="10.7531983"><ele>208.66666666666666</ele><time>2026-04-26T11:00:21.748Z</time></trkpt><trkpt lat="45.5825867" lon="10.75306"><ele>209.0</ele><time>2026-04-26T11:00:23.747Z</time></trkpt><trkpt lat="45.5825517" lon="10.7529567"><ele>209.33333333333331</ele><time>2026-04-26T11:00:25.747Z</time></trkpt><trkpt lat="45.582585" lon="10.75285"><ele>209.66666666666666</ele><time>2026-04-26T11:00:27.748Z</time></trkpt><trkpt lat="45.582635" lon="10.7527767"><ele>210.0</ele><time>2026-04-26T11:00:28.747Z</time></trkpt><trkpt lat="45.58272" lon="10.7526817"><ele>210.0</ele><time>2026-04-26T11:00:29.747Z</time></trkpt><trkpt lat="45.58282" lon="10.75257"><ele>210.0</ele><time>2026-04-26T11:00:30.747Z</time></trkpt><trkpt lat="45.582935" lon="10.7524283"><ele>210.0</ele><time>2026-04-26T11:00:31.748Z</time></trkpt><trkpt lat="45.5830583" lon="10.7523017"><ele>210.0</ele><time>2026-04-26T11:00:32.748Z</time></trkpt><trkpt lat="45.5831783" lon="10.7521817"><ele>211.0</ele><time>2026-04-26T11:00:33.747Z</time></trkpt><trkpt lat="45.5833067" lon="10.7520867"><ele>212.0</ele><time>2026-04-26T11:00:34.747Z</time></trkpt><trkpt lat="45.5834167" lon="10.75196"><ele>213.0</ele><time>2026-04-26T11:00:35.747Z</time></trkpt><trkpt lat="45.5835233" lon="10.751845"><ele>214.0</ele><time>2026-04-26T11:00:36.747Z</time></trkpt><trkpt lat="45.58363" lon="10.751735"><ele>215.25</ele><time>2026-04-26T11:00:37.747Z</time></trkpt><trkpt lat="45.5837433" lon="10.7516283"><ele>216.5</ele><time>2026-04-26T11:00:38.747Z</time></trkpt><trkpt lat="45.5838567" lon="10.7515167"><ele>217.75</ele><time>2026-04-26T11:00:39.747Z</time></trkpt><trkpt lat="45.58397" lon="10.7514"><ele>219.0</ele><time>2026-04-26T11:00:40.747Z</time></trkpt><trkpt lat="45.5840833" lon="10.75127"><ele>219.0</ele><time>2026-04-26T11:00:41.748Z</time></trkpt><trkpt lat="45.584195" lon="10.751135"><ele>219.0</ele><time>2026-04-26T11:00:42.747Z</time></trkpt><trkpt lat="45.5843033" lon="10.7509967"><ele>219.0</ele><time>2026-04-26T11:00:43.747Z</time></trkpt><trkpt lat="45.5844067" lon="10.750865"><ele>219.0</ele><time>2026-04-26T11:00:44.747Z</time></trkpt><trkpt lat="45.584505" lon="10.7507433"><ele>219.25</ele><time>2026-04-26T11:00:45.747Z</time></trkpt><trkpt lat="45.5845933" lon="10.7506267"><ele>219.5</ele><time>2026-04-26T11:00:46.747Z</time></trkpt><trkpt lat="45.58468" lon="10.7505133"><ele>219.75</ele><time>2026-04-26T11:00:47.747Z</time></trkpt><trkpt lat="45.5847667" lon="10.7503983"><ele>220.0</ele><time>2026-04-26T11:00:48.747Z</time></trkpt><trkpt lat="45.5848533" lon="10.7502833"><ele>220.0</ele><time>2026-04-26T11:00:49.747Z</time></trkpt><trkpt lat="45.5849417" lon="10.75016"><ele>220.0</ele><time>2026-04-26T11:00:50.748Z</time></trkpt><trkpt lat="45.58503" lon="10.750035"><ele>220.0</ele><time>2026-04-26T11:00:51.747Z</time></trkpt><trkpt lat="45.5851183" lon="10.7499167"><ele>220.0</ele><time>2026-04-26T11:00:52.747Z</time></trkpt><trkpt lat="45.5852033" lon="10.749805"><ele>220.0</ele><time>2026-04-26T11:00:53.747Z</time></trkpt><trkpt lat="45.58528" lon="10.749695"><ele>220.0</ele><time>2026-04-26T11:00:54.748Z</time></trkpt><trkpt lat="45.5853583" lon="10.7495883"><ele>220.0</ele><time>2026-04-26T11:00:55.747Z</time></trkpt><trkpt lat="45.5854383" lon="10.7494833"><ele>220.0</ele><time>2026-04-26T11:00:56.748Z</time></trkpt><trkpt lat="45.5855117" lon="10.7493867"><ele>220.0</ele><time>2026-04-26T11:00:57.747Z</time></trkpt><trkpt lat="45.585575" lon="10.7493083"><ele>220.16666666666666</ele><time>2026-04-26T11:00:58.747Z</time></trkpt><trkpt lat="45.5856233" lon="10.7492417"><ele>220.33333333333331</ele><time>2026-04-26T11:00:59.748Z</time></trkpt><trkpt lat="45.5856783" lon="10.749165"><ele>220.5</ele><time>2026-04-26T11:01:01.747Z</time></trkpt><trkpt lat="45.5856467" lon="10.7490567"><ele>220.66666666666669</ele><time>2026-04-26T11:01:05.748Z</time></trkpt><trkpt lat="45.5855783" lon="10.749"><ele>220.83333333333334</ele><time>2026-04-26T11:01:07.748Z</time></trkpt><trkpt lat="45.5855183" lon="10.7489567"><ele>221.0</ele><time>2026-04-26T11:01:08.748Z</time></trkpt><trkpt lat="45.585435" lon="10.7489167"><ele>221.0</ele><time>2026-04-26T11:01:09.747Z</time></trkpt><trkpt lat="45.5853483" lon="10.7488967"><ele>221.00000000000003</ele><time>2026-04-26T11:01:10.747Z</time></trkpt><trkpt lat="45.58525" lon="10.74889"><ele>221.00000000000003</ele><time>2026-04-26T11:01:11.747Z</time></trkpt><trkpt lat="45.5851433" lon="10.74889"><ele>221.0</ele><time>2026-04-26T11:01:12.747Z</time></trkpt><trkpt lat="45.5850467" lon="10.7489167"><ele>221.0</ele><time>2026-04-26T11:01:13.747Z</time></trkpt><trkpt lat="45.5849533" lon="10.7489683"><ele>220.8</ele><time>2026-04-26T11:01:14.746Z</time></trkpt><trkpt lat="45.58487" lon="10.7490517"><ele>220.60000000000002</ele><time>2026-04-26T11:01:15.747Z</time></trkpt><trkpt lat="45.5847883" lon="10.749155"><ele>220.4</ele><time>2026-04-26T11:01:16.747Z</time></trkpt><trkpt lat="45.584705" lon="10.7492733"><ele>220.2</ele><time>2026-04-26T11:01:17.747Z</time></trkpt><trkpt lat="45.5846283" lon="10.7493733"><ele>220.0</ele><time>2026-04-26T11:01:18.746Z</time></trkpt><trkpt lat="45.5845567" lon="10.7494483"><ele>221.0</ele><time>2026-04-26T11:01:19.746Z</time></trkpt><trkpt lat="45.5844433" lon="10.7494883"><ele>222.0</ele><time>2026-04-26T11:01:20.746Z</time></trkpt><trkpt lat="45.5843167" lon="10.7495217"><ele>223.0</ele><time>2026-04-26T11:01:21.746Z</time></trkpt><trkpt lat="45.584175" lon="10.7495433"><ele>224.0</ele><time>2026-04-26T11:01:22.746Z</time></trkpt><trkpt lat="45.584005" lon="10.7495517"><ele>224.0</ele><time>2026-04-26T11:01:23.747Z</time></trkpt><trkpt lat="45.5838217" lon="10.7495633"><ele>224.0</ele><time>2026-04-26T11:01:24.746Z</time></trkpt><trkpt lat="45.583645" lon="10.7495883"><ele>224.0</ele><time>2026-04-26T11:01:25.746Z</time></trkpt><trkpt lat="45.5834833" lon="10.7496267"><ele>225.0</ele><time>2026-04-26T11:01:26.746Z</time></trkpt><trkpt lat="45.583325" lon="10.7496717"><ele>226.0</ele><time>2026-04-26T11:01:27.746Z</time></trkpt><trkpt lat="45.5831783" lon="10.7497067"><ele>227.0</ele><time>2026-04-26T11:01:28.747Z</time></trkpt><trkpt lat="45.5830367" lon="10.7497"><ele>227.0</ele><time>2026-04-26T11:01:29.747Z</time></trkpt><trkpt lat="45.582885" lon="10.749685"><ele>227.0</ele><time>2026-04-26T11:01:30.746Z</time></trkpt><trkpt lat="45.5827317" lon="10.7496617"><ele>227.0</ele><time>2026-04-26T11:01:31.747Z</time></trkpt><trkpt lat="45.5825667" lon="10.7495983"><ele>226.33333333333334</ele><time>2026-04-26T11:01:32.746Z</time></trkpt><trkpt lat="45.5823933" lon="10.749565"><ele>225.66666666666669</ele><time>2026-04-26T11:01:33.746Z</time></trkpt><trkpt lat="45.5822217" lon="10.74952"><ele>225.0</ele><time>2026-04-26T11:01:34.746Z</time></trkpt><trkpt lat="45.5820517" lon="10.7494933"><ele>224.0</ele><time>2026-04-26T11:01:35.746Z</time></trkpt><trkpt lat="45.5818967" lon="10.7494567"><ele>223.0</ele><time>2026-04-26T11:01:36.747Z</time></trkpt><trkpt lat="45.5817333" lon="10.7494333"><ele>222.0</ele><time>2026-04-26T11:01:37.746Z</time></trkpt><trkpt lat="45.5815683" lon="10.7494117"><ele>222.0</ele><time>2026-04-26T11:01:38.746Z</time></trkpt><trkpt lat="45.581405" lon="10.749395"><ele>222.0</ele><time>2026-04-26T11:01:39.746Z</time></trkpt><trkpt lat="45.5812483" lon="10.7493617"><ele>222.0</ele><time>2026-04-26T11:01:40.747Z</time></trkpt><trkpt lat="45.5811067" lon="10.749335"><ele>222.25</ele><time>2026-04-26T11:01:41.746Z</time></trkpt><trkpt lat="45.5809733" lon="10.7493317"><ele>222.5</ele><time>2026-04-26T11:01:42.746Z</time></trkpt><trkpt lat="45.580835" lon="10.7493317"><ele>222.75</ele><time>2026-04-26T11:01:43.746Z</time></trkpt><trkpt lat="45.5807083" lon="10.7493683"><ele>223.0</ele><time>2026-04-26T11:01:44.746Z</time></trkpt><trkpt lat="45.5805817" lon="10.74945"><ele>223.0</ele><time>2026-04-26T11:01:45.747Z</time></trkpt><trkpt lat="45.5804733" lon="10.7495383"><ele>223.0</ele><time>2026-04-26T11:01:46.746Z</time></trkpt><trkpt lat="45.5803883" lon="10.749615"><ele>223.0</ele><time>2026-04-26T11:01:47.747Z</time></trkpt><trkpt lat="45.580315" lon="10.74966"><ele>223.0</ele><time>2026-04-26T11:01:48.746Z</time></trkpt><trkpt lat="45.5802567" lon="10.7497117"><ele>223.0</ele><time>2026-04-26T11:01:49.746Z</time></trkpt><trkpt lat="45.5802067" lon="10.749805"><ele>224.75</ele><time>2026-04-26T11:01:51.747Z</time></trkpt><trkpt lat="45.58015" lon="10.7498767"><ele>226.5</ele><time>2026-04-26T11:01:53.746Z</time></trkpt><trkpt lat="45.5800167" lon="10.7499367"><ele>228.25</ele><time>2026-04-26T11:01:55.746Z</time></trkpt><trkpt lat="45.5799133" lon="10.7499783"><ele>230.0</ele><time>2026-04-26T11:01:56.746Z</time></trkpt><trkpt lat="45.5797017" lon="10.750125"><ele>229.66666666666669</ele><time>2026-04-26T11:01:57.747Z</time></trkpt><trkpt lat="45.5795467" lon="10.7502283"><ele>229.33333333333331</ele><time>2026-04-26T11:01:58.746Z</time></trkpt><trkpt lat="45.5793933" lon="10.750325"><ele>229.0</ele><time>2026-04-26T11:01:59.746Z</time></trkpt><trkpt lat="45.5792483" lon="10.75042"><ele>229.0</ele><time>2026-04-26T11:02:00.747Z</time></trkpt><trkpt lat="45.5791167" lon="10.750515"><ele>229.0</ele><time>2026-04-26T11:02:01.746Z</time></trkpt><trkpt lat="45.5789917" lon="10.75061"><ele>229.0</ele><time>2026-04-26T11:02:02.746Z</time></trkpt><trkpt lat="45.578875" lon="10.7506867"><ele>229.0</ele><time>2026-04-26T11:02:03.746Z</time></trkpt><trkpt lat="45.5787783" lon="10.7507633"><ele>229.0</ele><time>2026-04-26T11:02:04.746Z</time></trkpt><trkpt lat="45.578705" lon="10.750835"><ele>228.99999999999997</ele><time>2026-04-26T11:02:05.746Z</time></trkpt><trkpt lat="45.5786317" lon="10.7508917"><ele>228.99999999999997</ele><time>2026-04-26T11:02:06.746Z</time></trkpt><trkpt lat="45.57859" lon="10.7509633"><ele>229.0</ele><time>2026-04-26T11:02:07.746Z</time></trkpt><trkpt lat="45.57853" lon="10.7510933"><ele>229.0</ele><time>2026-04-26T11:02:09.746Z</time></trkpt><trkpt lat="45.5785717" lon="10.751265"><ele>228.2</ele><time>2026-04-26T11:02:11.747Z</time></trkpt><trkpt lat="45.5786183" lon="10.7513933"><ele>227.39999999999998</ele><time>2026-04-26T11:02:12.747Z</time></trkpt><trkpt lat="45.57866" lon="10.7515367"><ele>226.6</ele><time>2026-04-26T11:02:13.746Z</time></trkpt><trkpt lat="45.578695" lon="10.7516633"><ele>225.8</ele><time>2026-04-26T11:02:14.747Z</time></trkpt><trkpt lat="45.5787183" lon="10.7517883"><ele>225.0</ele><time>2026-04-26T11:02:15.746Z</time></trkpt><trkpt lat="45.5787183" lon="10.7519117"><ele>223.6</ele><time>2026-04-26T11:02:16.747Z</time></trkpt><trkpt lat="45.578705" lon="10.7520583"><ele>222.2</ele><time>2026-04-26T11:02:17.746Z</time></trkpt><trkpt lat="45.5786767" lon="10.7522517"><ele>220.8</ele><time>2026-04-26T11:02:18.746Z</time></trkpt><trkpt lat="45.5786533" lon="10.75241"><ele>219.4</ele><time>2026-04-26T11:02:19.746Z</time></trkpt><trkpt lat="45.57864" lon="10.7525217"><ele>218.0</ele><time>2026-04-26T11:02:20.746Z</time></trkpt><trkpt lat="45.5786017" lon="10.7526417"><ele>217.0</ele><time>2026-04-26T11:02:22.746Z</time></trkpt><trkpt lat="45.5785233" lon="10.752715"><ele>216.0</ele><time>2026-04-26T11:02:24.746Z</time></trkpt><trkpt lat="45.578475" lon="10.75284"><ele>215.0</ele><time>2026-04-26T11:02:26.747Z</time></trkpt><trkpt lat="45.5784517" lon="10.75296"><ele>214.0</ele><time>2026-04-26T11:02:27.746Z</time></trkpt><trkpt lat="45.5784367" lon="10.7531083"><ele>213.0</ele><time>2026-04-26T11:02:28.746Z</time></trkpt><trkpt lat="45.5784483" lon="10.75335"><ele>212.0</ele><time>2026-04-26T11:02:29.747Z</time></trkpt><trkpt lat="45.5784717" lon="10.7535733"><ele>211.0</ele><time>2026-04-26T11:02:30.746Z</time></trkpt><trkpt lat="45.5785067" lon="10.7537667"><ele>210.0</ele><time>2026-04-26T11:02:31.746Z</time></trkpt><trkpt lat="45.5785333" lon="10.7539183"><ele>209.0</ele><time>2026-04-26T11:02:32.746Z</time></trkpt><trkpt lat="45.5785567" lon="10.7540283"><ele>209.0</ele><time>2026-04-26T11:02:33.746Z</time></trkpt><trkpt lat="45.578585" lon="10.7541633"><ele>209.0</ele><time>2026-04-26T11:02:35.747Z</time></trkpt><trkpt lat="45.5785133" lon="10.754195"><ele>209.0</ele><time>2026-04-26T11:02:39.747Z</time></trkpt><trkpt lat="45.57844" lon="10.7541533"><ele>209.0</ele><time>2026-04-26T11:02:40.746Z</time></trkpt><trkpt lat="45.5783417" lon="10.7540783"><ele>209.0</ele><time>2026-04-26T11:02:41.746Z</time></trkpt><trkpt lat="45.5782433" lon="10.7540117"><ele>209.0</ele><time>2026-04-26T11:02:42.747Z</time></trkpt><trkpt lat="45.57814" lon="10.75392"><ele>209.0</ele><time>2026-04-26T11:02:43.746Z</time></trkpt><trkpt lat="45.5780567" lon="10.7538667"><ele>209.0</ele><time>2026-04-26T11:02:44.747Z</time></trkpt><trkpt lat="45.5779917" lon="10.7538133"><ele>209.0</ele><time>2026-04-26T11:02:45.746Z</time></trkpt><trkpt lat="45.5779" lon="10.7537333"><ele>209.0</ele><time>2026-04-26T11:02:47.746Z</time></trkpt><trkpt lat="45.5778117" lon="10.7537217"><ele>208.66666666666669</ele><time>2026-04-26T11:02:49.746Z</time></trkpt><trkpt lat="45.57775" lon="10.753775"><ele>208.33333333333334</ele><time>2026-04-26T11:02:50.747Z</time></trkpt><trkpt lat="45.57768" lon="10.75382"><ele>208.0</ele><time>2026-04-26T11:02:51.747Z</time></trkpt><trkpt lat="45.5776117" lon="10.7538517"><ele>207.66666666666669</ele><time>2026-04-26T11:02:52.746Z</time></trkpt><trkpt lat="45.57754" lon="10.7538933"><ele>207.33333333333334</ele><time>2026-04-26T11:02:53.746Z</time></trkpt><trkpt lat="45.577465" lon="10.7539383"><ele>207.0</ele><time>2026-04-26T11:02:54.747Z</time></trkpt><trkpt lat="45.5773767" lon="10.7539817"><ele>207.0</ele><time>2026-04-26T11:02:55.746Z</time></trkpt><trkpt lat="45.5773033" lon="10.7540167"><ele>207.0</ele><time>2026-04-26T11:02:56.747Z</time></trkpt><trkpt lat="45.5772167" lon="10.7540717"><ele>207.0</ele><time>2026-04-26T11:02:57.747Z</time></trkpt><trkpt lat="45.5771233" lon="10.7541217"><ele>207.0</ele><time>2026-04-26T11:02:58.746Z</time></trkpt><trkpt lat="45.57706" lon="10.7541817"><ele>207.0</ele><time>2026-04-26T11:02:59.746Z</time></trkpt><trkpt lat="45.57699" lon="10.7542267"><ele>207.0</ele><time>2026-04-26T11:03:01.746Z</time></trkpt><trkpt lat="45.5768783" lon="10.7541983"><ele>207.2</ele><time>2026-04-26T11:03:12.746Z</time></trkpt><trkpt lat="45.5767783" lon="10.7542717"><ele>207.39999999999998</ele><time>2026-04-26T11:03:14.746Z</time></trkpt><trkpt lat="45.5767033" lon="10.7543533"><ele>207.60000000000002</ele><time>2026-04-26T11:03:16.747Z</time></trkpt><trkpt lat="45.5766567" lon="10.7544483"><ele>207.8</ele><time>2026-04-26T11:03:18.747Z</time></trkpt><trkpt lat="45.5767117" lon="10.754525"><ele>208.0</ele><time>2026-04-26T11:03:21.746Z</time></trkpt><trkpt lat="45.5768117" lon="10.7544933"><ele>208.0</ele><time>2026-04-26T11:03:23.746Z</time></trkpt><trkpt lat="45.5768933" lon="10.7544283"><ele>208.0</ele><time>2026-04-26T11:03:25.746Z</time></trkpt></trkseg></trk></gpx>